<?xml version="1.0" encoding="UTF-8" standalone="no" ?>
<gpx xmlns="http://www.topografix.com/GPX/1/1" xmlns:xsi="http://www.w3.org/2001/XMLSchema-instance" xsi:schemaLocation="http://www.topografix.com/GPX/1/1 http://www.topografix.com/GPX/1/1/gpx.xsd" version="1.1" creator="VisuGPX - https://www.visugpx.com">
  <metadata>
    <name>Vtt départ Camaloche</name>
    <desc><![CDATA[
Avec Les Camaloche Christiane Denis Sylvie Pierrick Simonator Roland Laurence Didier Archi  ]]></desc>
  </metadata>
  <trk>
    <name><![CDATA[Vtt départ Camaloche]]></name>
    <desc><![CDATA[Avec Les Camaloche Christiane Denis Sylvie Pierrick Simonator Roland Laurence Didier Archi  ]]></desc>
    <trkseg>
      <trkpt lat="43.94591" lon="1.83349">
        <ele>251.19999694824</ele>
        <time>2020-08-13T17:09:26.000Z</time>
      </trkpt>
      <trkpt lat="43.94591" lon="1.83349">
        <ele>251.19999694824</ele>
        <time>2020-08-13T17:09:27.000Z</time>
      </trkpt>
      <trkpt lat="43.94591" lon="1.83349">
        <ele>251.19999694824</ele>
        <time>2020-08-13T17:09:28.000Z</time>
      </trkpt>
      <trkpt lat="43.94591" lon="1.83349">
        <ele>251.19999694824</ele>
        <time>2020-08-13T17:09:29.000Z</time>
      </trkpt>
      <trkpt lat="43.94591" lon="1.83349">
        <ele>251.19999694824</ele>
        <time>2020-08-13T17:09:30.000Z</time>
      </trkpt>
      <trkpt lat="43.94591" lon="1.83349">
        <ele>251.39999389648</ele>
        <time>2020-08-13T17:09:31.000Z</time>
      </trkpt>
      <trkpt lat="43.94591" lon="1.83349">
        <ele>251.39999389648</ele>
        <time>2020-08-13T17:09:32.000Z</time>
      </trkpt>
      <trkpt lat="43.94591" lon="1.83349">
        <ele>251.39999389648</ele>
        <time>2020-08-13T17:09:33.000Z</time>
      </trkpt>
      <trkpt lat="43.94591" lon="1.83349">
        <ele>251.39999389648</ele>
        <time>2020-08-13T17:09:34.000Z</time>
      </trkpt>
      <trkpt lat="43.94591" lon="1.83349">
        <ele>251.39999389648</ele>
        <time>2020-08-13T17:09:35.000Z</time>
      </trkpt>
      <trkpt lat="43.94591" lon="1.83349">
        <ele>251.19999694824</ele>
        <time>2020-08-13T17:09:36.000Z</time>
      </trkpt>
      <trkpt lat="43.94591" lon="1.83349">
        <ele>251.19999694824</ele>
        <time>2020-08-13T17:09:37.000Z</time>
      </trkpt>
      <trkpt lat="43.94591" lon="1.83349">
        <ele>251.19999694824</ele>
        <time>2020-08-13T17:09:38.000Z</time>
      </trkpt>
      <trkpt lat="43.94591" lon="1.83349">
        <ele>251.39999389648</ele>
        <time>2020-08-13T17:09:39.000Z</time>
      </trkpt>
      <trkpt lat="43.94591" lon="1.83349">
        <ele>251.39999389648</ele>
        <time>2020-08-13T17:09:40.000Z</time>
      </trkpt>
      <trkpt lat="43.94591" lon="1.83349">
        <ele>251.39999389648</ele>
        <time>2020-08-13T17:09:41.000Z</time>
      </trkpt>
      <trkpt lat="43.94591" lon="1.83349">
        <ele>251.39999389648</ele>
        <time>2020-08-13T17:09:42.000Z</time>
      </trkpt>
      <trkpt lat="43.94591" lon="1.83348">
        <ele>251.39999389648</ele>
        <time>2020-08-13T17:09:43.000Z</time>
      </trkpt>
      <trkpt lat="43.94591" lon="1.83348">
        <ele>251.39999389648</ele>
        <time>2020-08-13T17:09:44.000Z</time>
      </trkpt>
      <trkpt lat="43.94591" lon="1.83348">
        <ele>251.39999389648</ele>
        <time>2020-08-13T17:09:45.000Z</time>
      </trkpt>
      <trkpt lat="43.94591" lon="1.83348">
        <ele>251.39999389648</ele>
        <time>2020-08-13T17:09:46.000Z</time>
      </trkpt>
      <trkpt lat="43.94591" lon="1.83348">
        <ele>251.39999389648</ele>
        <time>2020-08-13T17:09:47.000Z</time>
      </trkpt>
      <trkpt lat="43.94591" lon="1.83348">
        <ele>251.39999389648</ele>
        <time>2020-08-13T17:09:48.000Z</time>
      </trkpt>
      <trkpt lat="43.94591" lon="1.83348">
        <ele>251.39999389648</ele>
        <time>2020-08-13T17:09:49.000Z</time>
      </trkpt>
      <trkpt lat="43.94591" lon="1.83348">
        <ele>251.19999694824</ele>
        <time>2020-08-13T17:09:50.000Z</time>
      </trkpt>
      <trkpt lat="43.94591" lon="1.83348">
        <ele>251.19999694824</ele>
        <time>2020-08-13T17:09:51.000Z</time>
      </trkpt>
      <trkpt lat="43.94591" lon="1.83348">
        <ele>251.39999389648</ele>
        <time>2020-08-13T17:09:52.000Z</time>
      </trkpt>
      <trkpt lat="43.94591" lon="1.83348">
        <ele>251.39999389648</ele>
        <time>2020-08-13T17:09:53.000Z</time>
      </trkpt>
      <trkpt lat="43.94591" lon="1.83348">
        <ele>251.39999389648</ele>
        <time>2020-08-13T17:09:54.000Z</time>
      </trkpt>
      <trkpt lat="43.94591" lon="1.83348">
        <ele>251.39999389648</ele>
        <time>2020-08-13T17:09:55.000Z</time>
      </trkpt>
      <trkpt lat="43.94591" lon="1.83348">
        <ele>251.39999389648</ele>
        <time>2020-08-13T17:09:56.000Z</time>
      </trkpt>
      <trkpt lat="43.94591" lon="1.83348">
        <ele>251.39999389648</ele>
        <time>2020-08-13T17:09:57.000Z</time>
      </trkpt>
      <trkpt lat="43.94591" lon="1.83348">
        <ele>251.39999389648</ele>
        <time>2020-08-13T17:09:58.000Z</time>
      </trkpt>
      <trkpt lat="43.94591" lon="1.83348">
        <ele>251.39999389648</ele>
        <time>2020-08-13T17:09:59.000Z</time>
      </trkpt>
      <trkpt lat="43.94591" lon="1.83348">
        <ele>251.39999389648</ele>
        <time>2020-08-13T17:10:00.000Z</time>
      </trkpt>
      <trkpt lat="43.94591" lon="1.83348">
        <ele>251.39999389648</ele>
        <time>2020-08-13T17:10:01.000Z</time>
      </trkpt>
      <trkpt lat="43.94591" lon="1.83348">
        <ele>251.39999389648</ele>
        <time>2020-08-13T17:10:02.000Z</time>
      </trkpt>
      <trkpt lat="43.94591" lon="1.83348">
        <ele>251.39999389648</ele>
        <time>2020-08-13T17:10:03.000Z</time>
      </trkpt>
      <trkpt lat="43.94591" lon="1.83348">
        <ele>251.39999389648</ele>
        <time>2020-08-13T17:10:04.000Z</time>
      </trkpt>
      <trkpt lat="43.94591" lon="1.83348">
        <ele>251.39999389648</ele>
        <time>2020-08-13T17:10:05.000Z</time>
      </trkpt>
      <trkpt lat="43.94591" lon="1.83348">
        <ele>251.39999389648</ele>
        <time>2020-08-13T17:10:06.000Z</time>
      </trkpt>
      <trkpt lat="43.94591" lon="1.83348">
        <ele>251.39999389648</ele>
        <time>2020-08-13T17:10:07.000Z</time>
      </trkpt>
      <trkpt lat="43.94591" lon="1.83348">
        <ele>251.19999694824</ele>
        <time>2020-08-13T17:10:08.000Z</time>
      </trkpt>
      <trkpt lat="43.94591" lon="1.83348">
        <ele>251.19999694824</ele>
        <time>2020-08-13T17:10:09.000Z</time>
      </trkpt>
      <trkpt lat="43.94591" lon="1.83348">
        <ele>251.19999694824</ele>
        <time>2020-08-13T17:10:10.000Z</time>
      </trkpt>
      <trkpt lat="43.94591" lon="1.83348">
        <ele>251.19999694824</ele>
        <time>2020-08-13T17:10:11.000Z</time>
      </trkpt>
      <trkpt lat="43.94591" lon="1.83348">
        <ele>251.19999694824</ele>
        <time>2020-08-13T17:10:12.000Z</time>
      </trkpt>
      <trkpt lat="43.94591" lon="1.83348">
        <ele>251.19999694824</ele>
        <time>2020-08-13T17:10:13.000Z</time>
      </trkpt>
      <trkpt lat="43.94591" lon="1.83348">
        <ele>251.39999389648</ele>
        <time>2020-08-13T17:10:14.000Z</time>
      </trkpt>
      <trkpt lat="43.94591" lon="1.83348">
        <ele>251.39999389648</ele>
        <time>2020-08-13T17:10:15.000Z</time>
      </trkpt>
      <trkpt lat="43.94591" lon="1.83348">
        <ele>251.39999389648</ele>
        <time>2020-08-13T17:10:16.000Z</time>
      </trkpt>
      <trkpt lat="43.94591" lon="1.83348">
        <ele>251.39999389648</ele>
        <time>2020-08-13T17:10:17.000Z</time>
      </trkpt>
      <trkpt lat="43.94591" lon="1.83348">
        <ele>251.39999389648</ele>
        <time>2020-08-13T17:10:18.000Z</time>
      </trkpt>
      <trkpt lat="43.94591" lon="1.83348">
        <ele>251.39999389648</ele>
        <time>2020-08-13T17:10:19.000Z</time>
      </trkpt>
      <trkpt lat="43.94591" lon="1.83348">
        <ele>251.39999389648</ele>
        <time>2020-08-13T17:10:20.000Z</time>
      </trkpt>
      <trkpt lat="43.94591" lon="1.83348">
        <ele>251.39999389648</ele>
        <time>2020-08-13T17:10:21.000Z</time>
      </trkpt>
      <trkpt lat="43.94591" lon="1.83348">
        <ele>251.39999389648</ele>
        <time>2020-08-13T17:10:22.000Z</time>
      </trkpt>
      <trkpt lat="43.94591" lon="1.83348">
        <ele>251.39999389648</ele>
        <time>2020-08-13T17:10:23.000Z</time>
      </trkpt>
      <trkpt lat="43.94591" lon="1.83348">
        <ele>251.39999389648</ele>
        <time>2020-08-13T17:10:24.000Z</time>
      </trkpt>
      <trkpt lat="43.94591" lon="1.83348">
        <ele>251.39999389648</ele>
        <time>2020-08-13T17:10:25.000Z</time>
      </trkpt>
      <trkpt lat="43.94591" lon="1.83348">
        <ele>251.19999694824</ele>
        <time>2020-08-13T17:10:26.000Z</time>
      </trkpt>
      <trkpt lat="43.94591" lon="1.83348">
        <ele>251.19999694824</ele>
        <time>2020-08-13T17:10:27.000Z</time>
      </trkpt>
      <trkpt lat="43.94591" lon="1.83348">
        <ele>251.39999389648</ele>
        <time>2020-08-13T17:10:28.000Z</time>
      </trkpt>
      <trkpt lat="43.94591" lon="1.83348">
        <ele>251.39999389648</ele>
        <time>2020-08-13T17:10:29.000Z</time>
      </trkpt>
      <trkpt lat="43.94591" lon="1.83348">
        <ele>251.39999389648</ele>
        <time>2020-08-13T17:10:30.000Z</time>
      </trkpt>
      <trkpt lat="43.94591" lon="1.83348">
        <ele>251.39999389648</ele>
        <time>2020-08-13T17:10:31.000Z</time>
      </trkpt>
      <trkpt lat="43.94591" lon="1.83348">
        <ele>251.19999694824</ele>
        <time>2020-08-13T17:10:32.000Z</time>
      </trkpt>
      <trkpt lat="43.94591" lon="1.83348">
        <ele>251.39999389648</ele>
        <time>2020-08-13T17:10:33.000Z</time>
      </trkpt>
      <trkpt lat="43.94591" lon="1.83348">
        <ele>251.39999389648</ele>
        <time>2020-08-13T17:10:34.000Z</time>
      </trkpt>
      <trkpt lat="43.94591" lon="1.83348">
        <ele>251.39999389648</ele>
        <time>2020-08-13T17:10:35.000Z</time>
      </trkpt>
      <trkpt lat="43.94591" lon="1.83348">
        <ele>251.39999389648</ele>
        <time>2020-08-13T17:10:36.000Z</time>
      </trkpt>
      <trkpt lat="43.94591" lon="1.83348">
        <ele>251.39999389648</ele>
        <time>2020-08-13T17:10:37.000Z</time>
      </trkpt>
      <trkpt lat="43.94591" lon="1.83348">
        <ele>251.19999694824</ele>
        <time>2020-08-13T17:10:38.000Z</time>
      </trkpt>
      <trkpt lat="43.94591" lon="1.83348">
        <ele>251.19999694824</ele>
        <time>2020-08-13T17:10:39.000Z</time>
      </trkpt>
      <trkpt lat="43.94591" lon="1.83348">
        <ele>251.19999694824</ele>
        <time>2020-08-13T17:10:40.000Z</time>
      </trkpt>
      <trkpt lat="43.94591" lon="1.83348">
        <ele>251.39999389648</ele>
        <time>2020-08-13T17:10:41.000Z</time>
      </trkpt>
      <trkpt lat="43.94591" lon="1.83348">
        <ele>251.19999694824</ele>
        <time>2020-08-13T17:10:42.000Z</time>
      </trkpt>
      <trkpt lat="43.94591" lon="1.83348">
        <ele>251.19999694824</ele>
        <time>2020-08-13T17:10:43.000Z</time>
      </trkpt>
      <trkpt lat="43.94591" lon="1.83348">
        <ele>251.19999694824</ele>
        <time>2020-08-13T17:10:44.000Z</time>
      </trkpt>
      <trkpt lat="43.94591" lon="1.83348">
        <ele>251.19999694824</ele>
        <time>2020-08-13T17:10:45.000Z</time>
      </trkpt>
      <trkpt lat="43.94591" lon="1.83348">
        <ele>251.19999694824</ele>
        <time>2020-08-13T17:10:46.000Z</time>
      </trkpt>
      <trkpt lat="43.94591" lon="1.83348">
        <ele>251.39999389648</ele>
        <time>2020-08-13T17:10:47.000Z</time>
      </trkpt>
      <trkpt lat="43.94591" lon="1.83348">
        <ele>251.19999694824</ele>
        <time>2020-08-13T17:10:48.000Z</time>
      </trkpt>
      <trkpt lat="43.94591" lon="1.83348">
        <ele>251.19999694824</ele>
        <time>2020-08-13T17:10:49.000Z</time>
      </trkpt>
      <trkpt lat="43.94591" lon="1.83348">
        <ele>251.19999694824</ele>
        <time>2020-08-13T17:10:50.000Z</time>
      </trkpt>
      <trkpt lat="43.94591" lon="1.83348">
        <ele>251.19999694824</ele>
        <time>2020-08-13T17:10:51.000Z</time>
      </trkpt>
      <trkpt lat="43.94591" lon="1.83348">
        <ele>251.19999694824</ele>
        <time>2020-08-13T17:10:52.000Z</time>
      </trkpt>
      <trkpt lat="43.94591" lon="1.83348">
        <ele>251.19999694824</ele>
        <time>2020-08-13T17:10:53.000Z</time>
      </trkpt>
      <trkpt lat="43.94591" lon="1.83348">
        <ele>251.19999694824</ele>
        <time>2020-08-13T17:10:54.000Z</time>
      </trkpt>
      <trkpt lat="43.94591" lon="1.83348">
        <ele>251.19999694824</ele>
        <time>2020-08-13T17:10:55.000Z</time>
      </trkpt>
      <trkpt lat="43.94591" lon="1.83348">
        <ele>251.19999694824</ele>
        <time>2020-08-13T17:10:56.000Z</time>
      </trkpt>
      <trkpt lat="43.94591" lon="1.83348">
        <ele>251.19999694824</ele>
        <time>2020-08-13T17:10:57.000Z</time>
      </trkpt>
      <trkpt lat="43.94591" lon="1.83348">
        <ele>251.19999694824</ele>
        <time>2020-08-13T17:10:58.000Z</time>
      </trkpt>
      <trkpt lat="43.94591" lon="1.83348">
        <ele>251.19999694824</ele>
        <time>2020-08-13T17:10:59.000Z</time>
      </trkpt>
      <trkpt lat="43.94591" lon="1.83348">
        <ele>251.19999694824</ele>
        <time>2020-08-13T17:11:00.000Z</time>
      </trkpt>
      <trkpt lat="43.94591" lon="1.83348">
        <ele>251.19999694824</ele>
        <time>2020-08-13T17:11:01.000Z</time>
      </trkpt>
      <trkpt lat="43.94591" lon="1.83348">
        <ele>251.19999694824</ele>
        <time>2020-08-13T17:11:02.000Z</time>
      </trkpt>
      <trkpt lat="43.94591" lon="1.83349">
        <ele>251.19999694824</ele>
        <time>2020-08-13T17:11:03.000Z</time>
      </trkpt>
      <trkpt lat="43.94591" lon="1.83349">
        <ele>251.19999694824</ele>
        <time>2020-08-13T17:11:04.000Z</time>
      </trkpt>
      <trkpt lat="43.94591" lon="1.83349">
        <ele>251.19999694824</ele>
        <time>2020-08-13T17:11:05.000Z</time>
      </trkpt>
      <trkpt lat="43.94591" lon="1.83349">
        <ele>251.19999694824</ele>
        <time>2020-08-13T17:11:06.000Z</time>
      </trkpt>
      <trkpt lat="43.94591" lon="1.83349">
        <ele>251.19999694824</ele>
        <time>2020-08-13T17:11:07.000Z</time>
      </trkpt>
      <trkpt lat="43.94591" lon="1.83349">
        <ele>251.19999694824</ele>
        <time>2020-08-13T17:11:08.000Z</time>
      </trkpt>
      <trkpt lat="43.94591" lon="1.83349">
        <ele>251.19999694824</ele>
        <time>2020-08-13T17:11:09.000Z</time>
      </trkpt>
      <trkpt lat="43.94591" lon="1.83349">
        <ele>251.19999694824</ele>
        <time>2020-08-13T17:11:10.000Z</time>
      </trkpt>
      <trkpt lat="43.94591" lon="1.83349">
        <ele>251.19999694824</ele>
        <time>2020-08-13T17:11:11.000Z</time>
      </trkpt>
      <trkpt lat="43.94591" lon="1.83349">
        <ele>251.19999694824</ele>
        <time>2020-08-13T17:11:12.000Z</time>
      </trkpt>
      <trkpt lat="43.94591" lon="1.83349">
        <ele>251.39999389648</ele>
        <time>2020-08-13T17:11:13.000Z</time>
      </trkpt>
      <trkpt lat="43.94591" lon="1.83349">
        <ele>251.39999389648</ele>
        <time>2020-08-13T17:11:14.000Z</time>
      </trkpt>
      <trkpt lat="43.9459" lon="1.83349">
        <ele>251.39999389648</ele>
        <time>2020-08-13T17:11:15.000Z</time>
      </trkpt>
      <trkpt lat="43.94591" lon="1.83349">
        <ele>251.19999694824</ele>
        <time>2020-08-13T17:11:16.000Z</time>
      </trkpt>
      <trkpt lat="43.9459" lon="1.83348">
        <ele>251.19999694824</ele>
        <time>2020-08-13T17:11:17.000Z</time>
      </trkpt>
      <trkpt lat="43.9459" lon="1.83348">
        <ele>251.39999389648</ele>
        <time>2020-08-13T17:11:18.000Z</time>
      </trkpt>
      <trkpt lat="43.9459" lon="1.83348">
        <ele>251.39999389648</ele>
        <time>2020-08-13T17:11:19.000Z</time>
      </trkpt>
      <trkpt lat="43.9459" lon="1.83348">
        <ele>251.39999389648</ele>
        <time>2020-08-13T17:11:20.000Z</time>
      </trkpt>
      <trkpt lat="43.9459" lon="1.83348">
        <ele>251.39999389648</ele>
        <time>2020-08-13T17:11:21.000Z</time>
      </trkpt>
      <trkpt lat="43.9459" lon="1.83348">
        <ele>251.19999694824</ele>
        <time>2020-08-13T17:11:22.000Z</time>
      </trkpt>
      <trkpt lat="43.9459" lon="1.83348">
        <ele>251.19999694824</ele>
        <time>2020-08-13T17:11:23.000Z</time>
      </trkpt>
      <trkpt lat="43.9459" lon="1.83348">
        <ele>251.19999694824</ele>
        <time>2020-08-13T17:11:24.000Z</time>
      </trkpt>
      <trkpt lat="43.9459" lon="1.83348">
        <ele>251.19999694824</ele>
        <time>2020-08-13T17:11:25.000Z</time>
      </trkpt>
      <trkpt lat="43.9459" lon="1.83348">
        <ele>251.19999694824</ele>
        <time>2020-08-13T17:11:26.000Z</time>
      </trkpt>
      <trkpt lat="43.9459" lon="1.83348">
        <ele>251.19999694824</ele>
        <time>2020-08-13T17:11:27.000Z</time>
      </trkpt>
      <trkpt lat="43.9459" lon="1.83348">
        <ele>251.19999694824</ele>
        <time>2020-08-13T17:11:28.000Z</time>
      </trkpt>
      <trkpt lat="43.9459" lon="1.83348">
        <ele>251.19999694824</ele>
        <time>2020-08-13T17:11:29.000Z</time>
      </trkpt>
      <trkpt lat="43.9459" lon="1.83348">
        <ele>251.19999694824</ele>
        <time>2020-08-13T17:11:30.000Z</time>
      </trkpt>
      <trkpt lat="43.9459" lon="1.83348">
        <ele>251.19999694824</ele>
        <time>2020-08-13T17:11:31.000Z</time>
      </trkpt>
      <trkpt lat="43.9459" lon="1.83348">
        <ele>251.19999694824</ele>
        <time>2020-08-13T17:11:32.000Z</time>
      </trkpt>
      <trkpt lat="43.9459" lon="1.83348">
        <ele>251.39999389648</ele>
        <time>2020-08-13T17:11:33.000Z</time>
      </trkpt>
      <trkpt lat="43.9459" lon="1.83348">
        <ele>251.39999389648</ele>
        <time>2020-08-13T17:11:34.000Z</time>
      </trkpt>
      <trkpt lat="43.9459" lon="1.83348">
        <ele>251.19999694824</ele>
        <time>2020-08-13T17:11:35.000Z</time>
      </trkpt>
      <trkpt lat="43.9459" lon="1.83348">
        <ele>251.19999694824</ele>
        <time>2020-08-13T17:11:36.000Z</time>
      </trkpt>
      <trkpt lat="43.9459" lon="1.83348">
        <ele>251.19999694824</ele>
        <time>2020-08-13T17:11:37.000Z</time>
      </trkpt>
      <trkpt lat="43.9459" lon="1.83348">
        <ele>251.19999694824</ele>
        <time>2020-08-13T17:11:38.000Z</time>
      </trkpt>
      <trkpt lat="43.9459" lon="1.83348">
        <ele>251.19999694824</ele>
        <time>2020-08-13T17:11:39.000Z</time>
      </trkpt>
      <trkpt lat="43.9459" lon="1.83348">
        <ele>251.19999694824</ele>
        <time>2020-08-13T17:11:40.000Z</time>
      </trkpt>
      <trkpt lat="43.9459" lon="1.83348">
        <ele>251.39999389648</ele>
        <time>2020-08-13T17:11:41.000Z</time>
      </trkpt>
      <trkpt lat="43.9459" lon="1.83348">
        <ele>251.39999389648</ele>
        <time>2020-08-13T17:11:42.000Z</time>
      </trkpt>
      <trkpt lat="43.9459" lon="1.83348">
        <ele>251.19999694824</ele>
        <time>2020-08-13T17:11:43.000Z</time>
      </trkpt>
      <trkpt lat="43.9459" lon="1.83348">
        <ele>251.39999389648</ele>
        <time>2020-08-13T17:11:44.000Z</time>
      </trkpt>
      <trkpt lat="43.9459" lon="1.83348">
        <ele>251.39999389648</ele>
        <time>2020-08-13T17:11:45.000Z</time>
      </trkpt>
      <trkpt lat="43.9459" lon="1.83348">
        <ele>251.39999389648</ele>
        <time>2020-08-13T17:11:46.000Z</time>
      </trkpt>
      <trkpt lat="43.9459" lon="1.83348">
        <ele>251.39999389648</ele>
        <time>2020-08-13T17:11:47.000Z</time>
      </trkpt>
      <trkpt lat="43.9459" lon="1.83348">
        <ele>251.39999389648</ele>
        <time>2020-08-13T17:11:48.000Z</time>
      </trkpt>
      <trkpt lat="43.9459" lon="1.83348">
        <ele>251.39999389648</ele>
        <time>2020-08-13T17:11:49.000Z</time>
      </trkpt>
      <trkpt lat="43.9459" lon="1.83348">
        <ele>251.39999389648</ele>
        <time>2020-08-13T17:11:50.000Z</time>
      </trkpt>
      <trkpt lat="43.9459" lon="1.83348">
        <ele>251.39999389648</ele>
        <time>2020-08-13T17:11:51.000Z</time>
      </trkpt>
      <trkpt lat="43.9459" lon="1.83348">
        <ele>251.39999389648</ele>
        <time>2020-08-13T17:11:52.000Z</time>
      </trkpt>
      <trkpt lat="43.9459" lon="1.83348">
        <ele>251.60000610352</ele>
        <time>2020-08-13T17:11:53.000Z</time>
      </trkpt>
      <trkpt lat="43.9459" lon="1.83348">
        <ele>251.80000305176</ele>
        <time>2020-08-13T17:11:54.000Z</time>
      </trkpt>
      <trkpt lat="43.9459" lon="1.83348">
        <ele>252</ele>
        <time>2020-08-13T17:11:55.000Z</time>
      </trkpt>
      <trkpt lat="43.9459" lon="1.83348">
        <ele>252</ele>
        <time>2020-08-13T17:11:56.000Z</time>
      </trkpt>
      <trkpt lat="43.9459" lon="1.83348">
        <ele>251.80000305176</ele>
        <time>2020-08-13T17:11:57.000Z</time>
      </trkpt>
      <trkpt lat="43.9459" lon="1.83348">
        <ele>251.60000610352</ele>
        <time>2020-08-13T17:11:58.000Z</time>
      </trkpt>
      <trkpt lat="43.9459" lon="1.83348">
        <ele>251.60000610352</ele>
        <time>2020-08-13T17:11:59.000Z</time>
      </trkpt>
      <trkpt lat="43.9459" lon="1.83348">
        <ele>251.60000610352</ele>
        <time>2020-08-13T17:12:00.000Z</time>
      </trkpt>
      <trkpt lat="43.9459" lon="1.83348">
        <ele>251.60000610352</ele>
        <time>2020-08-13T17:12:01.000Z</time>
      </trkpt>
      <trkpt lat="43.9459" lon="1.83348">
        <ele>251.60000610352</ele>
        <time>2020-08-13T17:12:02.000Z</time>
      </trkpt>
      <trkpt lat="43.9459" lon="1.83348">
        <ele>251.39999389648</ele>
        <time>2020-08-13T17:12:03.000Z</time>
      </trkpt>
      <trkpt lat="43.9459" lon="1.83348">
        <ele>251.19999694824</ele>
        <time>2020-08-13T17:12:04.000Z</time>
      </trkpt>
      <trkpt lat="43.9459" lon="1.83348">
        <ele>251.19999694824</ele>
        <time>2020-08-13T17:12:05.000Z</time>
      </trkpt>
      <trkpt lat="43.9459" lon="1.83348">
        <ele>251</ele>
        <time>2020-08-13T17:12:06.000Z</time>
      </trkpt>
      <trkpt lat="43.9459" lon="1.83348">
        <ele>251.19999694824</ele>
        <time>2020-08-13T17:12:07.000Z</time>
      </trkpt>
      <trkpt lat="43.9459" lon="1.83348">
        <ele>251.19999694824</ele>
        <time>2020-08-13T17:12:08.000Z</time>
      </trkpt>
      <trkpt lat="43.9459" lon="1.83348">
        <ele>251.19999694824</ele>
        <time>2020-08-13T17:12:09.000Z</time>
      </trkpt>
      <trkpt lat="43.9459" lon="1.83348">
        <ele>251.19999694824</ele>
        <time>2020-08-13T17:12:10.000Z</time>
      </trkpt>
      <trkpt lat="43.94591" lon="1.83347">
        <ele>251.19999694824</ele>
        <time>2020-08-13T17:12:11.000Z</time>
      </trkpt>
      <trkpt lat="43.94592" lon="1.83347">
        <ele>251.19999694824</ele>
        <time>2020-08-13T17:12:12.000Z</time>
      </trkpt>
      <trkpt lat="43.94594" lon="1.83346">
        <ele>251.39999389648</ele>
        <time>2020-08-13T17:12:13.000Z</time>
      </trkpt>
      <trkpt lat="43.94595" lon="1.83346">
        <ele>251.39999389648</ele>
        <time>2020-08-13T17:12:14.000Z</time>
      </trkpt>
      <trkpt lat="43.94596" lon="1.83345">
        <ele>251.39999389648</ele>
        <time>2020-08-13T17:12:15.000Z</time>
      </trkpt>
      <trkpt lat="43.94597" lon="1.83343">
        <ele>251.60000610352</ele>
        <time>2020-08-13T17:12:16.000Z</time>
      </trkpt>
      <trkpt lat="43.94598" lon="1.83342">
        <ele>251.60000610352</ele>
        <time>2020-08-13T17:12:17.000Z</time>
      </trkpt>
      <trkpt lat="43.94599" lon="1.8334">
        <ele>251.60000610352</ele>
        <time>2020-08-13T17:12:18.000Z</time>
      </trkpt>
      <trkpt lat="43.946" lon="1.83338">
        <ele>251.80000305176</ele>
        <time>2020-08-13T17:12:19.000Z</time>
      </trkpt>
      <trkpt lat="43.94602" lon="1.83337">
        <ele>251.80000305176</ele>
        <time>2020-08-13T17:12:20.000Z</time>
      </trkpt>
      <trkpt lat="43.94603" lon="1.83335">
        <ele>252.19999694824</ele>
        <time>2020-08-13T17:12:21.000Z</time>
      </trkpt>
      <trkpt lat="43.94604" lon="1.83334">
        <ele>252.19999694824</ele>
        <time>2020-08-13T17:12:22.000Z</time>
      </trkpt>
      <trkpt lat="43.94605" lon="1.83334">
        <ele>252.19999694824</ele>
        <time>2020-08-13T17:12:23.000Z</time>
      </trkpt>
      <trkpt lat="43.94606" lon="1.83333">
        <ele>252.19999694824</ele>
        <time>2020-08-13T17:12:24.000Z</time>
      </trkpt>
      <trkpt lat="43.94608" lon="1.83333">
        <ele>252.19999694824</ele>
        <time>2020-08-13T17:12:25.000Z</time>
      </trkpt>
      <trkpt lat="43.94609" lon="1.83333">
        <ele>252.19999694824</ele>
        <time>2020-08-13T17:12:26.000Z</time>
      </trkpt>
      <trkpt lat="43.9461" lon="1.83333">
        <ele>252.19999694824</ele>
        <time>2020-08-13T17:12:27.000Z</time>
      </trkpt>
      <trkpt lat="43.94612" lon="1.83332">
        <ele>252.19999694824</ele>
        <time>2020-08-13T17:12:28.000Z</time>
      </trkpt>
      <trkpt lat="43.94614" lon="1.83332">
        <ele>252.39999389648</ele>
        <time>2020-08-13T17:12:29.000Z</time>
      </trkpt>
      <trkpt lat="43.94615" lon="1.83332">
        <ele>252.60000610352</ele>
        <time>2020-08-13T17:12:30.000Z</time>
      </trkpt>
      <trkpt lat="43.94617" lon="1.83332">
        <ele>252.60000610352</ele>
        <time>2020-08-13T17:12:31.000Z</time>
      </trkpt>
      <trkpt lat="43.94619" lon="1.83333">
        <ele>252.60000610352</ele>
        <time>2020-08-13T17:12:32.000Z</time>
      </trkpt>
      <trkpt lat="43.9462" lon="1.83333">
        <ele>252.80000305176</ele>
        <time>2020-08-13T17:12:33.000Z</time>
      </trkpt>
      <trkpt lat="43.94622" lon="1.83333">
        <ele>252.80000305176</ele>
        <time>2020-08-13T17:12:34.000Z</time>
      </trkpt>
      <trkpt lat="43.94622" lon="1.83334">
        <ele>252.80000305176</ele>
        <time>2020-08-13T17:12:35.000Z</time>
      </trkpt>
      <trkpt lat="43.94623" lon="1.83334">
        <ele>253</ele>
        <time>2020-08-13T17:12:36.000Z</time>
      </trkpt>
      <trkpt lat="43.94624" lon="1.83334">
        <ele>253</ele>
        <time>2020-08-13T17:12:37.000Z</time>
      </trkpt>
      <trkpt lat="43.94625" lon="1.83334">
        <ele>253</ele>
        <time>2020-08-13T17:12:38.000Z</time>
      </trkpt>
      <trkpt lat="43.94626" lon="1.83335">
        <ele>253</ele>
        <time>2020-08-13T17:12:39.000Z</time>
      </trkpt>
      <trkpt lat="43.94626" lon="1.83334">
        <ele>253</ele>
        <time>2020-08-13T17:12:40.000Z</time>
      </trkpt>
      <trkpt lat="43.94626" lon="1.83335">
        <ele>253</ele>
        <time>2020-08-13T17:12:41.000Z</time>
      </trkpt>
      <trkpt lat="43.94626" lon="1.83335">
        <ele>253.19999694824</ele>
        <time>2020-08-13T17:12:42.000Z</time>
      </trkpt>
      <trkpt lat="43.94626" lon="1.83335">
        <ele>253</ele>
        <time>2020-08-13T17:12:43.000Z</time>
      </trkpt>
      <trkpt lat="43.94626" lon="1.83335">
        <ele>253</ele>
        <time>2020-08-13T17:12:44.000Z</time>
      </trkpt>
      <trkpt lat="43.94626" lon="1.83335">
        <ele>253</ele>
        <time>2020-08-13T17:12:45.000Z</time>
      </trkpt>
      <trkpt lat="43.94626" lon="1.83336">
        <ele>253</ele>
        <time>2020-08-13T17:12:46.000Z</time>
      </trkpt>
      <trkpt lat="43.94625" lon="1.83338">
        <ele>253</ele>
        <time>2020-08-13T17:12:47.000Z</time>
      </trkpt>
      <trkpt lat="43.94624" lon="1.83338">
        <ele>253</ele>
        <time>2020-08-13T17:12:48.000Z</time>
      </trkpt>
      <trkpt lat="43.94622" lon="1.83338">
        <ele>252.80000305176</ele>
        <time>2020-08-13T17:12:49.000Z</time>
      </trkpt>
      <trkpt lat="43.9462" lon="1.83338">
        <ele>252.80000305176</ele>
        <time>2020-08-13T17:12:50.000Z</time>
      </trkpt>
      <trkpt lat="43.94619" lon="1.83336">
        <ele>252.60000610352</ele>
        <time>2020-08-13T17:12:51.000Z</time>
      </trkpt>
      <trkpt lat="43.94618" lon="1.83334">
        <ele>252.80000305176</ele>
        <time>2020-08-13T17:12:52.000Z</time>
      </trkpt>
      <trkpt lat="43.94616" lon="1.83332">
        <ele>252.80000305176</ele>
        <time>2020-08-13T17:12:53.000Z</time>
      </trkpt>
      <trkpt lat="43.94614" lon="1.83331">
        <ele>252.80000305176</ele>
        <time>2020-08-13T17:12:54.000Z</time>
      </trkpt>
      <trkpt lat="43.94612" lon="1.83329">
        <ele>252.80000305176</ele>
        <time>2020-08-13T17:12:55.000Z</time>
      </trkpt>
      <trkpt lat="43.9461" lon="1.83328">
        <ele>252.60000610352</ele>
        <time>2020-08-13T17:12:56.000Z</time>
      </trkpt>
      <trkpt lat="43.94607" lon="1.83329">
        <ele>252.60000610352</ele>
        <time>2020-08-13T17:12:57.000Z</time>
      </trkpt>
      <trkpt lat="43.94604" lon="1.8333">
        <ele>252.39999389648</ele>
        <time>2020-08-13T17:12:58.000Z</time>
      </trkpt>
      <trkpt lat="43.94602" lon="1.83332">
        <ele>252.19999694824</ele>
        <time>2020-08-13T17:12:59.000Z</time>
      </trkpt>
      <trkpt lat="43.94599" lon="1.83334">
        <ele>252.19999694824</ele>
        <time>2020-08-13T17:13:00.000Z</time>
      </trkpt>
      <trkpt lat="43.94598" lon="1.83336">
        <ele>252</ele>
        <time>2020-08-13T17:13:01.000Z</time>
      </trkpt>
      <trkpt lat="43.94597" lon="1.83338">
        <ele>252</ele>
        <time>2020-08-13T17:13:02.000Z</time>
      </trkpt>
      <trkpt lat="43.94598" lon="1.83336">
        <ele>252</ele>
        <time>2020-08-13T17:13:03.000Z</time>
      </trkpt>
      <trkpt lat="43.94597" lon="1.83338">
        <ele>252</ele>
        <time>2020-08-13T17:13:04.000Z</time>
      </trkpt>
      <trkpt lat="43.94597" lon="1.83338">
        <ele>252</ele>
        <time>2020-08-13T17:13:05.000Z</time>
      </trkpt>
      <trkpt lat="43.94597" lon="1.83338">
        <ele>252</ele>
        <time>2020-08-13T17:13:06.000Z</time>
      </trkpt>
      <trkpt lat="43.94597" lon="1.83338">
        <ele>252</ele>
        <time>2020-08-13T17:13:07.000Z</time>
      </trkpt>
      <trkpt lat="43.94597" lon="1.83338">
        <ele>252</ele>
        <time>2020-08-13T17:13:08.000Z</time>
      </trkpt>
      <trkpt lat="43.94597" lon="1.83338">
        <ele>251.80000305176</ele>
        <time>2020-08-13T17:13:09.000Z</time>
      </trkpt>
      <trkpt lat="43.94597" lon="1.83338">
        <ele>251.80000305176</ele>
        <time>2020-08-13T17:13:10.000Z</time>
      </trkpt>
      <trkpt lat="43.94597" lon="1.83338">
        <ele>252</ele>
        <time>2020-08-13T17:13:11.000Z</time>
      </trkpt>
      <trkpt lat="43.94597" lon="1.83338">
        <ele>252</ele>
        <time>2020-08-13T17:13:12.000Z</time>
      </trkpt>
      <trkpt lat="43.94597" lon="1.83338">
        <ele>251.80000305176</ele>
        <time>2020-08-13T17:13:13.000Z</time>
      </trkpt>
      <trkpt lat="43.94597" lon="1.83338">
        <ele>251.80000305176</ele>
        <time>2020-08-13T17:13:14.000Z</time>
      </trkpt>
      <trkpt lat="43.94597" lon="1.83338">
        <ele>251.80000305176</ele>
        <time>2020-08-13T17:13:15.000Z</time>
      </trkpt>
      <trkpt lat="43.94597" lon="1.83338">
        <ele>251.80000305176</ele>
        <time>2020-08-13T17:13:16.000Z</time>
      </trkpt>
      <trkpt lat="43.94597" lon="1.83338">
        <ele>251.80000305176</ele>
        <time>2020-08-13T17:13:17.000Z</time>
      </trkpt>
      <trkpt lat="43.94597" lon="1.83338">
        <ele>251.80000305176</ele>
        <time>2020-08-13T17:13:18.000Z</time>
      </trkpt>
      <trkpt lat="43.94597" lon="1.83338">
        <ele>251.80000305176</ele>
        <time>2020-08-13T17:13:19.000Z</time>
      </trkpt>
      <trkpt lat="43.94597" lon="1.83338">
        <ele>251.80000305176</ele>
        <time>2020-08-13T17:13:20.000Z</time>
      </trkpt>
      <trkpt lat="43.94597" lon="1.83338">
        <ele>251.80000305176</ele>
        <time>2020-08-13T17:13:21.000Z</time>
      </trkpt>
      <trkpt lat="43.94597" lon="1.83338">
        <ele>251.80000305176</ele>
        <time>2020-08-13T17:13:22.000Z</time>
      </trkpt>
      <trkpt lat="43.94597" lon="1.83338">
        <ele>251.80000305176</ele>
        <time>2020-08-13T17:13:23.000Z</time>
      </trkpt>
      <trkpt lat="43.94597" lon="1.83338">
        <ele>251.80000305176</ele>
        <time>2020-08-13T17:13:24.000Z</time>
      </trkpt>
      <trkpt lat="43.94597" lon="1.83338">
        <ele>251.80000305176</ele>
        <time>2020-08-13T17:13:25.000Z</time>
      </trkpt>
      <trkpt lat="43.94597" lon="1.83338">
        <ele>251.80000305176</ele>
        <time>2020-08-13T17:13:26.000Z</time>
      </trkpt>
      <trkpt lat="43.94597" lon="1.83338">
        <ele>251.80000305176</ele>
        <time>2020-08-13T17:13:27.000Z</time>
      </trkpt>
      <trkpt lat="43.94597" lon="1.83338">
        <ele>251.80000305176</ele>
        <time>2020-08-13T17:13:28.000Z</time>
      </trkpt>
      <trkpt lat="43.94597" lon="1.83338">
        <ele>252</ele>
        <time>2020-08-13T17:13:29.000Z</time>
      </trkpt>
      <trkpt lat="43.94597" lon="1.83338">
        <ele>252</ele>
        <time>2020-08-13T17:13:30.000Z</time>
      </trkpt>
      <trkpt lat="43.94597" lon="1.83338">
        <ele>251.80000305176</ele>
        <time>2020-08-13T17:13:31.000Z</time>
      </trkpt>
      <trkpt lat="43.94597" lon="1.83338">
        <ele>251.80000305176</ele>
        <time>2020-08-13T17:13:32.000Z</time>
      </trkpt>
      <trkpt lat="43.94597" lon="1.83338">
        <ele>251.80000305176</ele>
        <time>2020-08-13T17:13:33.000Z</time>
      </trkpt>
      <trkpt lat="43.94597" lon="1.83338">
        <ele>252</ele>
        <time>2020-08-13T17:13:34.000Z</time>
      </trkpt>
      <trkpt lat="43.94597" lon="1.83338">
        <ele>251.80000305176</ele>
        <time>2020-08-13T17:13:35.000Z</time>
      </trkpt>
      <trkpt lat="43.94597" lon="1.83338">
        <ele>251.80000305176</ele>
        <time>2020-08-13T17:13:36.000Z</time>
      </trkpt>
      <trkpt lat="43.94597" lon="1.83338">
        <ele>251.80000305176</ele>
        <time>2020-08-13T17:13:37.000Z</time>
      </trkpt>
      <trkpt lat="43.94597" lon="1.83338">
        <ele>251.80000305176</ele>
        <time>2020-08-13T17:13:38.000Z</time>
      </trkpt>
      <trkpt lat="43.94597" lon="1.83338">
        <ele>251.80000305176</ele>
        <time>2020-08-13T17:13:39.000Z</time>
      </trkpt>
      <trkpt lat="43.94597" lon="1.83338">
        <ele>251.80000305176</ele>
        <time>2020-08-13T17:13:40.000Z</time>
      </trkpt>
      <trkpt lat="43.94597" lon="1.83338">
        <ele>251.80000305176</ele>
        <time>2020-08-13T17:13:41.000Z</time>
      </trkpt>
      <trkpt lat="43.94597" lon="1.83338">
        <ele>251.80000305176</ele>
        <time>2020-08-13T17:13:42.000Z</time>
      </trkpt>
      <trkpt lat="43.94597" lon="1.83338">
        <ele>251.80000305176</ele>
        <time>2020-08-13T17:13:43.000Z</time>
      </trkpt>
      <trkpt lat="43.94597" lon="1.83338">
        <ele>251.80000305176</ele>
        <time>2020-08-13T17:13:44.000Z</time>
      </trkpt>
      <trkpt lat="43.94597" lon="1.83338">
        <ele>251.80000305176</ele>
        <time>2020-08-13T17:13:45.000Z</time>
      </trkpt>
      <trkpt lat="43.94597" lon="1.83338">
        <ele>251.80000305176</ele>
        <time>2020-08-13T17:13:46.000Z</time>
      </trkpt>
      <trkpt lat="43.94597" lon="1.83338">
        <ele>251.80000305176</ele>
        <time>2020-08-13T17:13:47.000Z</time>
      </trkpt>
      <trkpt lat="43.94597" lon="1.83338">
        <ele>251.80000305176</ele>
        <time>2020-08-13T17:13:48.000Z</time>
      </trkpt>
      <trkpt lat="43.94597" lon="1.83338">
        <ele>251.80000305176</ele>
        <time>2020-08-13T17:13:49.000Z</time>
      </trkpt>
      <trkpt lat="43.94597" lon="1.83338">
        <ele>251.80000305176</ele>
        <time>2020-08-13T17:13:50.000Z</time>
      </trkpt>
      <trkpt lat="43.94597" lon="1.83338">
        <ele>251.80000305176</ele>
        <time>2020-08-13T17:13:51.000Z</time>
      </trkpt>
      <trkpt lat="43.94597" lon="1.83338">
        <ele>251.80000305176</ele>
        <time>2020-08-13T17:13:52.000Z</time>
      </trkpt>
      <trkpt lat="43.94597" lon="1.83338">
        <ele>251.80000305176</ele>
        <time>2020-08-13T17:13:53.000Z</time>
      </trkpt>
      <trkpt lat="43.94597" lon="1.83338">
        <ele>251.80000305176</ele>
        <time>2020-08-13T17:13:54.000Z</time>
      </trkpt>
      <trkpt lat="43.94597" lon="1.83338">
        <ele>251.80000305176</ele>
        <time>2020-08-13T17:13:55.000Z</time>
      </trkpt>
      <trkpt lat="43.94597" lon="1.83338">
        <ele>251.80000305176</ele>
        <time>2020-08-13T17:13:56.000Z</time>
      </trkpt>
      <trkpt lat="43.94597" lon="1.83338">
        <ele>251.80000305176</ele>
        <time>2020-08-13T17:13:57.000Z</time>
      </trkpt>
      <trkpt lat="43.94597" lon="1.83338">
        <ele>251.80000305176</ele>
        <time>2020-08-13T17:13:58.000Z</time>
      </trkpt>
      <trkpt lat="43.94597" lon="1.83338">
        <ele>251.80000305176</ele>
        <time>2020-08-13T17:13:59.000Z</time>
      </trkpt>
      <trkpt lat="43.94597" lon="1.83338">
        <ele>251.80000305176</ele>
        <time>2020-08-13T17:14:00.000Z</time>
      </trkpt>
      <trkpt lat="43.94597" lon="1.83338">
        <ele>251.80000305176</ele>
        <time>2020-08-13T17:14:01.000Z</time>
      </trkpt>
      <trkpt lat="43.94597" lon="1.83338">
        <ele>251.80000305176</ele>
        <time>2020-08-13T17:14:02.000Z</time>
      </trkpt>
      <trkpt lat="43.94597" lon="1.83338">
        <ele>251.80000305176</ele>
        <time>2020-08-13T17:14:03.000Z</time>
      </trkpt>
      <trkpt lat="43.94597" lon="1.83338">
        <ele>251.80000305176</ele>
        <time>2020-08-13T17:14:04.000Z</time>
      </trkpt>
      <trkpt lat="43.94597" lon="1.83338">
        <ele>251.60000610352</ele>
        <time>2020-08-13T17:14:05.000Z</time>
      </trkpt>
      <trkpt lat="43.94597" lon="1.83338">
        <ele>251.60000610352</ele>
        <time>2020-08-13T17:14:06.000Z</time>
      </trkpt>
      <trkpt lat="43.94597" lon="1.83338">
        <ele>251.60000610352</ele>
        <time>2020-08-13T17:14:07.000Z</time>
      </trkpt>
      <trkpt lat="43.94597" lon="1.83338">
        <ele>251.80000305176</ele>
        <time>2020-08-13T17:14:08.000Z</time>
      </trkpt>
      <trkpt lat="43.94597" lon="1.83338">
        <ele>251.80000305176</ele>
        <time>2020-08-13T17:14:09.000Z</time>
      </trkpt>
      <trkpt lat="43.94597" lon="1.83338">
        <ele>251.80000305176</ele>
        <time>2020-08-13T17:14:10.000Z</time>
      </trkpt>
      <trkpt lat="43.94597" lon="1.83338">
        <ele>251.80000305176</ele>
        <time>2020-08-13T17:14:11.000Z</time>
      </trkpt>
      <trkpt lat="43.94597" lon="1.83338">
        <ele>251.80000305176</ele>
        <time>2020-08-13T17:14:12.000Z</time>
      </trkpt>
      <trkpt lat="43.94597" lon="1.83338">
        <ele>251.80000305176</ele>
        <time>2020-08-13T17:14:13.000Z</time>
      </trkpt>
      <trkpt lat="43.94597" lon="1.83338">
        <ele>251.80000305176</ele>
        <time>2020-08-13T17:14:14.000Z</time>
      </trkpt>
      <trkpt lat="43.94597" lon="1.83338">
        <ele>251.80000305176</ele>
        <time>2020-08-13T17:14:15.000Z</time>
      </trkpt>
      <trkpt lat="43.94597" lon="1.83338">
        <ele>252</ele>
        <time>2020-08-13T17:14:16.000Z</time>
      </trkpt>
      <trkpt lat="43.94597" lon="1.83338">
        <ele>251.80000305176</ele>
        <time>2020-08-13T17:14:17.000Z</time>
      </trkpt>
      <trkpt lat="43.94597" lon="1.83338">
        <ele>251.80000305176</ele>
        <time>2020-08-13T17:14:18.000Z</time>
      </trkpt>
      <trkpt lat="43.94597" lon="1.83338">
        <ele>251.80000305176</ele>
        <time>2020-08-13T17:14:19.000Z</time>
      </trkpt>
      <trkpt lat="43.94597" lon="1.83338">
        <ele>251.80000305176</ele>
        <time>2020-08-13T17:14:20.000Z</time>
      </trkpt>
      <trkpt lat="43.94597" lon="1.83338">
        <ele>251.80000305176</ele>
        <time>2020-08-13T17:14:21.000Z</time>
      </trkpt>
      <trkpt lat="43.94597" lon="1.83338">
        <ele>251.80000305176</ele>
        <time>2020-08-13T17:14:22.000Z</time>
      </trkpt>
      <trkpt lat="43.94597" lon="1.83338">
        <ele>251.80000305176</ele>
        <time>2020-08-13T17:14:23.000Z</time>
      </trkpt>
      <trkpt lat="43.94597" lon="1.83338">
        <ele>251.80000305176</ele>
        <time>2020-08-13T17:14:24.000Z</time>
      </trkpt>
      <trkpt lat="43.94597" lon="1.83338">
        <ele>251.80000305176</ele>
        <time>2020-08-13T17:14:25.000Z</time>
      </trkpt>
      <trkpt lat="43.94597" lon="1.83338">
        <ele>251.80000305176</ele>
        <time>2020-08-13T17:14:26.000Z</time>
      </trkpt>
      <trkpt lat="43.94597" lon="1.83338">
        <ele>251.80000305176</ele>
        <time>2020-08-13T17:14:27.000Z</time>
      </trkpt>
      <trkpt lat="43.94597" lon="1.83338">
        <ele>251.80000305176</ele>
        <time>2020-08-13T17:14:28.000Z</time>
      </trkpt>
      <trkpt lat="43.94597" lon="1.83338">
        <ele>251.80000305176</ele>
        <time>2020-08-13T17:14:29.000Z</time>
      </trkpt>
      <trkpt lat="43.94597" lon="1.83338">
        <ele>251.80000305176</ele>
        <time>2020-08-13T17:14:30.000Z</time>
      </trkpt>
      <trkpt lat="43.94597" lon="1.83338">
        <ele>251.80000305176</ele>
        <time>2020-08-13T17:14:31.000Z</time>
      </trkpt>
      <trkpt lat="43.94597" lon="1.83338">
        <ele>251.80000305176</ele>
        <time>2020-08-13T17:14:32.000Z</time>
      </trkpt>
      <trkpt lat="43.94597" lon="1.83338">
        <ele>251.80000305176</ele>
        <time>2020-08-13T17:14:33.000Z</time>
      </trkpt>
      <trkpt lat="43.94597" lon="1.83338">
        <ele>251.80000305176</ele>
        <time>2020-08-13T17:14:34.000Z</time>
      </trkpt>
      <trkpt lat="43.94597" lon="1.83338">
        <ele>251.80000305176</ele>
        <time>2020-08-13T17:14:35.000Z</time>
      </trkpt>
      <trkpt lat="43.94597" lon="1.83338">
        <ele>251.80000305176</ele>
        <time>2020-08-13T17:14:36.000Z</time>
      </trkpt>
      <trkpt lat="43.94597" lon="1.83338">
        <ele>251.80000305176</ele>
        <time>2020-08-13T17:14:37.000Z</time>
      </trkpt>
      <trkpt lat="43.94597" lon="1.83338">
        <ele>251.80000305176</ele>
        <time>2020-08-13T17:14:38.000Z</time>
      </trkpt>
      <trkpt lat="43.94597" lon="1.83338">
        <ele>251.80000305176</ele>
        <time>2020-08-13T17:14:39.000Z</time>
      </trkpt>
      <trkpt lat="43.94597" lon="1.83338">
        <ele>251.80000305176</ele>
        <time>2020-08-13T17:14:40.000Z</time>
      </trkpt>
      <trkpt lat="43.94597" lon="1.83338">
        <ele>251.80000305176</ele>
        <time>2020-08-13T17:14:41.000Z</time>
      </trkpt>
      <trkpt lat="43.94597" lon="1.83338">
        <ele>251.80000305176</ele>
        <time>2020-08-13T17:14:42.000Z</time>
      </trkpt>
      <trkpt lat="43.94597" lon="1.83338">
        <ele>251.80000305176</ele>
        <time>2020-08-13T17:14:43.000Z</time>
      </trkpt>
      <trkpt lat="43.94597" lon="1.83338">
        <ele>251.80000305176</ele>
        <time>2020-08-13T17:14:44.000Z</time>
      </trkpt>
      <trkpt lat="43.94597" lon="1.83338">
        <ele>251.80000305176</ele>
        <time>2020-08-13T17:14:45.000Z</time>
      </trkpt>
      <trkpt lat="43.94597" lon="1.83338">
        <ele>251.80000305176</ele>
        <time>2020-08-13T17:14:46.000Z</time>
      </trkpt>
      <trkpt lat="43.94597" lon="1.83338">
        <ele>251.80000305176</ele>
        <time>2020-08-13T17:14:47.000Z</time>
      </trkpt>
      <trkpt lat="43.94597" lon="1.83338">
        <ele>251.80000305176</ele>
        <time>2020-08-13T17:14:48.000Z</time>
      </trkpt>
      <trkpt lat="43.94597" lon="1.83338">
        <ele>251.80000305176</ele>
        <time>2020-08-13T17:14:49.000Z</time>
      </trkpt>
      <trkpt lat="43.94597" lon="1.83338">
        <ele>251.80000305176</ele>
        <time>2020-08-13T17:14:50.000Z</time>
      </trkpt>
      <trkpt lat="43.94597" lon="1.83338">
        <ele>251.80000305176</ele>
        <time>2020-08-13T17:14:51.000Z</time>
      </trkpt>
      <trkpt lat="43.94597" lon="1.83338">
        <ele>251.80000305176</ele>
        <time>2020-08-13T17:14:52.000Z</time>
      </trkpt>
      <trkpt lat="43.94597" lon="1.83338">
        <ele>251.80000305176</ele>
        <time>2020-08-13T17:14:53.000Z</time>
      </trkpt>
      <trkpt lat="43.94597" lon="1.83338">
        <ele>251.80000305176</ele>
        <time>2020-08-13T17:14:54.000Z</time>
      </trkpt>
      <trkpt lat="43.94596" lon="1.83338">
        <ele>251.80000305176</ele>
        <time>2020-08-13T17:14:55.000Z</time>
      </trkpt>
      <trkpt lat="43.94596" lon="1.83336">
        <ele>251.80000305176</ele>
        <time>2020-08-13T17:14:56.000Z</time>
      </trkpt>
      <trkpt lat="43.94597" lon="1.83333">
        <ele>251.80000305176</ele>
        <time>2020-08-13T17:14:57.000Z</time>
      </trkpt>
      <trkpt lat="43.94599" lon="1.83332">
        <ele>251.80000305176</ele>
        <time>2020-08-13T17:14:58.000Z</time>
      </trkpt>
      <trkpt lat="43.946" lon="1.83331">
        <ele>252</ele>
        <time>2020-08-13T17:14:59.000Z</time>
      </trkpt>
      <trkpt lat="43.94603" lon="1.8333">
        <ele>252.19999694824</ele>
        <time>2020-08-13T17:15:00.000Z</time>
      </trkpt>
      <trkpt lat="43.94605" lon="1.83329">
        <ele>252.19999694824</ele>
        <time>2020-08-13T17:15:01.000Z</time>
      </trkpt>
      <trkpt lat="43.94607" lon="1.83328">
        <ele>252.19999694824</ele>
        <time>2020-08-13T17:15:02.000Z</time>
      </trkpt>
      <trkpt lat="43.94609" lon="1.83328">
        <ele>252.19999694824</ele>
        <time>2020-08-13T17:15:03.000Z</time>
      </trkpt>
      <trkpt lat="43.94611" lon="1.83328">
        <ele>252.19999694824</ele>
        <time>2020-08-13T17:15:04.000Z</time>
      </trkpt>
      <trkpt lat="43.94613" lon="1.83327">
        <ele>252.39999389648</ele>
        <time>2020-08-13T17:15:05.000Z</time>
      </trkpt>
      <trkpt lat="43.94615" lon="1.83327">
        <ele>252.39999389648</ele>
        <time>2020-08-13T17:15:06.000Z</time>
      </trkpt>
      <trkpt lat="43.94617" lon="1.83328">
        <ele>252.60000610352</ele>
        <time>2020-08-13T17:15:07.000Z</time>
      </trkpt>
      <trkpt lat="43.9462" lon="1.83329">
        <ele>252.60000610352</ele>
        <time>2020-08-13T17:15:08.000Z</time>
      </trkpt>
      <trkpt lat="43.94622" lon="1.8333">
        <ele>252.60000610352</ele>
        <time>2020-08-13T17:15:09.000Z</time>
      </trkpt>
      <trkpt lat="43.94625" lon="1.83331">
        <ele>253</ele>
        <time>2020-08-13T17:15:10.000Z</time>
      </trkpt>
      <trkpt lat="43.94627" lon="1.83332">
        <ele>253</ele>
        <time>2020-08-13T17:15:11.000Z</time>
      </trkpt>
      <trkpt lat="43.94629" lon="1.83334">
        <ele>253</ele>
        <time>2020-08-13T17:15:12.000Z</time>
      </trkpt>
      <trkpt lat="43.94632" lon="1.83336">
        <ele>253</ele>
        <time>2020-08-13T17:15:13.000Z</time>
      </trkpt>
      <trkpt lat="43.94635" lon="1.83339">
        <ele>252.80000305176</ele>
        <time>2020-08-13T17:15:14.000Z</time>
      </trkpt>
      <trkpt lat="43.94637" lon="1.83341">
        <ele>252.80000305176</ele>
        <time>2020-08-13T17:15:15.000Z</time>
      </trkpt>
      <trkpt lat="43.9464" lon="1.83343">
        <ele>253</ele>
        <time>2020-08-13T17:15:16.000Z</time>
      </trkpt>
      <trkpt lat="43.94643" lon="1.83346">
        <ele>253.19999694824</ele>
        <time>2020-08-13T17:15:17.000Z</time>
      </trkpt>
      <trkpt lat="43.94646" lon="1.83348">
        <ele>253.19999694824</ele>
        <time>2020-08-13T17:15:18.000Z</time>
      </trkpt>
      <trkpt lat="43.94649" lon="1.83351">
        <ele>253.19999694824</ele>
        <time>2020-08-13T17:15:19.000Z</time>
      </trkpt>
      <trkpt lat="43.94651" lon="1.83353">
        <ele>253.39999389648</ele>
        <time>2020-08-13T17:15:20.000Z</time>
      </trkpt>
      <trkpt lat="43.94654" lon="1.83356">
        <ele>253.60000610352</ele>
        <time>2020-08-13T17:15:21.000Z</time>
      </trkpt>
      <trkpt lat="43.94656" lon="1.83359">
        <ele>253.80000305176</ele>
        <time>2020-08-13T17:15:22.000Z</time>
      </trkpt>
      <trkpt lat="43.94659" lon="1.83361">
        <ele>254</ele>
        <time>2020-08-13T17:15:23.000Z</time>
      </trkpt>
      <trkpt lat="43.94662" lon="1.83363">
        <ele>254.19999694824</ele>
        <time>2020-08-13T17:15:24.000Z</time>
      </trkpt>
      <trkpt lat="43.94664" lon="1.83365">
        <ele>254.19999694824</ele>
        <time>2020-08-13T17:15:25.000Z</time>
      </trkpt>
      <trkpt lat="43.94667" lon="1.83367">
        <ele>254.19999694824</ele>
        <time>2020-08-13T17:15:26.000Z</time>
      </trkpt>
      <trkpt lat="43.9467" lon="1.8337">
        <ele>254.39999389648</ele>
        <time>2020-08-13T17:15:27.000Z</time>
      </trkpt>
      <trkpt lat="43.94672" lon="1.83372">
        <ele>254.39999389648</ele>
        <time>2020-08-13T17:15:28.000Z</time>
      </trkpt>
      <trkpt lat="43.94675" lon="1.83375">
        <ele>254.60000610352</ele>
        <time>2020-08-13T17:15:29.000Z</time>
      </trkpt>
      <trkpt lat="43.94677" lon="1.83377">
        <ele>254.60000610352</ele>
        <time>2020-08-13T17:15:30.000Z</time>
      </trkpt>
      <trkpt lat="43.9468" lon="1.8338">
        <ele>254.80000305176</ele>
        <time>2020-08-13T17:15:31.000Z</time>
      </trkpt>
      <trkpt lat="43.94682" lon="1.83382">
        <ele>254.80000305176</ele>
        <time>2020-08-13T17:15:32.000Z</time>
      </trkpt>
      <trkpt lat="43.94685" lon="1.83384">
        <ele>255.19999694824</ele>
        <time>2020-08-13T17:15:33.000Z</time>
      </trkpt>
      <trkpt lat="43.94687" lon="1.83386">
        <ele>255.39999389648</ele>
        <time>2020-08-13T17:15:34.000Z</time>
      </trkpt>
      <trkpt lat="43.94689" lon="1.83389">
        <ele>255.80000305176</ele>
        <time>2020-08-13T17:15:35.000Z</time>
      </trkpt>
      <trkpt lat="43.94691" lon="1.83391">
        <ele>255.80000305176</ele>
        <time>2020-08-13T17:15:36.000Z</time>
      </trkpt>
      <trkpt lat="43.94693" lon="1.83393">
        <ele>255.80000305176</ele>
        <time>2020-08-13T17:15:37.000Z</time>
      </trkpt>
      <trkpt lat="43.94695" lon="1.83394">
        <ele>256</ele>
        <time>2020-08-13T17:15:38.000Z</time>
      </trkpt>
      <trkpt lat="43.94697" lon="1.83396">
        <ele>256.39999389648</ele>
        <time>2020-08-13T17:15:39.000Z</time>
      </trkpt>
      <trkpt lat="43.94699" lon="1.83398">
        <ele>256.79998779297</ele>
        <time>2020-08-13T17:15:40.000Z</time>
      </trkpt>
      <trkpt lat="43.94701" lon="1.834">
        <ele>256.79998779297</ele>
        <time>2020-08-13T17:15:41.000Z</time>
      </trkpt>
      <trkpt lat="43.94703" lon="1.83402">
        <ele>257</ele>
        <time>2020-08-13T17:15:42.000Z</time>
      </trkpt>
      <trkpt lat="43.94705" lon="1.83404">
        <ele>257</ele>
        <time>2020-08-13T17:15:43.000Z</time>
      </trkpt>
      <trkpt lat="43.94706" lon="1.83405">
        <ele>257.39999389648</ele>
        <time>2020-08-13T17:15:44.000Z</time>
      </trkpt>
      <trkpt lat="43.94708" lon="1.83407">
        <ele>257.39999389648</ele>
        <time>2020-08-13T17:15:45.000Z</time>
      </trkpt>
      <trkpt lat="43.94709" lon="1.83408">
        <ele>257.60000610352</ele>
        <time>2020-08-13T17:15:46.000Z</time>
      </trkpt>
      <trkpt lat="43.9471" lon="1.83408">
        <ele>257.79998779297</ele>
        <time>2020-08-13T17:15:47.000Z</time>
      </trkpt>
      <trkpt lat="43.94711" lon="1.83409">
        <ele>258</ele>
        <time>2020-08-13T17:15:48.000Z</time>
      </trkpt>
      <trkpt lat="43.94711" lon="1.8341">
        <ele>258.20001220703</ele>
        <time>2020-08-13T17:15:49.000Z</time>
      </trkpt>
      <trkpt lat="43.94712" lon="1.83411">
        <ele>258.20001220703</ele>
        <time>2020-08-13T17:15:50.000Z</time>
      </trkpt>
      <trkpt lat="43.94711" lon="1.8341">
        <ele>258.20001220703</ele>
        <time>2020-08-13T17:15:51.000Z</time>
      </trkpt>
      <trkpt lat="43.94712" lon="1.83411">
        <ele>258.20001220703</ele>
        <time>2020-08-13T17:15:52.000Z</time>
      </trkpt>
      <trkpt lat="43.94712" lon="1.83411">
        <ele>258.20001220703</ele>
        <time>2020-08-13T17:15:53.000Z</time>
      </trkpt>
      <trkpt lat="43.94712" lon="1.83411">
        <ele>258.20001220703</ele>
        <time>2020-08-13T17:15:54.000Z</time>
      </trkpt>
      <trkpt lat="43.94712" lon="1.83411">
        <ele>258.20001220703</ele>
        <time>2020-08-13T17:15:55.000Z</time>
      </trkpt>
      <trkpt lat="43.94712" lon="1.83411">
        <ele>258.20001220703</ele>
        <time>2020-08-13T17:15:56.000Z</time>
      </trkpt>
      <trkpt lat="43.94712" lon="1.83411">
        <ele>258.20001220703</ele>
        <time>2020-08-13T17:15:57.000Z</time>
      </trkpt>
      <trkpt lat="43.94712" lon="1.83411">
        <ele>258.20001220703</ele>
        <time>2020-08-13T17:15:58.000Z</time>
      </trkpt>
      <trkpt lat="43.94712" lon="1.83411">
        <ele>258.20001220703</ele>
        <time>2020-08-13T17:15:59.000Z</time>
      </trkpt>
      <trkpt lat="43.94712" lon="1.83411">
        <ele>258.39999389648</ele>
        <time>2020-08-13T17:16:00.000Z</time>
      </trkpt>
      <trkpt lat="43.94712" lon="1.83411">
        <ele>258.20001220703</ele>
        <time>2020-08-13T17:16:01.000Z</time>
      </trkpt>
      <trkpt lat="43.94712" lon="1.83411">
        <ele>258.20001220703</ele>
        <time>2020-08-13T17:16:02.000Z</time>
      </trkpt>
      <trkpt lat="43.94712" lon="1.83411">
        <ele>258.20001220703</ele>
        <time>2020-08-13T17:16:03.000Z</time>
      </trkpt>
      <trkpt lat="43.94712" lon="1.83411">
        <ele>258.20001220703</ele>
        <time>2020-08-13T17:16:04.000Z</time>
      </trkpt>
      <trkpt lat="43.94712" lon="1.83411">
        <ele>258</ele>
        <time>2020-08-13T17:16:05.000Z</time>
      </trkpt>
      <trkpt lat="43.94712" lon="1.83411">
        <ele>258.20001220703</ele>
        <time>2020-08-13T17:16:06.000Z</time>
      </trkpt>
      <trkpt lat="43.94712" lon="1.83411">
        <ele>258.20001220703</ele>
        <time>2020-08-13T17:16:07.000Z</time>
      </trkpt>
      <trkpt lat="43.94712" lon="1.83411">
        <ele>258.39999389648</ele>
        <time>2020-08-13T17:16:08.000Z</time>
      </trkpt>
      <trkpt lat="43.94713" lon="1.83412">
        <ele>258.20001220703</ele>
        <time>2020-08-13T17:16:09.000Z</time>
      </trkpt>
      <trkpt lat="43.94714" lon="1.83413">
        <ele>258.20001220703</ele>
        <time>2020-08-13T17:16:10.000Z</time>
      </trkpt>
      <trkpt lat="43.94715" lon="1.83415">
        <ele>258.39999389648</ele>
        <time>2020-08-13T17:16:11.000Z</time>
      </trkpt>
      <trkpt lat="43.94717" lon="1.83417">
        <ele>258.39999389648</ele>
        <time>2020-08-13T17:16:12.000Z</time>
      </trkpt>
      <trkpt lat="43.94719" lon="1.83418">
        <ele>258.39999389648</ele>
        <time>2020-08-13T17:16:13.000Z</time>
      </trkpt>
      <trkpt lat="43.9472" lon="1.83421">
        <ele>258.39999389648</ele>
        <time>2020-08-13T17:16:14.000Z</time>
      </trkpt>
      <trkpt lat="43.94719" lon="1.83425">
        <ele>258.20001220703</ele>
        <time>2020-08-13T17:16:15.000Z</time>
      </trkpt>
      <trkpt lat="43.94716" lon="1.83427">
        <ele>258</ele>
        <time>2020-08-13T17:16:16.000Z</time>
      </trkpt>
      <trkpt lat="43.94714" lon="1.83429">
        <ele>257.79998779297</ele>
        <time>2020-08-13T17:16:17.000Z</time>
      </trkpt>
      <trkpt lat="43.94711" lon="1.83431">
        <ele>257.60000610352</ele>
        <time>2020-08-13T17:16:18.000Z</time>
      </trkpt>
      <trkpt lat="43.94707" lon="1.83432">
        <ele>257.60000610352</ele>
        <time>2020-08-13T17:16:19.000Z</time>
      </trkpt>
      <trkpt lat="43.94704" lon="1.83434">
        <ele>257.39999389648</ele>
        <time>2020-08-13T17:16:20.000Z</time>
      </trkpt>
      <trkpt lat="43.94701" lon="1.83436">
        <ele>257</ele>
        <time>2020-08-13T17:16:21.000Z</time>
      </trkpt>
      <trkpt lat="43.94697" lon="1.83438">
        <ele>257</ele>
        <time>2020-08-13T17:16:22.000Z</time>
      </trkpt>
      <trkpt lat="43.94694" lon="1.8344">
        <ele>256.79998779297</ele>
        <time>2020-08-13T17:16:23.000Z</time>
      </trkpt>
      <trkpt lat="43.9469" lon="1.83443">
        <ele>256.79998779297</ele>
        <time>2020-08-13T17:16:24.000Z</time>
      </trkpt>
      <trkpt lat="43.94687" lon="1.83445">
        <ele>256.60000610352</ele>
        <time>2020-08-13T17:16:25.000Z</time>
      </trkpt>
      <trkpt lat="43.94683" lon="1.83447">
        <ele>256.39999389648</ele>
        <time>2020-08-13T17:16:26.000Z</time>
      </trkpt>
      <trkpt lat="43.94679" lon="1.83449">
        <ele>256.39999389648</ele>
        <time>2020-08-13T17:16:27.000Z</time>
      </trkpt>
      <trkpt lat="43.94675" lon="1.83451">
        <ele>256.20001220703</ele>
        <time>2020-08-13T17:16:28.000Z</time>
      </trkpt>
      <trkpt lat="43.9467" lon="1.83452">
        <ele>256</ele>
        <time>2020-08-13T17:16:29.000Z</time>
      </trkpt>
      <trkpt lat="43.94666" lon="1.83453">
        <ele>255.80000305176</ele>
        <time>2020-08-13T17:16:30.000Z</time>
      </trkpt>
      <trkpt lat="43.94661" lon="1.83454">
        <ele>255.60000610352</ele>
        <time>2020-08-13T17:16:31.000Z</time>
      </trkpt>
      <trkpt lat="43.94657" lon="1.83456">
        <ele>255.19999694824</ele>
        <time>2020-08-13T17:16:32.000Z</time>
      </trkpt>
      <trkpt lat="43.94653" lon="1.83457">
        <ele>255</ele>
        <time>2020-08-13T17:16:33.000Z</time>
      </trkpt>
      <trkpt lat="43.94648" lon="1.83457">
        <ele>254.80000305176</ele>
        <time>2020-08-13T17:16:34.000Z</time>
      </trkpt>
      <trkpt lat="43.94643" lon="1.83459">
        <ele>254.39999389648</ele>
        <time>2020-08-13T17:16:35.000Z</time>
      </trkpt>
      <trkpt lat="43.94639" lon="1.8346">
        <ele>254</ele>
        <time>2020-08-13T17:16:36.000Z</time>
      </trkpt>
      <trkpt lat="43.94634" lon="1.83463">
        <ele>253.39999389648</ele>
        <time>2020-08-13T17:16:37.000Z</time>
      </trkpt>
      <trkpt lat="43.94629" lon="1.83466">
        <ele>253</ele>
        <time>2020-08-13T17:16:38.000Z</time>
      </trkpt>
      <trkpt lat="43.94624" lon="1.83469">
        <ele>252.80000305176</ele>
        <time>2020-08-13T17:16:39.000Z</time>
      </trkpt>
      <trkpt lat="43.94619" lon="1.83473">
        <ele>252.60000610352</ele>
        <time>2020-08-13T17:16:40.000Z</time>
      </trkpt>
      <trkpt lat="43.94615" lon="1.83478">
        <ele>252.39999389648</ele>
        <time>2020-08-13T17:16:41.000Z</time>
      </trkpt>
      <trkpt lat="43.9461" lon="1.83483">
        <ele>251.80000305176</ele>
        <time>2020-08-13T17:16:42.000Z</time>
      </trkpt>
      <trkpt lat="43.94605" lon="1.83488">
        <ele>251</ele>
        <time>2020-08-13T17:16:43.000Z</time>
      </trkpt>
      <trkpt lat="43.946" lon="1.83493">
        <ele>250.60000610352</ele>
        <time>2020-08-13T17:16:44.000Z</time>
      </trkpt>
      <trkpt lat="43.94595" lon="1.83497">
        <ele>250.19999694824</ele>
        <time>2020-08-13T17:16:45.000Z</time>
      </trkpt>
      <trkpt lat="43.9459" lon="1.83502">
        <ele>250</ele>
        <time>2020-08-13T17:16:46.000Z</time>
      </trkpt>
      <trkpt lat="43.94585" lon="1.83506">
        <ele>249.80000305176</ele>
        <time>2020-08-13T17:16:47.000Z</time>
      </trkpt>
      <trkpt lat="43.94581" lon="1.83511">
        <ele>249.60000610352</ele>
        <time>2020-08-13T17:16:48.000Z</time>
      </trkpt>
      <trkpt lat="43.94577" lon="1.83516">
        <ele>249.19999694824</ele>
        <time>2020-08-13T17:16:49.000Z</time>
      </trkpt>
      <trkpt lat="43.94572" lon="1.8352">
        <ele>249</ele>
        <time>2020-08-13T17:16:50.000Z</time>
      </trkpt>
      <trkpt lat="43.94567" lon="1.83524">
        <ele>248.60000610352</ele>
        <time>2020-08-13T17:16:51.000Z</time>
      </trkpt>
      <trkpt lat="43.94563" lon="1.83528">
        <ele>249</ele>
        <time>2020-08-13T17:16:52.000Z</time>
      </trkpt>
      <trkpt lat="43.94559" lon="1.83533">
        <ele>248.80000305176</ele>
        <time>2020-08-13T17:16:53.000Z</time>
      </trkpt>
      <trkpt lat="43.94554" lon="1.83537">
        <ele>248.80000305176</ele>
        <time>2020-08-13T17:16:54.000Z</time>
      </trkpt>
      <trkpt lat="43.9455" lon="1.83541">
        <ele>248.39999389648</ele>
        <time>2020-08-13T17:16:55.000Z</time>
      </trkpt>
      <trkpt lat="43.94546" lon="1.83544">
        <ele>248.19999694824</ele>
        <time>2020-08-13T17:16:56.000Z</time>
      </trkpt>
      <trkpt lat="43.94541" lon="1.83548">
        <ele>247.80000305176</ele>
        <time>2020-08-13T17:16:57.000Z</time>
      </trkpt>
      <trkpt lat="43.94537" lon="1.83552">
        <ele>247.80000305176</ele>
        <time>2020-08-13T17:16:58.000Z</time>
      </trkpt>
      <trkpt lat="43.94533" lon="1.83555">
        <ele>247.60000610352</ele>
        <time>2020-08-13T17:16:59.000Z</time>
      </trkpt>
      <trkpt lat="43.94529" lon="1.83559">
        <ele>247.19999694824</ele>
        <time>2020-08-13T17:17:00.000Z</time>
      </trkpt>
      <trkpt lat="43.94525" lon="1.83563">
        <ele>247</ele>
        <time>2020-08-13T17:17:01.000Z</time>
      </trkpt>
      <trkpt lat="43.94521" lon="1.83568">
        <ele>246.80000305176</ele>
        <time>2020-08-13T17:17:02.000Z</time>
      </trkpt>
      <trkpt lat="43.94517" lon="1.83572">
        <ele>246.80000305176</ele>
        <time>2020-08-13T17:17:03.000Z</time>
      </trkpt>
      <trkpt lat="43.94514" lon="1.83576">
        <ele>246.60000610352</ele>
        <time>2020-08-13T17:17:04.000Z</time>
      </trkpt>
      <trkpt lat="43.9451" lon="1.8358">
        <ele>246.60000610352</ele>
        <time>2020-08-13T17:17:05.000Z</time>
      </trkpt>
      <trkpt lat="43.94506" lon="1.83584">
        <ele>246.39999389648</ele>
        <time>2020-08-13T17:17:06.000Z</time>
      </trkpt>
      <trkpt lat="43.94503" lon="1.83588">
        <ele>246.39999389648</ele>
        <time>2020-08-13T17:17:07.000Z</time>
      </trkpt>
      <trkpt lat="43.945" lon="1.83592">
        <ele>246.39999389648</ele>
        <time>2020-08-13T17:17:08.000Z</time>
      </trkpt>
      <trkpt lat="43.94496" lon="1.83595">
        <ele>246.39999389648</ele>
        <time>2020-08-13T17:17:09.000Z</time>
      </trkpt>
      <trkpt lat="43.94493" lon="1.83599">
        <ele>246</ele>
        <time>2020-08-13T17:17:10.000Z</time>
      </trkpt>
      <trkpt lat="43.94491" lon="1.83602">
        <ele>246</ele>
        <time>2020-08-13T17:17:11.000Z</time>
      </trkpt>
      <trkpt lat="43.94488" lon="1.83605">
        <ele>245.80000305176</ele>
        <time>2020-08-13T17:17:12.000Z</time>
      </trkpt>
      <trkpt lat="43.94485" lon="1.83609">
        <ele>245.80000305176</ele>
        <time>2020-08-13T17:17:13.000Z</time>
      </trkpt>
      <trkpt lat="43.94482" lon="1.83612">
        <ele>245.60000610352</ele>
        <time>2020-08-13T17:17:14.000Z</time>
      </trkpt>
      <trkpt lat="43.9448" lon="1.83614">
        <ele>245.60000610352</ele>
        <time>2020-08-13T17:17:15.000Z</time>
      </trkpt>
      <trkpt lat="43.94478" lon="1.83617">
        <ele>245.39999389648</ele>
        <time>2020-08-13T17:17:16.000Z</time>
      </trkpt>
      <trkpt lat="43.94475" lon="1.83619">
        <ele>245.39999389648</ele>
        <time>2020-08-13T17:17:17.000Z</time>
      </trkpt>
      <trkpt lat="43.94473" lon="1.83621">
        <ele>245.39999389648</ele>
        <time>2020-08-13T17:17:18.000Z</time>
      </trkpt>
      <trkpt lat="43.94471" lon="1.83623">
        <ele>245.19999694824</ele>
        <time>2020-08-13T17:17:19.000Z</time>
      </trkpt>
      <trkpt lat="43.94468" lon="1.83625">
        <ele>245.19999694824</ele>
        <time>2020-08-13T17:17:20.000Z</time>
      </trkpt>
      <trkpt lat="43.94465" lon="1.83627">
        <ele>245</ele>
        <time>2020-08-13T17:17:21.000Z</time>
      </trkpt>
      <trkpt lat="43.94462" lon="1.83629">
        <ele>244.80000305176</ele>
        <time>2020-08-13T17:17:22.000Z</time>
      </trkpt>
      <trkpt lat="43.94458" lon="1.83631">
        <ele>244.60000610352</ele>
        <time>2020-08-13T17:17:23.000Z</time>
      </trkpt>
      <trkpt lat="43.94454" lon="1.83633">
        <ele>244.39999389648</ele>
        <time>2020-08-13T17:17:24.000Z</time>
      </trkpt>
      <trkpt lat="43.9445" lon="1.83634">
        <ele>244</ele>
        <time>2020-08-13T17:17:25.000Z</time>
      </trkpt>
      <trkpt lat="43.94445" lon="1.83636">
        <ele>243.80000305176</ele>
        <time>2020-08-13T17:17:26.000Z</time>
      </trkpt>
      <trkpt lat="43.94442" lon="1.83638">
        <ele>243.80000305176</ele>
        <time>2020-08-13T17:17:27.000Z</time>
      </trkpt>
      <trkpt lat="43.94439" lon="1.8364">
        <ele>243.60000610352</ele>
        <time>2020-08-13T17:17:28.000Z</time>
      </trkpt>
      <trkpt lat="43.94437" lon="1.83643">
        <ele>243.39999389648</ele>
        <time>2020-08-13T17:17:29.000Z</time>
      </trkpt>
      <trkpt lat="43.94436" lon="1.83647">
        <ele>243.19999694824</ele>
        <time>2020-08-13T17:17:30.000Z</time>
      </trkpt>
      <trkpt lat="43.94438" lon="1.83652">
        <ele>243</ele>
        <time>2020-08-13T17:17:31.000Z</time>
      </trkpt>
      <trkpt lat="43.94439" lon="1.83657">
        <ele>242.80000305176</ele>
        <time>2020-08-13T17:17:32.000Z</time>
      </trkpt>
      <trkpt lat="43.94441" lon="1.83662">
        <ele>242.60000610352</ele>
        <time>2020-08-13T17:17:33.000Z</time>
      </trkpt>
      <trkpt lat="43.94443" lon="1.83668">
        <ele>242.60000610352</ele>
        <time>2020-08-13T17:17:34.000Z</time>
      </trkpt>
      <trkpt lat="43.94445" lon="1.83674">
        <ele>242.60000610352</ele>
        <time>2020-08-13T17:17:35.000Z</time>
      </trkpt>
      <trkpt lat="43.94446" lon="1.8368">
        <ele>242.39999389648</ele>
        <time>2020-08-13T17:17:36.000Z</time>
      </trkpt>
      <trkpt lat="43.94448" lon="1.83687">
        <ele>242.39999389648</ele>
        <time>2020-08-13T17:17:37.000Z</time>
      </trkpt>
      <trkpt lat="43.9445" lon="1.83693">
        <ele>242.19999694824</ele>
        <time>2020-08-13T17:17:38.000Z</time>
      </trkpt>
      <trkpt lat="43.94451" lon="1.83701">
        <ele>242.19999694824</ele>
        <time>2020-08-13T17:17:39.000Z</time>
      </trkpt>
      <trkpt lat="43.94453" lon="1.83709">
        <ele>242</ele>
        <time>2020-08-13T17:17:40.000Z</time>
      </trkpt>
      <trkpt lat="43.94454" lon="1.83716">
        <ele>241.60000610352</ele>
        <time>2020-08-13T17:17:41.000Z</time>
      </trkpt>
      <trkpt lat="43.94455" lon="1.83724">
        <ele>241.39999389648</ele>
        <time>2020-08-13T17:17:42.000Z</time>
      </trkpt>
      <trkpt lat="43.94457" lon="1.83732">
        <ele>241</ele>
        <time>2020-08-13T17:17:43.000Z</time>
      </trkpt>
      <trkpt lat="43.94458" lon="1.83739">
        <ele>240.60000610352</ele>
        <time>2020-08-13T17:17:44.000Z</time>
      </trkpt>
      <trkpt lat="43.9446" lon="1.83748">
        <ele>240</ele>
        <time>2020-08-13T17:17:45.000Z</time>
      </trkpt>
      <trkpt lat="43.94462" lon="1.83756">
        <ele>239.60000610352</ele>
        <time>2020-08-13T17:17:46.000Z</time>
      </trkpt>
      <trkpt lat="43.94464" lon="1.83765">
        <ele>239.19999694824</ele>
        <time>2020-08-13T17:17:47.000Z</time>
      </trkpt>
      <trkpt lat="43.94466" lon="1.83774">
        <ele>238.60000610352</ele>
        <time>2020-08-13T17:17:48.000Z</time>
      </trkpt>
      <trkpt lat="43.94467" lon="1.83784">
        <ele>238.19999694824</ele>
        <time>2020-08-13T17:17:49.000Z</time>
      </trkpt>
      <trkpt lat="43.94469" lon="1.83794">
        <ele>237.80000305176</ele>
        <time>2020-08-13T17:17:50.000Z</time>
      </trkpt>
      <trkpt lat="43.94471" lon="1.83803">
        <ele>237.60000610352</ele>
        <time>2020-08-13T17:17:51.000Z</time>
      </trkpt>
      <trkpt lat="43.94472" lon="1.83813">
        <ele>237.19999694824</ele>
        <time>2020-08-13T17:17:52.000Z</time>
      </trkpt>
      <trkpt lat="43.94474" lon="1.83823">
        <ele>237.19999694824</ele>
        <time>2020-08-13T17:17:53.000Z</time>
      </trkpt>
      <trkpt lat="43.94476" lon="1.83832">
        <ele>237</ele>
        <time>2020-08-13T17:17:54.000Z</time>
      </trkpt>
      <trkpt lat="43.94478" lon="1.83841">
        <ele>236.80000305176</ele>
        <time>2020-08-13T17:17:55.000Z</time>
      </trkpt>
      <trkpt lat="43.9448" lon="1.83849">
        <ele>236.60000610352</ele>
        <time>2020-08-13T17:17:56.000Z</time>
      </trkpt>
      <trkpt lat="43.94481" lon="1.83856">
        <ele>236.39999389648</ele>
        <time>2020-08-13T17:17:57.000Z</time>
      </trkpt>
      <trkpt lat="43.94481" lon="1.83863">
        <ele>236.19999694824</ele>
        <time>2020-08-13T17:17:58.000Z</time>
      </trkpt>
      <trkpt lat="43.94478" lon="1.83869">
        <ele>236</ele>
        <time>2020-08-13T17:17:59.000Z</time>
      </trkpt>
      <trkpt lat="43.94474" lon="1.83875">
        <ele>235.80000305176</ele>
        <time>2020-08-13T17:18:00.000Z</time>
      </trkpt>
      <trkpt lat="43.94469" lon="1.83879">
        <ele>235.60000610352</ele>
        <time>2020-08-13T17:18:01.000Z</time>
      </trkpt>
      <trkpt lat="43.94465" lon="1.83883">
        <ele>235.39999389648</ele>
        <time>2020-08-13T17:18:02.000Z</time>
      </trkpt>
      <trkpt lat="43.9446" lon="1.83887">
        <ele>235</ele>
        <time>2020-08-13T17:18:03.000Z</time>
      </trkpt>
      <trkpt lat="43.94455" lon="1.83891">
        <ele>234.60000610352</ele>
        <time>2020-08-13T17:18:04.000Z</time>
      </trkpt>
      <trkpt lat="43.9445" lon="1.83895">
        <ele>234</ele>
        <time>2020-08-13T17:18:05.000Z</time>
      </trkpt>
      <trkpt lat="43.94444" lon="1.83898">
        <ele>233.60000610352</ele>
        <time>2020-08-13T17:18:06.000Z</time>
      </trkpt>
      <trkpt lat="43.94439" lon="1.83902">
        <ele>233.19999694824</ele>
        <time>2020-08-13T17:18:07.000Z</time>
      </trkpt>
      <trkpt lat="43.94433" lon="1.83906">
        <ele>232.39999389648</ele>
        <time>2020-08-13T17:18:08.000Z</time>
      </trkpt>
      <trkpt lat="43.94428" lon="1.83909">
        <ele>232.19999694824</ele>
        <time>2020-08-13T17:18:09.000Z</time>
      </trkpt>
      <trkpt lat="43.94422" lon="1.83913">
        <ele>231.60000610352</ele>
        <time>2020-08-13T17:18:10.000Z</time>
      </trkpt>
      <trkpt lat="43.94417" lon="1.83916">
        <ele>231.19999694824</ele>
        <time>2020-08-13T17:18:11.000Z</time>
      </trkpt>
      <trkpt lat="43.94412" lon="1.83919">
        <ele>230.60000610352</ele>
        <time>2020-08-13T17:18:12.000Z</time>
      </trkpt>
      <trkpt lat="43.94408" lon="1.83921">
        <ele>230.39999389648</ele>
        <time>2020-08-13T17:18:13.000Z</time>
      </trkpt>
      <trkpt lat="43.94404" lon="1.83924">
        <ele>230.19999694824</ele>
        <time>2020-08-13T17:18:14.000Z</time>
      </trkpt>
      <trkpt lat="43.944" lon="1.83927">
        <ele>230.19999694824</ele>
        <time>2020-08-13T17:18:15.000Z</time>
      </trkpt>
      <trkpt lat="43.94396" lon="1.83929">
        <ele>230</ele>
        <time>2020-08-13T17:18:16.000Z</time>
      </trkpt>
      <trkpt lat="43.94392" lon="1.83932">
        <ele>229.80000305176</ele>
        <time>2020-08-13T17:18:17.000Z</time>
      </trkpt>
      <trkpt lat="43.94389" lon="1.83935">
        <ele>229.60000610352</ele>
        <time>2020-08-13T17:18:18.000Z</time>
      </trkpt>
      <trkpt lat="43.94386" lon="1.83937">
        <ele>229.60000610352</ele>
        <time>2020-08-13T17:18:19.000Z</time>
      </trkpt>
      <trkpt lat="43.94384" lon="1.83939">
        <ele>229.60000610352</ele>
        <time>2020-08-13T17:18:20.000Z</time>
      </trkpt>
      <trkpt lat="43.94381" lon="1.8394">
        <ele>229.80000305176</ele>
        <time>2020-08-13T17:18:21.000Z</time>
      </trkpt>
      <trkpt lat="43.94378" lon="1.83941">
        <ele>229.80000305176</ele>
        <time>2020-08-13T17:18:22.000Z</time>
      </trkpt>
      <trkpt lat="43.94375" lon="1.83943">
        <ele>229.60000610352</ele>
        <time>2020-08-13T17:18:23.000Z</time>
      </trkpt>
      <trkpt lat="43.94372" lon="1.83944">
        <ele>229.39999389648</ele>
        <time>2020-08-13T17:18:24.000Z</time>
      </trkpt>
      <trkpt lat="43.94368" lon="1.83945">
        <ele>229.19999694824</ele>
        <time>2020-08-13T17:18:25.000Z</time>
      </trkpt>
      <trkpt lat="43.94365" lon="1.83946">
        <ele>229.19999694824</ele>
        <time>2020-08-13T17:18:26.000Z</time>
      </trkpt>
      <trkpt lat="43.94361" lon="1.83948">
        <ele>229</ele>
        <time>2020-08-13T17:18:27.000Z</time>
      </trkpt>
      <trkpt lat="43.94357" lon="1.8395">
        <ele>229.19999694824</ele>
        <time>2020-08-13T17:18:28.000Z</time>
      </trkpt>
      <trkpt lat="43.94353" lon="1.83952">
        <ele>229.19999694824</ele>
        <time>2020-08-13T17:18:29.000Z</time>
      </trkpt>
      <trkpt lat="43.94348" lon="1.83954">
        <ele>229.19999694824</ele>
        <time>2020-08-13T17:18:30.000Z</time>
      </trkpt>
      <trkpt lat="43.94345" lon="1.83955">
        <ele>229.39999389648</ele>
        <time>2020-08-13T17:18:31.000Z</time>
      </trkpt>
      <trkpt lat="43.94341" lon="1.83957">
        <ele>229.60000610352</ele>
        <time>2020-08-13T17:18:32.000Z</time>
      </trkpt>
      <trkpt lat="43.94336" lon="1.83959">
        <ele>229.60000610352</ele>
        <time>2020-08-13T17:18:33.000Z</time>
      </trkpt>
      <trkpt lat="43.94332" lon="1.83961">
        <ele>229.19999694824</ele>
        <time>2020-08-13T17:18:34.000Z</time>
      </trkpt>
      <trkpt lat="43.94328" lon="1.83963">
        <ele>229.19999694824</ele>
        <time>2020-08-13T17:18:35.000Z</time>
      </trkpt>
      <trkpt lat="43.94323" lon="1.83965">
        <ele>229.19999694824</ele>
        <time>2020-08-13T17:18:36.000Z</time>
      </trkpt>
      <trkpt lat="43.9432" lon="1.83969">
        <ele>229.19999694824</ele>
        <time>2020-08-13T17:18:37.000Z</time>
      </trkpt>
      <trkpt lat="43.94317" lon="1.83973">
        <ele>229</ele>
        <time>2020-08-13T17:18:38.000Z</time>
      </trkpt>
      <trkpt lat="43.94315" lon="1.83978">
        <ele>229</ele>
        <time>2020-08-13T17:18:39.000Z</time>
      </trkpt>
      <trkpt lat="43.94314" lon="1.83983">
        <ele>229.19999694824</ele>
        <time>2020-08-13T17:18:40.000Z</time>
      </trkpt>
      <trkpt lat="43.94314" lon="1.83989">
        <ele>229.19999694824</ele>
        <time>2020-08-13T17:18:41.000Z</time>
      </trkpt>
      <trkpt lat="43.94313" lon="1.83994">
        <ele>229.39999389648</ele>
        <time>2020-08-13T17:18:42.000Z</time>
      </trkpt>
      <trkpt lat="43.94312" lon="1.83999">
        <ele>229.39999389648</ele>
        <time>2020-08-13T17:18:43.000Z</time>
      </trkpt>
      <trkpt lat="43.94312" lon="1.84005">
        <ele>229.39999389648</ele>
        <time>2020-08-13T17:18:44.000Z</time>
      </trkpt>
      <trkpt lat="43.94311" lon="1.8401">
        <ele>229.60000610352</ele>
        <time>2020-08-13T17:18:45.000Z</time>
      </trkpt>
      <trkpt lat="43.94311" lon="1.84015">
        <ele>229.80000305176</ele>
        <time>2020-08-13T17:18:46.000Z</time>
      </trkpt>
      <trkpt lat="43.9431" lon="1.84019">
        <ele>230</ele>
        <time>2020-08-13T17:18:47.000Z</time>
      </trkpt>
      <trkpt lat="43.94309" lon="1.84024">
        <ele>230.19999694824</ele>
        <time>2020-08-13T17:18:48.000Z</time>
      </trkpt>
      <trkpt lat="43.94309" lon="1.84028">
        <ele>230.19999694824</ele>
        <time>2020-08-13T17:18:49.000Z</time>
      </trkpt>
      <trkpt lat="43.94308" lon="1.84033">
        <ele>230</ele>
        <time>2020-08-13T17:18:50.000Z</time>
      </trkpt>
      <trkpt lat="43.94307" lon="1.84037">
        <ele>230</ele>
        <time>2020-08-13T17:18:51.000Z</time>
      </trkpt>
      <trkpt lat="43.94307" lon="1.84041">
        <ele>230.19999694824</ele>
        <time>2020-08-13T17:18:52.000Z</time>
      </trkpt>
      <trkpt lat="43.94306" lon="1.84045">
        <ele>230.39999389648</ele>
        <time>2020-08-13T17:18:53.000Z</time>
      </trkpt>
      <trkpt lat="43.94305" lon="1.84049">
        <ele>230.39999389648</ele>
        <time>2020-08-13T17:18:54.000Z</time>
      </trkpt>
      <trkpt lat="43.94304" lon="1.84052">
        <ele>230.39999389648</ele>
        <time>2020-08-13T17:18:55.000Z</time>
      </trkpt>
      <trkpt lat="43.94303" lon="1.84056">
        <ele>230.39999389648</ele>
        <time>2020-08-13T17:18:56.000Z</time>
      </trkpt>
      <trkpt lat="43.94302" lon="1.84059">
        <ele>230.39999389648</ele>
        <time>2020-08-13T17:18:57.000Z</time>
      </trkpt>
      <trkpt lat="43.94301" lon="1.84063">
        <ele>230.60000610352</ele>
        <time>2020-08-13T17:18:58.000Z</time>
      </trkpt>
      <trkpt lat="43.94299" lon="1.84066">
        <ele>230.80000305176</ele>
        <time>2020-08-13T17:18:59.000Z</time>
      </trkpt>
      <trkpt lat="43.94298" lon="1.84069">
        <ele>230.80000305176</ele>
        <time>2020-08-13T17:19:00.000Z</time>
      </trkpt>
      <trkpt lat="43.94297" lon="1.84072">
        <ele>231</ele>
        <time>2020-08-13T17:19:01.000Z</time>
      </trkpt>
      <trkpt lat="43.94296" lon="1.84075">
        <ele>231</ele>
        <time>2020-08-13T17:19:02.000Z</time>
      </trkpt>
      <trkpt lat="43.94295" lon="1.84077">
        <ele>231.19999694824</ele>
        <time>2020-08-13T17:19:03.000Z</time>
      </trkpt>
      <trkpt lat="43.94294" lon="1.8408">
        <ele>231.39999389648</ele>
        <time>2020-08-13T17:19:04.000Z</time>
      </trkpt>
      <trkpt lat="43.94294" lon="1.84082">
        <ele>231.39999389648</ele>
        <time>2020-08-13T17:19:05.000Z</time>
      </trkpt>
      <trkpt lat="43.94294" lon="1.84084">
        <ele>231.39999389648</ele>
        <time>2020-08-13T17:19:06.000Z</time>
      </trkpt>
      <trkpt lat="43.94293" lon="1.84086">
        <ele>231.60000610352</ele>
        <time>2020-08-13T17:19:07.000Z</time>
      </trkpt>
      <trkpt lat="43.94292" lon="1.84087">
        <ele>231.60000610352</ele>
        <time>2020-08-13T17:19:08.000Z</time>
      </trkpt>
      <trkpt lat="43.94292" lon="1.84088">
        <ele>231.60000610352</ele>
        <time>2020-08-13T17:19:09.000Z</time>
      </trkpt>
      <trkpt lat="43.94292" lon="1.84089">
        <ele>231.80000305176</ele>
        <time>2020-08-13T17:19:10.000Z</time>
      </trkpt>
      <trkpt lat="43.94291" lon="1.8409">
        <ele>231.80000305176</ele>
        <time>2020-08-13T17:19:11.000Z</time>
      </trkpt>
      <trkpt lat="43.94291" lon="1.84091">
        <ele>232</ele>
        <time>2020-08-13T17:19:12.000Z</time>
      </trkpt>
      <trkpt lat="43.94291" lon="1.8409">
        <ele>232</ele>
        <time>2020-08-13T17:19:13.000Z</time>
      </trkpt>
      <trkpt lat="43.94289" lon="1.84093">
        <ele>232</ele>
        <time>2020-08-13T17:19:14.000Z</time>
      </trkpt>
      <trkpt lat="43.94288" lon="1.84095">
        <ele>232</ele>
        <time>2020-08-13T17:19:15.000Z</time>
      </trkpt>
      <trkpt lat="43.94288" lon="1.84096">
        <ele>232.19999694824</ele>
        <time>2020-08-13T17:19:16.000Z</time>
      </trkpt>
      <trkpt lat="43.94286" lon="1.84097">
        <ele>232.19999694824</ele>
        <time>2020-08-13T17:19:17.000Z</time>
      </trkpt>
      <trkpt lat="43.94285" lon="1.84097">
        <ele>232.19999694824</ele>
        <time>2020-08-13T17:19:18.000Z</time>
      </trkpt>
      <trkpt lat="43.94286" lon="1.84097">
        <ele>232.39999389648</ele>
        <time>2020-08-13T17:19:19.000Z</time>
      </trkpt>
      <trkpt lat="43.94285" lon="1.84097">
        <ele>232.39999389648</ele>
        <time>2020-08-13T17:19:20.000Z</time>
      </trkpt>
      <trkpt lat="43.94285" lon="1.84097">
        <ele>232.60000610352</ele>
        <time>2020-08-13T17:19:21.000Z</time>
      </trkpt>
      <trkpt lat="43.94285" lon="1.84097">
        <ele>232.60000610352</ele>
        <time>2020-08-13T17:19:22.000Z</time>
      </trkpt>
      <trkpt lat="43.94285" lon="1.84097">
        <ele>232.60000610352</ele>
        <time>2020-08-13T17:19:23.000Z</time>
      </trkpt>
      <trkpt lat="43.94285" lon="1.84097">
        <ele>232.39999389648</ele>
        <time>2020-08-13T17:19:24.000Z</time>
      </trkpt>
      <trkpt lat="43.94285" lon="1.84097">
        <ele>232.39999389648</ele>
        <time>2020-08-13T17:19:25.000Z</time>
      </trkpt>
      <trkpt lat="43.94285" lon="1.84097">
        <ele>232.39999389648</ele>
        <time>2020-08-13T17:19:26.000Z</time>
      </trkpt>
      <trkpt lat="43.94285" lon="1.84097">
        <ele>232.60000610352</ele>
        <time>2020-08-13T17:19:27.000Z</time>
      </trkpt>
      <trkpt lat="43.94285" lon="1.84097">
        <ele>232.60000610352</ele>
        <time>2020-08-13T17:19:28.000Z</time>
      </trkpt>
      <trkpt lat="43.94285" lon="1.84097">
        <ele>232.60000610352</ele>
        <time>2020-08-13T17:19:29.000Z</time>
      </trkpt>
      <trkpt lat="43.94285" lon="1.84097">
        <ele>232.39999389648</ele>
        <time>2020-08-13T17:19:30.000Z</time>
      </trkpt>
      <trkpt lat="43.94285" lon="1.84097">
        <ele>232.39999389648</ele>
        <time>2020-08-13T17:19:31.000Z</time>
      </trkpt>
      <trkpt lat="43.94285" lon="1.84097">
        <ele>232.39999389648</ele>
        <time>2020-08-13T17:19:32.000Z</time>
      </trkpt>
      <trkpt lat="43.94285" lon="1.84097">
        <ele>232.60000610352</ele>
        <time>2020-08-13T17:19:33.000Z</time>
      </trkpt>
      <trkpt lat="43.94285" lon="1.84097">
        <ele>232.60000610352</ele>
        <time>2020-08-13T17:19:34.000Z</time>
      </trkpt>
      <trkpt lat="43.94285" lon="1.84097">
        <ele>232.60000610352</ele>
        <time>2020-08-13T17:19:35.000Z</time>
      </trkpt>
      <trkpt lat="43.94285" lon="1.84097">
        <ele>232.60000610352</ele>
        <time>2020-08-13T17:19:36.000Z</time>
      </trkpt>
      <trkpt lat="43.94285" lon="1.84097">
        <ele>232.39999389648</ele>
        <time>2020-08-13T17:19:37.000Z</time>
      </trkpt>
      <trkpt lat="43.94285" lon="1.84097">
        <ele>232.39999389648</ele>
        <time>2020-08-13T17:19:38.000Z</time>
      </trkpt>
      <trkpt lat="43.94285" lon="1.84097">
        <ele>232.39999389648</ele>
        <time>2020-08-13T17:19:39.000Z</time>
      </trkpt>
      <trkpt lat="43.94285" lon="1.84097">
        <ele>232.60000610352</ele>
        <time>2020-08-13T17:19:40.000Z</time>
      </trkpt>
      <trkpt lat="43.94285" lon="1.84097">
        <ele>232.60000610352</ele>
        <time>2020-08-13T17:19:41.000Z</time>
      </trkpt>
      <trkpt lat="43.94285" lon="1.84097">
        <ele>232.60000610352</ele>
        <time>2020-08-13T17:19:42.000Z</time>
      </trkpt>
      <trkpt lat="43.94285" lon="1.84097">
        <ele>232.60000610352</ele>
        <time>2020-08-13T17:19:43.000Z</time>
      </trkpt>
      <trkpt lat="43.94285" lon="1.84097">
        <ele>232.60000610352</ele>
        <time>2020-08-13T17:19:44.000Z</time>
      </trkpt>
      <trkpt lat="43.94285" lon="1.84097">
        <ele>232.60000610352</ele>
        <time>2020-08-13T17:19:45.000Z</time>
      </trkpt>
      <trkpt lat="43.94285" lon="1.84097">
        <ele>232.39999389648</ele>
        <time>2020-08-13T17:19:46.000Z</time>
      </trkpt>
      <trkpt lat="43.94285" lon="1.84097">
        <ele>232.60000610352</ele>
        <time>2020-08-13T17:19:47.000Z</time>
      </trkpt>
      <trkpt lat="43.94285" lon="1.84097">
        <ele>232.60000610352</ele>
        <time>2020-08-13T17:19:48.000Z</time>
      </trkpt>
      <trkpt lat="43.94285" lon="1.84097">
        <ele>232.60000610352</ele>
        <time>2020-08-13T17:19:49.000Z</time>
      </trkpt>
      <trkpt lat="43.94285" lon="1.84097">
        <ele>232.60000610352</ele>
        <time>2020-08-13T17:19:50.000Z</time>
      </trkpt>
      <trkpt lat="43.94285" lon="1.84097">
        <ele>232.60000610352</ele>
        <time>2020-08-13T17:19:51.000Z</time>
      </trkpt>
      <trkpt lat="43.94285" lon="1.84097">
        <ele>232.60000610352</ele>
        <time>2020-08-13T17:19:52.000Z</time>
      </trkpt>
      <trkpt lat="43.94285" lon="1.84097">
        <ele>232.60000610352</ele>
        <time>2020-08-13T17:19:53.000Z</time>
      </trkpt>
      <trkpt lat="43.94285" lon="1.84097">
        <ele>232.39999389648</ele>
        <time>2020-08-13T17:19:54.000Z</time>
      </trkpt>
      <trkpt lat="43.94285" lon="1.84097">
        <ele>232.39999389648</ele>
        <time>2020-08-13T17:19:55.000Z</time>
      </trkpt>
      <trkpt lat="43.94285" lon="1.84097">
        <ele>232.39999389648</ele>
        <time>2020-08-13T17:19:56.000Z</time>
      </trkpt>
      <trkpt lat="43.94285" lon="1.84097">
        <ele>232.60000610352</ele>
        <time>2020-08-13T17:19:57.000Z</time>
      </trkpt>
      <trkpt lat="43.94285" lon="1.84097">
        <ele>232.60000610352</ele>
        <time>2020-08-13T17:19:58.000Z</time>
      </trkpt>
      <trkpt lat="43.94285" lon="1.84097">
        <ele>232.80000305176</ele>
        <time>2020-08-13T17:19:59.000Z</time>
      </trkpt>
      <trkpt lat="43.94285" lon="1.84097">
        <ele>232.80000305176</ele>
        <time>2020-08-13T17:20:00.000Z</time>
      </trkpt>
      <trkpt lat="43.94285" lon="1.84097">
        <ele>232.80000305176</ele>
        <time>2020-08-13T17:20:01.000Z</time>
      </trkpt>
      <trkpt lat="43.94285" lon="1.84097">
        <ele>232.80000305176</ele>
        <time>2020-08-13T17:20:02.000Z</time>
      </trkpt>
      <trkpt lat="43.94285" lon="1.84097">
        <ele>232.60000610352</ele>
        <time>2020-08-13T17:20:03.000Z</time>
      </trkpt>
      <trkpt lat="43.94285" lon="1.84097">
        <ele>232.60000610352</ele>
        <time>2020-08-13T17:20:04.000Z</time>
      </trkpt>
      <trkpt lat="43.94285" lon="1.84097">
        <ele>232.60000610352</ele>
        <time>2020-08-13T17:20:05.000Z</time>
      </trkpt>
      <trkpt lat="43.94285" lon="1.84097">
        <ele>232.60000610352</ele>
        <time>2020-08-13T17:20:06.000Z</time>
      </trkpt>
      <trkpt lat="43.94284" lon="1.84097">
        <ele>232.60000610352</ele>
        <time>2020-08-13T17:20:07.000Z</time>
      </trkpt>
      <trkpt lat="43.94285" lon="1.84097">
        <ele>232.60000610352</ele>
        <time>2020-08-13T17:20:08.000Z</time>
      </trkpt>
      <trkpt lat="43.94282" lon="1.84095">
        <ele>232.39999389648</ele>
        <time>2020-08-13T17:20:09.000Z</time>
      </trkpt>
      <trkpt lat="43.94281" lon="1.84093">
        <ele>232.39999389648</ele>
        <time>2020-08-13T17:20:10.000Z</time>
      </trkpt>
      <trkpt lat="43.94279" lon="1.84091">
        <ele>232.60000610352</ele>
        <time>2020-08-13T17:20:11.000Z</time>
      </trkpt>
      <trkpt lat="43.94278" lon="1.84088">
        <ele>232.80000305176</ele>
        <time>2020-08-13T17:20:12.000Z</time>
      </trkpt>
      <trkpt lat="43.94277" lon="1.84085">
        <ele>233.19999694824</ele>
        <time>2020-08-13T17:20:13.000Z</time>
      </trkpt>
      <trkpt lat="43.94275" lon="1.84083">
        <ele>233.60000610352</ele>
        <time>2020-08-13T17:20:14.000Z</time>
      </trkpt>
      <trkpt lat="43.94274" lon="1.8408">
        <ele>234</ele>
        <time>2020-08-13T17:20:15.000Z</time>
      </trkpt>
      <trkpt lat="43.94273" lon="1.84076">
        <ele>234.19999694824</ele>
        <time>2020-08-13T17:20:16.000Z</time>
      </trkpt>
      <trkpt lat="43.94271" lon="1.84073">
        <ele>234.60000610352</ele>
        <time>2020-08-13T17:20:17.000Z</time>
      </trkpt>
      <trkpt lat="43.9427" lon="1.84069">
        <ele>234.80000305176</ele>
        <time>2020-08-13T17:20:18.000Z</time>
      </trkpt>
      <trkpt lat="43.94268" lon="1.84066">
        <ele>235.19999694824</ele>
        <time>2020-08-13T17:20:19.000Z</time>
      </trkpt>
      <trkpt lat="43.94267" lon="1.84063">
        <ele>235.39999389648</ele>
        <time>2020-08-13T17:20:20.000Z</time>
      </trkpt>
      <trkpt lat="43.94266" lon="1.8406">
        <ele>235.60000610352</ele>
        <time>2020-08-13T17:20:21.000Z</time>
      </trkpt>
      <trkpt lat="43.94264" lon="1.84057">
        <ele>235.80000305176</ele>
        <time>2020-08-13T17:20:22.000Z</time>
      </trkpt>
      <trkpt lat="43.94263" lon="1.84055">
        <ele>236.19999694824</ele>
        <time>2020-08-13T17:20:23.000Z</time>
      </trkpt>
      <trkpt lat="43.94262" lon="1.84053">
        <ele>236.39999389648</ele>
        <time>2020-08-13T17:20:24.000Z</time>
      </trkpt>
      <trkpt lat="43.9426" lon="1.8405">
        <ele>236.39999389648</ele>
        <time>2020-08-13T17:20:25.000Z</time>
      </trkpt>
      <trkpt lat="43.94259" lon="1.84047">
        <ele>236.60000610352</ele>
        <time>2020-08-13T17:20:26.000Z</time>
      </trkpt>
      <trkpt lat="43.94257" lon="1.84044">
        <ele>236.60000610352</ele>
        <time>2020-08-13T17:20:27.000Z</time>
      </trkpt>
      <trkpt lat="43.94255" lon="1.84041">
        <ele>236.80000305176</ele>
        <time>2020-08-13T17:20:28.000Z</time>
      </trkpt>
      <trkpt lat="43.94253" lon="1.84039">
        <ele>237</ele>
        <time>2020-08-13T17:20:29.000Z</time>
      </trkpt>
      <trkpt lat="43.9425" lon="1.84036">
        <ele>237.39999389648</ele>
        <time>2020-08-13T17:20:30.000Z</time>
      </trkpt>
      <trkpt lat="43.94248" lon="1.84033">
        <ele>237.60000610352</ele>
        <time>2020-08-13T17:20:31.000Z</time>
      </trkpt>
      <trkpt lat="43.94245" lon="1.84031">
        <ele>237.80000305176</ele>
        <time>2020-08-13T17:20:32.000Z</time>
      </trkpt>
      <trkpt lat="43.94244" lon="1.84028">
        <ele>237.80000305176</ele>
        <time>2020-08-13T17:20:33.000Z</time>
      </trkpt>
      <trkpt lat="43.94242" lon="1.84026">
        <ele>238</ele>
        <time>2020-08-13T17:20:34.000Z</time>
      </trkpt>
      <trkpt lat="43.9424" lon="1.84024">
        <ele>238.60000610352</ele>
        <time>2020-08-13T17:20:35.000Z</time>
      </trkpt>
      <trkpt lat="43.94239" lon="1.84022">
        <ele>239</ele>
        <time>2020-08-13T17:20:36.000Z</time>
      </trkpt>
      <trkpt lat="43.94237" lon="1.8402">
        <ele>239.19999694824</ele>
        <time>2020-08-13T17:20:37.000Z</time>
      </trkpt>
      <trkpt lat="43.94235" lon="1.84018">
        <ele>239.39999389648</ele>
        <time>2020-08-13T17:20:38.000Z</time>
      </trkpt>
      <trkpt lat="43.94233" lon="1.84016">
        <ele>239.60000610352</ele>
        <time>2020-08-13T17:20:39.000Z</time>
      </trkpt>
      <trkpt lat="43.94232" lon="1.84013">
        <ele>239.80000305176</ele>
        <time>2020-08-13T17:20:40.000Z</time>
      </trkpt>
      <trkpt lat="43.9423" lon="1.8401">
        <ele>240</ele>
        <time>2020-08-13T17:20:41.000Z</time>
      </trkpt>
      <trkpt lat="43.94228" lon="1.84008">
        <ele>240.19999694824</ele>
        <time>2020-08-13T17:20:42.000Z</time>
      </trkpt>
      <trkpt lat="43.94227" lon="1.84006">
        <ele>240.19999694824</ele>
        <time>2020-08-13T17:20:43.000Z</time>
      </trkpt>
      <trkpt lat="43.94225" lon="1.84004">
        <ele>240.39999389648</ele>
        <time>2020-08-13T17:20:44.000Z</time>
      </trkpt>
      <trkpt lat="43.94223" lon="1.84002">
        <ele>240.60000610352</ele>
        <time>2020-08-13T17:20:45.000Z</time>
      </trkpt>
      <trkpt lat="43.94221" lon="1.83999">
        <ele>240.80000305176</ele>
        <time>2020-08-13T17:20:46.000Z</time>
      </trkpt>
      <trkpt lat="43.94218" lon="1.83997">
        <ele>240.80000305176</ele>
        <time>2020-08-13T17:20:47.000Z</time>
      </trkpt>
      <trkpt lat="43.94216" lon="1.83994">
        <ele>241</ele>
        <time>2020-08-13T17:20:48.000Z</time>
      </trkpt>
      <trkpt lat="43.94213" lon="1.83992">
        <ele>241</ele>
        <time>2020-08-13T17:20:49.000Z</time>
      </trkpt>
      <trkpt lat="43.94211" lon="1.83989">
        <ele>241</ele>
        <time>2020-08-13T17:20:50.000Z</time>
      </trkpt>
      <trkpt lat="43.94208" lon="1.83987">
        <ele>241</ele>
        <time>2020-08-13T17:20:51.000Z</time>
      </trkpt>
      <trkpt lat="43.94206" lon="1.83986">
        <ele>241</ele>
        <time>2020-08-13T17:20:52.000Z</time>
      </trkpt>
      <trkpt lat="43.94204" lon="1.83985">
        <ele>241.19999694824</ele>
        <time>2020-08-13T17:20:53.000Z</time>
      </trkpt>
      <trkpt lat="43.94202" lon="1.83984">
        <ele>241</ele>
        <time>2020-08-13T17:20:54.000Z</time>
      </trkpt>
      <trkpt lat="43.942" lon="1.83984">
        <ele>241</ele>
        <time>2020-08-13T17:20:55.000Z</time>
      </trkpt>
      <trkpt lat="43.94197" lon="1.83983">
        <ele>241</ele>
        <time>2020-08-13T17:20:56.000Z</time>
      </trkpt>
      <trkpt lat="43.94194" lon="1.83983">
        <ele>241.19999694824</ele>
        <time>2020-08-13T17:20:57.000Z</time>
      </trkpt>
      <trkpt lat="43.94191" lon="1.83982">
        <ele>241.19999694824</ele>
        <time>2020-08-13T17:20:58.000Z</time>
      </trkpt>
      <trkpt lat="43.94188" lon="1.83981">
        <ele>241.19999694824</ele>
        <time>2020-08-13T17:20:59.000Z</time>
      </trkpt>
      <trkpt lat="43.94185" lon="1.83981">
        <ele>241.19999694824</ele>
        <time>2020-08-13T17:21:00.000Z</time>
      </trkpt>
      <trkpt lat="43.94182" lon="1.83981">
        <ele>241</ele>
        <time>2020-08-13T17:21:01.000Z</time>
      </trkpt>
      <trkpt lat="43.94179" lon="1.83981">
        <ele>241</ele>
        <time>2020-08-13T17:21:02.000Z</time>
      </trkpt>
      <trkpt lat="43.94175" lon="1.83982">
        <ele>240.80000305176</ele>
        <time>2020-08-13T17:21:03.000Z</time>
      </trkpt>
      <trkpt lat="43.94172" lon="1.83983">
        <ele>241</ele>
        <time>2020-08-13T17:21:04.000Z</time>
      </trkpt>
      <trkpt lat="43.94169" lon="1.83983">
        <ele>241</ele>
        <time>2020-08-13T17:21:05.000Z</time>
      </trkpt>
      <trkpt lat="43.94166" lon="1.83983">
        <ele>241</ele>
        <time>2020-08-13T17:21:06.000Z</time>
      </trkpt>
      <trkpt lat="43.94163" lon="1.83984">
        <ele>240.80000305176</ele>
        <time>2020-08-13T17:21:07.000Z</time>
      </trkpt>
      <trkpt lat="43.9416" lon="1.83984">
        <ele>240.80000305176</ele>
        <time>2020-08-13T17:21:08.000Z</time>
      </trkpt>
      <trkpt lat="43.94157" lon="1.83985">
        <ele>240.80000305176</ele>
        <time>2020-08-13T17:21:09.000Z</time>
      </trkpt>
      <trkpt lat="43.94154" lon="1.83986">
        <ele>240.80000305176</ele>
        <time>2020-08-13T17:21:10.000Z</time>
      </trkpt>
      <trkpt lat="43.94151" lon="1.83987">
        <ele>240.80000305176</ele>
        <time>2020-08-13T17:21:11.000Z</time>
      </trkpt>
      <trkpt lat="43.94148" lon="1.83988">
        <ele>241</ele>
        <time>2020-08-13T17:21:12.000Z</time>
      </trkpt>
      <trkpt lat="43.94144" lon="1.83987">
        <ele>240.80000305176</ele>
        <time>2020-08-13T17:21:13.000Z</time>
      </trkpt>
      <trkpt lat="43.94141" lon="1.83985">
        <ele>240.80000305176</ele>
        <time>2020-08-13T17:21:14.000Z</time>
      </trkpt>
      <trkpt lat="43.94138" lon="1.83985">
        <ele>240.80000305176</ele>
        <time>2020-08-13T17:21:15.000Z</time>
      </trkpt>
      <trkpt lat="43.94134" lon="1.83984">
        <ele>240.80000305176</ele>
        <time>2020-08-13T17:21:16.000Z</time>
      </trkpt>
      <trkpt lat="43.94131" lon="1.83984">
        <ele>240.60000610352</ele>
        <time>2020-08-13T17:21:17.000Z</time>
      </trkpt>
      <trkpt lat="43.94127" lon="1.83984">
        <ele>240.80000305176</ele>
        <time>2020-08-13T17:21:18.000Z</time>
      </trkpt>
      <trkpt lat="43.94124" lon="1.83983">
        <ele>240.80000305176</ele>
        <time>2020-08-13T17:21:19.000Z</time>
      </trkpt>
      <trkpt lat="43.9412" lon="1.83983">
        <ele>241</ele>
        <time>2020-08-13T17:21:20.000Z</time>
      </trkpt>
      <trkpt lat="43.94116" lon="1.83983">
        <ele>241</ele>
        <time>2020-08-13T17:21:21.000Z</time>
      </trkpt>
      <trkpt lat="43.94113" lon="1.83983">
        <ele>240.80000305176</ele>
        <time>2020-08-13T17:21:22.000Z</time>
      </trkpt>
      <trkpt lat="43.9411" lon="1.83983">
        <ele>241</ele>
        <time>2020-08-13T17:21:23.000Z</time>
      </trkpt>
      <trkpt lat="43.94107" lon="1.83983">
        <ele>241.19999694824</ele>
        <time>2020-08-13T17:21:24.000Z</time>
      </trkpt>
      <trkpt lat="43.94103" lon="1.83983">
        <ele>241.39999389648</ele>
        <time>2020-08-13T17:21:25.000Z</time>
      </trkpt>
      <trkpt lat="43.941" lon="1.83982">
        <ele>241.60000610352</ele>
        <time>2020-08-13T17:21:26.000Z</time>
      </trkpt>
      <trkpt lat="43.94097" lon="1.83981">
        <ele>242</ele>
        <time>2020-08-13T17:21:27.000Z</time>
      </trkpt>
      <trkpt lat="43.94094" lon="1.8398">
        <ele>242</ele>
        <time>2020-08-13T17:21:28.000Z</time>
      </trkpt>
      <trkpt lat="43.9409" lon="1.8398">
        <ele>241.80000305176</ele>
        <time>2020-08-13T17:21:29.000Z</time>
      </trkpt>
      <trkpt lat="43.94087" lon="1.83979">
        <ele>242</ele>
        <time>2020-08-13T17:21:30.000Z</time>
      </trkpt>
      <trkpt lat="43.94084" lon="1.83978">
        <ele>242</ele>
        <time>2020-08-13T17:21:31.000Z</time>
      </trkpt>
      <trkpt lat="43.94081" lon="1.83978">
        <ele>242</ele>
        <time>2020-08-13T17:21:32.000Z</time>
      </trkpt>
      <trkpt lat="43.94078" lon="1.83977">
        <ele>242</ele>
        <time>2020-08-13T17:21:33.000Z</time>
      </trkpt>
      <trkpt lat="43.94075" lon="1.83976">
        <ele>242.19999694824</ele>
        <time>2020-08-13T17:21:34.000Z</time>
      </trkpt>
      <trkpt lat="43.94072" lon="1.83976">
        <ele>242.39999389648</ele>
        <time>2020-08-13T17:21:35.000Z</time>
      </trkpt>
      <trkpt lat="43.94068" lon="1.83975">
        <ele>242.80000305176</ele>
        <time>2020-08-13T17:21:36.000Z</time>
      </trkpt>
      <trkpt lat="43.94065" lon="1.83975">
        <ele>242.80000305176</ele>
        <time>2020-08-13T17:21:37.000Z</time>
      </trkpt>
      <trkpt lat="43.94062" lon="1.83974">
        <ele>243</ele>
        <time>2020-08-13T17:21:38.000Z</time>
      </trkpt>
      <trkpt lat="43.94059" lon="1.83974">
        <ele>242.80000305176</ele>
        <time>2020-08-13T17:21:39.000Z</time>
      </trkpt>
      <trkpt lat="43.94055" lon="1.83973">
        <ele>242.80000305176</ele>
        <time>2020-08-13T17:21:40.000Z</time>
      </trkpt>
      <trkpt lat="43.94052" lon="1.83973">
        <ele>243</ele>
        <time>2020-08-13T17:21:41.000Z</time>
      </trkpt>
      <trkpt lat="43.94048" lon="1.83972">
        <ele>243</ele>
        <time>2020-08-13T17:21:42.000Z</time>
      </trkpt>
      <trkpt lat="43.94045" lon="1.83972">
        <ele>243.19999694824</ele>
        <time>2020-08-13T17:21:43.000Z</time>
      </trkpt>
      <trkpt lat="43.94041" lon="1.83973">
        <ele>243.19999694824</ele>
        <time>2020-08-13T17:21:44.000Z</time>
      </trkpt>
      <trkpt lat="43.94037" lon="1.83974">
        <ele>243.39999389648</ele>
        <time>2020-08-13T17:21:45.000Z</time>
      </trkpt>
      <trkpt lat="43.94034" lon="1.83975">
        <ele>243.39999389648</ele>
        <time>2020-08-13T17:21:46.000Z</time>
      </trkpt>
      <trkpt lat="43.9403" lon="1.83977">
        <ele>243.60000610352</ele>
        <time>2020-08-13T17:21:47.000Z</time>
      </trkpt>
      <trkpt lat="43.94026" lon="1.83978">
        <ele>243.80000305176</ele>
        <time>2020-08-13T17:21:48.000Z</time>
      </trkpt>
      <trkpt lat="43.94023" lon="1.83981">
        <ele>243.60000610352</ele>
        <time>2020-08-13T17:21:49.000Z</time>
      </trkpt>
      <trkpt lat="43.94019" lon="1.83983">
        <ele>243.60000610352</ele>
        <time>2020-08-13T17:21:50.000Z</time>
      </trkpt>
      <trkpt lat="43.94016" lon="1.83986">
        <ele>243.60000610352</ele>
        <time>2020-08-13T17:21:51.000Z</time>
      </trkpt>
      <trkpt lat="43.94012" lon="1.83988">
        <ele>243.60000610352</ele>
        <time>2020-08-13T17:21:52.000Z</time>
      </trkpt>
      <trkpt lat="43.94009" lon="1.83991">
        <ele>243.80000305176</ele>
        <time>2020-08-13T17:21:53.000Z</time>
      </trkpt>
      <trkpt lat="43.94006" lon="1.83993">
        <ele>243.80000305176</ele>
        <time>2020-08-13T17:21:54.000Z</time>
      </trkpt>
      <trkpt lat="43.94002" lon="1.83996">
        <ele>244</ele>
        <time>2020-08-13T17:21:55.000Z</time>
      </trkpt>
      <trkpt lat="43.93999" lon="1.83998">
        <ele>244</ele>
        <time>2020-08-13T17:21:56.000Z</time>
      </trkpt>
      <trkpt lat="43.93996" lon="1.84001">
        <ele>244.19999694824</ele>
        <time>2020-08-13T17:21:57.000Z</time>
      </trkpt>
      <trkpt lat="43.93992" lon="1.84003">
        <ele>244.19999694824</ele>
        <time>2020-08-13T17:21:58.000Z</time>
      </trkpt>
      <trkpt lat="43.93989" lon="1.84005">
        <ele>244.19999694824</ele>
        <time>2020-08-13T17:21:59.000Z</time>
      </trkpt>
      <trkpt lat="43.93986" lon="1.84007">
        <ele>244.19999694824</ele>
        <time>2020-08-13T17:22:00.000Z</time>
      </trkpt>
      <trkpt lat="43.93982" lon="1.84009">
        <ele>244.39999389648</ele>
        <time>2020-08-13T17:22:01.000Z</time>
      </trkpt>
      <trkpt lat="43.93979" lon="1.8401">
        <ele>244.60000610352</ele>
        <time>2020-08-13T17:22:02.000Z</time>
      </trkpt>
      <trkpt lat="43.93976" lon="1.84012">
        <ele>245</ele>
        <time>2020-08-13T17:22:03.000Z</time>
      </trkpt>
      <trkpt lat="43.93972" lon="1.84013">
        <ele>245.19999694824</ele>
        <time>2020-08-13T17:22:04.000Z</time>
      </trkpt>
      <trkpt lat="43.93969" lon="1.84014">
        <ele>245.39999389648</ele>
        <time>2020-08-13T17:22:05.000Z</time>
      </trkpt>
      <trkpt lat="43.93966" lon="1.84014">
        <ele>245.60000610352</ele>
        <time>2020-08-13T17:22:06.000Z</time>
      </trkpt>
      <trkpt lat="43.93963" lon="1.84015">
        <ele>245.60000610352</ele>
        <time>2020-08-13T17:22:07.000Z</time>
      </trkpt>
      <trkpt lat="43.9396" lon="1.84015">
        <ele>245.60000610352</ele>
        <time>2020-08-13T17:22:08.000Z</time>
      </trkpt>
      <trkpt lat="43.93957" lon="1.84016">
        <ele>245.60000610352</ele>
        <time>2020-08-13T17:22:09.000Z</time>
      </trkpt>
      <trkpt lat="43.93954" lon="1.84017">
        <ele>245.60000610352</ele>
        <time>2020-08-13T17:22:10.000Z</time>
      </trkpt>
      <trkpt lat="43.9395" lon="1.84018">
        <ele>245.80000305176</ele>
        <time>2020-08-13T17:22:11.000Z</time>
      </trkpt>
      <trkpt lat="43.93947" lon="1.84019">
        <ele>245.80000305176</ele>
        <time>2020-08-13T17:22:12.000Z</time>
      </trkpt>
      <trkpt lat="43.93943" lon="1.8402">
        <ele>245.60000610352</ele>
        <time>2020-08-13T17:22:13.000Z</time>
      </trkpt>
      <trkpt lat="43.93939" lon="1.84021">
        <ele>245.60000610352</ele>
        <time>2020-08-13T17:22:14.000Z</time>
      </trkpt>
      <trkpt lat="43.93935" lon="1.84022">
        <ele>245.60000610352</ele>
        <time>2020-08-13T17:22:15.000Z</time>
      </trkpt>
      <trkpt lat="43.9393" lon="1.84023">
        <ele>245.60000610352</ele>
        <time>2020-08-13T17:22:16.000Z</time>
      </trkpt>
      <trkpt lat="43.93925" lon="1.84024">
        <ele>245.19999694824</ele>
        <time>2020-08-13T17:22:17.000Z</time>
      </trkpt>
      <trkpt lat="43.9392" lon="1.84026">
        <ele>245</ele>
        <time>2020-08-13T17:22:18.000Z</time>
      </trkpt>
      <trkpt lat="43.93916" lon="1.84028">
        <ele>244.80000305176</ele>
        <time>2020-08-13T17:22:19.000Z</time>
      </trkpt>
      <trkpt lat="43.93911" lon="1.84031">
        <ele>244.80000305176</ele>
        <time>2020-08-13T17:22:20.000Z</time>
      </trkpt>
      <trkpt lat="43.93906" lon="1.84034">
        <ele>244.60000610352</ele>
        <time>2020-08-13T17:22:21.000Z</time>
      </trkpt>
      <trkpt lat="43.93902" lon="1.84036">
        <ele>244.39999389648</ele>
        <time>2020-08-13T17:22:22.000Z</time>
      </trkpt>
      <trkpt lat="43.93898" lon="1.84038">
        <ele>244.19999694824</ele>
        <time>2020-08-13T17:22:23.000Z</time>
      </trkpt>
      <trkpt lat="43.93894" lon="1.8404">
        <ele>244.19999694824</ele>
        <time>2020-08-13T17:22:24.000Z</time>
      </trkpt>
      <trkpt lat="43.9389" lon="1.84042">
        <ele>244.19999694824</ele>
        <time>2020-08-13T17:22:25.000Z</time>
      </trkpt>
      <trkpt lat="43.93886" lon="1.84044">
        <ele>244</ele>
        <time>2020-08-13T17:22:26.000Z</time>
      </trkpt>
      <trkpt lat="43.93882" lon="1.84045">
        <ele>244</ele>
        <time>2020-08-13T17:22:27.000Z</time>
      </trkpt>
      <trkpt lat="43.93878" lon="1.84047">
        <ele>243.60000610352</ele>
        <time>2020-08-13T17:22:28.000Z</time>
      </trkpt>
      <trkpt lat="43.93874" lon="1.84049">
        <ele>243.60000610352</ele>
        <time>2020-08-13T17:22:29.000Z</time>
      </trkpt>
      <trkpt lat="43.93869" lon="1.84052">
        <ele>243.19999694824</ele>
        <time>2020-08-13T17:22:30.000Z</time>
      </trkpt>
      <trkpt lat="43.93864" lon="1.84055">
        <ele>243</ele>
        <time>2020-08-13T17:22:31.000Z</time>
      </trkpt>
      <trkpt lat="43.93859" lon="1.84057">
        <ele>242.60000610352</ele>
        <time>2020-08-13T17:22:32.000Z</time>
      </trkpt>
      <trkpt lat="43.93854" lon="1.84059">
        <ele>242.19999694824</ele>
        <time>2020-08-13T17:22:33.000Z</time>
      </trkpt>
      <trkpt lat="43.9385" lon="1.84062">
        <ele>241.60000610352</ele>
        <time>2020-08-13T17:22:34.000Z</time>
      </trkpt>
      <trkpt lat="43.93847" lon="1.84063">
        <ele>241</ele>
        <time>2020-08-13T17:22:35.000Z</time>
      </trkpt>
      <trkpt lat="43.93843" lon="1.84063">
        <ele>240.60000610352</ele>
        <time>2020-08-13T17:22:36.000Z</time>
      </trkpt>
      <trkpt lat="43.93839" lon="1.84061">
        <ele>240</ele>
        <time>2020-08-13T17:22:37.000Z</time>
      </trkpt>
      <trkpt lat="43.93836" lon="1.84059">
        <ele>239.39999389648</ele>
        <time>2020-08-13T17:22:38.000Z</time>
      </trkpt>
      <trkpt lat="43.93833" lon="1.84055">
        <ele>238.60000610352</ele>
        <time>2020-08-13T17:22:39.000Z</time>
      </trkpt>
      <trkpt lat="43.93829" lon="1.8405">
        <ele>238.19999694824</ele>
        <time>2020-08-13T17:22:40.000Z</time>
      </trkpt>
      <trkpt lat="43.93826" lon="1.84044">
        <ele>237.39999389648</ele>
        <time>2020-08-13T17:22:41.000Z</time>
      </trkpt>
      <trkpt lat="43.93823" lon="1.84038">
        <ele>237.19999694824</ele>
        <time>2020-08-13T17:22:42.000Z</time>
      </trkpt>
      <trkpt lat="43.9382" lon="1.84032">
        <ele>236.80000305176</ele>
        <time>2020-08-13T17:22:43.000Z</time>
      </trkpt>
      <trkpt lat="43.93818" lon="1.84025">
        <ele>236.60000610352</ele>
        <time>2020-08-13T17:22:44.000Z</time>
      </trkpt>
      <trkpt lat="43.93816" lon="1.84018">
        <ele>236.19999694824</ele>
        <time>2020-08-13T17:22:45.000Z</time>
      </trkpt>
      <trkpt lat="43.93815" lon="1.84012">
        <ele>236.19999694824</ele>
        <time>2020-08-13T17:22:46.000Z</time>
      </trkpt>
      <trkpt lat="43.93815" lon="1.84007">
        <ele>236.39999389648</ele>
        <time>2020-08-13T17:22:47.000Z</time>
      </trkpt>
      <trkpt lat="43.93815" lon="1.84003">
        <ele>237</ele>
        <time>2020-08-13T17:22:48.000Z</time>
      </trkpt>
      <trkpt lat="43.93815" lon="1.83999">
        <ele>237.19999694824</ele>
        <time>2020-08-13T17:22:49.000Z</time>
      </trkpt>
      <trkpt lat="43.93816" lon="1.83995">
        <ele>237.39999389648</ele>
        <time>2020-08-13T17:22:50.000Z</time>
      </trkpt>
      <trkpt lat="43.93817" lon="1.8399">
        <ele>237.39999389648</ele>
        <time>2020-08-13T17:22:51.000Z</time>
      </trkpt>
      <trkpt lat="43.93817" lon="1.83985">
        <ele>237.60000610352</ele>
        <time>2020-08-13T17:22:52.000Z</time>
      </trkpt>
      <trkpt lat="43.93817" lon="1.8398">
        <ele>237.80000305176</ele>
        <time>2020-08-13T17:22:53.000Z</time>
      </trkpt>
      <trkpt lat="43.93817" lon="1.83975">
        <ele>238</ele>
        <time>2020-08-13T17:22:54.000Z</time>
      </trkpt>
      <trkpt lat="43.93818" lon="1.83969">
        <ele>238.60000610352</ele>
        <time>2020-08-13T17:22:55.000Z</time>
      </trkpt>
      <trkpt lat="43.93819" lon="1.83964">
        <ele>238.80000305176</ele>
        <time>2020-08-13T17:22:56.000Z</time>
      </trkpt>
      <trkpt lat="43.93819" lon="1.83959">
        <ele>239</ele>
        <time>2020-08-13T17:22:57.000Z</time>
      </trkpt>
      <trkpt lat="43.93819" lon="1.83955">
        <ele>239.39999389648</ele>
        <time>2020-08-13T17:22:58.000Z</time>
      </trkpt>
      <trkpt lat="43.93819" lon="1.8395">
        <ele>240</ele>
        <time>2020-08-13T17:22:59.000Z</time>
      </trkpt>
      <trkpt lat="43.93819" lon="1.83946">
        <ele>240.19999694824</ele>
        <time>2020-08-13T17:23:00.000Z</time>
      </trkpt>
      <trkpt lat="43.93819" lon="1.83942">
        <ele>240.80000305176</ele>
        <time>2020-08-13T17:23:01.000Z</time>
      </trkpt>
      <trkpt lat="43.93818" lon="1.83939">
        <ele>241</ele>
        <time>2020-08-13T17:23:02.000Z</time>
      </trkpt>
      <trkpt lat="43.93818" lon="1.83936">
        <ele>241.19999694824</ele>
        <time>2020-08-13T17:23:03.000Z</time>
      </trkpt>
      <trkpt lat="43.93819" lon="1.83932">
        <ele>241.39999389648</ele>
        <time>2020-08-13T17:23:04.000Z</time>
      </trkpt>
      <trkpt lat="43.93819" lon="1.83929">
        <ele>241.39999389648</ele>
        <time>2020-08-13T17:23:05.000Z</time>
      </trkpt>
      <trkpt lat="43.9382" lon="1.83923">
        <ele>241.39999389648</ele>
        <time>2020-08-13T17:23:06.000Z</time>
      </trkpt>
      <trkpt lat="43.93821" lon="1.83919">
        <ele>241.60000610352</ele>
        <time>2020-08-13T17:23:07.000Z</time>
      </trkpt>
      <trkpt lat="43.93822" lon="1.83914">
        <ele>241.80000305176</ele>
        <time>2020-08-13T17:23:08.000Z</time>
      </trkpt>
      <trkpt lat="43.93822" lon="1.8391">
        <ele>241.80000305176</ele>
        <time>2020-08-13T17:23:09.000Z</time>
      </trkpt>
      <trkpt lat="43.93823" lon="1.83905">
        <ele>241.60000610352</ele>
        <time>2020-08-13T17:23:10.000Z</time>
      </trkpt>
      <trkpt lat="43.93823" lon="1.83901">
        <ele>241.60000610352</ele>
        <time>2020-08-13T17:23:11.000Z</time>
      </trkpt>
      <trkpt lat="43.93823" lon="1.83897">
        <ele>241.60000610352</ele>
        <time>2020-08-13T17:23:12.000Z</time>
      </trkpt>
      <trkpt lat="43.93824" lon="1.83892">
        <ele>241.39999389648</ele>
        <time>2020-08-13T17:23:13.000Z</time>
      </trkpt>
      <trkpt lat="43.93824" lon="1.83886">
        <ele>241</ele>
        <time>2020-08-13T17:23:14.000Z</time>
      </trkpt>
      <trkpt lat="43.93826" lon="1.83881">
        <ele>241.19999694824</ele>
        <time>2020-08-13T17:23:15.000Z</time>
      </trkpt>
      <trkpt lat="43.93827" lon="1.83876">
        <ele>241.19999694824</ele>
        <time>2020-08-13T17:23:16.000Z</time>
      </trkpt>
      <trkpt lat="43.93829" lon="1.83871">
        <ele>241.19999694824</ele>
        <time>2020-08-13T17:23:17.000Z</time>
      </trkpt>
      <trkpt lat="43.93831" lon="1.83865">
        <ele>241</ele>
        <time>2020-08-13T17:23:18.000Z</time>
      </trkpt>
      <trkpt lat="43.93832" lon="1.83859">
        <ele>240.80000305176</ele>
        <time>2020-08-13T17:23:19.000Z</time>
      </trkpt>
      <trkpt lat="43.93832" lon="1.83855">
        <ele>240.60000610352</ele>
        <time>2020-08-13T17:23:20.000Z</time>
      </trkpt>
      <trkpt lat="43.93833" lon="1.8385">
        <ele>240.60000610352</ele>
        <time>2020-08-13T17:23:21.000Z</time>
      </trkpt>
      <trkpt lat="43.93833" lon="1.83845">
        <ele>240.60000610352</ele>
        <time>2020-08-13T17:23:22.000Z</time>
      </trkpt>
      <trkpt lat="43.93832" lon="1.8384">
        <ele>241</ele>
        <time>2020-08-13T17:23:23.000Z</time>
      </trkpt>
      <trkpt lat="43.93831" lon="1.83834">
        <ele>241.19999694824</ele>
        <time>2020-08-13T17:23:24.000Z</time>
      </trkpt>
      <trkpt lat="43.93829" lon="1.83829">
        <ele>241.39999389648</ele>
        <time>2020-08-13T17:23:25.000Z</time>
      </trkpt>
      <trkpt lat="43.93827" lon="1.83824">
        <ele>241.60000610352</ele>
        <time>2020-08-13T17:23:26.000Z</time>
      </trkpt>
      <trkpt lat="43.93825" lon="1.83819">
        <ele>242</ele>
        <time>2020-08-13T17:23:27.000Z</time>
      </trkpt>
      <trkpt lat="43.93824" lon="1.83814">
        <ele>242</ele>
        <time>2020-08-13T17:23:28.000Z</time>
      </trkpt>
      <trkpt lat="43.93824" lon="1.83809">
        <ele>242.19999694824</ele>
        <time>2020-08-13T17:23:29.000Z</time>
      </trkpt>
      <trkpt lat="43.93823" lon="1.83804">
        <ele>242</ele>
        <time>2020-08-13T17:23:30.000Z</time>
      </trkpt>
      <trkpt lat="43.93823" lon="1.83799">
        <ele>242.19999694824</ele>
        <time>2020-08-13T17:23:31.000Z</time>
      </trkpt>
      <trkpt lat="43.93822" lon="1.83794">
        <ele>242.19999694824</ele>
        <time>2020-08-13T17:23:32.000Z</time>
      </trkpt>
      <trkpt lat="43.93822" lon="1.83788">
        <ele>242.19999694824</ele>
        <time>2020-08-13T17:23:33.000Z</time>
      </trkpt>
      <trkpt lat="43.93821" lon="1.83783">
        <ele>242.39999389648</ele>
        <time>2020-08-13T17:23:34.000Z</time>
      </trkpt>
      <trkpt lat="43.93821" lon="1.83778">
        <ele>242.39999389648</ele>
        <time>2020-08-13T17:23:35.000Z</time>
      </trkpt>
      <trkpt lat="43.93821" lon="1.83772">
        <ele>242.19999694824</ele>
        <time>2020-08-13T17:23:36.000Z</time>
      </trkpt>
      <trkpt lat="43.93821" lon="1.83768">
        <ele>242</ele>
        <time>2020-08-13T17:23:37.000Z</time>
      </trkpt>
      <trkpt lat="43.93821" lon="1.83762">
        <ele>242</ele>
        <time>2020-08-13T17:23:38.000Z</time>
      </trkpt>
      <trkpt lat="43.9382" lon="1.83757">
        <ele>242</ele>
        <time>2020-08-13T17:23:39.000Z</time>
      </trkpt>
      <trkpt lat="43.93821" lon="1.83752">
        <ele>242</ele>
        <time>2020-08-13T17:23:40.000Z</time>
      </trkpt>
      <trkpt lat="43.93821" lon="1.83746">
        <ele>242</ele>
        <time>2020-08-13T17:23:41.000Z</time>
      </trkpt>
      <trkpt lat="43.93821" lon="1.8374">
        <ele>241.80000305176</ele>
        <time>2020-08-13T17:23:42.000Z</time>
      </trkpt>
      <trkpt lat="43.93821" lon="1.83734">
        <ele>241.39999389648</ele>
        <time>2020-08-13T17:23:43.000Z</time>
      </trkpt>
      <trkpt lat="43.93821" lon="1.83729">
        <ele>241.39999389648</ele>
        <time>2020-08-13T17:23:44.000Z</time>
      </trkpt>
      <trkpt lat="43.93822" lon="1.83723">
        <ele>241.39999389648</ele>
        <time>2020-08-13T17:23:45.000Z</time>
      </trkpt>
      <trkpt lat="43.93822" lon="1.83718">
        <ele>241.60000610352</ele>
        <time>2020-08-13T17:23:46.000Z</time>
      </trkpt>
      <trkpt lat="43.93822" lon="1.8371">
        <ele>241.60000610352</ele>
        <time>2020-08-13T17:23:47.000Z</time>
      </trkpt>
      <trkpt lat="43.93822" lon="1.83705">
        <ele>241.80000305176</ele>
        <time>2020-08-13T17:23:48.000Z</time>
      </trkpt>
      <trkpt lat="43.93821" lon="1.83699">
        <ele>241.80000305176</ele>
        <time>2020-08-13T17:23:49.000Z</time>
      </trkpt>
      <trkpt lat="43.9382" lon="1.83693">
        <ele>242.19999694824</ele>
        <time>2020-08-13T17:23:50.000Z</time>
      </trkpt>
      <trkpt lat="43.93819" lon="1.83687">
        <ele>242.39999389648</ele>
        <time>2020-08-13T17:23:51.000Z</time>
      </trkpt>
      <trkpt lat="43.93818" lon="1.83682">
        <ele>242.60000610352</ele>
        <time>2020-08-13T17:23:52.000Z</time>
      </trkpt>
      <trkpt lat="43.93816" lon="1.8368">
        <ele>242.80000305176</ele>
        <time>2020-08-13T17:23:53.000Z</time>
      </trkpt>
      <trkpt lat="43.93813" lon="1.83679">
        <ele>243</ele>
        <time>2020-08-13T17:23:54.000Z</time>
      </trkpt>
      <trkpt lat="43.9381" lon="1.83678">
        <ele>243.19999694824</ele>
        <time>2020-08-13T17:23:55.000Z</time>
      </trkpt>
      <trkpt lat="43.93808" lon="1.83678">
        <ele>243.60000610352</ele>
        <time>2020-08-13T17:23:56.000Z</time>
      </trkpt>
      <trkpt lat="43.93805" lon="1.83677">
        <ele>243.80000305176</ele>
        <time>2020-08-13T17:23:57.000Z</time>
      </trkpt>
      <trkpt lat="43.93803" lon="1.83677">
        <ele>244</ele>
        <time>2020-08-13T17:23:58.000Z</time>
      </trkpt>
      <trkpt lat="43.938" lon="1.83676">
        <ele>244.19999694824</ele>
        <time>2020-08-13T17:23:59.000Z</time>
      </trkpt>
      <trkpt lat="43.93797" lon="1.83675">
        <ele>244.60000610352</ele>
        <time>2020-08-13T17:24:00.000Z</time>
      </trkpt>
      <trkpt lat="43.93794" lon="1.83673">
        <ele>245</ele>
        <time>2020-08-13T17:24:01.000Z</time>
      </trkpt>
      <trkpt lat="43.93791" lon="1.83672">
        <ele>245</ele>
        <time>2020-08-13T17:24:02.000Z</time>
      </trkpt>
      <trkpt lat="43.93789" lon="1.83672">
        <ele>245.19999694824</ele>
        <time>2020-08-13T17:24:03.000Z</time>
      </trkpt>
      <trkpt lat="43.93786" lon="1.83671">
        <ele>245.19999694824</ele>
        <time>2020-08-13T17:24:04.000Z</time>
      </trkpt>
      <trkpt lat="43.93783" lon="1.8367">
        <ele>245.39999389648</ele>
        <time>2020-08-13T17:24:05.000Z</time>
      </trkpt>
      <trkpt lat="43.93781" lon="1.8367">
        <ele>245.39999389648</ele>
        <time>2020-08-13T17:24:06.000Z</time>
      </trkpt>
      <trkpt lat="43.93779" lon="1.83669">
        <ele>245.60000610352</ele>
        <time>2020-08-13T17:24:07.000Z</time>
      </trkpt>
      <trkpt lat="43.93777" lon="1.83668">
        <ele>245.80000305176</ele>
        <time>2020-08-13T17:24:08.000Z</time>
      </trkpt>
      <trkpt lat="43.93774" lon="1.83668">
        <ele>246</ele>
        <time>2020-08-13T17:24:09.000Z</time>
      </trkpt>
      <trkpt lat="43.93771" lon="1.83667">
        <ele>246</ele>
        <time>2020-08-13T17:24:10.000Z</time>
      </trkpt>
      <trkpt lat="43.93768" lon="1.83666">
        <ele>246.19999694824</ele>
        <time>2020-08-13T17:24:11.000Z</time>
      </trkpt>
      <trkpt lat="43.93766" lon="1.83666">
        <ele>246.39999389648</ele>
        <time>2020-08-13T17:24:12.000Z</time>
      </trkpt>
      <trkpt lat="43.93764" lon="1.83666">
        <ele>246.60000610352</ele>
        <time>2020-08-13T17:24:13.000Z</time>
      </trkpt>
      <trkpt lat="43.93762" lon="1.83667">
        <ele>246.80000305176</ele>
        <time>2020-08-13T17:24:14.000Z</time>
      </trkpt>
      <trkpt lat="43.9376" lon="1.83667">
        <ele>246.80000305176</ele>
        <time>2020-08-13T17:24:15.000Z</time>
      </trkpt>
      <trkpt lat="43.93758" lon="1.83668">
        <ele>247</ele>
        <time>2020-08-13T17:24:16.000Z</time>
      </trkpt>
      <trkpt lat="43.93755" lon="1.83669">
        <ele>247.19999694824</ele>
        <time>2020-08-13T17:24:17.000Z</time>
      </trkpt>
      <trkpt lat="43.93753" lon="1.83669">
        <ele>247.39999389648</ele>
        <time>2020-08-13T17:24:18.000Z</time>
      </trkpt>
      <trkpt lat="43.93749" lon="1.83669">
        <ele>247.39999389648</ele>
        <time>2020-08-13T17:24:19.000Z</time>
      </trkpt>
      <trkpt lat="43.93747" lon="1.83669">
        <ele>247.60000610352</ele>
        <time>2020-08-13T17:24:20.000Z</time>
      </trkpt>
      <trkpt lat="43.93744" lon="1.83669">
        <ele>247.60000610352</ele>
        <time>2020-08-13T17:24:21.000Z</time>
      </trkpt>
      <trkpt lat="43.93742" lon="1.83669">
        <ele>247.80000305176</ele>
        <time>2020-08-13T17:24:22.000Z</time>
      </trkpt>
      <trkpt lat="43.9374" lon="1.83669">
        <ele>248</ele>
        <time>2020-08-13T17:24:23.000Z</time>
      </trkpt>
      <trkpt lat="43.93738" lon="1.83669">
        <ele>248</ele>
        <time>2020-08-13T17:24:24.000Z</time>
      </trkpt>
      <trkpt lat="43.93736" lon="1.83669">
        <ele>248.19999694824</ele>
        <time>2020-08-13T17:24:25.000Z</time>
      </trkpt>
      <trkpt lat="43.93733" lon="1.83669">
        <ele>248.19999694824</ele>
        <time>2020-08-13T17:24:26.000Z</time>
      </trkpt>
      <trkpt lat="43.93731" lon="1.83668">
        <ele>248</ele>
        <time>2020-08-13T17:24:27.000Z</time>
      </trkpt>
      <trkpt lat="43.93729" lon="1.83668">
        <ele>248</ele>
        <time>2020-08-13T17:24:28.000Z</time>
      </trkpt>
      <trkpt lat="43.93727" lon="1.83667">
        <ele>247.60000610352</ele>
        <time>2020-08-13T17:24:29.000Z</time>
      </trkpt>
      <trkpt lat="43.93724" lon="1.83666">
        <ele>247.39999389648</ele>
        <time>2020-08-13T17:24:30.000Z</time>
      </trkpt>
      <trkpt lat="43.93722" lon="1.83666">
        <ele>247</ele>
        <time>2020-08-13T17:24:31.000Z</time>
      </trkpt>
      <trkpt lat="43.93719" lon="1.83667">
        <ele>246.80000305176</ele>
        <time>2020-08-13T17:24:32.000Z</time>
      </trkpt>
      <trkpt lat="43.93712" lon="1.83673">
        <ele>246.60000610352</ele>
        <time>2020-08-13T17:24:33.000Z</time>
      </trkpt>
      <trkpt lat="43.93708" lon="1.83678">
        <ele>246.39999389648</ele>
        <time>2020-08-13T17:24:34.000Z</time>
      </trkpt>
      <trkpt lat="43.93703" lon="1.83685">
        <ele>246.39999389648</ele>
        <time>2020-08-13T17:24:35.000Z</time>
      </trkpt>
      <trkpt lat="43.93701" lon="1.83688">
        <ele>246.60000610352</ele>
        <time>2020-08-13T17:24:36.000Z</time>
      </trkpt>
      <trkpt lat="43.93698" lon="1.83692">
        <ele>246.80000305176</ele>
        <time>2020-08-13T17:24:37.000Z</time>
      </trkpt>
      <trkpt lat="43.93696" lon="1.83695">
        <ele>246.80000305176</ele>
        <time>2020-08-13T17:24:38.000Z</time>
      </trkpt>
      <trkpt lat="43.93695" lon="1.83697">
        <ele>247</ele>
        <time>2020-08-13T17:24:39.000Z</time>
      </trkpt>
      <trkpt lat="43.93693" lon="1.837">
        <ele>247</ele>
        <time>2020-08-13T17:24:40.000Z</time>
      </trkpt>
      <trkpt lat="43.93692" lon="1.83702">
        <ele>247</ele>
        <time>2020-08-13T17:24:41.000Z</time>
      </trkpt>
      <trkpt lat="43.93691" lon="1.83703">
        <ele>247</ele>
        <time>2020-08-13T17:24:42.000Z</time>
      </trkpt>
      <trkpt lat="43.93689" lon="1.83705">
        <ele>247.19999694824</ele>
        <time>2020-08-13T17:24:43.000Z</time>
      </trkpt>
      <trkpt lat="43.93688" lon="1.83707">
        <ele>247.19999694824</ele>
        <time>2020-08-13T17:24:44.000Z</time>
      </trkpt>
      <trkpt lat="43.93686" lon="1.83709">
        <ele>247.39999389648</ele>
        <time>2020-08-13T17:24:45.000Z</time>
      </trkpt>
      <trkpt lat="43.93683" lon="1.83711">
        <ele>247.39999389648</ele>
        <time>2020-08-13T17:24:46.000Z</time>
      </trkpt>
      <trkpt lat="43.93682" lon="1.83712">
        <ele>247.39999389648</ele>
        <time>2020-08-13T17:24:47.000Z</time>
      </trkpt>
      <trkpt lat="43.9368" lon="1.83715">
        <ele>247.39999389648</ele>
        <time>2020-08-13T17:24:48.000Z</time>
      </trkpt>
      <trkpt lat="43.93677" lon="1.83717">
        <ele>247.60000610352</ele>
        <time>2020-08-13T17:24:49.000Z</time>
      </trkpt>
      <trkpt lat="43.93676" lon="1.83719">
        <ele>247.39999389648</ele>
        <time>2020-08-13T17:24:50.000Z</time>
      </trkpt>
      <trkpt lat="43.93675" lon="1.83721">
        <ele>247.60000610352</ele>
        <time>2020-08-13T17:24:51.000Z</time>
      </trkpt>
      <trkpt lat="43.93674" lon="1.83722">
        <ele>247.60000610352</ele>
        <time>2020-08-13T17:24:52.000Z</time>
      </trkpt>
      <trkpt lat="43.93672" lon="1.83723">
        <ele>247.60000610352</ele>
        <time>2020-08-13T17:24:53.000Z</time>
      </trkpt>
      <trkpt lat="43.93671" lon="1.83723">
        <ele>247.60000610352</ele>
        <time>2020-08-13T17:24:54.000Z</time>
      </trkpt>
      <trkpt lat="43.9367" lon="1.83724">
        <ele>247.39999389648</ele>
        <time>2020-08-13T17:24:55.000Z</time>
      </trkpt>
      <trkpt lat="43.93668" lon="1.83723">
        <ele>247.39999389648</ele>
        <time>2020-08-13T17:24:56.000Z</time>
      </trkpt>
      <trkpt lat="43.93667" lon="1.83722">
        <ele>247.19999694824</ele>
        <time>2020-08-13T17:24:57.000Z</time>
      </trkpt>
      <trkpt lat="43.93666" lon="1.83721">
        <ele>247</ele>
        <time>2020-08-13T17:24:58.000Z</time>
      </trkpt>
      <trkpt lat="43.93666" lon="1.83721">
        <ele>247</ele>
        <time>2020-08-13T17:24:59.000Z</time>
      </trkpt>
      <trkpt lat="43.93664" lon="1.8372">
        <ele>246.60000610352</ele>
        <time>2020-08-13T17:25:00.000Z</time>
      </trkpt>
      <trkpt lat="43.93664" lon="1.8372">
        <ele>246.60000610352</ele>
        <time>2020-08-13T17:25:01.000Z</time>
      </trkpt>
      <trkpt lat="43.93664" lon="1.8372">
        <ele>246.60000610352</ele>
        <time>2020-08-13T17:25:02.000Z</time>
      </trkpt>
      <trkpt lat="43.93664" lon="1.8372">
        <ele>246.60000610352</ele>
        <time>2020-08-13T17:25:03.000Z</time>
      </trkpt>
      <trkpt lat="43.93664" lon="1.8372">
        <ele>246.60000610352</ele>
        <time>2020-08-13T17:25:04.000Z</time>
      </trkpt>
      <trkpt lat="43.93664" lon="1.8372">
        <ele>246.60000610352</ele>
        <time>2020-08-13T17:25:05.000Z</time>
      </trkpt>
      <trkpt lat="43.93664" lon="1.8372">
        <ele>246.60000610352</ele>
        <time>2020-08-13T17:25:06.000Z</time>
      </trkpt>
      <trkpt lat="43.93664" lon="1.8372">
        <ele>246.60000610352</ele>
        <time>2020-08-13T17:25:07.000Z</time>
      </trkpt>
      <trkpt lat="43.93664" lon="1.8372">
        <ele>246.60000610352</ele>
        <time>2020-08-13T17:25:08.000Z</time>
      </trkpt>
      <trkpt lat="43.93664" lon="1.8372">
        <ele>246.60000610352</ele>
        <time>2020-08-13T17:25:09.000Z</time>
      </trkpt>
      <trkpt lat="43.93664" lon="1.8372">
        <ele>246.60000610352</ele>
        <time>2020-08-13T17:25:10.000Z</time>
      </trkpt>
      <trkpt lat="43.93664" lon="1.8372">
        <ele>246.60000610352</ele>
        <time>2020-08-13T17:25:11.000Z</time>
      </trkpt>
      <trkpt lat="43.93664" lon="1.8372">
        <ele>246.60000610352</ele>
        <time>2020-08-13T17:25:12.000Z</time>
      </trkpt>
      <trkpt lat="43.93664" lon="1.8372">
        <ele>246.60000610352</ele>
        <time>2020-08-13T17:25:13.000Z</time>
      </trkpt>
      <trkpt lat="43.93664" lon="1.8372">
        <ele>246.39999389648</ele>
        <time>2020-08-13T17:25:14.000Z</time>
      </trkpt>
      <trkpt lat="43.93664" lon="1.8372">
        <ele>246.39999389648</ele>
        <time>2020-08-13T17:25:15.000Z</time>
      </trkpt>
      <trkpt lat="43.93664" lon="1.8372">
        <ele>246.39999389648</ele>
        <time>2020-08-13T17:25:16.000Z</time>
      </trkpt>
      <trkpt lat="43.93664" lon="1.8372">
        <ele>246.39999389648</ele>
        <time>2020-08-13T17:25:17.000Z</time>
      </trkpt>
      <trkpt lat="43.93664" lon="1.8372">
        <ele>246.60000610352</ele>
        <time>2020-08-13T17:25:18.000Z</time>
      </trkpt>
      <trkpt lat="43.93664" lon="1.8372">
        <ele>246.60000610352</ele>
        <time>2020-08-13T17:25:19.000Z</time>
      </trkpt>
      <trkpt lat="43.93664" lon="1.8372">
        <ele>246.60000610352</ele>
        <time>2020-08-13T17:25:20.000Z</time>
      </trkpt>
      <trkpt lat="43.93664" lon="1.8372">
        <ele>246.60000610352</ele>
        <time>2020-08-13T17:25:21.000Z</time>
      </trkpt>
      <trkpt lat="43.93664" lon="1.8372">
        <ele>246.60000610352</ele>
        <time>2020-08-13T17:25:22.000Z</time>
      </trkpt>
      <trkpt lat="43.93664" lon="1.8372">
        <ele>246.60000610352</ele>
        <time>2020-08-13T17:25:23.000Z</time>
      </trkpt>
      <trkpt lat="43.93664" lon="1.8372">
        <ele>246.60000610352</ele>
        <time>2020-08-13T17:25:24.000Z</time>
      </trkpt>
      <trkpt lat="43.93664" lon="1.83717">
        <ele>246.39999389648</ele>
        <time>2020-08-13T17:25:25.000Z</time>
      </trkpt>
      <trkpt lat="43.93665" lon="1.83715">
        <ele>246.39999389648</ele>
        <time>2020-08-13T17:25:26.000Z</time>
      </trkpt>
      <trkpt lat="43.93666" lon="1.83713">
        <ele>246.39999389648</ele>
        <time>2020-08-13T17:25:27.000Z</time>
      </trkpt>
      <trkpt lat="43.93667" lon="1.83711">
        <ele>246.39999389648</ele>
        <time>2020-08-13T17:25:28.000Z</time>
      </trkpt>
      <trkpt lat="43.93668" lon="1.83709">
        <ele>246.19999694824</ele>
        <time>2020-08-13T17:25:29.000Z</time>
      </trkpt>
      <trkpt lat="43.9367" lon="1.83707">
        <ele>246</ele>
        <time>2020-08-13T17:25:30.000Z</time>
      </trkpt>
      <trkpt lat="43.93671" lon="1.83704">
        <ele>246</ele>
        <time>2020-08-13T17:25:31.000Z</time>
      </trkpt>
      <trkpt lat="43.93673" lon="1.83701">
        <ele>245.80000305176</ele>
        <time>2020-08-13T17:25:32.000Z</time>
      </trkpt>
      <trkpt lat="43.93675" lon="1.83698">
        <ele>245.60000610352</ele>
        <time>2020-08-13T17:25:33.000Z</time>
      </trkpt>
      <trkpt lat="43.93676" lon="1.83694">
        <ele>245.39999389648</ele>
        <time>2020-08-13T17:25:34.000Z</time>
      </trkpt>
      <trkpt lat="43.93678" lon="1.83691">
        <ele>245.19999694824</ele>
        <time>2020-08-13T17:25:35.000Z</time>
      </trkpt>
      <trkpt lat="43.93681" lon="1.83687">
        <ele>245</ele>
        <time>2020-08-13T17:25:36.000Z</time>
      </trkpt>
      <trkpt lat="43.93683" lon="1.83682">
        <ele>245</ele>
        <time>2020-08-13T17:25:37.000Z</time>
      </trkpt>
      <trkpt lat="43.93686" lon="1.83676">
        <ele>244.60000610352</ele>
        <time>2020-08-13T17:25:38.000Z</time>
      </trkpt>
      <trkpt lat="43.93689" lon="1.8367">
        <ele>244.19999694824</ele>
        <time>2020-08-13T17:25:39.000Z</time>
      </trkpt>
      <trkpt lat="43.93693" lon="1.83663">
        <ele>243.80000305176</ele>
        <time>2020-08-13T17:25:40.000Z</time>
      </trkpt>
      <trkpt lat="43.93697" lon="1.83656">
        <ele>243.39999389648</ele>
        <time>2020-08-13T17:25:41.000Z</time>
      </trkpt>
      <trkpt lat="43.93703" lon="1.83649">
        <ele>243</ele>
        <time>2020-08-13T17:25:42.000Z</time>
      </trkpt>
      <trkpt lat="43.93708" lon="1.83642">
        <ele>242.39999389648</ele>
        <time>2020-08-13T17:25:43.000Z</time>
      </trkpt>
      <trkpt lat="43.93715" lon="1.83636">
        <ele>242</ele>
        <time>2020-08-13T17:25:44.000Z</time>
      </trkpt>
      <trkpt lat="43.93723" lon="1.8363">
        <ele>241.19999694824</ele>
        <time>2020-08-13T17:25:45.000Z</time>
      </trkpt>
      <trkpt lat="43.93731" lon="1.83624">
        <ele>240.80000305176</ele>
        <time>2020-08-13T17:25:46.000Z</time>
      </trkpt>
      <trkpt lat="43.93739" lon="1.83619">
        <ele>240</ele>
        <time>2020-08-13T17:25:47.000Z</time>
      </trkpt>
      <trkpt lat="43.93747" lon="1.83614">
        <ele>238.60000610352</ele>
        <time>2020-08-13T17:25:48.000Z</time>
      </trkpt>
      <trkpt lat="43.93756" lon="1.83609">
        <ele>238</ele>
        <time>2020-08-13T17:25:49.000Z</time>
      </trkpt>
      <trkpt lat="43.93764" lon="1.83604">
        <ele>237</ele>
        <time>2020-08-13T17:25:50.000Z</time>
      </trkpt>
      <trkpt lat="43.93772" lon="1.83599">
        <ele>236</ele>
        <time>2020-08-13T17:25:51.000Z</time>
      </trkpt>
      <trkpt lat="43.93779" lon="1.83594">
        <ele>235</ele>
        <time>2020-08-13T17:25:52.000Z</time>
      </trkpt>
      <trkpt lat="43.93785" lon="1.83589">
        <ele>234.19999694824</ele>
        <time>2020-08-13T17:25:53.000Z</time>
      </trkpt>
      <trkpt lat="43.93789" lon="1.83584">
        <ele>233.39999389648</ele>
        <time>2020-08-13T17:25:54.000Z</time>
      </trkpt>
      <trkpt lat="43.93792" lon="1.83582">
        <ele>232.80000305176</ele>
        <time>2020-08-13T17:25:55.000Z</time>
      </trkpt>
      <trkpt lat="43.93794" lon="1.83579">
        <ele>232.39999389648</ele>
        <time>2020-08-13T17:25:56.000Z</time>
      </trkpt>
      <trkpt lat="43.93796" lon="1.83577">
        <ele>232</ele>
        <time>2020-08-13T17:25:57.000Z</time>
      </trkpt>
      <trkpt lat="43.93797" lon="1.83575">
        <ele>231.80000305176</ele>
        <time>2020-08-13T17:25:58.000Z</time>
      </trkpt>
      <trkpt lat="43.93797" lon="1.83573">
        <ele>231.39999389648</ele>
        <time>2020-08-13T17:25:59.000Z</time>
      </trkpt>
      <trkpt lat="43.93798" lon="1.83571">
        <ele>231.19999694824</ele>
        <time>2020-08-13T17:26:00.000Z</time>
      </trkpt>
      <trkpt lat="43.93799" lon="1.8357">
        <ele>231</ele>
        <time>2020-08-13T17:26:01.000Z</time>
      </trkpt>
      <trkpt lat="43.93801" lon="1.83569">
        <ele>231</ele>
        <time>2020-08-13T17:26:02.000Z</time>
      </trkpt>
      <trkpt lat="43.93803" lon="1.83568">
        <ele>230.80000305176</ele>
        <time>2020-08-13T17:26:03.000Z</time>
      </trkpt>
      <trkpt lat="43.93805" lon="1.83567">
        <ele>230.60000610352</ele>
        <time>2020-08-13T17:26:04.000Z</time>
      </trkpt>
      <trkpt lat="43.93806" lon="1.83565">
        <ele>230.39999389648</ele>
        <time>2020-08-13T17:26:05.000Z</time>
      </trkpt>
      <trkpt lat="43.93808" lon="1.83564">
        <ele>230.19999694824</ele>
        <time>2020-08-13T17:26:06.000Z</time>
      </trkpt>
      <trkpt lat="43.93809" lon="1.83562">
        <ele>230</ele>
        <time>2020-08-13T17:26:07.000Z</time>
      </trkpt>
      <trkpt lat="43.93809" lon="1.83559">
        <ele>229.80000305176</ele>
        <time>2020-08-13T17:26:08.000Z</time>
      </trkpt>
      <trkpt lat="43.93807" lon="1.83557">
        <ele>229.60000610352</ele>
        <time>2020-08-13T17:26:09.000Z</time>
      </trkpt>
      <trkpt lat="43.93805" lon="1.83556">
        <ele>229.39999389648</ele>
        <time>2020-08-13T17:26:10.000Z</time>
      </trkpt>
      <trkpt lat="43.93803" lon="1.83557">
        <ele>229</ele>
        <time>2020-08-13T17:26:11.000Z</time>
      </trkpt>
      <trkpt lat="43.93801" lon="1.83558">
        <ele>228.19999694824</ele>
        <time>2020-08-13T17:26:12.000Z</time>
      </trkpt>
      <trkpt lat="43.93798" lon="1.83561">
        <ele>228</ele>
        <time>2020-08-13T17:26:13.000Z</time>
      </trkpt>
      <trkpt lat="43.93794" lon="1.83564">
        <ele>228</ele>
        <time>2020-08-13T17:26:14.000Z</time>
      </trkpt>
      <trkpt lat="43.93791" lon="1.83566">
        <ele>228</ele>
        <time>2020-08-13T17:26:15.000Z</time>
      </trkpt>
      <trkpt lat="43.93787" lon="1.83568">
        <ele>227.80000305176</ele>
        <time>2020-08-13T17:26:16.000Z</time>
      </trkpt>
      <trkpt lat="43.93784" lon="1.83569">
        <ele>227.80000305176</ele>
        <time>2020-08-13T17:26:17.000Z</time>
      </trkpt>
      <trkpt lat="43.93782" lon="1.8357">
        <ele>227.80000305176</ele>
        <time>2020-08-13T17:26:18.000Z</time>
      </trkpt>
      <trkpt lat="43.93779" lon="1.83571">
        <ele>228</ele>
        <time>2020-08-13T17:26:19.000Z</time>
      </trkpt>
      <trkpt lat="43.93777" lon="1.83571">
        <ele>228.19999694824</ele>
        <time>2020-08-13T17:26:20.000Z</time>
      </trkpt>
      <trkpt lat="43.93775" lon="1.83571">
        <ele>228.60000610352</ele>
        <time>2020-08-13T17:26:21.000Z</time>
      </trkpt>
      <trkpt lat="43.93773" lon="1.83571">
        <ele>228.80000305176</ele>
        <time>2020-08-13T17:26:22.000Z</time>
      </trkpt>
      <trkpt lat="43.93771" lon="1.83571">
        <ele>229</ele>
        <time>2020-08-13T17:26:23.000Z</time>
      </trkpt>
      <trkpt lat="43.93768" lon="1.8357">
        <ele>229.19999694824</ele>
        <time>2020-08-13T17:26:24.000Z</time>
      </trkpt>
      <trkpt lat="43.93766" lon="1.83569">
        <ele>229.60000610352</ele>
        <time>2020-08-13T17:26:25.000Z</time>
      </trkpt>
      <trkpt lat="43.93764" lon="1.83569">
        <ele>229.80000305176</ele>
        <time>2020-08-13T17:26:26.000Z</time>
      </trkpt>
      <trkpt lat="43.93762" lon="1.83569">
        <ele>230</ele>
        <time>2020-08-13T17:26:27.000Z</time>
      </trkpt>
      <trkpt lat="43.9376" lon="1.83568">
        <ele>230.19999694824</ele>
        <time>2020-08-13T17:26:28.000Z</time>
      </trkpt>
      <trkpt lat="43.93758" lon="1.83568">
        <ele>230.19999694824</ele>
        <time>2020-08-13T17:26:29.000Z</time>
      </trkpt>
      <trkpt lat="43.93755" lon="1.83567">
        <ele>230</ele>
        <time>2020-08-13T17:26:30.000Z</time>
      </trkpt>
      <trkpt lat="43.93753" lon="1.83567">
        <ele>230</ele>
        <time>2020-08-13T17:26:31.000Z</time>
      </trkpt>
      <trkpt lat="43.9375" lon="1.83567">
        <ele>230</ele>
        <time>2020-08-13T17:26:32.000Z</time>
      </trkpt>
      <trkpt lat="43.93748" lon="1.83566">
        <ele>229.80000305176</ele>
        <time>2020-08-13T17:26:33.000Z</time>
      </trkpt>
      <trkpt lat="43.93745" lon="1.83566">
        <ele>229.80000305176</ele>
        <time>2020-08-13T17:26:34.000Z</time>
      </trkpt>
      <trkpt lat="43.93742" lon="1.83566">
        <ele>229.60000610352</ele>
        <time>2020-08-13T17:26:35.000Z</time>
      </trkpt>
      <trkpt lat="43.93739" lon="1.83565">
        <ele>229.19999694824</ele>
        <time>2020-08-13T17:26:36.000Z</time>
      </trkpt>
      <trkpt lat="43.93737" lon="1.83565">
        <ele>229.39999389648</ele>
        <time>2020-08-13T17:26:37.000Z</time>
      </trkpt>
      <trkpt lat="43.93734" lon="1.83564">
        <ele>229.39999389648</ele>
        <time>2020-08-13T17:26:38.000Z</time>
      </trkpt>
      <trkpt lat="43.9373" lon="1.83564">
        <ele>229.19999694824</ele>
        <time>2020-08-13T17:26:39.000Z</time>
      </trkpt>
      <trkpt lat="43.93727" lon="1.83564">
        <ele>228.80000305176</ele>
        <time>2020-08-13T17:26:40.000Z</time>
      </trkpt>
      <trkpt lat="43.93724" lon="1.83563">
        <ele>228.39999389648</ele>
        <time>2020-08-13T17:26:41.000Z</time>
      </trkpt>
      <trkpt lat="43.9372" lon="1.83563">
        <ele>228.19999694824</ele>
        <time>2020-08-13T17:26:42.000Z</time>
      </trkpt>
      <trkpt lat="43.93716" lon="1.83563">
        <ele>228</ele>
        <time>2020-08-13T17:26:43.000Z</time>
      </trkpt>
      <trkpt lat="43.93712" lon="1.83563">
        <ele>227.80000305176</ele>
        <time>2020-08-13T17:26:44.000Z</time>
      </trkpt>
      <trkpt lat="43.93708" lon="1.83562">
        <ele>227.60000610352</ele>
        <time>2020-08-13T17:26:45.000Z</time>
      </trkpt>
      <trkpt lat="43.93704" lon="1.83562">
        <ele>227.60000610352</ele>
        <time>2020-08-13T17:26:46.000Z</time>
      </trkpt>
      <trkpt lat="43.937" lon="1.83562">
        <ele>227.39999389648</ele>
        <time>2020-08-13T17:26:47.000Z</time>
      </trkpt>
      <trkpt lat="43.93697" lon="1.83562">
        <ele>227.19999694824</ele>
        <time>2020-08-13T17:26:48.000Z</time>
      </trkpt>
      <trkpt lat="43.93693" lon="1.83561">
        <ele>227</ele>
        <time>2020-08-13T17:26:49.000Z</time>
      </trkpt>
      <trkpt lat="43.93689" lon="1.83561">
        <ele>226.80000305176</ele>
        <time>2020-08-13T17:26:50.000Z</time>
      </trkpt>
      <trkpt lat="43.93686" lon="1.8356">
        <ele>226.80000305176</ele>
        <time>2020-08-13T17:26:51.000Z</time>
      </trkpt>
      <trkpt lat="43.93682" lon="1.8356">
        <ele>227</ele>
        <time>2020-08-13T17:26:52.000Z</time>
      </trkpt>
      <trkpt lat="43.93679" lon="1.83559">
        <ele>227.19999694824</ele>
        <time>2020-08-13T17:26:53.000Z</time>
      </trkpt>
      <trkpt lat="43.93676" lon="1.83559">
        <ele>227</ele>
        <time>2020-08-13T17:26:54.000Z</time>
      </trkpt>
      <trkpt lat="43.93672" lon="1.83558">
        <ele>226.80000305176</ele>
        <time>2020-08-13T17:26:55.000Z</time>
      </trkpt>
      <trkpt lat="43.93668" lon="1.83557">
        <ele>226.60000610352</ele>
        <time>2020-08-13T17:26:56.000Z</time>
      </trkpt>
      <trkpt lat="43.93664" lon="1.83557">
        <ele>226.60000610352</ele>
        <time>2020-08-13T17:26:57.000Z</time>
      </trkpt>
      <trkpt lat="43.93661" lon="1.83556">
        <ele>226.60000610352</ele>
        <time>2020-08-13T17:26:58.000Z</time>
      </trkpt>
      <trkpt lat="43.93657" lon="1.83555">
        <ele>226.80000305176</ele>
        <time>2020-08-13T17:26:59.000Z</time>
      </trkpt>
      <trkpt lat="43.93654" lon="1.83554">
        <ele>226.60000610352</ele>
        <time>2020-08-13T17:27:00.000Z</time>
      </trkpt>
      <trkpt lat="43.93651" lon="1.83552">
        <ele>226.39999389648</ele>
        <time>2020-08-13T17:27:01.000Z</time>
      </trkpt>
      <trkpt lat="43.93648" lon="1.8355">
        <ele>226.39999389648</ele>
        <time>2020-08-13T17:27:02.000Z</time>
      </trkpt>
      <trkpt lat="43.93645" lon="1.83547">
        <ele>226.19999694824</ele>
        <time>2020-08-13T17:27:03.000Z</time>
      </trkpt>
      <trkpt lat="43.93642" lon="1.83544">
        <ele>226.19999694824</ele>
        <time>2020-08-13T17:27:04.000Z</time>
      </trkpt>
      <trkpt lat="43.93639" lon="1.83541">
        <ele>226</ele>
        <time>2020-08-13T17:27:05.000Z</time>
      </trkpt>
      <trkpt lat="43.93636" lon="1.83538">
        <ele>225.60000610352</ele>
        <time>2020-08-13T17:27:06.000Z</time>
      </trkpt>
      <trkpt lat="43.93633" lon="1.83535">
        <ele>225.39999389648</ele>
        <time>2020-08-13T17:27:07.000Z</time>
      </trkpt>
      <trkpt lat="43.93631" lon="1.83531">
        <ele>225.39999389648</ele>
        <time>2020-08-13T17:27:08.000Z</time>
      </trkpt>
      <trkpt lat="43.93629" lon="1.83529">
        <ele>225.39999389648</ele>
        <time>2020-08-13T17:27:09.000Z</time>
      </trkpt>
      <trkpt lat="43.93627" lon="1.83526">
        <ele>225.39999389648</ele>
        <time>2020-08-13T17:27:10.000Z</time>
      </trkpt>
      <trkpt lat="43.93626" lon="1.83523">
        <ele>225.39999389648</ele>
        <time>2020-08-13T17:27:11.000Z</time>
      </trkpt>
      <trkpt lat="43.93625" lon="1.83521">
        <ele>225.39999389648</ele>
        <time>2020-08-13T17:27:12.000Z</time>
      </trkpt>
      <trkpt lat="43.93624" lon="1.83518">
        <ele>225.19999694824</ele>
        <time>2020-08-13T17:27:13.000Z</time>
      </trkpt>
      <trkpt lat="43.93623" lon="1.83516">
        <ele>225.19999694824</ele>
        <time>2020-08-13T17:27:14.000Z</time>
      </trkpt>
      <trkpt lat="43.93623" lon="1.83514">
        <ele>225.19999694824</ele>
        <time>2020-08-13T17:27:15.000Z</time>
      </trkpt>
      <trkpt lat="43.93622" lon="1.83512">
        <ele>225.19999694824</ele>
        <time>2020-08-13T17:27:16.000Z</time>
      </trkpt>
      <trkpt lat="43.93621" lon="1.8351">
        <ele>225</ele>
        <time>2020-08-13T17:27:17.000Z</time>
      </trkpt>
      <trkpt lat="43.9362" lon="1.83507">
        <ele>225</ele>
        <time>2020-08-13T17:27:18.000Z</time>
      </trkpt>
      <trkpt lat="43.93619" lon="1.83505">
        <ele>225</ele>
        <time>2020-08-13T17:27:19.000Z</time>
      </trkpt>
      <trkpt lat="43.93617" lon="1.83504">
        <ele>225</ele>
        <time>2020-08-13T17:27:20.000Z</time>
      </trkpt>
      <trkpt lat="43.93616" lon="1.83505">
        <ele>224.80000305176</ele>
        <time>2020-08-13T17:27:21.000Z</time>
      </trkpt>
      <trkpt lat="43.93614" lon="1.83507">
        <ele>224.60000610352</ele>
        <time>2020-08-13T17:27:22.000Z</time>
      </trkpt>
      <trkpt lat="43.93613" lon="1.8351">
        <ele>224.60000610352</ele>
        <time>2020-08-13T17:27:23.000Z</time>
      </trkpt>
      <trkpt lat="43.93613" lon="1.83513">
        <ele>224.80000305176</ele>
        <time>2020-08-13T17:27:24.000Z</time>
      </trkpt>
      <trkpt lat="43.93612" lon="1.83516">
        <ele>224.60000610352</ele>
        <time>2020-08-13T17:27:25.000Z</time>
      </trkpt>
      <trkpt lat="43.93611" lon="1.83519">
        <ele>224.60000610352</ele>
        <time>2020-08-13T17:27:26.000Z</time>
      </trkpt>
      <trkpt lat="43.9361" lon="1.83523">
        <ele>224.60000610352</ele>
        <time>2020-08-13T17:27:27.000Z</time>
      </trkpt>
      <trkpt lat="43.93609" lon="1.83526">
        <ele>224.60000610352</ele>
        <time>2020-08-13T17:27:28.000Z</time>
      </trkpt>
      <trkpt lat="43.93608" lon="1.83529">
        <ele>224.80000305176</ele>
        <time>2020-08-13T17:27:29.000Z</time>
      </trkpt>
      <trkpt lat="43.93607" lon="1.83532">
        <ele>225</ele>
        <time>2020-08-13T17:27:30.000Z</time>
      </trkpt>
      <trkpt lat="43.93607" lon="1.83534">
        <ele>225.19999694824</ele>
        <time>2020-08-13T17:27:31.000Z</time>
      </trkpt>
      <trkpt lat="43.93606" lon="1.83537">
        <ele>225.19999694824</ele>
        <time>2020-08-13T17:27:32.000Z</time>
      </trkpt>
      <trkpt lat="43.93606" lon="1.83539">
        <ele>225.39999389648</ele>
        <time>2020-08-13T17:27:33.000Z</time>
      </trkpt>
      <trkpt lat="43.93606" lon="1.83542">
        <ele>225.39999389648</ele>
        <time>2020-08-13T17:27:34.000Z</time>
      </trkpt>
      <trkpt lat="43.93605" lon="1.83544">
        <ele>225.60000610352</ele>
        <time>2020-08-13T17:27:35.000Z</time>
      </trkpt>
      <trkpt lat="43.93604" lon="1.83547">
        <ele>225.80000305176</ele>
        <time>2020-08-13T17:27:36.000Z</time>
      </trkpt>
      <trkpt lat="43.93604" lon="1.8355">
        <ele>225.80000305176</ele>
        <time>2020-08-13T17:27:37.000Z</time>
      </trkpt>
      <trkpt lat="43.93603" lon="1.83553">
        <ele>225.80000305176</ele>
        <time>2020-08-13T17:27:38.000Z</time>
      </trkpt>
      <trkpt lat="43.93602" lon="1.83556">
        <ele>225.80000305176</ele>
        <time>2020-08-13T17:27:39.000Z</time>
      </trkpt>
      <trkpt lat="43.93601" lon="1.83558">
        <ele>225.80000305176</ele>
        <time>2020-08-13T17:27:40.000Z</time>
      </trkpt>
      <trkpt lat="43.936" lon="1.83559">
        <ele>225.80000305176</ele>
        <time>2020-08-13T17:27:41.000Z</time>
      </trkpt>
      <trkpt lat="43.93598" lon="1.8356">
        <ele>226</ele>
        <time>2020-08-13T17:27:42.000Z</time>
      </trkpt>
      <trkpt lat="43.93597" lon="1.8356">
        <ele>226</ele>
        <time>2020-08-13T17:27:43.000Z</time>
      </trkpt>
      <trkpt lat="43.93596" lon="1.83559">
        <ele>226.19999694824</ele>
        <time>2020-08-13T17:27:44.000Z</time>
      </trkpt>
      <trkpt lat="43.93594" lon="1.83557">
        <ele>226.19999694824</ele>
        <time>2020-08-13T17:27:45.000Z</time>
      </trkpt>
      <trkpt lat="43.93592" lon="1.83556">
        <ele>226.19999694824</ele>
        <time>2020-08-13T17:27:46.000Z</time>
      </trkpt>
      <trkpt lat="43.93589" lon="1.83555">
        <ele>226</ele>
        <time>2020-08-13T17:27:47.000Z</time>
      </trkpt>
      <trkpt lat="43.93587" lon="1.83554">
        <ele>226</ele>
        <time>2020-08-13T17:27:48.000Z</time>
      </trkpt>
      <trkpt lat="43.93584" lon="1.83554">
        <ele>226.19999694824</ele>
        <time>2020-08-13T17:27:49.000Z</time>
      </trkpt>
      <trkpt lat="43.93582" lon="1.83555">
        <ele>226</ele>
        <time>2020-08-13T17:27:50.000Z</time>
      </trkpt>
      <trkpt lat="43.93579" lon="1.83555">
        <ele>226</ele>
        <time>2020-08-13T17:27:51.000Z</time>
      </trkpt>
      <trkpt lat="43.93577" lon="1.83556">
        <ele>226</ele>
        <time>2020-08-13T17:27:52.000Z</time>
      </trkpt>
      <trkpt lat="43.93574" lon="1.83556">
        <ele>226</ele>
        <time>2020-08-13T17:27:53.000Z</time>
      </trkpt>
      <trkpt lat="43.93571" lon="1.83557">
        <ele>226</ele>
        <time>2020-08-13T17:27:54.000Z</time>
      </trkpt>
      <trkpt lat="43.93568" lon="1.83557">
        <ele>226.19999694824</ele>
        <time>2020-08-13T17:27:55.000Z</time>
      </trkpt>
      <trkpt lat="43.93566" lon="1.83558">
        <ele>226.19999694824</ele>
        <time>2020-08-13T17:27:56.000Z</time>
      </trkpt>
      <trkpt lat="43.93563" lon="1.83559">
        <ele>226.19999694824</ele>
        <time>2020-08-13T17:27:57.000Z</time>
      </trkpt>
      <trkpt lat="43.9356" lon="1.8356">
        <ele>226.39999389648</ele>
        <time>2020-08-13T17:27:58.000Z</time>
      </trkpt>
      <trkpt lat="43.93557" lon="1.8356">
        <ele>226.39999389648</ele>
        <time>2020-08-13T17:27:59.000Z</time>
      </trkpt>
      <trkpt lat="43.93555" lon="1.83561">
        <ele>226.60000610352</ele>
        <time>2020-08-13T17:28:00.000Z</time>
      </trkpt>
      <trkpt lat="43.93552" lon="1.83562">
        <ele>226.60000610352</ele>
        <time>2020-08-13T17:28:01.000Z</time>
      </trkpt>
      <trkpt lat="43.93549" lon="1.83563">
        <ele>226.60000610352</ele>
        <time>2020-08-13T17:28:02.000Z</time>
      </trkpt>
      <trkpt lat="43.93547" lon="1.83563">
        <ele>226.80000305176</ele>
        <time>2020-08-13T17:28:03.000Z</time>
      </trkpt>
      <trkpt lat="43.93544" lon="1.83564">
        <ele>227</ele>
        <time>2020-08-13T17:28:04.000Z</time>
      </trkpt>
      <trkpt lat="43.93542" lon="1.83565">
        <ele>227</ele>
        <time>2020-08-13T17:28:05.000Z</time>
      </trkpt>
      <trkpt lat="43.93539" lon="1.83565">
        <ele>227</ele>
        <time>2020-08-13T17:28:06.000Z</time>
      </trkpt>
      <trkpt lat="43.93537" lon="1.83566">
        <ele>227</ele>
        <time>2020-08-13T17:28:07.000Z</time>
      </trkpt>
      <trkpt lat="43.93535" lon="1.83566">
        <ele>227</ele>
        <time>2020-08-13T17:28:08.000Z</time>
      </trkpt>
      <trkpt lat="43.93532" lon="1.83567">
        <ele>227</ele>
        <time>2020-08-13T17:28:09.000Z</time>
      </trkpt>
      <trkpt lat="43.93529" lon="1.83567">
        <ele>226.80000305176</ele>
        <time>2020-08-13T17:28:10.000Z</time>
      </trkpt>
      <trkpt lat="43.93527" lon="1.83568">
        <ele>227</ele>
        <time>2020-08-13T17:28:11.000Z</time>
      </trkpt>
      <trkpt lat="43.93525" lon="1.83569">
        <ele>227.19999694824</ele>
        <time>2020-08-13T17:28:12.000Z</time>
      </trkpt>
      <trkpt lat="43.93522" lon="1.83569">
        <ele>227.19999694824</ele>
        <time>2020-08-13T17:28:13.000Z</time>
      </trkpt>
      <trkpt lat="43.9352" lon="1.8357">
        <ele>227.39999389648</ele>
        <time>2020-08-13T17:28:14.000Z</time>
      </trkpt>
      <trkpt lat="43.93518" lon="1.83571">
        <ele>227.39999389648</ele>
        <time>2020-08-13T17:28:15.000Z</time>
      </trkpt>
      <trkpt lat="43.93516" lon="1.83571">
        <ele>227.60000610352</ele>
        <time>2020-08-13T17:28:16.000Z</time>
      </trkpt>
      <trkpt lat="43.93513" lon="1.83571">
        <ele>227.60000610352</ele>
        <time>2020-08-13T17:28:17.000Z</time>
      </trkpt>
      <trkpt lat="43.93511" lon="1.83572">
        <ele>227.60000610352</ele>
        <time>2020-08-13T17:28:18.000Z</time>
      </trkpt>
      <trkpt lat="43.93509" lon="1.83572">
        <ele>227.80000305176</ele>
        <time>2020-08-13T17:28:19.000Z</time>
      </trkpt>
      <trkpt lat="43.93507" lon="1.83573">
        <ele>228</ele>
        <time>2020-08-13T17:28:20.000Z</time>
      </trkpt>
      <trkpt lat="43.93505" lon="1.83573">
        <ele>228</ele>
        <time>2020-08-13T17:28:21.000Z</time>
      </trkpt>
      <trkpt lat="43.93502" lon="1.83574">
        <ele>228.19999694824</ele>
        <time>2020-08-13T17:28:22.000Z</time>
      </trkpt>
      <trkpt lat="43.935" lon="1.83574">
        <ele>228.39999389648</ele>
        <time>2020-08-13T17:28:23.000Z</time>
      </trkpt>
      <trkpt lat="43.93498" lon="1.83575">
        <ele>228.60000610352</ele>
        <time>2020-08-13T17:28:24.000Z</time>
      </trkpt>
      <trkpt lat="43.93496" lon="1.83575">
        <ele>228.39999389648</ele>
        <time>2020-08-13T17:28:25.000Z</time>
      </trkpt>
      <trkpt lat="43.93494" lon="1.83575">
        <ele>228.39999389648</ele>
        <time>2020-08-13T17:28:26.000Z</time>
      </trkpt>
      <trkpt lat="43.93493" lon="1.83576">
        <ele>228.60000610352</ele>
        <time>2020-08-13T17:28:27.000Z</time>
      </trkpt>
      <trkpt lat="43.93491" lon="1.83576">
        <ele>228.60000610352</ele>
        <time>2020-08-13T17:28:28.000Z</time>
      </trkpt>
      <trkpt lat="43.93489" lon="1.83577">
        <ele>228.60000610352</ele>
        <time>2020-08-13T17:28:29.000Z</time>
      </trkpt>
      <trkpt lat="43.93487" lon="1.83577">
        <ele>228.60000610352</ele>
        <time>2020-08-13T17:28:30.000Z</time>
      </trkpt>
      <trkpt lat="43.93484" lon="1.83578">
        <ele>228.60000610352</ele>
        <time>2020-08-13T17:28:31.000Z</time>
      </trkpt>
      <trkpt lat="43.93483" lon="1.83579">
        <ele>228.80000305176</ele>
        <time>2020-08-13T17:28:32.000Z</time>
      </trkpt>
      <trkpt lat="43.93481" lon="1.83579">
        <ele>229.19999694824</ele>
        <time>2020-08-13T17:28:33.000Z</time>
      </trkpt>
      <trkpt lat="43.93478" lon="1.83579">
        <ele>229.39999389648</ele>
        <time>2020-08-13T17:28:34.000Z</time>
      </trkpt>
      <trkpt lat="43.93476" lon="1.83579">
        <ele>229.39999389648</ele>
        <time>2020-08-13T17:28:35.000Z</time>
      </trkpt>
      <trkpt lat="43.93474" lon="1.8358">
        <ele>229.60000610352</ele>
        <time>2020-08-13T17:28:36.000Z</time>
      </trkpt>
      <trkpt lat="43.93472" lon="1.8358">
        <ele>229.80000305176</ele>
        <time>2020-08-13T17:28:37.000Z</time>
      </trkpt>
      <trkpt lat="43.93469" lon="1.83581">
        <ele>229.80000305176</ele>
        <time>2020-08-13T17:28:38.000Z</time>
      </trkpt>
      <trkpt lat="43.93467" lon="1.83582">
        <ele>230</ele>
        <time>2020-08-13T17:28:39.000Z</time>
      </trkpt>
      <trkpt lat="43.93465" lon="1.83582">
        <ele>230.19999694824</ele>
        <time>2020-08-13T17:28:40.000Z</time>
      </trkpt>
      <trkpt lat="43.93462" lon="1.83583">
        <ele>230.39999389648</ele>
        <time>2020-08-13T17:28:41.000Z</time>
      </trkpt>
      <trkpt lat="43.9346" lon="1.83584">
        <ele>230.39999389648</ele>
        <time>2020-08-13T17:28:42.000Z</time>
      </trkpt>
      <trkpt lat="43.93458" lon="1.83584">
        <ele>230.60000610352</ele>
        <time>2020-08-13T17:28:43.000Z</time>
      </trkpt>
      <trkpt lat="43.93455" lon="1.83585">
        <ele>230.60000610352</ele>
        <time>2020-08-13T17:28:44.000Z</time>
      </trkpt>
      <trkpt lat="43.93453" lon="1.83585">
        <ele>231</ele>
        <time>2020-08-13T17:28:45.000Z</time>
      </trkpt>
      <trkpt lat="43.93451" lon="1.83586">
        <ele>231</ele>
        <time>2020-08-13T17:28:46.000Z</time>
      </trkpt>
      <trkpt lat="43.93448" lon="1.83586">
        <ele>231.19999694824</ele>
        <time>2020-08-13T17:28:47.000Z</time>
      </trkpt>
      <trkpt lat="43.93446" lon="1.83587">
        <ele>231.19999694824</ele>
        <time>2020-08-13T17:28:48.000Z</time>
      </trkpt>
      <trkpt lat="43.93444" lon="1.83587">
        <ele>231.19999694824</ele>
        <time>2020-08-13T17:28:49.000Z</time>
      </trkpt>
      <trkpt lat="43.93441" lon="1.83588">
        <ele>231</ele>
        <time>2020-08-13T17:28:50.000Z</time>
      </trkpt>
      <trkpt lat="43.93439" lon="1.83588">
        <ele>231</ele>
        <time>2020-08-13T17:28:51.000Z</time>
      </trkpt>
      <trkpt lat="43.93436" lon="1.83589">
        <ele>231</ele>
        <time>2020-08-13T17:28:52.000Z</time>
      </trkpt>
      <trkpt lat="43.93434" lon="1.83589">
        <ele>231</ele>
        <time>2020-08-13T17:28:53.000Z</time>
      </trkpt>
      <trkpt lat="43.93431" lon="1.8359">
        <ele>231.39999389648</ele>
        <time>2020-08-13T17:28:54.000Z</time>
      </trkpt>
      <trkpt lat="43.93428" lon="1.8359">
        <ele>231.39999389648</ele>
        <time>2020-08-13T17:28:55.000Z</time>
      </trkpt>
      <trkpt lat="43.93426" lon="1.83591">
        <ele>231.39999389648</ele>
        <time>2020-08-13T17:28:56.000Z</time>
      </trkpt>
      <trkpt lat="43.93423" lon="1.83592">
        <ele>231.19999694824</ele>
        <time>2020-08-13T17:28:57.000Z</time>
      </trkpt>
      <trkpt lat="43.93421" lon="1.83593">
        <ele>231.19999694824</ele>
        <time>2020-08-13T17:28:58.000Z</time>
      </trkpt>
      <trkpt lat="43.93418" lon="1.83593">
        <ele>231.39999389648</ele>
        <time>2020-08-13T17:28:59.000Z</time>
      </trkpt>
      <trkpt lat="43.93416" lon="1.83594">
        <ele>231.80000305176</ele>
        <time>2020-08-13T17:29:00.000Z</time>
      </trkpt>
      <trkpt lat="43.93414" lon="1.83594">
        <ele>232</ele>
        <time>2020-08-13T17:29:01.000Z</time>
      </trkpt>
      <trkpt lat="43.93412" lon="1.83595">
        <ele>232</ele>
        <time>2020-08-13T17:29:02.000Z</time>
      </trkpt>
      <trkpt lat="43.93409" lon="1.83596">
        <ele>232</ele>
        <time>2020-08-13T17:29:03.000Z</time>
      </trkpt>
      <trkpt lat="43.93407" lon="1.83597">
        <ele>232.19999694824</ele>
        <time>2020-08-13T17:29:04.000Z</time>
      </trkpt>
      <trkpt lat="43.93405" lon="1.83597">
        <ele>232.19999694824</ele>
        <time>2020-08-13T17:29:05.000Z</time>
      </trkpt>
      <trkpt lat="43.93402" lon="1.83598">
        <ele>232.39999389648</ele>
        <time>2020-08-13T17:29:06.000Z</time>
      </trkpt>
      <trkpt lat="43.934" lon="1.83598">
        <ele>232.60000610352</ele>
        <time>2020-08-13T17:29:07.000Z</time>
      </trkpt>
      <trkpt lat="43.93398" lon="1.83599">
        <ele>232.80000305176</ele>
        <time>2020-08-13T17:29:08.000Z</time>
      </trkpt>
      <trkpt lat="43.93396" lon="1.83599">
        <ele>233</ele>
        <time>2020-08-13T17:29:09.000Z</time>
      </trkpt>
      <trkpt lat="43.93393" lon="1.836">
        <ele>233</ele>
        <time>2020-08-13T17:29:10.000Z</time>
      </trkpt>
      <trkpt lat="43.93392" lon="1.836">
        <ele>233.19999694824</ele>
        <time>2020-08-13T17:29:11.000Z</time>
      </trkpt>
      <trkpt lat="43.9339" lon="1.83599">
        <ele>233.19999694824</ele>
        <time>2020-08-13T17:29:12.000Z</time>
      </trkpt>
      <trkpt lat="43.93389" lon="1.83597">
        <ele>233.19999694824</ele>
        <time>2020-08-13T17:29:13.000Z</time>
      </trkpt>
      <trkpt lat="43.93388" lon="1.83595">
        <ele>233.19999694824</ele>
        <time>2020-08-13T17:29:14.000Z</time>
      </trkpt>
      <trkpt lat="43.93388" lon="1.83592">
        <ele>233.39999389648</ele>
        <time>2020-08-13T17:29:15.000Z</time>
      </trkpt>
      <trkpt lat="43.93387" lon="1.83589">
        <ele>233.60000610352</ele>
        <time>2020-08-13T17:29:16.000Z</time>
      </trkpt>
      <trkpt lat="43.93387" lon="1.83585">
        <ele>233.60000610352</ele>
        <time>2020-08-13T17:29:17.000Z</time>
      </trkpt>
      <trkpt lat="43.93387" lon="1.83581">
        <ele>233.80000305176</ele>
        <time>2020-08-13T17:29:18.000Z</time>
      </trkpt>
      <trkpt lat="43.93387" lon="1.83577">
        <ele>233.80000305176</ele>
        <time>2020-08-13T17:29:19.000Z</time>
      </trkpt>
      <trkpt lat="43.93387" lon="1.83573">
        <ele>233.80000305176</ele>
        <time>2020-08-13T17:29:20.000Z</time>
      </trkpt>
      <trkpt lat="43.93386" lon="1.83569">
        <ele>233.60000610352</ele>
        <time>2020-08-13T17:29:21.000Z</time>
      </trkpt>
      <trkpt lat="43.93386" lon="1.83565">
        <ele>233.80000305176</ele>
        <time>2020-08-13T17:29:22.000Z</time>
      </trkpt>
      <trkpt lat="43.93386" lon="1.83562">
        <ele>233.80000305176</ele>
        <time>2020-08-13T17:29:23.000Z</time>
      </trkpt>
      <trkpt lat="43.93386" lon="1.83558">
        <ele>233.80000305176</ele>
        <time>2020-08-13T17:29:24.000Z</time>
      </trkpt>
      <trkpt lat="43.93386" lon="1.83554">
        <ele>234</ele>
        <time>2020-08-13T17:29:25.000Z</time>
      </trkpt>
      <trkpt lat="43.93386" lon="1.83551">
        <ele>234</ele>
        <time>2020-08-13T17:29:26.000Z</time>
      </trkpt>
      <trkpt lat="43.93385" lon="1.83547">
        <ele>234.19999694824</ele>
        <time>2020-08-13T17:29:27.000Z</time>
      </trkpt>
      <trkpt lat="43.93385" lon="1.83543">
        <ele>234.39999389648</ele>
        <time>2020-08-13T17:29:28.000Z</time>
      </trkpt>
      <trkpt lat="43.93384" lon="1.8354">
        <ele>234.60000610352</ele>
        <time>2020-08-13T17:29:29.000Z</time>
      </trkpt>
      <trkpt lat="43.93384" lon="1.83536">
        <ele>234.60000610352</ele>
        <time>2020-08-13T17:29:30.000Z</time>
      </trkpt>
      <trkpt lat="43.93383" lon="1.83533">
        <ele>234.80000305176</ele>
        <time>2020-08-13T17:29:31.000Z</time>
      </trkpt>
      <trkpt lat="43.93383" lon="1.83529">
        <ele>235</ele>
        <time>2020-08-13T17:29:32.000Z</time>
      </trkpt>
      <trkpt lat="43.93382" lon="1.83526">
        <ele>235</ele>
        <time>2020-08-13T17:29:33.000Z</time>
      </trkpt>
      <trkpt lat="43.93381" lon="1.83522">
        <ele>235.19999694824</ele>
        <time>2020-08-13T17:29:34.000Z</time>
      </trkpt>
      <trkpt lat="43.93381" lon="1.83518">
        <ele>235.19999694824</ele>
        <time>2020-08-13T17:29:35.000Z</time>
      </trkpt>
      <trkpt lat="43.93381" lon="1.83515">
        <ele>235.39999389648</ele>
        <time>2020-08-13T17:29:36.000Z</time>
      </trkpt>
      <trkpt lat="43.93381" lon="1.83512">
        <ele>235.39999389648</ele>
        <time>2020-08-13T17:29:37.000Z</time>
      </trkpt>
      <trkpt lat="43.93381" lon="1.83509">
        <ele>235.60000610352</ele>
        <time>2020-08-13T17:29:38.000Z</time>
      </trkpt>
      <trkpt lat="43.93381" lon="1.83505">
        <ele>235.60000610352</ele>
        <time>2020-08-13T17:29:39.000Z</time>
      </trkpt>
      <trkpt lat="43.9338" lon="1.83502">
        <ele>235.60000610352</ele>
        <time>2020-08-13T17:29:40.000Z</time>
      </trkpt>
      <trkpt lat="43.9338" lon="1.83499">
        <ele>235.80000305176</ele>
        <time>2020-08-13T17:29:41.000Z</time>
      </trkpt>
      <trkpt lat="43.9338" lon="1.83495">
        <ele>235.80000305176</ele>
        <time>2020-08-13T17:29:42.000Z</time>
      </trkpt>
      <trkpt lat="43.9338" lon="1.83491">
        <ele>236</ele>
        <time>2020-08-13T17:29:43.000Z</time>
      </trkpt>
      <trkpt lat="43.9338" lon="1.83488">
        <ele>236</ele>
        <time>2020-08-13T17:29:44.000Z</time>
      </trkpt>
      <trkpt lat="43.9338" lon="1.83484">
        <ele>236</ele>
        <time>2020-08-13T17:29:45.000Z</time>
      </trkpt>
      <trkpt lat="43.9338" lon="1.83481">
        <ele>236.19999694824</ele>
        <time>2020-08-13T17:29:46.000Z</time>
      </trkpt>
      <trkpt lat="43.93379" lon="1.83478">
        <ele>236.39999389648</ele>
        <time>2020-08-13T17:29:47.000Z</time>
      </trkpt>
      <trkpt lat="43.93379" lon="1.83475">
        <ele>236.60000610352</ele>
        <time>2020-08-13T17:29:48.000Z</time>
      </trkpt>
      <trkpt lat="43.93378" lon="1.83472">
        <ele>236.60000610352</ele>
        <time>2020-08-13T17:29:49.000Z</time>
      </trkpt>
      <trkpt lat="43.93378" lon="1.83469">
        <ele>236.80000305176</ele>
        <time>2020-08-13T17:29:50.000Z</time>
      </trkpt>
      <trkpt lat="43.93377" lon="1.83465">
        <ele>237</ele>
        <time>2020-08-13T17:29:51.000Z</time>
      </trkpt>
      <trkpt lat="43.93377" lon="1.83462">
        <ele>237.19999694824</ele>
        <time>2020-08-13T17:29:52.000Z</time>
      </trkpt>
      <trkpt lat="43.93376" lon="1.83458">
        <ele>237.39999389648</ele>
        <time>2020-08-13T17:29:53.000Z</time>
      </trkpt>
      <trkpt lat="43.93376" lon="1.83455">
        <ele>237.60000610352</ele>
        <time>2020-08-13T17:29:54.000Z</time>
      </trkpt>
      <trkpt lat="43.93376" lon="1.83451">
        <ele>237.60000610352</ele>
        <time>2020-08-13T17:29:55.000Z</time>
      </trkpt>
      <trkpt lat="43.93375" lon="1.83448">
        <ele>237.80000305176</ele>
        <time>2020-08-13T17:29:56.000Z</time>
      </trkpt>
      <trkpt lat="43.93375" lon="1.83444">
        <ele>238</ele>
        <time>2020-08-13T17:29:57.000Z</time>
      </trkpt>
      <trkpt lat="43.93375" lon="1.83441">
        <ele>238.19999694824</ele>
        <time>2020-08-13T17:29:58.000Z</time>
      </trkpt>
      <trkpt lat="43.93376" lon="1.83437">
        <ele>238.19999694824</ele>
        <time>2020-08-13T17:29:59.000Z</time>
      </trkpt>
      <trkpt lat="43.93376" lon="1.83434">
        <ele>238.39999389648</ele>
        <time>2020-08-13T17:30:00.000Z</time>
      </trkpt>
      <trkpt lat="43.93377" lon="1.8343">
        <ele>238.60000610352</ele>
        <time>2020-08-13T17:30:01.000Z</time>
      </trkpt>
      <trkpt lat="43.93378" lon="1.83426">
        <ele>238.60000610352</ele>
        <time>2020-08-13T17:30:02.000Z</time>
      </trkpt>
      <trkpt lat="43.93379" lon="1.83423">
        <ele>238.60000610352</ele>
        <time>2020-08-13T17:30:03.000Z</time>
      </trkpt>
      <trkpt lat="43.93381" lon="1.83419">
        <ele>238.39999389648</ele>
        <time>2020-08-13T17:30:04.000Z</time>
      </trkpt>
      <trkpt lat="43.93382" lon="1.83415">
        <ele>238.39999389648</ele>
        <time>2020-08-13T17:30:05.000Z</time>
      </trkpt>
      <trkpt lat="43.93384" lon="1.83412">
        <ele>238.39999389648</ele>
        <time>2020-08-13T17:30:06.000Z</time>
      </trkpt>
      <trkpt lat="43.93385" lon="1.83408">
        <ele>238.19999694824</ele>
        <time>2020-08-13T17:30:07.000Z</time>
      </trkpt>
      <trkpt lat="43.93387" lon="1.83404">
        <ele>238.19999694824</ele>
        <time>2020-08-13T17:30:08.000Z</time>
      </trkpt>
      <trkpt lat="43.93388" lon="1.834">
        <ele>238.19999694824</ele>
        <time>2020-08-13T17:30:09.000Z</time>
      </trkpt>
      <trkpt lat="43.9339" lon="1.83396">
        <ele>238.39999389648</ele>
        <time>2020-08-13T17:30:10.000Z</time>
      </trkpt>
      <trkpt lat="43.93392" lon="1.83393">
        <ele>238.60000610352</ele>
        <time>2020-08-13T17:30:11.000Z</time>
      </trkpt>
      <trkpt lat="43.93393" lon="1.83389">
        <ele>238.39999389648</ele>
        <time>2020-08-13T17:30:12.000Z</time>
      </trkpt>
      <trkpt lat="43.93395" lon="1.83386">
        <ele>238.19999694824</ele>
        <time>2020-08-13T17:30:13.000Z</time>
      </trkpt>
      <trkpt lat="43.93397" lon="1.83383">
        <ele>238.39999389648</ele>
        <time>2020-08-13T17:30:14.000Z</time>
      </trkpt>
      <trkpt lat="43.934" lon="1.83379">
        <ele>238.39999389648</ele>
        <time>2020-08-13T17:30:15.000Z</time>
      </trkpt>
      <trkpt lat="43.93402" lon="1.83376">
        <ele>238.39999389648</ele>
        <time>2020-08-13T17:30:16.000Z</time>
      </trkpt>
      <trkpt lat="43.93404" lon="1.83372">
        <ele>238</ele>
        <time>2020-08-13T17:30:17.000Z</time>
      </trkpt>
      <trkpt lat="43.93407" lon="1.83369">
        <ele>238</ele>
        <time>2020-08-13T17:30:18.000Z</time>
      </trkpt>
      <trkpt lat="43.93409" lon="1.83365">
        <ele>238</ele>
        <time>2020-08-13T17:30:19.000Z</time>
      </trkpt>
      <trkpt lat="43.93411" lon="1.83362">
        <ele>238.39999389648</ele>
        <time>2020-08-13T17:30:20.000Z</time>
      </trkpt>
      <trkpt lat="43.93413" lon="1.83358">
        <ele>238.39999389648</ele>
        <time>2020-08-13T17:30:21.000Z</time>
      </trkpt>
      <trkpt lat="43.93415" lon="1.83355">
        <ele>238.19999694824</ele>
        <time>2020-08-13T17:30:22.000Z</time>
      </trkpt>
      <trkpt lat="43.93417" lon="1.83352">
        <ele>238</ele>
        <time>2020-08-13T17:30:23.000Z</time>
      </trkpt>
      <trkpt lat="43.93419" lon="1.83349">
        <ele>238.19999694824</ele>
        <time>2020-08-13T17:30:24.000Z</time>
      </trkpt>
      <trkpt lat="43.93421" lon="1.83346">
        <ele>238</ele>
        <time>2020-08-13T17:30:25.000Z</time>
      </trkpt>
      <trkpt lat="43.93423" lon="1.83343">
        <ele>238</ele>
        <time>2020-08-13T17:30:26.000Z</time>
      </trkpt>
      <trkpt lat="43.93424" lon="1.8334">
        <ele>238.19999694824</ele>
        <time>2020-08-13T17:30:27.000Z</time>
      </trkpt>
      <trkpt lat="43.93425" lon="1.83338">
        <ele>238.39999389648</ele>
        <time>2020-08-13T17:30:28.000Z</time>
      </trkpt>
      <trkpt lat="43.93427" lon="1.83335">
        <ele>238.39999389648</ele>
        <time>2020-08-13T17:30:29.000Z</time>
      </trkpt>
      <trkpt lat="43.93428" lon="1.83332">
        <ele>238.39999389648</ele>
        <time>2020-08-13T17:30:30.000Z</time>
      </trkpt>
      <trkpt lat="43.9343" lon="1.83329">
        <ele>238.39999389648</ele>
        <time>2020-08-13T17:30:31.000Z</time>
      </trkpt>
      <trkpt lat="43.93431" lon="1.83327">
        <ele>238.60000610352</ele>
        <time>2020-08-13T17:30:32.000Z</time>
      </trkpt>
      <trkpt lat="43.93432" lon="1.83324">
        <ele>238.39999389648</ele>
        <time>2020-08-13T17:30:33.000Z</time>
      </trkpt>
      <trkpt lat="43.93433" lon="1.83321">
        <ele>238.39999389648</ele>
        <time>2020-08-13T17:30:34.000Z</time>
      </trkpt>
      <trkpt lat="43.93434" lon="1.83318">
        <ele>238.39999389648</ele>
        <time>2020-08-13T17:30:35.000Z</time>
      </trkpt>
      <trkpt lat="43.93436" lon="1.83316">
        <ele>238.60000610352</ele>
        <time>2020-08-13T17:30:36.000Z</time>
      </trkpt>
      <trkpt lat="43.93437" lon="1.83313">
        <ele>238.60000610352</ele>
        <time>2020-08-13T17:30:37.000Z</time>
      </trkpt>
      <trkpt lat="43.93438" lon="1.8331">
        <ele>238.60000610352</ele>
        <time>2020-08-13T17:30:38.000Z</time>
      </trkpt>
      <trkpt lat="43.93439" lon="1.83308">
        <ele>238.60000610352</ele>
        <time>2020-08-13T17:30:39.000Z</time>
      </trkpt>
      <trkpt lat="43.93439" lon="1.83305">
        <ele>238.60000610352</ele>
        <time>2020-08-13T17:30:40.000Z</time>
      </trkpt>
      <trkpt lat="43.93439" lon="1.83303">
        <ele>238.60000610352</ele>
        <time>2020-08-13T17:30:41.000Z</time>
      </trkpt>
      <trkpt lat="43.93438" lon="1.83301">
        <ele>238.60000610352</ele>
        <time>2020-08-13T17:30:42.000Z</time>
      </trkpt>
      <trkpt lat="43.93436" lon="1.83299">
        <ele>238.39999389648</ele>
        <time>2020-08-13T17:30:43.000Z</time>
      </trkpt>
      <trkpt lat="43.93435" lon="1.83297">
        <ele>238.60000610352</ele>
        <time>2020-08-13T17:30:44.000Z</time>
      </trkpt>
      <trkpt lat="43.93433" lon="1.83297">
        <ele>238.60000610352</ele>
        <time>2020-08-13T17:30:45.000Z</time>
      </trkpt>
      <trkpt lat="43.93432" lon="1.83296">
        <ele>238.60000610352</ele>
        <time>2020-08-13T17:30:46.000Z</time>
      </trkpt>
      <trkpt lat="43.9343" lon="1.83296">
        <ele>238.60000610352</ele>
        <time>2020-08-13T17:30:47.000Z</time>
      </trkpt>
      <trkpt lat="43.93428" lon="1.83297">
        <ele>238.60000610352</ele>
        <time>2020-08-13T17:30:48.000Z</time>
      </trkpt>
      <trkpt lat="43.93427" lon="1.83297">
        <ele>238.80000305176</ele>
        <time>2020-08-13T17:30:49.000Z</time>
      </trkpt>
      <trkpt lat="43.93425" lon="1.83298">
        <ele>238.80000305176</ele>
        <time>2020-08-13T17:30:50.000Z</time>
      </trkpt>
      <trkpt lat="43.93424" lon="1.83299">
        <ele>239</ele>
        <time>2020-08-13T17:30:51.000Z</time>
      </trkpt>
      <trkpt lat="43.93422" lon="1.833">
        <ele>239</ele>
        <time>2020-08-13T17:30:52.000Z</time>
      </trkpt>
      <trkpt lat="43.9342" lon="1.83301">
        <ele>239.19999694824</ele>
        <time>2020-08-13T17:30:53.000Z</time>
      </trkpt>
      <trkpt lat="43.93419" lon="1.83302">
        <ele>239.19999694824</ele>
        <time>2020-08-13T17:30:54.000Z</time>
      </trkpt>
      <trkpt lat="43.93418" lon="1.83303">
        <ele>239.39999389648</ele>
        <time>2020-08-13T17:30:55.000Z</time>
      </trkpt>
      <trkpt lat="43.93417" lon="1.83305">
        <ele>239.39999389648</ele>
        <time>2020-08-13T17:30:56.000Z</time>
      </trkpt>
      <trkpt lat="43.93417" lon="1.83306">
        <ele>239.60000610352</ele>
        <time>2020-08-13T17:30:57.000Z</time>
      </trkpt>
      <trkpt lat="43.93416" lon="1.83307">
        <ele>239.60000610352</ele>
        <time>2020-08-13T17:30:58.000Z</time>
      </trkpt>
      <trkpt lat="43.93415" lon="1.83309">
        <ele>239.80000305176</ele>
        <time>2020-08-13T17:30:59.000Z</time>
      </trkpt>
      <trkpt lat="43.93414" lon="1.8331">
        <ele>240</ele>
        <time>2020-08-13T17:31:00.000Z</time>
      </trkpt>
      <trkpt lat="43.93413" lon="1.83311">
        <ele>240</ele>
        <time>2020-08-13T17:31:01.000Z</time>
      </trkpt>
      <trkpt lat="43.93413" lon="1.83311">
        <ele>240</ele>
        <time>2020-08-13T17:31:02.000Z</time>
      </trkpt>
      <trkpt lat="43.93411" lon="1.83313">
        <ele>240.19999694824</ele>
        <time>2020-08-13T17:31:03.000Z</time>
      </trkpt>
      <trkpt lat="43.9341" lon="1.83313">
        <ele>240.19999694824</ele>
        <time>2020-08-13T17:31:04.000Z</time>
      </trkpt>
      <trkpt lat="43.9341" lon="1.83313">
        <ele>240.39999389648</ele>
        <time>2020-08-13T17:31:05.000Z</time>
      </trkpt>
      <trkpt lat="43.93409" lon="1.83312">
        <ele>240.39999389648</ele>
        <time>2020-08-13T17:31:06.000Z</time>
      </trkpt>
      <trkpt lat="43.93409" lon="1.83312">
        <ele>240.39999389648</ele>
        <time>2020-08-13T17:31:07.000Z</time>
      </trkpt>
      <trkpt lat="43.93409" lon="1.83312">
        <ele>240.60000610352</ele>
        <time>2020-08-13T17:31:08.000Z</time>
      </trkpt>
      <trkpt lat="43.93409" lon="1.83312">
        <ele>240.60000610352</ele>
        <time>2020-08-13T17:31:09.000Z</time>
      </trkpt>
      <trkpt lat="43.93409" lon="1.83312">
        <ele>240.39999389648</ele>
        <time>2020-08-13T17:31:10.000Z</time>
      </trkpt>
      <trkpt lat="43.93409" lon="1.83312">
        <ele>240.39999389648</ele>
        <time>2020-08-13T17:31:11.000Z</time>
      </trkpt>
      <trkpt lat="43.93409" lon="1.83312">
        <ele>240.39999389648</ele>
        <time>2020-08-13T17:31:12.000Z</time>
      </trkpt>
      <trkpt lat="43.93409" lon="1.83312">
        <ele>240.39999389648</ele>
        <time>2020-08-13T17:31:13.000Z</time>
      </trkpt>
      <trkpt lat="43.93409" lon="1.83312">
        <ele>240.39999389648</ele>
        <time>2020-08-13T17:31:14.000Z</time>
      </trkpt>
      <trkpt lat="43.93409" lon="1.83312">
        <ele>240.60000610352</ele>
        <time>2020-08-13T17:31:15.000Z</time>
      </trkpt>
      <trkpt lat="43.93409" lon="1.83312">
        <ele>240.60000610352</ele>
        <time>2020-08-13T17:31:16.000Z</time>
      </trkpt>
      <trkpt lat="43.93409" lon="1.83312">
        <ele>240.39999389648</ele>
        <time>2020-08-13T17:31:17.000Z</time>
      </trkpt>
      <trkpt lat="43.93409" lon="1.83312">
        <ele>240.39999389648</ele>
        <time>2020-08-13T17:31:18.000Z</time>
      </trkpt>
      <trkpt lat="43.93409" lon="1.83312">
        <ele>240.39999389648</ele>
        <time>2020-08-13T17:31:19.000Z</time>
      </trkpt>
      <trkpt lat="43.93409" lon="1.83312">
        <ele>240.39999389648</ele>
        <time>2020-08-13T17:31:20.000Z</time>
      </trkpt>
      <trkpt lat="43.93409" lon="1.83312">
        <ele>240.39999389648</ele>
        <time>2020-08-13T17:31:21.000Z</time>
      </trkpt>
      <trkpt lat="43.93409" lon="1.83312">
        <ele>240.39999389648</ele>
        <time>2020-08-13T17:31:22.000Z</time>
      </trkpt>
      <trkpt lat="43.93409" lon="1.83312">
        <ele>240.39999389648</ele>
        <time>2020-08-13T17:31:23.000Z</time>
      </trkpt>
      <trkpt lat="43.93409" lon="1.83312">
        <ele>240.39999389648</ele>
        <time>2020-08-13T17:31:24.000Z</time>
      </trkpt>
      <trkpt lat="43.93409" lon="1.83312">
        <ele>240.39999389648</ele>
        <time>2020-08-13T17:31:25.000Z</time>
      </trkpt>
      <trkpt lat="43.93409" lon="1.83312">
        <ele>240.39999389648</ele>
        <time>2020-08-13T17:31:26.000Z</time>
      </trkpt>
      <trkpt lat="43.93409" lon="1.83312">
        <ele>240.39999389648</ele>
        <time>2020-08-13T17:31:27.000Z</time>
      </trkpt>
      <trkpt lat="43.93409" lon="1.83312">
        <ele>240.39999389648</ele>
        <time>2020-08-13T17:31:28.000Z</time>
      </trkpt>
      <trkpt lat="43.93409" lon="1.83312">
        <ele>240.39999389648</ele>
        <time>2020-08-13T17:31:29.000Z</time>
      </trkpt>
      <trkpt lat="43.93409" lon="1.83312">
        <ele>240.39999389648</ele>
        <time>2020-08-13T17:31:30.000Z</time>
      </trkpt>
      <trkpt lat="43.93409" lon="1.83312">
        <ele>240.39999389648</ele>
        <time>2020-08-13T17:31:31.000Z</time>
      </trkpt>
      <trkpt lat="43.93409" lon="1.83312">
        <ele>240.39999389648</ele>
        <time>2020-08-13T17:31:32.000Z</time>
      </trkpt>
      <trkpt lat="43.93409" lon="1.83312">
        <ele>240.39999389648</ele>
        <time>2020-08-13T17:31:33.000Z</time>
      </trkpt>
      <trkpt lat="43.93409" lon="1.83312">
        <ele>240.39999389648</ele>
        <time>2020-08-13T17:31:34.000Z</time>
      </trkpt>
      <trkpt lat="43.93409" lon="1.83312">
        <ele>240.39999389648</ele>
        <time>2020-08-13T17:31:35.000Z</time>
      </trkpt>
      <trkpt lat="43.93409" lon="1.83312">
        <ele>240.39999389648</ele>
        <time>2020-08-13T17:31:36.000Z</time>
      </trkpt>
      <trkpt lat="43.93409" lon="1.83312">
        <ele>240.39999389648</ele>
        <time>2020-08-13T17:31:37.000Z</time>
      </trkpt>
      <trkpt lat="43.93409" lon="1.83312">
        <ele>240.39999389648</ele>
        <time>2020-08-13T17:31:38.000Z</time>
      </trkpt>
      <trkpt lat="43.93409" lon="1.83312">
        <ele>240.39999389648</ele>
        <time>2020-08-13T17:31:39.000Z</time>
      </trkpt>
      <trkpt lat="43.93409" lon="1.83312">
        <ele>240.39999389648</ele>
        <time>2020-08-13T17:31:40.000Z</time>
      </trkpt>
      <trkpt lat="43.93409" lon="1.83312">
        <ele>240.39999389648</ele>
        <time>2020-08-13T17:31:41.000Z</time>
      </trkpt>
      <trkpt lat="43.93409" lon="1.83312">
        <ele>240.39999389648</ele>
        <time>2020-08-13T17:31:42.000Z</time>
      </trkpt>
      <trkpt lat="43.93409" lon="1.83312">
        <ele>240.60000610352</ele>
        <time>2020-08-13T17:31:43.000Z</time>
      </trkpt>
      <trkpt lat="43.93409" lon="1.83312">
        <ele>240.39999389648</ele>
        <time>2020-08-13T17:31:44.000Z</time>
      </trkpt>
      <trkpt lat="43.93409" lon="1.83312">
        <ele>240.39999389648</ele>
        <time>2020-08-13T17:31:45.000Z</time>
      </trkpt>
      <trkpt lat="43.93409" lon="1.83312">
        <ele>240.39999389648</ele>
        <time>2020-08-13T17:31:46.000Z</time>
      </trkpt>
      <trkpt lat="43.93409" lon="1.83312">
        <ele>240.60000610352</ele>
        <time>2020-08-13T17:31:47.000Z</time>
      </trkpt>
      <trkpt lat="43.93409" lon="1.83312">
        <ele>240.39999389648</ele>
        <time>2020-08-13T17:31:48.000Z</time>
      </trkpt>
      <trkpt lat="43.93409" lon="1.83312">
        <ele>240.39999389648</ele>
        <time>2020-08-13T17:31:49.000Z</time>
      </trkpt>
      <trkpt lat="43.93409" lon="1.83312">
        <ele>240.60000610352</ele>
        <time>2020-08-13T17:31:50.000Z</time>
      </trkpt>
      <trkpt lat="43.93409" lon="1.83312">
        <ele>240.39999389648</ele>
        <time>2020-08-13T17:31:51.000Z</time>
      </trkpt>
      <trkpt lat="43.93409" lon="1.83312">
        <ele>240.39999389648</ele>
        <time>2020-08-13T17:31:52.000Z</time>
      </trkpt>
      <trkpt lat="43.93409" lon="1.83312">
        <ele>240.39999389648</ele>
        <time>2020-08-13T17:31:53.000Z</time>
      </trkpt>
      <trkpt lat="43.93409" lon="1.83312">
        <ele>240.39999389648</ele>
        <time>2020-08-13T17:31:54.000Z</time>
      </trkpt>
      <trkpt lat="43.93409" lon="1.83312">
        <ele>240.39999389648</ele>
        <time>2020-08-13T17:31:55.000Z</time>
      </trkpt>
      <trkpt lat="43.93409" lon="1.83312">
        <ele>240.39999389648</ele>
        <time>2020-08-13T17:31:56.000Z</time>
      </trkpt>
      <trkpt lat="43.93409" lon="1.83312">
        <ele>240.60000610352</ele>
        <time>2020-08-13T17:31:57.000Z</time>
      </trkpt>
      <trkpt lat="43.93409" lon="1.83312">
        <ele>240.60000610352</ele>
        <time>2020-08-13T17:31:58.000Z</time>
      </trkpt>
      <trkpt lat="43.93409" lon="1.83312">
        <ele>240.60000610352</ele>
        <time>2020-08-13T17:31:59.000Z</time>
      </trkpt>
      <trkpt lat="43.93409" lon="1.83312">
        <ele>240.60000610352</ele>
        <time>2020-08-13T17:32:00.000Z</time>
      </trkpt>
      <trkpt lat="43.93409" lon="1.83312">
        <ele>240.60000610352</ele>
        <time>2020-08-13T17:32:01.000Z</time>
      </trkpt>
      <trkpt lat="43.93409" lon="1.83312">
        <ele>240.39999389648</ele>
        <time>2020-08-13T17:32:02.000Z</time>
      </trkpt>
      <trkpt lat="43.93409" lon="1.83312">
        <ele>240.39999389648</ele>
        <time>2020-08-13T17:32:03.000Z</time>
      </trkpt>
      <trkpt lat="43.93409" lon="1.83312">
        <ele>240.39999389648</ele>
        <time>2020-08-13T17:32:04.000Z</time>
      </trkpt>
      <trkpt lat="43.93409" lon="1.83312">
        <ele>240.39999389648</ele>
        <time>2020-08-13T17:32:05.000Z</time>
      </trkpt>
      <trkpt lat="43.93409" lon="1.83312">
        <ele>240.60000610352</ele>
        <time>2020-08-13T17:32:06.000Z</time>
      </trkpt>
      <trkpt lat="43.93409" lon="1.83312">
        <ele>240.60000610352</ele>
        <time>2020-08-13T17:32:07.000Z</time>
      </trkpt>
      <trkpt lat="43.93409" lon="1.83312">
        <ele>240.60000610352</ele>
        <time>2020-08-13T17:32:08.000Z</time>
      </trkpt>
      <trkpt lat="43.93409" lon="1.83312">
        <ele>240.60000610352</ele>
        <time>2020-08-13T17:32:09.000Z</time>
      </trkpt>
      <trkpt lat="43.93409" lon="1.83312">
        <ele>240.60000610352</ele>
        <time>2020-08-13T17:32:10.000Z</time>
      </trkpt>
      <trkpt lat="43.93409" lon="1.83312">
        <ele>240.60000610352</ele>
        <time>2020-08-13T17:32:11.000Z</time>
      </trkpt>
      <trkpt lat="43.93409" lon="1.83312">
        <ele>240.60000610352</ele>
        <time>2020-08-13T17:32:12.000Z</time>
      </trkpt>
      <trkpt lat="43.93409" lon="1.83312">
        <ele>240.39999389648</ele>
        <time>2020-08-13T17:32:13.000Z</time>
      </trkpt>
      <trkpt lat="43.93409" lon="1.83312">
        <ele>240.39999389648</ele>
        <time>2020-08-13T17:32:14.000Z</time>
      </trkpt>
      <trkpt lat="43.93409" lon="1.83312">
        <ele>240.39999389648</ele>
        <time>2020-08-13T17:32:15.000Z</time>
      </trkpt>
      <trkpt lat="43.93409" lon="1.83312">
        <ele>240.39999389648</ele>
        <time>2020-08-13T17:32:16.000Z</time>
      </trkpt>
      <trkpt lat="43.93409" lon="1.83312">
        <ele>240.39999389648</ele>
        <time>2020-08-13T17:32:17.000Z</time>
      </trkpt>
      <trkpt lat="43.93409" lon="1.83312">
        <ele>240.39999389648</ele>
        <time>2020-08-13T17:32:18.000Z</time>
      </trkpt>
      <trkpt lat="43.93409" lon="1.83312">
        <ele>240.39999389648</ele>
        <time>2020-08-13T17:32:19.000Z</time>
      </trkpt>
      <trkpt lat="43.93409" lon="1.83312">
        <ele>240.39999389648</ele>
        <time>2020-08-13T17:32:20.000Z</time>
      </trkpt>
      <trkpt lat="43.93409" lon="1.83312">
        <ele>240.39999389648</ele>
        <time>2020-08-13T17:32:21.000Z</time>
      </trkpt>
      <trkpt lat="43.93409" lon="1.83312">
        <ele>240.39999389648</ele>
        <time>2020-08-13T17:32:22.000Z</time>
      </trkpt>
      <trkpt lat="43.93409" lon="1.83312">
        <ele>240.39999389648</ele>
        <time>2020-08-13T17:32:23.000Z</time>
      </trkpt>
      <trkpt lat="43.93409" lon="1.83312">
        <ele>240.39999389648</ele>
        <time>2020-08-13T17:32:24.000Z</time>
      </trkpt>
      <trkpt lat="43.93409" lon="1.83312">
        <ele>240.39999389648</ele>
        <time>2020-08-13T17:32:25.000Z</time>
      </trkpt>
      <trkpt lat="43.93409" lon="1.83312">
        <ele>240.39999389648</ele>
        <time>2020-08-13T17:32:26.000Z</time>
      </trkpt>
      <trkpt lat="43.93409" lon="1.83312">
        <ele>240.39999389648</ele>
        <time>2020-08-13T17:32:27.000Z</time>
      </trkpt>
      <trkpt lat="43.93409" lon="1.83312">
        <ele>240.39999389648</ele>
        <time>2020-08-13T17:32:28.000Z</time>
      </trkpt>
      <trkpt lat="43.93409" lon="1.83312">
        <ele>240.39999389648</ele>
        <time>2020-08-13T17:32:29.000Z</time>
      </trkpt>
      <trkpt lat="43.93409" lon="1.83312">
        <ele>240.39999389648</ele>
        <time>2020-08-13T17:32:30.000Z</time>
      </trkpt>
      <trkpt lat="43.93409" lon="1.83312">
        <ele>240.39999389648</ele>
        <time>2020-08-13T17:32:31.000Z</time>
      </trkpt>
      <trkpt lat="43.93409" lon="1.83312">
        <ele>240.39999389648</ele>
        <time>2020-08-13T17:32:32.000Z</time>
      </trkpt>
      <trkpt lat="43.93409" lon="1.83312">
        <ele>240.39999389648</ele>
        <time>2020-08-13T17:32:33.000Z</time>
      </trkpt>
      <trkpt lat="43.93409" lon="1.83312">
        <ele>240.39999389648</ele>
        <time>2020-08-13T17:32:34.000Z</time>
      </trkpt>
      <trkpt lat="43.93409" lon="1.83312">
        <ele>240.39999389648</ele>
        <time>2020-08-13T17:32:35.000Z</time>
      </trkpt>
      <trkpt lat="43.93409" lon="1.83312">
        <ele>240.60000610352</ele>
        <time>2020-08-13T17:32:36.000Z</time>
      </trkpt>
      <trkpt lat="43.93409" lon="1.83312">
        <ele>240.39999389648</ele>
        <time>2020-08-13T17:32:37.000Z</time>
      </trkpt>
      <trkpt lat="43.93408" lon="1.83311">
        <ele>240.39999389648</ele>
        <time>2020-08-13T17:32:38.000Z</time>
      </trkpt>
      <trkpt lat="43.93406" lon="1.83311">
        <ele>240.60000610352</ele>
        <time>2020-08-13T17:32:39.000Z</time>
      </trkpt>
      <trkpt lat="43.93405" lon="1.83311">
        <ele>240.80000305176</ele>
        <time>2020-08-13T17:32:40.000Z</time>
      </trkpt>
      <trkpt lat="43.93403" lon="1.83311">
        <ele>240.80000305176</ele>
        <time>2020-08-13T17:32:41.000Z</time>
      </trkpt>
      <trkpt lat="43.93401" lon="1.83311">
        <ele>241</ele>
        <time>2020-08-13T17:32:42.000Z</time>
      </trkpt>
      <trkpt lat="43.93399" lon="1.83311">
        <ele>241.19999694824</ele>
        <time>2020-08-13T17:32:43.000Z</time>
      </trkpt>
      <trkpt lat="43.93397" lon="1.8331">
        <ele>241.39999389648</ele>
        <time>2020-08-13T17:32:44.000Z</time>
      </trkpt>
      <trkpt lat="43.93395" lon="1.83309">
        <ele>241.60000610352</ele>
        <time>2020-08-13T17:32:45.000Z</time>
      </trkpt>
      <trkpt lat="43.93392" lon="1.83307">
        <ele>242</ele>
        <time>2020-08-13T17:32:46.000Z</time>
      </trkpt>
      <trkpt lat="43.9339" lon="1.83305">
        <ele>242.39999389648</ele>
        <time>2020-08-13T17:32:47.000Z</time>
      </trkpt>
      <trkpt lat="43.93387" lon="1.83303">
        <ele>242.80000305176</ele>
        <time>2020-08-13T17:32:48.000Z</time>
      </trkpt>
      <trkpt lat="43.93385" lon="1.83302">
        <ele>243.19999694824</ele>
        <time>2020-08-13T17:32:49.000Z</time>
      </trkpt>
      <trkpt lat="43.93383" lon="1.833">
        <ele>244</ele>
        <time>2020-08-13T17:32:50.000Z</time>
      </trkpt>
      <trkpt lat="43.93381" lon="1.833">
        <ele>244.60000610352</ele>
        <time>2020-08-13T17:32:51.000Z</time>
      </trkpt>
      <trkpt lat="43.9338" lon="1.83299">
        <ele>245.19999694824</ele>
        <time>2020-08-13T17:32:52.000Z</time>
      </trkpt>
      <trkpt lat="43.93378" lon="1.83299">
        <ele>245.80000305176</ele>
        <time>2020-08-13T17:32:53.000Z</time>
      </trkpt>
      <trkpt lat="43.93377" lon="1.83298">
        <ele>246.39999389648</ele>
        <time>2020-08-13T17:32:54.000Z</time>
      </trkpt>
      <trkpt lat="43.93375" lon="1.83297">
        <ele>246.80000305176</ele>
        <time>2020-08-13T17:32:55.000Z</time>
      </trkpt>
      <trkpt lat="43.93373" lon="1.83295">
        <ele>247.39999389648</ele>
        <time>2020-08-13T17:32:56.000Z</time>
      </trkpt>
      <trkpt lat="43.93372" lon="1.83294">
        <ele>248</ele>
        <time>2020-08-13T17:32:57.000Z</time>
      </trkpt>
      <trkpt lat="43.93371" lon="1.83293">
        <ele>248.39999389648</ele>
        <time>2020-08-13T17:32:58.000Z</time>
      </trkpt>
      <trkpt lat="43.93371" lon="1.83293">
        <ele>249</ele>
        <time>2020-08-13T17:32:59.000Z</time>
      </trkpt>
      <trkpt lat="43.93368" lon="1.83292">
        <ele>249.80000305176</ele>
        <time>2020-08-13T17:33:00.000Z</time>
      </trkpt>
      <trkpt lat="43.93366" lon="1.83291">
        <ele>250</ele>
        <time>2020-08-13T17:33:01.000Z</time>
      </trkpt>
      <trkpt lat="43.93365" lon="1.83289">
        <ele>250.19999694824</ele>
        <time>2020-08-13T17:33:02.000Z</time>
      </trkpt>
      <trkpt lat="43.93364" lon="1.83287">
        <ele>250.19999694824</ele>
        <time>2020-08-13T17:33:03.000Z</time>
      </trkpt>
      <trkpt lat="43.93363" lon="1.83285">
        <ele>250.19999694824</ele>
        <time>2020-08-13T17:33:04.000Z</time>
      </trkpt>
      <trkpt lat="43.93362" lon="1.83283">
        <ele>250.39999389648</ele>
        <time>2020-08-13T17:33:05.000Z</time>
      </trkpt>
      <trkpt lat="43.9336" lon="1.83281">
        <ele>250.60000610352</ele>
        <time>2020-08-13T17:33:06.000Z</time>
      </trkpt>
      <trkpt lat="43.93358" lon="1.8328">
        <ele>250.80000305176</ele>
        <time>2020-08-13T17:33:07.000Z</time>
      </trkpt>
      <trkpt lat="43.93356" lon="1.83279">
        <ele>250.80000305176</ele>
        <time>2020-08-13T17:33:08.000Z</time>
      </trkpt>
      <trkpt lat="43.93354" lon="1.83278">
        <ele>251</ele>
        <time>2020-08-13T17:33:09.000Z</time>
      </trkpt>
      <trkpt lat="43.93352" lon="1.83279">
        <ele>251</ele>
        <time>2020-08-13T17:33:10.000Z</time>
      </trkpt>
      <trkpt lat="43.9335" lon="1.8328">
        <ele>251.19999694824</ele>
        <time>2020-08-13T17:33:11.000Z</time>
      </trkpt>
      <trkpt lat="43.93349" lon="1.83281">
        <ele>251.39999389648</ele>
        <time>2020-08-13T17:33:12.000Z</time>
      </trkpt>
      <trkpt lat="43.93348" lon="1.83281">
        <ele>251.60000610352</ele>
        <time>2020-08-13T17:33:13.000Z</time>
      </trkpt>
      <trkpt lat="43.93348" lon="1.83281">
        <ele>251.80000305176</ele>
        <time>2020-08-13T17:33:14.000Z</time>
      </trkpt>
      <trkpt lat="43.93345" lon="1.83283">
        <ele>252</ele>
        <time>2020-08-13T17:33:15.000Z</time>
      </trkpt>
      <trkpt lat="43.93344" lon="1.83284">
        <ele>252</ele>
        <time>2020-08-13T17:33:16.000Z</time>
      </trkpt>
      <trkpt lat="43.93343" lon="1.83285">
        <ele>252.19999694824</ele>
        <time>2020-08-13T17:33:17.000Z</time>
      </trkpt>
      <trkpt lat="43.93342" lon="1.83286">
        <ele>252.60000610352</ele>
        <time>2020-08-13T17:33:18.000Z</time>
      </trkpt>
      <trkpt lat="43.9334" lon="1.83288">
        <ele>252.80000305176</ele>
        <time>2020-08-13T17:33:19.000Z</time>
      </trkpt>
      <trkpt lat="43.93338" lon="1.8329">
        <ele>252.80000305176</ele>
        <time>2020-08-13T17:33:20.000Z</time>
      </trkpt>
      <trkpt lat="43.93336" lon="1.83291">
        <ele>253</ele>
        <time>2020-08-13T17:33:21.000Z</time>
      </trkpt>
      <trkpt lat="43.93335" lon="1.83293">
        <ele>253.19999694824</ele>
        <time>2020-08-13T17:33:22.000Z</time>
      </trkpt>
      <trkpt lat="43.93333" lon="1.83294">
        <ele>253.19999694824</ele>
        <time>2020-08-13T17:33:23.000Z</time>
      </trkpt>
      <trkpt lat="43.93334" lon="1.83294">
        <ele>253.60000610352</ele>
        <time>2020-08-13T17:33:24.000Z</time>
      </trkpt>
      <trkpt lat="43.93331" lon="1.83296">
        <ele>254</ele>
        <time>2020-08-13T17:33:25.000Z</time>
      </trkpt>
      <trkpt lat="43.9333" lon="1.83297">
        <ele>254</ele>
        <time>2020-08-13T17:33:26.000Z</time>
      </trkpt>
      <trkpt lat="43.9333" lon="1.83297">
        <ele>254.19999694824</ele>
        <time>2020-08-13T17:33:27.000Z</time>
      </trkpt>
      <trkpt lat="43.93328" lon="1.83299">
        <ele>254.39999389648</ele>
        <time>2020-08-13T17:33:28.000Z</time>
      </trkpt>
      <trkpt lat="43.93327" lon="1.83301">
        <ele>254.60000610352</ele>
        <time>2020-08-13T17:33:29.000Z</time>
      </trkpt>
      <trkpt lat="43.93326" lon="1.83302">
        <ele>254.80000305176</ele>
        <time>2020-08-13T17:33:30.000Z</time>
      </trkpt>
      <trkpt lat="43.93325" lon="1.83303">
        <ele>255</ele>
        <time>2020-08-13T17:33:31.000Z</time>
      </trkpt>
      <trkpt lat="43.93325" lon="1.83303">
        <ele>255</ele>
        <time>2020-08-13T17:33:32.000Z</time>
      </trkpt>
      <trkpt lat="43.93323" lon="1.83306">
        <ele>255.19999694824</ele>
        <time>2020-08-13T17:33:33.000Z</time>
      </trkpt>
      <trkpt lat="43.93321" lon="1.83307">
        <ele>255.39999389648</ele>
        <time>2020-08-13T17:33:34.000Z</time>
      </trkpt>
      <trkpt lat="43.9332" lon="1.83309">
        <ele>255.60000610352</ele>
        <time>2020-08-13T17:33:35.000Z</time>
      </trkpt>
      <trkpt lat="43.93319" lon="1.8331">
        <ele>255.80000305176</ele>
        <time>2020-08-13T17:33:36.000Z</time>
      </trkpt>
      <trkpt lat="43.93318" lon="1.83311">
        <ele>256</ele>
        <time>2020-08-13T17:33:37.000Z</time>
      </trkpt>
      <trkpt lat="43.93317" lon="1.83312">
        <ele>256.20001220703</ele>
        <time>2020-08-13T17:33:38.000Z</time>
      </trkpt>
      <trkpt lat="43.93316" lon="1.83314">
        <ele>256.39999389648</ele>
        <time>2020-08-13T17:33:39.000Z</time>
      </trkpt>
      <trkpt lat="43.93314" lon="1.83315">
        <ele>256.60000610352</ele>
        <time>2020-08-13T17:33:40.000Z</time>
      </trkpt>
      <trkpt lat="43.93313" lon="1.83316">
        <ele>256.79998779297</ele>
        <time>2020-08-13T17:33:41.000Z</time>
      </trkpt>
      <trkpt lat="43.93314" lon="1.83316">
        <ele>257.20001220703</ele>
        <time>2020-08-13T17:33:42.000Z</time>
      </trkpt>
      <trkpt lat="43.9331" lon="1.83319">
        <ele>257.39999389648</ele>
        <time>2020-08-13T17:33:43.000Z</time>
      </trkpt>
      <trkpt lat="43.93308" lon="1.8332">
        <ele>257.60000610352</ele>
        <time>2020-08-13T17:33:44.000Z</time>
      </trkpt>
      <trkpt lat="43.93307" lon="1.83321">
        <ele>257.79998779297</ele>
        <time>2020-08-13T17:33:45.000Z</time>
      </trkpt>
      <trkpt lat="43.93305" lon="1.83322">
        <ele>258</ele>
        <time>2020-08-13T17:33:46.000Z</time>
      </trkpt>
      <trkpt lat="43.93303" lon="1.83322">
        <ele>258.20001220703</ele>
        <time>2020-08-13T17:33:47.000Z</time>
      </trkpt>
      <trkpt lat="43.93302" lon="1.83323">
        <ele>258.60000610352</ele>
        <time>2020-08-13T17:33:48.000Z</time>
      </trkpt>
      <trkpt lat="43.93301" lon="1.83324">
        <ele>258.79998779297</ele>
        <time>2020-08-13T17:33:49.000Z</time>
      </trkpt>
      <trkpt lat="43.93299" lon="1.83325">
        <ele>259</ele>
        <time>2020-08-13T17:33:50.000Z</time>
      </trkpt>
      <trkpt lat="43.93298" lon="1.83326">
        <ele>259.20001220703</ele>
        <time>2020-08-13T17:33:51.000Z</time>
      </trkpt>
      <trkpt lat="43.93296" lon="1.83328">
        <ele>259.20001220703</ele>
        <time>2020-08-13T17:33:52.000Z</time>
      </trkpt>
      <trkpt lat="43.93295" lon="1.8333">
        <ele>259.39999389648</ele>
        <time>2020-08-13T17:33:53.000Z</time>
      </trkpt>
      <trkpt lat="43.93295" lon="1.83329">
        <ele>259.39999389648</ele>
        <time>2020-08-13T17:33:54.000Z</time>
      </trkpt>
      <trkpt lat="43.93294" lon="1.83332">
        <ele>259.79998779297</ele>
        <time>2020-08-13T17:33:55.000Z</time>
      </trkpt>
      <trkpt lat="43.93294" lon="1.83333">
        <ele>260</ele>
        <time>2020-08-13T17:33:56.000Z</time>
      </trkpt>
      <trkpt lat="43.93293" lon="1.83335">
        <ele>260</ele>
        <time>2020-08-13T17:33:57.000Z</time>
      </trkpt>
      <trkpt lat="43.93292" lon="1.83336">
        <ele>260</ele>
        <time>2020-08-13T17:33:58.000Z</time>
      </trkpt>
      <trkpt lat="43.93291" lon="1.83338">
        <ele>260.20001220703</ele>
        <time>2020-08-13T17:33:59.000Z</time>
      </trkpt>
      <trkpt lat="43.9329" lon="1.83339">
        <ele>260.20001220703</ele>
        <time>2020-08-13T17:34:00.000Z</time>
      </trkpt>
      <trkpt lat="43.93289" lon="1.83341">
        <ele>260.39999389648</ele>
        <time>2020-08-13T17:34:01.000Z</time>
      </trkpt>
      <trkpt lat="43.93288" lon="1.83342">
        <ele>260.39999389648</ele>
        <time>2020-08-13T17:34:02.000Z</time>
      </trkpt>
      <trkpt lat="43.93287" lon="1.83344">
        <ele>260.39999389648</ele>
        <time>2020-08-13T17:34:03.000Z</time>
      </trkpt>
      <trkpt lat="43.93285" lon="1.83346">
        <ele>260.60000610352</ele>
        <time>2020-08-13T17:34:04.000Z</time>
      </trkpt>
      <trkpt lat="43.93284" lon="1.83347">
        <ele>260.60000610352</ele>
        <time>2020-08-13T17:34:05.000Z</time>
      </trkpt>
      <trkpt lat="43.93283" lon="1.83348">
        <ele>260.79998779297</ele>
        <time>2020-08-13T17:34:06.000Z</time>
      </trkpt>
      <trkpt lat="43.93281" lon="1.83349">
        <ele>261</ele>
        <time>2020-08-13T17:34:07.000Z</time>
      </trkpt>
      <trkpt lat="43.9328" lon="1.8335">
        <ele>261.20001220703</ele>
        <time>2020-08-13T17:34:08.000Z</time>
      </trkpt>
      <trkpt lat="43.93278" lon="1.83352">
        <ele>261.39999389648</ele>
        <time>2020-08-13T17:34:09.000Z</time>
      </trkpt>
      <trkpt lat="43.93277" lon="1.83353">
        <ele>261.39999389648</ele>
        <time>2020-08-13T17:34:10.000Z</time>
      </trkpt>
      <trkpt lat="43.93276" lon="1.83355">
        <ele>261.60000610352</ele>
        <time>2020-08-13T17:34:11.000Z</time>
      </trkpt>
      <trkpt lat="43.93276" lon="1.83355">
        <ele>261.79998779297</ele>
        <time>2020-08-13T17:34:12.000Z</time>
      </trkpt>
      <trkpt lat="43.93274" lon="1.83358">
        <ele>262</ele>
        <time>2020-08-13T17:34:13.000Z</time>
      </trkpt>
      <trkpt lat="43.93273" lon="1.8336">
        <ele>262.20001220703</ele>
        <time>2020-08-13T17:34:14.000Z</time>
      </trkpt>
      <trkpt lat="43.93273" lon="1.83362">
        <ele>262.39999389648</ele>
        <time>2020-08-13T17:34:15.000Z</time>
      </trkpt>
      <trkpt lat="43.93272" lon="1.83363">
        <ele>262.39999389648</ele>
        <time>2020-08-13T17:34:16.000Z</time>
      </trkpt>
      <trkpt lat="43.93272" lon="1.83363">
        <ele>262.60000610352</ele>
        <time>2020-08-13T17:34:17.000Z</time>
      </trkpt>
      <trkpt lat="43.9327" lon="1.83366">
        <ele>262.79998779297</ele>
        <time>2020-08-13T17:34:18.000Z</time>
      </trkpt>
      <trkpt lat="43.93269" lon="1.83367">
        <ele>263</ele>
        <time>2020-08-13T17:34:19.000Z</time>
      </trkpt>
      <trkpt lat="43.93269" lon="1.83369">
        <ele>263.20001220703</ele>
        <time>2020-08-13T17:34:20.000Z</time>
      </trkpt>
      <trkpt lat="43.93268" lon="1.83371">
        <ele>263.60000610352</ele>
        <time>2020-08-13T17:34:21.000Z</time>
      </trkpt>
      <trkpt lat="43.93268" lon="1.83373">
        <ele>264</ele>
        <time>2020-08-13T17:34:22.000Z</time>
      </trkpt>
      <trkpt lat="43.93268" lon="1.83375">
        <ele>264.39999389648</ele>
        <time>2020-08-13T17:34:23.000Z</time>
      </trkpt>
      <trkpt lat="43.93268" lon="1.83375">
        <ele>265.20001220703</ele>
        <time>2020-08-13T17:34:24.000Z</time>
      </trkpt>
      <trkpt lat="43.93267" lon="1.8338">
        <ele>265.60000610352</ele>
        <time>2020-08-13T17:34:25.000Z</time>
      </trkpt>
      <trkpt lat="43.93266" lon="1.83382">
        <ele>265.79998779297</ele>
        <time>2020-08-13T17:34:26.000Z</time>
      </trkpt>
      <trkpt lat="43.93266" lon="1.83385">
        <ele>266</ele>
        <time>2020-08-13T17:34:27.000Z</time>
      </trkpt>
      <trkpt lat="43.93266" lon="1.83388">
        <ele>266</ele>
        <time>2020-08-13T17:34:28.000Z</time>
      </trkpt>
      <trkpt lat="43.93266" lon="1.8339">
        <ele>266</ele>
        <time>2020-08-13T17:34:29.000Z</time>
      </trkpt>
      <trkpt lat="43.93266" lon="1.8339">
        <ele>266</ele>
        <time>2020-08-13T17:34:30.000Z</time>
      </trkpt>
      <trkpt lat="43.93264" lon="1.83395">
        <ele>266</ele>
        <time>2020-08-13T17:34:31.000Z</time>
      </trkpt>
      <trkpt lat="43.93263" lon="1.83397">
        <ele>266</ele>
        <time>2020-08-13T17:34:32.000Z</time>
      </trkpt>
      <trkpt lat="43.93262" lon="1.83398">
        <ele>266</ele>
        <time>2020-08-13T17:34:33.000Z</time>
      </trkpt>
      <trkpt lat="43.9326" lon="1.834">
        <ele>265.79998779297</ele>
        <time>2020-08-13T17:34:34.000Z</time>
      </trkpt>
      <trkpt lat="43.93259" lon="1.83402">
        <ele>265.79998779297</ele>
        <time>2020-08-13T17:34:35.000Z</time>
      </trkpt>
      <trkpt lat="43.93258" lon="1.83404">
        <ele>266</ele>
        <time>2020-08-13T17:34:36.000Z</time>
      </trkpt>
      <trkpt lat="43.93256" lon="1.83406">
        <ele>265.79998779297</ele>
        <time>2020-08-13T17:34:37.000Z</time>
      </trkpt>
      <trkpt lat="43.93254" lon="1.83408">
        <ele>265.60000610352</ele>
        <time>2020-08-13T17:34:38.000Z</time>
      </trkpt>
      <trkpt lat="43.93252" lon="1.83411">
        <ele>265.60000610352</ele>
        <time>2020-08-13T17:34:39.000Z</time>
      </trkpt>
      <trkpt lat="43.9325" lon="1.83414">
        <ele>265.60000610352</ele>
        <time>2020-08-13T17:34:40.000Z</time>
      </trkpt>
      <trkpt lat="43.93247" lon="1.83418">
        <ele>265.60000610352</ele>
        <time>2020-08-13T17:34:41.000Z</time>
      </trkpt>
      <trkpt lat="43.93245" lon="1.8342">
        <ele>265.60000610352</ele>
        <time>2020-08-13T17:34:42.000Z</time>
      </trkpt>
      <trkpt lat="43.93243" lon="1.83424">
        <ele>265.60000610352</ele>
        <time>2020-08-13T17:34:43.000Z</time>
      </trkpt>
      <trkpt lat="43.9324" lon="1.83427">
        <ele>265.60000610352</ele>
        <time>2020-08-13T17:34:44.000Z</time>
      </trkpt>
      <trkpt lat="43.93237" lon="1.83429">
        <ele>265.60000610352</ele>
        <time>2020-08-13T17:34:45.000Z</time>
      </trkpt>
      <trkpt lat="43.93235" lon="1.83432">
        <ele>265.60000610352</ele>
        <time>2020-08-13T17:34:46.000Z</time>
      </trkpt>
      <trkpt lat="43.93233" lon="1.83435">
        <ele>265.60000610352</ele>
        <time>2020-08-13T17:34:47.000Z</time>
      </trkpt>
      <trkpt lat="43.93231" lon="1.83437">
        <ele>265.79998779297</ele>
        <time>2020-08-13T17:34:48.000Z</time>
      </trkpt>
      <trkpt lat="43.93228" lon="1.83439">
        <ele>266</ele>
        <time>2020-08-13T17:34:49.000Z</time>
      </trkpt>
      <trkpt lat="43.93226" lon="1.83441">
        <ele>266</ele>
        <time>2020-08-13T17:34:50.000Z</time>
      </trkpt>
      <trkpt lat="43.93224" lon="1.83443">
        <ele>266</ele>
        <time>2020-08-13T17:34:51.000Z</time>
      </trkpt>
      <trkpt lat="43.93222" lon="1.83445">
        <ele>266</ele>
        <time>2020-08-13T17:34:52.000Z</time>
      </trkpt>
      <trkpt lat="43.9322" lon="1.83447">
        <ele>266.20001220703</ele>
        <time>2020-08-13T17:34:53.000Z</time>
      </trkpt>
      <trkpt lat="43.93217" lon="1.83449">
        <ele>266.20001220703</ele>
        <time>2020-08-13T17:34:54.000Z</time>
      </trkpt>
      <trkpt lat="43.93215" lon="1.83451">
        <ele>266.39999389648</ele>
        <time>2020-08-13T17:34:55.000Z</time>
      </trkpt>
      <trkpt lat="43.93213" lon="1.83453">
        <ele>266.39999389648</ele>
        <time>2020-08-13T17:34:56.000Z</time>
      </trkpt>
      <trkpt lat="43.93211" lon="1.83455">
        <ele>266.39999389648</ele>
        <time>2020-08-13T17:34:57.000Z</time>
      </trkpt>
      <trkpt lat="43.93209" lon="1.83457">
        <ele>266.39999389648</ele>
        <time>2020-08-13T17:34:58.000Z</time>
      </trkpt>
      <trkpt lat="43.93207" lon="1.83459">
        <ele>266.39999389648</ele>
        <time>2020-08-13T17:34:59.000Z</time>
      </trkpt>
      <trkpt lat="43.93205" lon="1.83461">
        <ele>266.60000610352</ele>
        <time>2020-08-13T17:35:00.000Z</time>
      </trkpt>
      <trkpt lat="43.93202" lon="1.83462">
        <ele>266.79998779297</ele>
        <time>2020-08-13T17:35:01.000Z</time>
      </trkpt>
      <trkpt lat="43.932" lon="1.83463">
        <ele>266.60000610352</ele>
        <time>2020-08-13T17:35:02.000Z</time>
      </trkpt>
      <trkpt lat="43.93198" lon="1.83463">
        <ele>266.60000610352</ele>
        <time>2020-08-13T17:35:03.000Z</time>
      </trkpt>
      <trkpt lat="43.93196" lon="1.83463">
        <ele>266.39999389648</ele>
        <time>2020-08-13T17:35:04.000Z</time>
      </trkpt>
      <trkpt lat="43.93194" lon="1.83464">
        <ele>266.39999389648</ele>
        <time>2020-08-13T17:35:05.000Z</time>
      </trkpt>
      <trkpt lat="43.93191" lon="1.83466">
        <ele>266.20001220703</ele>
        <time>2020-08-13T17:35:06.000Z</time>
      </trkpt>
      <trkpt lat="43.93188" lon="1.83467">
        <ele>266.20001220703</ele>
        <time>2020-08-13T17:35:07.000Z</time>
      </trkpt>
      <trkpt lat="43.93185" lon="1.83468">
        <ele>266.39999389648</ele>
        <time>2020-08-13T17:35:08.000Z</time>
      </trkpt>
      <trkpt lat="43.93182" lon="1.8347">
        <ele>266.39999389648</ele>
        <time>2020-08-13T17:35:09.000Z</time>
      </trkpt>
      <trkpt lat="43.93178" lon="1.83473">
        <ele>266.39999389648</ele>
        <time>2020-08-13T17:35:10.000Z</time>
      </trkpt>
      <trkpt lat="43.93175" lon="1.83474">
        <ele>266.20001220703</ele>
        <time>2020-08-13T17:35:11.000Z</time>
      </trkpt>
      <trkpt lat="43.93171" lon="1.83476">
        <ele>266.39999389648</ele>
        <time>2020-08-13T17:35:12.000Z</time>
      </trkpt>
      <trkpt lat="43.93167" lon="1.83478">
        <ele>266.60000610352</ele>
        <time>2020-08-13T17:35:13.000Z</time>
      </trkpt>
      <trkpt lat="43.93162" lon="1.8348">
        <ele>266.79998779297</ele>
        <time>2020-08-13T17:35:14.000Z</time>
      </trkpt>
      <trkpt lat="43.93158" lon="1.83482">
        <ele>266.79998779297</ele>
        <time>2020-08-13T17:35:15.000Z</time>
      </trkpt>
      <trkpt lat="43.93154" lon="1.83484">
        <ele>266.79998779297</ele>
        <time>2020-08-13T17:35:16.000Z</time>
      </trkpt>
      <trkpt lat="43.93149" lon="1.83485">
        <ele>267</ele>
        <time>2020-08-13T17:35:17.000Z</time>
      </trkpt>
      <trkpt lat="43.93145" lon="1.83486">
        <ele>267</ele>
        <time>2020-08-13T17:35:18.000Z</time>
      </trkpt>
      <trkpt lat="43.93142" lon="1.83487">
        <ele>267.20001220703</ele>
        <time>2020-08-13T17:35:19.000Z</time>
      </trkpt>
      <trkpt lat="43.93138" lon="1.83488">
        <ele>267.20001220703</ele>
        <time>2020-08-13T17:35:20.000Z</time>
      </trkpt>
      <trkpt lat="43.93135" lon="1.83489">
        <ele>267.20001220703</ele>
        <time>2020-08-13T17:35:21.000Z</time>
      </trkpt>
      <trkpt lat="43.93131" lon="1.83489">
        <ele>267.39999389648</ele>
        <time>2020-08-13T17:35:22.000Z</time>
      </trkpt>
      <trkpt lat="43.93128" lon="1.8349">
        <ele>267.39999389648</ele>
        <time>2020-08-13T17:35:23.000Z</time>
      </trkpt>
      <trkpt lat="43.93125" lon="1.83491">
        <ele>267.79998779297</ele>
        <time>2020-08-13T17:35:24.000Z</time>
      </trkpt>
      <trkpt lat="43.93122" lon="1.83493">
        <ele>267.79998779297</ele>
        <time>2020-08-13T17:35:25.000Z</time>
      </trkpt>
      <trkpt lat="43.9312" lon="1.83494">
        <ele>267.79998779297</ele>
        <time>2020-08-13T17:35:26.000Z</time>
      </trkpt>
      <trkpt lat="43.93117" lon="1.83496">
        <ele>267.60000610352</ele>
        <time>2020-08-13T17:35:27.000Z</time>
      </trkpt>
      <trkpt lat="43.93115" lon="1.83495">
        <ele>267.39999389648</ele>
        <time>2020-08-13T17:35:28.000Z</time>
      </trkpt>
      <trkpt lat="43.93113" lon="1.83495">
        <ele>267.20001220703</ele>
        <time>2020-08-13T17:35:29.000Z</time>
      </trkpt>
      <trkpt lat="43.93109" lon="1.83495">
        <ele>267.20001220703</ele>
        <time>2020-08-13T17:35:30.000Z</time>
      </trkpt>
      <trkpt lat="43.93106" lon="1.83494">
        <ele>267</ele>
        <time>2020-08-13T17:35:31.000Z</time>
      </trkpt>
      <trkpt lat="43.93104" lon="1.83494">
        <ele>267</ele>
        <time>2020-08-13T17:35:32.000Z</time>
      </trkpt>
      <trkpt lat="43.93101" lon="1.83494">
        <ele>267.20001220703</ele>
        <time>2020-08-13T17:35:33.000Z</time>
      </trkpt>
      <trkpt lat="43.93098" lon="1.83495">
        <ele>267.60000610352</ele>
        <time>2020-08-13T17:35:34.000Z</time>
      </trkpt>
      <trkpt lat="43.93095" lon="1.83495">
        <ele>267.79998779297</ele>
        <time>2020-08-13T17:35:35.000Z</time>
      </trkpt>
      <trkpt lat="43.93092" lon="1.83496">
        <ele>268</ele>
        <time>2020-08-13T17:35:36.000Z</time>
      </trkpt>
      <trkpt lat="43.93089" lon="1.83497">
        <ele>268.39999389648</ele>
        <time>2020-08-13T17:35:37.000Z</time>
      </trkpt>
      <trkpt lat="43.93086" lon="1.83499">
        <ele>268.60000610352</ele>
        <time>2020-08-13T17:35:38.000Z</time>
      </trkpt>
      <trkpt lat="43.93083" lon="1.835">
        <ele>268.79998779297</ele>
        <time>2020-08-13T17:35:39.000Z</time>
      </trkpt>
      <trkpt lat="43.9308" lon="1.83502">
        <ele>269</ele>
        <time>2020-08-13T17:35:40.000Z</time>
      </trkpt>
      <trkpt lat="43.93077" lon="1.83503">
        <ele>269.20001220703</ele>
        <time>2020-08-13T17:35:41.000Z</time>
      </trkpt>
      <trkpt lat="43.93073" lon="1.83504">
        <ele>269.20001220703</ele>
        <time>2020-08-13T17:35:42.000Z</time>
      </trkpt>
      <trkpt lat="43.93069" lon="1.83504">
        <ele>269.39999389648</ele>
        <time>2020-08-13T17:35:43.000Z</time>
      </trkpt>
      <trkpt lat="43.93066" lon="1.83505">
        <ele>269.60000610352</ele>
        <time>2020-08-13T17:35:44.000Z</time>
      </trkpt>
      <trkpt lat="43.93062" lon="1.83507">
        <ele>269.79998779297</ele>
        <time>2020-08-13T17:35:45.000Z</time>
      </trkpt>
      <trkpt lat="43.9306" lon="1.83509">
        <ele>270</ele>
        <time>2020-08-13T17:35:46.000Z</time>
      </trkpt>
      <trkpt lat="43.93057" lon="1.8351">
        <ele>270.20001220703</ele>
        <time>2020-08-13T17:35:47.000Z</time>
      </trkpt>
      <trkpt lat="43.93055" lon="1.83512">
        <ele>270.39999389648</ele>
        <time>2020-08-13T17:35:48.000Z</time>
      </trkpt>
      <trkpt lat="43.93052" lon="1.83512">
        <ele>271</ele>
        <time>2020-08-13T17:35:49.000Z</time>
      </trkpt>
      <trkpt lat="43.9305" lon="1.83513">
        <ele>271.39999389648</ele>
        <time>2020-08-13T17:35:50.000Z</time>
      </trkpt>
      <trkpt lat="43.93047" lon="1.83513">
        <ele>271.79998779297</ele>
        <time>2020-08-13T17:35:51.000Z</time>
      </trkpt>
      <trkpt lat="43.93045" lon="1.83513">
        <ele>272.20001220703</ele>
        <time>2020-08-13T17:35:52.000Z</time>
      </trkpt>
      <trkpt lat="43.93043" lon="1.83512">
        <ele>272.20001220703</ele>
        <time>2020-08-13T17:35:53.000Z</time>
      </trkpt>
      <trkpt lat="43.93042" lon="1.83511">
        <ele>272.39999389648</ele>
        <time>2020-08-13T17:35:54.000Z</time>
      </trkpt>
      <trkpt lat="43.9304" lon="1.83512">
        <ele>272.79998779297</ele>
        <time>2020-08-13T17:35:55.000Z</time>
      </trkpt>
      <trkpt lat="43.93037" lon="1.83513">
        <ele>273.20001220703</ele>
        <time>2020-08-13T17:35:56.000Z</time>
      </trkpt>
      <trkpt lat="43.93036" lon="1.83514">
        <ele>273.60000610352</ele>
        <time>2020-08-13T17:35:57.000Z</time>
      </trkpt>
      <trkpt lat="43.93034" lon="1.83517">
        <ele>273.79998779297</ele>
        <time>2020-08-13T17:35:58.000Z</time>
      </trkpt>
      <trkpt lat="43.93033" lon="1.8352">
        <ele>274.20001220703</ele>
        <time>2020-08-13T17:35:59.000Z</time>
      </trkpt>
      <trkpt lat="43.93031" lon="1.83522">
        <ele>274.39999389648</ele>
        <time>2020-08-13T17:36:00.000Z</time>
      </trkpt>
      <trkpt lat="43.93031" lon="1.83523">
        <ele>274.60000610352</ele>
        <time>2020-08-13T17:36:01.000Z</time>
      </trkpt>
      <trkpt lat="43.93029" lon="1.83525">
        <ele>274.79998779297</ele>
        <time>2020-08-13T17:36:02.000Z</time>
      </trkpt>
      <trkpt lat="43.93028" lon="1.83528">
        <ele>275.20001220703</ele>
        <time>2020-08-13T17:36:03.000Z</time>
      </trkpt>
      <trkpt lat="43.93026" lon="1.8353">
        <ele>275.39999389648</ele>
        <time>2020-08-13T17:36:04.000Z</time>
      </trkpt>
      <trkpt lat="43.93024" lon="1.83531">
        <ele>275.60000610352</ele>
        <time>2020-08-13T17:36:05.000Z</time>
      </trkpt>
      <trkpt lat="43.93022" lon="1.83533">
        <ele>275.79998779297</ele>
        <time>2020-08-13T17:36:06.000Z</time>
      </trkpt>
      <trkpt lat="43.9302" lon="1.83534">
        <ele>275.79998779297</ele>
        <time>2020-08-13T17:36:07.000Z</time>
      </trkpt>
      <trkpt lat="43.93018" lon="1.83534">
        <ele>276.20001220703</ele>
        <time>2020-08-13T17:36:08.000Z</time>
      </trkpt>
      <trkpt lat="43.93017" lon="1.83535">
        <ele>276.39999389648</ele>
        <time>2020-08-13T17:36:09.000Z</time>
      </trkpt>
      <trkpt lat="43.93015" lon="1.83537">
        <ele>276.60000610352</ele>
        <time>2020-08-13T17:36:10.000Z</time>
      </trkpt>
      <trkpt lat="43.93013" lon="1.83538">
        <ele>276.79998779297</ele>
        <time>2020-08-13T17:36:11.000Z</time>
      </trkpt>
      <trkpt lat="43.93011" lon="1.83541">
        <ele>276.60000610352</ele>
        <time>2020-08-13T17:36:12.000Z</time>
      </trkpt>
      <trkpt lat="43.93009" lon="1.83544">
        <ele>276.60000610352</ele>
        <time>2020-08-13T17:36:13.000Z</time>
      </trkpt>
      <trkpt lat="43.93007" lon="1.83547">
        <ele>276.39999389648</ele>
        <time>2020-08-13T17:36:14.000Z</time>
      </trkpt>
      <trkpt lat="43.93004" lon="1.83551">
        <ele>276.20001220703</ele>
        <time>2020-08-13T17:36:15.000Z</time>
      </trkpt>
      <trkpt lat="43.93002" lon="1.83554">
        <ele>276.20001220703</ele>
        <time>2020-08-13T17:36:16.000Z</time>
      </trkpt>
      <trkpt lat="43.93" lon="1.83557">
        <ele>276</ele>
        <time>2020-08-13T17:36:17.000Z</time>
      </trkpt>
      <trkpt lat="43.92997" lon="1.8356">
        <ele>275.79998779297</ele>
        <time>2020-08-13T17:36:18.000Z</time>
      </trkpt>
      <trkpt lat="43.92995" lon="1.83563">
        <ele>275.60000610352</ele>
        <time>2020-08-13T17:36:19.000Z</time>
      </trkpt>
      <trkpt lat="43.92994" lon="1.83566">
        <ele>275.60000610352</ele>
        <time>2020-08-13T17:36:20.000Z</time>
      </trkpt>
      <trkpt lat="43.92992" lon="1.83568">
        <ele>275.39999389648</ele>
        <time>2020-08-13T17:36:21.000Z</time>
      </trkpt>
      <trkpt lat="43.92991" lon="1.8357">
        <ele>275.20001220703</ele>
        <time>2020-08-13T17:36:22.000Z</time>
      </trkpt>
      <trkpt lat="43.9299" lon="1.83571">
        <ele>275</ele>
        <time>2020-08-13T17:36:23.000Z</time>
      </trkpt>
      <trkpt lat="43.92989" lon="1.83572">
        <ele>275</ele>
        <time>2020-08-13T17:36:24.000Z</time>
      </trkpt>
      <trkpt lat="43.92989" lon="1.83572">
        <ele>275</ele>
        <time>2020-08-13T17:36:25.000Z</time>
      </trkpt>
      <trkpt lat="43.92987" lon="1.83574">
        <ele>274.79998779297</ele>
        <time>2020-08-13T17:36:26.000Z</time>
      </trkpt>
      <trkpt lat="43.92987" lon="1.83575">
        <ele>275</ele>
        <time>2020-08-13T17:36:27.000Z</time>
      </trkpt>
      <trkpt lat="43.92987" lon="1.83575">
        <ele>275</ele>
        <time>2020-08-13T17:36:28.000Z</time>
      </trkpt>
      <trkpt lat="43.92987" lon="1.83575">
        <ele>275</ele>
        <time>2020-08-13T17:36:29.000Z</time>
      </trkpt>
      <trkpt lat="43.92987" lon="1.83575">
        <ele>275</ele>
        <time>2020-08-13T17:36:30.000Z</time>
      </trkpt>
      <trkpt lat="43.92987" lon="1.83575">
        <ele>275</ele>
        <time>2020-08-13T17:36:31.000Z</time>
      </trkpt>
      <trkpt lat="43.92987" lon="1.83575">
        <ele>275</ele>
        <time>2020-08-13T17:36:32.000Z</time>
      </trkpt>
      <trkpt lat="43.92987" lon="1.83575">
        <ele>275</ele>
        <time>2020-08-13T17:36:33.000Z</time>
      </trkpt>
      <trkpt lat="43.92987" lon="1.83575">
        <ele>275</ele>
        <time>2020-08-13T17:36:34.000Z</time>
      </trkpt>
      <trkpt lat="43.92987" lon="1.83575">
        <ele>275</ele>
        <time>2020-08-13T17:36:35.000Z</time>
      </trkpt>
      <trkpt lat="43.92987" lon="1.83575">
        <ele>275</ele>
        <time>2020-08-13T17:36:36.000Z</time>
      </trkpt>
      <trkpt lat="43.92987" lon="1.83575">
        <ele>275</ele>
        <time>2020-08-13T17:36:37.000Z</time>
      </trkpt>
      <trkpt lat="43.92987" lon="1.83575">
        <ele>274.79998779297</ele>
        <time>2020-08-13T17:36:38.000Z</time>
      </trkpt>
      <trkpt lat="43.92987" lon="1.83575">
        <ele>274.79998779297</ele>
        <time>2020-08-13T17:36:39.000Z</time>
      </trkpt>
      <trkpt lat="43.92987" lon="1.83575">
        <ele>274.79998779297</ele>
        <time>2020-08-13T17:36:40.000Z</time>
      </trkpt>
      <trkpt lat="43.92987" lon="1.83575">
        <ele>274.79998779297</ele>
        <time>2020-08-13T17:36:41.000Z</time>
      </trkpt>
      <trkpt lat="43.92987" lon="1.83575">
        <ele>274.79998779297</ele>
        <time>2020-08-13T17:36:42.000Z</time>
      </trkpt>
      <trkpt lat="43.92987" lon="1.83575">
        <ele>274.79998779297</ele>
        <time>2020-08-13T17:36:43.000Z</time>
      </trkpt>
      <trkpt lat="43.92987" lon="1.83575">
        <ele>275</ele>
        <time>2020-08-13T17:36:44.000Z</time>
      </trkpt>
      <trkpt lat="43.92987" lon="1.83575">
        <ele>275</ele>
        <time>2020-08-13T17:36:45.000Z</time>
      </trkpt>
      <trkpt lat="43.92987" lon="1.83575">
        <ele>274.79998779297</ele>
        <time>2020-08-13T17:36:46.000Z</time>
      </trkpt>
      <trkpt lat="43.92986" lon="1.83575">
        <ele>275</ele>
        <time>2020-08-13T17:36:47.000Z</time>
      </trkpt>
      <trkpt lat="43.92985" lon="1.83576">
        <ele>274.79998779297</ele>
        <time>2020-08-13T17:36:48.000Z</time>
      </trkpt>
      <trkpt lat="43.92985" lon="1.83576">
        <ele>275</ele>
        <time>2020-08-13T17:36:49.000Z</time>
      </trkpt>
      <trkpt lat="43.92985" lon="1.83575">
        <ele>275</ele>
        <time>2020-08-13T17:36:50.000Z</time>
      </trkpt>
      <trkpt lat="43.92984" lon="1.83574">
        <ele>275</ele>
        <time>2020-08-13T17:36:51.000Z</time>
      </trkpt>
      <trkpt lat="43.92983" lon="1.83572">
        <ele>275.20001220703</ele>
        <time>2020-08-13T17:36:52.000Z</time>
      </trkpt>
      <trkpt lat="43.92982" lon="1.8357">
        <ele>275.20001220703</ele>
        <time>2020-08-13T17:36:53.000Z</time>
      </trkpt>
      <trkpt lat="43.92981" lon="1.83568">
        <ele>275.39999389648</ele>
        <time>2020-08-13T17:36:54.000Z</time>
      </trkpt>
      <trkpt lat="43.92981" lon="1.83565">
        <ele>275.39999389648</ele>
        <time>2020-08-13T17:36:55.000Z</time>
      </trkpt>
      <trkpt lat="43.9298" lon="1.83562">
        <ele>275.39999389648</ele>
        <time>2020-08-13T17:36:56.000Z</time>
      </trkpt>
      <trkpt lat="43.9298" lon="1.83559">
        <ele>275.39999389648</ele>
        <time>2020-08-13T17:36:57.000Z</time>
      </trkpt>
      <trkpt lat="43.9298" lon="1.83556">
        <ele>275.60000610352</ele>
        <time>2020-08-13T17:36:58.000Z</time>
      </trkpt>
      <trkpt lat="43.92979" lon="1.83553">
        <ele>275.60000610352</ele>
        <time>2020-08-13T17:36:59.000Z</time>
      </trkpt>
      <trkpt lat="43.9298" lon="1.83551">
        <ele>275.60000610352</ele>
        <time>2020-08-13T17:37:00.000Z</time>
      </trkpt>
      <trkpt lat="43.9298" lon="1.83549">
        <ele>275.60000610352</ele>
        <time>2020-08-13T17:37:01.000Z</time>
      </trkpt>
      <trkpt lat="43.92981" lon="1.83546">
        <ele>275.79998779297</ele>
        <time>2020-08-13T17:37:02.000Z</time>
      </trkpt>
      <trkpt lat="43.92982" lon="1.83543">
        <ele>275.79998779297</ele>
        <time>2020-08-13T17:37:03.000Z</time>
      </trkpt>
      <trkpt lat="43.92983" lon="1.8354">
        <ele>275.79998779297</ele>
        <time>2020-08-13T17:37:04.000Z</time>
      </trkpt>
      <trkpt lat="43.92984" lon="1.83536">
        <ele>275.79998779297</ele>
        <time>2020-08-13T17:37:05.000Z</time>
      </trkpt>
      <trkpt lat="43.92985" lon="1.83532">
        <ele>275.79998779297</ele>
        <time>2020-08-13T17:37:06.000Z</time>
      </trkpt>
      <trkpt lat="43.92987" lon="1.83528">
        <ele>275.60000610352</ele>
        <time>2020-08-13T17:37:07.000Z</time>
      </trkpt>
      <trkpt lat="43.92989" lon="1.83524">
        <ele>275.79998779297</ele>
        <time>2020-08-13T17:37:08.000Z</time>
      </trkpt>
      <trkpt lat="43.9299" lon="1.8352">
        <ele>275.79998779297</ele>
        <time>2020-08-13T17:37:09.000Z</time>
      </trkpt>
      <trkpt lat="43.92992" lon="1.83516">
        <ele>275.79998779297</ele>
        <time>2020-08-13T17:37:10.000Z</time>
      </trkpt>
      <trkpt lat="43.92993" lon="1.83512">
        <ele>275.60000610352</ele>
        <time>2020-08-13T17:37:11.000Z</time>
      </trkpt>
      <trkpt lat="43.92994" lon="1.83509">
        <ele>275.60000610352</ele>
        <time>2020-08-13T17:37:12.000Z</time>
      </trkpt>
      <trkpt lat="43.92996" lon="1.83505">
        <ele>275.60000610352</ele>
        <time>2020-08-13T17:37:13.000Z</time>
      </trkpt>
      <trkpt lat="43.92998" lon="1.83501">
        <ele>275.60000610352</ele>
        <time>2020-08-13T17:37:14.000Z</time>
      </trkpt>
      <trkpt lat="43.93" lon="1.83497">
        <ele>275.60000610352</ele>
        <time>2020-08-13T17:37:15.000Z</time>
      </trkpt>
      <trkpt lat="43.93001" lon="1.83494">
        <ele>275.60000610352</ele>
        <time>2020-08-13T17:37:16.000Z</time>
      </trkpt>
      <trkpt lat="43.93003" lon="1.8349">
        <ele>275.60000610352</ele>
        <time>2020-08-13T17:37:17.000Z</time>
      </trkpt>
      <trkpt lat="43.93004" lon="1.83487">
        <ele>275.39999389648</ele>
        <time>2020-08-13T17:37:18.000Z</time>
      </trkpt>
      <trkpt lat="43.93006" lon="1.83484">
        <ele>275.20001220703</ele>
        <time>2020-08-13T17:37:19.000Z</time>
      </trkpt>
      <trkpt lat="43.93006" lon="1.83482">
        <ele>275.39999389648</ele>
        <time>2020-08-13T17:37:20.000Z</time>
      </trkpt>
      <trkpt lat="43.93007" lon="1.83481">
        <ele>275.60000610352</ele>
        <time>2020-08-13T17:37:21.000Z</time>
      </trkpt>
      <trkpt lat="43.93007" lon="1.83479">
        <ele>275.79998779297</ele>
        <time>2020-08-13T17:37:22.000Z</time>
      </trkpt>
      <trkpt lat="43.93008" lon="1.83477">
        <ele>275.79998779297</ele>
        <time>2020-08-13T17:37:23.000Z</time>
      </trkpt>
      <trkpt lat="43.93008" lon="1.83475">
        <ele>275.79998779297</ele>
        <time>2020-08-13T17:37:24.000Z</time>
      </trkpt>
      <trkpt lat="43.93009" lon="1.83471">
        <ele>275.79998779297</ele>
        <time>2020-08-13T17:37:25.000Z</time>
      </trkpt>
      <trkpt lat="43.9301" lon="1.83467">
        <ele>275.79998779297</ele>
        <time>2020-08-13T17:37:26.000Z</time>
      </trkpt>
      <trkpt lat="43.93011" lon="1.83462">
        <ele>275.79998779297</ele>
        <time>2020-08-13T17:37:27.000Z</time>
      </trkpt>
      <trkpt lat="43.93012" lon="1.83458">
        <ele>275.79998779297</ele>
        <time>2020-08-13T17:37:28.000Z</time>
      </trkpt>
      <trkpt lat="43.93012" lon="1.83453">
        <ele>275.79998779297</ele>
        <time>2020-08-13T17:37:29.000Z</time>
      </trkpt>
      <trkpt lat="43.93013" lon="1.83449">
        <ele>275.79998779297</ele>
        <time>2020-08-13T17:37:30.000Z</time>
      </trkpt>
      <trkpt lat="43.93012" lon="1.83444">
        <ele>275.79998779297</ele>
        <time>2020-08-13T17:37:31.000Z</time>
      </trkpt>
      <trkpt lat="43.93012" lon="1.83439">
        <ele>275.60000610352</ele>
        <time>2020-08-13T17:37:32.000Z</time>
      </trkpt>
      <trkpt lat="43.93012" lon="1.83433">
        <ele>275.60000610352</ele>
        <time>2020-08-13T17:37:33.000Z</time>
      </trkpt>
      <trkpt lat="43.93012" lon="1.83428">
        <ele>275.60000610352</ele>
        <time>2020-08-13T17:37:34.000Z</time>
      </trkpt>
      <trkpt lat="43.93013" lon="1.83424">
        <ele>275.79998779297</ele>
        <time>2020-08-13T17:37:35.000Z</time>
      </trkpt>
      <trkpt lat="43.93013" lon="1.83418">
        <ele>276</ele>
        <time>2020-08-13T17:37:36.000Z</time>
      </trkpt>
      <trkpt lat="43.93014" lon="1.83413">
        <ele>276</ele>
        <time>2020-08-13T17:37:37.000Z</time>
      </trkpt>
      <trkpt lat="43.93015" lon="1.83407">
        <ele>276</ele>
        <time>2020-08-13T17:37:38.000Z</time>
      </trkpt>
      <trkpt lat="43.93016" lon="1.83401">
        <ele>276</ele>
        <time>2020-08-13T17:37:39.000Z</time>
      </trkpt>
      <trkpt lat="43.93016" lon="1.83395">
        <ele>276</ele>
        <time>2020-08-13T17:37:40.000Z</time>
      </trkpt>
      <trkpt lat="43.93017" lon="1.8339">
        <ele>276.20001220703</ele>
        <time>2020-08-13T17:37:41.000Z</time>
      </trkpt>
      <trkpt lat="43.93017" lon="1.83385">
        <ele>276.39999389648</ele>
        <time>2020-08-13T17:37:42.000Z</time>
      </trkpt>
      <trkpt lat="43.93018" lon="1.8338">
        <ele>276.39999389648</ele>
        <time>2020-08-13T17:37:43.000Z</time>
      </trkpt>
      <trkpt lat="43.93019" lon="1.83376">
        <ele>276.60000610352</ele>
        <time>2020-08-13T17:37:44.000Z</time>
      </trkpt>
      <trkpt lat="43.93019" lon="1.83372">
        <ele>276.79998779297</ele>
        <time>2020-08-13T17:37:45.000Z</time>
      </trkpt>
      <trkpt lat="43.9302" lon="1.83367">
        <ele>276.79998779297</ele>
        <time>2020-08-13T17:37:46.000Z</time>
      </trkpt>
      <trkpt lat="43.9302" lon="1.83362">
        <ele>277</ele>
        <time>2020-08-13T17:37:47.000Z</time>
      </trkpt>
      <trkpt lat="43.93021" lon="1.83358">
        <ele>276.79998779297</ele>
        <time>2020-08-13T17:37:48.000Z</time>
      </trkpt>
      <trkpt lat="43.93021" lon="1.83353">
        <ele>276.79998779297</ele>
        <time>2020-08-13T17:37:49.000Z</time>
      </trkpt>
      <trkpt lat="43.93022" lon="1.83348">
        <ele>276.79998779297</ele>
        <time>2020-08-13T17:37:50.000Z</time>
      </trkpt>
      <trkpt lat="43.93023" lon="1.83344">
        <ele>276.60000610352</ele>
        <time>2020-08-13T17:37:51.000Z</time>
      </trkpt>
      <trkpt lat="43.93024" lon="1.8334">
        <ele>276.39999389648</ele>
        <time>2020-08-13T17:37:52.000Z</time>
      </trkpt>
      <trkpt lat="43.93025" lon="1.83335">
        <ele>276.60000610352</ele>
        <time>2020-08-13T17:37:53.000Z</time>
      </trkpt>
      <trkpt lat="43.93027" lon="1.83331">
        <ele>276.60000610352</ele>
        <time>2020-08-13T17:37:54.000Z</time>
      </trkpt>
      <trkpt lat="43.93028" lon="1.83327">
        <ele>276.60000610352</ele>
        <time>2020-08-13T17:37:55.000Z</time>
      </trkpt>
      <trkpt lat="43.93029" lon="1.83323">
        <ele>276.39999389648</ele>
        <time>2020-08-13T17:37:56.000Z</time>
      </trkpt>
      <trkpt lat="43.9303" lon="1.8332">
        <ele>276.39999389648</ele>
        <time>2020-08-13T17:37:57.000Z</time>
      </trkpt>
      <trkpt lat="43.93031" lon="1.83316">
        <ele>276.39999389648</ele>
        <time>2020-08-13T17:37:58.000Z</time>
      </trkpt>
      <trkpt lat="43.93032" lon="1.83312">
        <ele>276.39999389648</ele>
        <time>2020-08-13T17:37:59.000Z</time>
      </trkpt>
      <trkpt lat="43.93032" lon="1.83307">
        <ele>276.20001220703</ele>
        <time>2020-08-13T17:38:00.000Z</time>
      </trkpt>
      <trkpt lat="43.93034" lon="1.83303">
        <ele>276</ele>
        <time>2020-08-13T17:38:01.000Z</time>
      </trkpt>
      <trkpt lat="43.93035" lon="1.83298">
        <ele>276</ele>
        <time>2020-08-13T17:38:02.000Z</time>
      </trkpt>
      <trkpt lat="43.93036" lon="1.83293">
        <ele>275.79998779297</ele>
        <time>2020-08-13T17:38:03.000Z</time>
      </trkpt>
      <trkpt lat="43.93037" lon="1.83289">
        <ele>275.60000610352</ele>
        <time>2020-08-13T17:38:04.000Z</time>
      </trkpt>
      <trkpt lat="43.93038" lon="1.83285">
        <ele>275.39999389648</ele>
        <time>2020-08-13T17:38:05.000Z</time>
      </trkpt>
      <trkpt lat="43.93039" lon="1.83282">
        <ele>275.39999389648</ele>
        <time>2020-08-13T17:38:06.000Z</time>
      </trkpt>
      <trkpt lat="43.9304" lon="1.83277">
        <ele>275.39999389648</ele>
        <time>2020-08-13T17:38:07.000Z</time>
      </trkpt>
      <trkpt lat="43.93041" lon="1.83273">
        <ele>275.39999389648</ele>
        <time>2020-08-13T17:38:08.000Z</time>
      </trkpt>
      <trkpt lat="43.93042" lon="1.83268">
        <ele>275.39999389648</ele>
        <time>2020-08-13T17:38:09.000Z</time>
      </trkpt>
      <trkpt lat="43.93043" lon="1.83263">
        <ele>275.39999389648</ele>
        <time>2020-08-13T17:38:10.000Z</time>
      </trkpt>
      <trkpt lat="43.93043" lon="1.83257">
        <ele>275.39999389648</ele>
        <time>2020-08-13T17:38:11.000Z</time>
      </trkpt>
      <trkpt lat="43.93043" lon="1.83252">
        <ele>275.20001220703</ele>
        <time>2020-08-13T17:38:12.000Z</time>
      </trkpt>
      <trkpt lat="43.93045" lon="1.83246">
        <ele>275.20001220703</ele>
        <time>2020-08-13T17:38:13.000Z</time>
      </trkpt>
      <trkpt lat="43.93046" lon="1.83241">
        <ele>275.39999389648</ele>
        <time>2020-08-13T17:38:14.000Z</time>
      </trkpt>
      <trkpt lat="43.93047" lon="1.83235">
        <ele>275.20001220703</ele>
        <time>2020-08-13T17:38:15.000Z</time>
      </trkpt>
      <trkpt lat="43.93048" lon="1.8323">
        <ele>275.39999389648</ele>
        <time>2020-08-13T17:38:16.000Z</time>
      </trkpt>
      <trkpt lat="43.93049" lon="1.83225">
        <ele>275.39999389648</ele>
        <time>2020-08-13T17:38:17.000Z</time>
      </trkpt>
      <trkpt lat="43.9305" lon="1.83221">
        <ele>275.39999389648</ele>
        <time>2020-08-13T17:38:18.000Z</time>
      </trkpt>
      <trkpt lat="43.93051" lon="1.83216">
        <ele>275.39999389648</ele>
        <time>2020-08-13T17:38:19.000Z</time>
      </trkpt>
      <trkpt lat="43.93053" lon="1.83211">
        <ele>275.39999389648</ele>
        <time>2020-08-13T17:38:20.000Z</time>
      </trkpt>
      <trkpt lat="43.93054" lon="1.83205">
        <ele>275.39999389648</ele>
        <time>2020-08-13T17:38:21.000Z</time>
      </trkpt>
      <trkpt lat="43.93056" lon="1.83199">
        <ele>275.39999389648</ele>
        <time>2020-08-13T17:38:22.000Z</time>
      </trkpt>
      <trkpt lat="43.93057" lon="1.83194">
        <ele>275.60000610352</ele>
        <time>2020-08-13T17:38:23.000Z</time>
      </trkpt>
      <trkpt lat="43.93058" lon="1.83188">
        <ele>275.79998779297</ele>
        <time>2020-08-13T17:38:24.000Z</time>
      </trkpt>
      <trkpt lat="43.93059" lon="1.83182">
        <ele>276</ele>
        <time>2020-08-13T17:38:25.000Z</time>
      </trkpt>
      <trkpt lat="43.9306" lon="1.83177">
        <ele>276.20001220703</ele>
        <time>2020-08-13T17:38:26.000Z</time>
      </trkpt>
      <trkpt lat="43.93062" lon="1.83173">
        <ele>276.20001220703</ele>
        <time>2020-08-13T17:38:27.000Z</time>
      </trkpt>
      <trkpt lat="43.93063" lon="1.8317">
        <ele>276.20001220703</ele>
        <time>2020-08-13T17:38:28.000Z</time>
      </trkpt>
      <trkpt lat="43.93063" lon="1.83167">
        <ele>276.20001220703</ele>
        <time>2020-08-13T17:38:29.000Z</time>
      </trkpt>
      <trkpt lat="43.93063" lon="1.83165">
        <ele>276</ele>
        <time>2020-08-13T17:38:30.000Z</time>
      </trkpt>
      <trkpt lat="43.93063" lon="1.83162">
        <ele>276</ele>
        <time>2020-08-13T17:38:31.000Z</time>
      </trkpt>
      <trkpt lat="43.93063" lon="1.83159">
        <ele>276</ele>
        <time>2020-08-13T17:38:32.000Z</time>
      </trkpt>
      <trkpt lat="43.93062" lon="1.83156">
        <ele>276</ele>
        <time>2020-08-13T17:38:33.000Z</time>
      </trkpt>
      <trkpt lat="43.93062" lon="1.83153">
        <ele>276.20001220703</ele>
        <time>2020-08-13T17:38:34.000Z</time>
      </trkpt>
      <trkpt lat="43.93061" lon="1.83151">
        <ele>276.20001220703</ele>
        <time>2020-08-13T17:38:35.000Z</time>
      </trkpt>
      <trkpt lat="43.9306" lon="1.83148">
        <ele>276.20001220703</ele>
        <time>2020-08-13T17:38:36.000Z</time>
      </trkpt>
      <trkpt lat="43.9306" lon="1.83146">
        <ele>276.20001220703</ele>
        <time>2020-08-13T17:38:37.000Z</time>
      </trkpt>
      <trkpt lat="43.9306" lon="1.83143">
        <ele>276.20001220703</ele>
        <time>2020-08-13T17:38:38.000Z</time>
      </trkpt>
      <trkpt lat="43.9306" lon="1.8314">
        <ele>276.20001220703</ele>
        <time>2020-08-13T17:38:39.000Z</time>
      </trkpt>
      <trkpt lat="43.93061" lon="1.83136">
        <ele>276.20001220703</ele>
        <time>2020-08-13T17:38:40.000Z</time>
      </trkpt>
      <trkpt lat="43.93062" lon="1.83131">
        <ele>276.20001220703</ele>
        <time>2020-08-13T17:38:41.000Z</time>
      </trkpt>
      <trkpt lat="43.93063" lon="1.83127">
        <ele>276.20001220703</ele>
        <time>2020-08-13T17:38:42.000Z</time>
      </trkpt>
      <trkpt lat="43.93063" lon="1.83122">
        <ele>276.20001220703</ele>
        <time>2020-08-13T17:38:43.000Z</time>
      </trkpt>
      <trkpt lat="43.93062" lon="1.83119">
        <ele>276</ele>
        <time>2020-08-13T17:38:44.000Z</time>
      </trkpt>
      <trkpt lat="43.93062" lon="1.83115">
        <ele>276</ele>
        <time>2020-08-13T17:38:45.000Z</time>
      </trkpt>
      <trkpt lat="43.93062" lon="1.83111">
        <ele>276.20001220703</ele>
        <time>2020-08-13T17:38:46.000Z</time>
      </trkpt>
      <trkpt lat="43.93062" lon="1.83106">
        <ele>276.20001220703</ele>
        <time>2020-08-13T17:38:47.000Z</time>
      </trkpt>
      <trkpt lat="43.93062" lon="1.83102">
        <ele>276.20001220703</ele>
        <time>2020-08-13T17:38:48.000Z</time>
      </trkpt>
      <trkpt lat="43.93062" lon="1.83098">
        <ele>276.20001220703</ele>
        <time>2020-08-13T17:38:49.000Z</time>
      </trkpt>
      <trkpt lat="43.93061" lon="1.83095">
        <ele>276.20001220703</ele>
        <time>2020-08-13T17:38:50.000Z</time>
      </trkpt>
      <trkpt lat="43.93061" lon="1.83091">
        <ele>276</ele>
        <time>2020-08-13T17:38:51.000Z</time>
      </trkpt>
      <trkpt lat="43.9306" lon="1.83088">
        <ele>276.20001220703</ele>
        <time>2020-08-13T17:38:52.000Z</time>
      </trkpt>
      <trkpt lat="43.9306" lon="1.83085">
        <ele>276.39999389648</ele>
        <time>2020-08-13T17:38:53.000Z</time>
      </trkpt>
      <trkpt lat="43.93059" lon="1.83082">
        <ele>276.39999389648</ele>
        <time>2020-08-13T17:38:54.000Z</time>
      </trkpt>
      <trkpt lat="43.93059" lon="1.83077">
        <ele>276.60000610352</ele>
        <time>2020-08-13T17:38:55.000Z</time>
      </trkpt>
      <trkpt lat="43.93059" lon="1.83073">
        <ele>276.60000610352</ele>
        <time>2020-08-13T17:38:56.000Z</time>
      </trkpt>
      <trkpt lat="43.93058" lon="1.83069">
        <ele>276.79998779297</ele>
        <time>2020-08-13T17:38:57.000Z</time>
      </trkpt>
      <trkpt lat="43.93058" lon="1.83065">
        <ele>276.39999389648</ele>
        <time>2020-08-13T17:38:58.000Z</time>
      </trkpt>
      <trkpt lat="43.93058" lon="1.83061">
        <ele>276.39999389648</ele>
        <time>2020-08-13T17:38:59.000Z</time>
      </trkpt>
      <trkpt lat="43.93058" lon="1.83057">
        <ele>276.39999389648</ele>
        <time>2020-08-13T17:39:00.000Z</time>
      </trkpt>
      <trkpt lat="43.93058" lon="1.83055">
        <ele>276.79998779297</ele>
        <time>2020-08-13T17:39:01.000Z</time>
      </trkpt>
      <trkpt lat="43.93057" lon="1.83052">
        <ele>276.60000610352</ele>
        <time>2020-08-13T17:39:02.000Z</time>
      </trkpt>
      <trkpt lat="43.93056" lon="1.83049">
        <ele>276.60000610352</ele>
        <time>2020-08-13T17:39:03.000Z</time>
      </trkpt>
      <trkpt lat="43.93056" lon="1.83046">
        <ele>276.60000610352</ele>
        <time>2020-08-13T17:39:04.000Z</time>
      </trkpt>
      <trkpt lat="43.93056" lon="1.83043">
        <ele>276.60000610352</ele>
        <time>2020-08-13T17:39:05.000Z</time>
      </trkpt>
      <trkpt lat="43.93056" lon="1.83044">
        <ele>276.60000610352</ele>
        <time>2020-08-13T17:39:06.000Z</time>
      </trkpt>
      <trkpt lat="43.93057" lon="1.8304">
        <ele>276.60000610352</ele>
        <time>2020-08-13T17:39:07.000Z</time>
      </trkpt>
      <trkpt lat="43.93057" lon="1.8304">
        <ele>276.60000610352</ele>
        <time>2020-08-13T17:39:08.000Z</time>
      </trkpt>
      <trkpt lat="43.93057" lon="1.83036">
        <ele>276.60000610352</ele>
        <time>2020-08-13T17:39:09.000Z</time>
      </trkpt>
      <trkpt lat="43.93057" lon="1.83034">
        <ele>276.60000610352</ele>
        <time>2020-08-13T17:39:10.000Z</time>
      </trkpt>
      <trkpt lat="43.93057" lon="1.83032">
        <ele>276.60000610352</ele>
        <time>2020-08-13T17:39:11.000Z</time>
      </trkpt>
      <trkpt lat="43.93057" lon="1.8303">
        <ele>276.60000610352</ele>
        <time>2020-08-13T17:39:12.000Z</time>
      </trkpt>
      <trkpt lat="43.93057" lon="1.83028">
        <ele>276.79998779297</ele>
        <time>2020-08-13T17:39:13.000Z</time>
      </trkpt>
      <trkpt lat="43.93057" lon="1.83025">
        <ele>276.79998779297</ele>
        <time>2020-08-13T17:39:14.000Z</time>
      </trkpt>
      <trkpt lat="43.93057" lon="1.83022">
        <ele>276.79998779297</ele>
        <time>2020-08-13T17:39:15.000Z</time>
      </trkpt>
      <trkpt lat="43.93057" lon="1.83019">
        <ele>276.79998779297</ele>
        <time>2020-08-13T17:39:16.000Z</time>
      </trkpt>
      <trkpt lat="43.93057" lon="1.83016">
        <ele>276.79998779297</ele>
        <time>2020-08-13T17:39:17.000Z</time>
      </trkpt>
      <trkpt lat="43.93057" lon="1.83013">
        <ele>276.79998779297</ele>
        <time>2020-08-13T17:39:18.000Z</time>
      </trkpt>
      <trkpt lat="43.93056" lon="1.83009">
        <ele>276.79998779297</ele>
        <time>2020-08-13T17:39:19.000Z</time>
      </trkpt>
      <trkpt lat="43.93054" lon="1.83005">
        <ele>276.60000610352</ele>
        <time>2020-08-13T17:39:20.000Z</time>
      </trkpt>
      <trkpt lat="43.93052" lon="1.83001">
        <ele>276.39999389648</ele>
        <time>2020-08-13T17:39:21.000Z</time>
      </trkpt>
      <trkpt lat="43.9305" lon="1.82998">
        <ele>276.20001220703</ele>
        <time>2020-08-13T17:39:22.000Z</time>
      </trkpt>
      <trkpt lat="43.93047" lon="1.82993">
        <ele>275.79998779297</ele>
        <time>2020-08-13T17:39:23.000Z</time>
      </trkpt>
      <trkpt lat="43.93044" lon="1.82987">
        <ele>275.39999389648</ele>
        <time>2020-08-13T17:39:24.000Z</time>
      </trkpt>
      <trkpt lat="43.93043" lon="1.8298">
        <ele>274.60000610352</ele>
        <time>2020-08-13T17:39:25.000Z</time>
      </trkpt>
      <trkpt lat="43.93044" lon="1.82974">
        <ele>274.60000610352</ele>
        <time>2020-08-13T17:39:26.000Z</time>
      </trkpt>
      <trkpt lat="43.93045" lon="1.82971">
        <ele>274.39999389648</ele>
        <time>2020-08-13T17:39:27.000Z</time>
      </trkpt>
      <trkpt lat="43.93047" lon="1.82968">
        <ele>274.60000610352</ele>
        <time>2020-08-13T17:39:28.000Z</time>
      </trkpt>
      <trkpt lat="43.93048" lon="1.82965">
        <ele>274.79998779297</ele>
        <time>2020-08-13T17:39:29.000Z</time>
      </trkpt>
      <trkpt lat="43.9305" lon="1.82962">
        <ele>274.79998779297</ele>
        <time>2020-08-13T17:39:30.000Z</time>
      </trkpt>
      <trkpt lat="43.93051" lon="1.8296">
        <ele>275.20001220703</ele>
        <time>2020-08-13T17:39:31.000Z</time>
      </trkpt>
      <trkpt lat="43.93053" lon="1.82958">
        <ele>275.20001220703</ele>
        <time>2020-08-13T17:39:32.000Z</time>
      </trkpt>
      <trkpt lat="43.93054" lon="1.82955">
        <ele>275.39999389648</ele>
        <time>2020-08-13T17:39:33.000Z</time>
      </trkpt>
      <trkpt lat="43.93055" lon="1.82953">
        <ele>275.39999389648</ele>
        <time>2020-08-13T17:39:34.000Z</time>
      </trkpt>
      <trkpt lat="43.93055" lon="1.8295">
        <ele>275.39999389648</ele>
        <time>2020-08-13T17:39:35.000Z</time>
      </trkpt>
      <trkpt lat="43.93055" lon="1.82948">
        <ele>275.39999389648</ele>
        <time>2020-08-13T17:39:36.000Z</time>
      </trkpt>
      <trkpt lat="43.93055" lon="1.82946">
        <ele>275.60000610352</ele>
        <time>2020-08-13T17:39:37.000Z</time>
      </trkpt>
      <trkpt lat="43.93055" lon="1.82943">
        <ele>275.39999389648</ele>
        <time>2020-08-13T17:39:38.000Z</time>
      </trkpt>
      <trkpt lat="43.93055" lon="1.82941">
        <ele>275.39999389648</ele>
        <time>2020-08-13T17:39:39.000Z</time>
      </trkpt>
      <trkpt lat="43.93054" lon="1.82938">
        <ele>275.39999389648</ele>
        <time>2020-08-13T17:39:40.000Z</time>
      </trkpt>
      <trkpt lat="43.93052" lon="1.82935">
        <ele>275.39999389648</ele>
        <time>2020-08-13T17:39:41.000Z</time>
      </trkpt>
      <trkpt lat="43.9305" lon="1.82932">
        <ele>275.39999389648</ele>
        <time>2020-08-13T17:39:42.000Z</time>
      </trkpt>
      <trkpt lat="43.93048" lon="1.82929">
        <ele>275.39999389648</ele>
        <time>2020-08-13T17:39:43.000Z</time>
      </trkpt>
      <trkpt lat="43.93047" lon="1.82925">
        <ele>275.20001220703</ele>
        <time>2020-08-13T17:39:44.000Z</time>
      </trkpt>
      <trkpt lat="43.93045" lon="1.82922">
        <ele>275</ele>
        <time>2020-08-13T17:39:45.000Z</time>
      </trkpt>
      <trkpt lat="43.93044" lon="1.82919">
        <ele>275</ele>
        <time>2020-08-13T17:39:46.000Z</time>
      </trkpt>
      <trkpt lat="43.93043" lon="1.82916">
        <ele>275.20001220703</ele>
        <time>2020-08-13T17:39:47.000Z</time>
      </trkpt>
      <trkpt lat="43.93042" lon="1.82912">
        <ele>275.20001220703</ele>
        <time>2020-08-13T17:39:48.000Z</time>
      </trkpt>
      <trkpt lat="43.93041" lon="1.82908">
        <ele>274.79998779297</ele>
        <time>2020-08-13T17:39:49.000Z</time>
      </trkpt>
      <trkpt lat="43.9304" lon="1.82903">
        <ele>275</ele>
        <time>2020-08-13T17:39:50.000Z</time>
      </trkpt>
      <trkpt lat="43.93039" lon="1.82899">
        <ele>275</ele>
        <time>2020-08-13T17:39:51.000Z</time>
      </trkpt>
      <trkpt lat="43.93038" lon="1.82895">
        <ele>275.20001220703</ele>
        <time>2020-08-13T17:39:52.000Z</time>
      </trkpt>
      <trkpt lat="43.93037" lon="1.82891">
        <ele>275.20001220703</ele>
        <time>2020-08-13T17:39:53.000Z</time>
      </trkpt>
      <trkpt lat="43.93037" lon="1.82886">
        <ele>275.20001220703</ele>
        <time>2020-08-13T17:39:54.000Z</time>
      </trkpt>
      <trkpt lat="43.93036" lon="1.82882">
        <ele>275.20001220703</ele>
        <time>2020-08-13T17:39:55.000Z</time>
      </trkpt>
      <trkpt lat="43.93035" lon="1.82878">
        <ele>275.20001220703</ele>
        <time>2020-08-13T17:39:56.000Z</time>
      </trkpt>
      <trkpt lat="43.93035" lon="1.82874">
        <ele>275.39999389648</ele>
        <time>2020-08-13T17:39:57.000Z</time>
      </trkpt>
      <trkpt lat="43.93034" lon="1.8287">
        <ele>275.39999389648</ele>
        <time>2020-08-13T17:39:58.000Z</time>
      </trkpt>
      <trkpt lat="43.93033" lon="1.82866">
        <ele>275.39999389648</ele>
        <time>2020-08-13T17:39:59.000Z</time>
      </trkpt>
      <trkpt lat="43.93033" lon="1.82862">
        <ele>275.60000610352</ele>
        <time>2020-08-13T17:40:00.000Z</time>
      </trkpt>
      <trkpt lat="43.93032" lon="1.82859">
        <ele>275.60000610352</ele>
        <time>2020-08-13T17:40:01.000Z</time>
      </trkpt>
      <trkpt lat="43.93032" lon="1.82855">
        <ele>275.79998779297</ele>
        <time>2020-08-13T17:40:02.000Z</time>
      </trkpt>
      <trkpt lat="43.93031" lon="1.82852">
        <ele>275.79998779297</ele>
        <time>2020-08-13T17:40:03.000Z</time>
      </trkpt>
      <trkpt lat="43.93031" lon="1.82848">
        <ele>276</ele>
        <time>2020-08-13T17:40:04.000Z</time>
      </trkpt>
      <trkpt lat="43.9303" lon="1.82844">
        <ele>276.20001220703</ele>
        <time>2020-08-13T17:40:05.000Z</time>
      </trkpt>
      <trkpt lat="43.9303" lon="1.8284">
        <ele>276.20001220703</ele>
        <time>2020-08-13T17:40:06.000Z</time>
      </trkpt>
      <trkpt lat="43.93029" lon="1.82836">
        <ele>276.20001220703</ele>
        <time>2020-08-13T17:40:07.000Z</time>
      </trkpt>
      <trkpt lat="43.93029" lon="1.82832">
        <ele>276.39999389648</ele>
        <time>2020-08-13T17:40:08.000Z</time>
      </trkpt>
      <trkpt lat="43.93028" lon="1.82828">
        <ele>276.60000610352</ele>
        <time>2020-08-13T17:40:09.000Z</time>
      </trkpt>
      <trkpt lat="43.93028" lon="1.82823">
        <ele>276.60000610352</ele>
        <time>2020-08-13T17:40:10.000Z</time>
      </trkpt>
      <trkpt lat="43.93027" lon="1.82818">
        <ele>276.60000610352</ele>
        <time>2020-08-13T17:40:11.000Z</time>
      </trkpt>
      <trkpt lat="43.93026" lon="1.82814">
        <ele>276.60000610352</ele>
        <time>2020-08-13T17:40:12.000Z</time>
      </trkpt>
      <trkpt lat="43.93026" lon="1.82809">
        <ele>276.79998779297</ele>
        <time>2020-08-13T17:40:13.000Z</time>
      </trkpt>
      <trkpt lat="43.93025" lon="1.82804">
        <ele>276.79998779297</ele>
        <time>2020-08-13T17:40:14.000Z</time>
      </trkpt>
      <trkpt lat="43.93024" lon="1.828">
        <ele>276.79998779297</ele>
        <time>2020-08-13T17:40:15.000Z</time>
      </trkpt>
      <trkpt lat="43.93024" lon="1.82796">
        <ele>277</ele>
        <time>2020-08-13T17:40:16.000Z</time>
      </trkpt>
      <trkpt lat="43.93023" lon="1.82792">
        <ele>277</ele>
        <time>2020-08-13T17:40:17.000Z</time>
      </trkpt>
      <trkpt lat="43.93023" lon="1.82787">
        <ele>277.20001220703</ele>
        <time>2020-08-13T17:40:18.000Z</time>
      </trkpt>
      <trkpt lat="43.93023" lon="1.82783">
        <ele>277</ele>
        <time>2020-08-13T17:40:19.000Z</time>
      </trkpt>
      <trkpt lat="43.93023" lon="1.82778">
        <ele>277</ele>
        <time>2020-08-13T17:40:20.000Z</time>
      </trkpt>
      <trkpt lat="43.93023" lon="1.82772">
        <ele>277</ele>
        <time>2020-08-13T17:40:21.000Z</time>
      </trkpt>
      <trkpt lat="43.93023" lon="1.82767">
        <ele>276.79998779297</ele>
        <time>2020-08-13T17:40:22.000Z</time>
      </trkpt>
      <trkpt lat="43.93022" lon="1.82761">
        <ele>276.79998779297</ele>
        <time>2020-08-13T17:40:23.000Z</time>
      </trkpt>
      <trkpt lat="43.93022" lon="1.82756">
        <ele>276.79998779297</ele>
        <time>2020-08-13T17:40:24.000Z</time>
      </trkpt>
      <trkpt lat="43.93021" lon="1.82752">
        <ele>276.79998779297</ele>
        <time>2020-08-13T17:40:25.000Z</time>
      </trkpt>
      <trkpt lat="43.93022" lon="1.82746">
        <ele>276.79998779297</ele>
        <time>2020-08-13T17:40:26.000Z</time>
      </trkpt>
      <trkpt lat="43.93022" lon="1.82741">
        <ele>276.79998779297</ele>
        <time>2020-08-13T17:40:27.000Z</time>
      </trkpt>
      <trkpt lat="43.93023" lon="1.82737">
        <ele>277</ele>
        <time>2020-08-13T17:40:28.000Z</time>
      </trkpt>
      <trkpt lat="43.93024" lon="1.82731">
        <ele>276.79998779297</ele>
        <time>2020-08-13T17:40:29.000Z</time>
      </trkpt>
      <trkpt lat="43.93025" lon="1.82727">
        <ele>276.60000610352</ele>
        <time>2020-08-13T17:40:30.000Z</time>
      </trkpt>
      <trkpt lat="43.93026" lon="1.82723">
        <ele>276.39999389648</ele>
        <time>2020-08-13T17:40:31.000Z</time>
      </trkpt>
      <trkpt lat="43.93026" lon="1.8272">
        <ele>276.60000610352</ele>
        <time>2020-08-13T17:40:32.000Z</time>
      </trkpt>
      <trkpt lat="43.93027" lon="1.82716">
        <ele>276.39999389648</ele>
        <time>2020-08-13T17:40:33.000Z</time>
      </trkpt>
      <trkpt lat="43.93027" lon="1.82713">
        <ele>276.39999389648</ele>
        <time>2020-08-13T17:40:34.000Z</time>
      </trkpt>
      <trkpt lat="43.93027" lon="1.8271">
        <ele>276.60000610352</ele>
        <time>2020-08-13T17:40:35.000Z</time>
      </trkpt>
      <trkpt lat="43.93027" lon="1.82706">
        <ele>276.60000610352</ele>
        <time>2020-08-13T17:40:36.000Z</time>
      </trkpt>
      <trkpt lat="43.93028" lon="1.82701">
        <ele>276.60000610352</ele>
        <time>2020-08-13T17:40:37.000Z</time>
      </trkpt>
      <trkpt lat="43.93029" lon="1.82697">
        <ele>276.60000610352</ele>
        <time>2020-08-13T17:40:38.000Z</time>
      </trkpt>
      <trkpt lat="43.9303" lon="1.82692">
        <ele>276.79998779297</ele>
        <time>2020-08-13T17:40:39.000Z</time>
      </trkpt>
      <trkpt lat="43.9303" lon="1.82688">
        <ele>276.79998779297</ele>
        <time>2020-08-13T17:40:40.000Z</time>
      </trkpt>
      <trkpt lat="43.93031" lon="1.82683">
        <ele>276.79998779297</ele>
        <time>2020-08-13T17:40:41.000Z</time>
      </trkpt>
      <trkpt lat="43.93032" lon="1.82679">
        <ele>276.79998779297</ele>
        <time>2020-08-13T17:40:42.000Z</time>
      </trkpt>
      <trkpt lat="43.93032" lon="1.82675">
        <ele>276.79998779297</ele>
        <time>2020-08-13T17:40:43.000Z</time>
      </trkpt>
      <trkpt lat="43.93033" lon="1.82671">
        <ele>276.79998779297</ele>
        <time>2020-08-13T17:40:44.000Z</time>
      </trkpt>
      <trkpt lat="43.93034" lon="1.82667">
        <ele>276.79998779297</ele>
        <time>2020-08-13T17:40:45.000Z</time>
      </trkpt>
      <trkpt lat="43.93034" lon="1.82662">
        <ele>276.79998779297</ele>
        <time>2020-08-13T17:40:46.000Z</time>
      </trkpt>
      <trkpt lat="43.93035" lon="1.82658">
        <ele>277</ele>
        <time>2020-08-13T17:40:47.000Z</time>
      </trkpt>
      <trkpt lat="43.93035" lon="1.82653">
        <ele>277</ele>
        <time>2020-08-13T17:40:48.000Z</time>
      </trkpt>
      <trkpt lat="43.93036" lon="1.82649">
        <ele>277</ele>
        <time>2020-08-13T17:40:49.000Z</time>
      </trkpt>
      <trkpt lat="43.93038" lon="1.82644">
        <ele>277</ele>
        <time>2020-08-13T17:40:50.000Z</time>
      </trkpt>
      <trkpt lat="43.93039" lon="1.82639">
        <ele>277</ele>
        <time>2020-08-13T17:40:51.000Z</time>
      </trkpt>
      <trkpt lat="43.9304" lon="1.82634">
        <ele>277</ele>
        <time>2020-08-13T17:40:52.000Z</time>
      </trkpt>
      <trkpt lat="43.93042" lon="1.82628">
        <ele>276.79998779297</ele>
        <time>2020-08-13T17:40:53.000Z</time>
      </trkpt>
      <trkpt lat="43.93043" lon="1.82621">
        <ele>277</ele>
        <time>2020-08-13T17:40:54.000Z</time>
      </trkpt>
      <trkpt lat="43.93043" lon="1.82615">
        <ele>276.79998779297</ele>
        <time>2020-08-13T17:40:55.000Z</time>
      </trkpt>
      <trkpt lat="43.93044" lon="1.82609">
        <ele>277</ele>
        <time>2020-08-13T17:40:56.000Z</time>
      </trkpt>
      <trkpt lat="43.93045" lon="1.82604">
        <ele>276.79998779297</ele>
        <time>2020-08-13T17:40:57.000Z</time>
      </trkpt>
      <trkpt lat="43.93046" lon="1.82599">
        <ele>276.79998779297</ele>
        <time>2020-08-13T17:40:58.000Z</time>
      </trkpt>
      <trkpt lat="43.93046" lon="1.82595">
        <ele>276.60000610352</ele>
        <time>2020-08-13T17:40:59.000Z</time>
      </trkpt>
      <trkpt lat="43.93047" lon="1.8259">
        <ele>276.60000610352</ele>
        <time>2020-08-13T17:41:00.000Z</time>
      </trkpt>
      <trkpt lat="43.93048" lon="1.82584">
        <ele>276.39999389648</ele>
        <time>2020-08-13T17:41:01.000Z</time>
      </trkpt>
      <trkpt lat="43.9305" lon="1.82579">
        <ele>276.39999389648</ele>
        <time>2020-08-13T17:41:02.000Z</time>
      </trkpt>
      <trkpt lat="43.93051" lon="1.82573">
        <ele>276.39999389648</ele>
        <time>2020-08-13T17:41:03.000Z</time>
      </trkpt>
      <trkpt lat="43.93052" lon="1.82567">
        <ele>276.20001220703</ele>
        <time>2020-08-13T17:41:04.000Z</time>
      </trkpt>
      <trkpt lat="43.93053" lon="1.82561">
        <ele>276</ele>
        <time>2020-08-13T17:41:05.000Z</time>
      </trkpt>
      <trkpt lat="43.93054" lon="1.82554">
        <ele>275.79998779297</ele>
        <time>2020-08-13T17:41:06.000Z</time>
      </trkpt>
      <trkpt lat="43.93055" lon="1.82548">
        <ele>275.60000610352</ele>
        <time>2020-08-13T17:41:07.000Z</time>
      </trkpt>
      <trkpt lat="43.93056" lon="1.82541">
        <ele>275.39999389648</ele>
        <time>2020-08-13T17:41:08.000Z</time>
      </trkpt>
      <trkpt lat="43.93057" lon="1.82534">
        <ele>275.20001220703</ele>
        <time>2020-08-13T17:41:09.000Z</time>
      </trkpt>
      <trkpt lat="43.93058" lon="1.82528">
        <ele>275.20001220703</ele>
        <time>2020-08-13T17:41:10.000Z</time>
      </trkpt>
      <trkpt lat="43.93057" lon="1.82522">
        <ele>275</ele>
        <time>2020-08-13T17:41:11.000Z</time>
      </trkpt>
      <trkpt lat="43.93055" lon="1.82517">
        <ele>274.79998779297</ele>
        <time>2020-08-13T17:41:12.000Z</time>
      </trkpt>
      <trkpt lat="43.93051" lon="1.82514">
        <ele>274.79998779297</ele>
        <time>2020-08-13T17:41:13.000Z</time>
      </trkpt>
      <trkpt lat="43.93048" lon="1.82511">
        <ele>274.60000610352</ele>
        <time>2020-08-13T17:41:14.000Z</time>
      </trkpt>
      <trkpt lat="43.93044" lon="1.82508">
        <ele>274.60000610352</ele>
        <time>2020-08-13T17:41:15.000Z</time>
      </trkpt>
      <trkpt lat="43.93039" lon="1.82506">
        <ele>274.39999389648</ele>
        <time>2020-08-13T17:41:16.000Z</time>
      </trkpt>
      <trkpt lat="43.93035" lon="1.82504">
        <ele>274.39999389648</ele>
        <time>2020-08-13T17:41:17.000Z</time>
      </trkpt>
      <trkpt lat="43.93032" lon="1.82503">
        <ele>274.39999389648</ele>
        <time>2020-08-13T17:41:18.000Z</time>
      </trkpt>
      <trkpt lat="43.93028" lon="1.82503">
        <ele>274.60000610352</ele>
        <time>2020-08-13T17:41:19.000Z</time>
      </trkpt>
      <trkpt lat="43.93024" lon="1.82502">
        <ele>274.60000610352</ele>
        <time>2020-08-13T17:41:20.000Z</time>
      </trkpt>
      <trkpt lat="43.93021" lon="1.82502">
        <ele>274.60000610352</ele>
        <time>2020-08-13T17:41:21.000Z</time>
      </trkpt>
      <trkpt lat="43.93018" lon="1.82501">
        <ele>274.79998779297</ele>
        <time>2020-08-13T17:41:22.000Z</time>
      </trkpt>
      <trkpt lat="43.93016" lon="1.82501">
        <ele>274.79998779297</ele>
        <time>2020-08-13T17:41:23.000Z</time>
      </trkpt>
      <trkpt lat="43.93013" lon="1.82501">
        <ele>274.79998779297</ele>
        <time>2020-08-13T17:41:24.000Z</time>
      </trkpt>
      <trkpt lat="43.9301" lon="1.825">
        <ele>274.79998779297</ele>
        <time>2020-08-13T17:41:25.000Z</time>
      </trkpt>
      <trkpt lat="43.93007" lon="1.82499">
        <ele>274.79998779297</ele>
        <time>2020-08-13T17:41:26.000Z</time>
      </trkpt>
      <trkpt lat="43.93005" lon="1.82498">
        <ele>274.79998779297</ele>
        <time>2020-08-13T17:41:27.000Z</time>
      </trkpt>
      <trkpt lat="43.93002" lon="1.82497">
        <ele>274.79998779297</ele>
        <time>2020-08-13T17:41:28.000Z</time>
      </trkpt>
      <trkpt lat="43.92999" lon="1.82497">
        <ele>275</ele>
        <time>2020-08-13T17:41:29.000Z</time>
      </trkpt>
      <trkpt lat="43.92995" lon="1.82496">
        <ele>275</ele>
        <time>2020-08-13T17:41:30.000Z</time>
      </trkpt>
      <trkpt lat="43.92992" lon="1.82495">
        <ele>274.79998779297</ele>
        <time>2020-08-13T17:41:31.000Z</time>
      </trkpt>
      <trkpt lat="43.92988" lon="1.82493">
        <ele>274.60000610352</ele>
        <time>2020-08-13T17:41:32.000Z</time>
      </trkpt>
      <trkpt lat="43.92985" lon="1.82489">
        <ele>274.39999389648</ele>
        <time>2020-08-13T17:41:33.000Z</time>
      </trkpt>
      <trkpt lat="43.92983" lon="1.82484">
        <ele>274.20001220703</ele>
        <time>2020-08-13T17:41:34.000Z</time>
      </trkpt>
      <trkpt lat="43.92982" lon="1.82479">
        <ele>273.79998779297</ele>
        <time>2020-08-13T17:41:35.000Z</time>
      </trkpt>
      <trkpt lat="43.92982" lon="1.82473">
        <ele>273.39999389648</ele>
        <time>2020-08-13T17:41:36.000Z</time>
      </trkpt>
      <trkpt lat="43.92982" lon="1.82466">
        <ele>273.39999389648</ele>
        <time>2020-08-13T17:41:37.000Z</time>
      </trkpt>
      <trkpt lat="43.92981" lon="1.8246">
        <ele>273.60000610352</ele>
        <time>2020-08-13T17:41:38.000Z</time>
      </trkpt>
      <trkpt lat="43.9298" lon="1.82454">
        <ele>273.60000610352</ele>
        <time>2020-08-13T17:41:39.000Z</time>
      </trkpt>
      <trkpt lat="43.92978" lon="1.82448">
        <ele>273.39999389648</ele>
        <time>2020-08-13T17:41:40.000Z</time>
      </trkpt>
      <trkpt lat="43.92975" lon="1.82442">
        <ele>273.20001220703</ele>
        <time>2020-08-13T17:41:41.000Z</time>
      </trkpt>
      <trkpt lat="43.92972" lon="1.82436">
        <ele>273</ele>
        <time>2020-08-13T17:41:42.000Z</time>
      </trkpt>
      <trkpt lat="43.92968" lon="1.82431">
        <ele>273</ele>
        <time>2020-08-13T17:41:43.000Z</time>
      </trkpt>
      <trkpt lat="43.92964" lon="1.82426">
        <ele>273</ele>
        <time>2020-08-13T17:41:44.000Z</time>
      </trkpt>
      <trkpt lat="43.92961" lon="1.82421">
        <ele>273</ele>
        <time>2020-08-13T17:41:45.000Z</time>
      </trkpt>
      <trkpt lat="43.92958" lon="1.82416">
        <ele>272.79998779297</ele>
        <time>2020-08-13T17:41:46.000Z</time>
      </trkpt>
      <trkpt lat="43.92956" lon="1.8241">
        <ele>272.60000610352</ele>
        <time>2020-08-13T17:41:47.000Z</time>
      </trkpt>
      <trkpt lat="43.92955" lon="1.82406">
        <ele>272.39999389648</ele>
        <time>2020-08-13T17:41:48.000Z</time>
      </trkpt>
      <trkpt lat="43.92956" lon="1.82402">
        <ele>272.39999389648</ele>
        <time>2020-08-13T17:41:49.000Z</time>
      </trkpt>
      <trkpt lat="43.92957" lon="1.82398">
        <ele>272.20001220703</ele>
        <time>2020-08-13T17:41:50.000Z</time>
      </trkpt>
      <trkpt lat="43.92958" lon="1.82395">
        <ele>271.79998779297</ele>
        <time>2020-08-13T17:41:51.000Z</time>
      </trkpt>
      <trkpt lat="43.9296" lon="1.8239">
        <ele>271.60000610352</ele>
        <time>2020-08-13T17:41:52.000Z</time>
      </trkpt>
      <trkpt lat="43.92962" lon="1.82386">
        <ele>271.20001220703</ele>
        <time>2020-08-13T17:41:53.000Z</time>
      </trkpt>
      <trkpt lat="43.92964" lon="1.82381">
        <ele>271.20001220703</ele>
        <time>2020-08-13T17:41:54.000Z</time>
      </trkpt>
      <trkpt lat="43.92966" lon="1.82376">
        <ele>270.79998779297</ele>
        <time>2020-08-13T17:41:55.000Z</time>
      </trkpt>
      <trkpt lat="43.92969" lon="1.82369">
        <ele>270.39999389648</ele>
        <time>2020-08-13T17:41:56.000Z</time>
      </trkpt>
      <trkpt lat="43.92971" lon="1.82363">
        <ele>270.20001220703</ele>
        <time>2020-08-13T17:41:57.000Z</time>
      </trkpt>
      <trkpt lat="43.92972" lon="1.82358">
        <ele>269.79998779297</ele>
        <time>2020-08-13T17:41:58.000Z</time>
      </trkpt>
      <trkpt lat="43.92974" lon="1.82353">
        <ele>269.60000610352</ele>
        <time>2020-08-13T17:41:59.000Z</time>
      </trkpt>
      <trkpt lat="43.92974" lon="1.82348">
        <ele>269.39999389648</ele>
        <time>2020-08-13T17:42:00.000Z</time>
      </trkpt>
      <trkpt lat="43.92975" lon="1.82344">
        <ele>269.39999389648</ele>
        <time>2020-08-13T17:42:01.000Z</time>
      </trkpt>
      <trkpt lat="43.92975" lon="1.8234">
        <ele>269.39999389648</ele>
        <time>2020-08-13T17:42:02.000Z</time>
      </trkpt>
      <trkpt lat="43.92976" lon="1.82337">
        <ele>269.39999389648</ele>
        <time>2020-08-13T17:42:03.000Z</time>
      </trkpt>
      <trkpt lat="43.92976" lon="1.82335">
        <ele>269.39999389648</ele>
        <time>2020-08-13T17:42:04.000Z</time>
      </trkpt>
      <trkpt lat="43.92977" lon="1.82332">
        <ele>269.39999389648</ele>
        <time>2020-08-13T17:42:05.000Z</time>
      </trkpt>
      <trkpt lat="43.92978" lon="1.8233">
        <ele>269.20001220703</ele>
        <time>2020-08-13T17:42:06.000Z</time>
      </trkpt>
      <trkpt lat="43.92979" lon="1.82327">
        <ele>269.39999389648</ele>
        <time>2020-08-13T17:42:07.000Z</time>
      </trkpt>
      <trkpt lat="43.92978" lon="1.82325">
        <ele>269.39999389648</ele>
        <time>2020-08-13T17:42:08.000Z</time>
      </trkpt>
      <trkpt lat="43.92978" lon="1.82323">
        <ele>269.20001220703</ele>
        <time>2020-08-13T17:42:09.000Z</time>
      </trkpt>
      <trkpt lat="43.92978" lon="1.82321">
        <ele>269</ele>
        <time>2020-08-13T17:42:10.000Z</time>
      </trkpt>
      <trkpt lat="43.92978" lon="1.82319">
        <ele>269</ele>
        <time>2020-08-13T17:42:11.000Z</time>
      </trkpt>
      <trkpt lat="43.92978" lon="1.82316">
        <ele>269.20001220703</ele>
        <time>2020-08-13T17:42:12.000Z</time>
      </trkpt>
      <trkpt lat="43.92978" lon="1.82314">
        <ele>269.20001220703</ele>
        <time>2020-08-13T17:42:13.000Z</time>
      </trkpt>
      <trkpt lat="43.92978" lon="1.82311">
        <ele>269</ele>
        <time>2020-08-13T17:42:14.000Z</time>
      </trkpt>
      <trkpt lat="43.92978" lon="1.82309">
        <ele>269</ele>
        <time>2020-08-13T17:42:15.000Z</time>
      </trkpt>
      <trkpt lat="43.92978" lon="1.82307">
        <ele>269</ele>
        <time>2020-08-13T17:42:16.000Z</time>
      </trkpt>
      <trkpt lat="43.92978" lon="1.82304">
        <ele>269.20001220703</ele>
        <time>2020-08-13T17:42:17.000Z</time>
      </trkpt>
      <trkpt lat="43.92978" lon="1.82301">
        <ele>269.20001220703</ele>
        <time>2020-08-13T17:42:18.000Z</time>
      </trkpt>
      <trkpt lat="43.92978" lon="1.82298">
        <ele>269.20001220703</ele>
        <time>2020-08-13T17:42:19.000Z</time>
      </trkpt>
      <trkpt lat="43.92978" lon="1.82294">
        <ele>269.20001220703</ele>
        <time>2020-08-13T17:42:20.000Z</time>
      </trkpt>
      <trkpt lat="43.92978" lon="1.8229">
        <ele>269.20001220703</ele>
        <time>2020-08-13T17:42:21.000Z</time>
      </trkpt>
      <trkpt lat="43.92978" lon="1.82285">
        <ele>269.20001220703</ele>
        <time>2020-08-13T17:42:22.000Z</time>
      </trkpt>
      <trkpt lat="43.92979" lon="1.82278">
        <ele>269.60000610352</ele>
        <time>2020-08-13T17:42:23.000Z</time>
      </trkpt>
      <trkpt lat="43.92979" lon="1.82272">
        <ele>269.79998779297</ele>
        <time>2020-08-13T17:42:24.000Z</time>
      </trkpt>
      <trkpt lat="43.92979" lon="1.82267">
        <ele>269.79998779297</ele>
        <time>2020-08-13T17:42:25.000Z</time>
      </trkpt>
      <trkpt lat="43.92979" lon="1.82262">
        <ele>269.79998779297</ele>
        <time>2020-08-13T17:42:26.000Z</time>
      </trkpt>
      <trkpt lat="43.9298" lon="1.82258">
        <ele>270</ele>
        <time>2020-08-13T17:42:27.000Z</time>
      </trkpt>
      <trkpt lat="43.9298" lon="1.82253">
        <ele>270.20001220703</ele>
        <time>2020-08-13T17:42:28.000Z</time>
      </trkpt>
      <trkpt lat="43.92981" lon="1.82249">
        <ele>270.39999389648</ele>
        <time>2020-08-13T17:42:29.000Z</time>
      </trkpt>
      <trkpt lat="43.92982" lon="1.82245">
        <ele>270.60000610352</ele>
        <time>2020-08-13T17:42:30.000Z</time>
      </trkpt>
      <trkpt lat="43.92982" lon="1.82241">
        <ele>270.79998779297</ele>
        <time>2020-08-13T17:42:31.000Z</time>
      </trkpt>
      <trkpt lat="43.92983" lon="1.82237">
        <ele>271</ele>
        <time>2020-08-13T17:42:32.000Z</time>
      </trkpt>
      <trkpt lat="43.92983" lon="1.82233">
        <ele>271.20001220703</ele>
        <time>2020-08-13T17:42:33.000Z</time>
      </trkpt>
      <trkpt lat="43.92984" lon="1.8223">
        <ele>271.20001220703</ele>
        <time>2020-08-13T17:42:34.000Z</time>
      </trkpt>
      <trkpt lat="43.92984" lon="1.82227">
        <ele>271.39999389648</ele>
        <time>2020-08-13T17:42:35.000Z</time>
      </trkpt>
      <trkpt lat="43.92984" lon="1.82224">
        <ele>271.39999389648</ele>
        <time>2020-08-13T17:42:36.000Z</time>
      </trkpt>
      <trkpt lat="43.92985" lon="1.82221">
        <ele>271.60000610352</ele>
        <time>2020-08-13T17:42:37.000Z</time>
      </trkpt>
      <trkpt lat="43.92985" lon="1.82219">
        <ele>271.60000610352</ele>
        <time>2020-08-13T17:42:38.000Z</time>
      </trkpt>
      <trkpt lat="43.92986" lon="1.82216">
        <ele>271.79998779297</ele>
        <time>2020-08-13T17:42:39.000Z</time>
      </trkpt>
      <trkpt lat="43.92986" lon="1.82213">
        <ele>271.79998779297</ele>
        <time>2020-08-13T17:42:40.000Z</time>
      </trkpt>
      <trkpt lat="43.92987" lon="1.82211">
        <ele>271.79998779297</ele>
        <time>2020-08-13T17:42:41.000Z</time>
      </trkpt>
      <trkpt lat="43.92987" lon="1.82209">
        <ele>271.79998779297</ele>
        <time>2020-08-13T17:42:42.000Z</time>
      </trkpt>
      <trkpt lat="43.92988" lon="1.82208">
        <ele>271.79998779297</ele>
        <time>2020-08-13T17:42:43.000Z</time>
      </trkpt>
      <trkpt lat="43.92988" lon="1.82205">
        <ele>271.79998779297</ele>
        <time>2020-08-13T17:42:44.000Z</time>
      </trkpt>
      <trkpt lat="43.92988" lon="1.822">
        <ele>271.79998779297</ele>
        <time>2020-08-13T17:42:45.000Z</time>
      </trkpt>
      <trkpt lat="43.92989" lon="1.82195">
        <ele>271.60000610352</ele>
        <time>2020-08-13T17:42:46.000Z</time>
      </trkpt>
      <trkpt lat="43.9299" lon="1.8219">
        <ele>271.79998779297</ele>
        <time>2020-08-13T17:42:47.000Z</time>
      </trkpt>
      <trkpt lat="43.9299" lon="1.82186">
        <ele>271.79998779297</ele>
        <time>2020-08-13T17:42:48.000Z</time>
      </trkpt>
      <trkpt lat="43.9299" lon="1.8218">
        <ele>271.60000610352</ele>
        <time>2020-08-13T17:42:49.000Z</time>
      </trkpt>
      <trkpt lat="43.92991" lon="1.82175">
        <ele>271.79998779297</ele>
        <time>2020-08-13T17:42:50.000Z</time>
      </trkpt>
      <trkpt lat="43.92991" lon="1.82169">
        <ele>271.60000610352</ele>
        <time>2020-08-13T17:42:51.000Z</time>
      </trkpt>
      <trkpt lat="43.9299" lon="1.82163">
        <ele>271.60000610352</ele>
        <time>2020-08-13T17:42:52.000Z</time>
      </trkpt>
      <trkpt lat="43.9299" lon="1.82158">
        <ele>271.60000610352</ele>
        <time>2020-08-13T17:42:53.000Z</time>
      </trkpt>
      <trkpt lat="43.92989" lon="1.82152">
        <ele>271.60000610352</ele>
        <time>2020-08-13T17:42:54.000Z</time>
      </trkpt>
      <trkpt lat="43.92988" lon="1.82147">
        <ele>271.39999389648</ele>
        <time>2020-08-13T17:42:55.000Z</time>
      </trkpt>
      <trkpt lat="43.92986" lon="1.82142">
        <ele>271.20001220703</ele>
        <time>2020-08-13T17:42:56.000Z</time>
      </trkpt>
      <trkpt lat="43.92984" lon="1.82137">
        <ele>271</ele>
        <time>2020-08-13T17:42:57.000Z</time>
      </trkpt>
      <trkpt lat="43.92982" lon="1.82132">
        <ele>271</ele>
        <time>2020-08-13T17:42:58.000Z</time>
      </trkpt>
      <trkpt lat="43.9298" lon="1.82127">
        <ele>270.79998779297</ele>
        <time>2020-08-13T17:42:59.000Z</time>
      </trkpt>
      <trkpt lat="43.92979" lon="1.82122">
        <ele>271</ele>
        <time>2020-08-13T17:43:00.000Z</time>
      </trkpt>
      <trkpt lat="43.92977" lon="1.82116">
        <ele>270.79998779297</ele>
        <time>2020-08-13T17:43:01.000Z</time>
      </trkpt>
      <trkpt lat="43.92974" lon="1.82111">
        <ele>270.20001220703</ele>
        <time>2020-08-13T17:43:02.000Z</time>
      </trkpt>
      <trkpt lat="43.92972" lon="1.82106">
        <ele>269.60000610352</ele>
        <time>2020-08-13T17:43:03.000Z</time>
      </trkpt>
      <trkpt lat="43.9297" lon="1.821">
        <ele>269</ele>
        <time>2020-08-13T17:43:04.000Z</time>
      </trkpt>
      <trkpt lat="43.92967" lon="1.82095">
        <ele>268.60000610352</ele>
        <time>2020-08-13T17:43:05.000Z</time>
      </trkpt>
      <trkpt lat="43.92964" lon="1.8209">
        <ele>268.39999389648</ele>
        <time>2020-08-13T17:43:06.000Z</time>
      </trkpt>
      <trkpt lat="43.92962" lon="1.82085">
        <ele>268</ele>
        <time>2020-08-13T17:43:07.000Z</time>
      </trkpt>
      <trkpt lat="43.92959" lon="1.82079">
        <ele>267.60000610352</ele>
        <time>2020-08-13T17:43:08.000Z</time>
      </trkpt>
      <trkpt lat="43.92957" lon="1.82073">
        <ele>267.60000610352</ele>
        <time>2020-08-13T17:43:09.000Z</time>
      </trkpt>
      <trkpt lat="43.92955" lon="1.82067">
        <ele>267.39999389648</ele>
        <time>2020-08-13T17:43:10.000Z</time>
      </trkpt>
      <trkpt lat="43.92954" lon="1.8206">
        <ele>267</ele>
        <time>2020-08-13T17:43:11.000Z</time>
      </trkpt>
      <trkpt lat="43.92952" lon="1.82054">
        <ele>266.60000610352</ele>
        <time>2020-08-13T17:43:12.000Z</time>
      </trkpt>
      <trkpt lat="43.92951" lon="1.82047">
        <ele>266.39999389648</ele>
        <time>2020-08-13T17:43:13.000Z</time>
      </trkpt>
      <trkpt lat="43.92949" lon="1.82042">
        <ele>266.39999389648</ele>
        <time>2020-08-13T17:43:14.000Z</time>
      </trkpt>
      <trkpt lat="43.92947" lon="1.82036">
        <ele>266.20001220703</ele>
        <time>2020-08-13T17:43:15.000Z</time>
      </trkpt>
      <trkpt lat="43.92945" lon="1.8203">
        <ele>266.20001220703</ele>
        <time>2020-08-13T17:43:16.000Z</time>
      </trkpt>
      <trkpt lat="43.92942" lon="1.82024">
        <ele>266</ele>
        <time>2020-08-13T17:43:17.000Z</time>
      </trkpt>
      <trkpt lat="43.9294" lon="1.82019">
        <ele>265.79998779297</ele>
        <time>2020-08-13T17:43:18.000Z</time>
      </trkpt>
      <trkpt lat="43.92937" lon="1.82014">
        <ele>265.60000610352</ele>
        <time>2020-08-13T17:43:19.000Z</time>
      </trkpt>
      <trkpt lat="43.92934" lon="1.82009">
        <ele>265.39999389648</ele>
        <time>2020-08-13T17:43:20.000Z</time>
      </trkpt>
      <trkpt lat="43.92932" lon="1.82004">
        <ele>265.39999389648</ele>
        <time>2020-08-13T17:43:21.000Z</time>
      </trkpt>
      <trkpt lat="43.92929" lon="1.82">
        <ele>265.39999389648</ele>
        <time>2020-08-13T17:43:22.000Z</time>
      </trkpt>
      <trkpt lat="43.92926" lon="1.81996">
        <ele>265.39999389648</ele>
        <time>2020-08-13T17:43:23.000Z</time>
      </trkpt>
      <trkpt lat="43.92924" lon="1.81992">
        <ele>265.20001220703</ele>
        <time>2020-08-13T17:43:24.000Z</time>
      </trkpt>
      <trkpt lat="43.92921" lon="1.81989">
        <ele>265.20001220703</ele>
        <time>2020-08-13T17:43:25.000Z</time>
      </trkpt>
      <trkpt lat="43.92919" lon="1.81985">
        <ele>265.39999389648</ele>
        <time>2020-08-13T17:43:26.000Z</time>
      </trkpt>
      <trkpt lat="43.92916" lon="1.81982">
        <ele>265.60000610352</ele>
        <time>2020-08-13T17:43:27.000Z</time>
      </trkpt>
      <trkpt lat="43.92914" lon="1.81979">
        <ele>265.79998779297</ele>
        <time>2020-08-13T17:43:28.000Z</time>
      </trkpt>
      <trkpt lat="43.92912" lon="1.81976">
        <ele>265.79998779297</ele>
        <time>2020-08-13T17:43:29.000Z</time>
      </trkpt>
      <trkpt lat="43.9291" lon="1.81972">
        <ele>266</ele>
        <time>2020-08-13T17:43:30.000Z</time>
      </trkpt>
      <trkpt lat="43.92908" lon="1.81969">
        <ele>266.20001220703</ele>
        <time>2020-08-13T17:43:31.000Z</time>
      </trkpt>
      <trkpt lat="43.92907" lon="1.81965">
        <ele>266.20001220703</ele>
        <time>2020-08-13T17:43:32.000Z</time>
      </trkpt>
      <trkpt lat="43.92905" lon="1.81962">
        <ele>266.60000610352</ele>
        <time>2020-08-13T17:43:33.000Z</time>
      </trkpt>
      <trkpt lat="43.92903" lon="1.8196">
        <ele>267</ele>
        <time>2020-08-13T17:43:34.000Z</time>
      </trkpt>
      <trkpt lat="43.92902" lon="1.81958">
        <ele>267.20001220703</ele>
        <time>2020-08-13T17:43:35.000Z</time>
      </trkpt>
      <trkpt lat="43.92901" lon="1.81956">
        <ele>267.60000610352</ele>
        <time>2020-08-13T17:43:36.000Z</time>
      </trkpt>
      <trkpt lat="43.929" lon="1.81954">
        <ele>267.79998779297</ele>
        <time>2020-08-13T17:43:37.000Z</time>
      </trkpt>
      <trkpt lat="43.92899" lon="1.81953">
        <ele>268</ele>
        <time>2020-08-13T17:43:38.000Z</time>
      </trkpt>
      <trkpt lat="43.92898" lon="1.81951">
        <ele>268.20001220703</ele>
        <time>2020-08-13T17:43:39.000Z</time>
      </trkpt>
      <trkpt lat="43.92896" lon="1.8195">
        <ele>268.39999389648</ele>
        <time>2020-08-13T17:43:40.000Z</time>
      </trkpt>
      <trkpt lat="43.92895" lon="1.81949">
        <ele>268.60000610352</ele>
        <time>2020-08-13T17:43:41.000Z</time>
      </trkpt>
      <trkpt lat="43.92893" lon="1.81947">
        <ele>269</ele>
        <time>2020-08-13T17:43:42.000Z</time>
      </trkpt>
      <trkpt lat="43.92892" lon="1.81945">
        <ele>269.20001220703</ele>
        <time>2020-08-13T17:43:43.000Z</time>
      </trkpt>
      <trkpt lat="43.92891" lon="1.81942">
        <ele>269.20001220703</ele>
        <time>2020-08-13T17:43:44.000Z</time>
      </trkpt>
      <trkpt lat="43.9289" lon="1.8194">
        <ele>269.39999389648</ele>
        <time>2020-08-13T17:43:45.000Z</time>
      </trkpt>
      <trkpt lat="43.92889" lon="1.81938">
        <ele>269.60000610352</ele>
        <time>2020-08-13T17:43:46.000Z</time>
      </trkpt>
      <trkpt lat="43.92888" lon="1.81935">
        <ele>269.79998779297</ele>
        <time>2020-08-13T17:43:47.000Z</time>
      </trkpt>
      <trkpt lat="43.92887" lon="1.81933">
        <ele>270</ele>
        <time>2020-08-13T17:43:48.000Z</time>
      </trkpt>
      <trkpt lat="43.92886" lon="1.8193">
        <ele>270.20001220703</ele>
        <time>2020-08-13T17:43:49.000Z</time>
      </trkpt>
      <trkpt lat="43.92885" lon="1.81928">
        <ele>270.20001220703</ele>
        <time>2020-08-13T17:43:50.000Z</time>
      </trkpt>
      <trkpt lat="43.92884" lon="1.81925">
        <ele>270.20001220703</ele>
        <time>2020-08-13T17:43:51.000Z</time>
      </trkpt>
      <trkpt lat="43.92884" lon="1.81922">
        <ele>270</ele>
        <time>2020-08-13T17:43:52.000Z</time>
      </trkpt>
      <trkpt lat="43.92883" lon="1.8192">
        <ele>270</ele>
        <time>2020-08-13T17:43:53.000Z</time>
      </trkpt>
      <trkpt lat="43.92883" lon="1.81917">
        <ele>270</ele>
        <time>2020-08-13T17:43:54.000Z</time>
      </trkpt>
      <trkpt lat="43.92883" lon="1.81913">
        <ele>269.79998779297</ele>
        <time>2020-08-13T17:43:55.000Z</time>
      </trkpt>
      <trkpt lat="43.92883" lon="1.81909">
        <ele>270</ele>
        <time>2020-08-13T17:43:56.000Z</time>
      </trkpt>
      <trkpt lat="43.92883" lon="1.81906">
        <ele>270</ele>
        <time>2020-08-13T17:43:57.000Z</time>
      </trkpt>
      <trkpt lat="43.92883" lon="1.81902">
        <ele>270.20001220703</ele>
        <time>2020-08-13T17:43:58.000Z</time>
      </trkpt>
      <trkpt lat="43.92883" lon="1.81898">
        <ele>270</ele>
        <time>2020-08-13T17:43:59.000Z</time>
      </trkpt>
      <trkpt lat="43.92883" lon="1.81894">
        <ele>269.79998779297</ele>
        <time>2020-08-13T17:44:00.000Z</time>
      </trkpt>
      <trkpt lat="43.92882" lon="1.81889">
        <ele>269.60000610352</ele>
        <time>2020-08-13T17:44:01.000Z</time>
      </trkpt>
      <trkpt lat="43.9288" lon="1.81882">
        <ele>269.60000610352</ele>
        <time>2020-08-13T17:44:02.000Z</time>
      </trkpt>
      <trkpt lat="43.92879" lon="1.81876">
        <ele>269.60000610352</ele>
        <time>2020-08-13T17:44:03.000Z</time>
      </trkpt>
      <trkpt lat="43.92877" lon="1.8187">
        <ele>269.39999389648</ele>
        <time>2020-08-13T17:44:04.000Z</time>
      </trkpt>
      <trkpt lat="43.92875" lon="1.81863">
        <ele>269.20001220703</ele>
        <time>2020-08-13T17:44:05.000Z</time>
      </trkpt>
      <trkpt lat="43.92874" lon="1.81857">
        <ele>269</ele>
        <time>2020-08-13T17:44:06.000Z</time>
      </trkpt>
      <trkpt lat="43.92873" lon="1.81851">
        <ele>269</ele>
        <time>2020-08-13T17:44:07.000Z</time>
      </trkpt>
      <trkpt lat="43.92872" lon="1.81845">
        <ele>268.79998779297</ele>
        <time>2020-08-13T17:44:08.000Z</time>
      </trkpt>
      <trkpt lat="43.92871" lon="1.81839">
        <ele>268.39999389648</ele>
        <time>2020-08-13T17:44:09.000Z</time>
      </trkpt>
      <trkpt lat="43.9287" lon="1.81833">
        <ele>268.20001220703</ele>
        <time>2020-08-13T17:44:10.000Z</time>
      </trkpt>
      <trkpt lat="43.92869" lon="1.81826">
        <ele>268</ele>
        <time>2020-08-13T17:44:11.000Z</time>
      </trkpt>
      <trkpt lat="43.92867" lon="1.81819">
        <ele>268</ele>
        <time>2020-08-13T17:44:12.000Z</time>
      </trkpt>
      <trkpt lat="43.92866" lon="1.81811">
        <ele>267.79998779297</ele>
        <time>2020-08-13T17:44:13.000Z</time>
      </trkpt>
      <trkpt lat="43.92864" lon="1.81801">
        <ele>267.39999389648</ele>
        <time>2020-08-13T17:44:14.000Z</time>
      </trkpt>
      <trkpt lat="43.92864" lon="1.81793">
        <ele>267.39999389648</ele>
        <time>2020-08-13T17:44:15.000Z</time>
      </trkpt>
      <trkpt lat="43.92863" lon="1.81785">
        <ele>267.39999389648</ele>
        <time>2020-08-13T17:44:16.000Z</time>
      </trkpt>
      <trkpt lat="43.92863" lon="1.81777">
        <ele>267.60000610352</ele>
        <time>2020-08-13T17:44:17.000Z</time>
      </trkpt>
      <trkpt lat="43.92863" lon="1.8177">
        <ele>267.39999389648</ele>
        <time>2020-08-13T17:44:18.000Z</time>
      </trkpt>
      <trkpt lat="43.92864" lon="1.81763">
        <ele>266.79998779297</ele>
        <time>2020-08-13T17:44:19.000Z</time>
      </trkpt>
      <trkpt lat="43.92865" lon="1.81757">
        <ele>266.79998779297</ele>
        <time>2020-08-13T17:44:20.000Z</time>
      </trkpt>
      <trkpt lat="43.92866" lon="1.8175">
        <ele>266.79998779297</ele>
        <time>2020-08-13T17:44:21.000Z</time>
      </trkpt>
      <trkpt lat="43.92867" lon="1.81744">
        <ele>266.60000610352</ele>
        <time>2020-08-13T17:44:22.000Z</time>
      </trkpt>
      <trkpt lat="43.92868" lon="1.81737">
        <ele>266.39999389648</ele>
        <time>2020-08-13T17:44:23.000Z</time>
      </trkpt>
      <trkpt lat="43.92869" lon="1.8173">
        <ele>266.20001220703</ele>
        <time>2020-08-13T17:44:24.000Z</time>
      </trkpt>
      <trkpt lat="43.9287" lon="1.81724">
        <ele>265.79998779297</ele>
        <time>2020-08-13T17:44:25.000Z</time>
      </trkpt>
      <trkpt lat="43.92871" lon="1.81717">
        <ele>266</ele>
        <time>2020-08-13T17:44:26.000Z</time>
      </trkpt>
      <trkpt lat="43.92872" lon="1.8171">
        <ele>265.60000610352</ele>
        <time>2020-08-13T17:44:27.000Z</time>
      </trkpt>
      <trkpt lat="43.92873" lon="1.81704">
        <ele>266</ele>
        <time>2020-08-13T17:44:28.000Z</time>
      </trkpt>
      <trkpt lat="43.92874" lon="1.81697">
        <ele>266</ele>
        <time>2020-08-13T17:44:29.000Z</time>
      </trkpt>
      <trkpt lat="43.92874" lon="1.81691">
        <ele>266.20001220703</ele>
        <time>2020-08-13T17:44:30.000Z</time>
      </trkpt>
      <trkpt lat="43.92875" lon="1.81685">
        <ele>266.20001220703</ele>
        <time>2020-08-13T17:44:31.000Z</time>
      </trkpt>
      <trkpt lat="43.92876" lon="1.81679">
        <ele>266.39999389648</ele>
        <time>2020-08-13T17:44:32.000Z</time>
      </trkpt>
      <trkpt lat="43.92876" lon="1.81673">
        <ele>266.39999389648</ele>
        <time>2020-08-13T17:44:33.000Z</time>
      </trkpt>
      <trkpt lat="43.92876" lon="1.81668">
        <ele>266.39999389648</ele>
        <time>2020-08-13T17:44:34.000Z</time>
      </trkpt>
      <trkpt lat="43.92876" lon="1.81662">
        <ele>266.20001220703</ele>
        <time>2020-08-13T17:44:35.000Z</time>
      </trkpt>
      <trkpt lat="43.92877" lon="1.81656">
        <ele>266.39999389648</ele>
        <time>2020-08-13T17:44:36.000Z</time>
      </trkpt>
      <trkpt lat="43.92878" lon="1.8165">
        <ele>266.79998779297</ele>
        <time>2020-08-13T17:44:37.000Z</time>
      </trkpt>
      <trkpt lat="43.92879" lon="1.81645">
        <ele>267</ele>
        <time>2020-08-13T17:44:38.000Z</time>
      </trkpt>
      <trkpt lat="43.92879" lon="1.81639">
        <ele>267.20001220703</ele>
        <time>2020-08-13T17:44:39.000Z</time>
      </trkpt>
      <trkpt lat="43.9288" lon="1.81634">
        <ele>267.20001220703</ele>
        <time>2020-08-13T17:44:40.000Z</time>
      </trkpt>
      <trkpt lat="43.92881" lon="1.81629">
        <ele>267.20001220703</ele>
        <time>2020-08-13T17:44:41.000Z</time>
      </trkpt>
      <trkpt lat="43.92882" lon="1.81625">
        <ele>267.39999389648</ele>
        <time>2020-08-13T17:44:42.000Z</time>
      </trkpt>
      <trkpt lat="43.92882" lon="1.8162">
        <ele>267.39999389648</ele>
        <time>2020-08-13T17:44:43.000Z</time>
      </trkpt>
      <trkpt lat="43.92883" lon="1.81615">
        <ele>267.39999389648</ele>
        <time>2020-08-13T17:44:44.000Z</time>
      </trkpt>
      <trkpt lat="43.92884" lon="1.81611">
        <ele>267.60000610352</ele>
        <time>2020-08-13T17:44:45.000Z</time>
      </trkpt>
      <trkpt lat="43.92885" lon="1.81606">
        <ele>267.39999389648</ele>
        <time>2020-08-13T17:44:46.000Z</time>
      </trkpt>
      <trkpt lat="43.92885" lon="1.81602">
        <ele>267.60000610352</ele>
        <time>2020-08-13T17:44:47.000Z</time>
      </trkpt>
      <trkpt lat="43.92885" lon="1.81599">
        <ele>267.60000610352</ele>
        <time>2020-08-13T17:44:48.000Z</time>
      </trkpt>
      <trkpt lat="43.92885" lon="1.81597">
        <ele>268</ele>
        <time>2020-08-13T17:44:49.000Z</time>
      </trkpt>
      <trkpt lat="43.92885" lon="1.81594">
        <ele>268.20001220703</ele>
        <time>2020-08-13T17:44:50.000Z</time>
      </trkpt>
      <trkpt lat="43.92885" lon="1.81592">
        <ele>268.20001220703</ele>
        <time>2020-08-13T17:44:51.000Z</time>
      </trkpt>
      <trkpt lat="43.92885" lon="1.81593">
        <ele>268.20001220703</ele>
        <time>2020-08-13T17:44:52.000Z</time>
      </trkpt>
      <trkpt lat="43.92885" lon="1.8159">
        <ele>268.39999389648</ele>
        <time>2020-08-13T17:44:53.000Z</time>
      </trkpt>
      <trkpt lat="43.92885" lon="1.8159">
        <ele>268.39999389648</ele>
        <time>2020-08-13T17:44:54.000Z</time>
      </trkpt>
      <trkpt lat="43.92885" lon="1.8159">
        <ele>268.39999389648</ele>
        <time>2020-08-13T17:44:55.000Z</time>
      </trkpt>
      <trkpt lat="43.92885" lon="1.8159">
        <ele>268.39999389648</ele>
        <time>2020-08-13T17:44:56.000Z</time>
      </trkpt>
      <trkpt lat="43.92885" lon="1.8159">
        <ele>268.39999389648</ele>
        <time>2020-08-13T17:44:57.000Z</time>
      </trkpt>
      <trkpt lat="43.92885" lon="1.8159">
        <ele>268.39999389648</ele>
        <time>2020-08-13T17:44:58.000Z</time>
      </trkpt>
      <trkpt lat="43.92885" lon="1.8159">
        <ele>268.39999389648</ele>
        <time>2020-08-13T17:44:59.000Z</time>
      </trkpt>
      <trkpt lat="43.92885" lon="1.8159">
        <ele>268.39999389648</ele>
        <time>2020-08-13T17:45:00.000Z</time>
      </trkpt>
      <trkpt lat="43.92885" lon="1.8159">
        <ele>268.20001220703</ele>
        <time>2020-08-13T17:45:01.000Z</time>
      </trkpt>
      <trkpt lat="43.92885" lon="1.8159">
        <ele>268.20001220703</ele>
        <time>2020-08-13T17:45:02.000Z</time>
      </trkpt>
      <trkpt lat="43.92885" lon="1.8159">
        <ele>268.20001220703</ele>
        <time>2020-08-13T17:45:03.000Z</time>
      </trkpt>
      <trkpt lat="43.92885" lon="1.8159">
        <ele>268.39999389648</ele>
        <time>2020-08-13T17:45:04.000Z</time>
      </trkpt>
      <trkpt lat="43.92885" lon="1.8159">
        <ele>268.39999389648</ele>
        <time>2020-08-13T17:45:05.000Z</time>
      </trkpt>
      <trkpt lat="43.92885" lon="1.8159">
        <ele>268.39999389648</ele>
        <time>2020-08-13T17:45:06.000Z</time>
      </trkpt>
      <trkpt lat="43.92885" lon="1.8159">
        <ele>268.20001220703</ele>
        <time>2020-08-13T17:45:07.000Z</time>
      </trkpt>
      <trkpt lat="43.92885" lon="1.8159">
        <ele>268.39999389648</ele>
        <time>2020-08-13T17:45:08.000Z</time>
      </trkpt>
      <trkpt lat="43.92885" lon="1.8159">
        <ele>268.39999389648</ele>
        <time>2020-08-13T17:45:09.000Z</time>
      </trkpt>
      <trkpt lat="43.92885" lon="1.8159">
        <ele>268.39999389648</ele>
        <time>2020-08-13T17:45:10.000Z</time>
      </trkpt>
      <trkpt lat="43.92885" lon="1.8159">
        <ele>268.39999389648</ele>
        <time>2020-08-13T17:45:11.000Z</time>
      </trkpt>
      <trkpt lat="43.92885" lon="1.8159">
        <ele>268.39999389648</ele>
        <time>2020-08-13T17:45:12.000Z</time>
      </trkpt>
      <trkpt lat="43.92885" lon="1.8159">
        <ele>268.39999389648</ele>
        <time>2020-08-13T17:45:13.000Z</time>
      </trkpt>
      <trkpt lat="43.92885" lon="1.8159">
        <ele>268.20001220703</ele>
        <time>2020-08-13T17:45:14.000Z</time>
      </trkpt>
      <trkpt lat="43.92885" lon="1.81589">
        <ele>268.20001220703</ele>
        <time>2020-08-13T17:45:15.000Z</time>
      </trkpt>
      <trkpt lat="43.92885" lon="1.81586">
        <ele>268.39999389648</ele>
        <time>2020-08-13T17:45:16.000Z</time>
      </trkpt>
      <trkpt lat="43.92886" lon="1.81582">
        <ele>268.39999389648</ele>
        <time>2020-08-13T17:45:17.000Z</time>
      </trkpt>
      <trkpt lat="43.92887" lon="1.81579">
        <ele>268.39999389648</ele>
        <time>2020-08-13T17:45:18.000Z</time>
      </trkpt>
      <trkpt lat="43.92887" lon="1.81575">
        <ele>268.39999389648</ele>
        <time>2020-08-13T17:45:19.000Z</time>
      </trkpt>
      <trkpt lat="43.92888" lon="1.81571">
        <ele>268.39999389648</ele>
        <time>2020-08-13T17:45:20.000Z</time>
      </trkpt>
      <trkpt lat="43.92888" lon="1.81567">
        <ele>268.20001220703</ele>
        <time>2020-08-13T17:45:21.000Z</time>
      </trkpt>
      <trkpt lat="43.92888" lon="1.81563">
        <ele>268.39999389648</ele>
        <time>2020-08-13T17:45:22.000Z</time>
      </trkpt>
      <trkpt lat="43.92887" lon="1.81558">
        <ele>268.39999389648</ele>
        <time>2020-08-13T17:45:23.000Z</time>
      </trkpt>
      <trkpt lat="43.92887" lon="1.81554">
        <ele>268.39999389648</ele>
        <time>2020-08-13T17:45:24.000Z</time>
      </trkpt>
      <trkpt lat="43.92886" lon="1.8155">
        <ele>268</ele>
        <time>2020-08-13T17:45:25.000Z</time>
      </trkpt>
      <trkpt lat="43.92886" lon="1.81546">
        <ele>268</ele>
        <time>2020-08-13T17:45:26.000Z</time>
      </trkpt>
      <trkpt lat="43.92885" lon="1.81541">
        <ele>268</ele>
        <time>2020-08-13T17:45:27.000Z</time>
      </trkpt>
      <trkpt lat="43.92884" lon="1.81537">
        <ele>267.79998779297</ele>
        <time>2020-08-13T17:45:28.000Z</time>
      </trkpt>
      <trkpt lat="43.92884" lon="1.81532">
        <ele>267.60000610352</ele>
        <time>2020-08-13T17:45:29.000Z</time>
      </trkpt>
      <trkpt lat="43.92883" lon="1.81527">
        <ele>267.39999389648</ele>
        <time>2020-08-13T17:45:30.000Z</time>
      </trkpt>
      <trkpt lat="43.92882" lon="1.81522">
        <ele>267.39999389648</ele>
        <time>2020-08-13T17:45:31.000Z</time>
      </trkpt>
      <trkpt lat="43.92881" lon="1.81517">
        <ele>267.20001220703</ele>
        <time>2020-08-13T17:45:32.000Z</time>
      </trkpt>
      <trkpt lat="43.9288" lon="1.81513">
        <ele>267.20001220703</ele>
        <time>2020-08-13T17:45:33.000Z</time>
      </trkpt>
      <trkpt lat="43.92879" lon="1.81508">
        <ele>267</ele>
        <time>2020-08-13T17:45:34.000Z</time>
      </trkpt>
      <trkpt lat="43.92878" lon="1.81504">
        <ele>267</ele>
        <time>2020-08-13T17:45:35.000Z</time>
      </trkpt>
      <trkpt lat="43.92877" lon="1.81499">
        <ele>267</ele>
        <time>2020-08-13T17:45:36.000Z</time>
      </trkpt>
      <trkpt lat="43.92876" lon="1.81494">
        <ele>266.79998779297</ele>
        <time>2020-08-13T17:45:37.000Z</time>
      </trkpt>
      <trkpt lat="43.92875" lon="1.8149">
        <ele>266.79998779297</ele>
        <time>2020-08-13T17:45:38.000Z</time>
      </trkpt>
      <trkpt lat="43.92873" lon="1.81485">
        <ele>266.79998779297</ele>
        <time>2020-08-13T17:45:39.000Z</time>
      </trkpt>
      <trkpt lat="43.92872" lon="1.81479">
        <ele>266.79998779297</ele>
        <time>2020-08-13T17:45:40.000Z</time>
      </trkpt>
      <trkpt lat="43.92871" lon="1.81474">
        <ele>266.60000610352</ele>
        <time>2020-08-13T17:45:41.000Z</time>
      </trkpt>
      <trkpt lat="43.92869" lon="1.81468">
        <ele>266.39999389648</ele>
        <time>2020-08-13T17:45:42.000Z</time>
      </trkpt>
      <trkpt lat="43.92868" lon="1.81464">
        <ele>266.39999389648</ele>
        <time>2020-08-13T17:45:43.000Z</time>
      </trkpt>
      <trkpt lat="43.92866" lon="1.81459">
        <ele>266.60000610352</ele>
        <time>2020-08-13T17:45:44.000Z</time>
      </trkpt>
      <trkpt lat="43.92865" lon="1.81454">
        <ele>266.60000610352</ele>
        <time>2020-08-13T17:45:45.000Z</time>
      </trkpt>
      <trkpt lat="43.92863" lon="1.81449">
        <ele>266.60000610352</ele>
        <time>2020-08-13T17:45:46.000Z</time>
      </trkpt>
      <trkpt lat="43.92862" lon="1.81445">
        <ele>266.39999389648</ele>
        <time>2020-08-13T17:45:47.000Z</time>
      </trkpt>
      <trkpt lat="43.9286" lon="1.8144">
        <ele>266.39999389648</ele>
        <time>2020-08-13T17:45:48.000Z</time>
      </trkpt>
      <trkpt lat="43.92859" lon="1.81436">
        <ele>266.60000610352</ele>
        <time>2020-08-13T17:45:49.000Z</time>
      </trkpt>
      <trkpt lat="43.92857" lon="1.81431">
        <ele>266.60000610352</ele>
        <time>2020-08-13T17:45:50.000Z</time>
      </trkpt>
      <trkpt lat="43.92856" lon="1.81426">
        <ele>266.60000610352</ele>
        <time>2020-08-13T17:45:51.000Z</time>
      </trkpt>
      <trkpt lat="43.92854" lon="1.81421">
        <ele>266.79998779297</ele>
        <time>2020-08-13T17:45:52.000Z</time>
      </trkpt>
      <trkpt lat="43.92853" lon="1.81416">
        <ele>266.79998779297</ele>
        <time>2020-08-13T17:45:53.000Z</time>
      </trkpt>
      <trkpt lat="43.92851" lon="1.81411">
        <ele>266.79998779297</ele>
        <time>2020-08-13T17:45:54.000Z</time>
      </trkpt>
      <trkpt lat="43.9285" lon="1.81406">
        <ele>267</ele>
        <time>2020-08-13T17:45:55.000Z</time>
      </trkpt>
      <trkpt lat="43.92848" lon="1.81402">
        <ele>267</ele>
        <time>2020-08-13T17:45:56.000Z</time>
      </trkpt>
      <trkpt lat="43.92847" lon="1.81397">
        <ele>267</ele>
        <time>2020-08-13T17:45:57.000Z</time>
      </trkpt>
      <trkpt lat="43.92845" lon="1.81392">
        <ele>267</ele>
        <time>2020-08-13T17:45:58.000Z</time>
      </trkpt>
      <trkpt lat="43.92843" lon="1.81387">
        <ele>267.20001220703</ele>
        <time>2020-08-13T17:45:59.000Z</time>
      </trkpt>
      <trkpt lat="43.92841" lon="1.81383">
        <ele>267.20001220703</ele>
        <time>2020-08-13T17:46:00.000Z</time>
      </trkpt>
      <trkpt lat="43.92839" lon="1.81378">
        <ele>267.39999389648</ele>
        <time>2020-08-13T17:46:01.000Z</time>
      </trkpt>
      <trkpt lat="43.92837" lon="1.81374">
        <ele>267.39999389648</ele>
        <time>2020-08-13T17:46:02.000Z</time>
      </trkpt>
      <trkpt lat="43.92836" lon="1.81369">
        <ele>267.60000610352</ele>
        <time>2020-08-13T17:46:03.000Z</time>
      </trkpt>
      <trkpt lat="43.92834" lon="1.81365">
        <ele>267.60000610352</ele>
        <time>2020-08-13T17:46:04.000Z</time>
      </trkpt>
      <trkpt lat="43.92833" lon="1.8136">
        <ele>267.60000610352</ele>
        <time>2020-08-13T17:46:05.000Z</time>
      </trkpt>
      <trkpt lat="43.92831" lon="1.81356">
        <ele>267.60000610352</ele>
        <time>2020-08-13T17:46:06.000Z</time>
      </trkpt>
      <trkpt lat="43.92829" lon="1.81352">
        <ele>267.60000610352</ele>
        <time>2020-08-13T17:46:07.000Z</time>
      </trkpt>
      <trkpt lat="43.92827" lon="1.81348">
        <ele>267.60000610352</ele>
        <time>2020-08-13T17:46:08.000Z</time>
      </trkpt>
      <trkpt lat="43.92826" lon="1.81344">
        <ele>267.79998779297</ele>
        <time>2020-08-13T17:46:09.000Z</time>
      </trkpt>
      <trkpt lat="43.92824" lon="1.8134">
        <ele>267.79998779297</ele>
        <time>2020-08-13T17:46:10.000Z</time>
      </trkpt>
      <trkpt lat="43.92823" lon="1.81336">
        <ele>268</ele>
        <time>2020-08-13T17:46:11.000Z</time>
      </trkpt>
      <trkpt lat="43.92821" lon="1.81333">
        <ele>268.20001220703</ele>
        <time>2020-08-13T17:46:12.000Z</time>
      </trkpt>
      <trkpt lat="43.9282" lon="1.81329">
        <ele>268.20001220703</ele>
        <time>2020-08-13T17:46:13.000Z</time>
      </trkpt>
      <trkpt lat="43.92819" lon="1.81325">
        <ele>268.20001220703</ele>
        <time>2020-08-13T17:46:14.000Z</time>
      </trkpt>
      <trkpt lat="43.92818" lon="1.81321">
        <ele>268</ele>
        <time>2020-08-13T17:46:15.000Z</time>
      </trkpt>
      <trkpt lat="43.92817" lon="1.81317">
        <ele>267.79998779297</ele>
        <time>2020-08-13T17:46:16.000Z</time>
      </trkpt>
      <trkpt lat="43.92816" lon="1.81312">
        <ele>267.60000610352</ele>
        <time>2020-08-13T17:46:17.000Z</time>
      </trkpt>
      <trkpt lat="43.92815" lon="1.81308">
        <ele>267.60000610352</ele>
        <time>2020-08-13T17:46:18.000Z</time>
      </trkpt>
      <trkpt lat="43.92814" lon="1.81304">
        <ele>267.60000610352</ele>
        <time>2020-08-13T17:46:19.000Z</time>
      </trkpt>
      <trkpt lat="43.92814" lon="1.81299">
        <ele>267.39999389648</ele>
        <time>2020-08-13T17:46:20.000Z</time>
      </trkpt>
      <trkpt lat="43.92813" lon="1.81295">
        <ele>267.20001220703</ele>
        <time>2020-08-13T17:46:21.000Z</time>
      </trkpt>
      <trkpt lat="43.92812" lon="1.8129">
        <ele>267</ele>
        <time>2020-08-13T17:46:22.000Z</time>
      </trkpt>
      <trkpt lat="43.92811" lon="1.81286">
        <ele>266.79998779297</ele>
        <time>2020-08-13T17:46:23.000Z</time>
      </trkpt>
      <trkpt lat="43.9281" lon="1.81281">
        <ele>266.39999389648</ele>
        <time>2020-08-13T17:46:24.000Z</time>
      </trkpt>
      <trkpt lat="43.92809" lon="1.81277">
        <ele>266</ele>
        <time>2020-08-13T17:46:25.000Z</time>
      </trkpt>
      <trkpt lat="43.92808" lon="1.81272">
        <ele>265.60000610352</ele>
        <time>2020-08-13T17:46:26.000Z</time>
      </trkpt>
      <trkpt lat="43.92807" lon="1.81267">
        <ele>265.39999389648</ele>
        <time>2020-08-13T17:46:27.000Z</time>
      </trkpt>
      <trkpt lat="43.92806" lon="1.81261">
        <ele>265.20001220703</ele>
        <time>2020-08-13T17:46:28.000Z</time>
      </trkpt>
      <trkpt lat="43.92805" lon="1.81255">
        <ele>264.79998779297</ele>
        <time>2020-08-13T17:46:29.000Z</time>
      </trkpt>
      <trkpt lat="43.92805" lon="1.81249">
        <ele>264.39999389648</ele>
        <time>2020-08-13T17:46:30.000Z</time>
      </trkpt>
      <trkpt lat="43.92805" lon="1.81244">
        <ele>264</ele>
        <time>2020-08-13T17:46:31.000Z</time>
      </trkpt>
      <trkpt lat="43.92806" lon="1.81239">
        <ele>263.60000610352</ele>
        <time>2020-08-13T17:46:32.000Z</time>
      </trkpt>
      <trkpt lat="43.92807" lon="1.81235">
        <ele>263</ele>
        <time>2020-08-13T17:46:33.000Z</time>
      </trkpt>
      <trkpt lat="43.92809" lon="1.8123">
        <ele>262.79998779297</ele>
        <time>2020-08-13T17:46:34.000Z</time>
      </trkpt>
      <trkpt lat="43.92811" lon="1.81227">
        <ele>262.39999389648</ele>
        <time>2020-08-13T17:46:35.000Z</time>
      </trkpt>
      <trkpt lat="43.92814" lon="1.81223">
        <ele>262</ele>
        <time>2020-08-13T17:46:36.000Z</time>
      </trkpt>
      <trkpt lat="43.92816" lon="1.8122">
        <ele>261</ele>
        <time>2020-08-13T17:46:37.000Z</time>
      </trkpt>
      <trkpt lat="43.92818" lon="1.81217">
        <ele>260.60000610352</ele>
        <time>2020-08-13T17:46:38.000Z</time>
      </trkpt>
      <trkpt lat="43.9282" lon="1.81214">
        <ele>260.20001220703</ele>
        <time>2020-08-13T17:46:39.000Z</time>
      </trkpt>
      <trkpt lat="43.92821" lon="1.81212">
        <ele>259.79998779297</ele>
        <time>2020-08-13T17:46:40.000Z</time>
      </trkpt>
      <trkpt lat="43.92822" lon="1.81209">
        <ele>259.39999389648</ele>
        <time>2020-08-13T17:46:41.000Z</time>
      </trkpt>
      <trkpt lat="43.92823" lon="1.81207">
        <ele>259</ele>
        <time>2020-08-13T17:46:42.000Z</time>
      </trkpt>
      <trkpt lat="43.92824" lon="1.81204">
        <ele>258.79998779297</ele>
        <time>2020-08-13T17:46:43.000Z</time>
      </trkpt>
      <trkpt lat="43.92826" lon="1.81202">
        <ele>258.39999389648</ele>
        <time>2020-08-13T17:46:44.000Z</time>
      </trkpt>
      <trkpt lat="43.92827" lon="1.812">
        <ele>258</ele>
        <time>2020-08-13T17:46:45.000Z</time>
      </trkpt>
      <trkpt lat="43.92828" lon="1.81198">
        <ele>257.60000610352</ele>
        <time>2020-08-13T17:46:46.000Z</time>
      </trkpt>
      <trkpt lat="43.9283" lon="1.81196">
        <ele>257.39999389648</ele>
        <time>2020-08-13T17:46:47.000Z</time>
      </trkpt>
      <trkpt lat="43.92831" lon="1.81194">
        <ele>257</ele>
        <time>2020-08-13T17:46:48.000Z</time>
      </trkpt>
      <trkpt lat="43.92832" lon="1.81192">
        <ele>256.79998779297</ele>
        <time>2020-08-13T17:46:49.000Z</time>
      </trkpt>
      <trkpt lat="43.92833" lon="1.8119">
        <ele>256.39999389648</ele>
        <time>2020-08-13T17:46:50.000Z</time>
      </trkpt>
      <trkpt lat="43.92834" lon="1.81189">
        <ele>256.20001220703</ele>
        <time>2020-08-13T17:46:51.000Z</time>
      </trkpt>
      <trkpt lat="43.92835" lon="1.81187">
        <ele>256</ele>
        <time>2020-08-13T17:46:52.000Z</time>
      </trkpt>
      <trkpt lat="43.92834" lon="1.81188">
        <ele>255.80000305176</ele>
        <time>2020-08-13T17:46:53.000Z</time>
      </trkpt>
      <trkpt lat="43.92835" lon="1.81185">
        <ele>255.60000610352</ele>
        <time>2020-08-13T17:46:54.000Z</time>
      </trkpt>
      <trkpt lat="43.92836" lon="1.81184">
        <ele>255.39999389648</ele>
        <time>2020-08-13T17:46:55.000Z</time>
      </trkpt>
      <trkpt lat="43.92837" lon="1.81184">
        <ele>255.19999694824</ele>
        <time>2020-08-13T17:46:56.000Z</time>
      </trkpt>
      <trkpt lat="43.92838" lon="1.81182">
        <ele>255</ele>
        <time>2020-08-13T17:46:57.000Z</time>
      </trkpt>
      <trkpt lat="43.92839" lon="1.81182">
        <ele>254.80000305176</ele>
        <time>2020-08-13T17:46:58.000Z</time>
      </trkpt>
      <trkpt lat="43.9284" lon="1.81181">
        <ele>254.39999389648</ele>
        <time>2020-08-13T17:46:59.000Z</time>
      </trkpt>
      <trkpt lat="43.92841" lon="1.8118">
        <ele>254.19999694824</ele>
        <time>2020-08-13T17:47:00.000Z</time>
      </trkpt>
      <trkpt lat="43.92842" lon="1.81179">
        <ele>253.39999389648</ele>
        <time>2020-08-13T17:47:01.000Z</time>
      </trkpt>
      <trkpt lat="43.92843" lon="1.81177">
        <ele>253</ele>
        <time>2020-08-13T17:47:02.000Z</time>
      </trkpt>
      <trkpt lat="43.92844" lon="1.81176">
        <ele>252.80000305176</ele>
        <time>2020-08-13T17:47:03.000Z</time>
      </trkpt>
      <trkpt lat="43.92845" lon="1.81174">
        <ele>252.60000610352</ele>
        <time>2020-08-13T17:47:04.000Z</time>
      </trkpt>
      <trkpt lat="43.92846" lon="1.81173">
        <ele>252.19999694824</ele>
        <time>2020-08-13T17:47:05.000Z</time>
      </trkpt>
      <trkpt lat="43.92847" lon="1.81172">
        <ele>251.80000305176</ele>
        <time>2020-08-13T17:47:06.000Z</time>
      </trkpt>
      <trkpt lat="43.92848" lon="1.8117">
        <ele>251.39999389648</ele>
        <time>2020-08-13T17:47:07.000Z</time>
      </trkpt>
      <trkpt lat="43.9285" lon="1.81169">
        <ele>251</ele>
        <time>2020-08-13T17:47:08.000Z</time>
      </trkpt>
      <trkpt lat="43.92851" lon="1.81167">
        <ele>250.39999389648</ele>
        <time>2020-08-13T17:47:09.000Z</time>
      </trkpt>
      <trkpt lat="43.92852" lon="1.81165">
        <ele>250</ele>
        <time>2020-08-13T17:47:10.000Z</time>
      </trkpt>
      <trkpt lat="43.92853" lon="1.81162">
        <ele>249.60000610352</ele>
        <time>2020-08-13T17:47:11.000Z</time>
      </trkpt>
      <trkpt lat="43.92855" lon="1.8116">
        <ele>249.19999694824</ele>
        <time>2020-08-13T17:47:12.000Z</time>
      </trkpt>
      <trkpt lat="43.92857" lon="1.81157">
        <ele>248.80000305176</ele>
        <time>2020-08-13T17:47:13.000Z</time>
      </trkpt>
      <trkpt lat="43.92858" lon="1.81153">
        <ele>248.39999389648</ele>
        <time>2020-08-13T17:47:14.000Z</time>
      </trkpt>
      <trkpt lat="43.9286" lon="1.81149">
        <ele>247.80000305176</ele>
        <time>2020-08-13T17:47:15.000Z</time>
      </trkpt>
      <trkpt lat="43.92861" lon="1.81144">
        <ele>247.60000610352</ele>
        <time>2020-08-13T17:47:16.000Z</time>
      </trkpt>
      <trkpt lat="43.92862" lon="1.81141">
        <ele>247</ele>
        <time>2020-08-13T17:47:17.000Z</time>
      </trkpt>
      <trkpt lat="43.92863" lon="1.81139">
        <ele>246.80000305176</ele>
        <time>2020-08-13T17:47:18.000Z</time>
      </trkpt>
      <trkpt lat="43.92864" lon="1.81136">
        <ele>246.60000610352</ele>
        <time>2020-08-13T17:47:19.000Z</time>
      </trkpt>
      <trkpt lat="43.92865" lon="1.81133">
        <ele>246.19999694824</ele>
        <time>2020-08-13T17:47:20.000Z</time>
      </trkpt>
      <trkpt lat="43.92867" lon="1.81129">
        <ele>246</ele>
        <time>2020-08-13T17:47:21.000Z</time>
      </trkpt>
      <trkpt lat="43.92868" lon="1.81124">
        <ele>245.60000610352</ele>
        <time>2020-08-13T17:47:22.000Z</time>
      </trkpt>
      <trkpt lat="43.9287" lon="1.81119">
        <ele>245.39999389648</ele>
        <time>2020-08-13T17:47:23.000Z</time>
      </trkpt>
      <trkpt lat="43.92871" lon="1.81115">
        <ele>245</ele>
        <time>2020-08-13T17:47:24.000Z</time>
      </trkpt>
      <trkpt lat="43.92871" lon="1.8111">
        <ele>244.39999389648</ele>
        <time>2020-08-13T17:47:25.000Z</time>
      </trkpt>
      <trkpt lat="43.92871" lon="1.81105">
        <ele>244.19999694824</ele>
        <time>2020-08-13T17:47:26.000Z</time>
      </trkpt>
      <trkpt lat="43.92871" lon="1.811">
        <ele>244</ele>
        <time>2020-08-13T17:47:27.000Z</time>
      </trkpt>
      <trkpt lat="43.92872" lon="1.81095">
        <ele>243.80000305176</ele>
        <time>2020-08-13T17:47:28.000Z</time>
      </trkpt>
      <trkpt lat="43.92873" lon="1.81089">
        <ele>243.80000305176</ele>
        <time>2020-08-13T17:47:29.000Z</time>
      </trkpt>
      <trkpt lat="43.92874" lon="1.81084">
        <ele>243.80000305176</ele>
        <time>2020-08-13T17:47:30.000Z</time>
      </trkpt>
      <trkpt lat="43.92875" lon="1.81079">
        <ele>243.80000305176</ele>
        <time>2020-08-13T17:47:31.000Z</time>
      </trkpt>
      <trkpt lat="43.92876" lon="1.81074">
        <ele>243.60000610352</ele>
        <time>2020-08-13T17:47:32.000Z</time>
      </trkpt>
      <trkpt lat="43.92876" lon="1.81071">
        <ele>243.60000610352</ele>
        <time>2020-08-13T17:47:33.000Z</time>
      </trkpt>
      <trkpt lat="43.92877" lon="1.81068">
        <ele>243.39999389648</ele>
        <time>2020-08-13T17:47:34.000Z</time>
      </trkpt>
      <trkpt lat="43.92878" lon="1.81065">
        <ele>243.39999389648</ele>
        <time>2020-08-13T17:47:35.000Z</time>
      </trkpt>
      <trkpt lat="43.92879" lon="1.81061">
        <ele>243.39999389648</ele>
        <time>2020-08-13T17:47:36.000Z</time>
      </trkpt>
      <trkpt lat="43.92879" lon="1.81057">
        <ele>243.39999389648</ele>
        <time>2020-08-13T17:47:37.000Z</time>
      </trkpt>
      <trkpt lat="43.9288" lon="1.81054">
        <ele>243.39999389648</ele>
        <time>2020-08-13T17:47:38.000Z</time>
      </trkpt>
      <trkpt lat="43.9288" lon="1.81051">
        <ele>243.39999389648</ele>
        <time>2020-08-13T17:47:39.000Z</time>
      </trkpt>
      <trkpt lat="43.9288" lon="1.81048">
        <ele>243.39999389648</ele>
        <time>2020-08-13T17:47:40.000Z</time>
      </trkpt>
      <trkpt lat="43.92879" lon="1.81044">
        <ele>243.39999389648</ele>
        <time>2020-08-13T17:47:41.000Z</time>
      </trkpt>
      <trkpt lat="43.92879" lon="1.81041">
        <ele>243.39999389648</ele>
        <time>2020-08-13T17:47:42.000Z</time>
      </trkpt>
      <trkpt lat="43.92878" lon="1.81038">
        <ele>243.39999389648</ele>
        <time>2020-08-13T17:47:43.000Z</time>
      </trkpt>
      <trkpt lat="43.92877" lon="1.81035">
        <ele>243.60000610352</ele>
        <time>2020-08-13T17:47:44.000Z</time>
      </trkpt>
      <trkpt lat="43.92877" lon="1.81031">
        <ele>243.80000305176</ele>
        <time>2020-08-13T17:47:45.000Z</time>
      </trkpt>
      <trkpt lat="43.92877" lon="1.81026">
        <ele>243.80000305176</ele>
        <time>2020-08-13T17:47:46.000Z</time>
      </trkpt>
      <trkpt lat="43.92877" lon="1.81023">
        <ele>244</ele>
        <time>2020-08-13T17:47:47.000Z</time>
      </trkpt>
      <trkpt lat="43.92876" lon="1.81019">
        <ele>244</ele>
        <time>2020-08-13T17:47:48.000Z</time>
      </trkpt>
      <trkpt lat="43.92876" lon="1.81017">
        <ele>244.19999694824</ele>
        <time>2020-08-13T17:47:49.000Z</time>
      </trkpt>
      <trkpt lat="43.92876" lon="1.81013">
        <ele>244.39999389648</ele>
        <time>2020-08-13T17:47:50.000Z</time>
      </trkpt>
      <trkpt lat="43.92876" lon="1.81011">
        <ele>244.60000610352</ele>
        <time>2020-08-13T17:47:51.000Z</time>
      </trkpt>
      <trkpt lat="43.92875" lon="1.81009">
        <ele>244.60000610352</ele>
        <time>2020-08-13T17:47:52.000Z</time>
      </trkpt>
      <trkpt lat="43.92875" lon="1.81006">
        <ele>244.80000305176</ele>
        <time>2020-08-13T17:47:53.000Z</time>
      </trkpt>
      <trkpt lat="43.92875" lon="1.81004">
        <ele>245</ele>
        <time>2020-08-13T17:47:54.000Z</time>
      </trkpt>
      <trkpt lat="43.92875" lon="1.81002">
        <ele>245.19999694824</ele>
        <time>2020-08-13T17:47:55.000Z</time>
      </trkpt>
      <trkpt lat="43.92875" lon="1.80999">
        <ele>245.39999389648</ele>
        <time>2020-08-13T17:47:56.000Z</time>
      </trkpt>
      <trkpt lat="43.92874" lon="1.80997">
        <ele>245.39999389648</ele>
        <time>2020-08-13T17:47:57.000Z</time>
      </trkpt>
      <trkpt lat="43.92874" lon="1.80995">
        <ele>245.60000610352</ele>
        <time>2020-08-13T17:47:58.000Z</time>
      </trkpt>
      <trkpt lat="43.92873" lon="1.80994">
        <ele>245.60000610352</ele>
        <time>2020-08-13T17:47:59.000Z</time>
      </trkpt>
      <trkpt lat="43.92873" lon="1.80992">
        <ele>245.80000305176</ele>
        <time>2020-08-13T17:48:00.000Z</time>
      </trkpt>
      <trkpt lat="43.92872" lon="1.8099">
        <ele>245.80000305176</ele>
        <time>2020-08-13T17:48:01.000Z</time>
      </trkpt>
      <trkpt lat="43.92871" lon="1.80988">
        <ele>246</ele>
        <time>2020-08-13T17:48:02.000Z</time>
      </trkpt>
      <trkpt lat="43.9287" lon="1.80986">
        <ele>246.39999389648</ele>
        <time>2020-08-13T17:48:03.000Z</time>
      </trkpt>
      <trkpt lat="43.92869" lon="1.80984">
        <ele>246.60000610352</ele>
        <time>2020-08-13T17:48:04.000Z</time>
      </trkpt>
      <trkpt lat="43.92868" lon="1.80982">
        <ele>246.80000305176</ele>
        <time>2020-08-13T17:48:05.000Z</time>
      </trkpt>
      <trkpt lat="43.92868" lon="1.8098">
        <ele>247</ele>
        <time>2020-08-13T17:48:06.000Z</time>
      </trkpt>
      <trkpt lat="43.92867" lon="1.80978">
        <ele>247.19999694824</ele>
        <time>2020-08-13T17:48:07.000Z</time>
      </trkpt>
      <trkpt lat="43.92865" lon="1.80975">
        <ele>247.19999694824</ele>
        <time>2020-08-13T17:48:08.000Z</time>
      </trkpt>
      <trkpt lat="43.92864" lon="1.80973">
        <ele>247.60000610352</ele>
        <time>2020-08-13T17:48:09.000Z</time>
      </trkpt>
      <trkpt lat="43.92863" lon="1.8097">
        <ele>247.80000305176</ele>
        <time>2020-08-13T17:48:10.000Z</time>
      </trkpt>
      <trkpt lat="43.92862" lon="1.80968">
        <ele>248.19999694824</ele>
        <time>2020-08-13T17:48:11.000Z</time>
      </trkpt>
      <trkpt lat="43.9286" lon="1.80966">
        <ele>248.39999389648</ele>
        <time>2020-08-13T17:48:12.000Z</time>
      </trkpt>
      <trkpt lat="43.92859" lon="1.80964">
        <ele>248.80000305176</ele>
        <time>2020-08-13T17:48:13.000Z</time>
      </trkpt>
      <trkpt lat="43.92858" lon="1.80962">
        <ele>249</ele>
        <time>2020-08-13T17:48:14.000Z</time>
      </trkpt>
      <trkpt lat="43.92856" lon="1.8096">
        <ele>249.19999694824</ele>
        <time>2020-08-13T17:48:15.000Z</time>
      </trkpt>
      <trkpt lat="43.92855" lon="1.80959">
        <ele>249.39999389648</ele>
        <time>2020-08-13T17:48:16.000Z</time>
      </trkpt>
      <trkpt lat="43.92853" lon="1.80957">
        <ele>249.60000610352</ele>
        <time>2020-08-13T17:48:17.000Z</time>
      </trkpt>
      <trkpt lat="43.92852" lon="1.80955">
        <ele>249.60000610352</ele>
        <time>2020-08-13T17:48:18.000Z</time>
      </trkpt>
      <trkpt lat="43.92851" lon="1.80952">
        <ele>249.80000305176</ele>
        <time>2020-08-13T17:48:19.000Z</time>
      </trkpt>
      <trkpt lat="43.92849" lon="1.80949">
        <ele>250.19999694824</ele>
        <time>2020-08-13T17:48:20.000Z</time>
      </trkpt>
      <trkpt lat="43.92849" lon="1.80946">
        <ele>250.39999389648</ele>
        <time>2020-08-13T17:48:21.000Z</time>
      </trkpt>
      <trkpt lat="43.92848" lon="1.80943">
        <ele>250.60000610352</ele>
        <time>2020-08-13T17:48:22.000Z</time>
      </trkpt>
      <trkpt lat="43.92848" lon="1.8094">
        <ele>250.80000305176</ele>
        <time>2020-08-13T17:48:23.000Z</time>
      </trkpt>
      <trkpt lat="43.92848" lon="1.80937">
        <ele>251</ele>
        <time>2020-08-13T17:48:24.000Z</time>
      </trkpt>
      <trkpt lat="43.92849" lon="1.80935">
        <ele>251.39999389648</ele>
        <time>2020-08-13T17:48:25.000Z</time>
      </trkpt>
      <trkpt lat="43.92849" lon="1.80933">
        <ele>251.60000610352</ele>
        <time>2020-08-13T17:48:26.000Z</time>
      </trkpt>
      <trkpt lat="43.92849" lon="1.80931">
        <ele>251.80000305176</ele>
        <time>2020-08-13T17:48:27.000Z</time>
      </trkpt>
      <trkpt lat="43.92849" lon="1.80928">
        <ele>252</ele>
        <time>2020-08-13T17:48:28.000Z</time>
      </trkpt>
      <trkpt lat="43.92849" lon="1.80925">
        <ele>252.19999694824</ele>
        <time>2020-08-13T17:48:29.000Z</time>
      </trkpt>
      <trkpt lat="43.92849" lon="1.80923">
        <ele>252.39999389648</ele>
        <time>2020-08-13T17:48:30.000Z</time>
      </trkpt>
      <trkpt lat="43.92849" lon="1.8092">
        <ele>252.60000610352</ele>
        <time>2020-08-13T17:48:31.000Z</time>
      </trkpt>
      <trkpt lat="43.9285" lon="1.80918">
        <ele>252.60000610352</ele>
        <time>2020-08-13T17:48:32.000Z</time>
      </trkpt>
      <trkpt lat="43.9285" lon="1.80915">
        <ele>252.60000610352</ele>
        <time>2020-08-13T17:48:33.000Z</time>
      </trkpt>
      <trkpt lat="43.92851" lon="1.80912">
        <ele>252.80000305176</ele>
        <time>2020-08-13T17:48:34.000Z</time>
      </trkpt>
      <trkpt lat="43.92852" lon="1.80909">
        <ele>252.80000305176</ele>
        <time>2020-08-13T17:48:35.000Z</time>
      </trkpt>
      <trkpt lat="43.92853" lon="1.80907">
        <ele>253</ele>
        <time>2020-08-13T17:48:36.000Z</time>
      </trkpt>
      <trkpt lat="43.92853" lon="1.80904">
        <ele>253.19999694824</ele>
        <time>2020-08-13T17:48:37.000Z</time>
      </trkpt>
      <trkpt lat="43.92854" lon="1.80902">
        <ele>253.39999389648</ele>
        <time>2020-08-13T17:48:38.000Z</time>
      </trkpt>
      <trkpt lat="43.92854" lon="1.809">
        <ele>253.39999389648</ele>
        <time>2020-08-13T17:48:39.000Z</time>
      </trkpt>
      <trkpt lat="43.92854" lon="1.80897">
        <ele>253.60000610352</ele>
        <time>2020-08-13T17:48:40.000Z</time>
      </trkpt>
      <trkpt lat="43.92855" lon="1.80896">
        <ele>253.60000610352</ele>
        <time>2020-08-13T17:48:41.000Z</time>
      </trkpt>
      <trkpt lat="43.92855" lon="1.80894">
        <ele>253.39999389648</ele>
        <time>2020-08-13T17:48:42.000Z</time>
      </trkpt>
      <trkpt lat="43.92855" lon="1.80892">
        <ele>253.39999389648</ele>
        <time>2020-08-13T17:48:43.000Z</time>
      </trkpt>
      <trkpt lat="43.92855" lon="1.80891">
        <ele>253.60000610352</ele>
        <time>2020-08-13T17:48:44.000Z</time>
      </trkpt>
      <trkpt lat="43.92855" lon="1.80891">
        <ele>253.60000610352</ele>
        <time>2020-08-13T17:48:45.000Z</time>
      </trkpt>
      <trkpt lat="43.92855" lon="1.8089">
        <ele>253.60000610352</ele>
        <time>2020-08-13T17:48:46.000Z</time>
      </trkpt>
      <trkpt lat="43.92855" lon="1.8089">
        <ele>253.60000610352</ele>
        <time>2020-08-13T17:48:47.000Z</time>
      </trkpt>
      <trkpt lat="43.92855" lon="1.8089">
        <ele>253.60000610352</ele>
        <time>2020-08-13T17:48:48.000Z</time>
      </trkpt>
      <trkpt lat="43.92855" lon="1.8089">
        <ele>253.80000305176</ele>
        <time>2020-08-13T17:48:49.000Z</time>
      </trkpt>
      <trkpt lat="43.92855" lon="1.8089">
        <ele>253.60000610352</ele>
        <time>2020-08-13T17:48:50.000Z</time>
      </trkpt>
      <trkpt lat="43.92855" lon="1.8089">
        <ele>253.60000610352</ele>
        <time>2020-08-13T17:48:51.000Z</time>
      </trkpt>
      <trkpt lat="43.92855" lon="1.8089">
        <ele>253.60000610352</ele>
        <time>2020-08-13T17:48:52.000Z</time>
      </trkpt>
      <trkpt lat="43.92855" lon="1.8089">
        <ele>253.80000305176</ele>
        <time>2020-08-13T17:48:53.000Z</time>
      </trkpt>
      <trkpt lat="43.92855" lon="1.8089">
        <ele>253.60000610352</ele>
        <time>2020-08-13T17:48:54.000Z</time>
      </trkpt>
      <trkpt lat="43.92855" lon="1.8089">
        <ele>253.60000610352</ele>
        <time>2020-08-13T17:48:55.000Z</time>
      </trkpt>
      <trkpt lat="43.92855" lon="1.8089">
        <ele>253.60000610352</ele>
        <time>2020-08-13T17:48:56.000Z</time>
      </trkpt>
      <trkpt lat="43.92855" lon="1.8089">
        <ele>253.80000305176</ele>
        <time>2020-08-13T17:48:57.000Z</time>
      </trkpt>
      <trkpt lat="43.92855" lon="1.8089">
        <ele>253.60000610352</ele>
        <time>2020-08-13T17:48:58.000Z</time>
      </trkpt>
      <trkpt lat="43.92855" lon="1.8089">
        <ele>253.60000610352</ele>
        <time>2020-08-13T17:48:59.000Z</time>
      </trkpt>
      <trkpt lat="43.92855" lon="1.8089">
        <ele>253.60000610352</ele>
        <time>2020-08-13T17:49:00.000Z</time>
      </trkpt>
      <trkpt lat="43.92855" lon="1.8089">
        <ele>253.60000610352</ele>
        <time>2020-08-13T17:49:01.000Z</time>
      </trkpt>
      <trkpt lat="43.92855" lon="1.8089">
        <ele>253.60000610352</ele>
        <time>2020-08-13T17:49:02.000Z</time>
      </trkpt>
      <trkpt lat="43.92855" lon="1.8089">
        <ele>253.60000610352</ele>
        <time>2020-08-13T17:49:03.000Z</time>
      </trkpt>
      <trkpt lat="43.92855" lon="1.8089">
        <ele>253.60000610352</ele>
        <time>2020-08-13T17:49:04.000Z</time>
      </trkpt>
      <trkpt lat="43.92855" lon="1.8089">
        <ele>253.60000610352</ele>
        <time>2020-08-13T17:49:05.000Z</time>
      </trkpt>
      <trkpt lat="43.92855" lon="1.8089">
        <ele>253.60000610352</ele>
        <time>2020-08-13T17:49:06.000Z</time>
      </trkpt>
      <trkpt lat="43.92855" lon="1.8089">
        <ele>253.60000610352</ele>
        <time>2020-08-13T17:49:07.000Z</time>
      </trkpt>
      <trkpt lat="43.92855" lon="1.8089">
        <ele>253.60000610352</ele>
        <time>2020-08-13T17:49:08.000Z</time>
      </trkpt>
      <trkpt lat="43.92855" lon="1.80889">
        <ele>253.60000610352</ele>
        <time>2020-08-13T17:49:09.000Z</time>
      </trkpt>
      <trkpt lat="43.92855" lon="1.80889">
        <ele>253.80000305176</ele>
        <time>2020-08-13T17:49:10.000Z</time>
      </trkpt>
      <trkpt lat="43.92854" lon="1.80887">
        <ele>253.80000305176</ele>
        <time>2020-08-13T17:49:11.000Z</time>
      </trkpt>
      <trkpt lat="43.92854" lon="1.80885">
        <ele>253.80000305176</ele>
        <time>2020-08-13T17:49:12.000Z</time>
      </trkpt>
      <trkpt lat="43.92854" lon="1.80883">
        <ele>253.80000305176</ele>
        <time>2020-08-13T17:49:13.000Z</time>
      </trkpt>
      <trkpt lat="43.92853" lon="1.8088">
        <ele>253.80000305176</ele>
        <time>2020-08-13T17:49:14.000Z</time>
      </trkpt>
      <trkpt lat="43.92852" lon="1.80877">
        <ele>253.80000305176</ele>
        <time>2020-08-13T17:49:15.000Z</time>
      </trkpt>
      <trkpt lat="43.92851" lon="1.80874">
        <ele>254</ele>
        <time>2020-08-13T17:49:16.000Z</time>
      </trkpt>
      <trkpt lat="43.92851" lon="1.80871">
        <ele>254.19999694824</ele>
        <time>2020-08-13T17:49:17.000Z</time>
      </trkpt>
      <trkpt lat="43.92849" lon="1.80868">
        <ele>254.19999694824</ele>
        <time>2020-08-13T17:49:18.000Z</time>
      </trkpt>
      <trkpt lat="43.92848" lon="1.80866">
        <ele>254.19999694824</ele>
        <time>2020-08-13T17:49:19.000Z</time>
      </trkpt>
      <trkpt lat="43.92847" lon="1.80863">
        <ele>254.39999389648</ele>
        <time>2020-08-13T17:49:20.000Z</time>
      </trkpt>
      <trkpt lat="43.92846" lon="1.8086">
        <ele>254.39999389648</ele>
        <time>2020-08-13T17:49:21.000Z</time>
      </trkpt>
      <trkpt lat="43.92844" lon="1.80858">
        <ele>254.60000610352</ele>
        <time>2020-08-13T17:49:22.000Z</time>
      </trkpt>
      <trkpt lat="43.92843" lon="1.80855">
        <ele>254.80000305176</ele>
        <time>2020-08-13T17:49:23.000Z</time>
      </trkpt>
      <trkpt lat="43.92842" lon="1.80853">
        <ele>255</ele>
        <time>2020-08-13T17:49:24.000Z</time>
      </trkpt>
      <trkpt lat="43.9284" lon="1.8085">
        <ele>255</ele>
        <time>2020-08-13T17:49:25.000Z</time>
      </trkpt>
      <trkpt lat="43.92839" lon="1.80847">
        <ele>255.19999694824</ele>
        <time>2020-08-13T17:49:26.000Z</time>
      </trkpt>
      <trkpt lat="43.92837" lon="1.80844">
        <ele>255.19999694824</ele>
        <time>2020-08-13T17:49:27.000Z</time>
      </trkpt>
      <trkpt lat="43.92836" lon="1.80842">
        <ele>255.19999694824</ele>
        <time>2020-08-13T17:49:28.000Z</time>
      </trkpt>
      <trkpt lat="43.92834" lon="1.80839">
        <ele>255.19999694824</ele>
        <time>2020-08-13T17:49:29.000Z</time>
      </trkpt>
      <trkpt lat="43.92833" lon="1.80837">
        <ele>255.19999694824</ele>
        <time>2020-08-13T17:49:30.000Z</time>
      </trkpt>
      <trkpt lat="43.92832" lon="1.80835">
        <ele>255.19999694824</ele>
        <time>2020-08-13T17:49:31.000Z</time>
      </trkpt>
      <trkpt lat="43.92831" lon="1.80832">
        <ele>255.39999389648</ele>
        <time>2020-08-13T17:49:32.000Z</time>
      </trkpt>
      <trkpt lat="43.92829" lon="1.80829">
        <ele>255.39999389648</ele>
        <time>2020-08-13T17:49:33.000Z</time>
      </trkpt>
      <trkpt lat="43.92828" lon="1.80826">
        <ele>255.39999389648</ele>
        <time>2020-08-13T17:49:34.000Z</time>
      </trkpt>
      <trkpt lat="43.92826" lon="1.80822">
        <ele>255.60000610352</ele>
        <time>2020-08-13T17:49:35.000Z</time>
      </trkpt>
      <trkpt lat="43.92825" lon="1.80819">
        <ele>255.60000610352</ele>
        <time>2020-08-13T17:49:36.000Z</time>
      </trkpt>
      <trkpt lat="43.92823" lon="1.80816">
        <ele>255.80000305176</ele>
        <time>2020-08-13T17:49:37.000Z</time>
      </trkpt>
      <trkpt lat="43.92821" lon="1.80812">
        <ele>256</ele>
        <time>2020-08-13T17:49:38.000Z</time>
      </trkpt>
      <trkpt lat="43.9282" lon="1.80808">
        <ele>256.20001220703</ele>
        <time>2020-08-13T17:49:39.000Z</time>
      </trkpt>
      <trkpt lat="43.92818" lon="1.80805">
        <ele>256</ele>
        <time>2020-08-13T17:49:40.000Z</time>
      </trkpt>
      <trkpt lat="43.92817" lon="1.808">
        <ele>256.20001220703</ele>
        <time>2020-08-13T17:49:41.000Z</time>
      </trkpt>
      <trkpt lat="43.92816" lon="1.80796">
        <ele>256</ele>
        <time>2020-08-13T17:49:42.000Z</time>
      </trkpt>
      <trkpt lat="43.92814" lon="1.80793">
        <ele>256</ele>
        <time>2020-08-13T17:49:43.000Z</time>
      </trkpt>
      <trkpt lat="43.92813" lon="1.80789">
        <ele>256</ele>
        <time>2020-08-13T17:49:44.000Z</time>
      </trkpt>
      <trkpt lat="43.92812" lon="1.80784">
        <ele>256</ele>
        <time>2020-08-13T17:49:45.000Z</time>
      </trkpt>
      <trkpt lat="43.92811" lon="1.80781">
        <ele>256.20001220703</ele>
        <time>2020-08-13T17:49:46.000Z</time>
      </trkpt>
      <trkpt lat="43.92811" lon="1.80778">
        <ele>256.20001220703</ele>
        <time>2020-08-13T17:49:47.000Z</time>
      </trkpt>
      <trkpt lat="43.92811" lon="1.80775">
        <ele>256.20001220703</ele>
        <time>2020-08-13T17:49:48.000Z</time>
      </trkpt>
      <trkpt lat="43.92811" lon="1.80772">
        <ele>256.20001220703</ele>
        <time>2020-08-13T17:49:49.000Z</time>
      </trkpt>
      <trkpt lat="43.92811" lon="1.8077">
        <ele>256</ele>
        <time>2020-08-13T17:49:50.000Z</time>
      </trkpt>
      <trkpt lat="43.92813" lon="1.80767">
        <ele>255.60000610352</ele>
        <time>2020-08-13T17:49:51.000Z</time>
      </trkpt>
      <trkpt lat="43.92814" lon="1.80763">
        <ele>255</ele>
        <time>2020-08-13T17:49:52.000Z</time>
      </trkpt>
      <trkpt lat="43.92816" lon="1.80759">
        <ele>254.19999694824</ele>
        <time>2020-08-13T17:49:53.000Z</time>
      </trkpt>
      <trkpt lat="43.92818" lon="1.80756">
        <ele>253.80000305176</ele>
        <time>2020-08-13T17:49:54.000Z</time>
      </trkpt>
      <trkpt lat="43.9282" lon="1.80752">
        <ele>253.19999694824</ele>
        <time>2020-08-13T17:49:55.000Z</time>
      </trkpt>
      <trkpt lat="43.92823" lon="1.80748">
        <ele>252.80000305176</ele>
        <time>2020-08-13T17:49:56.000Z</time>
      </trkpt>
      <trkpt lat="43.92825" lon="1.80744">
        <ele>252.39999389648</ele>
        <time>2020-08-13T17:49:57.000Z</time>
      </trkpt>
      <trkpt lat="43.92828" lon="1.8074">
        <ele>251.80000305176</ele>
        <time>2020-08-13T17:49:58.000Z</time>
      </trkpt>
      <trkpt lat="43.9283" lon="1.80735">
        <ele>251.39999389648</ele>
        <time>2020-08-13T17:49:59.000Z</time>
      </trkpt>
      <trkpt lat="43.92833" lon="1.8073">
        <ele>250.60000610352</ele>
        <time>2020-08-13T17:50:00.000Z</time>
      </trkpt>
      <trkpt lat="43.92835" lon="1.80725">
        <ele>250.19999694824</ele>
        <time>2020-08-13T17:50:01.000Z</time>
      </trkpt>
      <trkpt lat="43.92838" lon="1.80721">
        <ele>249.80000305176</ele>
        <time>2020-08-13T17:50:02.000Z</time>
      </trkpt>
      <trkpt lat="43.9284" lon="1.80716">
        <ele>249.60000610352</ele>
        <time>2020-08-13T17:50:03.000Z</time>
      </trkpt>
      <trkpt lat="43.92842" lon="1.80711">
        <ele>249.39999389648</ele>
        <time>2020-08-13T17:50:04.000Z</time>
      </trkpt>
      <trkpt lat="43.92843" lon="1.80707">
        <ele>249</ele>
        <time>2020-08-13T17:50:05.000Z</time>
      </trkpt>
      <trkpt lat="43.92844" lon="1.80703">
        <ele>248.39999389648</ele>
        <time>2020-08-13T17:50:06.000Z</time>
      </trkpt>
      <trkpt lat="43.92844" lon="1.80699">
        <ele>247.80000305176</ele>
        <time>2020-08-13T17:50:07.000Z</time>
      </trkpt>
      <trkpt lat="43.92844" lon="1.80696">
        <ele>247.39999389648</ele>
        <time>2020-08-13T17:50:08.000Z</time>
      </trkpt>
      <trkpt lat="43.92844" lon="1.80693">
        <ele>247</ele>
        <time>2020-08-13T17:50:09.000Z</time>
      </trkpt>
      <trkpt lat="43.92844" lon="1.8069">
        <ele>246.60000610352</ele>
        <time>2020-08-13T17:50:10.000Z</time>
      </trkpt>
      <trkpt lat="43.92844" lon="1.80687">
        <ele>246.19999694824</ele>
        <time>2020-08-13T17:50:11.000Z</time>
      </trkpt>
      <trkpt lat="43.92844" lon="1.80684">
        <ele>245.60000610352</ele>
        <time>2020-08-13T17:50:12.000Z</time>
      </trkpt>
      <trkpt lat="43.92845" lon="1.80681">
        <ele>245</ele>
        <time>2020-08-13T17:50:13.000Z</time>
      </trkpt>
      <trkpt lat="43.92845" lon="1.80678">
        <ele>243.80000305176</ele>
        <time>2020-08-13T17:50:14.000Z</time>
      </trkpt>
      <trkpt lat="43.92844" lon="1.80675">
        <ele>243</ele>
        <time>2020-08-13T17:50:15.000Z</time>
      </trkpt>
      <trkpt lat="43.92844" lon="1.80671">
        <ele>242.39999389648</ele>
        <time>2020-08-13T17:50:16.000Z</time>
      </trkpt>
      <trkpt lat="43.92844" lon="1.80666">
        <ele>241.60000610352</ele>
        <time>2020-08-13T17:50:17.000Z</time>
      </trkpt>
      <trkpt lat="43.92844" lon="1.80662">
        <ele>241</ele>
        <time>2020-08-13T17:50:18.000Z</time>
      </trkpt>
      <trkpt lat="43.92845" lon="1.80658">
        <ele>240</ele>
        <time>2020-08-13T17:50:19.000Z</time>
      </trkpt>
      <trkpt lat="43.92845" lon="1.80652">
        <ele>239.19999694824</ele>
        <time>2020-08-13T17:50:20.000Z</time>
      </trkpt>
      <trkpt lat="43.92845" lon="1.80648">
        <ele>238.60000610352</ele>
        <time>2020-08-13T17:50:21.000Z</time>
      </trkpt>
      <trkpt lat="43.92846" lon="1.80643">
        <ele>237.80000305176</ele>
        <time>2020-08-13T17:50:22.000Z</time>
      </trkpt>
      <trkpt lat="43.92846" lon="1.80638">
        <ele>237.19999694824</ele>
        <time>2020-08-13T17:50:23.000Z</time>
      </trkpt>
      <trkpt lat="43.92846" lon="1.80632">
        <ele>236.80000305176</ele>
        <time>2020-08-13T17:50:24.000Z</time>
      </trkpt>
      <trkpt lat="43.92846" lon="1.80627">
        <ele>236.39999389648</ele>
        <time>2020-08-13T17:50:25.000Z</time>
      </trkpt>
      <trkpt lat="43.92846" lon="1.80621">
        <ele>235.60000610352</ele>
        <time>2020-08-13T17:50:26.000Z</time>
      </trkpt>
      <trkpt lat="43.92846" lon="1.80616">
        <ele>235.19999694824</ele>
        <time>2020-08-13T17:50:27.000Z</time>
      </trkpt>
      <trkpt lat="43.92847" lon="1.8061">
        <ele>234.60000610352</ele>
        <time>2020-08-13T17:50:28.000Z</time>
      </trkpt>
      <trkpt lat="43.92848" lon="1.80607">
        <ele>234.19999694824</ele>
        <time>2020-08-13T17:50:29.000Z</time>
      </trkpt>
      <trkpt lat="43.9285" lon="1.80603">
        <ele>233.80000305176</ele>
        <time>2020-08-13T17:50:30.000Z</time>
      </trkpt>
      <trkpt lat="43.92851" lon="1.80599">
        <ele>233.60000610352</ele>
        <time>2020-08-13T17:50:31.000Z</time>
      </trkpt>
      <trkpt lat="43.92852" lon="1.80594">
        <ele>233.19999694824</ele>
        <time>2020-08-13T17:50:32.000Z</time>
      </trkpt>
      <trkpt lat="43.92853" lon="1.8059">
        <ele>232.60000610352</ele>
        <time>2020-08-13T17:50:33.000Z</time>
      </trkpt>
      <trkpt lat="43.92854" lon="1.80585">
        <ele>232.19999694824</ele>
        <time>2020-08-13T17:50:34.000Z</time>
      </trkpt>
      <trkpt lat="43.92856" lon="1.8058">
        <ele>231.60000610352</ele>
        <time>2020-08-13T17:50:35.000Z</time>
      </trkpt>
      <trkpt lat="43.92856" lon="1.80575">
        <ele>231</ele>
        <time>2020-08-13T17:50:36.000Z</time>
      </trkpt>
      <trkpt lat="43.92857" lon="1.80571">
        <ele>230.60000610352</ele>
        <time>2020-08-13T17:50:37.000Z</time>
      </trkpt>
      <trkpt lat="43.92857" lon="1.80565">
        <ele>229.80000305176</ele>
        <time>2020-08-13T17:50:38.000Z</time>
      </trkpt>
      <trkpt lat="43.92858" lon="1.8056">
        <ele>229.19999694824</ele>
        <time>2020-08-13T17:50:39.000Z</time>
      </trkpt>
      <trkpt lat="43.9286" lon="1.80557">
        <ele>228.60000610352</ele>
        <time>2020-08-13T17:50:40.000Z</time>
      </trkpt>
      <trkpt lat="43.9286" lon="1.80553">
        <ele>227.80000305176</ele>
        <time>2020-08-13T17:50:41.000Z</time>
      </trkpt>
      <trkpt lat="43.92861" lon="1.80551">
        <ele>227.19999694824</ele>
        <time>2020-08-13T17:50:42.000Z</time>
      </trkpt>
      <trkpt lat="43.92862" lon="1.80548">
        <ele>226.60000610352</ele>
        <time>2020-08-13T17:50:43.000Z</time>
      </trkpt>
      <trkpt lat="43.92862" lon="1.80546">
        <ele>225.80000305176</ele>
        <time>2020-08-13T17:50:44.000Z</time>
      </trkpt>
      <trkpt lat="43.92864" lon="1.80543">
        <ele>225</ele>
        <time>2020-08-13T17:50:45.000Z</time>
      </trkpt>
      <trkpt lat="43.92866" lon="1.80539">
        <ele>224.39999389648</ele>
        <time>2020-08-13T17:50:46.000Z</time>
      </trkpt>
      <trkpt lat="43.92868" lon="1.80536">
        <ele>224</ele>
        <time>2020-08-13T17:50:47.000Z</time>
      </trkpt>
      <trkpt lat="43.92871" lon="1.80532">
        <ele>223.60000610352</ele>
        <time>2020-08-13T17:50:48.000Z</time>
      </trkpt>
      <trkpt lat="43.92872" lon="1.80529">
        <ele>223.19999694824</ele>
        <time>2020-08-13T17:50:49.000Z</time>
      </trkpt>
      <trkpt lat="43.92874" lon="1.80526">
        <ele>223</ele>
        <time>2020-08-13T17:50:50.000Z</time>
      </trkpt>
      <trkpt lat="43.92876" lon="1.80524">
        <ele>222.39999389648</ele>
        <time>2020-08-13T17:50:51.000Z</time>
      </trkpt>
      <trkpt lat="43.92878" lon="1.80521">
        <ele>221.80000305176</ele>
        <time>2020-08-13T17:50:52.000Z</time>
      </trkpt>
      <trkpt lat="43.9288" lon="1.80518">
        <ele>221.19999694824</ele>
        <time>2020-08-13T17:50:53.000Z</time>
      </trkpt>
      <trkpt lat="43.92882" lon="1.80516">
        <ele>220.60000610352</ele>
        <time>2020-08-13T17:50:54.000Z</time>
      </trkpt>
      <trkpt lat="43.92883" lon="1.80514">
        <ele>220.19999694824</ele>
        <time>2020-08-13T17:50:55.000Z</time>
      </trkpt>
      <trkpt lat="43.92884" lon="1.80512">
        <ele>219.60000610352</ele>
        <time>2020-08-13T17:50:56.000Z</time>
      </trkpt>
      <trkpt lat="43.92886" lon="1.80509">
        <ele>219</ele>
        <time>2020-08-13T17:50:57.000Z</time>
      </trkpt>
      <trkpt lat="43.92888" lon="1.80507">
        <ele>218.39999389648</ele>
        <time>2020-08-13T17:50:58.000Z</time>
      </trkpt>
      <trkpt lat="43.9289" lon="1.80503">
        <ele>217.80000305176</ele>
        <time>2020-08-13T17:50:59.000Z</time>
      </trkpt>
      <trkpt lat="43.92891" lon="1.80499">
        <ele>217.19999694824</ele>
        <time>2020-08-13T17:51:00.000Z</time>
      </trkpt>
      <trkpt lat="43.92893" lon="1.80495">
        <ele>216.39999389648</ele>
        <time>2020-08-13T17:51:01.000Z</time>
      </trkpt>
      <trkpt lat="43.92895" lon="1.80492">
        <ele>215</ele>
        <time>2020-08-13T17:51:02.000Z</time>
      </trkpt>
      <trkpt lat="43.92896" lon="1.80489">
        <ele>214.39999389648</ele>
        <time>2020-08-13T17:51:03.000Z</time>
      </trkpt>
      <trkpt lat="43.92898" lon="1.80487">
        <ele>214</ele>
        <time>2020-08-13T17:51:04.000Z</time>
      </trkpt>
      <trkpt lat="43.92899" lon="1.80486">
        <ele>213.60000610352</ele>
        <time>2020-08-13T17:51:05.000Z</time>
      </trkpt>
      <trkpt lat="43.929" lon="1.80483">
        <ele>213.19999694824</ele>
        <time>2020-08-13T17:51:06.000Z</time>
      </trkpt>
      <trkpt lat="43.92899" lon="1.80484">
        <ele>212.80000305176</ele>
        <time>2020-08-13T17:51:07.000Z</time>
      </trkpt>
      <trkpt lat="43.92902" lon="1.8048">
        <ele>212.39999389648</ele>
        <time>2020-08-13T17:51:08.000Z</time>
      </trkpt>
      <trkpt lat="43.92904" lon="1.80479">
        <ele>212</ele>
        <time>2020-08-13T17:51:09.000Z</time>
      </trkpt>
      <trkpt lat="43.92906" lon="1.80477">
        <ele>211.39999389648</ele>
        <time>2020-08-13T17:51:10.000Z</time>
      </trkpt>
      <trkpt lat="43.92907" lon="1.80476">
        <ele>211</ele>
        <time>2020-08-13T17:51:11.000Z</time>
      </trkpt>
      <trkpt lat="43.92908" lon="1.80475">
        <ele>210.60000610352</ele>
        <time>2020-08-13T17:51:12.000Z</time>
      </trkpt>
      <trkpt lat="43.92908" lon="1.80475">
        <ele>210</ele>
        <time>2020-08-13T17:51:13.000Z</time>
      </trkpt>
      <trkpt lat="43.9291" lon="1.80474">
        <ele>209.60000610352</ele>
        <time>2020-08-13T17:51:14.000Z</time>
      </trkpt>
      <trkpt lat="43.92912" lon="1.80475">
        <ele>209.19999694824</ele>
        <time>2020-08-13T17:51:15.000Z</time>
      </trkpt>
      <trkpt lat="43.92914" lon="1.80475">
        <ele>209</ele>
        <time>2020-08-13T17:51:16.000Z</time>
      </trkpt>
      <trkpt lat="43.92915" lon="1.80475">
        <ele>208.80000305176</ele>
        <time>2020-08-13T17:51:17.000Z</time>
      </trkpt>
      <trkpt lat="43.92915" lon="1.80475">
        <ele>208.60000610352</ele>
        <time>2020-08-13T17:51:18.000Z</time>
      </trkpt>
      <trkpt lat="43.92915" lon="1.80475">
        <ele>208.60000610352</ele>
        <time>2020-08-13T17:51:19.000Z</time>
      </trkpt>
      <trkpt lat="43.92915" lon="1.80475">
        <ele>208.60000610352</ele>
        <time>2020-08-13T17:51:20.000Z</time>
      </trkpt>
      <trkpt lat="43.92915" lon="1.80475">
        <ele>208.39999389648</ele>
        <time>2020-08-13T17:51:21.000Z</time>
      </trkpt>
      <trkpt lat="43.92915" lon="1.80475">
        <ele>208.39999389648</ele>
        <time>2020-08-13T17:51:22.000Z</time>
      </trkpt>
      <trkpt lat="43.92917" lon="1.80473">
        <ele>208.19999694824</ele>
        <time>2020-08-13T17:51:23.000Z</time>
      </trkpt>
      <trkpt lat="43.9292" lon="1.80473">
        <ele>207.80000305176</ele>
        <time>2020-08-13T17:51:24.000Z</time>
      </trkpt>
      <trkpt lat="43.92922" lon="1.80474">
        <ele>207.60000610352</ele>
        <time>2020-08-13T17:51:25.000Z</time>
      </trkpt>
      <trkpt lat="43.92924" lon="1.80474">
        <ele>207.60000610352</ele>
        <time>2020-08-13T17:51:26.000Z</time>
      </trkpt>
      <trkpt lat="43.92924" lon="1.80473">
        <ele>207.60000610352</ele>
        <time>2020-08-13T17:51:27.000Z</time>
      </trkpt>
      <trkpt lat="43.92927" lon="1.80474">
        <ele>207.60000610352</ele>
        <time>2020-08-13T17:51:28.000Z</time>
      </trkpt>
      <trkpt lat="43.9293" lon="1.80474">
        <ele>207.60000610352</ele>
        <time>2020-08-13T17:51:29.000Z</time>
      </trkpt>
      <trkpt lat="43.92929" lon="1.80474">
        <ele>207.60000610352</ele>
        <time>2020-08-13T17:51:30.000Z</time>
      </trkpt>
      <trkpt lat="43.92933" lon="1.80474">
        <ele>207.60000610352</ele>
        <time>2020-08-13T17:51:31.000Z</time>
      </trkpt>
      <trkpt lat="43.92934" lon="1.80473">
        <ele>207.60000610352</ele>
        <time>2020-08-13T17:51:32.000Z</time>
      </trkpt>
      <trkpt lat="43.92936" lon="1.80472">
        <ele>207.60000610352</ele>
        <time>2020-08-13T17:51:33.000Z</time>
      </trkpt>
      <trkpt lat="43.92937" lon="1.80471">
        <ele>207.60000610352</ele>
        <time>2020-08-13T17:51:34.000Z</time>
      </trkpt>
      <trkpt lat="43.92939" lon="1.80469">
        <ele>207.39999389648</ele>
        <time>2020-08-13T17:51:35.000Z</time>
      </trkpt>
      <trkpt lat="43.9294" lon="1.80468">
        <ele>207.39999389648</ele>
        <time>2020-08-13T17:51:36.000Z</time>
      </trkpt>
      <trkpt lat="43.92941" lon="1.80467">
        <ele>207.39999389648</ele>
        <time>2020-08-13T17:51:37.000Z</time>
      </trkpt>
      <trkpt lat="43.92943" lon="1.80465">
        <ele>207.39999389648</ele>
        <time>2020-08-13T17:51:38.000Z</time>
      </trkpt>
      <trkpt lat="43.92944" lon="1.80463">
        <ele>207.19999694824</ele>
        <time>2020-08-13T17:51:39.000Z</time>
      </trkpt>
      <trkpt lat="43.92945" lon="1.80462">
        <ele>207.19999694824</ele>
        <time>2020-08-13T17:51:40.000Z</time>
      </trkpt>
      <trkpt lat="43.92947" lon="1.8046">
        <ele>207.19999694824</ele>
        <time>2020-08-13T17:51:41.000Z</time>
      </trkpt>
      <trkpt lat="43.92948" lon="1.80458">
        <ele>207.19999694824</ele>
        <time>2020-08-13T17:51:42.000Z</time>
      </trkpt>
      <trkpt lat="43.9295" lon="1.80456">
        <ele>207.19999694824</ele>
        <time>2020-08-13T17:51:43.000Z</time>
      </trkpt>
      <trkpt lat="43.92951" lon="1.80454">
        <ele>207.19999694824</ele>
        <time>2020-08-13T17:51:44.000Z</time>
      </trkpt>
      <trkpt lat="43.92952" lon="1.80452">
        <ele>207.39999389648</ele>
        <time>2020-08-13T17:51:45.000Z</time>
      </trkpt>
      <trkpt lat="43.92953" lon="1.8045">
        <ele>207.39999389648</ele>
        <time>2020-08-13T17:51:46.000Z</time>
      </trkpt>
      <trkpt lat="43.92955" lon="1.80447">
        <ele>207.60000610352</ele>
        <time>2020-08-13T17:51:47.000Z</time>
      </trkpt>
      <trkpt lat="43.92956" lon="1.80445">
        <ele>207.60000610352</ele>
        <time>2020-08-13T17:51:48.000Z</time>
      </trkpt>
      <trkpt lat="43.92958" lon="1.80443">
        <ele>207.60000610352</ele>
        <time>2020-08-13T17:51:49.000Z</time>
      </trkpt>
      <trkpt lat="43.92959" lon="1.80441">
        <ele>207.60000610352</ele>
        <time>2020-08-13T17:51:50.000Z</time>
      </trkpt>
      <trkpt lat="43.92961" lon="1.80439">
        <ele>207.60000610352</ele>
        <time>2020-08-13T17:51:51.000Z</time>
      </trkpt>
      <trkpt lat="43.92963" lon="1.80437">
        <ele>207.80000305176</ele>
        <time>2020-08-13T17:51:52.000Z</time>
      </trkpt>
      <trkpt lat="43.92964" lon="1.80435">
        <ele>207.80000305176</ele>
        <time>2020-08-13T17:51:53.000Z</time>
      </trkpt>
      <trkpt lat="43.92966" lon="1.80432">
        <ele>208</ele>
        <time>2020-08-13T17:51:54.000Z</time>
      </trkpt>
      <trkpt lat="43.92968" lon="1.8043">
        <ele>208</ele>
        <time>2020-08-13T17:51:55.000Z</time>
      </trkpt>
      <trkpt lat="43.92969" lon="1.80427">
        <ele>208</ele>
        <time>2020-08-13T17:51:56.000Z</time>
      </trkpt>
      <trkpt lat="43.9297" lon="1.80425">
        <ele>208.19999694824</ele>
        <time>2020-08-13T17:51:57.000Z</time>
      </trkpt>
      <trkpt lat="43.92971" lon="1.80423">
        <ele>208.19999694824</ele>
        <time>2020-08-13T17:51:58.000Z</time>
      </trkpt>
      <trkpt lat="43.92972" lon="1.80421">
        <ele>208.19999694824</ele>
        <time>2020-08-13T17:51:59.000Z</time>
      </trkpt>
      <trkpt lat="43.92973" lon="1.80419">
        <ele>208.19999694824</ele>
        <time>2020-08-13T17:52:00.000Z</time>
      </trkpt>
      <trkpt lat="43.92974" lon="1.80417">
        <ele>208.39999389648</ele>
        <time>2020-08-13T17:52:01.000Z</time>
      </trkpt>
      <trkpt lat="43.92975" lon="1.80415">
        <ele>208.39999389648</ele>
        <time>2020-08-13T17:52:02.000Z</time>
      </trkpt>
      <trkpt lat="43.92977" lon="1.80413">
        <ele>208.60000610352</ele>
        <time>2020-08-13T17:52:03.000Z</time>
      </trkpt>
      <trkpt lat="43.92979" lon="1.80411">
        <ele>208.60000610352</ele>
        <time>2020-08-13T17:52:04.000Z</time>
      </trkpt>
      <trkpt lat="43.9298" lon="1.80409">
        <ele>208.60000610352</ele>
        <time>2020-08-13T17:52:05.000Z</time>
      </trkpt>
      <trkpt lat="43.92982" lon="1.80406">
        <ele>208.80000305176</ele>
        <time>2020-08-13T17:52:06.000Z</time>
      </trkpt>
      <trkpt lat="43.92984" lon="1.80404">
        <ele>209</ele>
        <time>2020-08-13T17:52:07.000Z</time>
      </trkpt>
      <trkpt lat="43.92985" lon="1.80401">
        <ele>209.19999694824</ele>
        <time>2020-08-13T17:52:08.000Z</time>
      </trkpt>
      <trkpt lat="43.92987" lon="1.80399">
        <ele>209.19999694824</ele>
        <time>2020-08-13T17:52:09.000Z</time>
      </trkpt>
      <trkpt lat="43.92989" lon="1.80396">
        <ele>209.39999389648</ele>
        <time>2020-08-13T17:52:10.000Z</time>
      </trkpt>
      <trkpt lat="43.92991" lon="1.80394">
        <ele>209.39999389648</ele>
        <time>2020-08-13T17:52:11.000Z</time>
      </trkpt>
      <trkpt lat="43.92993" lon="1.80391">
        <ele>209.60000610352</ele>
        <time>2020-08-13T17:52:12.000Z</time>
      </trkpt>
      <trkpt lat="43.92995" lon="1.80388">
        <ele>209.60000610352</ele>
        <time>2020-08-13T17:52:13.000Z</time>
      </trkpt>
      <trkpt lat="43.92997" lon="1.80385">
        <ele>209.80000305176</ele>
        <time>2020-08-13T17:52:14.000Z</time>
      </trkpt>
      <trkpt lat="43.92999" lon="1.80383">
        <ele>210</ele>
        <time>2020-08-13T17:52:15.000Z</time>
      </trkpt>
      <trkpt lat="43.93001" lon="1.8038">
        <ele>210.19999694824</ele>
        <time>2020-08-13T17:52:16.000Z</time>
      </trkpt>
      <trkpt lat="43.93003" lon="1.80377">
        <ele>210.39999389648</ele>
        <time>2020-08-13T17:52:17.000Z</time>
      </trkpt>
      <trkpt lat="43.93006" lon="1.80374">
        <ele>210.60000610352</ele>
        <time>2020-08-13T17:52:18.000Z</time>
      </trkpt>
      <trkpt lat="43.93008" lon="1.80371">
        <ele>210.80000305176</ele>
        <time>2020-08-13T17:52:19.000Z</time>
      </trkpt>
      <trkpt lat="43.9301" lon="1.80367">
        <ele>210.80000305176</ele>
        <time>2020-08-13T17:52:20.000Z</time>
      </trkpt>
      <trkpt lat="43.93012" lon="1.80363">
        <ele>211</ele>
        <time>2020-08-13T17:52:21.000Z</time>
      </trkpt>
      <trkpt lat="43.93015" lon="1.8036">
        <ele>211.19999694824</ele>
        <time>2020-08-13T17:52:22.000Z</time>
      </trkpt>
      <trkpt lat="43.93017" lon="1.80358">
        <ele>211.39999389648</ele>
        <time>2020-08-13T17:52:23.000Z</time>
      </trkpt>
      <trkpt lat="43.9302" lon="1.80355">
        <ele>211.80000305176</ele>
        <time>2020-08-13T17:52:24.000Z</time>
      </trkpt>
      <trkpt lat="43.93022" lon="1.80352">
        <ele>212</ele>
        <time>2020-08-13T17:52:25.000Z</time>
      </trkpt>
      <trkpt lat="43.93024" lon="1.80349">
        <ele>212.19999694824</ele>
        <time>2020-08-13T17:52:26.000Z</time>
      </trkpt>
      <trkpt lat="43.93026" lon="1.80346">
        <ele>212.39999389648</ele>
        <time>2020-08-13T17:52:27.000Z</time>
      </trkpt>
      <trkpt lat="43.93028" lon="1.80343">
        <ele>212.60000610352</ele>
        <time>2020-08-13T17:52:28.000Z</time>
      </trkpt>
      <trkpt lat="43.93031" lon="1.8034">
        <ele>212.60000610352</ele>
        <time>2020-08-13T17:52:29.000Z</time>
      </trkpt>
      <trkpt lat="43.93033" lon="1.80338">
        <ele>212.80000305176</ele>
        <time>2020-08-13T17:52:30.000Z</time>
      </trkpt>
      <trkpt lat="43.93035" lon="1.80335">
        <ele>213</ele>
        <time>2020-08-13T17:52:31.000Z</time>
      </trkpt>
      <trkpt lat="43.93037" lon="1.80332">
        <ele>213.19999694824</ele>
        <time>2020-08-13T17:52:32.000Z</time>
      </trkpt>
      <trkpt lat="43.93038" lon="1.8033">
        <ele>213.39999389648</ele>
        <time>2020-08-13T17:52:33.000Z</time>
      </trkpt>
      <trkpt lat="43.9304" lon="1.80328">
        <ele>213.60000610352</ele>
        <time>2020-08-13T17:52:34.000Z</time>
      </trkpt>
      <trkpt lat="43.93041" lon="1.80326">
        <ele>214</ele>
        <time>2020-08-13T17:52:35.000Z</time>
      </trkpt>
      <trkpt lat="43.93043" lon="1.80324">
        <ele>214.19999694824</ele>
        <time>2020-08-13T17:52:36.000Z</time>
      </trkpt>
      <trkpt lat="43.93044" lon="1.80322">
        <ele>214.39999389648</ele>
        <time>2020-08-13T17:52:37.000Z</time>
      </trkpt>
      <trkpt lat="43.93046" lon="1.8032">
        <ele>214.80000305176</ele>
        <time>2020-08-13T17:52:38.000Z</time>
      </trkpt>
      <trkpt lat="43.93047" lon="1.80318">
        <ele>215.19999694824</ele>
        <time>2020-08-13T17:52:39.000Z</time>
      </trkpt>
      <trkpt lat="43.93049" lon="1.80316">
        <ele>215.39999389648</ele>
        <time>2020-08-13T17:52:40.000Z</time>
      </trkpt>
      <trkpt lat="43.9305" lon="1.80314">
        <ele>215.39999389648</ele>
        <time>2020-08-13T17:52:41.000Z</time>
      </trkpt>
      <trkpt lat="43.93052" lon="1.80312">
        <ele>215.60000610352</ele>
        <time>2020-08-13T17:52:42.000Z</time>
      </trkpt>
      <trkpt lat="43.93053" lon="1.8031">
        <ele>215.80000305176</ele>
        <time>2020-08-13T17:52:43.000Z</time>
      </trkpt>
      <trkpt lat="43.93055" lon="1.80309">
        <ele>216</ele>
        <time>2020-08-13T17:52:44.000Z</time>
      </trkpt>
      <trkpt lat="43.93056" lon="1.80307">
        <ele>216.19999694824</ele>
        <time>2020-08-13T17:52:45.000Z</time>
      </trkpt>
      <trkpt lat="43.93057" lon="1.80305">
        <ele>216.39999389648</ele>
        <time>2020-08-13T17:52:46.000Z</time>
      </trkpt>
      <trkpt lat="43.93059" lon="1.80304">
        <ele>216.60000610352</ele>
        <time>2020-08-13T17:52:47.000Z</time>
      </trkpt>
      <trkpt lat="43.93061" lon="1.80302">
        <ele>216.60000610352</ele>
        <time>2020-08-13T17:52:48.000Z</time>
      </trkpt>
      <trkpt lat="43.93062" lon="1.803">
        <ele>216.80000305176</ele>
        <time>2020-08-13T17:52:49.000Z</time>
      </trkpt>
      <trkpt lat="43.93063" lon="1.80298">
        <ele>217</ele>
        <time>2020-08-13T17:52:50.000Z</time>
      </trkpt>
      <trkpt lat="43.93065" lon="1.80296">
        <ele>217.19999694824</ele>
        <time>2020-08-13T17:52:51.000Z</time>
      </trkpt>
      <trkpt lat="43.93066" lon="1.80294">
        <ele>217.19999694824</ele>
        <time>2020-08-13T17:52:52.000Z</time>
      </trkpt>
      <trkpt lat="43.93067" lon="1.80292">
        <ele>217.39999389648</ele>
        <time>2020-08-13T17:52:53.000Z</time>
      </trkpt>
      <trkpt lat="43.93068" lon="1.8029">
        <ele>217.60000610352</ele>
        <time>2020-08-13T17:52:54.000Z</time>
      </trkpt>
      <trkpt lat="43.93069" lon="1.80289">
        <ele>217.80000305176</ele>
        <time>2020-08-13T17:52:55.000Z</time>
      </trkpt>
      <trkpt lat="43.9307" lon="1.80287">
        <ele>218</ele>
        <time>2020-08-13T17:52:56.000Z</time>
      </trkpt>
      <trkpt lat="43.93071" lon="1.80285">
        <ele>218</ele>
        <time>2020-08-13T17:52:57.000Z</time>
      </trkpt>
      <trkpt lat="43.93072" lon="1.80283">
        <ele>218</ele>
        <time>2020-08-13T17:52:58.000Z</time>
      </trkpt>
      <trkpt lat="43.93073" lon="1.80281">
        <ele>218</ele>
        <time>2020-08-13T17:52:59.000Z</time>
      </trkpt>
      <trkpt lat="43.93074" lon="1.80279">
        <ele>218.19999694824</ele>
        <time>2020-08-13T17:53:00.000Z</time>
      </trkpt>
      <trkpt lat="43.93074" lon="1.80277">
        <ele>218.19999694824</ele>
        <time>2020-08-13T17:53:01.000Z</time>
      </trkpt>
      <trkpt lat="43.93074" lon="1.80275">
        <ele>218</ele>
        <time>2020-08-13T17:53:02.000Z</time>
      </trkpt>
      <trkpt lat="43.93074" lon="1.80273">
        <ele>218.19999694824</ele>
        <time>2020-08-13T17:53:03.000Z</time>
      </trkpt>
      <trkpt lat="43.93073" lon="1.80272">
        <ele>218.19999694824</ele>
        <time>2020-08-13T17:53:04.000Z</time>
      </trkpt>
      <trkpt lat="43.93072" lon="1.8027">
        <ele>218.19999694824</ele>
        <time>2020-08-13T17:53:05.000Z</time>
      </trkpt>
      <trkpt lat="43.93073" lon="1.80271">
        <ele>218.19999694824</ele>
        <time>2020-08-13T17:53:06.000Z</time>
      </trkpt>
      <trkpt lat="43.93072" lon="1.8027">
        <ele>218.19999694824</ele>
        <time>2020-08-13T17:53:07.000Z</time>
      </trkpt>
      <trkpt lat="43.93072" lon="1.8027">
        <ele>218</ele>
        <time>2020-08-13T17:53:08.000Z</time>
      </trkpt>
      <trkpt lat="43.93072" lon="1.8027">
        <ele>218.19999694824</ele>
        <time>2020-08-13T17:53:09.000Z</time>
      </trkpt>
      <trkpt lat="43.93072" lon="1.8027">
        <ele>218.19999694824</ele>
        <time>2020-08-13T17:53:10.000Z</time>
      </trkpt>
      <trkpt lat="43.93072" lon="1.8027">
        <ele>218.19999694824</ele>
        <time>2020-08-13T17:53:11.000Z</time>
      </trkpt>
      <trkpt lat="43.93072" lon="1.8027">
        <ele>218.19999694824</ele>
        <time>2020-08-13T17:53:12.000Z</time>
      </trkpt>
      <trkpt lat="43.93072" lon="1.8027">
        <ele>218.19999694824</ele>
        <time>2020-08-13T17:53:13.000Z</time>
      </trkpt>
      <trkpt lat="43.93072" lon="1.8027">
        <ele>218.19999694824</ele>
        <time>2020-08-13T17:53:14.000Z</time>
      </trkpt>
      <trkpt lat="43.93072" lon="1.8027">
        <ele>218.19999694824</ele>
        <time>2020-08-13T17:53:15.000Z</time>
      </trkpt>
      <trkpt lat="43.93072" lon="1.8027">
        <ele>218.19999694824</ele>
        <time>2020-08-13T17:53:16.000Z</time>
      </trkpt>
      <trkpt lat="43.93072" lon="1.8027">
        <ele>218.19999694824</ele>
        <time>2020-08-13T17:53:17.000Z</time>
      </trkpt>
      <trkpt lat="43.93072" lon="1.8027">
        <ele>218.19999694824</ele>
        <time>2020-08-13T17:53:18.000Z</time>
      </trkpt>
      <trkpt lat="43.93072" lon="1.8027">
        <ele>218.19999694824</ele>
        <time>2020-08-13T17:53:19.000Z</time>
      </trkpt>
      <trkpt lat="43.93072" lon="1.8027">
        <ele>218.19999694824</ele>
        <time>2020-08-13T17:53:20.000Z</time>
      </trkpt>
      <trkpt lat="43.93072" lon="1.8027">
        <ele>218.19999694824</ele>
        <time>2020-08-13T17:53:21.000Z</time>
      </trkpt>
      <trkpt lat="43.93072" lon="1.8027">
        <ele>218.19999694824</ele>
        <time>2020-08-13T17:53:22.000Z</time>
      </trkpt>
      <trkpt lat="43.93072" lon="1.8027">
        <ele>218.19999694824</ele>
        <time>2020-08-13T17:53:23.000Z</time>
      </trkpt>
      <trkpt lat="43.93072" lon="1.8027">
        <ele>218.19999694824</ele>
        <time>2020-08-13T17:53:24.000Z</time>
      </trkpt>
      <trkpt lat="43.93072" lon="1.8027">
        <ele>218.19999694824</ele>
        <time>2020-08-13T17:53:25.000Z</time>
      </trkpt>
      <trkpt lat="43.93072" lon="1.8027">
        <ele>218.19999694824</ele>
        <time>2020-08-13T17:53:26.000Z</time>
      </trkpt>
      <trkpt lat="43.93072" lon="1.8027">
        <ele>218.19999694824</ele>
        <time>2020-08-13T17:53:27.000Z</time>
      </trkpt>
      <trkpt lat="43.93072" lon="1.8027">
        <ele>218.19999694824</ele>
        <time>2020-08-13T17:53:28.000Z</time>
      </trkpt>
      <trkpt lat="43.93072" lon="1.8027">
        <ele>218.19999694824</ele>
        <time>2020-08-13T17:53:29.000Z</time>
      </trkpt>
      <trkpt lat="43.93072" lon="1.8027">
        <ele>218.19999694824</ele>
        <time>2020-08-13T17:53:30.000Z</time>
      </trkpt>
      <trkpt lat="43.93072" lon="1.8027">
        <ele>218.19999694824</ele>
        <time>2020-08-13T17:53:31.000Z</time>
      </trkpt>
      <trkpt lat="43.93072" lon="1.8027">
        <ele>218.19999694824</ele>
        <time>2020-08-13T17:53:32.000Z</time>
      </trkpt>
      <trkpt lat="43.93072" lon="1.8027">
        <ele>218.19999694824</ele>
        <time>2020-08-13T17:53:33.000Z</time>
      </trkpt>
      <trkpt lat="43.93072" lon="1.8027">
        <ele>218</ele>
        <time>2020-08-13T17:53:34.000Z</time>
      </trkpt>
      <trkpt lat="43.93072" lon="1.8027">
        <ele>218</ele>
        <time>2020-08-13T17:53:35.000Z</time>
      </trkpt>
      <trkpt lat="43.93072" lon="1.8027">
        <ele>218</ele>
        <time>2020-08-13T17:53:36.000Z</time>
      </trkpt>
      <trkpt lat="43.93072" lon="1.8027">
        <ele>218</ele>
        <time>2020-08-13T17:53:37.000Z</time>
      </trkpt>
      <trkpt lat="43.93072" lon="1.8027">
        <ele>218.19999694824</ele>
        <time>2020-08-13T17:53:38.000Z</time>
      </trkpt>
      <trkpt lat="43.93072" lon="1.8027">
        <ele>218.19999694824</ele>
        <time>2020-08-13T17:53:39.000Z</time>
      </trkpt>
      <trkpt lat="43.93072" lon="1.8027">
        <ele>218</ele>
        <time>2020-08-13T17:53:40.000Z</time>
      </trkpt>
      <trkpt lat="43.93072" lon="1.8027">
        <ele>218</ele>
        <time>2020-08-13T17:53:41.000Z</time>
      </trkpt>
      <trkpt lat="43.93072" lon="1.8027">
        <ele>218</ele>
        <time>2020-08-13T17:53:42.000Z</time>
      </trkpt>
      <trkpt lat="43.93072" lon="1.8027">
        <ele>218</ele>
        <time>2020-08-13T17:53:43.000Z</time>
      </trkpt>
      <trkpt lat="43.93072" lon="1.8027">
        <ele>218.19999694824</ele>
        <time>2020-08-13T17:53:44.000Z</time>
      </trkpt>
      <trkpt lat="43.93072" lon="1.8027">
        <ele>218</ele>
        <time>2020-08-13T17:53:45.000Z</time>
      </trkpt>
      <trkpt lat="43.93072" lon="1.8027">
        <ele>218</ele>
        <time>2020-08-13T17:53:46.000Z</time>
      </trkpt>
      <trkpt lat="43.93072" lon="1.8027">
        <ele>218</ele>
        <time>2020-08-13T17:53:47.000Z</time>
      </trkpt>
      <trkpt lat="43.93072" lon="1.8027">
        <ele>218</ele>
        <time>2020-08-13T17:53:48.000Z</time>
      </trkpt>
      <trkpt lat="43.93072" lon="1.8027">
        <ele>218</ele>
        <time>2020-08-13T17:53:49.000Z</time>
      </trkpt>
      <trkpt lat="43.93072" lon="1.8027">
        <ele>218</ele>
        <time>2020-08-13T17:53:50.000Z</time>
      </trkpt>
      <trkpt lat="43.93071" lon="1.8027">
        <ele>218</ele>
        <time>2020-08-13T17:53:51.000Z</time>
      </trkpt>
      <trkpt lat="43.93071" lon="1.8027">
        <ele>218.19999694824</ele>
        <time>2020-08-13T17:53:52.000Z</time>
      </trkpt>
      <trkpt lat="43.93071" lon="1.8027">
        <ele>218.19999694824</ele>
        <time>2020-08-13T17:53:53.000Z</time>
      </trkpt>
      <trkpt lat="43.93071" lon="1.8027">
        <ele>218.19999694824</ele>
        <time>2020-08-13T17:53:54.000Z</time>
      </trkpt>
      <trkpt lat="43.93071" lon="1.8027">
        <ele>218.19999694824</ele>
        <time>2020-08-13T17:53:55.000Z</time>
      </trkpt>
      <trkpt lat="43.93071" lon="1.8027">
        <ele>218.19999694824</ele>
        <time>2020-08-13T17:53:56.000Z</time>
      </trkpt>
      <trkpt lat="43.93071" lon="1.80269">
        <ele>218</ele>
        <time>2020-08-13T17:53:57.000Z</time>
      </trkpt>
      <trkpt lat="43.9307" lon="1.80268">
        <ele>218</ele>
        <time>2020-08-13T17:53:58.000Z</time>
      </trkpt>
      <trkpt lat="43.93069" lon="1.80266">
        <ele>218</ele>
        <time>2020-08-13T17:53:59.000Z</time>
      </trkpt>
      <trkpt lat="43.93068" lon="1.80263">
        <ele>218</ele>
        <time>2020-08-13T17:54:00.000Z</time>
      </trkpt>
      <trkpt lat="43.93068" lon="1.8026">
        <ele>218.19999694824</ele>
        <time>2020-08-13T17:54:01.000Z</time>
      </trkpt>
      <trkpt lat="43.93068" lon="1.80258">
        <ele>218.39999389648</ele>
        <time>2020-08-13T17:54:02.000Z</time>
      </trkpt>
      <trkpt lat="43.93069" lon="1.80256">
        <ele>218.60000610352</ele>
        <time>2020-08-13T17:54:03.000Z</time>
      </trkpt>
      <trkpt lat="43.9307" lon="1.80254">
        <ele>218.60000610352</ele>
        <time>2020-08-13T17:54:04.000Z</time>
      </trkpt>
      <trkpt lat="43.93071" lon="1.80253">
        <ele>218.60000610352</ele>
        <time>2020-08-13T17:54:05.000Z</time>
      </trkpt>
      <trkpt lat="43.93071" lon="1.80251">
        <ele>218.60000610352</ele>
        <time>2020-08-13T17:54:06.000Z</time>
      </trkpt>
      <trkpt lat="43.93071" lon="1.80252">
        <ele>218.80000305176</ele>
        <time>2020-08-13T17:54:07.000Z</time>
      </trkpt>
      <trkpt lat="43.93071" lon="1.8025">
        <ele>218.80000305176</ele>
        <time>2020-08-13T17:54:08.000Z</time>
      </trkpt>
      <trkpt lat="43.93071" lon="1.8025">
        <ele>218.80000305176</ele>
        <time>2020-08-13T17:54:09.000Z</time>
      </trkpt>
      <trkpt lat="43.93071" lon="1.8025">
        <ele>218.80000305176</ele>
        <time>2020-08-13T17:54:10.000Z</time>
      </trkpt>
      <trkpt lat="43.93071" lon="1.8025">
        <ele>218.80000305176</ele>
        <time>2020-08-13T17:54:11.000Z</time>
      </trkpt>
      <trkpt lat="43.93071" lon="1.8025">
        <ele>218.80000305176</ele>
        <time>2020-08-13T17:54:12.000Z</time>
      </trkpt>
      <trkpt lat="43.93071" lon="1.8025">
        <ele>218.80000305176</ele>
        <time>2020-08-13T17:54:13.000Z</time>
      </trkpt>
      <trkpt lat="43.93071" lon="1.8025">
        <ele>218.80000305176</ele>
        <time>2020-08-13T17:54:14.000Z</time>
      </trkpt>
      <trkpt lat="43.93072" lon="1.80249">
        <ele>219</ele>
        <time>2020-08-13T17:54:15.000Z</time>
      </trkpt>
      <trkpt lat="43.93073" lon="1.80247">
        <ele>219.19999694824</ele>
        <time>2020-08-13T17:54:16.000Z</time>
      </trkpt>
      <trkpt lat="43.93073" lon="1.80246">
        <ele>219.19999694824</ele>
        <time>2020-08-13T17:54:17.000Z</time>
      </trkpt>
      <trkpt lat="43.93073" lon="1.80247">
        <ele>219.19999694824</ele>
        <time>2020-08-13T17:54:18.000Z</time>
      </trkpt>
      <trkpt lat="43.93075" lon="1.80245">
        <ele>219.19999694824</ele>
        <time>2020-08-13T17:54:19.000Z</time>
      </trkpt>
      <trkpt lat="43.93075" lon="1.80244">
        <ele>219.60000610352</ele>
        <time>2020-08-13T17:54:20.000Z</time>
      </trkpt>
      <trkpt lat="43.93077" lon="1.80244">
        <ele>220</ele>
        <time>2020-08-13T17:54:21.000Z</time>
      </trkpt>
      <trkpt lat="43.93078" lon="1.80243">
        <ele>220</ele>
        <time>2020-08-13T17:54:22.000Z</time>
      </trkpt>
      <trkpt lat="43.93079" lon="1.80243">
        <ele>220.19999694824</ele>
        <time>2020-08-13T17:54:23.000Z</time>
      </trkpt>
      <trkpt lat="43.93081" lon="1.80243">
        <ele>220.19999694824</ele>
        <time>2020-08-13T17:54:24.000Z</time>
      </trkpt>
      <trkpt lat="43.93082" lon="1.80242">
        <ele>220.39999389648</ele>
        <time>2020-08-13T17:54:25.000Z</time>
      </trkpt>
      <trkpt lat="43.93084" lon="1.80242">
        <ele>220.60000610352</ele>
        <time>2020-08-13T17:54:26.000Z</time>
      </trkpt>
      <trkpt lat="43.93086" lon="1.8024">
        <ele>220.80000305176</ele>
        <time>2020-08-13T17:54:27.000Z</time>
      </trkpt>
      <trkpt lat="43.93088" lon="1.80239">
        <ele>221</ele>
        <time>2020-08-13T17:54:28.000Z</time>
      </trkpt>
      <trkpt lat="43.9309" lon="1.80236">
        <ele>221.39999389648</ele>
        <time>2020-08-13T17:54:29.000Z</time>
      </trkpt>
      <trkpt lat="43.93092" lon="1.80233">
        <ele>221.80000305176</ele>
        <time>2020-08-13T17:54:30.000Z</time>
      </trkpt>
      <trkpt lat="43.93094" lon="1.80231">
        <ele>222.39999389648</ele>
        <time>2020-08-13T17:54:31.000Z</time>
      </trkpt>
      <trkpt lat="43.93095" lon="1.80229">
        <ele>222.80000305176</ele>
        <time>2020-08-13T17:54:32.000Z</time>
      </trkpt>
      <trkpt lat="43.93097" lon="1.80228">
        <ele>223.39999389648</ele>
        <time>2020-08-13T17:54:33.000Z</time>
      </trkpt>
      <trkpt lat="43.93098" lon="1.80226">
        <ele>223.80000305176</ele>
        <time>2020-08-13T17:54:34.000Z</time>
      </trkpt>
      <trkpt lat="43.93099" lon="1.80224">
        <ele>224.39999389648</ele>
        <time>2020-08-13T17:54:35.000Z</time>
      </trkpt>
      <trkpt lat="43.931" lon="1.80222">
        <ele>224.80000305176</ele>
        <time>2020-08-13T17:54:36.000Z</time>
      </trkpt>
      <trkpt lat="43.93102" lon="1.80219">
        <ele>224.80000305176</ele>
        <time>2020-08-13T17:54:37.000Z</time>
      </trkpt>
      <trkpt lat="43.93103" lon="1.80217">
        <ele>225.39999389648</ele>
        <time>2020-08-13T17:54:38.000Z</time>
      </trkpt>
      <trkpt lat="43.93104" lon="1.80215">
        <ele>225.80000305176</ele>
        <time>2020-08-13T17:54:39.000Z</time>
      </trkpt>
      <trkpt lat="43.93105" lon="1.80212">
        <ele>226</ele>
        <time>2020-08-13T17:54:40.000Z</time>
      </trkpt>
      <trkpt lat="43.93106" lon="1.80209">
        <ele>226.19999694824</ele>
        <time>2020-08-13T17:54:41.000Z</time>
      </trkpt>
      <trkpt lat="43.93107" lon="1.80205">
        <ele>226.39999389648</ele>
        <time>2020-08-13T17:54:42.000Z</time>
      </trkpt>
      <trkpt lat="43.93107" lon="1.80202">
        <ele>226.60000610352</ele>
        <time>2020-08-13T17:54:43.000Z</time>
      </trkpt>
      <trkpt lat="43.93108" lon="1.802">
        <ele>227</ele>
        <time>2020-08-13T17:54:44.000Z</time>
      </trkpt>
      <trkpt lat="43.93109" lon="1.80197">
        <ele>227.19999694824</ele>
        <time>2020-08-13T17:54:45.000Z</time>
      </trkpt>
      <trkpt lat="43.9311" lon="1.80195">
        <ele>227.39999389648</ele>
        <time>2020-08-13T17:54:46.000Z</time>
      </trkpt>
      <trkpt lat="43.93111" lon="1.80193">
        <ele>227.80000305176</ele>
        <time>2020-08-13T17:54:47.000Z</time>
      </trkpt>
      <trkpt lat="43.93111" lon="1.80191">
        <ele>228.19999694824</ele>
        <time>2020-08-13T17:54:48.000Z</time>
      </trkpt>
      <trkpt lat="43.93112" lon="1.80188">
        <ele>228.80000305176</ele>
        <time>2020-08-13T17:54:49.000Z</time>
      </trkpt>
      <trkpt lat="43.93113" lon="1.80186">
        <ele>229.19999694824</ele>
        <time>2020-08-13T17:54:50.000Z</time>
      </trkpt>
      <trkpt lat="43.93115" lon="1.80184">
        <ele>229.39999389648</ele>
        <time>2020-08-13T17:54:51.000Z</time>
      </trkpt>
      <trkpt lat="43.93116" lon="1.80181">
        <ele>229.60000610352</ele>
        <time>2020-08-13T17:54:52.000Z</time>
      </trkpt>
      <trkpt lat="43.93117" lon="1.80179">
        <ele>229.80000305176</ele>
        <time>2020-08-13T17:54:53.000Z</time>
      </trkpt>
      <trkpt lat="43.93118" lon="1.80177">
        <ele>230</ele>
        <time>2020-08-13T17:54:54.000Z</time>
      </trkpt>
      <trkpt lat="43.9312" lon="1.80175">
        <ele>230.39999389648</ele>
        <time>2020-08-13T17:54:55.000Z</time>
      </trkpt>
      <trkpt lat="43.93121" lon="1.80173">
        <ele>230.60000610352</ele>
        <time>2020-08-13T17:54:56.000Z</time>
      </trkpt>
      <trkpt lat="43.93123" lon="1.80171">
        <ele>230.80000305176</ele>
        <time>2020-08-13T17:54:57.000Z</time>
      </trkpt>
      <trkpt lat="43.93124" lon="1.8017">
        <ele>231</ele>
        <time>2020-08-13T17:54:58.000Z</time>
      </trkpt>
      <trkpt lat="43.93125" lon="1.80167">
        <ele>231.19999694824</ele>
        <time>2020-08-13T17:54:59.000Z</time>
      </trkpt>
      <trkpt lat="43.93127" lon="1.80164">
        <ele>231.39999389648</ele>
        <time>2020-08-13T17:55:00.000Z</time>
      </trkpt>
      <trkpt lat="43.93128" lon="1.80161">
        <ele>231.39999389648</ele>
        <time>2020-08-13T17:55:01.000Z</time>
      </trkpt>
      <trkpt lat="43.93129" lon="1.80158">
        <ele>231.60000610352</ele>
        <time>2020-08-13T17:55:02.000Z</time>
      </trkpt>
      <trkpt lat="43.93129" lon="1.80155">
        <ele>231.80000305176</ele>
        <time>2020-08-13T17:55:03.000Z</time>
      </trkpt>
      <trkpt lat="43.9313" lon="1.80152">
        <ele>232.19999694824</ele>
        <time>2020-08-13T17:55:04.000Z</time>
      </trkpt>
      <trkpt lat="43.93131" lon="1.8015">
        <ele>232.39999389648</ele>
        <time>2020-08-13T17:55:05.000Z</time>
      </trkpt>
      <trkpt lat="43.93132" lon="1.80148">
        <ele>232.80000305176</ele>
        <time>2020-08-13T17:55:06.000Z</time>
      </trkpt>
      <trkpt lat="43.93133" lon="1.80145">
        <ele>233</ele>
        <time>2020-08-13T17:55:07.000Z</time>
      </trkpt>
      <trkpt lat="43.93133" lon="1.80143">
        <ele>233.39999389648</ele>
        <time>2020-08-13T17:55:08.000Z</time>
      </trkpt>
      <trkpt lat="43.93134" lon="1.80141">
        <ele>233.60000610352</ele>
        <time>2020-08-13T17:55:09.000Z</time>
      </trkpt>
      <trkpt lat="43.93135" lon="1.80139">
        <ele>233.80000305176</ele>
        <time>2020-08-13T17:55:10.000Z</time>
      </trkpt>
      <trkpt lat="43.93136" lon="1.80137">
        <ele>234</ele>
        <time>2020-08-13T17:55:11.000Z</time>
      </trkpt>
      <trkpt lat="43.93137" lon="1.80134">
        <ele>234.19999694824</ele>
        <time>2020-08-13T17:55:12.000Z</time>
      </trkpt>
      <trkpt lat="43.93138" lon="1.80132">
        <ele>234.60000610352</ele>
        <time>2020-08-13T17:55:13.000Z</time>
      </trkpt>
      <trkpt lat="43.93139" lon="1.8013">
        <ele>234.80000305176</ele>
        <time>2020-08-13T17:55:14.000Z</time>
      </trkpt>
      <trkpt lat="43.9314" lon="1.80127">
        <ele>234.80000305176</ele>
        <time>2020-08-13T17:55:15.000Z</time>
      </trkpt>
      <trkpt lat="43.93141" lon="1.80122">
        <ele>234.80000305176</ele>
        <time>2020-08-13T17:55:16.000Z</time>
      </trkpt>
      <trkpt lat="43.93142" lon="1.80119">
        <ele>235.19999694824</ele>
        <time>2020-08-13T17:55:17.000Z</time>
      </trkpt>
      <trkpt lat="43.93143" lon="1.80116">
        <ele>235.39999389648</ele>
        <time>2020-08-13T17:55:18.000Z</time>
      </trkpt>
      <trkpt lat="43.93145" lon="1.80114">
        <ele>235.60000610352</ele>
        <time>2020-08-13T17:55:19.000Z</time>
      </trkpt>
      <trkpt lat="43.93146" lon="1.80111">
        <ele>235.80000305176</ele>
        <time>2020-08-13T17:55:20.000Z</time>
      </trkpt>
      <trkpt lat="43.93148" lon="1.80108">
        <ele>236.19999694824</ele>
        <time>2020-08-13T17:55:21.000Z</time>
      </trkpt>
      <trkpt lat="43.93149" lon="1.80105">
        <ele>236.39999389648</ele>
        <time>2020-08-13T17:55:22.000Z</time>
      </trkpt>
      <trkpt lat="43.9315" lon="1.80103">
        <ele>236.60000610352</ele>
        <time>2020-08-13T17:55:23.000Z</time>
      </trkpt>
      <trkpt lat="43.93151" lon="1.801">
        <ele>236.80000305176</ele>
        <time>2020-08-13T17:55:24.000Z</time>
      </trkpt>
      <trkpt lat="43.93153" lon="1.80098">
        <ele>237</ele>
        <time>2020-08-13T17:55:25.000Z</time>
      </trkpt>
      <trkpt lat="43.93154" lon="1.80095">
        <ele>237.60000610352</ele>
        <time>2020-08-13T17:55:26.000Z</time>
      </trkpt>
      <trkpt lat="43.93155" lon="1.80093">
        <ele>238</ele>
        <time>2020-08-13T17:55:27.000Z</time>
      </trkpt>
      <trkpt lat="43.93157" lon="1.80091">
        <ele>238.19999694824</ele>
        <time>2020-08-13T17:55:28.000Z</time>
      </trkpt>
      <trkpt lat="43.93158" lon="1.80089">
        <ele>238.39999389648</ele>
        <time>2020-08-13T17:55:29.000Z</time>
      </trkpt>
      <trkpt lat="43.9316" lon="1.80088">
        <ele>238.60000610352</ele>
        <time>2020-08-13T17:55:30.000Z</time>
      </trkpt>
      <trkpt lat="43.93162" lon="1.80086">
        <ele>238.80000305176</ele>
        <time>2020-08-13T17:55:31.000Z</time>
      </trkpt>
      <trkpt lat="43.93163" lon="1.80085">
        <ele>238.80000305176</ele>
        <time>2020-08-13T17:55:32.000Z</time>
      </trkpt>
      <trkpt lat="43.93165" lon="1.80085">
        <ele>239.19999694824</ele>
        <time>2020-08-13T17:55:33.000Z</time>
      </trkpt>
      <trkpt lat="43.93167" lon="1.80083">
        <ele>239.39999389648</ele>
        <time>2020-08-13T17:55:34.000Z</time>
      </trkpt>
      <trkpt lat="43.93168" lon="1.80081">
        <ele>239.60000610352</ele>
        <time>2020-08-13T17:55:35.000Z</time>
      </trkpt>
      <trkpt lat="43.9317" lon="1.8008">
        <ele>239.80000305176</ele>
        <time>2020-08-13T17:55:36.000Z</time>
      </trkpt>
      <trkpt lat="43.93172" lon="1.80078">
        <ele>239.80000305176</ele>
        <time>2020-08-13T17:55:37.000Z</time>
      </trkpt>
      <trkpt lat="43.93174" lon="1.80076">
        <ele>240.19999694824</ele>
        <time>2020-08-13T17:55:38.000Z</time>
      </trkpt>
      <trkpt lat="43.93176" lon="1.80075">
        <ele>240.39999389648</ele>
        <time>2020-08-13T17:55:39.000Z</time>
      </trkpt>
      <trkpt lat="43.93178" lon="1.80073">
        <ele>240.60000610352</ele>
        <time>2020-08-13T17:55:40.000Z</time>
      </trkpt>
      <trkpt lat="43.9318" lon="1.80072">
        <ele>240.60000610352</ele>
        <time>2020-08-13T17:55:41.000Z</time>
      </trkpt>
      <trkpt lat="43.93182" lon="1.80071">
        <ele>240.60000610352</ele>
        <time>2020-08-13T17:55:42.000Z</time>
      </trkpt>
      <trkpt lat="43.93184" lon="1.8007">
        <ele>240.80000305176</ele>
        <time>2020-08-13T17:55:43.000Z</time>
      </trkpt>
      <trkpt lat="43.93186" lon="1.80069">
        <ele>241</ele>
        <time>2020-08-13T17:55:44.000Z</time>
      </trkpt>
      <trkpt lat="43.93188" lon="1.80068">
        <ele>241.19999694824</ele>
        <time>2020-08-13T17:55:45.000Z</time>
      </trkpt>
      <trkpt lat="43.9319" lon="1.80066">
        <ele>241.39999389648</ele>
        <time>2020-08-13T17:55:46.000Z</time>
      </trkpt>
      <trkpt lat="43.93192" lon="1.80065">
        <ele>241.60000610352</ele>
        <time>2020-08-13T17:55:47.000Z</time>
      </trkpt>
      <trkpt lat="43.93194" lon="1.80065">
        <ele>241.80000305176</ele>
        <time>2020-08-13T17:55:48.000Z</time>
      </trkpt>
      <trkpt lat="43.93196" lon="1.80064">
        <ele>241.80000305176</ele>
        <time>2020-08-13T17:55:49.000Z</time>
      </trkpt>
      <trkpt lat="43.93199" lon="1.80064">
        <ele>242.19999694824</ele>
        <time>2020-08-13T17:55:50.000Z</time>
      </trkpt>
      <trkpt lat="43.93201" lon="1.80064">
        <ele>242.39999389648</ele>
        <time>2020-08-13T17:55:51.000Z</time>
      </trkpt>
      <trkpt lat="43.93204" lon="1.80063">
        <ele>242.60000610352</ele>
        <time>2020-08-13T17:55:52.000Z</time>
      </trkpt>
      <trkpt lat="43.93206" lon="1.80064">
        <ele>243</ele>
        <time>2020-08-13T17:55:53.000Z</time>
      </trkpt>
      <trkpt lat="43.93209" lon="1.80064">
        <ele>243.19999694824</ele>
        <time>2020-08-13T17:55:54.000Z</time>
      </trkpt>
      <trkpt lat="43.93211" lon="1.80065">
        <ele>243.19999694824</ele>
        <time>2020-08-13T17:55:55.000Z</time>
      </trkpt>
      <trkpt lat="43.93213" lon="1.80066">
        <ele>243.39999389648</ele>
        <time>2020-08-13T17:55:56.000Z</time>
      </trkpt>
      <trkpt lat="43.93215" lon="1.80067">
        <ele>243.60000610352</ele>
        <time>2020-08-13T17:55:57.000Z</time>
      </trkpt>
      <trkpt lat="43.93216" lon="1.80069">
        <ele>244</ele>
        <time>2020-08-13T17:55:58.000Z</time>
      </trkpt>
      <trkpt lat="43.93218" lon="1.80071">
        <ele>244</ele>
        <time>2020-08-13T17:55:59.000Z</time>
      </trkpt>
      <trkpt lat="43.93221" lon="1.80073">
        <ele>244</ele>
        <time>2020-08-13T17:56:00.000Z</time>
      </trkpt>
      <trkpt lat="43.93223" lon="1.80075">
        <ele>244.19999694824</ele>
        <time>2020-08-13T17:56:01.000Z</time>
      </trkpt>
      <trkpt lat="43.93225" lon="1.80077">
        <ele>244.60000610352</ele>
        <time>2020-08-13T17:56:02.000Z</time>
      </trkpt>
      <trkpt lat="43.93227" lon="1.80078">
        <ele>244.60000610352</ele>
        <time>2020-08-13T17:56:03.000Z</time>
      </trkpt>
      <trkpt lat="43.93229" lon="1.80079">
        <ele>244.60000610352</ele>
        <time>2020-08-13T17:56:04.000Z</time>
      </trkpt>
      <trkpt lat="43.93231" lon="1.80079">
        <ele>244.80000305176</ele>
        <time>2020-08-13T17:56:05.000Z</time>
      </trkpt>
      <trkpt lat="43.93233" lon="1.80079">
        <ele>245</ele>
        <time>2020-08-13T17:56:06.000Z</time>
      </trkpt>
      <trkpt lat="43.93235" lon="1.80079">
        <ele>245.19999694824</ele>
        <time>2020-08-13T17:56:07.000Z</time>
      </trkpt>
      <trkpt lat="43.93237" lon="1.80079">
        <ele>245.60000610352</ele>
        <time>2020-08-13T17:56:08.000Z</time>
      </trkpt>
      <trkpt lat="43.93239" lon="1.80078">
        <ele>245.60000610352</ele>
        <time>2020-08-13T17:56:09.000Z</time>
      </trkpt>
      <trkpt lat="43.93241" lon="1.80076">
        <ele>245.60000610352</ele>
        <time>2020-08-13T17:56:10.000Z</time>
      </trkpt>
      <trkpt lat="43.93243" lon="1.80075">
        <ele>245.60000610352</ele>
        <time>2020-08-13T17:56:11.000Z</time>
      </trkpt>
      <trkpt lat="43.93245" lon="1.80072">
        <ele>246</ele>
        <time>2020-08-13T17:56:12.000Z</time>
      </trkpt>
      <trkpt lat="43.93247" lon="1.8007">
        <ele>246.39999389648</ele>
        <time>2020-08-13T17:56:13.000Z</time>
      </trkpt>
      <trkpt lat="43.93249" lon="1.80068">
        <ele>246.60000610352</ele>
        <time>2020-08-13T17:56:14.000Z</time>
      </trkpt>
      <trkpt lat="43.93251" lon="1.80066">
        <ele>246.80000305176</ele>
        <time>2020-08-13T17:56:15.000Z</time>
      </trkpt>
      <trkpt lat="43.93253" lon="1.80065">
        <ele>247</ele>
        <time>2020-08-13T17:56:16.000Z</time>
      </trkpt>
      <trkpt lat="43.93255" lon="1.80063">
        <ele>247.60000610352</ele>
        <time>2020-08-13T17:56:17.000Z</time>
      </trkpt>
      <trkpt lat="43.93257" lon="1.80061">
        <ele>247.80000305176</ele>
        <time>2020-08-13T17:56:18.000Z</time>
      </trkpt>
      <trkpt lat="43.93259" lon="1.8006">
        <ele>247.80000305176</ele>
        <time>2020-08-13T17:56:19.000Z</time>
      </trkpt>
      <trkpt lat="43.93261" lon="1.80058">
        <ele>247.80000305176</ele>
        <time>2020-08-13T17:56:20.000Z</time>
      </trkpt>
      <trkpt lat="43.93263" lon="1.80056">
        <ele>248.19999694824</ele>
        <time>2020-08-13T17:56:21.000Z</time>
      </trkpt>
      <trkpt lat="43.93265" lon="1.80055">
        <ele>248.60000610352</ele>
        <time>2020-08-13T17:56:22.000Z</time>
      </trkpt>
      <trkpt lat="43.93267" lon="1.80054">
        <ele>248.80000305176</ele>
        <time>2020-08-13T17:56:23.000Z</time>
      </trkpt>
      <trkpt lat="43.93269" lon="1.80052">
        <ele>249</ele>
        <time>2020-08-13T17:56:24.000Z</time>
      </trkpt>
      <trkpt lat="43.93271" lon="1.8005">
        <ele>249.39999389648</ele>
        <time>2020-08-13T17:56:25.000Z</time>
      </trkpt>
      <trkpt lat="43.93272" lon="1.80048">
        <ele>249.60000610352</ele>
        <time>2020-08-13T17:56:26.000Z</time>
      </trkpt>
      <trkpt lat="43.93274" lon="1.80045">
        <ele>250</ele>
        <time>2020-08-13T17:56:27.000Z</time>
      </trkpt>
      <trkpt lat="43.93276" lon="1.80043">
        <ele>250</ele>
        <time>2020-08-13T17:56:28.000Z</time>
      </trkpt>
      <trkpt lat="43.93279" lon="1.8004">
        <ele>250.19999694824</ele>
        <time>2020-08-13T17:56:29.000Z</time>
      </trkpt>
      <trkpt lat="43.93281" lon="1.80038">
        <ele>250.39999389648</ele>
        <time>2020-08-13T17:56:30.000Z</time>
      </trkpt>
      <trkpt lat="43.93284" lon="1.80036">
        <ele>250.80000305176</ele>
        <time>2020-08-13T17:56:31.000Z</time>
      </trkpt>
      <trkpt lat="43.93287" lon="1.80033">
        <ele>251.19999694824</ele>
        <time>2020-08-13T17:56:32.000Z</time>
      </trkpt>
      <trkpt lat="43.93289" lon="1.80031">
        <ele>251.19999694824</ele>
        <time>2020-08-13T17:56:33.000Z</time>
      </trkpt>
      <trkpt lat="43.93291" lon="1.80029">
        <ele>251.19999694824</ele>
        <time>2020-08-13T17:56:34.000Z</time>
      </trkpt>
      <trkpt lat="43.93293" lon="1.80026">
        <ele>251.19999694824</ele>
        <time>2020-08-13T17:56:35.000Z</time>
      </trkpt>
      <trkpt lat="43.93295" lon="1.80023">
        <ele>251.39999389648</ele>
        <time>2020-08-13T17:56:36.000Z</time>
      </trkpt>
      <trkpt lat="43.93297" lon="1.8002">
        <ele>251.60000610352</ele>
        <time>2020-08-13T17:56:37.000Z</time>
      </trkpt>
      <trkpt lat="43.93299" lon="1.80017">
        <ele>251.60000610352</ele>
        <time>2020-08-13T17:56:38.000Z</time>
      </trkpt>
      <trkpt lat="43.93301" lon="1.80014">
        <ele>251.60000610352</ele>
        <time>2020-08-13T17:56:39.000Z</time>
      </trkpt>
      <trkpt lat="43.93303" lon="1.80011">
        <ele>251.60000610352</ele>
        <time>2020-08-13T17:56:40.000Z</time>
      </trkpt>
      <trkpt lat="43.93305" lon="1.80008">
        <ele>251.60000610352</ele>
        <time>2020-08-13T17:56:41.000Z</time>
      </trkpt>
      <trkpt lat="43.93307" lon="1.80004">
        <ele>251.80000305176</ele>
        <time>2020-08-13T17:56:42.000Z</time>
      </trkpt>
      <trkpt lat="43.93309" lon="1.8">
        <ele>251.80000305176</ele>
        <time>2020-08-13T17:56:43.000Z</time>
      </trkpt>
      <trkpt lat="43.93311" lon="1.79996">
        <ele>251.80000305176</ele>
        <time>2020-08-13T17:56:44.000Z</time>
      </trkpt>
      <trkpt lat="43.93314" lon="1.79992">
        <ele>251.80000305176</ele>
        <time>2020-08-13T17:56:45.000Z</time>
      </trkpt>
      <trkpt lat="43.93316" lon="1.79988">
        <ele>251.80000305176</ele>
        <time>2020-08-13T17:56:46.000Z</time>
      </trkpt>
      <trkpt lat="43.93319" lon="1.79985">
        <ele>251.80000305176</ele>
        <time>2020-08-13T17:56:47.000Z</time>
      </trkpt>
      <trkpt lat="43.93322" lon="1.79984">
        <ele>252</ele>
        <time>2020-08-13T17:56:48.000Z</time>
      </trkpt>
      <trkpt lat="43.93325" lon="1.79983">
        <ele>252</ele>
        <time>2020-08-13T17:56:49.000Z</time>
      </trkpt>
      <trkpt lat="43.93328" lon="1.79983">
        <ele>252.19999694824</ele>
        <time>2020-08-13T17:56:50.000Z</time>
      </trkpt>
      <trkpt lat="43.9333" lon="1.79983">
        <ele>252.39999389648</ele>
        <time>2020-08-13T17:56:51.000Z</time>
      </trkpt>
      <trkpt lat="43.93333" lon="1.79983">
        <ele>252.39999389648</ele>
        <time>2020-08-13T17:56:52.000Z</time>
      </trkpt>
      <trkpt lat="43.93336" lon="1.79981">
        <ele>252.39999389648</ele>
        <time>2020-08-13T17:56:53.000Z</time>
      </trkpt>
      <trkpt lat="43.93339" lon="1.79979">
        <ele>252.39999389648</ele>
        <time>2020-08-13T17:56:54.000Z</time>
      </trkpt>
      <trkpt lat="43.93342" lon="1.79975">
        <ele>252.39999389648</ele>
        <time>2020-08-13T17:56:55.000Z</time>
      </trkpt>
      <trkpt lat="43.93344" lon="1.79971">
        <ele>252.60000610352</ele>
        <time>2020-08-13T17:56:56.000Z</time>
      </trkpt>
      <trkpt lat="43.93347" lon="1.79967">
        <ele>252.60000610352</ele>
        <time>2020-08-13T17:56:57.000Z</time>
      </trkpt>
      <trkpt lat="43.9335" lon="1.79963">
        <ele>252.60000610352</ele>
        <time>2020-08-13T17:56:58.000Z</time>
      </trkpt>
      <trkpt lat="43.93353" lon="1.7996">
        <ele>252.60000610352</ele>
        <time>2020-08-13T17:56:59.000Z</time>
      </trkpt>
      <trkpt lat="43.93357" lon="1.79957">
        <ele>252.60000610352</ele>
        <time>2020-08-13T17:57:00.000Z</time>
      </trkpt>
      <trkpt lat="43.9336" lon="1.79952">
        <ele>252.60000610352</ele>
        <time>2020-08-13T17:57:01.000Z</time>
      </trkpt>
      <trkpt lat="43.93363" lon="1.79947">
        <ele>252.39999389648</ele>
        <time>2020-08-13T17:57:02.000Z</time>
      </trkpt>
      <trkpt lat="43.93366" lon="1.79942">
        <ele>252.60000610352</ele>
        <time>2020-08-13T17:57:03.000Z</time>
      </trkpt>
      <trkpt lat="43.93368" lon="1.79938">
        <ele>253</ele>
        <time>2020-08-13T17:57:04.000Z</time>
      </trkpt>
      <trkpt lat="43.9337" lon="1.79936">
        <ele>253</ele>
        <time>2020-08-13T17:57:05.000Z</time>
      </trkpt>
      <trkpt lat="43.93372" lon="1.79933">
        <ele>253.19999694824</ele>
        <time>2020-08-13T17:57:06.000Z</time>
      </trkpt>
      <trkpt lat="43.93374" lon="1.79931">
        <ele>253.39999389648</ele>
        <time>2020-08-13T17:57:07.000Z</time>
      </trkpt>
      <trkpt lat="43.93375" lon="1.79929">
        <ele>253.39999389648</ele>
        <time>2020-08-13T17:57:08.000Z</time>
      </trkpt>
      <trkpt lat="43.93376" lon="1.79926">
        <ele>253.60000610352</ele>
        <time>2020-08-13T17:57:09.000Z</time>
      </trkpt>
      <trkpt lat="43.93378" lon="1.79923">
        <ele>254</ele>
        <time>2020-08-13T17:57:10.000Z</time>
      </trkpt>
      <trkpt lat="43.9338" lon="1.79921">
        <ele>254.19999694824</ele>
        <time>2020-08-13T17:57:11.000Z</time>
      </trkpt>
      <trkpt lat="43.93381" lon="1.79918">
        <ele>254.19999694824</ele>
        <time>2020-08-13T17:57:12.000Z</time>
      </trkpt>
      <trkpt lat="43.93383" lon="1.79916">
        <ele>254.39999389648</ele>
        <time>2020-08-13T17:57:13.000Z</time>
      </trkpt>
      <trkpt lat="43.93384" lon="1.79914">
        <ele>254.60000610352</ele>
        <time>2020-08-13T17:57:14.000Z</time>
      </trkpt>
      <trkpt lat="43.93386" lon="1.79911">
        <ele>254.80000305176</ele>
        <time>2020-08-13T17:57:15.000Z</time>
      </trkpt>
      <trkpt lat="43.93387" lon="1.79908">
        <ele>255</ele>
        <time>2020-08-13T17:57:16.000Z</time>
      </trkpt>
      <trkpt lat="43.93389" lon="1.79906">
        <ele>255.19999694824</ele>
        <time>2020-08-13T17:57:17.000Z</time>
      </trkpt>
      <trkpt lat="43.9339" lon="1.79903">
        <ele>255.60000610352</ele>
        <time>2020-08-13T17:57:18.000Z</time>
      </trkpt>
      <trkpt lat="43.93393" lon="1.799">
        <ele>255.80000305176</ele>
        <time>2020-08-13T17:57:19.000Z</time>
      </trkpt>
      <trkpt lat="43.93395" lon="1.79898">
        <ele>256</ele>
        <time>2020-08-13T17:57:20.000Z</time>
      </trkpt>
      <trkpt lat="43.93397" lon="1.79896">
        <ele>256</ele>
        <time>2020-08-13T17:57:21.000Z</time>
      </trkpt>
      <trkpt lat="43.93399" lon="1.79894">
        <ele>256.20001220703</ele>
        <time>2020-08-13T17:57:22.000Z</time>
      </trkpt>
      <trkpt lat="43.93401" lon="1.79892">
        <ele>256.39999389648</ele>
        <time>2020-08-13T17:57:23.000Z</time>
      </trkpt>
      <trkpt lat="43.93404" lon="1.7989">
        <ele>256.60000610352</ele>
        <time>2020-08-13T17:57:24.000Z</time>
      </trkpt>
      <trkpt lat="43.93406" lon="1.79887">
        <ele>256.79998779297</ele>
        <time>2020-08-13T17:57:25.000Z</time>
      </trkpt>
      <trkpt lat="43.93409" lon="1.79883">
        <ele>256.79998779297</ele>
        <time>2020-08-13T17:57:26.000Z</time>
      </trkpt>
      <trkpt lat="43.93412" lon="1.7988">
        <ele>257</ele>
        <time>2020-08-13T17:57:27.000Z</time>
      </trkpt>
      <trkpt lat="43.93414" lon="1.79876">
        <ele>257</ele>
        <time>2020-08-13T17:57:28.000Z</time>
      </trkpt>
      <trkpt lat="43.93417" lon="1.79874">
        <ele>257.20001220703</ele>
        <time>2020-08-13T17:57:29.000Z</time>
      </trkpt>
      <trkpt lat="43.93421" lon="1.79872">
        <ele>257.20001220703</ele>
        <time>2020-08-13T17:57:30.000Z</time>
      </trkpt>
      <trkpt lat="43.93424" lon="1.79869">
        <ele>257.20001220703</ele>
        <time>2020-08-13T17:57:31.000Z</time>
      </trkpt>
      <trkpt lat="43.93427" lon="1.79867">
        <ele>257.60000610352</ele>
        <time>2020-08-13T17:57:32.000Z</time>
      </trkpt>
      <trkpt lat="43.9343" lon="1.79864">
        <ele>257.60000610352</ele>
        <time>2020-08-13T17:57:33.000Z</time>
      </trkpt>
      <trkpt lat="43.93433" lon="1.7986">
        <ele>258</ele>
        <time>2020-08-13T17:57:34.000Z</time>
      </trkpt>
      <trkpt lat="43.93436" lon="1.79856">
        <ele>258</ele>
        <time>2020-08-13T17:57:35.000Z</time>
      </trkpt>
      <trkpt lat="43.93438" lon="1.79852">
        <ele>258.20001220703</ele>
        <time>2020-08-13T17:57:36.000Z</time>
      </trkpt>
      <trkpt lat="43.9344" lon="1.79848">
        <ele>258.20001220703</ele>
        <time>2020-08-13T17:57:37.000Z</time>
      </trkpt>
      <trkpt lat="43.93442" lon="1.79843">
        <ele>258.20001220703</ele>
        <time>2020-08-13T17:57:38.000Z</time>
      </trkpt>
      <trkpt lat="43.93444" lon="1.79839">
        <ele>258.60000610352</ele>
        <time>2020-08-13T17:57:39.000Z</time>
      </trkpt>
      <trkpt lat="43.93446" lon="1.79834">
        <ele>259</ele>
        <time>2020-08-13T17:57:40.000Z</time>
      </trkpt>
      <trkpt lat="43.93449" lon="1.7983">
        <ele>259</ele>
        <time>2020-08-13T17:57:41.000Z</time>
      </trkpt>
      <trkpt lat="43.93452" lon="1.79827">
        <ele>259.20001220703</ele>
        <time>2020-08-13T17:57:42.000Z</time>
      </trkpt>
      <trkpt lat="43.93454" lon="1.79824">
        <ele>259.20001220703</ele>
        <time>2020-08-13T17:57:43.000Z</time>
      </trkpt>
      <trkpt lat="43.93457" lon="1.7982">
        <ele>259.39999389648</ele>
        <time>2020-08-13T17:57:44.000Z</time>
      </trkpt>
      <trkpt lat="43.9346" lon="1.79816">
        <ele>259.39999389648</ele>
        <time>2020-08-13T17:57:45.000Z</time>
      </trkpt>
      <trkpt lat="43.93462" lon="1.79812">
        <ele>259.79998779297</ele>
        <time>2020-08-13T17:57:46.000Z</time>
      </trkpt>
      <trkpt lat="43.93465" lon="1.79809">
        <ele>260</ele>
        <time>2020-08-13T17:57:47.000Z</time>
      </trkpt>
      <trkpt lat="43.93468" lon="1.79804">
        <ele>260.20001220703</ele>
        <time>2020-08-13T17:57:48.000Z</time>
      </trkpt>
      <trkpt lat="43.93472" lon="1.79801">
        <ele>260</ele>
        <time>2020-08-13T17:57:49.000Z</time>
      </trkpt>
      <trkpt lat="43.93475" lon="1.79797">
        <ele>260</ele>
        <time>2020-08-13T17:57:50.000Z</time>
      </trkpt>
      <trkpt lat="43.93479" lon="1.79794">
        <ele>260</ele>
        <time>2020-08-13T17:57:51.000Z</time>
      </trkpt>
      <trkpt lat="43.93482" lon="1.79791">
        <ele>259.79998779297</ele>
        <time>2020-08-13T17:57:52.000Z</time>
      </trkpt>
      <trkpt lat="43.93484" lon="1.79788">
        <ele>259.60000610352</ele>
        <time>2020-08-13T17:57:53.000Z</time>
      </trkpt>
      <trkpt lat="43.93486" lon="1.79786">
        <ele>259.60000610352</ele>
        <time>2020-08-13T17:57:54.000Z</time>
      </trkpt>
      <trkpt lat="43.93488" lon="1.79783">
        <ele>259.39999389648</ele>
        <time>2020-08-13T17:57:55.000Z</time>
      </trkpt>
      <trkpt lat="43.93491" lon="1.79781">
        <ele>259.39999389648</ele>
        <time>2020-08-13T17:57:56.000Z</time>
      </trkpt>
      <trkpt lat="43.93494" lon="1.79779">
        <ele>259</ele>
        <time>2020-08-13T17:57:57.000Z</time>
      </trkpt>
      <trkpt lat="43.93497" lon="1.79778">
        <ele>259.39999389648</ele>
        <time>2020-08-13T17:57:58.000Z</time>
      </trkpt>
      <trkpt lat="43.93499" lon="1.79776">
        <ele>259.39999389648</ele>
        <time>2020-08-13T17:57:59.000Z</time>
      </trkpt>
      <trkpt lat="43.93502" lon="1.79775">
        <ele>259.60000610352</ele>
        <time>2020-08-13T17:58:00.000Z</time>
      </trkpt>
      <trkpt lat="43.93504" lon="1.79773">
        <ele>259.60000610352</ele>
        <time>2020-08-13T17:58:01.000Z</time>
      </trkpt>
      <trkpt lat="43.93508" lon="1.79771">
        <ele>259.60000610352</ele>
        <time>2020-08-13T17:58:02.000Z</time>
      </trkpt>
      <trkpt lat="43.93511" lon="1.79769">
        <ele>259.60000610352</ele>
        <time>2020-08-13T17:58:03.000Z</time>
      </trkpt>
      <trkpt lat="43.93514" lon="1.79767">
        <ele>259.60000610352</ele>
        <time>2020-08-13T17:58:04.000Z</time>
      </trkpt>
      <trkpt lat="43.93516" lon="1.79766">
        <ele>259.60000610352</ele>
        <time>2020-08-13T17:58:05.000Z</time>
      </trkpt>
      <trkpt lat="43.93518" lon="1.79764">
        <ele>259.60000610352</ele>
        <time>2020-08-13T17:58:06.000Z</time>
      </trkpt>
      <trkpt lat="43.93521" lon="1.79763">
        <ele>259.60000610352</ele>
        <time>2020-08-13T17:58:07.000Z</time>
      </trkpt>
      <trkpt lat="43.93524" lon="1.79761">
        <ele>259.79998779297</ele>
        <time>2020-08-13T17:58:08.000Z</time>
      </trkpt>
      <trkpt lat="43.93526" lon="1.7976">
        <ele>259.79998779297</ele>
        <time>2020-08-13T17:58:09.000Z</time>
      </trkpt>
      <trkpt lat="43.93528" lon="1.79759">
        <ele>259.79998779297</ele>
        <time>2020-08-13T17:58:10.000Z</time>
      </trkpt>
      <trkpt lat="43.93531" lon="1.79757">
        <ele>259.79998779297</ele>
        <time>2020-08-13T17:58:11.000Z</time>
      </trkpt>
      <trkpt lat="43.93533" lon="1.79755">
        <ele>259.79998779297</ele>
        <time>2020-08-13T17:58:12.000Z</time>
      </trkpt>
      <trkpt lat="43.93535" lon="1.79752">
        <ele>259.79998779297</ele>
        <time>2020-08-13T17:58:13.000Z</time>
      </trkpt>
      <trkpt lat="43.93537" lon="1.79749">
        <ele>259.79998779297</ele>
        <time>2020-08-13T17:58:14.000Z</time>
      </trkpt>
      <trkpt lat="43.9354" lon="1.79747">
        <ele>259.79998779297</ele>
        <time>2020-08-13T17:58:15.000Z</time>
      </trkpt>
      <trkpt lat="43.93543" lon="1.79744">
        <ele>260</ele>
        <time>2020-08-13T17:58:16.000Z</time>
      </trkpt>
      <trkpt lat="43.93545" lon="1.79742">
        <ele>260</ele>
        <time>2020-08-13T17:58:17.000Z</time>
      </trkpt>
      <trkpt lat="43.93548" lon="1.79739">
        <ele>260.20001220703</ele>
        <time>2020-08-13T17:58:18.000Z</time>
      </trkpt>
      <trkpt lat="43.93551" lon="1.79738">
        <ele>260.20001220703</ele>
        <time>2020-08-13T17:58:19.000Z</time>
      </trkpt>
      <trkpt lat="43.93553" lon="1.79735">
        <ele>260.39999389648</ele>
        <time>2020-08-13T17:58:20.000Z</time>
      </trkpt>
      <trkpt lat="43.93556" lon="1.79734">
        <ele>260.39999389648</ele>
        <time>2020-08-13T17:58:21.000Z</time>
      </trkpt>
      <trkpt lat="43.93558" lon="1.79732">
        <ele>260.60000610352</ele>
        <time>2020-08-13T17:58:22.000Z</time>
      </trkpt>
      <trkpt lat="43.9356" lon="1.7973">
        <ele>260.60000610352</ele>
        <time>2020-08-13T17:58:23.000Z</time>
      </trkpt>
      <trkpt lat="43.93563" lon="1.79727">
        <ele>260.60000610352</ele>
        <time>2020-08-13T17:58:24.000Z</time>
      </trkpt>
      <trkpt lat="43.93565" lon="1.79725">
        <ele>260.79998779297</ele>
        <time>2020-08-13T17:58:25.000Z</time>
      </trkpt>
      <trkpt lat="43.93568" lon="1.79722">
        <ele>260.79998779297</ele>
        <time>2020-08-13T17:58:26.000Z</time>
      </trkpt>
      <trkpt lat="43.9357" lon="1.7972">
        <ele>261</ele>
        <time>2020-08-13T17:58:27.000Z</time>
      </trkpt>
      <trkpt lat="43.93574" lon="1.79718">
        <ele>261</ele>
        <time>2020-08-13T17:58:28.000Z</time>
      </trkpt>
      <trkpt lat="43.93577" lon="1.79716">
        <ele>261.20001220703</ele>
        <time>2020-08-13T17:58:29.000Z</time>
      </trkpt>
      <trkpt lat="43.9358" lon="1.79713">
        <ele>261.20001220703</ele>
        <time>2020-08-13T17:58:30.000Z</time>
      </trkpt>
      <trkpt lat="43.93583" lon="1.7971">
        <ele>261.20001220703</ele>
        <time>2020-08-13T17:58:31.000Z</time>
      </trkpt>
      <trkpt lat="43.93585" lon="1.79707">
        <ele>261.20001220703</ele>
        <time>2020-08-13T17:58:32.000Z</time>
      </trkpt>
      <trkpt lat="43.93587" lon="1.79705">
        <ele>261.39999389648</ele>
        <time>2020-08-13T17:58:33.000Z</time>
      </trkpt>
      <trkpt lat="43.9359" lon="1.79702">
        <ele>261.39999389648</ele>
        <time>2020-08-13T17:58:34.000Z</time>
      </trkpt>
      <trkpt lat="43.93593" lon="1.79699">
        <ele>261.39999389648</ele>
        <time>2020-08-13T17:58:35.000Z</time>
      </trkpt>
      <trkpt lat="43.93595" lon="1.79696">
        <ele>261.39999389648</ele>
        <time>2020-08-13T17:58:36.000Z</time>
      </trkpt>
      <trkpt lat="43.93598" lon="1.79693">
        <ele>261.39999389648</ele>
        <time>2020-08-13T17:58:37.000Z</time>
      </trkpt>
      <trkpt lat="43.936" lon="1.79691">
        <ele>261.20001220703</ele>
        <time>2020-08-13T17:58:38.000Z</time>
      </trkpt>
      <trkpt lat="43.93603" lon="1.79688">
        <ele>261.20001220703</ele>
        <time>2020-08-13T17:58:39.000Z</time>
      </trkpt>
      <trkpt lat="43.93606" lon="1.79685">
        <ele>260.79998779297</ele>
        <time>2020-08-13T17:58:40.000Z</time>
      </trkpt>
      <trkpt lat="43.93609" lon="1.79681">
        <ele>260.79998779297</ele>
        <time>2020-08-13T17:58:41.000Z</time>
      </trkpt>
      <trkpt lat="43.93612" lon="1.79677">
        <ele>260.20001220703</ele>
        <time>2020-08-13T17:58:42.000Z</time>
      </trkpt>
      <trkpt lat="43.93615" lon="1.79673">
        <ele>260.39999389648</ele>
        <time>2020-08-13T17:58:43.000Z</time>
      </trkpt>
      <trkpt lat="43.93618" lon="1.79671">
        <ele>260</ele>
        <time>2020-08-13T17:58:44.000Z</time>
      </trkpt>
      <trkpt lat="43.93621" lon="1.79669">
        <ele>260.20001220703</ele>
        <time>2020-08-13T17:58:45.000Z</time>
      </trkpt>
      <trkpt lat="43.93624" lon="1.79668">
        <ele>260</ele>
        <time>2020-08-13T17:58:46.000Z</time>
      </trkpt>
      <trkpt lat="43.93627" lon="1.79666">
        <ele>260.20001220703</ele>
        <time>2020-08-13T17:58:47.000Z</time>
      </trkpt>
      <trkpt lat="43.9363" lon="1.79663">
        <ele>260</ele>
        <time>2020-08-13T17:58:48.000Z</time>
      </trkpt>
      <trkpt lat="43.93633" lon="1.79659">
        <ele>259.79998779297</ele>
        <time>2020-08-13T17:58:49.000Z</time>
      </trkpt>
      <trkpt lat="43.93635" lon="1.79655">
        <ele>259.79998779297</ele>
        <time>2020-08-13T17:58:50.000Z</time>
      </trkpt>
      <trkpt lat="43.93639" lon="1.79652">
        <ele>259.60000610352</ele>
        <time>2020-08-13T17:58:51.000Z</time>
      </trkpt>
      <trkpt lat="43.93642" lon="1.7965">
        <ele>259.60000610352</ele>
        <time>2020-08-13T17:58:52.000Z</time>
      </trkpt>
      <trkpt lat="43.93645" lon="1.79648">
        <ele>259.79998779297</ele>
        <time>2020-08-13T17:58:53.000Z</time>
      </trkpt>
      <trkpt lat="43.93649" lon="1.79648">
        <ele>260.20001220703</ele>
        <time>2020-08-13T17:58:54.000Z</time>
      </trkpt>
      <trkpt lat="43.93652" lon="1.79647">
        <ele>260.60000610352</ele>
        <time>2020-08-13T17:58:55.000Z</time>
      </trkpt>
      <trkpt lat="43.93656" lon="1.79645">
        <ele>261</ele>
        <time>2020-08-13T17:58:56.000Z</time>
      </trkpt>
      <trkpt lat="43.93658" lon="1.79644">
        <ele>261.39999389648</ele>
        <time>2020-08-13T17:58:57.000Z</time>
      </trkpt>
      <trkpt lat="43.9366" lon="1.79642">
        <ele>261.79998779297</ele>
        <time>2020-08-13T17:58:58.000Z</time>
      </trkpt>
      <trkpt lat="43.93662" lon="1.79639">
        <ele>261.79998779297</ele>
        <time>2020-08-13T17:58:59.000Z</time>
      </trkpt>
      <trkpt lat="43.93664" lon="1.79636">
        <ele>262</ele>
        <time>2020-08-13T17:59:00.000Z</time>
      </trkpt>
      <trkpt lat="43.93666" lon="1.79631">
        <ele>262.20001220703</ele>
        <time>2020-08-13T17:59:01.000Z</time>
      </trkpt>
      <trkpt lat="43.93667" lon="1.79628">
        <ele>262.60000610352</ele>
        <time>2020-08-13T17:59:02.000Z</time>
      </trkpt>
      <trkpt lat="43.93669" lon="1.79623">
        <ele>262.79998779297</ele>
        <time>2020-08-13T17:59:03.000Z</time>
      </trkpt>
      <trkpt lat="43.9367" lon="1.79618">
        <ele>263.20001220703</ele>
        <time>2020-08-13T17:59:04.000Z</time>
      </trkpt>
      <trkpt lat="43.93671" lon="1.79614">
        <ele>263.60000610352</ele>
        <time>2020-08-13T17:59:05.000Z</time>
      </trkpt>
      <trkpt lat="43.93671" lon="1.7961">
        <ele>263.79998779297</ele>
        <time>2020-08-13T17:59:06.000Z</time>
      </trkpt>
      <trkpt lat="43.93672" lon="1.79606">
        <ele>263.79998779297</ele>
        <time>2020-08-13T17:59:07.000Z</time>
      </trkpt>
      <trkpt lat="43.93673" lon="1.79603">
        <ele>263.79998779297</ele>
        <time>2020-08-13T17:59:08.000Z</time>
      </trkpt>
      <trkpt lat="43.93674" lon="1.796">
        <ele>264</ele>
        <time>2020-08-13T17:59:09.000Z</time>
      </trkpt>
      <trkpt lat="43.93676" lon="1.79597">
        <ele>264.20001220703</ele>
        <time>2020-08-13T17:59:10.000Z</time>
      </trkpt>
      <trkpt lat="43.93677" lon="1.79593">
        <ele>264.39999389648</ele>
        <time>2020-08-13T17:59:11.000Z</time>
      </trkpt>
      <trkpt lat="43.93679" lon="1.79589">
        <ele>264.60000610352</ele>
        <time>2020-08-13T17:59:12.000Z</time>
      </trkpt>
      <trkpt lat="43.9368" lon="1.79585">
        <ele>264.39999389648</ele>
        <time>2020-08-13T17:59:13.000Z</time>
      </trkpt>
      <trkpt lat="43.93682" lon="1.7958">
        <ele>264.39999389648</ele>
        <time>2020-08-13T17:59:14.000Z</time>
      </trkpt>
      <trkpt lat="43.93684" lon="1.79577">
        <ele>264.60000610352</ele>
        <time>2020-08-13T17:59:15.000Z</time>
      </trkpt>
      <trkpt lat="43.93687" lon="1.79574">
        <ele>264.79998779297</ele>
        <time>2020-08-13T17:59:16.000Z</time>
      </trkpt>
      <trkpt lat="43.93689" lon="1.79572">
        <ele>265</ele>
        <time>2020-08-13T17:59:17.000Z</time>
      </trkpt>
      <trkpt lat="43.93692" lon="1.79569">
        <ele>265</ele>
        <time>2020-08-13T17:59:18.000Z</time>
      </trkpt>
      <trkpt lat="43.93695" lon="1.79568">
        <ele>265</ele>
        <time>2020-08-13T17:59:19.000Z</time>
      </trkpt>
      <trkpt lat="43.93698" lon="1.79565">
        <ele>265.20001220703</ele>
        <time>2020-08-13T17:59:20.000Z</time>
      </trkpt>
      <trkpt lat="43.937" lon="1.79562">
        <ele>265.39999389648</ele>
        <time>2020-08-13T17:59:21.000Z</time>
      </trkpt>
      <trkpt lat="43.93703" lon="1.7956">
        <ele>265.60000610352</ele>
        <time>2020-08-13T17:59:22.000Z</time>
      </trkpt>
      <trkpt lat="43.93705" lon="1.79557">
        <ele>265.60000610352</ele>
        <time>2020-08-13T17:59:23.000Z</time>
      </trkpt>
      <trkpt lat="43.93707" lon="1.79554">
        <ele>265.79998779297</ele>
        <time>2020-08-13T17:59:24.000Z</time>
      </trkpt>
      <trkpt lat="43.93709" lon="1.79552">
        <ele>265.79998779297</ele>
        <time>2020-08-13T17:59:25.000Z</time>
      </trkpt>
      <trkpt lat="43.93712" lon="1.79549">
        <ele>265.79998779297</ele>
        <time>2020-08-13T17:59:26.000Z</time>
      </trkpt>
      <trkpt lat="43.93714" lon="1.79546">
        <ele>266.20001220703</ele>
        <time>2020-08-13T17:59:27.000Z</time>
      </trkpt>
      <trkpt lat="43.93717" lon="1.79543">
        <ele>266.20001220703</ele>
        <time>2020-08-13T17:59:28.000Z</time>
      </trkpt>
      <trkpt lat="43.9372" lon="1.79541">
        <ele>266.20001220703</ele>
        <time>2020-08-13T17:59:29.000Z</time>
      </trkpt>
      <trkpt lat="43.93722" lon="1.7954">
        <ele>266.20001220703</ele>
        <time>2020-08-13T17:59:30.000Z</time>
      </trkpt>
      <trkpt lat="43.93725" lon="1.79538">
        <ele>266.20001220703</ele>
        <time>2020-08-13T17:59:31.000Z</time>
      </trkpt>
      <trkpt lat="43.93728" lon="1.79536">
        <ele>266.20001220703</ele>
        <time>2020-08-13T17:59:32.000Z</time>
      </trkpt>
      <trkpt lat="43.9373" lon="1.79534">
        <ele>266</ele>
        <time>2020-08-13T17:59:33.000Z</time>
      </trkpt>
      <trkpt lat="43.93733" lon="1.7953">
        <ele>266.20001220703</ele>
        <time>2020-08-13T17:59:34.000Z</time>
      </trkpt>
      <trkpt lat="43.93736" lon="1.79526">
        <ele>266</ele>
        <time>2020-08-13T17:59:35.000Z</time>
      </trkpt>
      <trkpt lat="43.93739" lon="1.79523">
        <ele>266</ele>
        <time>2020-08-13T17:59:36.000Z</time>
      </trkpt>
      <trkpt lat="43.93742" lon="1.7952">
        <ele>266</ele>
        <time>2020-08-13T17:59:37.000Z</time>
      </trkpt>
      <trkpt lat="43.93745" lon="1.79516">
        <ele>265.79998779297</ele>
        <time>2020-08-13T17:59:38.000Z</time>
      </trkpt>
      <trkpt lat="43.93749" lon="1.79513">
        <ele>265.60000610352</ele>
        <time>2020-08-13T17:59:39.000Z</time>
      </trkpt>
      <trkpt lat="43.93753" lon="1.7951">
        <ele>265.79998779297</ele>
        <time>2020-08-13T17:59:40.000Z</time>
      </trkpt>
      <trkpt lat="43.93757" lon="1.79508">
        <ele>265.79998779297</ele>
        <time>2020-08-13T17:59:41.000Z</time>
      </trkpt>
      <trkpt lat="43.93761" lon="1.79507">
        <ele>266</ele>
        <time>2020-08-13T17:59:42.000Z</time>
      </trkpt>
      <trkpt lat="43.93764" lon="1.79506">
        <ele>266</ele>
        <time>2020-08-13T17:59:43.000Z</time>
      </trkpt>
      <trkpt lat="43.93767" lon="1.79505">
        <ele>266.20001220703</ele>
        <time>2020-08-13T17:59:44.000Z</time>
      </trkpt>
      <trkpt lat="43.93771" lon="1.79505">
        <ele>266</ele>
        <time>2020-08-13T17:59:45.000Z</time>
      </trkpt>
      <trkpt lat="43.93776" lon="1.79504">
        <ele>266</ele>
        <time>2020-08-13T17:59:46.000Z</time>
      </trkpt>
      <trkpt lat="43.93781" lon="1.79501">
        <ele>265.79998779297</ele>
        <time>2020-08-13T17:59:47.000Z</time>
      </trkpt>
      <trkpt lat="43.93786" lon="1.79499">
        <ele>266</ele>
        <time>2020-08-13T17:59:48.000Z</time>
      </trkpt>
      <trkpt lat="43.9379" lon="1.79497">
        <ele>266.20001220703</ele>
        <time>2020-08-13T17:59:49.000Z</time>
      </trkpt>
      <trkpt lat="43.93795" lon="1.79494">
        <ele>266.20001220703</ele>
        <time>2020-08-13T17:59:50.000Z</time>
      </trkpt>
      <trkpt lat="43.93798" lon="1.79492">
        <ele>266.20001220703</ele>
        <time>2020-08-13T17:59:51.000Z</time>
      </trkpt>
      <trkpt lat="43.93802" lon="1.79488">
        <ele>266.20001220703</ele>
        <time>2020-08-13T17:59:52.000Z</time>
      </trkpt>
      <trkpt lat="43.93806" lon="1.79486">
        <ele>266.20001220703</ele>
        <time>2020-08-13T17:59:53.000Z</time>
      </trkpt>
      <trkpt lat="43.9381" lon="1.79482">
        <ele>266.20001220703</ele>
        <time>2020-08-13T17:59:54.000Z</time>
      </trkpt>
      <trkpt lat="43.93813" lon="1.79479">
        <ele>266</ele>
        <time>2020-08-13T17:59:55.000Z</time>
      </trkpt>
      <trkpt lat="43.93817" lon="1.79476">
        <ele>266.20001220703</ele>
        <time>2020-08-13T17:59:56.000Z</time>
      </trkpt>
      <trkpt lat="43.93821" lon="1.79472">
        <ele>266.20001220703</ele>
        <time>2020-08-13T17:59:57.000Z</time>
      </trkpt>
      <trkpt lat="43.93826" lon="1.79469">
        <ele>266.20001220703</ele>
        <time>2020-08-13T17:59:58.000Z</time>
      </trkpt>
      <trkpt lat="43.9383" lon="1.79465">
        <ele>266.20001220703</ele>
        <time>2020-08-13T17:59:59.000Z</time>
      </trkpt>
      <trkpt lat="43.93834" lon="1.79463">
        <ele>266.39999389648</ele>
        <time>2020-08-13T18:00:00.000Z</time>
      </trkpt>
      <trkpt lat="43.93838" lon="1.79461">
        <ele>266.20001220703</ele>
        <time>2020-08-13T18:00:01.000Z</time>
      </trkpt>
      <trkpt lat="43.93841" lon="1.79458">
        <ele>266.20001220703</ele>
        <time>2020-08-13T18:00:02.000Z</time>
      </trkpt>
      <trkpt lat="43.93845" lon="1.79455">
        <ele>266.20001220703</ele>
        <time>2020-08-13T18:00:03.000Z</time>
      </trkpt>
      <trkpt lat="43.93848" lon="1.79452">
        <ele>266.39999389648</ele>
        <time>2020-08-13T18:00:04.000Z</time>
      </trkpt>
      <trkpt lat="43.93851" lon="1.79449">
        <ele>266.79998779297</ele>
        <time>2020-08-13T18:00:05.000Z</time>
      </trkpt>
      <trkpt lat="43.93855" lon="1.79446">
        <ele>267</ele>
        <time>2020-08-13T18:00:06.000Z</time>
      </trkpt>
      <trkpt lat="43.93858" lon="1.79444">
        <ele>267</ele>
        <time>2020-08-13T18:00:07.000Z</time>
      </trkpt>
      <trkpt lat="43.93861" lon="1.79441">
        <ele>267</ele>
        <time>2020-08-13T18:00:08.000Z</time>
      </trkpt>
      <trkpt lat="43.93865" lon="1.79439">
        <ele>267</ele>
        <time>2020-08-13T18:00:09.000Z</time>
      </trkpt>
      <trkpt lat="43.93868" lon="1.79437">
        <ele>266.79998779297</ele>
        <time>2020-08-13T18:00:10.000Z</time>
      </trkpt>
      <trkpt lat="43.93871" lon="1.79435">
        <ele>267</ele>
        <time>2020-08-13T18:00:11.000Z</time>
      </trkpt>
      <trkpt lat="43.93875" lon="1.79433">
        <ele>266.79998779297</ele>
        <time>2020-08-13T18:00:12.000Z</time>
      </trkpt>
      <trkpt lat="43.93878" lon="1.79431">
        <ele>267.20001220703</ele>
        <time>2020-08-13T18:00:13.000Z</time>
      </trkpt>
      <trkpt lat="43.93882" lon="1.79428">
        <ele>267.20001220703</ele>
        <time>2020-08-13T18:00:14.000Z</time>
      </trkpt>
      <trkpt lat="43.93885" lon="1.79426">
        <ele>267</ele>
        <time>2020-08-13T18:00:15.000Z</time>
      </trkpt>
      <trkpt lat="43.93889" lon="1.79423">
        <ele>267</ele>
        <time>2020-08-13T18:00:16.000Z</time>
      </trkpt>
      <trkpt lat="43.93893" lon="1.79421">
        <ele>266.79998779297</ele>
        <time>2020-08-13T18:00:17.000Z</time>
      </trkpt>
      <trkpt lat="43.93897" lon="1.79419">
        <ele>267</ele>
        <time>2020-08-13T18:00:18.000Z</time>
      </trkpt>
      <trkpt lat="43.93901" lon="1.79416">
        <ele>267</ele>
        <time>2020-08-13T18:00:19.000Z</time>
      </trkpt>
      <trkpt lat="43.93904" lon="1.79414">
        <ele>266.79998779297</ele>
        <time>2020-08-13T18:00:20.000Z</time>
      </trkpt>
      <trkpt lat="43.93908" lon="1.79412">
        <ele>266.79998779297</ele>
        <time>2020-08-13T18:00:21.000Z</time>
      </trkpt>
      <trkpt lat="43.93912" lon="1.79411">
        <ele>267</ele>
        <time>2020-08-13T18:00:22.000Z</time>
      </trkpt>
      <trkpt lat="43.93916" lon="1.79408">
        <ele>267.20001220703</ele>
        <time>2020-08-13T18:00:23.000Z</time>
      </trkpt>
      <trkpt lat="43.9392" lon="1.79406">
        <ele>267.20001220703</ele>
        <time>2020-08-13T18:00:24.000Z</time>
      </trkpt>
      <trkpt lat="43.93924" lon="1.79405">
        <ele>267.39999389648</ele>
        <time>2020-08-13T18:00:25.000Z</time>
      </trkpt>
      <trkpt lat="43.93928" lon="1.79403">
        <ele>267.20001220703</ele>
        <time>2020-08-13T18:00:26.000Z</time>
      </trkpt>
      <trkpt lat="43.93932" lon="1.794">
        <ele>267.39999389648</ele>
        <time>2020-08-13T18:00:27.000Z</time>
      </trkpt>
      <trkpt lat="43.93936" lon="1.79398">
        <ele>267.20001220703</ele>
        <time>2020-08-13T18:00:28.000Z</time>
      </trkpt>
      <trkpt lat="43.9394" lon="1.79396">
        <ele>267.60000610352</ele>
        <time>2020-08-13T18:00:29.000Z</time>
      </trkpt>
      <trkpt lat="43.93944" lon="1.79394">
        <ele>267.79998779297</ele>
        <time>2020-08-13T18:00:30.000Z</time>
      </trkpt>
      <trkpt lat="43.93948" lon="1.79391">
        <ele>267.79998779297</ele>
        <time>2020-08-13T18:00:31.000Z</time>
      </trkpt>
      <trkpt lat="43.93952" lon="1.7939">
        <ele>267.79998779297</ele>
        <time>2020-08-13T18:00:32.000Z</time>
      </trkpt>
      <trkpt lat="43.93956" lon="1.79388">
        <ele>267.60000610352</ele>
        <time>2020-08-13T18:00:33.000Z</time>
      </trkpt>
      <trkpt lat="43.9396" lon="1.79386">
        <ele>267.79998779297</ele>
        <time>2020-08-13T18:00:34.000Z</time>
      </trkpt>
      <trkpt lat="43.93963" lon="1.79384">
        <ele>267.79998779297</ele>
        <time>2020-08-13T18:00:35.000Z</time>
      </trkpt>
      <trkpt lat="43.93967" lon="1.79382">
        <ele>267.79998779297</ele>
        <time>2020-08-13T18:00:36.000Z</time>
      </trkpt>
      <trkpt lat="43.93971" lon="1.7938">
        <ele>267.79998779297</ele>
        <time>2020-08-13T18:00:37.000Z</time>
      </trkpt>
      <trkpt lat="43.93975" lon="1.79378">
        <ele>268</ele>
        <time>2020-08-13T18:00:38.000Z</time>
      </trkpt>
      <trkpt lat="43.93979" lon="1.79376">
        <ele>268.20001220703</ele>
        <time>2020-08-13T18:00:39.000Z</time>
      </trkpt>
      <trkpt lat="43.93984" lon="1.79373">
        <ele>268</ele>
        <time>2020-08-13T18:00:40.000Z</time>
      </trkpt>
      <trkpt lat="43.93988" lon="1.79371">
        <ele>268.20001220703</ele>
        <time>2020-08-13T18:00:41.000Z</time>
      </trkpt>
      <trkpt lat="43.93992" lon="1.79369">
        <ele>268.20001220703</ele>
        <time>2020-08-13T18:00:42.000Z</time>
      </trkpt>
      <trkpt lat="43.93997" lon="1.79367">
        <ele>268.39999389648</ele>
        <time>2020-08-13T18:00:43.000Z</time>
      </trkpt>
      <trkpt lat="43.94001" lon="1.79364">
        <ele>268.60000610352</ele>
        <time>2020-08-13T18:00:44.000Z</time>
      </trkpt>
      <trkpt lat="43.94005" lon="1.79362">
        <ele>269</ele>
        <time>2020-08-13T18:00:45.000Z</time>
      </trkpt>
      <trkpt lat="43.94009" lon="1.7936">
        <ele>269.20001220703</ele>
        <time>2020-08-13T18:00:46.000Z</time>
      </trkpt>
      <trkpt lat="43.94013" lon="1.79358">
        <ele>269.60000610352</ele>
        <time>2020-08-13T18:00:47.000Z</time>
      </trkpt>
      <trkpt lat="43.94016" lon="1.79356">
        <ele>269.79998779297</ele>
        <time>2020-08-13T18:00:48.000Z</time>
      </trkpt>
      <trkpt lat="43.94019" lon="1.79354">
        <ele>270.20001220703</ele>
        <time>2020-08-13T18:00:49.000Z</time>
      </trkpt>
      <trkpt lat="43.94023" lon="1.79352">
        <ele>270.39999389648</ele>
        <time>2020-08-13T18:00:50.000Z</time>
      </trkpt>
      <trkpt lat="43.94026" lon="1.7935">
        <ele>270.79998779297</ele>
        <time>2020-08-13T18:00:51.000Z</time>
      </trkpt>
      <trkpt lat="43.94029" lon="1.79348">
        <ele>271</ele>
        <time>2020-08-13T18:00:52.000Z</time>
      </trkpt>
      <trkpt lat="43.94032" lon="1.79347">
        <ele>271.39999389648</ele>
        <time>2020-08-13T18:00:53.000Z</time>
      </trkpt>
      <trkpt lat="43.94035" lon="1.79346">
        <ele>271.79998779297</ele>
        <time>2020-08-13T18:00:54.000Z</time>
      </trkpt>
      <trkpt lat="43.94038" lon="1.79344">
        <ele>272.20001220703</ele>
        <time>2020-08-13T18:00:55.000Z</time>
      </trkpt>
      <trkpt lat="43.94041" lon="1.79342">
        <ele>272.60000610352</ele>
        <time>2020-08-13T18:00:56.000Z</time>
      </trkpt>
      <trkpt lat="43.94044" lon="1.79339">
        <ele>273</ele>
        <time>2020-08-13T18:00:57.000Z</time>
      </trkpt>
      <trkpt lat="43.94047" lon="1.79337">
        <ele>273.20001220703</ele>
        <time>2020-08-13T18:00:58.000Z</time>
      </trkpt>
      <trkpt lat="43.9405" lon="1.79335">
        <ele>273.39999389648</ele>
        <time>2020-08-13T18:00:59.000Z</time>
      </trkpt>
      <trkpt lat="43.94053" lon="1.79333">
        <ele>273.60000610352</ele>
        <time>2020-08-13T18:01:00.000Z</time>
      </trkpt>
      <trkpt lat="43.94056" lon="1.79331">
        <ele>273.79998779297</ele>
        <time>2020-08-13T18:01:01.000Z</time>
      </trkpt>
      <trkpt lat="43.94059" lon="1.79329">
        <ele>274.39999389648</ele>
        <time>2020-08-13T18:01:02.000Z</time>
      </trkpt>
      <trkpt lat="43.94063" lon="1.79327">
        <ele>274.60000610352</ele>
        <time>2020-08-13T18:01:03.000Z</time>
      </trkpt>
      <trkpt lat="43.94066" lon="1.79325">
        <ele>274.60000610352</ele>
        <time>2020-08-13T18:01:04.000Z</time>
      </trkpt>
      <trkpt lat="43.94069" lon="1.79324">
        <ele>274.79998779297</ele>
        <time>2020-08-13T18:01:05.000Z</time>
      </trkpt>
      <trkpt lat="43.94072" lon="1.79323">
        <ele>274.79998779297</ele>
        <time>2020-08-13T18:01:06.000Z</time>
      </trkpt>
      <trkpt lat="43.94076" lon="1.79321">
        <ele>275</ele>
        <time>2020-08-13T18:01:07.000Z</time>
      </trkpt>
      <trkpt lat="43.94079" lon="1.79319">
        <ele>274.79998779297</ele>
        <time>2020-08-13T18:01:08.000Z</time>
      </trkpt>
      <trkpt lat="43.94082" lon="1.79317">
        <ele>275</ele>
        <time>2020-08-13T18:01:09.000Z</time>
      </trkpt>
      <trkpt lat="43.94085" lon="1.79315">
        <ele>275</ele>
        <time>2020-08-13T18:01:10.000Z</time>
      </trkpt>
      <trkpt lat="43.94088" lon="1.79314">
        <ele>275.39999389648</ele>
        <time>2020-08-13T18:01:11.000Z</time>
      </trkpt>
      <trkpt lat="43.94091" lon="1.79312">
        <ele>275.39999389648</ele>
        <time>2020-08-13T18:01:12.000Z</time>
      </trkpt>
      <trkpt lat="43.94094" lon="1.7931">
        <ele>275.60000610352</ele>
        <time>2020-08-13T18:01:13.000Z</time>
      </trkpt>
      <trkpt lat="43.94098" lon="1.79308">
        <ele>275.60000610352</ele>
        <time>2020-08-13T18:01:14.000Z</time>
      </trkpt>
      <trkpt lat="43.94101" lon="1.79306">
        <ele>275.39999389648</ele>
        <time>2020-08-13T18:01:15.000Z</time>
      </trkpt>
      <trkpt lat="43.94104" lon="1.79304">
        <ele>275.39999389648</ele>
        <time>2020-08-13T18:01:16.000Z</time>
      </trkpt>
      <trkpt lat="43.94107" lon="1.79302">
        <ele>275.60000610352</ele>
        <time>2020-08-13T18:01:17.000Z</time>
      </trkpt>
      <trkpt lat="43.94111" lon="1.793">
        <ele>275.79998779297</ele>
        <time>2020-08-13T18:01:18.000Z</time>
      </trkpt>
      <trkpt lat="43.94114" lon="1.79298">
        <ele>276</ele>
        <time>2020-08-13T18:01:19.000Z</time>
      </trkpt>
      <trkpt lat="43.94117" lon="1.79296">
        <ele>276.39999389648</ele>
        <time>2020-08-13T18:01:20.000Z</time>
      </trkpt>
      <trkpt lat="43.94121" lon="1.79295">
        <ele>276.60000610352</ele>
        <time>2020-08-13T18:01:21.000Z</time>
      </trkpt>
      <trkpt lat="43.94124" lon="1.79293">
        <ele>276.60000610352</ele>
        <time>2020-08-13T18:01:22.000Z</time>
      </trkpt>
      <trkpt lat="43.94128" lon="1.79291">
        <ele>276.60000610352</ele>
        <time>2020-08-13T18:01:23.000Z</time>
      </trkpt>
      <trkpt lat="43.94131" lon="1.79288">
        <ele>276.60000610352</ele>
        <time>2020-08-13T18:01:24.000Z</time>
      </trkpt>
      <trkpt lat="43.94135" lon="1.79286">
        <ele>276.60000610352</ele>
        <time>2020-08-13T18:01:25.000Z</time>
      </trkpt>
      <trkpt lat="43.94139" lon="1.79284">
        <ele>277</ele>
        <time>2020-08-13T18:01:26.000Z</time>
      </trkpt>
      <trkpt lat="43.94142" lon="1.79282">
        <ele>277</ele>
        <time>2020-08-13T18:01:27.000Z</time>
      </trkpt>
      <trkpt lat="43.94146" lon="1.7928">
        <ele>277.20001220703</ele>
        <time>2020-08-13T18:01:28.000Z</time>
      </trkpt>
      <trkpt lat="43.9415" lon="1.79278">
        <ele>277.20001220703</ele>
        <time>2020-08-13T18:01:29.000Z</time>
      </trkpt>
      <trkpt lat="43.94154" lon="1.79277">
        <ele>277.60000610352</ele>
        <time>2020-08-13T18:01:30.000Z</time>
      </trkpt>
      <trkpt lat="43.94158" lon="1.79276">
        <ele>277.60000610352</ele>
        <time>2020-08-13T18:01:31.000Z</time>
      </trkpt>
      <trkpt lat="43.94162" lon="1.79274">
        <ele>277.39999389648</ele>
        <time>2020-08-13T18:01:32.000Z</time>
      </trkpt>
      <trkpt lat="43.94166" lon="1.79273">
        <ele>277.39999389648</ele>
        <time>2020-08-13T18:01:33.000Z</time>
      </trkpt>
      <trkpt lat="43.9417" lon="1.79272">
        <ele>277.20001220703</ele>
        <time>2020-08-13T18:01:34.000Z</time>
      </trkpt>
      <trkpt lat="43.94174" lon="1.79271">
        <ele>277.39999389648</ele>
        <time>2020-08-13T18:01:35.000Z</time>
      </trkpt>
      <trkpt lat="43.94178" lon="1.7927">
        <ele>277.20001220703</ele>
        <time>2020-08-13T18:01:36.000Z</time>
      </trkpt>
      <trkpt lat="43.94182" lon="1.79269">
        <ele>277.20001220703</ele>
        <time>2020-08-13T18:01:37.000Z</time>
      </trkpt>
      <trkpt lat="43.94186" lon="1.79267">
        <ele>277.20001220703</ele>
        <time>2020-08-13T18:01:38.000Z</time>
      </trkpt>
      <trkpt lat="43.9419" lon="1.79266">
        <ele>277</ele>
        <time>2020-08-13T18:01:39.000Z</time>
      </trkpt>
      <trkpt lat="43.94195" lon="1.79265">
        <ele>277.20001220703</ele>
        <time>2020-08-13T18:01:40.000Z</time>
      </trkpt>
      <trkpt lat="43.94199" lon="1.79265">
        <ele>277.20001220703</ele>
        <time>2020-08-13T18:01:41.000Z</time>
      </trkpt>
      <trkpt lat="43.94203" lon="1.79264">
        <ele>277</ele>
        <time>2020-08-13T18:01:42.000Z</time>
      </trkpt>
      <trkpt lat="43.94208" lon="1.79262">
        <ele>276.79998779297</ele>
        <time>2020-08-13T18:01:43.000Z</time>
      </trkpt>
      <trkpt lat="43.94213" lon="1.79261">
        <ele>276.60000610352</ele>
        <time>2020-08-13T18:01:44.000Z</time>
      </trkpt>
      <trkpt lat="43.94218" lon="1.7926">
        <ele>276.60000610352</ele>
        <time>2020-08-13T18:01:45.000Z</time>
      </trkpt>
      <trkpt lat="43.94223" lon="1.79257">
        <ele>276.39999389648</ele>
        <time>2020-08-13T18:01:46.000Z</time>
      </trkpt>
      <trkpt lat="43.94228" lon="1.79255">
        <ele>276.20001220703</ele>
        <time>2020-08-13T18:01:47.000Z</time>
      </trkpt>
      <trkpt lat="43.94233" lon="1.79253">
        <ele>276</ele>
        <time>2020-08-13T18:01:48.000Z</time>
      </trkpt>
      <trkpt lat="43.94238" lon="1.79251">
        <ele>275.79998779297</ele>
        <time>2020-08-13T18:01:49.000Z</time>
      </trkpt>
      <trkpt lat="43.94243" lon="1.7925">
        <ele>275.79998779297</ele>
        <time>2020-08-13T18:01:50.000Z</time>
      </trkpt>
      <trkpt lat="43.94248" lon="1.79248">
        <ele>275.60000610352</ele>
        <time>2020-08-13T18:01:51.000Z</time>
      </trkpt>
      <trkpt lat="43.94253" lon="1.79246">
        <ele>275.60000610352</ele>
        <time>2020-08-13T18:01:52.000Z</time>
      </trkpt>
      <trkpt lat="43.94259" lon="1.79244">
        <ele>275.60000610352</ele>
        <time>2020-08-13T18:01:53.000Z</time>
      </trkpt>
      <trkpt lat="43.94264" lon="1.79242">
        <ele>275.39999389648</ele>
        <time>2020-08-13T18:01:54.000Z</time>
      </trkpt>
      <trkpt lat="43.94269" lon="1.7924">
        <ele>275.39999389648</ele>
        <time>2020-08-13T18:01:55.000Z</time>
      </trkpt>
      <trkpt lat="43.94274" lon="1.79238">
        <ele>275.39999389648</ele>
        <time>2020-08-13T18:01:56.000Z</time>
      </trkpt>
      <trkpt lat="43.9428" lon="1.79236">
        <ele>275.39999389648</ele>
        <time>2020-08-13T18:01:57.000Z</time>
      </trkpt>
      <trkpt lat="43.94285" lon="1.79234">
        <ele>275.60000610352</ele>
        <time>2020-08-13T18:01:58.000Z</time>
      </trkpt>
      <trkpt lat="43.9429" lon="1.79232">
        <ele>275.39999389648</ele>
        <time>2020-08-13T18:01:59.000Z</time>
      </trkpt>
      <trkpt lat="43.94295" lon="1.7923">
        <ele>275.39999389648</ele>
        <time>2020-08-13T18:02:00.000Z</time>
      </trkpt>
      <trkpt lat="43.94299" lon="1.79228">
        <ele>275.39999389648</ele>
        <time>2020-08-13T18:02:01.000Z</time>
      </trkpt>
      <trkpt lat="43.94304" lon="1.79227">
        <ele>275.20001220703</ele>
        <time>2020-08-13T18:02:02.000Z</time>
      </trkpt>
      <trkpt lat="43.94309" lon="1.79225">
        <ele>275.20001220703</ele>
        <time>2020-08-13T18:02:03.000Z</time>
      </trkpt>
      <trkpt lat="43.94314" lon="1.79223">
        <ele>275</ele>
        <time>2020-08-13T18:02:04.000Z</time>
      </trkpt>
      <trkpt lat="43.94319" lon="1.79222">
        <ele>275</ele>
        <time>2020-08-13T18:02:05.000Z</time>
      </trkpt>
      <trkpt lat="43.94325" lon="1.7922">
        <ele>275.20001220703</ele>
        <time>2020-08-13T18:02:06.000Z</time>
      </trkpt>
      <trkpt lat="43.9433" lon="1.79219">
        <ele>275</ele>
        <time>2020-08-13T18:02:07.000Z</time>
      </trkpt>
      <trkpt lat="43.94334" lon="1.79218">
        <ele>275</ele>
        <time>2020-08-13T18:02:08.000Z</time>
      </trkpt>
      <trkpt lat="43.94339" lon="1.79217">
        <ele>275</ele>
        <time>2020-08-13T18:02:09.000Z</time>
      </trkpt>
      <trkpt lat="43.94344" lon="1.79215">
        <ele>275.20001220703</ele>
        <time>2020-08-13T18:02:10.000Z</time>
      </trkpt>
      <trkpt lat="43.94349" lon="1.79215">
        <ele>275.20001220703</ele>
        <time>2020-08-13T18:02:11.000Z</time>
      </trkpt>
      <trkpt lat="43.94354" lon="1.79215">
        <ele>275.60000610352</ele>
        <time>2020-08-13T18:02:12.000Z</time>
      </trkpt>
      <trkpt lat="43.94359" lon="1.79214">
        <ele>275.39999389648</ele>
        <time>2020-08-13T18:02:13.000Z</time>
      </trkpt>
      <trkpt lat="43.94364" lon="1.79214">
        <ele>275.39999389648</ele>
        <time>2020-08-13T18:02:14.000Z</time>
      </trkpt>
      <trkpt lat="43.94368" lon="1.79216">
        <ele>275.60000610352</ele>
        <time>2020-08-13T18:02:15.000Z</time>
      </trkpt>
      <trkpt lat="43.94372" lon="1.79219">
        <ele>275.79998779297</ele>
        <time>2020-08-13T18:02:16.000Z</time>
      </trkpt>
      <trkpt lat="43.94377" lon="1.79221">
        <ele>276</ele>
        <time>2020-08-13T18:02:17.000Z</time>
      </trkpt>
      <trkpt lat="43.94381" lon="1.79221">
        <ele>276.20001220703</ele>
        <time>2020-08-13T18:02:18.000Z</time>
      </trkpt>
      <trkpt lat="43.94386" lon="1.79221">
        <ele>275.79998779297</ele>
        <time>2020-08-13T18:02:19.000Z</time>
      </trkpt>
      <trkpt lat="43.94391" lon="1.7922">
        <ele>275.79998779297</ele>
        <time>2020-08-13T18:02:20.000Z</time>
      </trkpt>
      <trkpt lat="43.94395" lon="1.79218">
        <ele>275.79998779297</ele>
        <time>2020-08-13T18:02:21.000Z</time>
      </trkpt>
      <trkpt lat="43.944" lon="1.79215">
        <ele>276.39999389648</ele>
        <time>2020-08-13T18:02:22.000Z</time>
      </trkpt>
      <trkpt lat="43.94405" lon="1.79213">
        <ele>276.39999389648</ele>
        <time>2020-08-13T18:02:23.000Z</time>
      </trkpt>
      <trkpt lat="43.94409" lon="1.7921">
        <ele>276.60000610352</ele>
        <time>2020-08-13T18:02:24.000Z</time>
      </trkpt>
      <trkpt lat="43.94414" lon="1.79209">
        <ele>276.60000610352</ele>
        <time>2020-08-13T18:02:25.000Z</time>
      </trkpt>
      <trkpt lat="43.94419" lon="1.79207">
        <ele>276.60000610352</ele>
        <time>2020-08-13T18:02:26.000Z</time>
      </trkpt>
      <trkpt lat="43.94423" lon="1.79206">
        <ele>276.79998779297</ele>
        <time>2020-08-13T18:02:27.000Z</time>
      </trkpt>
      <trkpt lat="43.94428" lon="1.79205">
        <ele>277</ele>
        <time>2020-08-13T18:02:28.000Z</time>
      </trkpt>
      <trkpt lat="43.94433" lon="1.79204">
        <ele>277</ele>
        <time>2020-08-13T18:02:29.000Z</time>
      </trkpt>
      <trkpt lat="43.94438" lon="1.79204">
        <ele>277</ele>
        <time>2020-08-13T18:02:30.000Z</time>
      </trkpt>
      <trkpt lat="43.94443" lon="1.79204">
        <ele>277</ele>
        <time>2020-08-13T18:02:31.000Z</time>
      </trkpt>
      <trkpt lat="43.94448" lon="1.79203">
        <ele>277</ele>
        <time>2020-08-13T18:02:32.000Z</time>
      </trkpt>
      <trkpt lat="43.94453" lon="1.79202">
        <ele>276.60000610352</ele>
        <time>2020-08-13T18:02:33.000Z</time>
      </trkpt>
      <trkpt lat="43.94458" lon="1.79202">
        <ele>276.60000610352</ele>
        <time>2020-08-13T18:02:34.000Z</time>
      </trkpt>
      <trkpt lat="43.94463" lon="1.79201">
        <ele>276.39999389648</ele>
        <time>2020-08-13T18:02:35.000Z</time>
      </trkpt>
      <trkpt lat="43.94468" lon="1.792">
        <ele>276.60000610352</ele>
        <time>2020-08-13T18:02:36.000Z</time>
      </trkpt>
      <trkpt lat="43.94472" lon="1.79197">
        <ele>276.60000610352</ele>
        <time>2020-08-13T18:02:37.000Z</time>
      </trkpt>
      <trkpt lat="43.94476" lon="1.79194">
        <ele>276.60000610352</ele>
        <time>2020-08-13T18:02:38.000Z</time>
      </trkpt>
      <trkpt lat="43.94479" lon="1.7919">
        <ele>276.60000610352</ele>
        <time>2020-08-13T18:02:39.000Z</time>
      </trkpt>
      <trkpt lat="43.94481" lon="1.79185">
        <ele>276.60000610352</ele>
        <time>2020-08-13T18:02:40.000Z</time>
      </trkpt>
      <trkpt lat="43.94483" lon="1.79181">
        <ele>276.60000610352</ele>
        <time>2020-08-13T18:02:41.000Z</time>
      </trkpt>
      <trkpt lat="43.94484" lon="1.79176">
        <ele>276.79998779297</ele>
        <time>2020-08-13T18:02:42.000Z</time>
      </trkpt>
      <trkpt lat="43.94485" lon="1.79172">
        <ele>276.60000610352</ele>
        <time>2020-08-13T18:02:43.000Z</time>
      </trkpt>
      <trkpt lat="43.94487" lon="1.7917">
        <ele>276.60000610352</ele>
        <time>2020-08-13T18:02:44.000Z</time>
      </trkpt>
      <trkpt lat="43.9449" lon="1.79168">
        <ele>276.60000610352</ele>
        <time>2020-08-13T18:02:45.000Z</time>
      </trkpt>
      <trkpt lat="43.94492" lon="1.79167">
        <ele>276.60000610352</ele>
        <time>2020-08-13T18:02:46.000Z</time>
      </trkpt>
      <trkpt lat="43.94493" lon="1.79165">
        <ele>276.60000610352</ele>
        <time>2020-08-13T18:02:47.000Z</time>
      </trkpt>
      <trkpt lat="43.94493" lon="1.79163">
        <ele>276.79998779297</ele>
        <time>2020-08-13T18:02:48.000Z</time>
      </trkpt>
      <trkpt lat="43.94491" lon="1.79161">
        <ele>276.79998779297</ele>
        <time>2020-08-13T18:02:49.000Z</time>
      </trkpt>
      <trkpt lat="43.94489" lon="1.79162">
        <ele>276.79998779297</ele>
        <time>2020-08-13T18:02:50.000Z</time>
      </trkpt>
      <trkpt lat="43.94488" lon="1.79166">
        <ele>276.60000610352</ele>
        <time>2020-08-13T18:02:51.000Z</time>
      </trkpt>
      <trkpt lat="43.94487" lon="1.79169">
        <ele>276.60000610352</ele>
        <time>2020-08-13T18:02:52.000Z</time>
      </trkpt>
      <trkpt lat="43.94485" lon="1.79172">
        <ele>276.79998779297</ele>
        <time>2020-08-13T18:02:53.000Z</time>
      </trkpt>
      <trkpt lat="43.94483" lon="1.79176">
        <ele>276.79998779297</ele>
        <time>2020-08-13T18:02:54.000Z</time>
      </trkpt>
      <trkpt lat="43.94482" lon="1.7918">
        <ele>276.79998779297</ele>
        <time>2020-08-13T18:02:55.000Z</time>
      </trkpt>
      <trkpt lat="43.9448" lon="1.79185">
        <ele>276.79998779297</ele>
        <time>2020-08-13T18:02:56.000Z</time>
      </trkpt>
      <trkpt lat="43.94478" lon="1.7919">
        <ele>276.60000610352</ele>
        <time>2020-08-13T18:02:57.000Z</time>
      </trkpt>
      <trkpt lat="43.94475" lon="1.79194">
        <ele>276.39999389648</ele>
        <time>2020-08-13T18:02:58.000Z</time>
      </trkpt>
      <trkpt lat="43.94471" lon="1.79197">
        <ele>276.20001220703</ele>
        <time>2020-08-13T18:02:59.000Z</time>
      </trkpt>
      <trkpt lat="43.94467" lon="1.79199">
        <ele>276</ele>
        <time>2020-08-13T18:03:00.000Z</time>
      </trkpt>
      <trkpt lat="43.94463" lon="1.79201">
        <ele>276</ele>
        <time>2020-08-13T18:03:01.000Z</time>
      </trkpt>
      <trkpt lat="43.94459" lon="1.79201">
        <ele>276.60000610352</ele>
        <time>2020-08-13T18:03:02.000Z</time>
      </trkpt>
      <trkpt lat="43.94455" lon="1.79202">
        <ele>276.60000610352</ele>
        <time>2020-08-13T18:03:03.000Z</time>
      </trkpt>
      <trkpt lat="43.94451" lon="1.79202">
        <ele>276.60000610352</ele>
        <time>2020-08-13T18:03:04.000Z</time>
      </trkpt>
      <trkpt lat="43.94447" lon="1.79204">
        <ele>276.60000610352</ele>
        <time>2020-08-13T18:03:05.000Z</time>
      </trkpt>
      <trkpt lat="43.94443" lon="1.79205">
        <ele>276.39999389648</ele>
        <time>2020-08-13T18:03:06.000Z</time>
      </trkpt>
      <trkpt lat="43.94439" lon="1.79206">
        <ele>276.39999389648</ele>
        <time>2020-08-13T18:03:07.000Z</time>
      </trkpt>
      <trkpt lat="43.94435" lon="1.79206">
        <ele>276.20001220703</ele>
        <time>2020-08-13T18:03:08.000Z</time>
      </trkpt>
      <trkpt lat="43.94431" lon="1.79206">
        <ele>276.20001220703</ele>
        <time>2020-08-13T18:03:09.000Z</time>
      </trkpt>
      <trkpt lat="43.94427" lon="1.79205">
        <ele>276.39999389648</ele>
        <time>2020-08-13T18:03:10.000Z</time>
      </trkpt>
      <trkpt lat="43.94423" lon="1.79205">
        <ele>276.39999389648</ele>
        <time>2020-08-13T18:03:11.000Z</time>
      </trkpt>
      <trkpt lat="43.94418" lon="1.79207">
        <ele>276.39999389648</ele>
        <time>2020-08-13T18:03:12.000Z</time>
      </trkpt>
      <trkpt lat="43.94414" lon="1.79208">
        <ele>276.60000610352</ele>
        <time>2020-08-13T18:03:13.000Z</time>
      </trkpt>
      <trkpt lat="43.9441" lon="1.7921">
        <ele>276.60000610352</ele>
        <time>2020-08-13T18:03:14.000Z</time>
      </trkpt>
      <trkpt lat="43.94405" lon="1.79211">
        <ele>276.60000610352</ele>
        <time>2020-08-13T18:03:15.000Z</time>
      </trkpt>
      <trkpt lat="43.94401" lon="1.79213">
        <ele>276.39999389648</ele>
        <time>2020-08-13T18:03:16.000Z</time>
      </trkpt>
      <trkpt lat="43.94397" lon="1.79215">
        <ele>276.20001220703</ele>
        <time>2020-08-13T18:03:17.000Z</time>
      </trkpt>
      <trkpt lat="43.94392" lon="1.79218">
        <ele>276.20001220703</ele>
        <time>2020-08-13T18:03:18.000Z</time>
      </trkpt>
      <trkpt lat="43.94388" lon="1.7922">
        <ele>276</ele>
        <time>2020-08-13T18:03:19.000Z</time>
      </trkpt>
      <trkpt lat="43.94384" lon="1.79223">
        <ele>276.20001220703</ele>
        <time>2020-08-13T18:03:20.000Z</time>
      </trkpt>
      <trkpt lat="43.94379" lon="1.79224">
        <ele>275.79998779297</ele>
        <time>2020-08-13T18:03:21.000Z</time>
      </trkpt>
      <trkpt lat="43.94375" lon="1.79222">
        <ele>275.60000610352</ele>
        <time>2020-08-13T18:03:22.000Z</time>
      </trkpt>
      <trkpt lat="43.9437" lon="1.79219">
        <ele>275.79998779297</ele>
        <time>2020-08-13T18:03:23.000Z</time>
      </trkpt>
      <trkpt lat="43.94366" lon="1.79216">
        <ele>276</ele>
        <time>2020-08-13T18:03:24.000Z</time>
      </trkpt>
      <trkpt lat="43.94362" lon="1.79213">
        <ele>276</ele>
        <time>2020-08-13T18:03:25.000Z</time>
      </trkpt>
      <trkpt lat="43.94358" lon="1.79212">
        <ele>275.60000610352</ele>
        <time>2020-08-13T18:03:26.000Z</time>
      </trkpt>
      <trkpt lat="43.94353" lon="1.79212">
        <ele>275.39999389648</ele>
        <time>2020-08-13T18:03:27.000Z</time>
      </trkpt>
      <trkpt lat="43.94349" lon="1.79212">
        <ele>275.20001220703</ele>
        <time>2020-08-13T18:03:28.000Z</time>
      </trkpt>
      <trkpt lat="43.94344" lon="1.79213">
        <ele>275.20001220703</ele>
        <time>2020-08-13T18:03:29.000Z</time>
      </trkpt>
      <trkpt lat="43.94339" lon="1.79214">
        <ele>275.20001220703</ele>
        <time>2020-08-13T18:03:30.000Z</time>
      </trkpt>
      <trkpt lat="43.94335" lon="1.79216">
        <ele>275.39999389648</ele>
        <time>2020-08-13T18:03:31.000Z</time>
      </trkpt>
      <trkpt lat="43.9433" lon="1.79218">
        <ele>275.20001220703</ele>
        <time>2020-08-13T18:03:32.000Z</time>
      </trkpt>
      <trkpt lat="43.94325" lon="1.79219">
        <ele>275</ele>
        <time>2020-08-13T18:03:33.000Z</time>
      </trkpt>
      <trkpt lat="43.9432" lon="1.79221">
        <ele>274.60000610352</ele>
        <time>2020-08-13T18:03:34.000Z</time>
      </trkpt>
      <trkpt lat="43.94315" lon="1.79222">
        <ele>274.39999389648</ele>
        <time>2020-08-13T18:03:35.000Z</time>
      </trkpt>
      <trkpt lat="43.9431" lon="1.79224">
        <ele>274.39999389648</ele>
        <time>2020-08-13T18:03:36.000Z</time>
      </trkpt>
      <trkpt lat="43.94305" lon="1.79225">
        <ele>274.60000610352</ele>
        <time>2020-08-13T18:03:37.000Z</time>
      </trkpt>
      <trkpt lat="43.94301" lon="1.79226">
        <ele>274.20001220703</ele>
        <time>2020-08-13T18:03:38.000Z</time>
      </trkpt>
      <trkpt lat="43.94296" lon="1.79227">
        <ele>274.20001220703</ele>
        <time>2020-08-13T18:03:39.000Z</time>
      </trkpt>
      <trkpt lat="43.94291" lon="1.79228">
        <ele>274.20001220703</ele>
        <time>2020-08-13T18:03:40.000Z</time>
      </trkpt>
      <trkpt lat="43.94287" lon="1.79229">
        <ele>274.39999389648</ele>
        <time>2020-08-13T18:03:41.000Z</time>
      </trkpt>
      <trkpt lat="43.94282" lon="1.79231">
        <ele>274.39999389648</ele>
        <time>2020-08-13T18:03:42.000Z</time>
      </trkpt>
      <trkpt lat="43.94277" lon="1.79232">
        <ele>274.60000610352</ele>
        <time>2020-08-13T18:03:43.000Z</time>
      </trkpt>
      <trkpt lat="43.94272" lon="1.79234">
        <ele>275</ele>
        <time>2020-08-13T18:03:44.000Z</time>
      </trkpt>
      <trkpt lat="43.94267" lon="1.79236">
        <ele>274.79998779297</ele>
        <time>2020-08-13T18:03:45.000Z</time>
      </trkpt>
      <trkpt lat="43.94262" lon="1.79238">
        <ele>274.79998779297</ele>
        <time>2020-08-13T18:03:46.000Z</time>
      </trkpt>
      <trkpt lat="43.94257" lon="1.7924">
        <ele>274.79998779297</ele>
        <time>2020-08-13T18:03:47.000Z</time>
      </trkpt>
      <trkpt lat="43.94252" lon="1.79242">
        <ele>274.79998779297</ele>
        <time>2020-08-13T18:03:48.000Z</time>
      </trkpt>
      <trkpt lat="43.94247" lon="1.79244">
        <ele>274.79998779297</ele>
        <time>2020-08-13T18:03:49.000Z</time>
      </trkpt>
      <trkpt lat="43.94242" lon="1.79246">
        <ele>274.60000610352</ele>
        <time>2020-08-13T18:03:50.000Z</time>
      </trkpt>
      <trkpt lat="43.94237" lon="1.79247">
        <ele>274.60000610352</ele>
        <time>2020-08-13T18:03:51.000Z</time>
      </trkpt>
      <trkpt lat="43.94232" lon="1.79249">
        <ele>274.79998779297</ele>
        <time>2020-08-13T18:03:52.000Z</time>
      </trkpt>
      <trkpt lat="43.94227" lon="1.79251">
        <ele>274.79998779297</ele>
        <time>2020-08-13T18:03:53.000Z</time>
      </trkpt>
      <trkpt lat="43.94221" lon="1.79253">
        <ele>275</ele>
        <time>2020-08-13T18:03:54.000Z</time>
      </trkpt>
      <trkpt lat="43.94216" lon="1.79255">
        <ele>275.20001220703</ele>
        <time>2020-08-13T18:03:55.000Z</time>
      </trkpt>
      <trkpt lat="43.94211" lon="1.79257">
        <ele>275.39999389648</ele>
        <time>2020-08-13T18:03:56.000Z</time>
      </trkpt>
      <trkpt lat="43.94206" lon="1.79259">
        <ele>275.60000610352</ele>
        <time>2020-08-13T18:03:57.000Z</time>
      </trkpt>
      <trkpt lat="43.94201" lon="1.79261">
        <ele>275.60000610352</ele>
        <time>2020-08-13T18:03:58.000Z</time>
      </trkpt>
      <trkpt lat="43.94196" lon="1.79263">
        <ele>275.79998779297</ele>
        <time>2020-08-13T18:03:59.000Z</time>
      </trkpt>
      <trkpt lat="43.94192" lon="1.79264">
        <ele>275.79998779297</ele>
        <time>2020-08-13T18:04:00.000Z</time>
      </trkpt>
      <trkpt lat="43.94187" lon="1.79266">
        <ele>276</ele>
        <time>2020-08-13T18:04:01.000Z</time>
      </trkpt>
      <trkpt lat="43.94182" lon="1.79267">
        <ele>276.39999389648</ele>
        <time>2020-08-13T18:04:02.000Z</time>
      </trkpt>
      <trkpt lat="43.94178" lon="1.79268">
        <ele>276.60000610352</ele>
        <time>2020-08-13T18:04:03.000Z</time>
      </trkpt>
      <trkpt lat="43.94173" lon="1.7927">
        <ele>276.60000610352</ele>
        <time>2020-08-13T18:04:04.000Z</time>
      </trkpt>
      <trkpt lat="43.94169" lon="1.79271">
        <ele>276.79998779297</ele>
        <time>2020-08-13T18:04:05.000Z</time>
      </trkpt>
      <trkpt lat="43.94165" lon="1.79272">
        <ele>276.39999389648</ele>
        <time>2020-08-13T18:04:06.000Z</time>
      </trkpt>
      <trkpt lat="43.94161" lon="1.79272">
        <ele>276.39999389648</ele>
        <time>2020-08-13T18:04:07.000Z</time>
      </trkpt>
      <trkpt lat="43.94158" lon="1.79272">
        <ele>276.20001220703</ele>
        <time>2020-08-13T18:04:08.000Z</time>
      </trkpt>
      <trkpt lat="43.94155" lon="1.79271">
        <ele>276.60000610352</ele>
        <time>2020-08-13T18:04:09.000Z</time>
      </trkpt>
      <trkpt lat="43.94152" lon="1.79271">
        <ele>276.79998779297</ele>
        <time>2020-08-13T18:04:10.000Z</time>
      </trkpt>
      <trkpt lat="43.9415" lon="1.79273">
        <ele>276.79998779297</ele>
        <time>2020-08-13T18:04:11.000Z</time>
      </trkpt>
      <trkpt lat="43.94149" lon="1.79276">
        <ele>276.79998779297</ele>
        <time>2020-08-13T18:04:12.000Z</time>
      </trkpt>
      <trkpt lat="43.94151" lon="1.79279">
        <ele>276.79998779297</ele>
        <time>2020-08-13T18:04:13.000Z</time>
      </trkpt>
      <trkpt lat="43.94153" lon="1.7928">
        <ele>277</ele>
        <time>2020-08-13T18:04:14.000Z</time>
      </trkpt>
      <trkpt lat="43.94156" lon="1.79279">
        <ele>276.79998779297</ele>
        <time>2020-08-13T18:04:15.000Z</time>
      </trkpt>
      <trkpt lat="43.94159" lon="1.79277">
        <ele>276.60000610352</ele>
        <time>2020-08-13T18:04:16.000Z</time>
      </trkpt>
      <trkpt lat="43.94163" lon="1.79276">
        <ele>276.79998779297</ele>
        <time>2020-08-13T18:04:17.000Z</time>
      </trkpt>
      <trkpt lat="43.94167" lon="1.79275">
        <ele>277</ele>
        <time>2020-08-13T18:04:18.000Z</time>
      </trkpt>
      <trkpt lat="43.94171" lon="1.79274">
        <ele>277</ele>
        <time>2020-08-13T18:04:19.000Z</time>
      </trkpt>
      <trkpt lat="43.94176" lon="1.79273">
        <ele>276.79998779297</ele>
        <time>2020-08-13T18:04:20.000Z</time>
      </trkpt>
      <trkpt lat="43.94181" lon="1.79272">
        <ele>276.60000610352</ele>
        <time>2020-08-13T18:04:21.000Z</time>
      </trkpt>
      <trkpt lat="43.94186" lon="1.7927">
        <ele>276.60000610352</ele>
        <time>2020-08-13T18:04:22.000Z</time>
      </trkpt>
      <trkpt lat="43.94191" lon="1.79268">
        <ele>276.60000610352</ele>
        <time>2020-08-13T18:04:23.000Z</time>
      </trkpt>
      <trkpt lat="43.94196" lon="1.79266">
        <ele>276.39999389648</ele>
        <time>2020-08-13T18:04:24.000Z</time>
      </trkpt>
      <trkpt lat="43.94202" lon="1.79264">
        <ele>276.20001220703</ele>
        <time>2020-08-13T18:04:25.000Z</time>
      </trkpt>
      <trkpt lat="43.94207" lon="1.79262">
        <ele>276.20001220703</ele>
        <time>2020-08-13T18:04:26.000Z</time>
      </trkpt>
      <trkpt lat="43.94213" lon="1.7926">
        <ele>276.20001220703</ele>
        <time>2020-08-13T18:04:27.000Z</time>
      </trkpt>
      <trkpt lat="43.94218" lon="1.79258">
        <ele>276</ele>
        <time>2020-08-13T18:04:28.000Z</time>
      </trkpt>
      <trkpt lat="43.94223" lon="1.79256">
        <ele>275.79998779297</ele>
        <time>2020-08-13T18:04:29.000Z</time>
      </trkpt>
      <trkpt lat="43.94229" lon="1.79254">
        <ele>275.79998779297</ele>
        <time>2020-08-13T18:04:30.000Z</time>
      </trkpt>
      <trkpt lat="43.94234" lon="1.79252">
        <ele>275.79998779297</ele>
        <time>2020-08-13T18:04:31.000Z</time>
      </trkpt>
      <trkpt lat="43.94239" lon="1.79251">
        <ele>275.60000610352</ele>
        <time>2020-08-13T18:04:32.000Z</time>
      </trkpt>
      <trkpt lat="43.94244" lon="1.79249">
        <ele>275.39999389648</ele>
        <time>2020-08-13T18:04:33.000Z</time>
      </trkpt>
      <trkpt lat="43.94249" lon="1.79247">
        <ele>275.20001220703</ele>
        <time>2020-08-13T18:04:34.000Z</time>
      </trkpt>
      <trkpt lat="43.94254" lon="1.79245">
        <ele>275</ele>
        <time>2020-08-13T18:04:35.000Z</time>
      </trkpt>
      <trkpt lat="43.94258" lon="1.79243">
        <ele>275.20001220703</ele>
        <time>2020-08-13T18:04:36.000Z</time>
      </trkpt>
      <trkpt lat="43.94263" lon="1.79242">
        <ele>275</ele>
        <time>2020-08-13T18:04:37.000Z</time>
      </trkpt>
      <trkpt lat="43.94267" lon="1.7924">
        <ele>275</ele>
        <time>2020-08-13T18:04:38.000Z</time>
      </trkpt>
      <trkpt lat="43.94271" lon="1.79238">
        <ele>274.79998779297</ele>
        <time>2020-08-13T18:04:39.000Z</time>
      </trkpt>
      <trkpt lat="43.94275" lon="1.79237">
        <ele>274.79998779297</ele>
        <time>2020-08-13T18:04:40.000Z</time>
      </trkpt>
      <trkpt lat="43.94279" lon="1.79236">
        <ele>274.79998779297</ele>
        <time>2020-08-13T18:04:41.000Z</time>
      </trkpt>
      <trkpt lat="43.94283" lon="1.79234">
        <ele>274.79998779297</ele>
        <time>2020-08-13T18:04:42.000Z</time>
      </trkpt>
      <trkpt lat="43.94287" lon="1.79232">
        <ele>274.60000610352</ele>
        <time>2020-08-13T18:04:43.000Z</time>
      </trkpt>
      <trkpt lat="43.94291" lon="1.79231">
        <ele>274.60000610352</ele>
        <time>2020-08-13T18:04:44.000Z</time>
      </trkpt>
      <trkpt lat="43.94295" lon="1.79231">
        <ele>274.60000610352</ele>
        <time>2020-08-13T18:04:45.000Z</time>
      </trkpt>
      <trkpt lat="43.94299" lon="1.79231">
        <ele>274.60000610352</ele>
        <time>2020-08-13T18:04:46.000Z</time>
      </trkpt>
      <trkpt lat="43.94303" lon="1.79229">
        <ele>274.60000610352</ele>
        <time>2020-08-13T18:04:47.000Z</time>
      </trkpt>
      <trkpt lat="43.94307" lon="1.79228">
        <ele>274.60000610352</ele>
        <time>2020-08-13T18:04:48.000Z</time>
      </trkpt>
      <trkpt lat="43.94311" lon="1.79227">
        <ele>274.60000610352</ele>
        <time>2020-08-13T18:04:49.000Z</time>
      </trkpt>
      <trkpt lat="43.94315" lon="1.79225">
        <ele>274.60000610352</ele>
        <time>2020-08-13T18:04:50.000Z</time>
      </trkpt>
      <trkpt lat="43.94318" lon="1.79223">
        <ele>274.60000610352</ele>
        <time>2020-08-13T18:04:51.000Z</time>
      </trkpt>
      <trkpt lat="43.94322" lon="1.79222">
        <ele>274.39999389648</ele>
        <time>2020-08-13T18:04:52.000Z</time>
      </trkpt>
      <trkpt lat="43.94325" lon="1.79221">
        <ele>274.39999389648</ele>
        <time>2020-08-13T18:04:53.000Z</time>
      </trkpt>
      <trkpt lat="43.94329" lon="1.79221">
        <ele>274.39999389648</ele>
        <time>2020-08-13T18:04:54.000Z</time>
      </trkpt>
      <trkpt lat="43.94332" lon="1.7922">
        <ele>274.60000610352</ele>
        <time>2020-08-13T18:04:55.000Z</time>
      </trkpt>
      <trkpt lat="43.94335" lon="1.79219">
        <ele>274.79998779297</ele>
        <time>2020-08-13T18:04:56.000Z</time>
      </trkpt>
      <trkpt lat="43.94338" lon="1.79218">
        <ele>274.79998779297</ele>
        <time>2020-08-13T18:04:57.000Z</time>
      </trkpt>
      <trkpt lat="43.94341" lon="1.79217">
        <ele>275</ele>
        <time>2020-08-13T18:04:58.000Z</time>
      </trkpt>
      <trkpt lat="43.94344" lon="1.79216">
        <ele>275</ele>
        <time>2020-08-13T18:04:59.000Z</time>
      </trkpt>
      <trkpt lat="43.94347" lon="1.79215">
        <ele>275.20001220703</ele>
        <time>2020-08-13T18:05:00.000Z</time>
      </trkpt>
      <trkpt lat="43.9435" lon="1.79215">
        <ele>275.39999389648</ele>
        <time>2020-08-13T18:05:01.000Z</time>
      </trkpt>
      <trkpt lat="43.94354" lon="1.79214">
        <ele>275.39999389648</ele>
        <time>2020-08-13T18:05:02.000Z</time>
      </trkpt>
      <trkpt lat="43.94358" lon="1.79214">
        <ele>275.20001220703</ele>
        <time>2020-08-13T18:05:03.000Z</time>
      </trkpt>
      <trkpt lat="43.94362" lon="1.79215">
        <ele>275.20001220703</ele>
        <time>2020-08-13T18:05:04.000Z</time>
      </trkpt>
      <trkpt lat="43.94365" lon="1.79217">
        <ele>275.39999389648</ele>
        <time>2020-08-13T18:05:05.000Z</time>
      </trkpt>
      <trkpt lat="43.94369" lon="1.79219">
        <ele>275.79998779297</ele>
        <time>2020-08-13T18:05:06.000Z</time>
      </trkpt>
      <trkpt lat="43.94372" lon="1.7922">
        <ele>275.79998779297</ele>
        <time>2020-08-13T18:05:07.000Z</time>
      </trkpt>
      <trkpt lat="43.94376" lon="1.79221">
        <ele>275.79998779297</ele>
        <time>2020-08-13T18:05:08.000Z</time>
      </trkpt>
      <trkpt lat="43.9438" lon="1.79221">
        <ele>275.79998779297</ele>
        <time>2020-08-13T18:05:09.000Z</time>
      </trkpt>
      <trkpt lat="43.94384" lon="1.79221">
        <ele>275.79998779297</ele>
        <time>2020-08-13T18:05:10.000Z</time>
      </trkpt>
      <trkpt lat="43.94387" lon="1.7922">
        <ele>276</ele>
        <time>2020-08-13T18:05:11.000Z</time>
      </trkpt>
      <trkpt lat="43.94391" lon="1.79218">
        <ele>276</ele>
        <time>2020-08-13T18:05:12.000Z</time>
      </trkpt>
      <trkpt lat="43.94394" lon="1.79217">
        <ele>276</ele>
        <time>2020-08-13T18:05:13.000Z</time>
      </trkpt>
      <trkpt lat="43.94398" lon="1.79216">
        <ele>276</ele>
        <time>2020-08-13T18:05:14.000Z</time>
      </trkpt>
      <trkpt lat="43.94401" lon="1.79214">
        <ele>276</ele>
        <time>2020-08-13T18:05:15.000Z</time>
      </trkpt>
      <trkpt lat="43.94404" lon="1.79213">
        <ele>276</ele>
        <time>2020-08-13T18:05:16.000Z</time>
      </trkpt>
      <trkpt lat="43.94408" lon="1.79211">
        <ele>276</ele>
        <time>2020-08-13T18:05:17.000Z</time>
      </trkpt>
      <trkpt lat="43.94411" lon="1.7921">
        <ele>276</ele>
        <time>2020-08-13T18:05:18.000Z</time>
      </trkpt>
      <trkpt lat="43.94415" lon="1.79209">
        <ele>276.20001220703</ele>
        <time>2020-08-13T18:05:19.000Z</time>
      </trkpt>
      <trkpt lat="43.94418" lon="1.79208">
        <ele>276.39999389648</ele>
        <time>2020-08-13T18:05:20.000Z</time>
      </trkpt>
      <trkpt lat="43.94421" lon="1.79207">
        <ele>276.60000610352</ele>
        <time>2020-08-13T18:05:21.000Z</time>
      </trkpt>
      <trkpt lat="43.94425" lon="1.79206">
        <ele>276.39999389648</ele>
        <time>2020-08-13T18:05:22.000Z</time>
      </trkpt>
      <trkpt lat="43.94428" lon="1.79206">
        <ele>276.20001220703</ele>
        <time>2020-08-13T18:05:23.000Z</time>
      </trkpt>
      <trkpt lat="43.94432" lon="1.79205">
        <ele>276.20001220703</ele>
        <time>2020-08-13T18:05:24.000Z</time>
      </trkpt>
      <trkpt lat="43.94436" lon="1.79205">
        <ele>276.20001220703</ele>
        <time>2020-08-13T18:05:25.000Z</time>
      </trkpt>
      <trkpt lat="43.94439" lon="1.79204">
        <ele>276.20001220703</ele>
        <time>2020-08-13T18:05:26.000Z</time>
      </trkpt>
      <trkpt lat="43.94443" lon="1.79203">
        <ele>276.39999389648</ele>
        <time>2020-08-13T18:05:27.000Z</time>
      </trkpt>
      <trkpt lat="43.94447" lon="1.79203">
        <ele>276.39999389648</ele>
        <time>2020-08-13T18:05:28.000Z</time>
      </trkpt>
      <trkpt lat="43.9445" lon="1.79202">
        <ele>276.39999389648</ele>
        <time>2020-08-13T18:05:29.000Z</time>
      </trkpt>
      <trkpt lat="43.94454" lon="1.79202">
        <ele>276.39999389648</ele>
        <time>2020-08-13T18:05:30.000Z</time>
      </trkpt>
      <trkpt lat="43.94458" lon="1.79201">
        <ele>276.39999389648</ele>
        <time>2020-08-13T18:05:31.000Z</time>
      </trkpt>
      <trkpt lat="43.94461" lon="1.79201">
        <ele>276.60000610352</ele>
        <time>2020-08-13T18:05:32.000Z</time>
      </trkpt>
      <trkpt lat="43.94464" lon="1.792">
        <ele>276.60000610352</ele>
        <time>2020-08-13T18:05:33.000Z</time>
      </trkpt>
      <trkpt lat="43.94468" lon="1.79198">
        <ele>276.39999389648</ele>
        <time>2020-08-13T18:05:34.000Z</time>
      </trkpt>
      <trkpt lat="43.94471" lon="1.79197">
        <ele>276.39999389648</ele>
        <time>2020-08-13T18:05:35.000Z</time>
      </trkpt>
      <trkpt lat="43.94473" lon="1.79195">
        <ele>276.39999389648</ele>
        <time>2020-08-13T18:05:36.000Z</time>
      </trkpt>
      <trkpt lat="43.94476" lon="1.79192">
        <ele>276.39999389648</ele>
        <time>2020-08-13T18:05:37.000Z</time>
      </trkpt>
      <trkpt lat="43.94477" lon="1.79189">
        <ele>276.20001220703</ele>
        <time>2020-08-13T18:05:38.000Z</time>
      </trkpt>
      <trkpt lat="43.94479" lon="1.79186">
        <ele>276.39999389648</ele>
        <time>2020-08-13T18:05:39.000Z</time>
      </trkpt>
      <trkpt lat="43.9448" lon="1.79183">
        <ele>276.39999389648</ele>
        <time>2020-08-13T18:05:40.000Z</time>
      </trkpt>
      <trkpt lat="43.94482" lon="1.7918">
        <ele>276.20001220703</ele>
        <time>2020-08-13T18:05:41.000Z</time>
      </trkpt>
      <trkpt lat="43.94482" lon="1.79178">
        <ele>276.20001220703</ele>
        <time>2020-08-13T18:05:42.000Z</time>
      </trkpt>
      <trkpt lat="43.94483" lon="1.79175">
        <ele>276.20001220703</ele>
        <time>2020-08-13T18:05:43.000Z</time>
      </trkpt>
      <trkpt lat="43.94484" lon="1.79173">
        <ele>276.20001220703</ele>
        <time>2020-08-13T18:05:44.000Z</time>
      </trkpt>
      <trkpt lat="43.94484" lon="1.79172">
        <ele>276.39999389648</ele>
        <time>2020-08-13T18:05:45.000Z</time>
      </trkpt>
      <trkpt lat="43.94485" lon="1.7917">
        <ele>276.39999389648</ele>
        <time>2020-08-13T18:05:46.000Z</time>
      </trkpt>
      <trkpt lat="43.94484" lon="1.79171">
        <ele>276.39999389648</ele>
        <time>2020-08-13T18:05:47.000Z</time>
      </trkpt>
      <trkpt lat="43.94485" lon="1.7917">
        <ele>276.39999389648</ele>
        <time>2020-08-13T18:05:48.000Z</time>
      </trkpt>
      <trkpt lat="43.94485" lon="1.7917">
        <ele>276.39999389648</ele>
        <time>2020-08-13T18:05:49.000Z</time>
      </trkpt>
      <trkpt lat="43.94485" lon="1.7917">
        <ele>276.39999389648</ele>
        <time>2020-08-13T18:05:50.000Z</time>
      </trkpt>
      <trkpt lat="43.94485" lon="1.7917">
        <ele>276.39999389648</ele>
        <time>2020-08-13T18:05:51.000Z</time>
      </trkpt>
      <trkpt lat="43.94485" lon="1.7917">
        <ele>276.39999389648</ele>
        <time>2020-08-13T18:05:52.000Z</time>
      </trkpt>
      <trkpt lat="43.94485" lon="1.7917">
        <ele>276.39999389648</ele>
        <time>2020-08-13T18:05:53.000Z</time>
      </trkpt>
      <trkpt lat="43.94485" lon="1.7917">
        <ele>276.39999389648</ele>
        <time>2020-08-13T18:05:54.000Z</time>
      </trkpt>
      <trkpt lat="43.94485" lon="1.7917">
        <ele>276.20001220703</ele>
        <time>2020-08-13T18:05:55.000Z</time>
      </trkpt>
      <trkpt lat="43.94485" lon="1.7917">
        <ele>276.20001220703</ele>
        <time>2020-08-13T18:05:56.000Z</time>
      </trkpt>
      <trkpt lat="43.94485" lon="1.7917">
        <ele>276.39999389648</ele>
        <time>2020-08-13T18:05:57.000Z</time>
      </trkpt>
      <trkpt lat="43.94485" lon="1.7917">
        <ele>276.20001220703</ele>
        <time>2020-08-13T18:05:58.000Z</time>
      </trkpt>
      <trkpt lat="43.94485" lon="1.7917">
        <ele>276.39999389648</ele>
        <time>2020-08-13T18:05:59.000Z</time>
      </trkpt>
      <trkpt lat="43.94485" lon="1.7917">
        <ele>276.20001220703</ele>
        <time>2020-08-13T18:06:00.000Z</time>
      </trkpt>
      <trkpt lat="43.94485" lon="1.7917">
        <ele>276.39999389648</ele>
        <time>2020-08-13T18:06:01.000Z</time>
      </trkpt>
      <trkpt lat="43.94485" lon="1.7917">
        <ele>276.39999389648</ele>
        <time>2020-08-13T18:06:02.000Z</time>
      </trkpt>
      <trkpt lat="43.94485" lon="1.7917">
        <ele>276.39999389648</ele>
        <time>2020-08-13T18:06:03.000Z</time>
      </trkpt>
      <trkpt lat="43.94485" lon="1.7917">
        <ele>276.39999389648</ele>
        <time>2020-08-13T18:06:04.000Z</time>
      </trkpt>
      <trkpt lat="43.94485" lon="1.7917">
        <ele>276.39999389648</ele>
        <time>2020-08-13T18:06:05.000Z</time>
      </trkpt>
      <trkpt lat="43.94485" lon="1.7917">
        <ele>276.39999389648</ele>
        <time>2020-08-13T18:06:06.000Z</time>
      </trkpt>
      <trkpt lat="43.94485" lon="1.7917">
        <ele>276.20001220703</ele>
        <time>2020-08-13T18:06:07.000Z</time>
      </trkpt>
      <trkpt lat="43.94485" lon="1.7917">
        <ele>276.39999389648</ele>
        <time>2020-08-13T18:06:08.000Z</time>
      </trkpt>
      <trkpt lat="43.94485" lon="1.7917">
        <ele>276.39999389648</ele>
        <time>2020-08-13T18:06:09.000Z</time>
      </trkpt>
      <trkpt lat="43.94485" lon="1.7917">
        <ele>276.39999389648</ele>
        <time>2020-08-13T18:06:10.000Z</time>
      </trkpt>
      <trkpt lat="43.94485" lon="1.7917">
        <ele>276.39999389648</ele>
        <time>2020-08-13T18:06:11.000Z</time>
      </trkpt>
      <trkpt lat="43.94485" lon="1.7917">
        <ele>276.39999389648</ele>
        <time>2020-08-13T18:06:12.000Z</time>
      </trkpt>
      <trkpt lat="43.94485" lon="1.7917">
        <ele>276.39999389648</ele>
        <time>2020-08-13T18:06:13.000Z</time>
      </trkpt>
      <trkpt lat="43.94485" lon="1.7917">
        <ele>276.39999389648</ele>
        <time>2020-08-13T18:06:14.000Z</time>
      </trkpt>
      <trkpt lat="43.94485" lon="1.7917">
        <ele>276.20001220703</ele>
        <time>2020-08-13T18:06:15.000Z</time>
      </trkpt>
      <trkpt lat="43.94485" lon="1.7917">
        <ele>276.20001220703</ele>
        <time>2020-08-13T18:06:16.000Z</time>
      </trkpt>
      <trkpt lat="43.94485" lon="1.7917">
        <ele>276.20001220703</ele>
        <time>2020-08-13T18:06:17.000Z</time>
      </trkpt>
      <trkpt lat="43.94485" lon="1.7917">
        <ele>276.20001220703</ele>
        <time>2020-08-13T18:06:18.000Z</time>
      </trkpt>
      <trkpt lat="43.94485" lon="1.7917">
        <ele>276.20001220703</ele>
        <time>2020-08-13T18:06:19.000Z</time>
      </trkpt>
      <trkpt lat="43.94485" lon="1.7917">
        <ele>276.20001220703</ele>
        <time>2020-08-13T18:06:20.000Z</time>
      </trkpt>
      <trkpt lat="43.94485" lon="1.7917">
        <ele>276.20001220703</ele>
        <time>2020-08-13T18:06:21.000Z</time>
      </trkpt>
      <trkpt lat="43.94485" lon="1.7917">
        <ele>276.20001220703</ele>
        <time>2020-08-13T18:06:22.000Z</time>
      </trkpt>
      <trkpt lat="43.94485" lon="1.7917">
        <ele>276.20001220703</ele>
        <time>2020-08-13T18:06:23.000Z</time>
      </trkpt>
      <trkpt lat="43.94485" lon="1.7917">
        <ele>276.20001220703</ele>
        <time>2020-08-13T18:06:24.000Z</time>
      </trkpt>
      <trkpt lat="43.94485" lon="1.7917">
        <ele>276.20001220703</ele>
        <time>2020-08-13T18:06:25.000Z</time>
      </trkpt>
      <trkpt lat="43.94485" lon="1.7917">
        <ele>276.39999389648</ele>
        <time>2020-08-13T18:06:26.000Z</time>
      </trkpt>
      <trkpt lat="43.94485" lon="1.7917">
        <ele>276.20001220703</ele>
        <time>2020-08-13T18:06:27.000Z</time>
      </trkpt>
      <trkpt lat="43.94484" lon="1.7917">
        <ele>276.20001220703</ele>
        <time>2020-08-13T18:06:28.000Z</time>
      </trkpt>
      <trkpt lat="43.94484" lon="1.7917">
        <ele>276.20001220703</ele>
        <time>2020-08-13T18:06:29.000Z</time>
      </trkpt>
      <trkpt lat="43.94484" lon="1.7917">
        <ele>276.20001220703</ele>
        <time>2020-08-13T18:06:30.000Z</time>
      </trkpt>
      <trkpt lat="43.94484" lon="1.7917">
        <ele>276.20001220703</ele>
        <time>2020-08-13T18:06:31.000Z</time>
      </trkpt>
      <trkpt lat="43.94484" lon="1.7917">
        <ele>276.20001220703</ele>
        <time>2020-08-13T18:06:32.000Z</time>
      </trkpt>
      <trkpt lat="43.94484" lon="1.7917">
        <ele>276.20001220703</ele>
        <time>2020-08-13T18:06:33.000Z</time>
      </trkpt>
      <trkpt lat="43.94484" lon="1.7917">
        <ele>276.39999389648</ele>
        <time>2020-08-13T18:06:34.000Z</time>
      </trkpt>
      <trkpt lat="43.94484" lon="1.7917">
        <ele>276.39999389648</ele>
        <time>2020-08-13T18:06:35.000Z</time>
      </trkpt>
      <trkpt lat="43.94484" lon="1.7917">
        <ele>276.39999389648</ele>
        <time>2020-08-13T18:06:36.000Z</time>
      </trkpt>
      <trkpt lat="43.94484" lon="1.7917">
        <ele>276.39999389648</ele>
        <time>2020-08-13T18:06:37.000Z</time>
      </trkpt>
      <trkpt lat="43.94484" lon="1.7917">
        <ele>276.20001220703</ele>
        <time>2020-08-13T18:06:38.000Z</time>
      </trkpt>
      <trkpt lat="43.94484" lon="1.7917">
        <ele>276.20001220703</ele>
        <time>2020-08-13T18:06:39.000Z</time>
      </trkpt>
      <trkpt lat="43.94484" lon="1.7917">
        <ele>276.39999389648</ele>
        <time>2020-08-13T18:06:40.000Z</time>
      </trkpt>
      <trkpt lat="43.94484" lon="1.7917">
        <ele>276.39999389648</ele>
        <time>2020-08-13T18:06:41.000Z</time>
      </trkpt>
      <trkpt lat="43.94484" lon="1.7917">
        <ele>276.39999389648</ele>
        <time>2020-08-13T18:06:42.000Z</time>
      </trkpt>
      <trkpt lat="43.94484" lon="1.7917">
        <ele>276.39999389648</ele>
        <time>2020-08-13T18:06:43.000Z</time>
      </trkpt>
      <trkpt lat="43.94484" lon="1.7917">
        <ele>276.39999389648</ele>
        <time>2020-08-13T18:06:44.000Z</time>
      </trkpt>
      <trkpt lat="43.94484" lon="1.7917">
        <ele>276.39999389648</ele>
        <time>2020-08-13T18:06:45.000Z</time>
      </trkpt>
      <trkpt lat="43.94484" lon="1.7917">
        <ele>276.39999389648</ele>
        <time>2020-08-13T18:06:46.000Z</time>
      </trkpt>
      <trkpt lat="43.94484" lon="1.7917">
        <ele>276.39999389648</ele>
        <time>2020-08-13T18:06:47.000Z</time>
      </trkpt>
      <trkpt lat="43.94484" lon="1.7917">
        <ele>276.39999389648</ele>
        <time>2020-08-13T18:06:48.000Z</time>
      </trkpt>
      <trkpt lat="43.94484" lon="1.7917">
        <ele>276.39999389648</ele>
        <time>2020-08-13T18:06:49.000Z</time>
      </trkpt>
      <trkpt lat="43.94484" lon="1.7917">
        <ele>276.39999389648</ele>
        <time>2020-08-13T18:06:50.000Z</time>
      </trkpt>
      <trkpt lat="43.94484" lon="1.7917">
        <ele>276.39999389648</ele>
        <time>2020-08-13T18:06:51.000Z</time>
      </trkpt>
      <trkpt lat="43.94484" lon="1.7917">
        <ele>276.39999389648</ele>
        <time>2020-08-13T18:06:52.000Z</time>
      </trkpt>
      <trkpt lat="43.94484" lon="1.7917">
        <ele>276.39999389648</ele>
        <time>2020-08-13T18:06:53.000Z</time>
      </trkpt>
      <trkpt lat="43.94484" lon="1.7917">
        <ele>276.39999389648</ele>
        <time>2020-08-13T18:06:54.000Z</time>
      </trkpt>
      <trkpt lat="43.94484" lon="1.7917">
        <ele>276.39999389648</ele>
        <time>2020-08-13T18:06:55.000Z</time>
      </trkpt>
      <trkpt lat="43.94484" lon="1.7917">
        <ele>276.39999389648</ele>
        <time>2020-08-13T18:06:56.000Z</time>
      </trkpt>
      <trkpt lat="43.94484" lon="1.7917">
        <ele>276.39999389648</ele>
        <time>2020-08-13T18:06:57.000Z</time>
      </trkpt>
      <trkpt lat="43.94484" lon="1.7917">
        <ele>276.20001220703</ele>
        <time>2020-08-13T18:06:58.000Z</time>
      </trkpt>
      <trkpt lat="43.94484" lon="1.7917">
        <ele>276.20001220703</ele>
        <time>2020-08-13T18:06:59.000Z</time>
      </trkpt>
      <trkpt lat="43.94484" lon="1.7917">
        <ele>276.20001220703</ele>
        <time>2020-08-13T18:07:00.000Z</time>
      </trkpt>
      <trkpt lat="43.94484" lon="1.7917">
        <ele>276.20001220703</ele>
        <time>2020-08-13T18:07:01.000Z</time>
      </trkpt>
      <trkpt lat="43.94484" lon="1.7917">
        <ele>276.20001220703</ele>
        <time>2020-08-13T18:07:02.000Z</time>
      </trkpt>
      <trkpt lat="43.94484" lon="1.7917">
        <ele>276.39999389648</ele>
        <time>2020-08-13T18:07:03.000Z</time>
      </trkpt>
      <trkpt lat="43.94484" lon="1.7917">
        <ele>276.39999389648</ele>
        <time>2020-08-13T18:07:04.000Z</time>
      </trkpt>
      <trkpt lat="43.94484" lon="1.7917">
        <ele>276.39999389648</ele>
        <time>2020-08-13T18:07:05.000Z</time>
      </trkpt>
      <trkpt lat="43.94484" lon="1.7917">
        <ele>276.20001220703</ele>
        <time>2020-08-13T18:07:06.000Z</time>
      </trkpt>
      <trkpt lat="43.94484" lon="1.7917">
        <ele>276.20001220703</ele>
        <time>2020-08-13T18:07:07.000Z</time>
      </trkpt>
      <trkpt lat="43.94484" lon="1.7917">
        <ele>276.20001220703</ele>
        <time>2020-08-13T18:07:08.000Z</time>
      </trkpt>
      <trkpt lat="43.94484" lon="1.7917">
        <ele>276.20001220703</ele>
        <time>2020-08-13T18:07:09.000Z</time>
      </trkpt>
      <trkpt lat="43.94484" lon="1.7917">
        <ele>276.39999389648</ele>
        <time>2020-08-13T18:07:10.000Z</time>
      </trkpt>
      <trkpt lat="43.94484" lon="1.7917">
        <ele>276.39999389648</ele>
        <time>2020-08-13T18:07:11.000Z</time>
      </trkpt>
      <trkpt lat="43.94484" lon="1.7917">
        <ele>276.39999389648</ele>
        <time>2020-08-13T18:07:12.000Z</time>
      </trkpt>
      <trkpt lat="43.94484" lon="1.7917">
        <ele>276.39999389648</ele>
        <time>2020-08-13T18:07:13.000Z</time>
      </trkpt>
      <trkpt lat="43.94484" lon="1.7917">
        <ele>276.39999389648</ele>
        <time>2020-08-13T18:07:14.000Z</time>
      </trkpt>
      <trkpt lat="43.94484" lon="1.7917">
        <ele>276.39999389648</ele>
        <time>2020-08-13T18:07:15.000Z</time>
      </trkpt>
      <trkpt lat="43.94484" lon="1.7917">
        <ele>276.39999389648</ele>
        <time>2020-08-13T18:07:16.000Z</time>
      </trkpt>
      <trkpt lat="43.94484" lon="1.7917">
        <ele>276.39999389648</ele>
        <time>2020-08-13T18:07:17.000Z</time>
      </trkpt>
      <trkpt lat="43.94484" lon="1.7917">
        <ele>276.20001220703</ele>
        <time>2020-08-13T18:07:18.000Z</time>
      </trkpt>
      <trkpt lat="43.94484" lon="1.7917">
        <ele>276.20001220703</ele>
        <time>2020-08-13T18:07:19.000Z</time>
      </trkpt>
      <trkpt lat="43.94484" lon="1.7917">
        <ele>276.20001220703</ele>
        <time>2020-08-13T18:07:20.000Z</time>
      </trkpt>
      <trkpt lat="43.94484" lon="1.7917">
        <ele>276.20001220703</ele>
        <time>2020-08-13T18:07:21.000Z</time>
      </trkpt>
      <trkpt lat="43.94484" lon="1.7917">
        <ele>276.20001220703</ele>
        <time>2020-08-13T18:07:22.000Z</time>
      </trkpt>
      <trkpt lat="43.94484" lon="1.7917">
        <ele>276.20001220703</ele>
        <time>2020-08-13T18:07:23.000Z</time>
      </trkpt>
      <trkpt lat="43.94484" lon="1.7917">
        <ele>276.20001220703</ele>
        <time>2020-08-13T18:07:24.000Z</time>
      </trkpt>
      <trkpt lat="43.94484" lon="1.7917">
        <ele>276.20001220703</ele>
        <time>2020-08-13T18:07:25.000Z</time>
      </trkpt>
      <trkpt lat="43.94484" lon="1.7917">
        <ele>276.20001220703</ele>
        <time>2020-08-13T18:07:26.000Z</time>
      </trkpt>
      <trkpt lat="43.94484" lon="1.7917">
        <ele>276.20001220703</ele>
        <time>2020-08-13T18:07:27.000Z</time>
      </trkpt>
      <trkpt lat="43.94484" lon="1.7917">
        <ele>276.20001220703</ele>
        <time>2020-08-13T18:07:28.000Z</time>
      </trkpt>
      <trkpt lat="43.94484" lon="1.7917">
        <ele>276.39999389648</ele>
        <time>2020-08-13T18:07:29.000Z</time>
      </trkpt>
      <trkpt lat="43.94485" lon="1.7917">
        <ele>276.39999389648</ele>
        <time>2020-08-13T18:07:30.000Z</time>
      </trkpt>
      <trkpt lat="43.94485" lon="1.79169">
        <ele>276.39999389648</ele>
        <time>2020-08-13T18:07:31.000Z</time>
      </trkpt>
      <trkpt lat="43.94486" lon="1.79169">
        <ele>276.39999389648</ele>
        <time>2020-08-13T18:07:32.000Z</time>
      </trkpt>
      <trkpt lat="43.94486" lon="1.79167">
        <ele>276.39999389648</ele>
        <time>2020-08-13T18:07:33.000Z</time>
      </trkpt>
      <trkpt lat="43.94488" lon="1.79166">
        <ele>276.20001220703</ele>
        <time>2020-08-13T18:07:34.000Z</time>
      </trkpt>
      <trkpt lat="43.94489" lon="1.79164">
        <ele>276.20001220703</ele>
        <time>2020-08-13T18:07:35.000Z</time>
      </trkpt>
      <trkpt lat="43.94491" lon="1.79163">
        <ele>276.20001220703</ele>
        <time>2020-08-13T18:07:36.000Z</time>
      </trkpt>
      <trkpt lat="43.94493" lon="1.79162">
        <ele>276.39999389648</ele>
        <time>2020-08-13T18:07:37.000Z</time>
      </trkpt>
      <trkpt lat="43.94494" lon="1.79163">
        <ele>276.60000610352</ele>
        <time>2020-08-13T18:07:38.000Z</time>
      </trkpt>
      <trkpt lat="43.94496" lon="1.79165">
        <ele>276.60000610352</ele>
        <time>2020-08-13T18:07:39.000Z</time>
      </trkpt>
      <trkpt lat="43.94498" lon="1.79166">
        <ele>276.60000610352</ele>
        <time>2020-08-13T18:07:40.000Z</time>
      </trkpt>
      <trkpt lat="43.94499" lon="1.79168">
        <ele>276.60000610352</ele>
        <time>2020-08-13T18:07:41.000Z</time>
      </trkpt>
      <trkpt lat="43.94501" lon="1.7917">
        <ele>276.60000610352</ele>
        <time>2020-08-13T18:07:42.000Z</time>
      </trkpt>
      <trkpt lat="43.94503" lon="1.79172">
        <ele>276.60000610352</ele>
        <time>2020-08-13T18:07:43.000Z</time>
      </trkpt>
      <trkpt lat="43.94504" lon="1.79174">
        <ele>276.39999389648</ele>
        <time>2020-08-13T18:07:44.000Z</time>
      </trkpt>
      <trkpt lat="43.94506" lon="1.79176">
        <ele>276.39999389648</ele>
        <time>2020-08-13T18:07:45.000Z</time>
      </trkpt>
      <trkpt lat="43.94507" lon="1.79178">
        <ele>276.60000610352</ele>
        <time>2020-08-13T18:07:46.000Z</time>
      </trkpt>
      <trkpt lat="43.94509" lon="1.7918">
        <ele>276.60000610352</ele>
        <time>2020-08-13T18:07:47.000Z</time>
      </trkpt>
      <trkpt lat="43.94511" lon="1.79182">
        <ele>276.60000610352</ele>
        <time>2020-08-13T18:07:48.000Z</time>
      </trkpt>
      <trkpt lat="43.94513" lon="1.79185">
        <ele>276.60000610352</ele>
        <time>2020-08-13T18:07:49.000Z</time>
      </trkpt>
      <trkpt lat="43.94515" lon="1.79187">
        <ele>276.60000610352</ele>
        <time>2020-08-13T18:07:50.000Z</time>
      </trkpt>
      <trkpt lat="43.94516" lon="1.79189">
        <ele>276.60000610352</ele>
        <time>2020-08-13T18:07:51.000Z</time>
      </trkpt>
      <trkpt lat="43.94518" lon="1.79192">
        <ele>276.60000610352</ele>
        <time>2020-08-13T18:07:52.000Z</time>
      </trkpt>
      <trkpt lat="43.9452" lon="1.79194">
        <ele>276.60000610352</ele>
        <time>2020-08-13T18:07:53.000Z</time>
      </trkpt>
      <trkpt lat="43.94522" lon="1.79196">
        <ele>276.79998779297</ele>
        <time>2020-08-13T18:07:54.000Z</time>
      </trkpt>
      <trkpt lat="43.94525" lon="1.79198">
        <ele>277</ele>
        <time>2020-08-13T18:07:55.000Z</time>
      </trkpt>
      <trkpt lat="43.94527" lon="1.792">
        <ele>277</ele>
        <time>2020-08-13T18:07:56.000Z</time>
      </trkpt>
      <trkpt lat="43.94529" lon="1.79202">
        <ele>277</ele>
        <time>2020-08-13T18:07:57.000Z</time>
      </trkpt>
      <trkpt lat="43.94532" lon="1.79204">
        <ele>277</ele>
        <time>2020-08-13T18:07:58.000Z</time>
      </trkpt>
      <trkpt lat="43.94534" lon="1.79207">
        <ele>277</ele>
        <time>2020-08-13T18:07:59.000Z</time>
      </trkpt>
      <trkpt lat="43.94537" lon="1.79209">
        <ele>277</ele>
        <time>2020-08-13T18:08:00.000Z</time>
      </trkpt>
      <trkpt lat="43.94539" lon="1.79212">
        <ele>277</ele>
        <time>2020-08-13T18:08:01.000Z</time>
      </trkpt>
      <trkpt lat="43.94542" lon="1.79214">
        <ele>277</ele>
        <time>2020-08-13T18:08:02.000Z</time>
      </trkpt>
      <trkpt lat="43.94545" lon="1.79216">
        <ele>277</ele>
        <time>2020-08-13T18:08:03.000Z</time>
      </trkpt>
      <trkpt lat="43.94547" lon="1.79218">
        <ele>277</ele>
        <time>2020-08-13T18:08:04.000Z</time>
      </trkpt>
      <trkpt lat="43.9455" lon="1.79221">
        <ele>277</ele>
        <time>2020-08-13T18:08:05.000Z</time>
      </trkpt>
      <trkpt lat="43.94553" lon="1.79224">
        <ele>277</ele>
        <time>2020-08-13T18:08:06.000Z</time>
      </trkpt>
      <trkpt lat="43.94556" lon="1.79226">
        <ele>277</ele>
        <time>2020-08-13T18:08:07.000Z</time>
      </trkpt>
      <trkpt lat="43.94558" lon="1.79229">
        <ele>277</ele>
        <time>2020-08-13T18:08:08.000Z</time>
      </trkpt>
      <trkpt lat="43.94561" lon="1.79232">
        <ele>277</ele>
        <time>2020-08-13T18:08:09.000Z</time>
      </trkpt>
      <trkpt lat="43.94564" lon="1.79235">
        <ele>276.79998779297</ele>
        <time>2020-08-13T18:08:10.000Z</time>
      </trkpt>
      <trkpt lat="43.94567" lon="1.79237">
        <ele>276.79998779297</ele>
        <time>2020-08-13T18:08:11.000Z</time>
      </trkpt>
      <trkpt lat="43.9457" lon="1.7924">
        <ele>276.79998779297</ele>
        <time>2020-08-13T18:08:12.000Z</time>
      </trkpt>
      <trkpt lat="43.94573" lon="1.79243">
        <ele>276.60000610352</ele>
        <time>2020-08-13T18:08:13.000Z</time>
      </trkpt>
      <trkpt lat="43.94576" lon="1.79245">
        <ele>276.60000610352</ele>
        <time>2020-08-13T18:08:14.000Z</time>
      </trkpt>
      <trkpt lat="43.9458" lon="1.79248">
        <ele>276.39999389648</ele>
        <time>2020-08-13T18:08:15.000Z</time>
      </trkpt>
      <trkpt lat="43.94583" lon="1.79251">
        <ele>276.39999389648</ele>
        <time>2020-08-13T18:08:16.000Z</time>
      </trkpt>
      <trkpt lat="43.94586" lon="1.79254">
        <ele>276.39999389648</ele>
        <time>2020-08-13T18:08:17.000Z</time>
      </trkpt>
      <trkpt lat="43.9459" lon="1.79257">
        <ele>276.20001220703</ele>
        <time>2020-08-13T18:08:18.000Z</time>
      </trkpt>
      <trkpt lat="43.94593" lon="1.79261">
        <ele>276.20001220703</ele>
        <time>2020-08-13T18:08:19.000Z</time>
      </trkpt>
      <trkpt lat="43.94596" lon="1.79264">
        <ele>276.20001220703</ele>
        <time>2020-08-13T18:08:20.000Z</time>
      </trkpt>
      <trkpt lat="43.946" lon="1.79267">
        <ele>276.20001220703</ele>
        <time>2020-08-13T18:08:21.000Z</time>
      </trkpt>
      <trkpt lat="43.94603" lon="1.7927">
        <ele>276</ele>
        <time>2020-08-13T18:08:22.000Z</time>
      </trkpt>
      <trkpt lat="43.94607" lon="1.79274">
        <ele>276</ele>
        <time>2020-08-13T18:08:23.000Z</time>
      </trkpt>
      <trkpt lat="43.94611" lon="1.79277">
        <ele>275.79998779297</ele>
        <time>2020-08-13T18:08:24.000Z</time>
      </trkpt>
      <trkpt lat="43.94614" lon="1.79281">
        <ele>275.60000610352</ele>
        <time>2020-08-13T18:08:25.000Z</time>
      </trkpt>
      <trkpt lat="43.94618" lon="1.79285">
        <ele>275.39999389648</ele>
        <time>2020-08-13T18:08:26.000Z</time>
      </trkpt>
      <trkpt lat="43.94622" lon="1.79289">
        <ele>275.39999389648</ele>
        <time>2020-08-13T18:08:27.000Z</time>
      </trkpt>
      <trkpt lat="43.94625" lon="1.79293">
        <ele>275.39999389648</ele>
        <time>2020-08-13T18:08:28.000Z</time>
      </trkpt>
      <trkpt lat="43.94629" lon="1.79298">
        <ele>275.39999389648</ele>
        <time>2020-08-13T18:08:29.000Z</time>
      </trkpt>
      <trkpt lat="43.94632" lon="1.79303">
        <ele>275.39999389648</ele>
        <time>2020-08-13T18:08:30.000Z</time>
      </trkpt>
      <trkpt lat="43.94636" lon="1.79308">
        <ele>275.20001220703</ele>
        <time>2020-08-13T18:08:31.000Z</time>
      </trkpt>
      <trkpt lat="43.94639" lon="1.79313">
        <ele>275</ele>
        <time>2020-08-13T18:08:32.000Z</time>
      </trkpt>
      <trkpt lat="43.94642" lon="1.79319">
        <ele>275</ele>
        <time>2020-08-13T18:08:33.000Z</time>
      </trkpt>
      <trkpt lat="43.94645" lon="1.79324">
        <ele>274.79998779297</ele>
        <time>2020-08-13T18:08:34.000Z</time>
      </trkpt>
      <trkpt lat="43.94648" lon="1.7933">
        <ele>274.60000610352</ele>
        <time>2020-08-13T18:08:35.000Z</time>
      </trkpt>
      <trkpt lat="43.94651" lon="1.79336">
        <ele>274.39999389648</ele>
        <time>2020-08-13T18:08:36.000Z</time>
      </trkpt>
      <trkpt lat="43.94653" lon="1.79343">
        <ele>274.39999389648</ele>
        <time>2020-08-13T18:08:37.000Z</time>
      </trkpt>
      <trkpt lat="43.94656" lon="1.79349">
        <ele>274.39999389648</ele>
        <time>2020-08-13T18:08:38.000Z</time>
      </trkpt>
      <trkpt lat="43.94658" lon="1.79355">
        <ele>274.60000610352</ele>
        <time>2020-08-13T18:08:39.000Z</time>
      </trkpt>
      <trkpt lat="43.94661" lon="1.79361">
        <ele>274.60000610352</ele>
        <time>2020-08-13T18:08:40.000Z</time>
      </trkpt>
      <trkpt lat="43.94663" lon="1.79367">
        <ele>274.60000610352</ele>
        <time>2020-08-13T18:08:41.000Z</time>
      </trkpt>
      <trkpt lat="43.94665" lon="1.79372">
        <ele>274.60000610352</ele>
        <time>2020-08-13T18:08:42.000Z</time>
      </trkpt>
      <trkpt lat="43.94666" lon="1.79378">
        <ele>274.79998779297</ele>
        <time>2020-08-13T18:08:43.000Z</time>
      </trkpt>
      <trkpt lat="43.94668" lon="1.79383">
        <ele>274.79998779297</ele>
        <time>2020-08-13T18:08:44.000Z</time>
      </trkpt>
      <trkpt lat="43.9467" lon="1.79389">
        <ele>274.79998779297</ele>
        <time>2020-08-13T18:08:45.000Z</time>
      </trkpt>
      <trkpt lat="43.94672" lon="1.79395">
        <ele>275</ele>
        <time>2020-08-13T18:08:46.000Z</time>
      </trkpt>
      <trkpt lat="43.94674" lon="1.794">
        <ele>275.20001220703</ele>
        <time>2020-08-13T18:08:47.000Z</time>
      </trkpt>
      <trkpt lat="43.94676" lon="1.79406">
        <ele>275.39999389648</ele>
        <time>2020-08-13T18:08:48.000Z</time>
      </trkpt>
      <trkpt lat="43.94678" lon="1.79411">
        <ele>275.60000610352</ele>
        <time>2020-08-13T18:08:49.000Z</time>
      </trkpt>
      <trkpt lat="43.9468" lon="1.79416">
        <ele>275.79998779297</ele>
        <time>2020-08-13T18:08:50.000Z</time>
      </trkpt>
      <trkpt lat="43.94682" lon="1.79421">
        <ele>275.79998779297</ele>
        <time>2020-08-13T18:08:51.000Z</time>
      </trkpt>
      <trkpt lat="43.94684" lon="1.79426">
        <ele>276</ele>
        <time>2020-08-13T18:08:52.000Z</time>
      </trkpt>
      <trkpt lat="43.94686" lon="1.79431">
        <ele>276.20001220703</ele>
        <time>2020-08-13T18:08:53.000Z</time>
      </trkpt>
      <trkpt lat="43.94689" lon="1.79435">
        <ele>276.20001220703</ele>
        <time>2020-08-13T18:08:54.000Z</time>
      </trkpt>
      <trkpt lat="43.94691" lon="1.7944">
        <ele>276.39999389648</ele>
        <time>2020-08-13T18:08:55.000Z</time>
      </trkpt>
      <trkpt lat="43.94692" lon="1.79444">
        <ele>276.60000610352</ele>
        <time>2020-08-13T18:08:56.000Z</time>
      </trkpt>
      <trkpt lat="43.94694" lon="1.79449">
        <ele>276.79998779297</ele>
        <time>2020-08-13T18:08:57.000Z</time>
      </trkpt>
      <trkpt lat="43.94696" lon="1.79453">
        <ele>277</ele>
        <time>2020-08-13T18:08:58.000Z</time>
      </trkpt>
      <trkpt lat="43.94698" lon="1.79457">
        <ele>277</ele>
        <time>2020-08-13T18:08:59.000Z</time>
      </trkpt>
      <trkpt lat="43.947" lon="1.79461">
        <ele>277.20001220703</ele>
        <time>2020-08-13T18:09:00.000Z</time>
      </trkpt>
      <trkpt lat="43.94702" lon="1.79465">
        <ele>277.39999389648</ele>
        <time>2020-08-13T18:09:01.000Z</time>
      </trkpt>
      <trkpt lat="43.94704" lon="1.79469">
        <ele>277.39999389648</ele>
        <time>2020-08-13T18:09:02.000Z</time>
      </trkpt>
      <trkpt lat="43.94707" lon="1.79473">
        <ele>277.79998779297</ele>
        <time>2020-08-13T18:09:03.000Z</time>
      </trkpt>
      <trkpt lat="43.94709" lon="1.79478">
        <ele>277.79998779297</ele>
        <time>2020-08-13T18:09:04.000Z</time>
      </trkpt>
      <trkpt lat="43.94712" lon="1.79482">
        <ele>278</ele>
        <time>2020-08-13T18:09:05.000Z</time>
      </trkpt>
      <trkpt lat="43.94714" lon="1.79486">
        <ele>278</ele>
        <time>2020-08-13T18:09:06.000Z</time>
      </trkpt>
      <trkpt lat="43.94717" lon="1.79491">
        <ele>278.20001220703</ele>
        <time>2020-08-13T18:09:07.000Z</time>
      </trkpt>
      <trkpt lat="43.94719" lon="1.79495">
        <ele>278.20001220703</ele>
        <time>2020-08-13T18:09:08.000Z</time>
      </trkpt>
      <trkpt lat="43.94721" lon="1.795">
        <ele>278.39999389648</ele>
        <time>2020-08-13T18:09:09.000Z</time>
      </trkpt>
      <trkpt lat="43.94724" lon="1.79504">
        <ele>278.39999389648</ele>
        <time>2020-08-13T18:09:10.000Z</time>
      </trkpt>
      <trkpt lat="43.94726" lon="1.79508">
        <ele>278.60000610352</ele>
        <time>2020-08-13T18:09:11.000Z</time>
      </trkpt>
      <trkpt lat="43.94729" lon="1.79512">
        <ele>278.60000610352</ele>
        <time>2020-08-13T18:09:12.000Z</time>
      </trkpt>
      <trkpt lat="43.94731" lon="1.79517">
        <ele>278.79998779297</ele>
        <time>2020-08-13T18:09:13.000Z</time>
      </trkpt>
      <trkpt lat="43.94733" lon="1.79521">
        <ele>278.79998779297</ele>
        <time>2020-08-13T18:09:14.000Z</time>
      </trkpt>
      <trkpt lat="43.94735" lon="1.79526">
        <ele>279</ele>
        <time>2020-08-13T18:09:15.000Z</time>
      </trkpt>
      <trkpt lat="43.94737" lon="1.7953">
        <ele>279.20001220703</ele>
        <time>2020-08-13T18:09:16.000Z</time>
      </trkpt>
      <trkpt lat="43.9474" lon="1.79534">
        <ele>279.20001220703</ele>
        <time>2020-08-13T18:09:17.000Z</time>
      </trkpt>
      <trkpt lat="43.94742" lon="1.79538">
        <ele>279.20001220703</ele>
        <time>2020-08-13T18:09:18.000Z</time>
      </trkpt>
      <trkpt lat="43.94744" lon="1.79543">
        <ele>279.39999389648</ele>
        <time>2020-08-13T18:09:19.000Z</time>
      </trkpt>
      <trkpt lat="43.94746" lon="1.79547">
        <ele>279.39999389648</ele>
        <time>2020-08-13T18:09:20.000Z</time>
      </trkpt>
      <trkpt lat="43.94749" lon="1.79551">
        <ele>279.60000610352</ele>
        <time>2020-08-13T18:09:21.000Z</time>
      </trkpt>
      <trkpt lat="43.94751" lon="1.79556">
        <ele>279.60000610352</ele>
        <time>2020-08-13T18:09:22.000Z</time>
      </trkpt>
      <trkpt lat="43.94754" lon="1.7956">
        <ele>279.79998779297</ele>
        <time>2020-08-13T18:09:23.000Z</time>
      </trkpt>
      <trkpt lat="43.94756" lon="1.79564">
        <ele>280</ele>
        <time>2020-08-13T18:09:24.000Z</time>
      </trkpt>
      <trkpt lat="43.94758" lon="1.79569">
        <ele>280.20001220703</ele>
        <time>2020-08-13T18:09:25.000Z</time>
      </trkpt>
      <trkpt lat="43.9476" lon="1.79573">
        <ele>280.20001220703</ele>
        <time>2020-08-13T18:09:26.000Z</time>
      </trkpt>
      <trkpt lat="43.94762" lon="1.79577">
        <ele>280.20001220703</ele>
        <time>2020-08-13T18:09:27.000Z</time>
      </trkpt>
      <trkpt lat="43.94764" lon="1.79582">
        <ele>280.39999389648</ele>
        <time>2020-08-13T18:09:28.000Z</time>
      </trkpt>
      <trkpt lat="43.94767" lon="1.79586">
        <ele>280.60000610352</ele>
        <time>2020-08-13T18:09:29.000Z</time>
      </trkpt>
      <trkpt lat="43.94769" lon="1.7959">
        <ele>280.60000610352</ele>
        <time>2020-08-13T18:09:30.000Z</time>
      </trkpt>
      <trkpt lat="43.94771" lon="1.79594">
        <ele>280.79998779297</ele>
        <time>2020-08-13T18:09:31.000Z</time>
      </trkpt>
      <trkpt lat="43.94773" lon="1.79598">
        <ele>280.79998779297</ele>
        <time>2020-08-13T18:09:32.000Z</time>
      </trkpt>
      <trkpt lat="43.94775" lon="1.79602">
        <ele>281</ele>
        <time>2020-08-13T18:09:33.000Z</time>
      </trkpt>
      <trkpt lat="43.94777" lon="1.79606">
        <ele>281.20001220703</ele>
        <time>2020-08-13T18:09:34.000Z</time>
      </trkpt>
      <trkpt lat="43.9478" lon="1.7961">
        <ele>281.39999389648</ele>
        <time>2020-08-13T18:09:35.000Z</time>
      </trkpt>
      <trkpt lat="43.94782" lon="1.79614">
        <ele>281.39999389648</ele>
        <time>2020-08-13T18:09:36.000Z</time>
      </trkpt>
      <trkpt lat="43.94784" lon="1.79618">
        <ele>281.39999389648</ele>
        <time>2020-08-13T18:09:37.000Z</time>
      </trkpt>
      <trkpt lat="43.94786" lon="1.79622">
        <ele>281.60000610352</ele>
        <time>2020-08-13T18:09:38.000Z</time>
      </trkpt>
      <trkpt lat="43.94788" lon="1.79626">
        <ele>281.79998779297</ele>
        <time>2020-08-13T18:09:39.000Z</time>
      </trkpt>
      <trkpt lat="43.9479" lon="1.7963">
        <ele>281.79998779297</ele>
        <time>2020-08-13T18:09:40.000Z</time>
      </trkpt>
      <trkpt lat="43.94793" lon="1.79635">
        <ele>282</ele>
        <time>2020-08-13T18:09:41.000Z</time>
      </trkpt>
      <trkpt lat="43.94795" lon="1.79638">
        <ele>282</ele>
        <time>2020-08-13T18:09:42.000Z</time>
      </trkpt>
      <trkpt lat="43.94797" lon="1.79642">
        <ele>282.20001220703</ele>
        <time>2020-08-13T18:09:43.000Z</time>
      </trkpt>
      <trkpt lat="43.94798" lon="1.79646">
        <ele>282.20001220703</ele>
        <time>2020-08-13T18:09:44.000Z</time>
      </trkpt>
      <trkpt lat="43.948" lon="1.79649">
        <ele>282.39999389648</ele>
        <time>2020-08-13T18:09:45.000Z</time>
      </trkpt>
      <trkpt lat="43.94802" lon="1.79651">
        <ele>282.39999389648</ele>
        <time>2020-08-13T18:09:46.000Z</time>
      </trkpt>
      <trkpt lat="43.94803" lon="1.79654">
        <ele>282.39999389648</ele>
        <time>2020-08-13T18:09:47.000Z</time>
      </trkpt>
      <trkpt lat="43.94806" lon="1.79657">
        <ele>282.39999389648</ele>
        <time>2020-08-13T18:09:48.000Z</time>
      </trkpt>
      <trkpt lat="43.94808" lon="1.79659">
        <ele>282.60000610352</ele>
        <time>2020-08-13T18:09:49.000Z</time>
      </trkpt>
      <trkpt lat="43.94811" lon="1.7966">
        <ele>282.60000610352</ele>
        <time>2020-08-13T18:09:50.000Z</time>
      </trkpt>
      <trkpt lat="43.94814" lon="1.79659">
        <ele>282.79998779297</ele>
        <time>2020-08-13T18:09:51.000Z</time>
      </trkpt>
      <trkpt lat="43.94816" lon="1.79656">
        <ele>283</ele>
        <time>2020-08-13T18:09:52.000Z</time>
      </trkpt>
      <trkpt lat="43.94818" lon="1.79654">
        <ele>283.20001220703</ele>
        <time>2020-08-13T18:09:53.000Z</time>
      </trkpt>
      <trkpt lat="43.94821" lon="1.79651">
        <ele>283.60000610352</ele>
        <time>2020-08-13T18:09:54.000Z</time>
      </trkpt>
      <trkpt lat="43.94823" lon="1.79648">
        <ele>283.79998779297</ele>
        <time>2020-08-13T18:09:55.000Z</time>
      </trkpt>
      <trkpt lat="43.94826" lon="1.79646">
        <ele>284</ele>
        <time>2020-08-13T18:09:56.000Z</time>
      </trkpt>
      <trkpt lat="43.94829" lon="1.79643">
        <ele>284.20001220703</ele>
        <time>2020-08-13T18:09:57.000Z</time>
      </trkpt>
      <trkpt lat="43.94832" lon="1.79641">
        <ele>284.39999389648</ele>
        <time>2020-08-13T18:09:58.000Z</time>
      </trkpt>
      <trkpt lat="43.94835" lon="1.79639">
        <ele>284.39999389648</ele>
        <time>2020-08-13T18:09:59.000Z</time>
      </trkpt>
      <trkpt lat="43.94838" lon="1.79636">
        <ele>284.60000610352</ele>
        <time>2020-08-13T18:10:00.000Z</time>
      </trkpt>
      <trkpt lat="43.94841" lon="1.79633">
        <ele>284.60000610352</ele>
        <time>2020-08-13T18:10:01.000Z</time>
      </trkpt>
      <trkpt lat="43.94844" lon="1.7963">
        <ele>284.60000610352</ele>
        <time>2020-08-13T18:10:02.000Z</time>
      </trkpt>
      <trkpt lat="43.94847" lon="1.79628">
        <ele>284.79998779297</ele>
        <time>2020-08-13T18:10:03.000Z</time>
      </trkpt>
      <trkpt lat="43.9485" lon="1.79626">
        <ele>285</ele>
        <time>2020-08-13T18:10:04.000Z</time>
      </trkpt>
      <trkpt lat="43.94853" lon="1.79623">
        <ele>285.20001220703</ele>
        <time>2020-08-13T18:10:05.000Z</time>
      </trkpt>
      <trkpt lat="43.94856" lon="1.79621">
        <ele>285.20001220703</ele>
        <time>2020-08-13T18:10:06.000Z</time>
      </trkpt>
      <trkpt lat="43.94859" lon="1.79619">
        <ele>285.39999389648</ele>
        <time>2020-08-13T18:10:07.000Z</time>
      </trkpt>
      <trkpt lat="43.94861" lon="1.79616">
        <ele>285.39999389648</ele>
        <time>2020-08-13T18:10:08.000Z</time>
      </trkpt>
      <trkpt lat="43.94864" lon="1.79614">
        <ele>285.60000610352</ele>
        <time>2020-08-13T18:10:09.000Z</time>
      </trkpt>
      <trkpt lat="43.94867" lon="1.79611">
        <ele>285.39999389648</ele>
        <time>2020-08-13T18:10:10.000Z</time>
      </trkpt>
      <trkpt lat="43.9487" lon="1.79609">
        <ele>285.79998779297</ele>
        <time>2020-08-13T18:10:11.000Z</time>
      </trkpt>
      <trkpt lat="43.94872" lon="1.79607">
        <ele>285.79998779297</ele>
        <time>2020-08-13T18:10:12.000Z</time>
      </trkpt>
      <trkpt lat="43.94875" lon="1.79604">
        <ele>286</ele>
        <time>2020-08-13T18:10:13.000Z</time>
      </trkpt>
      <trkpt lat="43.94878" lon="1.79601">
        <ele>286</ele>
        <time>2020-08-13T18:10:14.000Z</time>
      </trkpt>
      <trkpt lat="43.94881" lon="1.79599">
        <ele>286.39999389648</ele>
        <time>2020-08-13T18:10:15.000Z</time>
      </trkpt>
      <trkpt lat="43.94884" lon="1.79597">
        <ele>286.20001220703</ele>
        <time>2020-08-13T18:10:16.000Z</time>
      </trkpt>
      <trkpt lat="43.94887" lon="1.79595">
        <ele>286.39999389648</ele>
        <time>2020-08-13T18:10:17.000Z</time>
      </trkpt>
      <trkpt lat="43.9489" lon="1.79592">
        <ele>286.39999389648</ele>
        <time>2020-08-13T18:10:18.000Z</time>
      </trkpt>
      <trkpt lat="43.94894" lon="1.79589">
        <ele>286.60000610352</ele>
        <time>2020-08-13T18:10:19.000Z</time>
      </trkpt>
      <trkpt lat="43.94897" lon="1.79587">
        <ele>286.60000610352</ele>
        <time>2020-08-13T18:10:20.000Z</time>
      </trkpt>
      <trkpt lat="43.949" lon="1.79584">
        <ele>286.60000610352</ele>
        <time>2020-08-13T18:10:21.000Z</time>
      </trkpt>
      <trkpt lat="43.94903" lon="1.79582">
        <ele>286.39999389648</ele>
        <time>2020-08-13T18:10:22.000Z</time>
      </trkpt>
      <trkpt lat="43.94906" lon="1.7958">
        <ele>286.60000610352</ele>
        <time>2020-08-13T18:10:23.000Z</time>
      </trkpt>
      <trkpt lat="43.9491" lon="1.79577">
        <ele>286.39999389648</ele>
        <time>2020-08-13T18:10:24.000Z</time>
      </trkpt>
      <trkpt lat="43.94913" lon="1.79574">
        <ele>286.39999389648</ele>
        <time>2020-08-13T18:10:25.000Z</time>
      </trkpt>
      <trkpt lat="43.94917" lon="1.79572">
        <ele>286.60000610352</ele>
        <time>2020-08-13T18:10:26.000Z</time>
      </trkpt>
      <trkpt lat="43.9492" lon="1.79569">
        <ele>286.60000610352</ele>
        <time>2020-08-13T18:10:27.000Z</time>
      </trkpt>
      <trkpt lat="43.94924" lon="1.79566">
        <ele>286.60000610352</ele>
        <time>2020-08-13T18:10:28.000Z</time>
      </trkpt>
      <trkpt lat="43.94927" lon="1.79563">
        <ele>286.39999389648</ele>
        <time>2020-08-13T18:10:29.000Z</time>
      </trkpt>
      <trkpt lat="43.94931" lon="1.7956">
        <ele>286.39999389648</ele>
        <time>2020-08-13T18:10:30.000Z</time>
      </trkpt>
      <trkpt lat="43.94934" lon="1.79556">
        <ele>286.60000610352</ele>
        <time>2020-08-13T18:10:31.000Z</time>
      </trkpt>
      <trkpt lat="43.94937" lon="1.79552">
        <ele>286</ele>
        <time>2020-08-13T18:10:32.000Z</time>
      </trkpt>
      <trkpt lat="43.94941" lon="1.79549">
        <ele>286</ele>
        <time>2020-08-13T18:10:33.000Z</time>
      </trkpt>
      <trkpt lat="43.94944" lon="1.79544">
        <ele>285.60000610352</ele>
        <time>2020-08-13T18:10:34.000Z</time>
      </trkpt>
      <trkpt lat="43.94947" lon="1.7954">
        <ele>285.60000610352</ele>
        <time>2020-08-13T18:10:35.000Z</time>
      </trkpt>
      <trkpt lat="43.9495" lon="1.79535">
        <ele>285.39999389648</ele>
        <time>2020-08-13T18:10:36.000Z</time>
      </trkpt>
      <trkpt lat="43.94953" lon="1.7953">
        <ele>285.20001220703</ele>
        <time>2020-08-13T18:10:37.000Z</time>
      </trkpt>
      <trkpt lat="43.94957" lon="1.79525">
        <ele>285</ele>
        <time>2020-08-13T18:10:38.000Z</time>
      </trkpt>
      <trkpt lat="43.94959" lon="1.7952">
        <ele>284.79998779297</ele>
        <time>2020-08-13T18:10:39.000Z</time>
      </trkpt>
      <trkpt lat="43.94962" lon="1.79515">
        <ele>284.79998779297</ele>
        <time>2020-08-13T18:10:40.000Z</time>
      </trkpt>
      <trkpt lat="43.94965" lon="1.79509">
        <ele>284.60000610352</ele>
        <time>2020-08-13T18:10:41.000Z</time>
      </trkpt>
      <trkpt lat="43.94968" lon="1.79504">
        <ele>284.39999389648</ele>
        <time>2020-08-13T18:10:42.000Z</time>
      </trkpt>
      <trkpt lat="43.94971" lon="1.79499">
        <ele>284.39999389648</ele>
        <time>2020-08-13T18:10:43.000Z</time>
      </trkpt>
      <trkpt lat="43.94974" lon="1.79493">
        <ele>284</ele>
        <time>2020-08-13T18:10:44.000Z</time>
      </trkpt>
      <trkpt lat="43.94977" lon="1.79487">
        <ele>284</ele>
        <time>2020-08-13T18:10:45.000Z</time>
      </trkpt>
      <trkpt lat="43.9498" lon="1.79482">
        <ele>284</ele>
        <time>2020-08-13T18:10:46.000Z</time>
      </trkpt>
      <trkpt lat="43.94983" lon="1.79476">
        <ele>284</ele>
        <time>2020-08-13T18:10:47.000Z</time>
      </trkpt>
      <trkpt lat="43.94987" lon="1.79471">
        <ele>284.20001220703</ele>
        <time>2020-08-13T18:10:48.000Z</time>
      </trkpt>
      <trkpt lat="43.9499" lon="1.79465">
        <ele>284</ele>
        <time>2020-08-13T18:10:49.000Z</time>
      </trkpt>
      <trkpt lat="43.94993" lon="1.79459">
        <ele>284</ele>
        <time>2020-08-13T18:10:50.000Z</time>
      </trkpt>
      <trkpt lat="43.94996" lon="1.79454">
        <ele>284</ele>
        <time>2020-08-13T18:10:51.000Z</time>
      </trkpt>
      <trkpt lat="43.94999" lon="1.79448">
        <ele>283.79998779297</ele>
        <time>2020-08-13T18:10:52.000Z</time>
      </trkpt>
      <trkpt lat="43.95003" lon="1.79442">
        <ele>283.39999389648</ele>
        <time>2020-08-13T18:10:53.000Z</time>
      </trkpt>
      <trkpt lat="43.95006" lon="1.79436">
        <ele>283.20001220703</ele>
        <time>2020-08-13T18:10:54.000Z</time>
      </trkpt>
      <trkpt lat="43.9501" lon="1.7943">
        <ele>283.20001220703</ele>
        <time>2020-08-13T18:10:55.000Z</time>
      </trkpt>
      <trkpt lat="43.95013" lon="1.79424">
        <ele>283</ele>
        <time>2020-08-13T18:10:56.000Z</time>
      </trkpt>
      <trkpt lat="43.95016" lon="1.79418">
        <ele>282.79998779297</ele>
        <time>2020-08-13T18:10:57.000Z</time>
      </trkpt>
      <trkpt lat="43.9502" lon="1.79412">
        <ele>282.60000610352</ele>
        <time>2020-08-13T18:10:58.000Z</time>
      </trkpt>
      <trkpt lat="43.95023" lon="1.79406">
        <ele>282.39999389648</ele>
        <time>2020-08-13T18:10:59.000Z</time>
      </trkpt>
      <trkpt lat="43.95027" lon="1.794">
        <ele>282.20001220703</ele>
        <time>2020-08-13T18:11:00.000Z</time>
      </trkpt>
      <trkpt lat="43.9503" lon="1.79394">
        <ele>282</ele>
        <time>2020-08-13T18:11:01.000Z</time>
      </trkpt>
      <trkpt lat="43.95033" lon="1.79387">
        <ele>282</ele>
        <time>2020-08-13T18:11:02.000Z</time>
      </trkpt>
      <trkpt lat="43.95036" lon="1.7938">
        <ele>281.60000610352</ele>
        <time>2020-08-13T18:11:03.000Z</time>
      </trkpt>
      <trkpt lat="43.9504" lon="1.79373">
        <ele>281.20001220703</ele>
        <time>2020-08-13T18:11:04.000Z</time>
      </trkpt>
      <trkpt lat="43.95043" lon="1.79366">
        <ele>281.20001220703</ele>
        <time>2020-08-13T18:11:05.000Z</time>
      </trkpt>
      <trkpt lat="43.95045" lon="1.79359">
        <ele>280.79998779297</ele>
        <time>2020-08-13T18:11:06.000Z</time>
      </trkpt>
      <trkpt lat="43.95047" lon="1.79351">
        <ele>280.79998779297</ele>
        <time>2020-08-13T18:11:07.000Z</time>
      </trkpt>
      <trkpt lat="43.95049" lon="1.79344">
        <ele>280.39999389648</ele>
        <time>2020-08-13T18:11:08.000Z</time>
      </trkpt>
      <trkpt lat="43.9505" lon="1.79336">
        <ele>280.39999389648</ele>
        <time>2020-08-13T18:11:09.000Z</time>
      </trkpt>
      <trkpt lat="43.95052" lon="1.79329">
        <ele>280.20001220703</ele>
        <time>2020-08-13T18:11:10.000Z</time>
      </trkpt>
      <trkpt lat="43.95054" lon="1.79323">
        <ele>280.20001220703</ele>
        <time>2020-08-13T18:11:11.000Z</time>
      </trkpt>
      <trkpt lat="43.95056" lon="1.79315">
        <ele>280.39999389648</ele>
        <time>2020-08-13T18:11:12.000Z</time>
      </trkpt>
      <trkpt lat="43.95058" lon="1.79308">
        <ele>280.20001220703</ele>
        <time>2020-08-13T18:11:13.000Z</time>
      </trkpt>
      <trkpt lat="43.95059" lon="1.79301">
        <ele>280.20001220703</ele>
        <time>2020-08-13T18:11:14.000Z</time>
      </trkpt>
      <trkpt lat="43.95061" lon="1.79294">
        <ele>280</ele>
        <time>2020-08-13T18:11:15.000Z</time>
      </trkpt>
      <trkpt lat="43.95063" lon="1.79286">
        <ele>279.79998779297</ele>
        <time>2020-08-13T18:11:16.000Z</time>
      </trkpt>
      <trkpt lat="43.95065" lon="1.79279">
        <ele>279.79998779297</ele>
        <time>2020-08-13T18:11:17.000Z</time>
      </trkpt>
      <trkpt lat="43.95068" lon="1.79272">
        <ele>279.79998779297</ele>
        <time>2020-08-13T18:11:18.000Z</time>
      </trkpt>
      <trkpt lat="43.9507" lon="1.79265">
        <ele>279.79998779297</ele>
        <time>2020-08-13T18:11:19.000Z</time>
      </trkpt>
      <trkpt lat="43.95073" lon="1.79258">
        <ele>279.79998779297</ele>
        <time>2020-08-13T18:11:20.000Z</time>
      </trkpt>
      <trkpt lat="43.95075" lon="1.79251">
        <ele>279.60000610352</ele>
        <time>2020-08-13T18:11:21.000Z</time>
      </trkpt>
      <trkpt lat="43.95078" lon="1.79244">
        <ele>279.60000610352</ele>
        <time>2020-08-13T18:11:22.000Z</time>
      </trkpt>
      <trkpt lat="43.95081" lon="1.79238">
        <ele>279.60000610352</ele>
        <time>2020-08-13T18:11:23.000Z</time>
      </trkpt>
      <trkpt lat="43.95084" lon="1.79232">
        <ele>280</ele>
        <time>2020-08-13T18:11:24.000Z</time>
      </trkpt>
      <trkpt lat="43.95087" lon="1.79225">
        <ele>280</ele>
        <time>2020-08-13T18:11:25.000Z</time>
      </trkpt>
      <trkpt lat="43.9509" lon="1.79218">
        <ele>279.79998779297</ele>
        <time>2020-08-13T18:11:26.000Z</time>
      </trkpt>
      <trkpt lat="43.95093" lon="1.79212">
        <ele>279.39999389648</ele>
        <time>2020-08-13T18:11:27.000Z</time>
      </trkpt>
      <trkpt lat="43.95096" lon="1.79206">
        <ele>279.20001220703</ele>
        <time>2020-08-13T18:11:28.000Z</time>
      </trkpt>
      <trkpt lat="43.95099" lon="1.79199">
        <ele>279</ele>
        <time>2020-08-13T18:11:29.000Z</time>
      </trkpt>
      <trkpt lat="43.95101" lon="1.79193">
        <ele>279.20001220703</ele>
        <time>2020-08-13T18:11:30.000Z</time>
      </trkpt>
      <trkpt lat="43.95104" lon="1.79186">
        <ele>279.20001220703</ele>
        <time>2020-08-13T18:11:31.000Z</time>
      </trkpt>
      <trkpt lat="43.95107" lon="1.7918">
        <ele>279</ele>
        <time>2020-08-13T18:11:32.000Z</time>
      </trkpt>
      <trkpt lat="43.9511" lon="1.79174">
        <ele>279</ele>
        <time>2020-08-13T18:11:33.000Z</time>
      </trkpt>
      <trkpt lat="43.95112" lon="1.79167">
        <ele>278.79998779297</ele>
        <time>2020-08-13T18:11:34.000Z</time>
      </trkpt>
      <trkpt lat="43.95114" lon="1.79162">
        <ele>279</ele>
        <time>2020-08-13T18:11:35.000Z</time>
      </trkpt>
      <trkpt lat="43.95117" lon="1.79156">
        <ele>279.20001220703</ele>
        <time>2020-08-13T18:11:36.000Z</time>
      </trkpt>
      <trkpt lat="43.95119" lon="1.7915">
        <ele>279.20001220703</ele>
        <time>2020-08-13T18:11:37.000Z</time>
      </trkpt>
      <trkpt lat="43.95121" lon="1.79144">
        <ele>279.20001220703</ele>
        <time>2020-08-13T18:11:38.000Z</time>
      </trkpt>
      <trkpt lat="43.95124" lon="1.79139">
        <ele>279.20001220703</ele>
        <time>2020-08-13T18:11:39.000Z</time>
      </trkpt>
      <trkpt lat="43.95126" lon="1.79133">
        <ele>279.39999389648</ele>
        <time>2020-08-13T18:11:40.000Z</time>
      </trkpt>
      <trkpt lat="43.95128" lon="1.79126">
        <ele>279.20001220703</ele>
        <time>2020-08-13T18:11:41.000Z</time>
      </trkpt>
      <trkpt lat="43.95131" lon="1.7912">
        <ele>279.20001220703</ele>
        <time>2020-08-13T18:11:42.000Z</time>
      </trkpt>
      <trkpt lat="43.95133" lon="1.79113">
        <ele>279</ele>
        <time>2020-08-13T18:11:43.000Z</time>
      </trkpt>
      <trkpt lat="43.95136" lon="1.79107">
        <ele>279.20001220703</ele>
        <time>2020-08-13T18:11:44.000Z</time>
      </trkpt>
      <trkpt lat="43.95139" lon="1.791">
        <ele>279.20001220703</ele>
        <time>2020-08-13T18:11:45.000Z</time>
      </trkpt>
      <trkpt lat="43.95142" lon="1.79094">
        <ele>279</ele>
        <time>2020-08-13T18:11:46.000Z</time>
      </trkpt>
      <trkpt lat="43.95144" lon="1.79088">
        <ele>278.79998779297</ele>
        <time>2020-08-13T18:11:47.000Z</time>
      </trkpt>
      <trkpt lat="43.95147" lon="1.79081">
        <ele>279</ele>
        <time>2020-08-13T18:11:48.000Z</time>
      </trkpt>
      <trkpt lat="43.95149" lon="1.79076">
        <ele>279.20001220703</ele>
        <time>2020-08-13T18:11:49.000Z</time>
      </trkpt>
      <trkpt lat="43.95151" lon="1.7907">
        <ele>279.39999389648</ele>
        <time>2020-08-13T18:11:50.000Z</time>
      </trkpt>
      <trkpt lat="43.95153" lon="1.79065">
        <ele>279.39999389648</ele>
        <time>2020-08-13T18:11:51.000Z</time>
      </trkpt>
      <trkpt lat="43.95156" lon="1.7906">
        <ele>279.60000610352</ele>
        <time>2020-08-13T18:11:52.000Z</time>
      </trkpt>
      <trkpt lat="43.95158" lon="1.79053">
        <ele>279.79998779297</ele>
        <time>2020-08-13T18:11:53.000Z</time>
      </trkpt>
      <trkpt lat="43.95161" lon="1.79048">
        <ele>280</ele>
        <time>2020-08-13T18:11:54.000Z</time>
      </trkpt>
      <trkpt lat="43.95164" lon="1.79043">
        <ele>280</ele>
        <time>2020-08-13T18:11:55.000Z</time>
      </trkpt>
      <trkpt lat="43.95167" lon="1.79037">
        <ele>280</ele>
        <time>2020-08-13T18:11:56.000Z</time>
      </trkpt>
      <trkpt lat="43.9517" lon="1.79031">
        <ele>279.79998779297</ele>
        <time>2020-08-13T18:11:57.000Z</time>
      </trkpt>
      <trkpt lat="43.95172" lon="1.79025">
        <ele>280</ele>
        <time>2020-08-13T18:11:58.000Z</time>
      </trkpt>
      <trkpt lat="43.95174" lon="1.79019">
        <ele>279.79998779297</ele>
        <time>2020-08-13T18:11:59.000Z</time>
      </trkpt>
      <trkpt lat="43.95177" lon="1.79013">
        <ele>280</ele>
        <time>2020-08-13T18:12:00.000Z</time>
      </trkpt>
      <trkpt lat="43.95179" lon="1.79008">
        <ele>279.79998779297</ele>
        <time>2020-08-13T18:12:01.000Z</time>
      </trkpt>
      <trkpt lat="43.95183" lon="1.79003">
        <ele>280</ele>
        <time>2020-08-13T18:12:02.000Z</time>
      </trkpt>
      <trkpt lat="43.95186" lon="1.78997">
        <ele>279.79998779297</ele>
        <time>2020-08-13T18:12:03.000Z</time>
      </trkpt>
      <trkpt lat="43.95189" lon="1.78992">
        <ele>280</ele>
        <time>2020-08-13T18:12:04.000Z</time>
      </trkpt>
      <trkpt lat="43.95192" lon="1.78986">
        <ele>280</ele>
        <time>2020-08-13T18:12:05.000Z</time>
      </trkpt>
      <trkpt lat="43.95195" lon="1.78981">
        <ele>280</ele>
        <time>2020-08-13T18:12:06.000Z</time>
      </trkpt>
      <trkpt lat="43.95198" lon="1.78976">
        <ele>280</ele>
        <time>2020-08-13T18:12:07.000Z</time>
      </trkpt>
      <trkpt lat="43.95201" lon="1.78971">
        <ele>280.20001220703</ele>
        <time>2020-08-13T18:12:08.000Z</time>
      </trkpt>
      <trkpt lat="43.95204" lon="1.78965">
        <ele>280</ele>
        <time>2020-08-13T18:12:09.000Z</time>
      </trkpt>
      <trkpt lat="43.95207" lon="1.78959">
        <ele>279.79998779297</ele>
        <time>2020-08-13T18:12:10.000Z</time>
      </trkpt>
      <trkpt lat="43.9521" lon="1.78953">
        <ele>279.79998779297</ele>
        <time>2020-08-13T18:12:11.000Z</time>
      </trkpt>
      <trkpt lat="43.95213" lon="1.78946">
        <ele>279.60000610352</ele>
        <time>2020-08-13T18:12:12.000Z</time>
      </trkpt>
      <trkpt lat="43.95216" lon="1.78939">
        <ele>279.39999389648</ele>
        <time>2020-08-13T18:12:13.000Z</time>
      </trkpt>
      <trkpt lat="43.95219" lon="1.78932">
        <ele>278.79998779297</ele>
        <time>2020-08-13T18:12:14.000Z</time>
      </trkpt>
      <trkpt lat="43.95222" lon="1.78925">
        <ele>278.60000610352</ele>
        <time>2020-08-13T18:12:15.000Z</time>
      </trkpt>
      <trkpt lat="43.95225" lon="1.78918">
        <ele>278.79998779297</ele>
        <time>2020-08-13T18:12:16.000Z</time>
      </trkpt>
      <trkpt lat="43.95228" lon="1.78912">
        <ele>278.79998779297</ele>
        <time>2020-08-13T18:12:17.000Z</time>
      </trkpt>
      <trkpt lat="43.95231" lon="1.78905">
        <ele>278.60000610352</ele>
        <time>2020-08-13T18:12:18.000Z</time>
      </trkpt>
      <trkpt lat="43.95234" lon="1.78899">
        <ele>278.79998779297</ele>
        <time>2020-08-13T18:12:19.000Z</time>
      </trkpt>
      <trkpt lat="43.95237" lon="1.78893">
        <ele>278.60000610352</ele>
        <time>2020-08-13T18:12:20.000Z</time>
      </trkpt>
      <trkpt lat="43.9524" lon="1.78887">
        <ele>278.60000610352</ele>
        <time>2020-08-13T18:12:21.000Z</time>
      </trkpt>
      <trkpt lat="43.95243" lon="1.78881">
        <ele>278.60000610352</ele>
        <time>2020-08-13T18:12:22.000Z</time>
      </trkpt>
      <trkpt lat="43.95246" lon="1.78875">
        <ele>278.60000610352</ele>
        <time>2020-08-13T18:12:23.000Z</time>
      </trkpt>
      <trkpt lat="43.95249" lon="1.78869">
        <ele>278.39999389648</ele>
        <time>2020-08-13T18:12:24.000Z</time>
      </trkpt>
      <trkpt lat="43.95252" lon="1.78863">
        <ele>278.39999389648</ele>
        <time>2020-08-13T18:12:25.000Z</time>
      </trkpt>
      <trkpt lat="43.95255" lon="1.78856">
        <ele>278.20001220703</ele>
        <time>2020-08-13T18:12:26.000Z</time>
      </trkpt>
      <trkpt lat="43.95258" lon="1.7885">
        <ele>278.39999389648</ele>
        <time>2020-08-13T18:12:27.000Z</time>
      </trkpt>
      <trkpt lat="43.95261" lon="1.78843">
        <ele>278.39999389648</ele>
        <time>2020-08-13T18:12:28.000Z</time>
      </trkpt>
      <trkpt lat="43.95265" lon="1.78837">
        <ele>278.60000610352</ele>
        <time>2020-08-13T18:12:29.000Z</time>
      </trkpt>
      <trkpt lat="43.95268" lon="1.78831">
        <ele>278.60000610352</ele>
        <time>2020-08-13T18:12:30.000Z</time>
      </trkpt>
      <trkpt lat="43.95271" lon="1.78825">
        <ele>278.60000610352</ele>
        <time>2020-08-13T18:12:31.000Z</time>
      </trkpt>
      <trkpt lat="43.95274" lon="1.78819">
        <ele>278.60000610352</ele>
        <time>2020-08-13T18:12:32.000Z</time>
      </trkpt>
      <trkpt lat="43.95277" lon="1.78812">
        <ele>278.60000610352</ele>
        <time>2020-08-13T18:12:33.000Z</time>
      </trkpt>
      <trkpt lat="43.9528" lon="1.78806">
        <ele>278.39999389648</ele>
        <time>2020-08-13T18:12:34.000Z</time>
      </trkpt>
      <trkpt lat="43.95282" lon="1.788">
        <ele>278.39999389648</ele>
        <time>2020-08-13T18:12:35.000Z</time>
      </trkpt>
      <trkpt lat="43.95285" lon="1.78793">
        <ele>278.39999389648</ele>
        <time>2020-08-13T18:12:36.000Z</time>
      </trkpt>
      <trkpt lat="43.95288" lon="1.78788">
        <ele>278.60000610352</ele>
        <time>2020-08-13T18:12:37.000Z</time>
      </trkpt>
      <trkpt lat="43.95292" lon="1.78782">
        <ele>278.60000610352</ele>
        <time>2020-08-13T18:12:38.000Z</time>
      </trkpt>
      <trkpt lat="43.95294" lon="1.78776">
        <ele>278.79998779297</ele>
        <time>2020-08-13T18:12:39.000Z</time>
      </trkpt>
      <trkpt lat="43.95297" lon="1.7877">
        <ele>278.79998779297</ele>
        <time>2020-08-13T18:12:40.000Z</time>
      </trkpt>
      <trkpt lat="43.953" lon="1.78764">
        <ele>279</ele>
        <time>2020-08-13T18:12:41.000Z</time>
      </trkpt>
      <trkpt lat="43.95303" lon="1.78758">
        <ele>278.79998779297</ele>
        <time>2020-08-13T18:12:42.000Z</time>
      </trkpt>
      <trkpt lat="43.95306" lon="1.78753">
        <ele>279</ele>
        <time>2020-08-13T18:12:43.000Z</time>
      </trkpt>
      <trkpt lat="43.95309" lon="1.78747">
        <ele>278.79998779297</ele>
        <time>2020-08-13T18:12:44.000Z</time>
      </trkpt>
      <trkpt lat="43.95312" lon="1.78742">
        <ele>279</ele>
        <time>2020-08-13T18:12:45.000Z</time>
      </trkpt>
      <trkpt lat="43.95315" lon="1.78736">
        <ele>279</ele>
        <time>2020-08-13T18:12:46.000Z</time>
      </trkpt>
      <trkpt lat="43.95317" lon="1.7873">
        <ele>279.20001220703</ele>
        <time>2020-08-13T18:12:47.000Z</time>
      </trkpt>
      <trkpt lat="43.95321" lon="1.78725">
        <ele>279.20001220703</ele>
        <time>2020-08-13T18:12:48.000Z</time>
      </trkpt>
      <trkpt lat="43.95324" lon="1.78719">
        <ele>279.39999389648</ele>
        <time>2020-08-13T18:12:49.000Z</time>
      </trkpt>
      <trkpt lat="43.95326" lon="1.78714">
        <ele>279.39999389648</ele>
        <time>2020-08-13T18:12:50.000Z</time>
      </trkpt>
      <trkpt lat="43.95329" lon="1.78708">
        <ele>279.39999389648</ele>
        <time>2020-08-13T18:12:51.000Z</time>
      </trkpt>
      <trkpt lat="43.95332" lon="1.78703">
        <ele>279.79998779297</ele>
        <time>2020-08-13T18:12:52.000Z</time>
      </trkpt>
      <trkpt lat="43.95334" lon="1.78697">
        <ele>280</ele>
        <time>2020-08-13T18:12:53.000Z</time>
      </trkpt>
      <trkpt lat="43.95337" lon="1.78692">
        <ele>280</ele>
        <time>2020-08-13T18:12:54.000Z</time>
      </trkpt>
      <trkpt lat="43.95339" lon="1.78687">
        <ele>280</ele>
        <time>2020-08-13T18:12:55.000Z</time>
      </trkpt>
      <trkpt lat="43.95342" lon="1.78682">
        <ele>279.79998779297</ele>
        <time>2020-08-13T18:12:56.000Z</time>
      </trkpt>
      <trkpt lat="43.95345" lon="1.78676">
        <ele>280</ele>
        <time>2020-08-13T18:12:57.000Z</time>
      </trkpt>
      <trkpt lat="43.95347" lon="1.7867">
        <ele>280</ele>
        <time>2020-08-13T18:12:58.000Z</time>
      </trkpt>
      <trkpt lat="43.95348" lon="1.78664">
        <ele>280.39999389648</ele>
        <time>2020-08-13T18:12:59.000Z</time>
      </trkpt>
      <trkpt lat="43.95349" lon="1.78659">
        <ele>280.60000610352</ele>
        <time>2020-08-13T18:13:00.000Z</time>
      </trkpt>
      <trkpt lat="43.9535" lon="1.78653">
        <ele>280.60000610352</ele>
        <time>2020-08-13T18:13:01.000Z</time>
      </trkpt>
      <trkpt lat="43.95351" lon="1.78647">
        <ele>280.60000610352</ele>
        <time>2020-08-13T18:13:02.000Z</time>
      </trkpt>
      <trkpt lat="43.95352" lon="1.78642">
        <ele>280.79998779297</ele>
        <time>2020-08-13T18:13:03.000Z</time>
      </trkpt>
      <trkpt lat="43.95353" lon="1.78636">
        <ele>280.79998779297</ele>
        <time>2020-08-13T18:13:04.000Z</time>
      </trkpt>
      <trkpt lat="43.95354" lon="1.78631">
        <ele>280.79998779297</ele>
        <time>2020-08-13T18:13:05.000Z</time>
      </trkpt>
      <trkpt lat="43.95355" lon="1.78625">
        <ele>280.79998779297</ele>
        <time>2020-08-13T18:13:06.000Z</time>
      </trkpt>
      <trkpt lat="43.95356" lon="1.7862">
        <ele>281</ele>
        <time>2020-08-13T18:13:07.000Z</time>
      </trkpt>
      <trkpt lat="43.95357" lon="1.78616">
        <ele>281.20001220703</ele>
        <time>2020-08-13T18:13:08.000Z</time>
      </trkpt>
      <trkpt lat="43.95358" lon="1.78612">
        <ele>281.39999389648</ele>
        <time>2020-08-13T18:13:09.000Z</time>
      </trkpt>
      <trkpt lat="43.95358" lon="1.78609">
        <ele>281.39999389648</ele>
        <time>2020-08-13T18:13:10.000Z</time>
      </trkpt>
      <trkpt lat="43.95359" lon="1.78605">
        <ele>281.60000610352</ele>
        <time>2020-08-13T18:13:11.000Z</time>
      </trkpt>
      <trkpt lat="43.9536" lon="1.78602">
        <ele>281.60000610352</ele>
        <time>2020-08-13T18:13:12.000Z</time>
      </trkpt>
      <trkpt lat="43.9536" lon="1.78598">
        <ele>281.60000610352</ele>
        <time>2020-08-13T18:13:13.000Z</time>
      </trkpt>
      <trkpt lat="43.95361" lon="1.78595">
        <ele>281.60000610352</ele>
        <time>2020-08-13T18:13:14.000Z</time>
      </trkpt>
      <trkpt lat="43.95361" lon="1.7859">
        <ele>281.60000610352</ele>
        <time>2020-08-13T18:13:15.000Z</time>
      </trkpt>
      <trkpt lat="43.95362" lon="1.78586">
        <ele>281.79998779297</ele>
        <time>2020-08-13T18:13:16.000Z</time>
      </trkpt>
      <trkpt lat="43.95362" lon="1.78583">
        <ele>281.60000610352</ele>
        <time>2020-08-13T18:13:17.000Z</time>
      </trkpt>
      <trkpt lat="43.95364" lon="1.78579">
        <ele>281.79998779297</ele>
        <time>2020-08-13T18:13:18.000Z</time>
      </trkpt>
      <trkpt lat="43.95365" lon="1.78576">
        <ele>282</ele>
        <time>2020-08-13T18:13:19.000Z</time>
      </trkpt>
      <trkpt lat="43.95367" lon="1.78573">
        <ele>282</ele>
        <time>2020-08-13T18:13:20.000Z</time>
      </trkpt>
      <trkpt lat="43.95369" lon="1.7857">
        <ele>282.20001220703</ele>
        <time>2020-08-13T18:13:21.000Z</time>
      </trkpt>
      <trkpt lat="43.9537" lon="1.78566">
        <ele>282.20001220703</ele>
        <time>2020-08-13T18:13:22.000Z</time>
      </trkpt>
      <trkpt lat="43.95371" lon="1.78562">
        <ele>282.20001220703</ele>
        <time>2020-08-13T18:13:23.000Z</time>
      </trkpt>
      <trkpt lat="43.95373" lon="1.78557">
        <ele>282.20001220703</ele>
        <time>2020-08-13T18:13:24.000Z</time>
      </trkpt>
      <trkpt lat="43.95374" lon="1.78553">
        <ele>282.39999389648</ele>
        <time>2020-08-13T18:13:25.000Z</time>
      </trkpt>
      <trkpt lat="43.95376" lon="1.78548">
        <ele>282.39999389648</ele>
        <time>2020-08-13T18:13:26.000Z</time>
      </trkpt>
      <trkpt lat="43.95378" lon="1.78543">
        <ele>282.79998779297</ele>
        <time>2020-08-13T18:13:27.000Z</time>
      </trkpt>
      <trkpt lat="43.95379" lon="1.78538">
        <ele>282.79998779297</ele>
        <time>2020-08-13T18:13:28.000Z</time>
      </trkpt>
      <trkpt lat="43.95381" lon="1.78533">
        <ele>282.79998779297</ele>
        <time>2020-08-13T18:13:29.000Z</time>
      </trkpt>
      <trkpt lat="43.95383" lon="1.78528">
        <ele>282.79998779297</ele>
        <time>2020-08-13T18:13:30.000Z</time>
      </trkpt>
      <trkpt lat="43.95385" lon="1.78523">
        <ele>282.79998779297</ele>
        <time>2020-08-13T18:13:31.000Z</time>
      </trkpt>
      <trkpt lat="43.95388" lon="1.78518">
        <ele>282.79998779297</ele>
        <time>2020-08-13T18:13:32.000Z</time>
      </trkpt>
      <trkpt lat="43.9539" lon="1.78513">
        <ele>282.79998779297</ele>
        <time>2020-08-13T18:13:33.000Z</time>
      </trkpt>
      <trkpt lat="43.95393" lon="1.78508">
        <ele>282.79998779297</ele>
        <time>2020-08-13T18:13:34.000Z</time>
      </trkpt>
      <trkpt lat="43.95395" lon="1.78503">
        <ele>283</ele>
        <time>2020-08-13T18:13:35.000Z</time>
      </trkpt>
      <trkpt lat="43.95397" lon="1.78499">
        <ele>283</ele>
        <time>2020-08-13T18:13:36.000Z</time>
      </trkpt>
      <trkpt lat="43.95399" lon="1.78496">
        <ele>283.20001220703</ele>
        <time>2020-08-13T18:13:37.000Z</time>
      </trkpt>
      <trkpt lat="43.95401" lon="1.78492">
        <ele>283</ele>
        <time>2020-08-13T18:13:38.000Z</time>
      </trkpt>
      <trkpt lat="43.95403" lon="1.78488">
        <ele>283</ele>
        <time>2020-08-13T18:13:39.000Z</time>
      </trkpt>
      <trkpt lat="43.95404" lon="1.78485">
        <ele>283</ele>
        <time>2020-08-13T18:13:40.000Z</time>
      </trkpt>
      <trkpt lat="43.95406" lon="1.78482">
        <ele>283</ele>
        <time>2020-08-13T18:13:41.000Z</time>
      </trkpt>
      <trkpt lat="43.95406" lon="1.7848">
        <ele>283</ele>
        <time>2020-08-13T18:13:42.000Z</time>
      </trkpt>
      <trkpt lat="43.95408" lon="1.78478">
        <ele>283</ele>
        <time>2020-08-13T18:13:43.000Z</time>
      </trkpt>
      <trkpt lat="43.95409" lon="1.78475">
        <ele>283</ele>
        <time>2020-08-13T18:13:44.000Z</time>
      </trkpt>
      <trkpt lat="43.95411" lon="1.78472">
        <ele>283</ele>
        <time>2020-08-13T18:13:45.000Z</time>
      </trkpt>
      <trkpt lat="43.95413" lon="1.78469">
        <ele>283</ele>
        <time>2020-08-13T18:13:46.000Z</time>
      </trkpt>
      <trkpt lat="43.95415" lon="1.78466">
        <ele>283</ele>
        <time>2020-08-13T18:13:47.000Z</time>
      </trkpt>
      <trkpt lat="43.95417" lon="1.78462">
        <ele>283.20001220703</ele>
        <time>2020-08-13T18:13:48.000Z</time>
      </trkpt>
      <trkpt lat="43.95419" lon="1.78459">
        <ele>283.20001220703</ele>
        <time>2020-08-13T18:13:49.000Z</time>
      </trkpt>
      <trkpt lat="43.95421" lon="1.78456">
        <ele>283.39999389648</ele>
        <time>2020-08-13T18:13:50.000Z</time>
      </trkpt>
      <trkpt lat="43.95424" lon="1.78452">
        <ele>283.39999389648</ele>
        <time>2020-08-13T18:13:51.000Z</time>
      </trkpt>
      <trkpt lat="43.95426" lon="1.78448">
        <ele>283.60000610352</ele>
        <time>2020-08-13T18:13:52.000Z</time>
      </trkpt>
      <trkpt lat="43.95429" lon="1.78445">
        <ele>283.60000610352</ele>
        <time>2020-08-13T18:13:53.000Z</time>
      </trkpt>
      <trkpt lat="43.95432" lon="1.78441">
        <ele>283.60000610352</ele>
        <time>2020-08-13T18:13:54.000Z</time>
      </trkpt>
      <trkpt lat="43.95435" lon="1.78437">
        <ele>283.60000610352</ele>
        <time>2020-08-13T18:13:55.000Z</time>
      </trkpt>
      <trkpt lat="43.95438" lon="1.78433">
        <ele>283.79998779297</ele>
        <time>2020-08-13T18:13:56.000Z</time>
      </trkpt>
      <trkpt lat="43.95442" lon="1.78429">
        <ele>283.79998779297</ele>
        <time>2020-08-13T18:13:57.000Z</time>
      </trkpt>
      <trkpt lat="43.95445" lon="1.78426">
        <ele>283.79998779297</ele>
        <time>2020-08-13T18:13:58.000Z</time>
      </trkpt>
      <trkpt lat="43.95448" lon="1.78423">
        <ele>283.79998779297</ele>
        <time>2020-08-13T18:13:59.000Z</time>
      </trkpt>
      <trkpt lat="43.95451" lon="1.7842">
        <ele>283.60000610352</ele>
        <time>2020-08-13T18:14:00.000Z</time>
      </trkpt>
      <trkpt lat="43.95454" lon="1.78417">
        <ele>283.79998779297</ele>
        <time>2020-08-13T18:14:01.000Z</time>
      </trkpt>
      <trkpt lat="43.95458" lon="1.78414">
        <ele>284</ele>
        <time>2020-08-13T18:14:02.000Z</time>
      </trkpt>
      <trkpt lat="43.95461" lon="1.78411">
        <ele>284.20001220703</ele>
        <time>2020-08-13T18:14:03.000Z</time>
      </trkpt>
      <trkpt lat="43.95465" lon="1.78409">
        <ele>284.20001220703</ele>
        <time>2020-08-13T18:14:04.000Z</time>
      </trkpt>
      <trkpt lat="43.95468" lon="1.78406">
        <ele>284</ele>
        <time>2020-08-13T18:14:05.000Z</time>
      </trkpt>
      <trkpt lat="43.95473" lon="1.78403">
        <ele>284.20001220703</ele>
        <time>2020-08-13T18:14:06.000Z</time>
      </trkpt>
      <trkpt lat="43.95476" lon="1.78401">
        <ele>284.39999389648</ele>
        <time>2020-08-13T18:14:07.000Z</time>
      </trkpt>
      <trkpt lat="43.9548" lon="1.78399">
        <ele>284.39999389648</ele>
        <time>2020-08-13T18:14:08.000Z</time>
      </trkpt>
      <trkpt lat="43.95484" lon="1.78396">
        <ele>284.60000610352</ele>
        <time>2020-08-13T18:14:09.000Z</time>
      </trkpt>
      <trkpt lat="43.95489" lon="1.78394">
        <ele>284.60000610352</ele>
        <time>2020-08-13T18:14:10.000Z</time>
      </trkpt>
      <trkpt lat="43.95492" lon="1.78392">
        <ele>284.60000610352</ele>
        <time>2020-08-13T18:14:11.000Z</time>
      </trkpt>
      <trkpt lat="43.95495" lon="1.7839">
        <ele>284.79998779297</ele>
        <time>2020-08-13T18:14:12.000Z</time>
      </trkpt>
      <trkpt lat="43.95499" lon="1.78388">
        <ele>284.79998779297</ele>
        <time>2020-08-13T18:14:13.000Z</time>
      </trkpt>
      <trkpt lat="43.95503" lon="1.78386">
        <ele>284.79998779297</ele>
        <time>2020-08-13T18:14:14.000Z</time>
      </trkpt>
      <trkpt lat="43.95506" lon="1.78384">
        <ele>285</ele>
        <time>2020-08-13T18:14:15.000Z</time>
      </trkpt>
      <trkpt lat="43.9551" lon="1.78382">
        <ele>285.20001220703</ele>
        <time>2020-08-13T18:14:16.000Z</time>
      </trkpt>
      <trkpt lat="43.95514" lon="1.78379">
        <ele>285.20001220703</ele>
        <time>2020-08-13T18:14:17.000Z</time>
      </trkpt>
      <trkpt lat="43.95518" lon="1.78375">
        <ele>285.39999389648</ele>
        <time>2020-08-13T18:14:18.000Z</time>
      </trkpt>
      <trkpt lat="43.95522" lon="1.78372">
        <ele>285.39999389648</ele>
        <time>2020-08-13T18:14:19.000Z</time>
      </trkpt>
      <trkpt lat="43.95526" lon="1.78369">
        <ele>285.39999389648</ele>
        <time>2020-08-13T18:14:20.000Z</time>
      </trkpt>
      <trkpt lat="43.95531" lon="1.78366">
        <ele>285.20001220703</ele>
        <time>2020-08-13T18:14:21.000Z</time>
      </trkpt>
      <trkpt lat="43.95535" lon="1.78362">
        <ele>285</ele>
        <time>2020-08-13T18:14:22.000Z</time>
      </trkpt>
      <trkpt lat="43.95539" lon="1.78358">
        <ele>284.79998779297</ele>
        <time>2020-08-13T18:14:23.000Z</time>
      </trkpt>
      <trkpt lat="43.95544" lon="1.78355">
        <ele>284.60000610352</ele>
        <time>2020-08-13T18:14:24.000Z</time>
      </trkpt>
      <trkpt lat="43.95549" lon="1.78351">
        <ele>284.39999389648</ele>
        <time>2020-08-13T18:14:25.000Z</time>
      </trkpt>
      <trkpt lat="43.95554" lon="1.78348">
        <ele>284.20001220703</ele>
        <time>2020-08-13T18:14:26.000Z</time>
      </trkpt>
      <trkpt lat="43.95559" lon="1.78344">
        <ele>283.79998779297</ele>
        <time>2020-08-13T18:14:27.000Z</time>
      </trkpt>
      <trkpt lat="43.95565" lon="1.78341">
        <ele>283.60000610352</ele>
        <time>2020-08-13T18:14:28.000Z</time>
      </trkpt>
      <trkpt lat="43.95571" lon="1.78338">
        <ele>283.39999389648</ele>
        <time>2020-08-13T18:14:29.000Z</time>
      </trkpt>
      <trkpt lat="43.95577" lon="1.78336">
        <ele>283.39999389648</ele>
        <time>2020-08-13T18:14:30.000Z</time>
      </trkpt>
      <trkpt lat="43.95583" lon="1.78333">
        <ele>283.39999389648</ele>
        <time>2020-08-13T18:14:31.000Z</time>
      </trkpt>
      <trkpt lat="43.95589" lon="1.78331">
        <ele>283</ele>
        <time>2020-08-13T18:14:32.000Z</time>
      </trkpt>
      <trkpt lat="43.95595" lon="1.78328">
        <ele>282.60000610352</ele>
        <time>2020-08-13T18:14:33.000Z</time>
      </trkpt>
      <trkpt lat="43.95601" lon="1.78326">
        <ele>282.60000610352</ele>
        <time>2020-08-13T18:14:34.000Z</time>
      </trkpt>
      <trkpt lat="43.95607" lon="1.78322">
        <ele>282.39999389648</ele>
        <time>2020-08-13T18:14:35.000Z</time>
      </trkpt>
      <trkpt lat="43.95613" lon="1.78319">
        <ele>282</ele>
        <time>2020-08-13T18:14:36.000Z</time>
      </trkpt>
      <trkpt lat="43.95619" lon="1.78316">
        <ele>281.79998779297</ele>
        <time>2020-08-13T18:14:37.000Z</time>
      </trkpt>
      <trkpt lat="43.95624" lon="1.78313">
        <ele>281.60000610352</ele>
        <time>2020-08-13T18:14:38.000Z</time>
      </trkpt>
      <trkpt lat="43.9563" lon="1.78311">
        <ele>281.60000610352</ele>
        <time>2020-08-13T18:14:39.000Z</time>
      </trkpt>
      <trkpt lat="43.95635" lon="1.78307">
        <ele>281.39999389648</ele>
        <time>2020-08-13T18:14:40.000Z</time>
      </trkpt>
      <trkpt lat="43.9564" lon="1.78304">
        <ele>281.20001220703</ele>
        <time>2020-08-13T18:14:41.000Z</time>
      </trkpt>
      <trkpt lat="43.95644" lon="1.78301">
        <ele>280.79998779297</ele>
        <time>2020-08-13T18:14:42.000Z</time>
      </trkpt>
      <trkpt lat="43.95649" lon="1.78299">
        <ele>280.79998779297</ele>
        <time>2020-08-13T18:14:43.000Z</time>
      </trkpt>
      <trkpt lat="43.95652" lon="1.78297">
        <ele>280.60000610352</ele>
        <time>2020-08-13T18:14:44.000Z</time>
      </trkpt>
      <trkpt lat="43.95656" lon="1.78294">
        <ele>280.60000610352</ele>
        <time>2020-08-13T18:14:45.000Z</time>
      </trkpt>
      <trkpt lat="43.95659" lon="1.78292">
        <ele>280.60000610352</ele>
        <time>2020-08-13T18:14:46.000Z</time>
      </trkpt>
      <trkpt lat="43.95662" lon="1.78289">
        <ele>280.79998779297</ele>
        <time>2020-08-13T18:14:47.000Z</time>
      </trkpt>
      <trkpt lat="43.95664" lon="1.78286">
        <ele>280.79998779297</ele>
        <time>2020-08-13T18:14:48.000Z</time>
      </trkpt>
      <trkpt lat="43.95667" lon="1.78282">
        <ele>281</ele>
        <time>2020-08-13T18:14:49.000Z</time>
      </trkpt>
      <trkpt lat="43.9567" lon="1.78278">
        <ele>281</ele>
        <time>2020-08-13T18:14:50.000Z</time>
      </trkpt>
      <trkpt lat="43.95674" lon="1.78274">
        <ele>280.79998779297</ele>
        <time>2020-08-13T18:14:51.000Z</time>
      </trkpt>
      <trkpt lat="43.95678" lon="1.78271">
        <ele>280.79998779297</ele>
        <time>2020-08-13T18:14:52.000Z</time>
      </trkpt>
      <trkpt lat="43.95682" lon="1.78268">
        <ele>281</ele>
        <time>2020-08-13T18:14:53.000Z</time>
      </trkpt>
      <trkpt lat="43.95686" lon="1.78265">
        <ele>281.20001220703</ele>
        <time>2020-08-13T18:14:54.000Z</time>
      </trkpt>
      <trkpt lat="43.95689" lon="1.78263">
        <ele>281.39999389648</ele>
        <time>2020-08-13T18:14:55.000Z</time>
      </trkpt>
      <trkpt lat="43.95693" lon="1.7826">
        <ele>281.39999389648</ele>
        <time>2020-08-13T18:14:56.000Z</time>
      </trkpt>
      <trkpt lat="43.95697" lon="1.78258">
        <ele>281.60000610352</ele>
        <time>2020-08-13T18:14:57.000Z</time>
      </trkpt>
      <trkpt lat="43.95701" lon="1.78255">
        <ele>281.79998779297</ele>
        <time>2020-08-13T18:14:58.000Z</time>
      </trkpt>
      <trkpt lat="43.95705" lon="1.78252">
        <ele>281.79998779297</ele>
        <time>2020-08-13T18:14:59.000Z</time>
      </trkpt>
      <trkpt lat="43.95709" lon="1.78249">
        <ele>281.79998779297</ele>
        <time>2020-08-13T18:15:00.000Z</time>
      </trkpt>
      <trkpt lat="43.95713" lon="1.78246">
        <ele>281.79998779297</ele>
        <time>2020-08-13T18:15:01.000Z</time>
      </trkpt>
      <trkpt lat="43.95717" lon="1.78243">
        <ele>282</ele>
        <time>2020-08-13T18:15:02.000Z</time>
      </trkpt>
      <trkpt lat="43.95721" lon="1.7824">
        <ele>282.20001220703</ele>
        <time>2020-08-13T18:15:03.000Z</time>
      </trkpt>
      <trkpt lat="43.95725" lon="1.78237">
        <ele>282.20001220703</ele>
        <time>2020-08-13T18:15:04.000Z</time>
      </trkpt>
      <trkpt lat="43.9573" lon="1.78234">
        <ele>282.20001220703</ele>
        <time>2020-08-13T18:15:05.000Z</time>
      </trkpt>
      <trkpt lat="43.95734" lon="1.78231">
        <ele>282.20001220703</ele>
        <time>2020-08-13T18:15:06.000Z</time>
      </trkpt>
      <trkpt lat="43.95737" lon="1.78228">
        <ele>282.39999389648</ele>
        <time>2020-08-13T18:15:07.000Z</time>
      </trkpt>
      <trkpt lat="43.95741" lon="1.78225">
        <ele>282.39999389648</ele>
        <time>2020-08-13T18:15:08.000Z</time>
      </trkpt>
      <trkpt lat="43.95745" lon="1.78222">
        <ele>282.60000610352</ele>
        <time>2020-08-13T18:15:09.000Z</time>
      </trkpt>
      <trkpt lat="43.95748" lon="1.78219">
        <ele>282.60000610352</ele>
        <time>2020-08-13T18:15:10.000Z</time>
      </trkpt>
      <trkpt lat="43.95752" lon="1.78217">
        <ele>282.60000610352</ele>
        <time>2020-08-13T18:15:11.000Z</time>
      </trkpt>
      <trkpt lat="43.95755" lon="1.78216">
        <ele>282.60000610352</ele>
        <time>2020-08-13T18:15:12.000Z</time>
      </trkpt>
      <trkpt lat="43.95758" lon="1.78215">
        <ele>282.60000610352</ele>
        <time>2020-08-13T18:15:13.000Z</time>
      </trkpt>
      <trkpt lat="43.9576" lon="1.78215">
        <ele>282.60000610352</ele>
        <time>2020-08-13T18:15:14.000Z</time>
      </trkpt>
      <trkpt lat="43.95761" lon="1.78215">
        <ele>282.39999389648</ele>
        <time>2020-08-13T18:15:15.000Z</time>
      </trkpt>
      <trkpt lat="43.95763" lon="1.78215">
        <ele>282.20001220703</ele>
        <time>2020-08-13T18:15:16.000Z</time>
      </trkpt>
      <trkpt lat="43.95764" lon="1.78214">
        <ele>281.79998779297</ele>
        <time>2020-08-13T18:15:17.000Z</time>
      </trkpt>
      <trkpt lat="43.95765" lon="1.78214">
        <ele>281.60000610352</ele>
        <time>2020-08-13T18:15:18.000Z</time>
      </trkpt>
      <trkpt lat="43.95766" lon="1.78213">
        <ele>281.39999389648</ele>
        <time>2020-08-13T18:15:19.000Z</time>
      </trkpt>
      <trkpt lat="43.95766" lon="1.78213">
        <ele>281.20001220703</ele>
        <time>2020-08-13T18:15:20.000Z</time>
      </trkpt>
      <trkpt lat="43.95768" lon="1.78212">
        <ele>281</ele>
        <time>2020-08-13T18:15:21.000Z</time>
      </trkpt>
      <trkpt lat="43.95769" lon="1.78212">
        <ele>280.60000610352</ele>
        <time>2020-08-13T18:15:22.000Z</time>
      </trkpt>
      <trkpt lat="43.95769" lon="1.78212">
        <ele>280.60000610352</ele>
        <time>2020-08-13T18:15:23.000Z</time>
      </trkpt>
      <trkpt lat="43.95769" lon="1.78212">
        <ele>280.39999389648</ele>
        <time>2020-08-13T18:15:24.000Z</time>
      </trkpt>
      <trkpt lat="43.95769" lon="1.78212">
        <ele>280.20001220703</ele>
        <time>2020-08-13T18:15:25.000Z</time>
      </trkpt>
      <trkpt lat="43.95769" lon="1.78212">
        <ele>280.20001220703</ele>
        <time>2020-08-13T18:15:26.000Z</time>
      </trkpt>
      <trkpt lat="43.95769" lon="1.78212">
        <ele>280.39999389648</ele>
        <time>2020-08-13T18:15:27.000Z</time>
      </trkpt>
      <trkpt lat="43.95769" lon="1.78212">
        <ele>280.39999389648</ele>
        <time>2020-08-13T18:15:28.000Z</time>
      </trkpt>
      <trkpt lat="43.95769" lon="1.78212">
        <ele>280.39999389648</ele>
        <time>2020-08-13T18:15:29.000Z</time>
      </trkpt>
      <trkpt lat="43.95769" lon="1.78212">
        <ele>280.39999389648</ele>
        <time>2020-08-13T18:15:30.000Z</time>
      </trkpt>
      <trkpt lat="43.95769" lon="1.78212">
        <ele>280.39999389648</ele>
        <time>2020-08-13T18:15:31.000Z</time>
      </trkpt>
      <trkpt lat="43.95769" lon="1.78212">
        <ele>280.20001220703</ele>
        <time>2020-08-13T18:15:32.000Z</time>
      </trkpt>
      <trkpt lat="43.95769" lon="1.78212">
        <ele>280.39999389648</ele>
        <time>2020-08-13T18:15:33.000Z</time>
      </trkpt>
      <trkpt lat="43.95769" lon="1.78212">
        <ele>280.20001220703</ele>
        <time>2020-08-13T18:15:34.000Z</time>
      </trkpt>
      <trkpt lat="43.95769" lon="1.78212">
        <ele>280.39999389648</ele>
        <time>2020-08-13T18:15:35.000Z</time>
      </trkpt>
      <trkpt lat="43.95769" lon="1.78212">
        <ele>280.39999389648</ele>
        <time>2020-08-13T18:15:36.000Z</time>
      </trkpt>
      <trkpt lat="43.95769" lon="1.78212">
        <ele>280.39999389648</ele>
        <time>2020-08-13T18:15:37.000Z</time>
      </trkpt>
      <trkpt lat="43.95769" lon="1.78212">
        <ele>280.20001220703</ele>
        <time>2020-08-13T18:15:38.000Z</time>
      </trkpt>
      <trkpt lat="43.95769" lon="1.78212">
        <ele>280.39999389648</ele>
        <time>2020-08-13T18:15:39.000Z</time>
      </trkpt>
      <trkpt lat="43.95769" lon="1.78212">
        <ele>280.39999389648</ele>
        <time>2020-08-13T18:15:40.000Z</time>
      </trkpt>
      <trkpt lat="43.95769" lon="1.78212">
        <ele>280.39999389648</ele>
        <time>2020-08-13T18:15:41.000Z</time>
      </trkpt>
      <trkpt lat="43.95769" lon="1.78212">
        <ele>280.20001220703</ele>
        <time>2020-08-13T18:15:42.000Z</time>
      </trkpt>
      <trkpt lat="43.95769" lon="1.78212">
        <ele>280.20001220703</ele>
        <time>2020-08-13T18:15:43.000Z</time>
      </trkpt>
      <trkpt lat="43.9577" lon="1.78212">
        <ele>280</ele>
        <time>2020-08-13T18:15:44.000Z</time>
      </trkpt>
      <trkpt lat="43.9577" lon="1.78212">
        <ele>280</ele>
        <time>2020-08-13T18:15:45.000Z</time>
      </trkpt>
      <trkpt lat="43.95775" lon="1.78212">
        <ele>279.79998779297</ele>
        <time>2020-08-13T18:15:46.000Z</time>
      </trkpt>
      <trkpt lat="43.95776" lon="1.78212">
        <ele>279.60000610352</ele>
        <time>2020-08-13T18:15:47.000Z</time>
      </trkpt>
      <trkpt lat="43.95778" lon="1.78212">
        <ele>279.39999389648</ele>
        <time>2020-08-13T18:15:48.000Z</time>
      </trkpt>
      <trkpt lat="43.95779" lon="1.78212">
        <ele>279.39999389648</ele>
        <time>2020-08-13T18:15:49.000Z</time>
      </trkpt>
      <trkpt lat="43.9578" lon="1.78214">
        <ele>279.39999389648</ele>
        <time>2020-08-13T18:15:50.000Z</time>
      </trkpt>
      <trkpt lat="43.95781" lon="1.78215">
        <ele>279.20001220703</ele>
        <time>2020-08-13T18:15:51.000Z</time>
      </trkpt>
      <trkpt lat="43.95783" lon="1.78215">
        <ele>278.79998779297</ele>
        <time>2020-08-13T18:15:52.000Z</time>
      </trkpt>
      <trkpt lat="43.95786" lon="1.78215">
        <ele>278.20001220703</ele>
        <time>2020-08-13T18:15:53.000Z</time>
      </trkpt>
      <trkpt lat="43.95787" lon="1.78215">
        <ele>278</ele>
        <time>2020-08-13T18:15:54.000Z</time>
      </trkpt>
      <trkpt lat="43.95789" lon="1.78214">
        <ele>277.60000610352</ele>
        <time>2020-08-13T18:15:55.000Z</time>
      </trkpt>
      <trkpt lat="43.95791" lon="1.78214">
        <ele>277.39999389648</ele>
        <time>2020-08-13T18:15:56.000Z</time>
      </trkpt>
      <trkpt lat="43.95793" lon="1.78213">
        <ele>277.20001220703</ele>
        <time>2020-08-13T18:15:57.000Z</time>
      </trkpt>
      <trkpt lat="43.95795" lon="1.78212">
        <ele>277</ele>
        <time>2020-08-13T18:15:58.000Z</time>
      </trkpt>
      <trkpt lat="43.95798" lon="1.78212">
        <ele>276.79998779297</ele>
        <time>2020-08-13T18:15:59.000Z</time>
      </trkpt>
      <trkpt lat="43.95801" lon="1.78211">
        <ele>276.20001220703</ele>
        <time>2020-08-13T18:16:00.000Z</time>
      </trkpt>
      <trkpt lat="43.95805" lon="1.7821">
        <ele>275.60000610352</ele>
        <time>2020-08-13T18:16:01.000Z</time>
      </trkpt>
      <trkpt lat="43.95809" lon="1.78209">
        <ele>275.39999389648</ele>
        <time>2020-08-13T18:16:02.000Z</time>
      </trkpt>
      <trkpt lat="43.95813" lon="1.78208">
        <ele>275</ele>
        <time>2020-08-13T18:16:03.000Z</time>
      </trkpt>
      <trkpt lat="43.95817" lon="1.78207">
        <ele>274.60000610352</ele>
        <time>2020-08-13T18:16:04.000Z</time>
      </trkpt>
      <trkpt lat="43.95821" lon="1.78205">
        <ele>274.20001220703</ele>
        <time>2020-08-13T18:16:05.000Z</time>
      </trkpt>
      <trkpt lat="43.95826" lon="1.78203">
        <ele>273.79998779297</ele>
        <time>2020-08-13T18:16:06.000Z</time>
      </trkpt>
      <trkpt lat="43.95831" lon="1.78202">
        <ele>273.60000610352</ele>
        <time>2020-08-13T18:16:07.000Z</time>
      </trkpt>
      <trkpt lat="43.95835" lon="1.782">
        <ele>273.39999389648</ele>
        <time>2020-08-13T18:16:08.000Z</time>
      </trkpt>
      <trkpt lat="43.9584" lon="1.78198">
        <ele>273.20001220703</ele>
        <time>2020-08-13T18:16:09.000Z</time>
      </trkpt>
      <trkpt lat="43.95844" lon="1.78196">
        <ele>273</ele>
        <time>2020-08-13T18:16:10.000Z</time>
      </trkpt>
      <trkpt lat="43.95848" lon="1.78194">
        <ele>272.79998779297</ele>
        <time>2020-08-13T18:16:11.000Z</time>
      </trkpt>
      <trkpt lat="43.95852" lon="1.78192">
        <ele>272.79998779297</ele>
        <time>2020-08-13T18:16:12.000Z</time>
      </trkpt>
      <trkpt lat="43.95855" lon="1.78191">
        <ele>272.79998779297</ele>
        <time>2020-08-13T18:16:13.000Z</time>
      </trkpt>
      <trkpt lat="43.95858" lon="1.7819">
        <ele>272.79998779297</ele>
        <time>2020-08-13T18:16:14.000Z</time>
      </trkpt>
      <trkpt lat="43.95861" lon="1.78188">
        <ele>272.60000610352</ele>
        <time>2020-08-13T18:16:15.000Z</time>
      </trkpt>
      <trkpt lat="43.95864" lon="1.78188">
        <ele>272.39999389648</ele>
        <time>2020-08-13T18:16:16.000Z</time>
      </trkpt>
      <trkpt lat="43.95866" lon="1.78187">
        <ele>272</ele>
        <time>2020-08-13T18:16:17.000Z</time>
      </trkpt>
      <trkpt lat="43.95868" lon="1.78186">
        <ele>271.79998779297</ele>
        <time>2020-08-13T18:16:18.000Z</time>
      </trkpt>
      <trkpt lat="43.95869" lon="1.78186">
        <ele>271.79998779297</ele>
        <time>2020-08-13T18:16:19.000Z</time>
      </trkpt>
      <trkpt lat="43.95871" lon="1.78185">
        <ele>271.60000610352</ele>
        <time>2020-08-13T18:16:20.000Z</time>
      </trkpt>
      <trkpt lat="43.95872" lon="1.78184">
        <ele>271.60000610352</ele>
        <time>2020-08-13T18:16:21.000Z</time>
      </trkpt>
      <trkpt lat="43.95874" lon="1.78183">
        <ele>271.39999389648</ele>
        <time>2020-08-13T18:16:22.000Z</time>
      </trkpt>
      <trkpt lat="43.95875" lon="1.78182">
        <ele>271.39999389648</ele>
        <time>2020-08-13T18:16:23.000Z</time>
      </trkpt>
      <trkpt lat="43.95877" lon="1.78182">
        <ele>271.20001220703</ele>
        <time>2020-08-13T18:16:24.000Z</time>
      </trkpt>
      <trkpt lat="43.95878" lon="1.78182">
        <ele>271.20001220703</ele>
        <time>2020-08-13T18:16:25.000Z</time>
      </trkpt>
      <trkpt lat="43.95879" lon="1.78182">
        <ele>271</ele>
        <time>2020-08-13T18:16:26.000Z</time>
      </trkpt>
      <trkpt lat="43.9588" lon="1.78181">
        <ele>271</ele>
        <time>2020-08-13T18:16:27.000Z</time>
      </trkpt>
      <trkpt lat="43.95881" lon="1.78181">
        <ele>270.79998779297</ele>
        <time>2020-08-13T18:16:28.000Z</time>
      </trkpt>
      <trkpt lat="43.95883" lon="1.7818">
        <ele>270.60000610352</ele>
        <time>2020-08-13T18:16:29.000Z</time>
      </trkpt>
      <trkpt lat="43.95884" lon="1.7818">
        <ele>270.60000610352</ele>
        <time>2020-08-13T18:16:30.000Z</time>
      </trkpt>
      <trkpt lat="43.95885" lon="1.78179">
        <ele>270.39999389648</ele>
        <time>2020-08-13T18:16:31.000Z</time>
      </trkpt>
      <trkpt lat="43.95886" lon="1.78179">
        <ele>270.39999389648</ele>
        <time>2020-08-13T18:16:32.000Z</time>
      </trkpt>
      <trkpt lat="43.95887" lon="1.78178">
        <ele>270.20001220703</ele>
        <time>2020-08-13T18:16:33.000Z</time>
      </trkpt>
      <trkpt lat="43.95888" lon="1.78178">
        <ele>270</ele>
        <time>2020-08-13T18:16:34.000Z</time>
      </trkpt>
      <trkpt lat="43.95889" lon="1.78177">
        <ele>270</ele>
        <time>2020-08-13T18:16:35.000Z</time>
      </trkpt>
      <trkpt lat="43.9589" lon="1.78177">
        <ele>270</ele>
        <time>2020-08-13T18:16:36.000Z</time>
      </trkpt>
      <trkpt lat="43.95892" lon="1.78177">
        <ele>269.79998779297</ele>
        <time>2020-08-13T18:16:37.000Z</time>
      </trkpt>
      <trkpt lat="43.95893" lon="1.78177">
        <ele>269.39999389648</ele>
        <time>2020-08-13T18:16:38.000Z</time>
      </trkpt>
      <trkpt lat="43.95894" lon="1.78177">
        <ele>269</ele>
        <time>2020-08-13T18:16:39.000Z</time>
      </trkpt>
      <trkpt lat="43.95895" lon="1.78177">
        <ele>268.79998779297</ele>
        <time>2020-08-13T18:16:40.000Z</time>
      </trkpt>
      <trkpt lat="43.95896" lon="1.78177">
        <ele>268.60000610352</ele>
        <time>2020-08-13T18:16:41.000Z</time>
      </trkpt>
      <trkpt lat="43.95898" lon="1.78177">
        <ele>268.39999389648</ele>
        <time>2020-08-13T18:16:42.000Z</time>
      </trkpt>
      <trkpt lat="43.959" lon="1.78178">
        <ele>267.79998779297</ele>
        <time>2020-08-13T18:16:43.000Z</time>
      </trkpt>
      <trkpt lat="43.95903" lon="1.7818">
        <ele>266.79998779297</ele>
        <time>2020-08-13T18:16:44.000Z</time>
      </trkpt>
      <trkpt lat="43.95906" lon="1.78183">
        <ele>265.79998779297</ele>
        <time>2020-08-13T18:16:45.000Z</time>
      </trkpt>
      <trkpt lat="43.9591" lon="1.78186">
        <ele>264.60000610352</ele>
        <time>2020-08-13T18:16:46.000Z</time>
      </trkpt>
      <trkpt lat="43.95913" lon="1.78188">
        <ele>263.60000610352</ele>
        <time>2020-08-13T18:16:47.000Z</time>
      </trkpt>
      <trkpt lat="43.95915" lon="1.7819">
        <ele>262.79998779297</ele>
        <time>2020-08-13T18:16:48.000Z</time>
      </trkpt>
      <trkpt lat="43.95918" lon="1.78191">
        <ele>262.20001220703</ele>
        <time>2020-08-13T18:16:49.000Z</time>
      </trkpt>
      <trkpt lat="43.9592" lon="1.78192">
        <ele>261.60000610352</ele>
        <time>2020-08-13T18:16:50.000Z</time>
      </trkpt>
      <trkpt lat="43.95923" lon="1.78192">
        <ele>261.39999389648</ele>
        <time>2020-08-13T18:16:51.000Z</time>
      </trkpt>
      <trkpt lat="43.95925" lon="1.78191">
        <ele>261.20001220703</ele>
        <time>2020-08-13T18:16:52.000Z</time>
      </trkpt>
      <trkpt lat="43.95927" lon="1.7819">
        <ele>260.79998779297</ele>
        <time>2020-08-13T18:16:53.000Z</time>
      </trkpt>
      <trkpt lat="43.9593" lon="1.78189">
        <ele>260.60000610352</ele>
        <time>2020-08-13T18:16:54.000Z</time>
      </trkpt>
      <trkpt lat="43.95932" lon="1.78188">
        <ele>260.60000610352</ele>
        <time>2020-08-13T18:16:55.000Z</time>
      </trkpt>
      <trkpt lat="43.95935" lon="1.78187">
        <ele>260.39999389648</ele>
        <time>2020-08-13T18:16:56.000Z</time>
      </trkpt>
      <trkpt lat="43.95938" lon="1.78186">
        <ele>260</ele>
        <time>2020-08-13T18:16:57.000Z</time>
      </trkpt>
      <trkpt lat="43.9594" lon="1.78185">
        <ele>259.79998779297</ele>
        <time>2020-08-13T18:16:58.000Z</time>
      </trkpt>
      <trkpt lat="43.95942" lon="1.78185">
        <ele>259.79998779297</ele>
        <time>2020-08-13T18:16:59.000Z</time>
      </trkpt>
      <trkpt lat="43.95945" lon="1.78184">
        <ele>259.60000610352</ele>
        <time>2020-08-13T18:17:00.000Z</time>
      </trkpt>
      <trkpt lat="43.95946" lon="1.78183">
        <ele>259.39999389648</ele>
        <time>2020-08-13T18:17:01.000Z</time>
      </trkpt>
      <trkpt lat="43.95947" lon="1.78182">
        <ele>259.20001220703</ele>
        <time>2020-08-13T18:17:02.000Z</time>
      </trkpt>
      <trkpt lat="43.95947" lon="1.78182">
        <ele>258.79998779297</ele>
        <time>2020-08-13T18:17:03.000Z</time>
      </trkpt>
      <trkpt lat="43.95947" lon="1.78181">
        <ele>258.79998779297</ele>
        <time>2020-08-13T18:17:04.000Z</time>
      </trkpt>
      <trkpt lat="43.95947" lon="1.78181">
        <ele>258.79998779297</ele>
        <time>2020-08-13T18:17:05.000Z</time>
      </trkpt>
      <trkpt lat="43.95947" lon="1.78181">
        <ele>258.79998779297</ele>
        <time>2020-08-13T18:17:06.000Z</time>
      </trkpt>
      <trkpt lat="43.95947" lon="1.78181">
        <ele>258.79998779297</ele>
        <time>2020-08-13T18:17:07.000Z</time>
      </trkpt>
      <trkpt lat="43.95947" lon="1.78181">
        <ele>258.79998779297</ele>
        <time>2020-08-13T18:17:08.000Z</time>
      </trkpt>
      <trkpt lat="43.95947" lon="1.78181">
        <ele>258.79998779297</ele>
        <time>2020-08-13T18:17:09.000Z</time>
      </trkpt>
      <trkpt lat="43.95947" lon="1.78181">
        <ele>258.79998779297</ele>
        <time>2020-08-13T18:17:10.000Z</time>
      </trkpt>
      <trkpt lat="43.95948" lon="1.78181">
        <ele>258.79998779297</ele>
        <time>2020-08-13T18:17:11.000Z</time>
      </trkpt>
      <trkpt lat="43.95949" lon="1.7818">
        <ele>258.79998779297</ele>
        <time>2020-08-13T18:17:12.000Z</time>
      </trkpt>
      <trkpt lat="43.95951" lon="1.78178">
        <ele>258.79998779297</ele>
        <time>2020-08-13T18:17:13.000Z</time>
      </trkpt>
      <trkpt lat="43.95953" lon="1.78176">
        <ele>258.60000610352</ele>
        <time>2020-08-13T18:17:14.000Z</time>
      </trkpt>
      <trkpt lat="43.95955" lon="1.78174">
        <ele>258.60000610352</ele>
        <time>2020-08-13T18:17:15.000Z</time>
      </trkpt>
      <trkpt lat="43.95956" lon="1.78171">
        <ele>258.60000610352</ele>
        <time>2020-08-13T18:17:16.000Z</time>
      </trkpt>
      <trkpt lat="43.95957" lon="1.78168">
        <ele>258.60000610352</ele>
        <time>2020-08-13T18:17:17.000Z</time>
      </trkpt>
      <trkpt lat="43.95959" lon="1.78165">
        <ele>258.60000610352</ele>
        <time>2020-08-13T18:17:18.000Z</time>
      </trkpt>
      <trkpt lat="43.95961" lon="1.78162">
        <ele>258.79998779297</ele>
        <time>2020-08-13T18:17:19.000Z</time>
      </trkpt>
      <trkpt lat="43.95962" lon="1.78159">
        <ele>258.79998779297</ele>
        <time>2020-08-13T18:17:20.000Z</time>
      </trkpt>
      <trkpt lat="43.95963" lon="1.78156">
        <ele>258.60000610352</ele>
        <time>2020-08-13T18:17:21.000Z</time>
      </trkpt>
      <trkpt lat="43.95964" lon="1.78153">
        <ele>258.60000610352</ele>
        <time>2020-08-13T18:17:22.000Z</time>
      </trkpt>
      <trkpt lat="43.95965" lon="1.78149">
        <ele>258.39999389648</ele>
        <time>2020-08-13T18:17:23.000Z</time>
      </trkpt>
      <trkpt lat="43.95966" lon="1.78146">
        <ele>258.39999389648</ele>
        <time>2020-08-13T18:17:24.000Z</time>
      </trkpt>
      <trkpt lat="43.95967" lon="1.78144">
        <ele>258.39999389648</ele>
        <time>2020-08-13T18:17:25.000Z</time>
      </trkpt>
      <trkpt lat="43.95969" lon="1.78141">
        <ele>258.39999389648</ele>
        <time>2020-08-13T18:17:26.000Z</time>
      </trkpt>
      <trkpt lat="43.9597" lon="1.78138">
        <ele>258.20001220703</ele>
        <time>2020-08-13T18:17:27.000Z</time>
      </trkpt>
      <trkpt lat="43.95971" lon="1.78135">
        <ele>258</ele>
        <time>2020-08-13T18:17:28.000Z</time>
      </trkpt>
      <trkpt lat="43.95972" lon="1.78132">
        <ele>258</ele>
        <time>2020-08-13T18:17:29.000Z</time>
      </trkpt>
      <trkpt lat="43.95973" lon="1.78129">
        <ele>257.79998779297</ele>
        <time>2020-08-13T18:17:30.000Z</time>
      </trkpt>
      <trkpt lat="43.95975" lon="1.78125">
        <ele>257.79998779297</ele>
        <time>2020-08-13T18:17:31.000Z</time>
      </trkpt>
      <trkpt lat="43.95976" lon="1.78121">
        <ele>257.79998779297</ele>
        <time>2020-08-13T18:17:32.000Z</time>
      </trkpt>
      <trkpt lat="43.95977" lon="1.78118">
        <ele>257.79998779297</ele>
        <time>2020-08-13T18:17:33.000Z</time>
      </trkpt>
      <trkpt lat="43.95978" lon="1.78114">
        <ele>258</ele>
        <time>2020-08-13T18:17:34.000Z</time>
      </trkpt>
      <trkpt lat="43.95979" lon="1.7811">
        <ele>258.20001220703</ele>
        <time>2020-08-13T18:17:35.000Z</time>
      </trkpt>
      <trkpt lat="43.9598" lon="1.78106">
        <ele>258.39999389648</ele>
        <time>2020-08-13T18:17:36.000Z</time>
      </trkpt>
      <trkpt lat="43.95981" lon="1.78103">
        <ele>258.20001220703</ele>
        <time>2020-08-13T18:17:37.000Z</time>
      </trkpt>
      <trkpt lat="43.95981" lon="1.781">
        <ele>258.20001220703</ele>
        <time>2020-08-13T18:17:38.000Z</time>
      </trkpt>
      <trkpt lat="43.95981" lon="1.78097">
        <ele>258.20001220703</ele>
        <time>2020-08-13T18:17:39.000Z</time>
      </trkpt>
      <trkpt lat="43.95982" lon="1.78094">
        <ele>258.60000610352</ele>
        <time>2020-08-13T18:17:40.000Z</time>
      </trkpt>
      <trkpt lat="43.95982" lon="1.78091">
        <ele>258.79998779297</ele>
        <time>2020-08-13T18:17:41.000Z</time>
      </trkpt>
      <trkpt lat="43.95982" lon="1.78088">
        <ele>259</ele>
        <time>2020-08-13T18:17:42.000Z</time>
      </trkpt>
      <trkpt lat="43.95982" lon="1.78085">
        <ele>259.20001220703</ele>
        <time>2020-08-13T18:17:43.000Z</time>
      </trkpt>
      <trkpt lat="43.95982" lon="1.78082">
        <ele>259.20001220703</ele>
        <time>2020-08-13T18:17:44.000Z</time>
      </trkpt>
      <trkpt lat="43.95983" lon="1.78078">
        <ele>259.39999389648</ele>
        <time>2020-08-13T18:17:45.000Z</time>
      </trkpt>
      <trkpt lat="43.95983" lon="1.78075">
        <ele>259.60000610352</ele>
        <time>2020-08-13T18:17:46.000Z</time>
      </trkpt>
      <trkpt lat="43.95983" lon="1.78072">
        <ele>260</ele>
        <time>2020-08-13T18:17:47.000Z</time>
      </trkpt>
      <trkpt lat="43.95983" lon="1.78069">
        <ele>260</ele>
        <time>2020-08-13T18:17:48.000Z</time>
      </trkpt>
      <trkpt lat="43.95983" lon="1.78066">
        <ele>260.39999389648</ele>
        <time>2020-08-13T18:17:49.000Z</time>
      </trkpt>
      <trkpt lat="43.95983" lon="1.78064">
        <ele>260.60000610352</ele>
        <time>2020-08-13T18:17:50.000Z</time>
      </trkpt>
      <trkpt lat="43.95982" lon="1.78062">
        <ele>261</ele>
        <time>2020-08-13T18:17:51.000Z</time>
      </trkpt>
      <trkpt lat="43.95982" lon="1.78059">
        <ele>261.39999389648</ele>
        <time>2020-08-13T18:17:52.000Z</time>
      </trkpt>
      <trkpt lat="43.95982" lon="1.78057">
        <ele>261.60000610352</ele>
        <time>2020-08-13T18:17:53.000Z</time>
      </trkpt>
      <trkpt lat="43.95982" lon="1.78055">
        <ele>261.79998779297</ele>
        <time>2020-08-13T18:17:54.000Z</time>
      </trkpt>
      <trkpt lat="43.95982" lon="1.78053">
        <ele>262</ele>
        <time>2020-08-13T18:17:55.000Z</time>
      </trkpt>
      <trkpt lat="43.95981" lon="1.78051">
        <ele>262.20001220703</ele>
        <time>2020-08-13T18:17:56.000Z</time>
      </trkpt>
      <trkpt lat="43.95981" lon="1.7805">
        <ele>262.39999389648</ele>
        <time>2020-08-13T18:17:57.000Z</time>
      </trkpt>
      <trkpt lat="43.95981" lon="1.78048">
        <ele>262.60000610352</ele>
        <time>2020-08-13T18:17:58.000Z</time>
      </trkpt>
      <trkpt lat="43.9598" lon="1.78047">
        <ele>262.79998779297</ele>
        <time>2020-08-13T18:17:59.000Z</time>
      </trkpt>
      <trkpt lat="43.9598" lon="1.78046">
        <ele>262.79998779297</ele>
        <time>2020-08-13T18:18:00.000Z</time>
      </trkpt>
      <trkpt lat="43.9598" lon="1.78044">
        <ele>263</ele>
        <time>2020-08-13T18:18:01.000Z</time>
      </trkpt>
      <trkpt lat="43.9598" lon="1.78043">
        <ele>263.20001220703</ele>
        <time>2020-08-13T18:18:02.000Z</time>
      </trkpt>
      <trkpt lat="43.95979" lon="1.78041">
        <ele>263.39999389648</ele>
        <time>2020-08-13T18:18:03.000Z</time>
      </trkpt>
      <trkpt lat="43.95978" lon="1.78039">
        <ele>263.60000610352</ele>
        <time>2020-08-13T18:18:04.000Z</time>
      </trkpt>
      <trkpt lat="43.95977" lon="1.78037">
        <ele>263.79998779297</ele>
        <time>2020-08-13T18:18:05.000Z</time>
      </trkpt>
      <trkpt lat="43.95977" lon="1.78037">
        <ele>264</ele>
        <time>2020-08-13T18:18:06.000Z</time>
      </trkpt>
      <trkpt lat="43.95978" lon="1.78035">
        <ele>264.39999389648</ele>
        <time>2020-08-13T18:18:07.000Z</time>
      </trkpt>
      <trkpt lat="43.95978" lon="1.78034">
        <ele>264.60000610352</ele>
        <time>2020-08-13T18:18:08.000Z</time>
      </trkpt>
      <trkpt lat="43.9598" lon="1.78034">
        <ele>264.60000610352</ele>
        <time>2020-08-13T18:18:09.000Z</time>
      </trkpt>
      <trkpt lat="43.95981" lon="1.78034">
        <ele>264.39999389648</ele>
        <time>2020-08-13T18:18:10.000Z</time>
      </trkpt>
      <trkpt lat="43.95983" lon="1.78033">
        <ele>264.20001220703</ele>
        <time>2020-08-13T18:18:11.000Z</time>
      </trkpt>
      <trkpt lat="43.95985" lon="1.78033">
        <ele>264</ele>
        <time>2020-08-13T18:18:12.000Z</time>
      </trkpt>
      <trkpt lat="43.95987" lon="1.78032">
        <ele>263.79998779297</ele>
        <time>2020-08-13T18:18:13.000Z</time>
      </trkpt>
      <trkpt lat="43.9599" lon="1.78031">
        <ele>263.39999389648</ele>
        <time>2020-08-13T18:18:14.000Z</time>
      </trkpt>
      <trkpt lat="43.95992" lon="1.7803">
        <ele>262.79998779297</ele>
        <time>2020-08-13T18:18:15.000Z</time>
      </trkpt>
      <trkpt lat="43.95995" lon="1.78029">
        <ele>262.20001220703</ele>
        <time>2020-08-13T18:18:16.000Z</time>
      </trkpt>
      <trkpt lat="43.95998" lon="1.78027">
        <ele>261.79998779297</ele>
        <time>2020-08-13T18:18:17.000Z</time>
      </trkpt>
      <trkpt lat="43.96" lon="1.78026">
        <ele>261.20001220703</ele>
        <time>2020-08-13T18:18:18.000Z</time>
      </trkpt>
      <trkpt lat="43.96002" lon="1.78024">
        <ele>260.79998779297</ele>
        <time>2020-08-13T18:18:19.000Z</time>
      </trkpt>
      <trkpt lat="43.96005" lon="1.78022">
        <ele>260.60000610352</ele>
        <time>2020-08-13T18:18:20.000Z</time>
      </trkpt>
      <trkpt lat="43.96008" lon="1.78021">
        <ele>260.20001220703</ele>
        <time>2020-08-13T18:18:21.000Z</time>
      </trkpt>
      <trkpt lat="43.9601" lon="1.78019">
        <ele>260</ele>
        <time>2020-08-13T18:18:22.000Z</time>
      </trkpt>
      <trkpt lat="43.96013" lon="1.78019">
        <ele>259.20001220703</ele>
        <time>2020-08-13T18:18:23.000Z</time>
      </trkpt>
      <trkpt lat="43.96015" lon="1.78019">
        <ele>258.79998779297</ele>
        <time>2020-08-13T18:18:24.000Z</time>
      </trkpt>
      <trkpt lat="43.96016" lon="1.7802">
        <ele>258</ele>
        <time>2020-08-13T18:18:25.000Z</time>
      </trkpt>
      <trkpt lat="43.96017" lon="1.78022">
        <ele>257.20001220703</ele>
        <time>2020-08-13T18:18:26.000Z</time>
      </trkpt>
      <trkpt lat="43.96017" lon="1.78025">
        <ele>256.60000610352</ele>
        <time>2020-08-13T18:18:27.000Z</time>
      </trkpt>
      <trkpt lat="43.96017" lon="1.78028">
        <ele>256.20001220703</ele>
        <time>2020-08-13T18:18:28.000Z</time>
      </trkpt>
      <trkpt lat="43.96018" lon="1.78033">
        <ele>255.80000305176</ele>
        <time>2020-08-13T18:18:29.000Z</time>
      </trkpt>
      <trkpt lat="43.96018" lon="1.78038">
        <ele>255.39999389648</ele>
        <time>2020-08-13T18:18:30.000Z</time>
      </trkpt>
      <trkpt lat="43.96018" lon="1.78045">
        <ele>254.80000305176</ele>
        <time>2020-08-13T18:18:31.000Z</time>
      </trkpt>
      <trkpt lat="43.96019" lon="1.78051">
        <ele>254.19999694824</ele>
        <time>2020-08-13T18:18:32.000Z</time>
      </trkpt>
      <trkpt lat="43.96019" lon="1.78059">
        <ele>253.39999389648</ele>
        <time>2020-08-13T18:18:33.000Z</time>
      </trkpt>
      <trkpt lat="43.96019" lon="1.78067">
        <ele>252.19999694824</ele>
        <time>2020-08-13T18:18:34.000Z</time>
      </trkpt>
      <trkpt lat="43.9602" lon="1.78077">
        <ele>251.19999694824</ele>
        <time>2020-08-13T18:18:35.000Z</time>
      </trkpt>
      <trkpt lat="43.9602" lon="1.78086">
        <ele>250.39999389648</ele>
        <time>2020-08-13T18:18:36.000Z</time>
      </trkpt>
      <trkpt lat="43.9602" lon="1.78095">
        <ele>249.80000305176</ele>
        <time>2020-08-13T18:18:37.000Z</time>
      </trkpt>
      <trkpt lat="43.9602" lon="1.78106">
        <ele>248.80000305176</ele>
        <time>2020-08-13T18:18:38.000Z</time>
      </trkpt>
      <trkpt lat="43.96019" lon="1.78117">
        <ele>246.19999694824</ele>
        <time>2020-08-13T18:18:39.000Z</time>
      </trkpt>
      <trkpt lat="43.96019" lon="1.78127">
        <ele>245.19999694824</ele>
        <time>2020-08-13T18:18:40.000Z</time>
      </trkpt>
      <trkpt lat="43.96018" lon="1.78138">
        <ele>243.80000305176</ele>
        <time>2020-08-13T18:18:41.000Z</time>
      </trkpt>
      <trkpt lat="43.96016" lon="1.78154">
        <ele>242.60000610352</ele>
        <time>2020-08-13T18:18:42.000Z</time>
      </trkpt>
      <trkpt lat="43.96015" lon="1.78169">
        <ele>241.39999389648</ele>
        <time>2020-08-13T18:18:43.000Z</time>
      </trkpt>
      <trkpt lat="43.96013" lon="1.7818">
        <ele>240.19999694824</ele>
        <time>2020-08-13T18:18:44.000Z</time>
      </trkpt>
      <trkpt lat="43.96013" lon="1.78189">
        <ele>239.19999694824</ele>
        <time>2020-08-13T18:18:45.000Z</time>
      </trkpt>
      <trkpt lat="43.96012" lon="1.782">
        <ele>238.19999694824</ele>
        <time>2020-08-13T18:18:46.000Z</time>
      </trkpt>
      <trkpt lat="43.96011" lon="1.78208">
        <ele>237.39999389648</ele>
        <time>2020-08-13T18:18:47.000Z</time>
      </trkpt>
      <trkpt lat="43.96011" lon="1.78214">
        <ele>236.60000610352</ele>
        <time>2020-08-13T18:18:48.000Z</time>
      </trkpt>
      <trkpt lat="43.96011" lon="1.78219">
        <ele>235.80000305176</ele>
        <time>2020-08-13T18:18:49.000Z</time>
      </trkpt>
      <trkpt lat="43.96011" lon="1.78223">
        <ele>235.19999694824</ele>
        <time>2020-08-13T18:18:50.000Z</time>
      </trkpt>
      <trkpt lat="43.96011" lon="1.78227">
        <ele>234.19999694824</ele>
        <time>2020-08-13T18:18:51.000Z</time>
      </trkpt>
      <trkpt lat="43.96011" lon="1.78231">
        <ele>233.60000610352</ele>
        <time>2020-08-13T18:18:52.000Z</time>
      </trkpt>
      <trkpt lat="43.96011" lon="1.78235">
        <ele>233.39999389648</ele>
        <time>2020-08-13T18:18:53.000Z</time>
      </trkpt>
      <trkpt lat="43.96012" lon="1.78238">
        <ele>233</ele>
        <time>2020-08-13T18:18:54.000Z</time>
      </trkpt>
      <trkpt lat="43.96012" lon="1.78243">
        <ele>232.60000610352</ele>
        <time>2020-08-13T18:18:55.000Z</time>
      </trkpt>
      <trkpt lat="43.96013" lon="1.78245">
        <ele>232</ele>
        <time>2020-08-13T18:18:56.000Z</time>
      </trkpt>
      <trkpt lat="43.96015" lon="1.78245">
        <ele>231.60000610352</ele>
        <time>2020-08-13T18:18:57.000Z</time>
      </trkpt>
      <trkpt lat="43.96017" lon="1.78245">
        <ele>231</ele>
        <time>2020-08-13T18:18:58.000Z</time>
      </trkpt>
      <trkpt lat="43.96019" lon="1.78244">
        <ele>230.19999694824</ele>
        <time>2020-08-13T18:18:59.000Z</time>
      </trkpt>
      <trkpt lat="43.96021" lon="1.78244">
        <ele>229.60000610352</ele>
        <time>2020-08-13T18:19:00.000Z</time>
      </trkpt>
      <trkpt lat="43.96023" lon="1.78244">
        <ele>228.80000305176</ele>
        <time>2020-08-13T18:19:01.000Z</time>
      </trkpt>
      <trkpt lat="43.96026" lon="1.78245">
        <ele>228.39999389648</ele>
        <time>2020-08-13T18:19:02.000Z</time>
      </trkpt>
      <trkpt lat="43.96027" lon="1.78247">
        <ele>227.19999694824</ele>
        <time>2020-08-13T18:19:03.000Z</time>
      </trkpt>
      <trkpt lat="43.96029" lon="1.78252">
        <ele>226.39999389648</ele>
        <time>2020-08-13T18:19:04.000Z</time>
      </trkpt>
      <trkpt lat="43.96031" lon="1.78259">
        <ele>225.80000305176</ele>
        <time>2020-08-13T18:19:05.000Z</time>
      </trkpt>
      <trkpt lat="43.96033" lon="1.78266">
        <ele>225</ele>
        <time>2020-08-13T18:19:06.000Z</time>
      </trkpt>
      <trkpt lat="43.96035" lon="1.78273">
        <ele>224.39999389648</ele>
        <time>2020-08-13T18:19:07.000Z</time>
      </trkpt>
      <trkpt lat="43.96038" lon="1.78279">
        <ele>223.60000610352</ele>
        <time>2020-08-13T18:19:08.000Z</time>
      </trkpt>
      <trkpt lat="43.96041" lon="1.78284">
        <ele>222.80000305176</ele>
        <time>2020-08-13T18:19:09.000Z</time>
      </trkpt>
      <trkpt lat="43.96045" lon="1.78288">
        <ele>222.19999694824</ele>
        <time>2020-08-13T18:19:10.000Z</time>
      </trkpt>
      <trkpt lat="43.96048" lon="1.78291">
        <ele>221.39999389648</ele>
        <time>2020-08-13T18:19:11.000Z</time>
      </trkpt>
      <trkpt lat="43.96052" lon="1.78294">
        <ele>220.19999694824</ele>
        <time>2020-08-13T18:19:12.000Z</time>
      </trkpt>
      <trkpt lat="43.96057" lon="1.78297">
        <ele>219.60000610352</ele>
        <time>2020-08-13T18:19:13.000Z</time>
      </trkpt>
      <trkpt lat="43.96061" lon="1.783">
        <ele>219</ele>
        <time>2020-08-13T18:19:14.000Z</time>
      </trkpt>
      <trkpt lat="43.96064" lon="1.78304">
        <ele>218.80000305176</ele>
        <time>2020-08-13T18:19:15.000Z</time>
      </trkpt>
      <trkpt lat="43.96067" lon="1.78306">
        <ele>218.39999389648</ele>
        <time>2020-08-13T18:19:16.000Z</time>
      </trkpt>
      <trkpt lat="43.96068" lon="1.78308">
        <ele>218</ele>
        <time>2020-08-13T18:19:17.000Z</time>
      </trkpt>
      <trkpt lat="43.96068" lon="1.78307">
        <ele>217.80000305176</ele>
        <time>2020-08-13T18:19:18.000Z</time>
      </trkpt>
      <trkpt lat="43.9607" lon="1.78309">
        <ele>217.60000610352</ele>
        <time>2020-08-13T18:19:19.000Z</time>
      </trkpt>
      <trkpt lat="43.9607" lon="1.78309">
        <ele>217.39999389648</ele>
        <time>2020-08-13T18:19:20.000Z</time>
      </trkpt>
      <trkpt lat="43.9607" lon="1.78309">
        <ele>217.19999694824</ele>
        <time>2020-08-13T18:19:21.000Z</time>
      </trkpt>
      <trkpt lat="43.9607" lon="1.78309">
        <ele>217</ele>
        <time>2020-08-13T18:19:22.000Z</time>
      </trkpt>
      <trkpt lat="43.9607" lon="1.78309">
        <ele>217</ele>
        <time>2020-08-13T18:19:23.000Z</time>
      </trkpt>
      <trkpt lat="43.9607" lon="1.78309">
        <ele>216.80000305176</ele>
        <time>2020-08-13T18:19:24.000Z</time>
      </trkpt>
      <trkpt lat="43.9607" lon="1.78309">
        <ele>217</ele>
        <time>2020-08-13T18:19:25.000Z</time>
      </trkpt>
      <trkpt lat="43.9607" lon="1.78309">
        <ele>217</ele>
        <time>2020-08-13T18:19:26.000Z</time>
      </trkpt>
      <trkpt lat="43.9607" lon="1.78309">
        <ele>217</ele>
        <time>2020-08-13T18:19:27.000Z</time>
      </trkpt>
      <trkpt lat="43.9607" lon="1.78309">
        <ele>217</ele>
        <time>2020-08-13T18:19:28.000Z</time>
      </trkpt>
      <trkpt lat="43.9607" lon="1.78309">
        <ele>217</ele>
        <time>2020-08-13T18:19:29.000Z</time>
      </trkpt>
      <trkpt lat="43.9607" lon="1.78309">
        <ele>217</ele>
        <time>2020-08-13T18:19:30.000Z</time>
      </trkpt>
      <trkpt lat="43.9607" lon="1.78309">
        <ele>217</ele>
        <time>2020-08-13T18:19:31.000Z</time>
      </trkpt>
      <trkpt lat="43.9607" lon="1.78309">
        <ele>217</ele>
        <time>2020-08-13T18:19:32.000Z</time>
      </trkpt>
      <trkpt lat="43.9607" lon="1.78309">
        <ele>217</ele>
        <time>2020-08-13T18:19:33.000Z</time>
      </trkpt>
      <trkpt lat="43.9607" lon="1.78309">
        <ele>217</ele>
        <time>2020-08-13T18:19:34.000Z</time>
      </trkpt>
      <trkpt lat="43.9607" lon="1.78309">
        <ele>217</ele>
        <time>2020-08-13T18:19:35.000Z</time>
      </trkpt>
      <trkpt lat="43.9607" lon="1.78309">
        <ele>217</ele>
        <time>2020-08-13T18:19:36.000Z</time>
      </trkpt>
      <trkpt lat="43.9607" lon="1.78309">
        <ele>217</ele>
        <time>2020-08-13T18:19:37.000Z</time>
      </trkpt>
      <trkpt lat="43.9607" lon="1.78309">
        <ele>217</ele>
        <time>2020-08-13T18:19:38.000Z</time>
      </trkpt>
      <trkpt lat="43.9607" lon="1.78309">
        <ele>217</ele>
        <time>2020-08-13T18:19:39.000Z</time>
      </trkpt>
      <trkpt lat="43.9607" lon="1.78309">
        <ele>217</ele>
        <time>2020-08-13T18:19:40.000Z</time>
      </trkpt>
      <trkpt lat="43.9607" lon="1.78309">
        <ele>217</ele>
        <time>2020-08-13T18:19:41.000Z</time>
      </trkpt>
      <trkpt lat="43.9607" lon="1.78309">
        <ele>217</ele>
        <time>2020-08-13T18:19:42.000Z</time>
      </trkpt>
      <trkpt lat="43.9607" lon="1.78309">
        <ele>217</ele>
        <time>2020-08-13T18:19:43.000Z</time>
      </trkpt>
      <trkpt lat="43.9607" lon="1.78309">
        <ele>217</ele>
        <time>2020-08-13T18:19:44.000Z</time>
      </trkpt>
      <trkpt lat="43.9607" lon="1.78309">
        <ele>217</ele>
        <time>2020-08-13T18:19:45.000Z</time>
      </trkpt>
      <trkpt lat="43.9607" lon="1.78309">
        <ele>217</ele>
        <time>2020-08-13T18:19:46.000Z</time>
      </trkpt>
      <trkpt lat="43.9607" lon="1.78309">
        <ele>217</ele>
        <time>2020-08-13T18:19:47.000Z</time>
      </trkpt>
      <trkpt lat="43.9607" lon="1.78309">
        <ele>217</ele>
        <time>2020-08-13T18:19:48.000Z</time>
      </trkpt>
      <trkpt lat="43.9607" lon="1.78309">
        <ele>217</ele>
        <time>2020-08-13T18:19:49.000Z</time>
      </trkpt>
      <trkpt lat="43.9607" lon="1.78309">
        <ele>217</ele>
        <time>2020-08-13T18:19:50.000Z</time>
      </trkpt>
      <trkpt lat="43.9607" lon="1.78309">
        <ele>217</ele>
        <time>2020-08-13T18:19:51.000Z</time>
      </trkpt>
      <trkpt lat="43.9607" lon="1.78309">
        <ele>216.80000305176</ele>
        <time>2020-08-13T18:19:52.000Z</time>
      </trkpt>
      <trkpt lat="43.9607" lon="1.78309">
        <ele>216.80000305176</ele>
        <time>2020-08-13T18:19:53.000Z</time>
      </trkpt>
      <trkpt lat="43.9607" lon="1.78309">
        <ele>217</ele>
        <time>2020-08-13T18:19:54.000Z</time>
      </trkpt>
      <trkpt lat="43.9607" lon="1.78309">
        <ele>217</ele>
        <time>2020-08-13T18:19:55.000Z</time>
      </trkpt>
      <trkpt lat="43.9607" lon="1.78309">
        <ele>217</ele>
        <time>2020-08-13T18:19:56.000Z</time>
      </trkpt>
      <trkpt lat="43.9607" lon="1.78309">
        <ele>217</ele>
        <time>2020-08-13T18:19:57.000Z</time>
      </trkpt>
      <trkpt lat="43.9607" lon="1.78309">
        <ele>217</ele>
        <time>2020-08-13T18:19:58.000Z</time>
      </trkpt>
      <trkpt lat="43.96071" lon="1.7831">
        <ele>217</ele>
        <time>2020-08-13T18:19:59.000Z</time>
      </trkpt>
      <trkpt lat="43.96071" lon="1.7831">
        <ele>217</ele>
        <time>2020-08-13T18:20:00.000Z</time>
      </trkpt>
      <trkpt lat="43.96071" lon="1.7831">
        <ele>217</ele>
        <time>2020-08-13T18:20:01.000Z</time>
      </trkpt>
      <trkpt lat="43.96071" lon="1.7831">
        <ele>217</ele>
        <time>2020-08-13T18:20:02.000Z</time>
      </trkpt>
      <trkpt lat="43.96071" lon="1.7831">
        <ele>217</ele>
        <time>2020-08-13T18:20:03.000Z</time>
      </trkpt>
      <trkpt lat="43.96071" lon="1.7831">
        <ele>217</ele>
        <time>2020-08-13T18:20:04.000Z</time>
      </trkpt>
      <trkpt lat="43.96071" lon="1.7831">
        <ele>217</ele>
        <time>2020-08-13T18:20:05.000Z</time>
      </trkpt>
      <trkpt lat="43.96071" lon="1.7831">
        <ele>217</ele>
        <time>2020-08-13T18:20:06.000Z</time>
      </trkpt>
      <trkpt lat="43.96071" lon="1.7831">
        <ele>217</ele>
        <time>2020-08-13T18:20:07.000Z</time>
      </trkpt>
      <trkpt lat="43.96071" lon="1.7831">
        <ele>217</ele>
        <time>2020-08-13T18:20:08.000Z</time>
      </trkpt>
      <trkpt lat="43.96071" lon="1.7831">
        <ele>217</ele>
        <time>2020-08-13T18:20:09.000Z</time>
      </trkpt>
      <trkpt lat="43.96071" lon="1.7831">
        <ele>216.80000305176</ele>
        <time>2020-08-13T18:20:10.000Z</time>
      </trkpt>
      <trkpt lat="43.96071" lon="1.7831">
        <ele>216.80000305176</ele>
        <time>2020-08-13T18:20:11.000Z</time>
      </trkpt>
      <trkpt lat="43.96071" lon="1.7831">
        <ele>216.80000305176</ele>
        <time>2020-08-13T18:20:12.000Z</time>
      </trkpt>
      <trkpt lat="43.96071" lon="1.7831">
        <ele>217</ele>
        <time>2020-08-13T18:20:13.000Z</time>
      </trkpt>
      <trkpt lat="43.96071" lon="1.7831">
        <ele>217</ele>
        <time>2020-08-13T18:20:14.000Z</time>
      </trkpt>
      <trkpt lat="43.96071" lon="1.7831">
        <ele>217</ele>
        <time>2020-08-13T18:20:15.000Z</time>
      </trkpt>
      <trkpt lat="43.96071" lon="1.7831">
        <ele>217</ele>
        <time>2020-08-13T18:20:16.000Z</time>
      </trkpt>
      <trkpt lat="43.96071" lon="1.7831">
        <ele>217</ele>
        <time>2020-08-13T18:20:17.000Z</time>
      </trkpt>
      <trkpt lat="43.96071" lon="1.7831">
        <ele>217</ele>
        <time>2020-08-13T18:20:18.000Z</time>
      </trkpt>
      <trkpt lat="43.96071" lon="1.7831">
        <ele>217</ele>
        <time>2020-08-13T18:20:19.000Z</time>
      </trkpt>
      <trkpt lat="43.96071" lon="1.7831">
        <ele>217</ele>
        <time>2020-08-13T18:20:20.000Z</time>
      </trkpt>
      <trkpt lat="43.96071" lon="1.7831">
        <ele>217</ele>
        <time>2020-08-13T18:20:21.000Z</time>
      </trkpt>
      <trkpt lat="43.96071" lon="1.7831">
        <ele>216.80000305176</ele>
        <time>2020-08-13T18:20:22.000Z</time>
      </trkpt>
      <trkpt lat="43.96071" lon="1.7831">
        <ele>217</ele>
        <time>2020-08-13T18:20:23.000Z</time>
      </trkpt>
      <trkpt lat="43.96071" lon="1.7831">
        <ele>217</ele>
        <time>2020-08-13T18:20:24.000Z</time>
      </trkpt>
      <trkpt lat="43.96071" lon="1.7831">
        <ele>217</ele>
        <time>2020-08-13T18:20:25.000Z</time>
      </trkpt>
      <trkpt lat="43.96071" lon="1.7831">
        <ele>217</ele>
        <time>2020-08-13T18:20:26.000Z</time>
      </trkpt>
      <trkpt lat="43.96071" lon="1.7831">
        <ele>217</ele>
        <time>2020-08-13T18:20:27.000Z</time>
      </trkpt>
      <trkpt lat="43.96071" lon="1.7831">
        <ele>217</ele>
        <time>2020-08-13T18:20:28.000Z</time>
      </trkpt>
      <trkpt lat="43.96071" lon="1.7831">
        <ele>217</ele>
        <time>2020-08-13T18:20:29.000Z</time>
      </trkpt>
      <trkpt lat="43.96071" lon="1.7831">
        <ele>217</ele>
        <time>2020-08-13T18:20:30.000Z</time>
      </trkpt>
      <trkpt lat="43.96071" lon="1.7831">
        <ele>217</ele>
        <time>2020-08-13T18:20:31.000Z</time>
      </trkpt>
      <trkpt lat="43.96071" lon="1.7831">
        <ele>217</ele>
        <time>2020-08-13T18:20:32.000Z</time>
      </trkpt>
      <trkpt lat="43.96071" lon="1.7831">
        <ele>217</ele>
        <time>2020-08-13T18:20:33.000Z</time>
      </trkpt>
      <trkpt lat="43.96071" lon="1.7831">
        <ele>217</ele>
        <time>2020-08-13T18:20:34.000Z</time>
      </trkpt>
      <trkpt lat="43.96071" lon="1.78309">
        <ele>217.19999694824</ele>
        <time>2020-08-13T18:20:35.000Z</time>
      </trkpt>
      <trkpt lat="43.96072" lon="1.78309">
        <ele>217.60000610352</ele>
        <time>2020-08-13T18:20:36.000Z</time>
      </trkpt>
      <trkpt lat="43.96072" lon="1.78309">
        <ele>217.80000305176</ele>
        <time>2020-08-13T18:20:37.000Z</time>
      </trkpt>
      <trkpt lat="43.96072" lon="1.78309">
        <ele>217.80000305176</ele>
        <time>2020-08-13T18:20:38.000Z</time>
      </trkpt>
      <trkpt lat="43.96072" lon="1.78309">
        <ele>217.80000305176</ele>
        <time>2020-08-13T18:20:39.000Z</time>
      </trkpt>
      <trkpt lat="43.96074" lon="1.7831">
        <ele>218</ele>
        <time>2020-08-13T18:20:40.000Z</time>
      </trkpt>
      <trkpt lat="43.96077" lon="1.78311">
        <ele>217.80000305176</ele>
        <time>2020-08-13T18:20:41.000Z</time>
      </trkpt>
      <trkpt lat="43.96079" lon="1.78313">
        <ele>217.60000610352</ele>
        <time>2020-08-13T18:20:42.000Z</time>
      </trkpt>
      <trkpt lat="43.96082" lon="1.78313">
        <ele>217.19999694824</ele>
        <time>2020-08-13T18:20:43.000Z</time>
      </trkpt>
      <trkpt lat="43.96084" lon="1.78315">
        <ele>217</ele>
        <time>2020-08-13T18:20:44.000Z</time>
      </trkpt>
      <trkpt lat="43.96087" lon="1.78317">
        <ele>216.60000610352</ele>
        <time>2020-08-13T18:20:45.000Z</time>
      </trkpt>
      <trkpt lat="43.9609" lon="1.78321">
        <ele>216.39999389648</ele>
        <time>2020-08-13T18:20:46.000Z</time>
      </trkpt>
      <trkpt lat="43.96093" lon="1.78324">
        <ele>216.19999694824</ele>
        <time>2020-08-13T18:20:47.000Z</time>
      </trkpt>
      <trkpt lat="43.96095" lon="1.7833">
        <ele>216</ele>
        <time>2020-08-13T18:20:48.000Z</time>
      </trkpt>
      <trkpt lat="43.96097" lon="1.78337">
        <ele>215.80000305176</ele>
        <time>2020-08-13T18:20:49.000Z</time>
      </trkpt>
      <trkpt lat="43.96099" lon="1.78344">
        <ele>215.60000610352</ele>
        <time>2020-08-13T18:20:50.000Z</time>
      </trkpt>
      <trkpt lat="43.96101" lon="1.78353">
        <ele>214.80000305176</ele>
        <time>2020-08-13T18:20:51.000Z</time>
      </trkpt>
      <trkpt lat="43.96103" lon="1.78361">
        <ele>214.19999694824</ele>
        <time>2020-08-13T18:20:52.000Z</time>
      </trkpt>
      <trkpt lat="43.96106" lon="1.78369">
        <ele>212.80000305176</ele>
        <time>2020-08-13T18:20:53.000Z</time>
      </trkpt>
      <trkpt lat="43.96109" lon="1.78379">
        <ele>212</ele>
        <time>2020-08-13T18:20:54.000Z</time>
      </trkpt>
      <trkpt lat="43.96112" lon="1.78389">
        <ele>211.60000610352</ele>
        <time>2020-08-13T18:20:55.000Z</time>
      </trkpt>
      <trkpt lat="43.96116" lon="1.78399">
        <ele>210.80000305176</ele>
        <time>2020-08-13T18:20:56.000Z</time>
      </trkpt>
      <trkpt lat="43.9612" lon="1.78409">
        <ele>209.80000305176</ele>
        <time>2020-08-13T18:20:57.000Z</time>
      </trkpt>
      <trkpt lat="43.96125" lon="1.78418">
        <ele>208.80000305176</ele>
        <time>2020-08-13T18:20:58.000Z</time>
      </trkpt>
      <trkpt lat="43.9613" lon="1.78427">
        <ele>207.80000305176</ele>
        <time>2020-08-13T18:20:59.000Z</time>
      </trkpt>
      <trkpt lat="43.96134" lon="1.78436">
        <ele>207.19999694824</ele>
        <time>2020-08-13T18:21:00.000Z</time>
      </trkpt>
      <trkpt lat="43.96138" lon="1.78445">
        <ele>206.19999694824</ele>
        <time>2020-08-13T18:21:01.000Z</time>
      </trkpt>
      <trkpt lat="43.96142" lon="1.78453">
        <ele>206</ele>
        <time>2020-08-13T18:21:02.000Z</time>
      </trkpt>
      <trkpt lat="43.96147" lon="1.78461">
        <ele>205.60000610352</ele>
        <time>2020-08-13T18:21:03.000Z</time>
      </trkpt>
      <trkpt lat="43.96152" lon="1.7847">
        <ele>204.80000305176</ele>
        <time>2020-08-13T18:21:04.000Z</time>
      </trkpt>
      <trkpt lat="43.96157" lon="1.78479">
        <ele>204.39999389648</ele>
        <time>2020-08-13T18:21:05.000Z</time>
      </trkpt>
      <trkpt lat="43.96162" lon="1.78488">
        <ele>203.80000305176</ele>
        <time>2020-08-13T18:21:06.000Z</time>
      </trkpt>
      <trkpt lat="43.96168" lon="1.78497">
        <ele>203.39999389648</ele>
        <time>2020-08-13T18:21:07.000Z</time>
      </trkpt>
      <trkpt lat="43.96175" lon="1.78505">
        <ele>202.80000305176</ele>
        <time>2020-08-13T18:21:08.000Z</time>
      </trkpt>
      <trkpt lat="43.96181" lon="1.78512">
        <ele>202.39999389648</ele>
        <time>2020-08-13T18:21:09.000Z</time>
      </trkpt>
      <trkpt lat="43.96187" lon="1.78519">
        <ele>202.60000610352</ele>
        <time>2020-08-13T18:21:10.000Z</time>
      </trkpt>
      <trkpt lat="43.96192" lon="1.78525">
        <ele>202.80000305176</ele>
        <time>2020-08-13T18:21:11.000Z</time>
      </trkpt>
      <trkpt lat="43.96199" lon="1.78532">
        <ele>202.80000305176</ele>
        <time>2020-08-13T18:21:12.000Z</time>
      </trkpt>
      <trkpt lat="43.96205" lon="1.78537">
        <ele>202.80000305176</ele>
        <time>2020-08-13T18:21:13.000Z</time>
      </trkpt>
      <trkpt lat="43.96212" lon="1.7854">
        <ele>202.39999389648</ele>
        <time>2020-08-13T18:21:14.000Z</time>
      </trkpt>
      <trkpt lat="43.96218" lon="1.78544">
        <ele>202.39999389648</ele>
        <time>2020-08-13T18:21:15.000Z</time>
      </trkpt>
      <trkpt lat="43.96224" lon="1.78548">
        <ele>201.80000305176</ele>
        <time>2020-08-13T18:21:16.000Z</time>
      </trkpt>
      <trkpt lat="43.96231" lon="1.78551">
        <ele>201.39999389648</ele>
        <time>2020-08-13T18:21:17.000Z</time>
      </trkpt>
      <trkpt lat="43.96237" lon="1.78555">
        <ele>200.60000610352</ele>
        <time>2020-08-13T18:21:18.000Z</time>
      </trkpt>
      <trkpt lat="43.96243" lon="1.78557">
        <ele>200</ele>
        <time>2020-08-13T18:21:19.000Z</time>
      </trkpt>
      <trkpt lat="43.96249" lon="1.78559">
        <ele>199.39999389648</ele>
        <time>2020-08-13T18:21:20.000Z</time>
      </trkpt>
      <trkpt lat="43.96255" lon="1.78561">
        <ele>199.19999694824</ele>
        <time>2020-08-13T18:21:21.000Z</time>
      </trkpt>
      <trkpt lat="43.96261" lon="1.78563">
        <ele>199</ele>
        <time>2020-08-13T18:21:22.000Z</time>
      </trkpt>
      <trkpt lat="43.96268" lon="1.78565">
        <ele>198.60000610352</ele>
        <time>2020-08-13T18:21:23.000Z</time>
      </trkpt>
      <trkpt lat="43.96274" lon="1.78567">
        <ele>198</ele>
        <time>2020-08-13T18:21:24.000Z</time>
      </trkpt>
      <trkpt lat="43.96281" lon="1.78568">
        <ele>197.60000610352</ele>
        <time>2020-08-13T18:21:25.000Z</time>
      </trkpt>
      <trkpt lat="43.96289" lon="1.78572">
        <ele>197.19999694824</ele>
        <time>2020-08-13T18:21:26.000Z</time>
      </trkpt>
      <trkpt lat="43.96296" lon="1.78572">
        <ele>196.80000305176</ele>
        <time>2020-08-13T18:21:27.000Z</time>
      </trkpt>
      <trkpt lat="43.96303" lon="1.78571">
        <ele>195.60000610352</ele>
        <time>2020-08-13T18:21:28.000Z</time>
      </trkpt>
      <trkpt lat="43.9631" lon="1.7857">
        <ele>194.60000610352</ele>
        <time>2020-08-13T18:21:29.000Z</time>
      </trkpt>
      <trkpt lat="43.96317" lon="1.78567">
        <ele>194.19999694824</ele>
        <time>2020-08-13T18:21:30.000Z</time>
      </trkpt>
      <trkpt lat="43.96324" lon="1.78565">
        <ele>193.39999389648</ele>
        <time>2020-08-13T18:21:31.000Z</time>
      </trkpt>
      <trkpt lat="43.96333" lon="1.78564">
        <ele>192.80000305176</ele>
        <time>2020-08-13T18:21:32.000Z</time>
      </trkpt>
      <trkpt lat="43.96341" lon="1.78563">
        <ele>191.80000305176</ele>
        <time>2020-08-13T18:21:33.000Z</time>
      </trkpt>
      <trkpt lat="43.96349" lon="1.78562">
        <ele>190.80000305176</ele>
        <time>2020-08-13T18:21:34.000Z</time>
      </trkpt>
      <trkpt lat="43.96358" lon="1.7856">
        <ele>189.19999694824</ele>
        <time>2020-08-13T18:21:35.000Z</time>
      </trkpt>
      <trkpt lat="43.96366" lon="1.78559">
        <ele>187.80000305176</ele>
        <time>2020-08-13T18:21:36.000Z</time>
      </trkpt>
      <trkpt lat="43.96375" lon="1.78559">
        <ele>186</ele>
        <time>2020-08-13T18:21:37.000Z</time>
      </trkpt>
      <trkpt lat="43.96384" lon="1.7856">
        <ele>184.39999389648</ele>
        <time>2020-08-13T18:21:38.000Z</time>
      </trkpt>
      <trkpt lat="43.96393" lon="1.78563">
        <ele>182.80000305176</ele>
        <time>2020-08-13T18:21:39.000Z</time>
      </trkpt>
      <trkpt lat="43.96402" lon="1.78567">
        <ele>181.60000610352</ele>
        <time>2020-08-13T18:21:40.000Z</time>
      </trkpt>
      <trkpt lat="43.96412" lon="1.78572">
        <ele>180.80000305176</ele>
        <time>2020-08-13T18:21:41.000Z</time>
      </trkpt>
      <trkpt lat="43.9642" lon="1.78579">
        <ele>179.80000305176</ele>
        <time>2020-08-13T18:21:42.000Z</time>
      </trkpt>
      <trkpt lat="43.96428" lon="1.78588">
        <ele>179.39999389648</ele>
        <time>2020-08-13T18:21:43.000Z</time>
      </trkpt>
      <trkpt lat="43.96435" lon="1.78598">
        <ele>179.19999694824</ele>
        <time>2020-08-13T18:21:44.000Z</time>
      </trkpt>
      <trkpt lat="43.96443" lon="1.78607">
        <ele>178.60000610352</ele>
        <time>2020-08-13T18:21:45.000Z</time>
      </trkpt>
      <trkpt lat="43.96451" lon="1.78616">
        <ele>177.39999389648</ele>
        <time>2020-08-13T18:21:46.000Z</time>
      </trkpt>
      <trkpt lat="43.96458" lon="1.78626">
        <ele>176.19999694824</ele>
        <time>2020-08-13T18:21:47.000Z</time>
      </trkpt>
      <trkpt lat="43.96462" lon="1.78637">
        <ele>174.60000610352</ele>
        <time>2020-08-13T18:21:48.000Z</time>
      </trkpt>
      <trkpt lat="43.96465" lon="1.78646">
        <ele>173.39999389648</ele>
        <time>2020-08-13T18:21:49.000Z</time>
      </trkpt>
      <trkpt lat="43.96466" lon="1.78654">
        <ele>172</ele>
        <time>2020-08-13T18:21:50.000Z</time>
      </trkpt>
      <trkpt lat="43.96465" lon="1.78659">
        <ele>171.39999389648</ele>
        <time>2020-08-13T18:21:51.000Z</time>
      </trkpt>
      <trkpt lat="43.96465" lon="1.78662">
        <ele>170.80000305176</ele>
        <time>2020-08-13T18:21:52.000Z</time>
      </trkpt>
      <trkpt lat="43.96465" lon="1.78666">
        <ele>170.60000610352</ele>
        <time>2020-08-13T18:21:53.000Z</time>
      </trkpt>
      <trkpt lat="43.96464" lon="1.7867">
        <ele>170.39999389648</ele>
        <time>2020-08-13T18:21:54.000Z</time>
      </trkpt>
      <trkpt lat="43.96464" lon="1.78673">
        <ele>170.39999389648</ele>
        <time>2020-08-13T18:21:55.000Z</time>
      </trkpt>
      <trkpt lat="43.96463" lon="1.78675">
        <ele>170.39999389648</ele>
        <time>2020-08-13T18:21:56.000Z</time>
      </trkpt>
      <trkpt lat="43.96463" lon="1.78675">
        <ele>170.39999389648</ele>
        <time>2020-08-13T18:21:57.000Z</time>
      </trkpt>
      <trkpt lat="43.96462" lon="1.78677">
        <ele>170.39999389648</ele>
        <time>2020-08-13T18:21:58.000Z</time>
      </trkpt>
      <trkpt lat="43.96462" lon="1.78677">
        <ele>170.39999389648</ele>
        <time>2020-08-13T18:21:59.000Z</time>
      </trkpt>
      <trkpt lat="43.96462" lon="1.78677">
        <ele>170.39999389648</ele>
        <time>2020-08-13T18:22:00.000Z</time>
      </trkpt>
      <trkpt lat="43.96462" lon="1.78677">
        <ele>170.39999389648</ele>
        <time>2020-08-13T18:22:01.000Z</time>
      </trkpt>
      <trkpt lat="43.96463" lon="1.78678">
        <ele>170.39999389648</ele>
        <time>2020-08-13T18:22:02.000Z</time>
      </trkpt>
      <trkpt lat="43.96463" lon="1.78678">
        <ele>170.39999389648</ele>
        <time>2020-08-13T18:22:03.000Z</time>
      </trkpt>
      <trkpt lat="43.96463" lon="1.78678">
        <ele>170.39999389648</ele>
        <time>2020-08-13T18:22:04.000Z</time>
      </trkpt>
      <trkpt lat="43.96463" lon="1.78678">
        <ele>170.39999389648</ele>
        <time>2020-08-13T18:22:05.000Z</time>
      </trkpt>
      <trkpt lat="43.96463" lon="1.78678">
        <ele>170.39999389648</ele>
        <time>2020-08-13T18:22:06.000Z</time>
      </trkpt>
      <trkpt lat="43.96463" lon="1.78678">
        <ele>170.39999389648</ele>
        <time>2020-08-13T18:22:07.000Z</time>
      </trkpt>
      <trkpt lat="43.96463" lon="1.78678">
        <ele>170.39999389648</ele>
        <time>2020-08-13T18:22:08.000Z</time>
      </trkpt>
      <trkpt lat="43.96463" lon="1.78678">
        <ele>170.39999389648</ele>
        <time>2020-08-13T18:22:09.000Z</time>
      </trkpt>
      <trkpt lat="43.96463" lon="1.78678">
        <ele>170.39999389648</ele>
        <time>2020-08-13T18:22:10.000Z</time>
      </trkpt>
      <trkpt lat="43.96463" lon="1.78678">
        <ele>170.39999389648</ele>
        <time>2020-08-13T18:22:11.000Z</time>
      </trkpt>
      <trkpt lat="43.96463" lon="1.78678">
        <ele>170.39999389648</ele>
        <time>2020-08-13T18:22:12.000Z</time>
      </trkpt>
      <trkpt lat="43.96463" lon="1.78678">
        <ele>170.39999389648</ele>
        <time>2020-08-13T18:22:13.000Z</time>
      </trkpt>
      <trkpt lat="43.96463" lon="1.78678">
        <ele>170.39999389648</ele>
        <time>2020-08-13T18:22:14.000Z</time>
      </trkpt>
      <trkpt lat="43.96463" lon="1.78678">
        <ele>170.39999389648</ele>
        <time>2020-08-13T18:22:15.000Z</time>
      </trkpt>
      <trkpt lat="43.96463" lon="1.78678">
        <ele>170.39999389648</ele>
        <time>2020-08-13T18:22:16.000Z</time>
      </trkpt>
      <trkpt lat="43.96463" lon="1.78678">
        <ele>170.39999389648</ele>
        <time>2020-08-13T18:22:17.000Z</time>
      </trkpt>
      <trkpt lat="43.96463" lon="1.78678">
        <ele>170.39999389648</ele>
        <time>2020-08-13T18:22:18.000Z</time>
      </trkpt>
      <trkpt lat="43.96463" lon="1.78678">
        <ele>170.39999389648</ele>
        <time>2020-08-13T18:22:19.000Z</time>
      </trkpt>
      <trkpt lat="43.96463" lon="1.78678">
        <ele>170.39999389648</ele>
        <time>2020-08-13T18:22:20.000Z</time>
      </trkpt>
      <trkpt lat="43.96464" lon="1.78679">
        <ele>170.39999389648</ele>
        <time>2020-08-13T18:22:21.000Z</time>
      </trkpt>
      <trkpt lat="43.96466" lon="1.78681">
        <ele>170.39999389648</ele>
        <time>2020-08-13T18:22:22.000Z</time>
      </trkpt>
      <trkpt lat="43.96468" lon="1.7868">
        <ele>170.19999694824</ele>
        <time>2020-08-13T18:22:23.000Z</time>
      </trkpt>
      <trkpt lat="43.96469" lon="1.7868">
        <ele>170</ele>
        <time>2020-08-13T18:22:24.000Z</time>
      </trkpt>
      <trkpt lat="43.9647" lon="1.78679">
        <ele>170</ele>
        <time>2020-08-13T18:22:25.000Z</time>
      </trkpt>
      <trkpt lat="43.96472" lon="1.78679">
        <ele>169.80000305176</ele>
        <time>2020-08-13T18:22:26.000Z</time>
      </trkpt>
      <trkpt lat="43.96473" lon="1.78679">
        <ele>169.80000305176</ele>
        <time>2020-08-13T18:22:27.000Z</time>
      </trkpt>
      <trkpt lat="43.96474" lon="1.78678">
        <ele>169.80000305176</ele>
        <time>2020-08-13T18:22:28.000Z</time>
      </trkpt>
      <trkpt lat="43.96475" lon="1.78677">
        <ele>169.80000305176</ele>
        <time>2020-08-13T18:22:29.000Z</time>
      </trkpt>
      <trkpt lat="43.96477" lon="1.78677">
        <ele>169.60000610352</ele>
        <time>2020-08-13T18:22:30.000Z</time>
      </trkpt>
      <trkpt lat="43.96478" lon="1.78677">
        <ele>169.60000610352</ele>
        <time>2020-08-13T18:22:31.000Z</time>
      </trkpt>
      <trkpt lat="43.96479" lon="1.78676">
        <ele>169.39999389648</ele>
        <time>2020-08-13T18:22:32.000Z</time>
      </trkpt>
      <trkpt lat="43.96479" lon="1.78676">
        <ele>169.39999389648</ele>
        <time>2020-08-13T18:22:33.000Z</time>
      </trkpt>
      <trkpt lat="43.96479" lon="1.78676">
        <ele>169.39999389648</ele>
        <time>2020-08-13T18:22:34.000Z</time>
      </trkpt>
      <trkpt lat="43.96479" lon="1.78676">
        <ele>169.39999389648</ele>
        <time>2020-08-13T18:22:35.000Z</time>
      </trkpt>
      <trkpt lat="43.96479" lon="1.78676">
        <ele>169.39999389648</ele>
        <time>2020-08-13T18:22:36.000Z</time>
      </trkpt>
      <trkpt lat="43.96479" lon="1.78676">
        <ele>169.19999694824</ele>
        <time>2020-08-13T18:22:37.000Z</time>
      </trkpt>
      <trkpt lat="43.96479" lon="1.78676">
        <ele>169.19999694824</ele>
        <time>2020-08-13T18:22:38.000Z</time>
      </trkpt>
      <trkpt lat="43.96479" lon="1.78676">
        <ele>169.19999694824</ele>
        <time>2020-08-13T18:22:39.000Z</time>
      </trkpt>
      <trkpt lat="43.96479" lon="1.78676">
        <ele>169.19999694824</ele>
        <time>2020-08-13T18:22:40.000Z</time>
      </trkpt>
      <trkpt lat="43.96479" lon="1.78676">
        <ele>169.39999389648</ele>
        <time>2020-08-13T18:22:41.000Z</time>
      </trkpt>
      <trkpt lat="43.96479" lon="1.78676">
        <ele>169.19999694824</ele>
        <time>2020-08-13T18:22:42.000Z</time>
      </trkpt>
      <trkpt lat="43.96479" lon="1.78676">
        <ele>169.19999694824</ele>
        <time>2020-08-13T18:22:43.000Z</time>
      </trkpt>
      <trkpt lat="43.96479" lon="1.78676">
        <ele>169.19999694824</ele>
        <time>2020-08-13T18:22:44.000Z</time>
      </trkpt>
      <trkpt lat="43.96479" lon="1.78676">
        <ele>169.39999389648</ele>
        <time>2020-08-13T18:22:45.000Z</time>
      </trkpt>
      <trkpt lat="43.96479" lon="1.78676">
        <ele>169.39999389648</ele>
        <time>2020-08-13T18:22:46.000Z</time>
      </trkpt>
      <trkpt lat="43.96479" lon="1.78676">
        <ele>169.19999694824</ele>
        <time>2020-08-13T18:22:47.000Z</time>
      </trkpt>
      <trkpt lat="43.96479" lon="1.78676">
        <ele>169.19999694824</ele>
        <time>2020-08-13T18:22:48.000Z</time>
      </trkpt>
      <trkpt lat="43.96479" lon="1.78676">
        <ele>169.19999694824</ele>
        <time>2020-08-13T18:22:49.000Z</time>
      </trkpt>
      <trkpt lat="43.96479" lon="1.78676">
        <ele>169.19999694824</ele>
        <time>2020-08-13T18:22:50.000Z</time>
      </trkpt>
      <trkpt lat="43.96479" lon="1.78676">
        <ele>169.19999694824</ele>
        <time>2020-08-13T18:22:51.000Z</time>
      </trkpt>
      <trkpt lat="43.96479" lon="1.78676">
        <ele>169.19999694824</ele>
        <time>2020-08-13T18:22:52.000Z</time>
      </trkpt>
      <trkpt lat="43.96479" lon="1.78676">
        <ele>169.19999694824</ele>
        <time>2020-08-13T18:22:53.000Z</time>
      </trkpt>
      <trkpt lat="43.96479" lon="1.78676">
        <ele>169.19999694824</ele>
        <time>2020-08-13T18:22:54.000Z</time>
      </trkpt>
      <trkpt lat="43.96479" lon="1.78676">
        <ele>169.39999389648</ele>
        <time>2020-08-13T18:22:55.000Z</time>
      </trkpt>
      <trkpt lat="43.96479" lon="1.78676">
        <ele>169.39999389648</ele>
        <time>2020-08-13T18:22:56.000Z</time>
      </trkpt>
      <trkpt lat="43.96479" lon="1.78676">
        <ele>169.39999389648</ele>
        <time>2020-08-13T18:22:57.000Z</time>
      </trkpt>
      <trkpt lat="43.96479" lon="1.78676">
        <ele>169.19999694824</ele>
        <time>2020-08-13T18:22:58.000Z</time>
      </trkpt>
      <trkpt lat="43.96479" lon="1.78676">
        <ele>169.39999389648</ele>
        <time>2020-08-13T18:22:59.000Z</time>
      </trkpt>
      <trkpt lat="43.96479" lon="1.78676">
        <ele>169.39999389648</ele>
        <time>2020-08-13T18:23:00.000Z</time>
      </trkpt>
      <trkpt lat="43.96479" lon="1.78676">
        <ele>169.39999389648</ele>
        <time>2020-08-13T18:23:01.000Z</time>
      </trkpt>
      <trkpt lat="43.96479" lon="1.78676">
        <ele>169.39999389648</ele>
        <time>2020-08-13T18:23:02.000Z</time>
      </trkpt>
      <trkpt lat="43.96479" lon="1.78676">
        <ele>169.39999389648</ele>
        <time>2020-08-13T18:23:03.000Z</time>
      </trkpt>
      <trkpt lat="43.96479" lon="1.78676">
        <ele>169.19999694824</ele>
        <time>2020-08-13T18:23:04.000Z</time>
      </trkpt>
      <trkpt lat="43.96479" lon="1.78676">
        <ele>169.19999694824</ele>
        <time>2020-08-13T18:23:05.000Z</time>
      </trkpt>
      <trkpt lat="43.96479" lon="1.78676">
        <ele>169.19999694824</ele>
        <time>2020-08-13T18:23:06.000Z</time>
      </trkpt>
      <trkpt lat="43.96479" lon="1.78676">
        <ele>169.19999694824</ele>
        <time>2020-08-13T18:23:07.000Z</time>
      </trkpt>
      <trkpt lat="43.96479" lon="1.78676">
        <ele>169.19999694824</ele>
        <time>2020-08-13T18:23:08.000Z</time>
      </trkpt>
      <trkpt lat="43.96479" lon="1.78676">
        <ele>169.19999694824</ele>
        <time>2020-08-13T18:23:09.000Z</time>
      </trkpt>
      <trkpt lat="43.96479" lon="1.78676">
        <ele>169.19999694824</ele>
        <time>2020-08-13T18:23:10.000Z</time>
      </trkpt>
      <trkpt lat="43.96479" lon="1.78676">
        <ele>169.39999389648</ele>
        <time>2020-08-13T18:23:11.000Z</time>
      </trkpt>
      <trkpt lat="43.96479" lon="1.78676">
        <ele>169.19999694824</ele>
        <time>2020-08-13T18:23:12.000Z</time>
      </trkpt>
      <trkpt lat="43.96479" lon="1.78676">
        <ele>169.19999694824</ele>
        <time>2020-08-13T18:23:13.000Z</time>
      </trkpt>
      <trkpt lat="43.96478" lon="1.78676">
        <ele>169.19999694824</ele>
        <time>2020-08-13T18:23:14.000Z</time>
      </trkpt>
      <trkpt lat="43.96479" lon="1.78676">
        <ele>169.19999694824</ele>
        <time>2020-08-13T18:23:15.000Z</time>
      </trkpt>
      <trkpt lat="43.96479" lon="1.78676">
        <ele>169.19999694824</ele>
        <time>2020-08-13T18:23:16.000Z</time>
      </trkpt>
      <trkpt lat="43.9648" lon="1.78676">
        <ele>169.19999694824</ele>
        <time>2020-08-13T18:23:17.000Z</time>
      </trkpt>
      <trkpt lat="43.96481" lon="1.78676">
        <ele>169.19999694824</ele>
        <time>2020-08-13T18:23:18.000Z</time>
      </trkpt>
      <trkpt lat="43.96483" lon="1.78676">
        <ele>169</ele>
        <time>2020-08-13T18:23:19.000Z</time>
      </trkpt>
      <trkpt lat="43.96486" lon="1.78676">
        <ele>169</ele>
        <time>2020-08-13T18:23:20.000Z</time>
      </trkpt>
      <trkpt lat="43.96489" lon="1.78675">
        <ele>169</ele>
        <time>2020-08-13T18:23:21.000Z</time>
      </trkpt>
      <trkpt lat="43.96492" lon="1.78675">
        <ele>169</ele>
        <time>2020-08-13T18:23:22.000Z</time>
      </trkpt>
      <trkpt lat="43.96496" lon="1.78675">
        <ele>168.80000305176</ele>
        <time>2020-08-13T18:23:23.000Z</time>
      </trkpt>
      <trkpt lat="43.965" lon="1.78674">
        <ele>168.80000305176</ele>
        <time>2020-08-13T18:23:24.000Z</time>
      </trkpt>
      <trkpt lat="43.96504" lon="1.78673">
        <ele>168.60000610352</ele>
        <time>2020-08-13T18:23:25.000Z</time>
      </trkpt>
      <trkpt lat="43.96508" lon="1.78673">
        <ele>168.39999389648</ele>
        <time>2020-08-13T18:23:26.000Z</time>
      </trkpt>
      <trkpt lat="43.96512" lon="1.78672">
        <ele>168.39999389648</ele>
        <time>2020-08-13T18:23:27.000Z</time>
      </trkpt>
      <trkpt lat="43.96517" lon="1.78671">
        <ele>168</ele>
        <time>2020-08-13T18:23:28.000Z</time>
      </trkpt>
      <trkpt lat="43.96521" lon="1.7867">
        <ele>167.80000305176</ele>
        <time>2020-08-13T18:23:29.000Z</time>
      </trkpt>
      <trkpt lat="43.96526" lon="1.7867">
        <ele>167.80000305176</ele>
        <time>2020-08-13T18:23:30.000Z</time>
      </trkpt>
      <trkpt lat="43.9653" lon="1.78669">
        <ele>167.60000610352</ele>
        <time>2020-08-13T18:23:31.000Z</time>
      </trkpt>
      <trkpt lat="43.96535" lon="1.78668">
        <ele>167.39999389648</ele>
        <time>2020-08-13T18:23:32.000Z</time>
      </trkpt>
      <trkpt lat="43.9654" lon="1.78668">
        <ele>167.19999694824</ele>
        <time>2020-08-13T18:23:33.000Z</time>
      </trkpt>
      <trkpt lat="43.96544" lon="1.78667">
        <ele>167.19999694824</ele>
        <time>2020-08-13T18:23:34.000Z</time>
      </trkpt>
      <trkpt lat="43.96549" lon="1.78667">
        <ele>167</ele>
        <time>2020-08-13T18:23:35.000Z</time>
      </trkpt>
      <trkpt lat="43.96555" lon="1.78668">
        <ele>166.80000305176</ele>
        <time>2020-08-13T18:23:36.000Z</time>
      </trkpt>
      <trkpt lat="43.9656" lon="1.78668">
        <ele>166.60000610352</ele>
        <time>2020-08-13T18:23:37.000Z</time>
      </trkpt>
      <trkpt lat="43.96565" lon="1.78669">
        <ele>166.39999389648</ele>
        <time>2020-08-13T18:23:38.000Z</time>
      </trkpt>
      <trkpt lat="43.96569" lon="1.7867">
        <ele>166.19999694824</ele>
        <time>2020-08-13T18:23:39.000Z</time>
      </trkpt>
      <trkpt lat="43.96574" lon="1.78671">
        <ele>166.19999694824</ele>
        <time>2020-08-13T18:23:40.000Z</time>
      </trkpt>
      <trkpt lat="43.96579" lon="1.78673">
        <ele>166.19999694824</ele>
        <time>2020-08-13T18:23:41.000Z</time>
      </trkpt>
      <trkpt lat="43.96583" lon="1.78675">
        <ele>166.19999694824</ele>
        <time>2020-08-13T18:23:42.000Z</time>
      </trkpt>
      <trkpt lat="43.96588" lon="1.78677">
        <ele>166.19999694824</ele>
        <time>2020-08-13T18:23:43.000Z</time>
      </trkpt>
      <trkpt lat="43.96592" lon="1.78679">
        <ele>166.19999694824</ele>
        <time>2020-08-13T18:23:44.000Z</time>
      </trkpt>
      <trkpt lat="43.96597" lon="1.78682">
        <ele>166.19999694824</ele>
        <time>2020-08-13T18:23:45.000Z</time>
      </trkpt>
      <trkpt lat="43.96601" lon="1.78684">
        <ele>166.19999694824</ele>
        <time>2020-08-13T18:23:46.000Z</time>
      </trkpt>
      <trkpt lat="43.96605" lon="1.78687">
        <ele>166.39999389648</ele>
        <time>2020-08-13T18:23:47.000Z</time>
      </trkpt>
      <trkpt lat="43.96609" lon="1.7869">
        <ele>166.39999389648</ele>
        <time>2020-08-13T18:23:48.000Z</time>
      </trkpt>
      <trkpt lat="43.96613" lon="1.78693">
        <ele>166.19999694824</ele>
        <time>2020-08-13T18:23:49.000Z</time>
      </trkpt>
      <trkpt lat="43.96617" lon="1.78696">
        <ele>166.39999389648</ele>
        <time>2020-08-13T18:23:50.000Z</time>
      </trkpt>
      <trkpt lat="43.96621" lon="1.787">
        <ele>166.60000610352</ele>
        <time>2020-08-13T18:23:51.000Z</time>
      </trkpt>
      <trkpt lat="43.96625" lon="1.78704">
        <ele>166.60000610352</ele>
        <time>2020-08-13T18:23:52.000Z</time>
      </trkpt>
      <trkpt lat="43.96628" lon="1.78708">
        <ele>166.60000610352</ele>
        <time>2020-08-13T18:23:53.000Z</time>
      </trkpt>
      <trkpt lat="43.96633" lon="1.78712">
        <ele>166.39999389648</ele>
        <time>2020-08-13T18:23:54.000Z</time>
      </trkpt>
      <trkpt lat="43.96637" lon="1.78716">
        <ele>166.19999694824</ele>
        <time>2020-08-13T18:23:55.000Z</time>
      </trkpt>
      <trkpt lat="43.96641" lon="1.7872">
        <ele>166.19999694824</ele>
        <time>2020-08-13T18:23:56.000Z</time>
      </trkpt>
      <trkpt lat="43.96645" lon="1.78724">
        <ele>166</ele>
        <time>2020-08-13T18:23:57.000Z</time>
      </trkpt>
      <trkpt lat="43.9665" lon="1.78728">
        <ele>166</ele>
        <time>2020-08-13T18:23:58.000Z</time>
      </trkpt>
      <trkpt lat="43.96654" lon="1.78732">
        <ele>165.80000305176</ele>
        <time>2020-08-13T18:23:59.000Z</time>
      </trkpt>
      <trkpt lat="43.96658" lon="1.78736">
        <ele>165.80000305176</ele>
        <time>2020-08-13T18:24:00.000Z</time>
      </trkpt>
      <trkpt lat="43.96662" lon="1.78739">
        <ele>165.80000305176</ele>
        <time>2020-08-13T18:24:01.000Z</time>
      </trkpt>
      <trkpt lat="43.96666" lon="1.78743">
        <ele>166</ele>
        <time>2020-08-13T18:24:02.000Z</time>
      </trkpt>
      <trkpt lat="43.9667" lon="1.78746">
        <ele>166</ele>
        <time>2020-08-13T18:24:03.000Z</time>
      </trkpt>
      <trkpt lat="43.96674" lon="1.78749">
        <ele>166</ele>
        <time>2020-08-13T18:24:04.000Z</time>
      </trkpt>
      <trkpt lat="43.96678" lon="1.78751">
        <ele>166</ele>
        <time>2020-08-13T18:24:05.000Z</time>
      </trkpt>
      <trkpt lat="43.96682" lon="1.78753">
        <ele>165.80000305176</ele>
        <time>2020-08-13T18:24:06.000Z</time>
      </trkpt>
      <trkpt lat="43.96686" lon="1.78754">
        <ele>165.80000305176</ele>
        <time>2020-08-13T18:24:07.000Z</time>
      </trkpt>
      <trkpt lat="43.96689" lon="1.78755">
        <ele>165.80000305176</ele>
        <time>2020-08-13T18:24:08.000Z</time>
      </trkpt>
      <trkpt lat="43.96692" lon="1.78756">
        <ele>165.80000305176</ele>
        <time>2020-08-13T18:24:09.000Z</time>
      </trkpt>
      <trkpt lat="43.96695" lon="1.78756">
        <ele>165.80000305176</ele>
        <time>2020-08-13T18:24:10.000Z</time>
      </trkpt>
      <trkpt lat="43.96698" lon="1.78757">
        <ele>165.60000610352</ele>
        <time>2020-08-13T18:24:11.000Z</time>
      </trkpt>
      <trkpt lat="43.96701" lon="1.78759">
        <ele>165.60000610352</ele>
        <time>2020-08-13T18:24:12.000Z</time>
      </trkpt>
      <trkpt lat="43.96705" lon="1.7876">
        <ele>165.39999389648</ele>
        <time>2020-08-13T18:24:13.000Z</time>
      </trkpt>
      <trkpt lat="43.96708" lon="1.78761">
        <ele>165.39999389648</ele>
        <time>2020-08-13T18:24:14.000Z</time>
      </trkpt>
      <trkpt lat="43.96712" lon="1.78762">
        <ele>165.39999389648</ele>
        <time>2020-08-13T18:24:15.000Z</time>
      </trkpt>
      <trkpt lat="43.96716" lon="1.78763">
        <ele>165.60000610352</ele>
        <time>2020-08-13T18:24:16.000Z</time>
      </trkpt>
      <trkpt lat="43.9672" lon="1.78764">
        <ele>165.39999389648</ele>
        <time>2020-08-13T18:24:17.000Z</time>
      </trkpt>
      <trkpt lat="43.96724" lon="1.78765">
        <ele>165.39999389648</ele>
        <time>2020-08-13T18:24:18.000Z</time>
      </trkpt>
      <trkpt lat="43.96728" lon="1.78767">
        <ele>165.19999694824</ele>
        <time>2020-08-13T18:24:19.000Z</time>
      </trkpt>
      <trkpt lat="43.96733" lon="1.78768">
        <ele>165.19999694824</ele>
        <time>2020-08-13T18:24:20.000Z</time>
      </trkpt>
      <trkpt lat="43.96737" lon="1.78769">
        <ele>165</ele>
        <time>2020-08-13T18:24:21.000Z</time>
      </trkpt>
      <trkpt lat="43.96742" lon="1.78771">
        <ele>165.19999694824</ele>
        <time>2020-08-13T18:24:22.000Z</time>
      </trkpt>
      <trkpt lat="43.96746" lon="1.78773">
        <ele>165</ele>
        <time>2020-08-13T18:24:23.000Z</time>
      </trkpt>
      <trkpt lat="43.96751" lon="1.78774">
        <ele>164.80000305176</ele>
        <time>2020-08-13T18:24:24.000Z</time>
      </trkpt>
      <trkpt lat="43.96755" lon="1.78776">
        <ele>164.80000305176</ele>
        <time>2020-08-13T18:24:25.000Z</time>
      </trkpt>
      <trkpt lat="43.96759" lon="1.78778">
        <ele>165</ele>
        <time>2020-08-13T18:24:26.000Z</time>
      </trkpt>
      <trkpt lat="43.96763" lon="1.78779">
        <ele>165</ele>
        <time>2020-08-13T18:24:27.000Z</time>
      </trkpt>
      <trkpt lat="43.96767" lon="1.78782">
        <ele>164.80000305176</ele>
        <time>2020-08-13T18:24:28.000Z</time>
      </trkpt>
      <trkpt lat="43.96771" lon="1.78784">
        <ele>164.80000305176</ele>
        <time>2020-08-13T18:24:29.000Z</time>
      </trkpt>
      <trkpt lat="43.96775" lon="1.78787">
        <ele>164.80000305176</ele>
        <time>2020-08-13T18:24:30.000Z</time>
      </trkpt>
      <trkpt lat="43.96779" lon="1.78791">
        <ele>164.80000305176</ele>
        <time>2020-08-13T18:24:31.000Z</time>
      </trkpt>
      <trkpt lat="43.96782" lon="1.78795">
        <ele>164.80000305176</ele>
        <time>2020-08-13T18:24:32.000Z</time>
      </trkpt>
      <trkpt lat="43.96784" lon="1.788">
        <ele>164.60000610352</ele>
        <time>2020-08-13T18:24:33.000Z</time>
      </trkpt>
      <trkpt lat="43.96786" lon="1.78806">
        <ele>164.60000610352</ele>
        <time>2020-08-13T18:24:34.000Z</time>
      </trkpt>
      <trkpt lat="43.96788" lon="1.78812">
        <ele>164.60000610352</ele>
        <time>2020-08-13T18:24:35.000Z</time>
      </trkpt>
      <trkpt lat="43.96789" lon="1.78818">
        <ele>164.39999389648</ele>
        <time>2020-08-13T18:24:36.000Z</time>
      </trkpt>
      <trkpt lat="43.9679" lon="1.78825">
        <ele>164.39999389648</ele>
        <time>2020-08-13T18:24:37.000Z</time>
      </trkpt>
      <trkpt lat="43.9679" lon="1.78831">
        <ele>164.39999389648</ele>
        <time>2020-08-13T18:24:38.000Z</time>
      </trkpt>
      <trkpt lat="43.96792" lon="1.78837">
        <ele>164.39999389648</ele>
        <time>2020-08-13T18:24:39.000Z</time>
      </trkpt>
      <trkpt lat="43.96793" lon="1.78843">
        <ele>164.39999389648</ele>
        <time>2020-08-13T18:24:40.000Z</time>
      </trkpt>
      <trkpt lat="43.96794" lon="1.78849">
        <ele>164.39999389648</ele>
        <time>2020-08-13T18:24:41.000Z</time>
      </trkpt>
      <trkpt lat="43.96796" lon="1.78855">
        <ele>164.60000610352</ele>
        <time>2020-08-13T18:24:42.000Z</time>
      </trkpt>
      <trkpt lat="43.96798" lon="1.78861">
        <ele>164.60000610352</ele>
        <time>2020-08-13T18:24:43.000Z</time>
      </trkpt>
      <trkpt lat="43.968" lon="1.78867">
        <ele>164.39999389648</ele>
        <time>2020-08-13T18:24:44.000Z</time>
      </trkpt>
      <trkpt lat="43.96802" lon="1.78873">
        <ele>164.39999389648</ele>
        <time>2020-08-13T18:24:45.000Z</time>
      </trkpt>
      <trkpt lat="43.96803" lon="1.78879">
        <ele>164.39999389648</ele>
        <time>2020-08-13T18:24:46.000Z</time>
      </trkpt>
      <trkpt lat="43.96805" lon="1.78886">
        <ele>164.60000610352</ele>
        <time>2020-08-13T18:24:47.000Z</time>
      </trkpt>
      <trkpt lat="43.96807" lon="1.78892">
        <ele>164.60000610352</ele>
        <time>2020-08-13T18:24:48.000Z</time>
      </trkpt>
      <trkpt lat="43.96808" lon="1.78899">
        <ele>164.60000610352</ele>
        <time>2020-08-13T18:24:49.000Z</time>
      </trkpt>
      <trkpt lat="43.9681" lon="1.78906">
        <ele>164.60000610352</ele>
        <time>2020-08-13T18:24:50.000Z</time>
      </trkpt>
      <trkpt lat="43.96811" lon="1.78912">
        <ele>164.60000610352</ele>
        <time>2020-08-13T18:24:51.000Z</time>
      </trkpt>
      <trkpt lat="43.96813" lon="1.78919">
        <ele>164.60000610352</ele>
        <time>2020-08-13T18:24:52.000Z</time>
      </trkpt>
      <trkpt lat="43.96815" lon="1.78925">
        <ele>164.60000610352</ele>
        <time>2020-08-13T18:24:53.000Z</time>
      </trkpt>
      <trkpt lat="43.96816" lon="1.78932">
        <ele>164.60000610352</ele>
        <time>2020-08-13T18:24:54.000Z</time>
      </trkpt>
      <trkpt lat="43.96818" lon="1.78938">
        <ele>164.60000610352</ele>
        <time>2020-08-13T18:24:55.000Z</time>
      </trkpt>
      <trkpt lat="43.96819" lon="1.78945">
        <ele>164.60000610352</ele>
        <time>2020-08-13T18:24:56.000Z</time>
      </trkpt>
      <trkpt lat="43.96821" lon="1.78951">
        <ele>164.60000610352</ele>
        <time>2020-08-13T18:24:57.000Z</time>
      </trkpt>
      <trkpt lat="43.96823" lon="1.78958">
        <ele>164.60000610352</ele>
        <time>2020-08-13T18:24:58.000Z</time>
      </trkpt>
      <trkpt lat="43.96824" lon="1.78965">
        <ele>164.60000610352</ele>
        <time>2020-08-13T18:24:59.000Z</time>
      </trkpt>
      <trkpt lat="43.96826" lon="1.78971">
        <ele>164.39999389648</ele>
        <time>2020-08-13T18:25:00.000Z</time>
      </trkpt>
      <trkpt lat="43.96828" lon="1.78978">
        <ele>164.60000610352</ele>
        <time>2020-08-13T18:25:01.000Z</time>
      </trkpt>
      <trkpt lat="43.9683" lon="1.78984">
        <ele>164.60000610352</ele>
        <time>2020-08-13T18:25:02.000Z</time>
      </trkpt>
      <trkpt lat="43.96832" lon="1.78991">
        <ele>164.80000305176</ele>
        <time>2020-08-13T18:25:03.000Z</time>
      </trkpt>
      <trkpt lat="43.96834" lon="1.78997">
        <ele>164.80000305176</ele>
        <time>2020-08-13T18:25:04.000Z</time>
      </trkpt>
      <trkpt lat="43.96836" lon="1.79003">
        <ele>164.60000610352</ele>
        <time>2020-08-13T18:25:05.000Z</time>
      </trkpt>
      <trkpt lat="43.96839" lon="1.79009">
        <ele>164.60000610352</ele>
        <time>2020-08-13T18:25:06.000Z</time>
      </trkpt>
      <trkpt lat="43.96841" lon="1.79015">
        <ele>164.60000610352</ele>
        <time>2020-08-13T18:25:07.000Z</time>
      </trkpt>
      <trkpt lat="43.96843" lon="1.79021">
        <ele>164.60000610352</ele>
        <time>2020-08-13T18:25:08.000Z</time>
      </trkpt>
      <trkpt lat="43.96846" lon="1.79028">
        <ele>164.60000610352</ele>
        <time>2020-08-13T18:25:09.000Z</time>
      </trkpt>
      <trkpt lat="43.96848" lon="1.79034">
        <ele>164.39999389648</ele>
        <time>2020-08-13T18:25:10.000Z</time>
      </trkpt>
      <trkpt lat="43.9685" lon="1.7904">
        <ele>164.39999389648</ele>
        <time>2020-08-13T18:25:11.000Z</time>
      </trkpt>
      <trkpt lat="43.96852" lon="1.79046">
        <ele>164.39999389648</ele>
        <time>2020-08-13T18:25:12.000Z</time>
      </trkpt>
      <trkpt lat="43.96855" lon="1.79051">
        <ele>164.39999389648</ele>
        <time>2020-08-13T18:25:13.000Z</time>
      </trkpt>
      <trkpt lat="43.96857" lon="1.79055">
        <ele>164.60000610352</ele>
        <time>2020-08-13T18:25:14.000Z</time>
      </trkpt>
      <trkpt lat="43.96859" lon="1.7906">
        <ele>164.60000610352</ele>
        <time>2020-08-13T18:25:15.000Z</time>
      </trkpt>
      <trkpt lat="43.96861" lon="1.79064">
        <ele>164.60000610352</ele>
        <time>2020-08-13T18:25:16.000Z</time>
      </trkpt>
      <trkpt lat="43.96862" lon="1.79069">
        <ele>164.39999389648</ele>
        <time>2020-08-13T18:25:17.000Z</time>
      </trkpt>
      <trkpt lat="43.96863" lon="1.79073">
        <ele>164.39999389648</ele>
        <time>2020-08-13T18:25:18.000Z</time>
      </trkpt>
      <trkpt lat="43.96863" lon="1.79078">
        <ele>164.39999389648</ele>
        <time>2020-08-13T18:25:19.000Z</time>
      </trkpt>
      <trkpt lat="43.96863" lon="1.79081">
        <ele>164.39999389648</ele>
        <time>2020-08-13T18:25:20.000Z</time>
      </trkpt>
      <trkpt lat="43.96863" lon="1.79083">
        <ele>164.39999389648</ele>
        <time>2020-08-13T18:25:21.000Z</time>
      </trkpt>
      <trkpt lat="43.96863" lon="1.79086">
        <ele>164.39999389648</ele>
        <time>2020-08-13T18:25:22.000Z</time>
      </trkpt>
      <trkpt lat="43.96864" lon="1.79088">
        <ele>164.39999389648</ele>
        <time>2020-08-13T18:25:23.000Z</time>
      </trkpt>
      <trkpt lat="43.96864" lon="1.7909">
        <ele>164.39999389648</ele>
        <time>2020-08-13T18:25:24.000Z</time>
      </trkpt>
      <trkpt lat="43.96864" lon="1.79092">
        <ele>164.39999389648</ele>
        <time>2020-08-13T18:25:25.000Z</time>
      </trkpt>
      <trkpt lat="43.96864" lon="1.79094">
        <ele>164.39999389648</ele>
        <time>2020-08-13T18:25:26.000Z</time>
      </trkpt>
      <trkpt lat="43.96864" lon="1.79096">
        <ele>164.39999389648</ele>
        <time>2020-08-13T18:25:27.000Z</time>
      </trkpt>
      <trkpt lat="43.96864" lon="1.79097">
        <ele>164.39999389648</ele>
        <time>2020-08-13T18:25:28.000Z</time>
      </trkpt>
      <trkpt lat="43.96864" lon="1.79099">
        <ele>164.19999694824</ele>
        <time>2020-08-13T18:25:29.000Z</time>
      </trkpt>
      <trkpt lat="43.96863" lon="1.79101">
        <ele>164.19999694824</ele>
        <time>2020-08-13T18:25:30.000Z</time>
      </trkpt>
      <trkpt lat="43.96863" lon="1.79104">
        <ele>164.39999389648</ele>
        <time>2020-08-13T18:25:31.000Z</time>
      </trkpt>
      <trkpt lat="43.96863" lon="1.79108">
        <ele>164.60000610352</ele>
        <time>2020-08-13T18:25:32.000Z</time>
      </trkpt>
      <trkpt lat="43.96864" lon="1.79111">
        <ele>164.80000305176</ele>
        <time>2020-08-13T18:25:33.000Z</time>
      </trkpt>
      <trkpt lat="43.96866" lon="1.79116">
        <ele>164.80000305176</ele>
        <time>2020-08-13T18:25:34.000Z</time>
      </trkpt>
      <trkpt lat="43.96869" lon="1.79119">
        <ele>164.80000305176</ele>
        <time>2020-08-13T18:25:35.000Z</time>
      </trkpt>
      <trkpt lat="43.96872" lon="1.79123">
        <ele>165</ele>
        <time>2020-08-13T18:25:36.000Z</time>
      </trkpt>
      <trkpt lat="43.96876" lon="1.79127">
        <ele>165</ele>
        <time>2020-08-13T18:25:37.000Z</time>
      </trkpt>
      <trkpt lat="43.9688" lon="1.79131">
        <ele>164.80000305176</ele>
        <time>2020-08-13T18:25:38.000Z</time>
      </trkpt>
      <trkpt lat="43.96884" lon="1.79135">
        <ele>164.80000305176</ele>
        <time>2020-08-13T18:25:39.000Z</time>
      </trkpt>
      <trkpt lat="43.96888" lon="1.7914">
        <ele>164.60000610352</ele>
        <time>2020-08-13T18:25:40.000Z</time>
      </trkpt>
      <trkpt lat="43.96892" lon="1.79144">
        <ele>164.60000610352</ele>
        <time>2020-08-13T18:25:41.000Z</time>
      </trkpt>
      <trkpt lat="43.96895" lon="1.79149">
        <ele>164.60000610352</ele>
        <time>2020-08-13T18:25:42.000Z</time>
      </trkpt>
      <trkpt lat="43.96899" lon="1.79153">
        <ele>164.39999389648</ele>
        <time>2020-08-13T18:25:43.000Z</time>
      </trkpt>
      <trkpt lat="43.96903" lon="1.79157">
        <ele>164.39999389648</ele>
        <time>2020-08-13T18:25:44.000Z</time>
      </trkpt>
      <trkpt lat="43.96907" lon="1.79162">
        <ele>164.39999389648</ele>
        <time>2020-08-13T18:25:45.000Z</time>
      </trkpt>
      <trkpt lat="43.96911" lon="1.79166">
        <ele>164.19999694824</ele>
        <time>2020-08-13T18:25:46.000Z</time>
      </trkpt>
      <trkpt lat="43.96914" lon="1.79171">
        <ele>164.19999694824</ele>
        <time>2020-08-13T18:25:47.000Z</time>
      </trkpt>
      <trkpt lat="43.96918" lon="1.79176">
        <ele>164.19999694824</ele>
        <time>2020-08-13T18:25:48.000Z</time>
      </trkpt>
      <trkpt lat="43.96921" lon="1.7918">
        <ele>164.19999694824</ele>
        <time>2020-08-13T18:25:49.000Z</time>
      </trkpt>
      <trkpt lat="43.96925" lon="1.79184">
        <ele>164.19999694824</ele>
        <time>2020-08-13T18:25:50.000Z</time>
      </trkpt>
      <trkpt lat="43.96928" lon="1.79189">
        <ele>164</ele>
        <time>2020-08-13T18:25:51.000Z</time>
      </trkpt>
      <trkpt lat="43.96931" lon="1.79193">
        <ele>164.19999694824</ele>
        <time>2020-08-13T18:25:52.000Z</time>
      </trkpt>
      <trkpt lat="43.96934" lon="1.79198">
        <ele>164</ele>
        <time>2020-08-13T18:25:53.000Z</time>
      </trkpt>
      <trkpt lat="43.96937" lon="1.79201">
        <ele>164</ele>
        <time>2020-08-13T18:25:54.000Z</time>
      </trkpt>
      <trkpt lat="43.96941" lon="1.79205">
        <ele>164.19999694824</ele>
        <time>2020-08-13T18:25:55.000Z</time>
      </trkpt>
      <trkpt lat="43.96944" lon="1.79209">
        <ele>164.19999694824</ele>
        <time>2020-08-13T18:25:56.000Z</time>
      </trkpt>
      <trkpt lat="43.96947" lon="1.79213">
        <ele>164.19999694824</ele>
        <time>2020-08-13T18:25:57.000Z</time>
      </trkpt>
      <trkpt lat="43.9695" lon="1.79218">
        <ele>164.19999694824</ele>
        <time>2020-08-13T18:25:58.000Z</time>
      </trkpt>
      <trkpt lat="43.96953" lon="1.79222">
        <ele>164.19999694824</ele>
        <time>2020-08-13T18:25:59.000Z</time>
      </trkpt>
      <trkpt lat="43.96956" lon="1.79226">
        <ele>164.19999694824</ele>
        <time>2020-08-13T18:26:00.000Z</time>
      </trkpt>
      <trkpt lat="43.96959" lon="1.79231">
        <ele>164</ele>
        <time>2020-08-13T18:26:01.000Z</time>
      </trkpt>
      <trkpt lat="43.96962" lon="1.79235">
        <ele>164.19999694824</ele>
        <time>2020-08-13T18:26:02.000Z</time>
      </trkpt>
      <trkpt lat="43.96965" lon="1.79239">
        <ele>164.19999694824</ele>
        <time>2020-08-13T18:26:03.000Z</time>
      </trkpt>
      <trkpt lat="43.96968" lon="1.79242">
        <ele>164.19999694824</ele>
        <time>2020-08-13T18:26:04.000Z</time>
      </trkpt>
      <trkpt lat="43.96971" lon="1.79246">
        <ele>164.39999389648</ele>
        <time>2020-08-13T18:26:05.000Z</time>
      </trkpt>
      <trkpt lat="43.96974" lon="1.79249">
        <ele>164.39999389648</ele>
        <time>2020-08-13T18:26:06.000Z</time>
      </trkpt>
      <trkpt lat="43.96977" lon="1.79252">
        <ele>164.19999694824</ele>
        <time>2020-08-13T18:26:07.000Z</time>
      </trkpt>
      <trkpt lat="43.9698" lon="1.79256">
        <ele>164.19999694824</ele>
        <time>2020-08-13T18:26:08.000Z</time>
      </trkpt>
      <trkpt lat="43.96984" lon="1.79259">
        <ele>164.19999694824</ele>
        <time>2020-08-13T18:26:09.000Z</time>
      </trkpt>
      <trkpt lat="43.96987" lon="1.79262">
        <ele>164</ele>
        <time>2020-08-13T18:26:10.000Z</time>
      </trkpt>
      <trkpt lat="43.96991" lon="1.79265">
        <ele>164</ele>
        <time>2020-08-13T18:26:11.000Z</time>
      </trkpt>
      <trkpt lat="43.96996" lon="1.79268">
        <ele>163.80000305176</ele>
        <time>2020-08-13T18:26:12.000Z</time>
      </trkpt>
      <trkpt lat="43.96999" lon="1.79271">
        <ele>163.80000305176</ele>
        <time>2020-08-13T18:26:13.000Z</time>
      </trkpt>
      <trkpt lat="43.97003" lon="1.79274">
        <ele>164</ele>
        <time>2020-08-13T18:26:14.000Z</time>
      </trkpt>
      <trkpt lat="43.97007" lon="1.79277">
        <ele>164</ele>
        <time>2020-08-13T18:26:15.000Z</time>
      </trkpt>
      <trkpt lat="43.97011" lon="1.7928">
        <ele>164</ele>
        <time>2020-08-13T18:26:16.000Z</time>
      </trkpt>
      <trkpt lat="43.97015" lon="1.79283">
        <ele>163.80000305176</ele>
        <time>2020-08-13T18:26:17.000Z</time>
      </trkpt>
      <trkpt lat="43.97019" lon="1.79286">
        <ele>164</ele>
        <time>2020-08-13T18:26:18.000Z</time>
      </trkpt>
      <trkpt lat="43.97023" lon="1.79288">
        <ele>164</ele>
        <time>2020-08-13T18:26:19.000Z</time>
      </trkpt>
      <trkpt lat="43.97028" lon="1.79292">
        <ele>164.19999694824</ele>
        <time>2020-08-13T18:26:20.000Z</time>
      </trkpt>
      <trkpt lat="43.97031" lon="1.79295">
        <ele>164.19999694824</ele>
        <time>2020-08-13T18:26:21.000Z</time>
      </trkpt>
      <trkpt lat="43.97036" lon="1.79298">
        <ele>164.19999694824</ele>
        <time>2020-08-13T18:26:22.000Z</time>
      </trkpt>
      <trkpt lat="43.9704" lon="1.79301">
        <ele>164.19999694824</ele>
        <time>2020-08-13T18:26:23.000Z</time>
      </trkpt>
      <trkpt lat="43.97044" lon="1.79305">
        <ele>164.19999694824</ele>
        <time>2020-08-13T18:26:24.000Z</time>
      </trkpt>
      <trkpt lat="43.97048" lon="1.79308">
        <ele>164.19999694824</ele>
        <time>2020-08-13T18:26:25.000Z</time>
      </trkpt>
      <trkpt lat="43.97052" lon="1.79312">
        <ele>164.19999694824</ele>
        <time>2020-08-13T18:26:26.000Z</time>
      </trkpt>
      <trkpt lat="43.97056" lon="1.79317">
        <ele>164.19999694824</ele>
        <time>2020-08-13T18:26:27.000Z</time>
      </trkpt>
      <trkpt lat="43.97059" lon="1.79321">
        <ele>164</ele>
        <time>2020-08-13T18:26:28.000Z</time>
      </trkpt>
      <trkpt lat="43.97063" lon="1.79327">
        <ele>164.19999694824</ele>
        <time>2020-08-13T18:26:29.000Z</time>
      </trkpt>
      <trkpt lat="43.97065" lon="1.79332">
        <ele>164.19999694824</ele>
        <time>2020-08-13T18:26:30.000Z</time>
      </trkpt>
      <trkpt lat="43.97068" lon="1.79338">
        <ele>164.19999694824</ele>
        <time>2020-08-13T18:26:31.000Z</time>
      </trkpt>
      <trkpt lat="43.9707" lon="1.79344">
        <ele>164.19999694824</ele>
        <time>2020-08-13T18:26:32.000Z</time>
      </trkpt>
      <trkpt lat="43.97071" lon="1.7935">
        <ele>164.19999694824</ele>
        <time>2020-08-13T18:26:33.000Z</time>
      </trkpt>
      <trkpt lat="43.97073" lon="1.79356">
        <ele>164.19999694824</ele>
        <time>2020-08-13T18:26:34.000Z</time>
      </trkpt>
      <trkpt lat="43.97074" lon="1.79362">
        <ele>164.19999694824</ele>
        <time>2020-08-13T18:26:35.000Z</time>
      </trkpt>
      <trkpt lat="43.97076" lon="1.79367">
        <ele>164.19999694824</ele>
        <time>2020-08-13T18:26:36.000Z</time>
      </trkpt>
      <trkpt lat="43.97077" lon="1.79373">
        <ele>164.39999389648</ele>
        <time>2020-08-13T18:26:37.000Z</time>
      </trkpt>
      <trkpt lat="43.97079" lon="1.79378">
        <ele>164.60000610352</ele>
        <time>2020-08-13T18:26:38.000Z</time>
      </trkpt>
      <trkpt lat="43.9708" lon="1.79383">
        <ele>164.60000610352</ele>
        <time>2020-08-13T18:26:39.000Z</time>
      </trkpt>
      <trkpt lat="43.97082" lon="1.79388">
        <ele>164.60000610352</ele>
        <time>2020-08-13T18:26:40.000Z</time>
      </trkpt>
      <trkpt lat="43.97083" lon="1.79394">
        <ele>164.60000610352</ele>
        <time>2020-08-13T18:26:41.000Z</time>
      </trkpt>
      <trkpt lat="43.97084" lon="1.79399">
        <ele>164.60000610352</ele>
        <time>2020-08-13T18:26:42.000Z</time>
      </trkpt>
      <trkpt lat="43.97086" lon="1.79405">
        <ele>164.60000610352</ele>
        <time>2020-08-13T18:26:43.000Z</time>
      </trkpt>
      <trkpt lat="43.97087" lon="1.7941">
        <ele>164.60000610352</ele>
        <time>2020-08-13T18:26:44.000Z</time>
      </trkpt>
      <trkpt lat="43.97088" lon="1.79416">
        <ele>164.60000610352</ele>
        <time>2020-08-13T18:26:45.000Z</time>
      </trkpt>
      <trkpt lat="43.9709" lon="1.79422">
        <ele>164.80000305176</ele>
        <time>2020-08-13T18:26:46.000Z</time>
      </trkpt>
      <trkpt lat="43.97092" lon="1.79427">
        <ele>164.80000305176</ele>
        <time>2020-08-13T18:26:47.000Z</time>
      </trkpt>
      <trkpt lat="43.97094" lon="1.79432">
        <ele>164.80000305176</ele>
        <time>2020-08-13T18:26:48.000Z</time>
      </trkpt>
      <trkpt lat="43.97097" lon="1.79437">
        <ele>164.80000305176</ele>
        <time>2020-08-13T18:26:49.000Z</time>
      </trkpt>
      <trkpt lat="43.97099" lon="1.79442">
        <ele>164.80000305176</ele>
        <time>2020-08-13T18:26:50.000Z</time>
      </trkpt>
      <trkpt lat="43.97102" lon="1.79447">
        <ele>164.80000305176</ele>
        <time>2020-08-13T18:26:51.000Z</time>
      </trkpt>
      <trkpt lat="43.97105" lon="1.79451">
        <ele>165</ele>
        <time>2020-08-13T18:26:52.000Z</time>
      </trkpt>
      <trkpt lat="43.97108" lon="1.79454">
        <ele>164.80000305176</ele>
        <time>2020-08-13T18:26:53.000Z</time>
      </trkpt>
      <trkpt lat="43.97111" lon="1.79457">
        <ele>165</ele>
        <time>2020-08-13T18:26:54.000Z</time>
      </trkpt>
      <trkpt lat="43.97114" lon="1.7946">
        <ele>165</ele>
        <time>2020-08-13T18:26:55.000Z</time>
      </trkpt>
      <trkpt lat="43.97117" lon="1.79462">
        <ele>165</ele>
        <time>2020-08-13T18:26:56.000Z</time>
      </trkpt>
      <trkpt lat="43.9712" lon="1.79465">
        <ele>165</ele>
        <time>2020-08-13T18:26:57.000Z</time>
      </trkpt>
      <trkpt lat="43.97123" lon="1.79467">
        <ele>165</ele>
        <time>2020-08-13T18:26:58.000Z</time>
      </trkpt>
      <trkpt lat="43.97126" lon="1.79469">
        <ele>165.19999694824</ele>
        <time>2020-08-13T18:26:59.000Z</time>
      </trkpt>
      <trkpt lat="43.97128" lon="1.79471">
        <ele>165.19999694824</ele>
        <time>2020-08-13T18:27:00.000Z</time>
      </trkpt>
      <trkpt lat="43.9713" lon="1.79472">
        <ele>165.19999694824</ele>
        <time>2020-08-13T18:27:01.000Z</time>
      </trkpt>
      <trkpt lat="43.97132" lon="1.79474">
        <ele>165.19999694824</ele>
        <time>2020-08-13T18:27:02.000Z</time>
      </trkpt>
      <trkpt lat="43.97134" lon="1.79475">
        <ele>165.39999389648</ele>
        <time>2020-08-13T18:27:03.000Z</time>
      </trkpt>
      <trkpt lat="43.97137" lon="1.79477">
        <ele>165.60000610352</ele>
        <time>2020-08-13T18:27:04.000Z</time>
      </trkpt>
      <trkpt lat="43.9714" lon="1.79479">
        <ele>165.60000610352</ele>
        <time>2020-08-13T18:27:05.000Z</time>
      </trkpt>
      <trkpt lat="43.97143" lon="1.79482">
        <ele>165.39999389648</ele>
        <time>2020-08-13T18:27:06.000Z</time>
      </trkpt>
      <trkpt lat="43.97146" lon="1.79485">
        <ele>165.39999389648</ele>
        <time>2020-08-13T18:27:07.000Z</time>
      </trkpt>
      <trkpt lat="43.97149" lon="1.7949">
        <ele>165.19999694824</ele>
        <time>2020-08-13T18:27:08.000Z</time>
      </trkpt>
      <trkpt lat="43.97152" lon="1.79494">
        <ele>165.19999694824</ele>
        <time>2020-08-13T18:27:09.000Z</time>
      </trkpt>
      <trkpt lat="43.97155" lon="1.79498">
        <ele>165.19999694824</ele>
        <time>2020-08-13T18:27:10.000Z</time>
      </trkpt>
      <trkpt lat="43.97158" lon="1.79503">
        <ele>165</ele>
        <time>2020-08-13T18:27:11.000Z</time>
      </trkpt>
      <trkpt lat="43.97161" lon="1.79507">
        <ele>165.19999694824</ele>
        <time>2020-08-13T18:27:12.000Z</time>
      </trkpt>
      <trkpt lat="43.97164" lon="1.79512">
        <ele>165</ele>
        <time>2020-08-13T18:27:13.000Z</time>
      </trkpt>
      <trkpt lat="43.97166" lon="1.79516">
        <ele>165</ele>
        <time>2020-08-13T18:27:14.000Z</time>
      </trkpt>
      <trkpt lat="43.97169" lon="1.7952">
        <ele>165</ele>
        <time>2020-08-13T18:27:15.000Z</time>
      </trkpt>
      <trkpt lat="43.97171" lon="1.79524">
        <ele>165</ele>
        <time>2020-08-13T18:27:16.000Z</time>
      </trkpt>
      <trkpt lat="43.97174" lon="1.79529">
        <ele>164.60000610352</ele>
        <time>2020-08-13T18:27:17.000Z</time>
      </trkpt>
      <trkpt lat="43.97177" lon="1.79534">
        <ele>164.60000610352</ele>
        <time>2020-08-13T18:27:18.000Z</time>
      </trkpt>
      <trkpt lat="43.9718" lon="1.79539">
        <ele>164.39999389648</ele>
        <time>2020-08-13T18:27:19.000Z</time>
      </trkpt>
      <trkpt lat="43.97183" lon="1.79543">
        <ele>164.60000610352</ele>
        <time>2020-08-13T18:27:20.000Z</time>
      </trkpt>
      <trkpt lat="43.97186" lon="1.79549">
        <ele>164.80000305176</ele>
        <time>2020-08-13T18:27:21.000Z</time>
      </trkpt>
      <trkpt lat="43.97189" lon="1.79554">
        <ele>165</ele>
        <time>2020-08-13T18:27:22.000Z</time>
      </trkpt>
      <trkpt lat="43.97192" lon="1.79559">
        <ele>165</ele>
        <time>2020-08-13T18:27:23.000Z</time>
      </trkpt>
      <trkpt lat="43.97195" lon="1.79564">
        <ele>165</ele>
        <time>2020-08-13T18:27:24.000Z</time>
      </trkpt>
      <trkpt lat="43.97198" lon="1.7957">
        <ele>164.80000305176</ele>
        <time>2020-08-13T18:27:25.000Z</time>
      </trkpt>
      <trkpt lat="43.97202" lon="1.79575">
        <ele>164.60000610352</ele>
        <time>2020-08-13T18:27:26.000Z</time>
      </trkpt>
      <trkpt lat="43.97205" lon="1.7958">
        <ele>164.39999389648</ele>
        <time>2020-08-13T18:27:27.000Z</time>
      </trkpt>
      <trkpt lat="43.97208" lon="1.79585">
        <ele>164.39999389648</ele>
        <time>2020-08-13T18:27:28.000Z</time>
      </trkpt>
      <trkpt lat="43.97211" lon="1.7959">
        <ele>164.60000610352</ele>
        <time>2020-08-13T18:27:29.000Z</time>
      </trkpt>
      <trkpt lat="43.97214" lon="1.79596">
        <ele>164.60000610352</ele>
        <time>2020-08-13T18:27:30.000Z</time>
      </trkpt>
      <trkpt lat="43.97217" lon="1.79602">
        <ele>164.60000610352</ele>
        <time>2020-08-13T18:27:31.000Z</time>
      </trkpt>
      <trkpt lat="43.97221" lon="1.79606">
        <ele>164.60000610352</ele>
        <time>2020-08-13T18:27:32.000Z</time>
      </trkpt>
      <trkpt lat="43.97224" lon="1.79611">
        <ele>164.80000305176</ele>
        <time>2020-08-13T18:27:33.000Z</time>
      </trkpt>
      <trkpt lat="43.97227" lon="1.79616">
        <ele>164.80000305176</ele>
        <time>2020-08-13T18:27:34.000Z</time>
      </trkpt>
      <trkpt lat="43.9723" lon="1.7962">
        <ele>164.80000305176</ele>
        <time>2020-08-13T18:27:35.000Z</time>
      </trkpt>
      <trkpt lat="43.97233" lon="1.79625">
        <ele>164.80000305176</ele>
        <time>2020-08-13T18:27:36.000Z</time>
      </trkpt>
      <trkpt lat="43.97237" lon="1.7963">
        <ele>164.60000610352</ele>
        <time>2020-08-13T18:27:37.000Z</time>
      </trkpt>
      <trkpt lat="43.97239" lon="1.79635">
        <ele>164.60000610352</ele>
        <time>2020-08-13T18:27:38.000Z</time>
      </trkpt>
      <trkpt lat="43.97243" lon="1.7964">
        <ele>164.39999389648</ele>
        <time>2020-08-13T18:27:39.000Z</time>
      </trkpt>
      <trkpt lat="43.97246" lon="1.79645">
        <ele>164.80000305176</ele>
        <time>2020-08-13T18:27:40.000Z</time>
      </trkpt>
      <trkpt lat="43.97249" lon="1.79651">
        <ele>164.80000305176</ele>
        <time>2020-08-13T18:27:41.000Z</time>
      </trkpt>
      <trkpt lat="43.97252" lon="1.79655">
        <ele>164.80000305176</ele>
        <time>2020-08-13T18:27:42.000Z</time>
      </trkpt>
      <trkpt lat="43.97255" lon="1.7966">
        <ele>164.80000305176</ele>
        <time>2020-08-13T18:27:43.000Z</time>
      </trkpt>
      <trkpt lat="43.97258" lon="1.79665">
        <ele>164.80000305176</ele>
        <time>2020-08-13T18:27:44.000Z</time>
      </trkpt>
      <trkpt lat="43.97261" lon="1.7967">
        <ele>164.80000305176</ele>
        <time>2020-08-13T18:27:45.000Z</time>
      </trkpt>
      <trkpt lat="43.97264" lon="1.79675">
        <ele>164.80000305176</ele>
        <time>2020-08-13T18:27:46.000Z</time>
      </trkpt>
      <trkpt lat="43.97267" lon="1.7968">
        <ele>164.80000305176</ele>
        <time>2020-08-13T18:27:47.000Z</time>
      </trkpt>
      <trkpt lat="43.9727" lon="1.79684">
        <ele>164.80000305176</ele>
        <time>2020-08-13T18:27:48.000Z</time>
      </trkpt>
      <trkpt lat="43.97273" lon="1.79689">
        <ele>164.80000305176</ele>
        <time>2020-08-13T18:27:49.000Z</time>
      </trkpt>
      <trkpt lat="43.97276" lon="1.79694">
        <ele>165</ele>
        <time>2020-08-13T18:27:50.000Z</time>
      </trkpt>
      <trkpt lat="43.97279" lon="1.79698">
        <ele>165</ele>
        <time>2020-08-13T18:27:51.000Z</time>
      </trkpt>
      <trkpt lat="43.97282" lon="1.79703">
        <ele>165</ele>
        <time>2020-08-13T18:27:52.000Z</time>
      </trkpt>
      <trkpt lat="43.97285" lon="1.79707">
        <ele>165</ele>
        <time>2020-08-13T18:27:53.000Z</time>
      </trkpt>
      <trkpt lat="43.97287" lon="1.79712">
        <ele>165</ele>
        <time>2020-08-13T18:27:54.000Z</time>
      </trkpt>
      <trkpt lat="43.9729" lon="1.79716">
        <ele>165.19999694824</ele>
        <time>2020-08-13T18:27:55.000Z</time>
      </trkpt>
      <trkpt lat="43.97293" lon="1.79721">
        <ele>165.19999694824</ele>
        <time>2020-08-13T18:27:56.000Z</time>
      </trkpt>
      <trkpt lat="43.97297" lon="1.79725">
        <ele>165.19999694824</ele>
        <time>2020-08-13T18:27:57.000Z</time>
      </trkpt>
      <trkpt lat="43.973" lon="1.7973">
        <ele>165.39999389648</ele>
        <time>2020-08-13T18:27:58.000Z</time>
      </trkpt>
      <trkpt lat="43.97303" lon="1.79734">
        <ele>165.39999389648</ele>
        <time>2020-08-13T18:27:59.000Z</time>
      </trkpt>
      <trkpt lat="43.97306" lon="1.79739">
        <ele>165.39999389648</ele>
        <time>2020-08-13T18:28:00.000Z</time>
      </trkpt>
      <trkpt lat="43.97309" lon="1.79744">
        <ele>165.39999389648</ele>
        <time>2020-08-13T18:28:01.000Z</time>
      </trkpt>
      <trkpt lat="43.97312" lon="1.79749">
        <ele>165.39999389648</ele>
        <time>2020-08-13T18:28:02.000Z</time>
      </trkpt>
      <trkpt lat="43.97315" lon="1.79754">
        <ele>165.39999389648</ele>
        <time>2020-08-13T18:28:03.000Z</time>
      </trkpt>
      <trkpt lat="43.97318" lon="1.79759">
        <ele>165.60000610352</ele>
        <time>2020-08-13T18:28:04.000Z</time>
      </trkpt>
      <trkpt lat="43.97322" lon="1.79765">
        <ele>165.60000610352</ele>
        <time>2020-08-13T18:28:05.000Z</time>
      </trkpt>
      <trkpt lat="43.97324" lon="1.79771">
        <ele>165.39999389648</ele>
        <time>2020-08-13T18:28:06.000Z</time>
      </trkpt>
      <trkpt lat="43.97327" lon="1.79777">
        <ele>165.19999694824</ele>
        <time>2020-08-13T18:28:07.000Z</time>
      </trkpt>
      <trkpt lat="43.97329" lon="1.79782">
        <ele>165.39999389648</ele>
        <time>2020-08-13T18:28:08.000Z</time>
      </trkpt>
      <trkpt lat="43.97332" lon="1.79787">
        <ele>165.39999389648</ele>
        <time>2020-08-13T18:28:09.000Z</time>
      </trkpt>
      <trkpt lat="43.97334" lon="1.79793">
        <ele>165.39999389648</ele>
        <time>2020-08-13T18:28:10.000Z</time>
      </trkpt>
      <trkpt lat="43.97337" lon="1.79799">
        <ele>165.39999389648</ele>
        <time>2020-08-13T18:28:11.000Z</time>
      </trkpt>
      <trkpt lat="43.97339" lon="1.79805">
        <ele>165.60000610352</ele>
        <time>2020-08-13T18:28:12.000Z</time>
      </trkpt>
      <trkpt lat="43.97341" lon="1.79811">
        <ele>165.60000610352</ele>
        <time>2020-08-13T18:28:13.000Z</time>
      </trkpt>
      <trkpt lat="43.97343" lon="1.79817">
        <ele>165.19999694824</ele>
        <time>2020-08-13T18:28:14.000Z</time>
      </trkpt>
      <trkpt lat="43.97345" lon="1.79823">
        <ele>165</ele>
        <time>2020-08-13T18:28:15.000Z</time>
      </trkpt>
      <trkpt lat="43.97348" lon="1.79829">
        <ele>165.19999694824</ele>
        <time>2020-08-13T18:28:16.000Z</time>
      </trkpt>
      <trkpt lat="43.9735" lon="1.79835">
        <ele>165.19999694824</ele>
        <time>2020-08-13T18:28:17.000Z</time>
      </trkpt>
      <trkpt lat="43.97352" lon="1.7984">
        <ele>165.19999694824</ele>
        <time>2020-08-13T18:28:18.000Z</time>
      </trkpt>
      <trkpt lat="43.97354" lon="1.79846">
        <ele>165.19999694824</ele>
        <time>2020-08-13T18:28:19.000Z</time>
      </trkpt>
      <trkpt lat="43.97356" lon="1.79852">
        <ele>165</ele>
        <time>2020-08-13T18:28:20.000Z</time>
      </trkpt>
      <trkpt lat="43.97359" lon="1.79857">
        <ele>165.19999694824</ele>
        <time>2020-08-13T18:28:21.000Z</time>
      </trkpt>
      <trkpt lat="43.97361" lon="1.79862">
        <ele>165</ele>
        <time>2020-08-13T18:28:22.000Z</time>
      </trkpt>
      <trkpt lat="43.97363" lon="1.79868">
        <ele>165</ele>
        <time>2020-08-13T18:28:23.000Z</time>
      </trkpt>
      <trkpt lat="43.97365" lon="1.79873">
        <ele>165</ele>
        <time>2020-08-13T18:28:24.000Z</time>
      </trkpt>
      <trkpt lat="43.97367" lon="1.79879">
        <ele>165</ele>
        <time>2020-08-13T18:28:25.000Z</time>
      </trkpt>
      <trkpt lat="43.97369" lon="1.79885">
        <ele>164.80000305176</ele>
        <time>2020-08-13T18:28:26.000Z</time>
      </trkpt>
      <trkpt lat="43.97371" lon="1.7989">
        <ele>164.80000305176</ele>
        <time>2020-08-13T18:28:27.000Z</time>
      </trkpt>
      <trkpt lat="43.97373" lon="1.79895">
        <ele>164.80000305176</ele>
        <time>2020-08-13T18:28:28.000Z</time>
      </trkpt>
      <trkpt lat="43.97375" lon="1.79901">
        <ele>165.19999694824</ele>
        <time>2020-08-13T18:28:29.000Z</time>
      </trkpt>
      <trkpt lat="43.97378" lon="1.79906">
        <ele>165</ele>
        <time>2020-08-13T18:28:30.000Z</time>
      </trkpt>
      <trkpt lat="43.9738" lon="1.79911">
        <ele>165.19999694824</ele>
        <time>2020-08-13T18:28:31.000Z</time>
      </trkpt>
      <trkpt lat="43.97381" lon="1.79917">
        <ele>165.39999389648</ele>
        <time>2020-08-13T18:28:32.000Z</time>
      </trkpt>
      <trkpt lat="43.97383" lon="1.79923">
        <ele>165.39999389648</ele>
        <time>2020-08-13T18:28:33.000Z</time>
      </trkpt>
      <trkpt lat="43.97385" lon="1.79929">
        <ele>165.19999694824</ele>
        <time>2020-08-13T18:28:34.000Z</time>
      </trkpt>
      <trkpt lat="43.97386" lon="1.79935">
        <ele>165</ele>
        <time>2020-08-13T18:28:35.000Z</time>
      </trkpt>
      <trkpt lat="43.97388" lon="1.79942">
        <ele>165</ele>
        <time>2020-08-13T18:28:36.000Z</time>
      </trkpt>
      <trkpt lat="43.97389" lon="1.79948">
        <ele>165.19999694824</ele>
        <time>2020-08-13T18:28:37.000Z</time>
      </trkpt>
      <trkpt lat="43.97391" lon="1.79954">
        <ele>165.19999694824</ele>
        <time>2020-08-13T18:28:38.000Z</time>
      </trkpt>
      <trkpt lat="43.97392" lon="1.7996">
        <ele>165.19999694824</ele>
        <time>2020-08-13T18:28:39.000Z</time>
      </trkpt>
      <trkpt lat="43.97393" lon="1.79965">
        <ele>165.19999694824</ele>
        <time>2020-08-13T18:28:40.000Z</time>
      </trkpt>
      <trkpt lat="43.97394" lon="1.79971">
        <ele>165.19999694824</ele>
        <time>2020-08-13T18:28:41.000Z</time>
      </trkpt>
      <trkpt lat="43.97396" lon="1.79977">
        <ele>165.19999694824</ele>
        <time>2020-08-13T18:28:42.000Z</time>
      </trkpt>
      <trkpt lat="43.97397" lon="1.79983">
        <ele>165.19999694824</ele>
        <time>2020-08-13T18:28:43.000Z</time>
      </trkpt>
      <trkpt lat="43.97398" lon="1.79989">
        <ele>165.19999694824</ele>
        <time>2020-08-13T18:28:44.000Z</time>
      </trkpt>
      <trkpt lat="43.97399" lon="1.79994">
        <ele>165.39999389648</ele>
        <time>2020-08-13T18:28:45.000Z</time>
      </trkpt>
      <trkpt lat="43.97401" lon="1.8">
        <ele>165.60000610352</ele>
        <time>2020-08-13T18:28:46.000Z</time>
      </trkpt>
      <trkpt lat="43.97402" lon="1.80005">
        <ele>165.39999389648</ele>
        <time>2020-08-13T18:28:47.000Z</time>
      </trkpt>
      <trkpt lat="43.97403" lon="1.8001">
        <ele>165.60000610352</ele>
        <time>2020-08-13T18:28:48.000Z</time>
      </trkpt>
      <trkpt lat="43.97404" lon="1.80015">
        <ele>165.80000305176</ele>
        <time>2020-08-13T18:28:49.000Z</time>
      </trkpt>
      <trkpt lat="43.97405" lon="1.80021">
        <ele>166</ele>
        <time>2020-08-13T18:28:50.000Z</time>
      </trkpt>
      <trkpt lat="43.97406" lon="1.80026">
        <ele>166</ele>
        <time>2020-08-13T18:28:51.000Z</time>
      </trkpt>
      <trkpt lat="43.97408" lon="1.80031">
        <ele>165.80000305176</ele>
        <time>2020-08-13T18:28:52.000Z</time>
      </trkpt>
      <trkpt lat="43.97409" lon="1.80037">
        <ele>165.80000305176</ele>
        <time>2020-08-13T18:28:53.000Z</time>
      </trkpt>
      <trkpt lat="43.9741" lon="1.80042">
        <ele>165.80000305176</ele>
        <time>2020-08-13T18:28:54.000Z</time>
      </trkpt>
      <trkpt lat="43.97411" lon="1.80048">
        <ele>165.80000305176</ele>
        <time>2020-08-13T18:28:55.000Z</time>
      </trkpt>
      <trkpt lat="43.97412" lon="1.80053">
        <ele>165.80000305176</ele>
        <time>2020-08-13T18:28:56.000Z</time>
      </trkpt>
      <trkpt lat="43.97414" lon="1.80059">
        <ele>166</ele>
        <time>2020-08-13T18:28:57.000Z</time>
      </trkpt>
      <trkpt lat="43.97415" lon="1.80064">
        <ele>166</ele>
        <time>2020-08-13T18:28:58.000Z</time>
      </trkpt>
      <trkpt lat="43.97416" lon="1.8007">
        <ele>165.80000305176</ele>
        <time>2020-08-13T18:28:59.000Z</time>
      </trkpt>
      <trkpt lat="43.97418" lon="1.80076">
        <ele>166</ele>
        <time>2020-08-13T18:29:00.000Z</time>
      </trkpt>
      <trkpt lat="43.97419" lon="1.80081">
        <ele>166</ele>
        <time>2020-08-13T18:29:01.000Z</time>
      </trkpt>
      <trkpt lat="43.9742" lon="1.80086">
        <ele>166.19999694824</ele>
        <time>2020-08-13T18:29:02.000Z</time>
      </trkpt>
      <trkpt lat="43.97421" lon="1.80092">
        <ele>166.19999694824</ele>
        <time>2020-08-13T18:29:03.000Z</time>
      </trkpt>
      <trkpt lat="43.97423" lon="1.80097">
        <ele>166</ele>
        <time>2020-08-13T18:29:04.000Z</time>
      </trkpt>
      <trkpt lat="43.97424" lon="1.80102">
        <ele>166.19999694824</ele>
        <time>2020-08-13T18:29:05.000Z</time>
      </trkpt>
      <trkpt lat="43.97425" lon="1.80108">
        <ele>166.39999389648</ele>
        <time>2020-08-13T18:29:06.000Z</time>
      </trkpt>
      <trkpt lat="43.97427" lon="1.80113">
        <ele>166.80000305176</ele>
        <time>2020-08-13T18:29:07.000Z</time>
      </trkpt>
      <trkpt lat="43.97428" lon="1.80118">
        <ele>167</ele>
        <time>2020-08-13T18:29:08.000Z</time>
      </trkpt>
      <trkpt lat="43.97429" lon="1.80124">
        <ele>167</ele>
        <time>2020-08-13T18:29:09.000Z</time>
      </trkpt>
      <trkpt lat="43.9743" lon="1.80129">
        <ele>166.80000305176</ele>
        <time>2020-08-13T18:29:10.000Z</time>
      </trkpt>
      <trkpt lat="43.97431" lon="1.80134">
        <ele>167</ele>
        <time>2020-08-13T18:29:11.000Z</time>
      </trkpt>
      <trkpt lat="43.97432" lon="1.80139">
        <ele>167</ele>
        <time>2020-08-13T18:29:12.000Z</time>
      </trkpt>
      <trkpt lat="43.97433" lon="1.80144">
        <ele>167.19999694824</ele>
        <time>2020-08-13T18:29:13.000Z</time>
      </trkpt>
      <trkpt lat="43.97434" lon="1.80149">
        <ele>167.19999694824</ele>
        <time>2020-08-13T18:29:14.000Z</time>
      </trkpt>
      <trkpt lat="43.97435" lon="1.80154">
        <ele>167.39999389648</ele>
        <time>2020-08-13T18:29:15.000Z</time>
      </trkpt>
      <trkpt lat="43.97436" lon="1.80159">
        <ele>167.60000610352</ele>
        <time>2020-08-13T18:29:16.000Z</time>
      </trkpt>
      <trkpt lat="43.97437" lon="1.80164">
        <ele>167.60000610352</ele>
        <time>2020-08-13T18:29:17.000Z</time>
      </trkpt>
      <trkpt lat="43.97438" lon="1.80169">
        <ele>167.60000610352</ele>
        <time>2020-08-13T18:29:18.000Z</time>
      </trkpt>
      <trkpt lat="43.97439" lon="1.80174">
        <ele>167.60000610352</ele>
        <time>2020-08-13T18:29:19.000Z</time>
      </trkpt>
      <trkpt lat="43.97441" lon="1.80179">
        <ele>167.80000305176</ele>
        <time>2020-08-13T18:29:20.000Z</time>
      </trkpt>
      <trkpt lat="43.97442" lon="1.80183">
        <ele>167.80000305176</ele>
        <time>2020-08-13T18:29:21.000Z</time>
      </trkpt>
      <trkpt lat="43.97443" lon="1.80188">
        <ele>168</ele>
        <time>2020-08-13T18:29:22.000Z</time>
      </trkpt>
      <trkpt lat="43.97444" lon="1.80193">
        <ele>168</ele>
        <time>2020-08-13T18:29:23.000Z</time>
      </trkpt>
      <trkpt lat="43.97445" lon="1.80198">
        <ele>168</ele>
        <time>2020-08-13T18:29:24.000Z</time>
      </trkpt>
      <trkpt lat="43.97447" lon="1.80202">
        <ele>168</ele>
        <time>2020-08-13T18:29:25.000Z</time>
      </trkpt>
      <trkpt lat="43.97448" lon="1.80206">
        <ele>168.39999389648</ele>
        <time>2020-08-13T18:29:26.000Z</time>
      </trkpt>
      <trkpt lat="43.97449" lon="1.80211">
        <ele>168.60000610352</ele>
        <time>2020-08-13T18:29:27.000Z</time>
      </trkpt>
      <trkpt lat="43.9745" lon="1.80215">
        <ele>168.80000305176</ele>
        <time>2020-08-13T18:29:28.000Z</time>
      </trkpt>
      <trkpt lat="43.97451" lon="1.8022">
        <ele>168.80000305176</ele>
        <time>2020-08-13T18:29:29.000Z</time>
      </trkpt>
      <trkpt lat="43.97452" lon="1.80225">
        <ele>168.80000305176</ele>
        <time>2020-08-13T18:29:30.000Z</time>
      </trkpt>
      <trkpt lat="43.97454" lon="1.8023">
        <ele>168.80000305176</ele>
        <time>2020-08-13T18:29:31.000Z</time>
      </trkpt>
      <trkpt lat="43.97455" lon="1.80234">
        <ele>168.80000305176</ele>
        <time>2020-08-13T18:29:32.000Z</time>
      </trkpt>
      <trkpt lat="43.97456" lon="1.80239">
        <ele>169</ele>
        <time>2020-08-13T18:29:33.000Z</time>
      </trkpt>
      <trkpt lat="43.97457" lon="1.80244">
        <ele>169.19999694824</ele>
        <time>2020-08-13T18:29:34.000Z</time>
      </trkpt>
      <trkpt lat="43.97458" lon="1.80249">
        <ele>169.39999389648</ele>
        <time>2020-08-13T18:29:35.000Z</time>
      </trkpt>
      <trkpt lat="43.97459" lon="1.80254">
        <ele>169.39999389648</ele>
        <time>2020-08-13T18:29:36.000Z</time>
      </trkpt>
      <trkpt lat="43.9746" lon="1.80259">
        <ele>169.39999389648</ele>
        <time>2020-08-13T18:29:37.000Z</time>
      </trkpt>
      <trkpt lat="43.97462" lon="1.80264">
        <ele>169.60000610352</ele>
        <time>2020-08-13T18:29:38.000Z</time>
      </trkpt>
      <trkpt lat="43.97463" lon="1.80269">
        <ele>169.39999389648</ele>
        <time>2020-08-13T18:29:39.000Z</time>
      </trkpt>
      <trkpt lat="43.97464" lon="1.80274">
        <ele>169.39999389648</ele>
        <time>2020-08-13T18:29:40.000Z</time>
      </trkpt>
      <trkpt lat="43.97465" lon="1.80279">
        <ele>169.39999389648</ele>
        <time>2020-08-13T18:29:41.000Z</time>
      </trkpt>
      <trkpt lat="43.97466" lon="1.80284">
        <ele>169.60000610352</ele>
        <time>2020-08-13T18:29:42.000Z</time>
      </trkpt>
      <trkpt lat="43.97467" lon="1.80289">
        <ele>169.80000305176</ele>
        <time>2020-08-13T18:29:43.000Z</time>
      </trkpt>
      <trkpt lat="43.97468" lon="1.80294">
        <ele>169.80000305176</ele>
        <time>2020-08-13T18:29:44.000Z</time>
      </trkpt>
      <trkpt lat="43.97469" lon="1.80299">
        <ele>169.60000610352</ele>
        <time>2020-08-13T18:29:45.000Z</time>
      </trkpt>
      <trkpt lat="43.9747" lon="1.80304">
        <ele>169.60000610352</ele>
        <time>2020-08-13T18:29:46.000Z</time>
      </trkpt>
      <trkpt lat="43.97471" lon="1.80309">
        <ele>169.39999389648</ele>
        <time>2020-08-13T18:29:47.000Z</time>
      </trkpt>
      <trkpt lat="43.97472" lon="1.80315">
        <ele>169.39999389648</ele>
        <time>2020-08-13T18:29:48.000Z</time>
      </trkpt>
      <trkpt lat="43.97474" lon="1.80321">
        <ele>169.39999389648</ele>
        <time>2020-08-13T18:29:49.000Z</time>
      </trkpt>
      <trkpt lat="43.97475" lon="1.80326">
        <ele>169.60000610352</ele>
        <time>2020-08-13T18:29:50.000Z</time>
      </trkpt>
      <trkpt lat="43.97477" lon="1.80332">
        <ele>169.19999694824</ele>
        <time>2020-08-13T18:29:51.000Z</time>
      </trkpt>
      <trkpt lat="43.97478" lon="1.80338">
        <ele>169</ele>
        <time>2020-08-13T18:29:52.000Z</time>
      </trkpt>
      <trkpt lat="43.9748" lon="1.80343">
        <ele>169.39999389648</ele>
        <time>2020-08-13T18:29:53.000Z</time>
      </trkpt>
      <trkpt lat="43.97481" lon="1.80349">
        <ele>169.39999389648</ele>
        <time>2020-08-13T18:29:54.000Z</time>
      </trkpt>
      <trkpt lat="43.97482" lon="1.80355">
        <ele>169.39999389648</ele>
        <time>2020-08-13T18:29:55.000Z</time>
      </trkpt>
      <trkpt lat="43.97483" lon="1.80361">
        <ele>169.39999389648</ele>
        <time>2020-08-13T18:29:56.000Z</time>
      </trkpt>
      <trkpt lat="43.97485" lon="1.80367">
        <ele>169.19999694824</ele>
        <time>2020-08-13T18:29:57.000Z</time>
      </trkpt>
      <trkpt lat="43.97486" lon="1.80373">
        <ele>169.19999694824</ele>
        <time>2020-08-13T18:29:58.000Z</time>
      </trkpt>
      <trkpt lat="43.97487" lon="1.80379">
        <ele>169</ele>
        <time>2020-08-13T18:29:59.000Z</time>
      </trkpt>
      <trkpt lat="43.97488" lon="1.80385">
        <ele>168.80000305176</ele>
        <time>2020-08-13T18:30:00.000Z</time>
      </trkpt>
      <trkpt lat="43.9749" lon="1.80391">
        <ele>168.80000305176</ele>
        <time>2020-08-13T18:30:01.000Z</time>
      </trkpt>
      <trkpt lat="43.97491" lon="1.80397">
        <ele>168.60000610352</ele>
        <time>2020-08-13T18:30:02.000Z</time>
      </trkpt>
      <trkpt lat="43.97492" lon="1.80403">
        <ele>168.60000610352</ele>
        <time>2020-08-13T18:30:03.000Z</time>
      </trkpt>
      <trkpt lat="43.97494" lon="1.80409">
        <ele>168.39999389648</ele>
        <time>2020-08-13T18:30:04.000Z</time>
      </trkpt>
      <trkpt lat="43.97495" lon="1.80416">
        <ele>168.19999694824</ele>
        <time>2020-08-13T18:30:05.000Z</time>
      </trkpt>
      <trkpt lat="43.97497" lon="1.80422">
        <ele>168.19999694824</ele>
        <time>2020-08-13T18:30:06.000Z</time>
      </trkpt>
      <trkpt lat="43.97499" lon="1.80428">
        <ele>168.19999694824</ele>
        <time>2020-08-13T18:30:07.000Z</time>
      </trkpt>
      <trkpt lat="43.975" lon="1.80435">
        <ele>168.19999694824</ele>
        <time>2020-08-13T18:30:08.000Z</time>
      </trkpt>
      <trkpt lat="43.97501" lon="1.80441">
        <ele>168.19999694824</ele>
        <time>2020-08-13T18:30:09.000Z</time>
      </trkpt>
      <trkpt lat="43.97503" lon="1.80447">
        <ele>168</ele>
        <time>2020-08-13T18:30:10.000Z</time>
      </trkpt>
      <trkpt lat="43.97504" lon="1.80454">
        <ele>167.80000305176</ele>
        <time>2020-08-13T18:30:11.000Z</time>
      </trkpt>
      <trkpt lat="43.97506" lon="1.8046">
        <ele>167.80000305176</ele>
        <time>2020-08-13T18:30:12.000Z</time>
      </trkpt>
      <trkpt lat="43.97508" lon="1.80466">
        <ele>167.39999389648</ele>
        <time>2020-08-13T18:30:13.000Z</time>
      </trkpt>
      <trkpt lat="43.97509" lon="1.80472">
        <ele>167.19999694824</ele>
        <time>2020-08-13T18:30:14.000Z</time>
      </trkpt>
      <trkpt lat="43.9751" lon="1.80479">
        <ele>167</ele>
        <time>2020-08-13T18:30:15.000Z</time>
      </trkpt>
      <trkpt lat="43.97512" lon="1.80485">
        <ele>167.19999694824</ele>
        <time>2020-08-13T18:30:16.000Z</time>
      </trkpt>
      <trkpt lat="43.97513" lon="1.80491">
        <ele>167.19999694824</ele>
        <time>2020-08-13T18:30:17.000Z</time>
      </trkpt>
      <trkpt lat="43.97514" lon="1.80498">
        <ele>167</ele>
        <time>2020-08-13T18:30:18.000Z</time>
      </trkpt>
      <trkpt lat="43.97515" lon="1.80504">
        <ele>166.80000305176</ele>
        <time>2020-08-13T18:30:19.000Z</time>
      </trkpt>
      <trkpt lat="43.97516" lon="1.8051">
        <ele>166.80000305176</ele>
        <time>2020-08-13T18:30:20.000Z</time>
      </trkpt>
      <trkpt lat="43.97516" lon="1.80517">
        <ele>166.60000610352</ele>
        <time>2020-08-13T18:30:21.000Z</time>
      </trkpt>
      <trkpt lat="43.97516" lon="1.80523">
        <ele>166.80000305176</ele>
        <time>2020-08-13T18:30:22.000Z</time>
      </trkpt>
      <trkpt lat="43.97516" lon="1.8053">
        <ele>166.80000305176</ele>
        <time>2020-08-13T18:30:23.000Z</time>
      </trkpt>
      <trkpt lat="43.97516" lon="1.80537">
        <ele>166.80000305176</ele>
        <time>2020-08-13T18:30:24.000Z</time>
      </trkpt>
      <trkpt lat="43.97515" lon="1.80543">
        <ele>166.80000305176</ele>
        <time>2020-08-13T18:30:25.000Z</time>
      </trkpt>
      <trkpt lat="43.97515" lon="1.80549">
        <ele>166.60000610352</ele>
        <time>2020-08-13T18:30:26.000Z</time>
      </trkpt>
      <trkpt lat="43.97514" lon="1.80555">
        <ele>166.80000305176</ele>
        <time>2020-08-13T18:30:27.000Z</time>
      </trkpt>
      <trkpt lat="43.97514" lon="1.80561">
        <ele>166.80000305176</ele>
        <time>2020-08-13T18:30:28.000Z</time>
      </trkpt>
      <trkpt lat="43.97513" lon="1.80567">
        <ele>166.80000305176</ele>
        <time>2020-08-13T18:30:29.000Z</time>
      </trkpt>
      <trkpt lat="43.97513" lon="1.80573">
        <ele>166.60000610352</ele>
        <time>2020-08-13T18:30:30.000Z</time>
      </trkpt>
      <trkpt lat="43.97512" lon="1.80579">
        <ele>166.80000305176</ele>
        <time>2020-08-13T18:30:31.000Z</time>
      </trkpt>
      <trkpt lat="43.97512" lon="1.80584">
        <ele>166.80000305176</ele>
        <time>2020-08-13T18:30:32.000Z</time>
      </trkpt>
      <trkpt lat="43.97511" lon="1.8059">
        <ele>167</ele>
        <time>2020-08-13T18:30:33.000Z</time>
      </trkpt>
      <trkpt lat="43.97511" lon="1.80596">
        <ele>166.80000305176</ele>
        <time>2020-08-13T18:30:34.000Z</time>
      </trkpt>
      <trkpt lat="43.97511" lon="1.80602">
        <ele>166.80000305176</ele>
        <time>2020-08-13T18:30:35.000Z</time>
      </trkpt>
      <trkpt lat="43.97511" lon="1.80608">
        <ele>166.80000305176</ele>
        <time>2020-08-13T18:30:36.000Z</time>
      </trkpt>
      <trkpt lat="43.9751" lon="1.80614">
        <ele>167</ele>
        <time>2020-08-13T18:30:37.000Z</time>
      </trkpt>
      <trkpt lat="43.9751" lon="1.80619">
        <ele>167</ele>
        <time>2020-08-13T18:30:38.000Z</time>
      </trkpt>
      <trkpt lat="43.9751" lon="1.80625">
        <ele>167</ele>
        <time>2020-08-13T18:30:39.000Z</time>
      </trkpt>
      <trkpt lat="43.9751" lon="1.80631">
        <ele>166.80000305176</ele>
        <time>2020-08-13T18:30:40.000Z</time>
      </trkpt>
      <trkpt lat="43.97511" lon="1.80637">
        <ele>166.80000305176</ele>
        <time>2020-08-13T18:30:41.000Z</time>
      </trkpt>
      <trkpt lat="43.97511" lon="1.80642">
        <ele>166.80000305176</ele>
        <time>2020-08-13T18:30:42.000Z</time>
      </trkpt>
      <trkpt lat="43.97512" lon="1.80648">
        <ele>167</ele>
        <time>2020-08-13T18:30:43.000Z</time>
      </trkpt>
      <trkpt lat="43.97512" lon="1.80654">
        <ele>167.19999694824</ele>
        <time>2020-08-13T18:30:44.000Z</time>
      </trkpt>
      <trkpt lat="43.97513" lon="1.8066">
        <ele>167.19999694824</ele>
        <time>2020-08-13T18:30:45.000Z</time>
      </trkpt>
      <trkpt lat="43.97513" lon="1.80665">
        <ele>167.19999694824</ele>
        <time>2020-08-13T18:30:46.000Z</time>
      </trkpt>
      <trkpt lat="43.97514" lon="1.80671">
        <ele>167</ele>
        <time>2020-08-13T18:30:47.000Z</time>
      </trkpt>
      <trkpt lat="43.97515" lon="1.80676">
        <ele>167.19999694824</ele>
        <time>2020-08-13T18:30:48.000Z</time>
      </trkpt>
      <trkpt lat="43.97516" lon="1.80682">
        <ele>167.19999694824</ele>
        <time>2020-08-13T18:30:49.000Z</time>
      </trkpt>
      <trkpt lat="43.97517" lon="1.80687">
        <ele>167.19999694824</ele>
        <time>2020-08-13T18:30:50.000Z</time>
      </trkpt>
      <trkpt lat="43.97518" lon="1.80693">
        <ele>167.19999694824</ele>
        <time>2020-08-13T18:30:51.000Z</time>
      </trkpt>
      <trkpt lat="43.97518" lon="1.80698">
        <ele>167.19999694824</ele>
        <time>2020-08-13T18:30:52.000Z</time>
      </trkpt>
      <trkpt lat="43.97519" lon="1.80703">
        <ele>167.39999389648</ele>
        <time>2020-08-13T18:30:53.000Z</time>
      </trkpt>
      <trkpt lat="43.97519" lon="1.80709">
        <ele>167.19999694824</ele>
        <time>2020-08-13T18:30:54.000Z</time>
      </trkpt>
      <trkpt lat="43.9752" lon="1.80714">
        <ele>167.19999694824</ele>
        <time>2020-08-13T18:30:55.000Z</time>
      </trkpt>
      <trkpt lat="43.97521" lon="1.8072">
        <ele>167</ele>
        <time>2020-08-13T18:30:56.000Z</time>
      </trkpt>
      <trkpt lat="43.97521" lon="1.80725">
        <ele>167</ele>
        <time>2020-08-13T18:30:57.000Z</time>
      </trkpt>
      <trkpt lat="43.97522" lon="1.80731">
        <ele>167.19999694824</ele>
        <time>2020-08-13T18:30:58.000Z</time>
      </trkpt>
      <trkpt lat="43.97523" lon="1.80737">
        <ele>167.39999389648</ele>
        <time>2020-08-13T18:30:59.000Z</time>
      </trkpt>
      <trkpt lat="43.97523" lon="1.80742">
        <ele>167.60000610352</ele>
        <time>2020-08-13T18:31:00.000Z</time>
      </trkpt>
      <trkpt lat="43.97524" lon="1.80747">
        <ele>167.60000610352</ele>
        <time>2020-08-13T18:31:01.000Z</time>
      </trkpt>
      <trkpt lat="43.97524" lon="1.80753">
        <ele>167.60000610352</ele>
        <time>2020-08-13T18:31:02.000Z</time>
      </trkpt>
      <trkpt lat="43.97525" lon="1.80759">
        <ele>167.39999389648</ele>
        <time>2020-08-13T18:31:03.000Z</time>
      </trkpt>
      <trkpt lat="43.97526" lon="1.80765">
        <ele>167.60000610352</ele>
        <time>2020-08-13T18:31:04.000Z</time>
      </trkpt>
      <trkpt lat="43.97527" lon="1.80771">
        <ele>167.80000305176</ele>
        <time>2020-08-13T18:31:05.000Z</time>
      </trkpt>
      <trkpt lat="43.97528" lon="1.80776">
        <ele>167.60000610352</ele>
        <time>2020-08-13T18:31:06.000Z</time>
      </trkpt>
      <trkpt lat="43.97528" lon="1.80782">
        <ele>167.39999389648</ele>
        <time>2020-08-13T18:31:07.000Z</time>
      </trkpt>
      <trkpt lat="43.97529" lon="1.80788">
        <ele>167.39999389648</ele>
        <time>2020-08-13T18:31:08.000Z</time>
      </trkpt>
      <trkpt lat="43.9753" lon="1.80793">
        <ele>167.60000610352</ele>
        <time>2020-08-13T18:31:09.000Z</time>
      </trkpt>
      <trkpt lat="43.9753" lon="1.80798">
        <ele>167.60000610352</ele>
        <time>2020-08-13T18:31:10.000Z</time>
      </trkpt>
      <trkpt lat="43.97531" lon="1.80804">
        <ele>167.60000610352</ele>
        <time>2020-08-13T18:31:11.000Z</time>
      </trkpt>
      <trkpt lat="43.97532" lon="1.80809">
        <ele>167.39999389648</ele>
        <time>2020-08-13T18:31:12.000Z</time>
      </trkpt>
      <trkpt lat="43.97532" lon="1.80814">
        <ele>167.39999389648</ele>
        <time>2020-08-13T18:31:13.000Z</time>
      </trkpt>
      <trkpt lat="43.97533" lon="1.80819">
        <ele>167.60000610352</ele>
        <time>2020-08-13T18:31:14.000Z</time>
      </trkpt>
      <trkpt lat="43.97534" lon="1.80825">
        <ele>167.60000610352</ele>
        <time>2020-08-13T18:31:15.000Z</time>
      </trkpt>
      <trkpt lat="43.97535" lon="1.8083">
        <ele>167.60000610352</ele>
        <time>2020-08-13T18:31:16.000Z</time>
      </trkpt>
      <trkpt lat="43.97536" lon="1.80835">
        <ele>167.60000610352</ele>
        <time>2020-08-13T18:31:17.000Z</time>
      </trkpt>
      <trkpt lat="43.97537" lon="1.80841">
        <ele>167.39999389648</ele>
        <time>2020-08-13T18:31:18.000Z</time>
      </trkpt>
      <trkpt lat="43.97537" lon="1.80846">
        <ele>167.60000610352</ele>
        <time>2020-08-13T18:31:19.000Z</time>
      </trkpt>
      <trkpt lat="43.97538" lon="1.80852">
        <ele>167.80000305176</ele>
        <time>2020-08-13T18:31:20.000Z</time>
      </trkpt>
      <trkpt lat="43.97538" lon="1.80857">
        <ele>168</ele>
        <time>2020-08-13T18:31:21.000Z</time>
      </trkpt>
      <trkpt lat="43.97539" lon="1.80862">
        <ele>167.80000305176</ele>
        <time>2020-08-13T18:31:22.000Z</time>
      </trkpt>
      <trkpt lat="43.9754" lon="1.80867">
        <ele>167.80000305176</ele>
        <time>2020-08-13T18:31:23.000Z</time>
      </trkpt>
      <trkpt lat="43.97541" lon="1.80872">
        <ele>167.80000305176</ele>
        <time>2020-08-13T18:31:24.000Z</time>
      </trkpt>
      <trkpt lat="43.97542" lon="1.80876">
        <ele>167.80000305176</ele>
        <time>2020-08-13T18:31:25.000Z</time>
      </trkpt>
      <trkpt lat="43.97542" lon="1.8088">
        <ele>167.80000305176</ele>
        <time>2020-08-13T18:31:26.000Z</time>
      </trkpt>
      <trkpt lat="43.97544" lon="1.80884">
        <ele>167.80000305176</ele>
        <time>2020-08-13T18:31:27.000Z</time>
      </trkpt>
      <trkpt lat="43.97545" lon="1.80887">
        <ele>167.80000305176</ele>
        <time>2020-08-13T18:31:28.000Z</time>
      </trkpt>
      <trkpt lat="43.97547" lon="1.80889">
        <ele>167.80000305176</ele>
        <time>2020-08-13T18:31:29.000Z</time>
      </trkpt>
      <trkpt lat="43.97548" lon="1.80891">
        <ele>167.80000305176</ele>
        <time>2020-08-13T18:31:30.000Z</time>
      </trkpt>
      <trkpt lat="43.9755" lon="1.80892">
        <ele>167.80000305176</ele>
        <time>2020-08-13T18:31:31.000Z</time>
      </trkpt>
      <trkpt lat="43.97552" lon="1.80893">
        <ele>167.80000305176</ele>
        <time>2020-08-13T18:31:32.000Z</time>
      </trkpt>
      <trkpt lat="43.97553" lon="1.80893">
        <ele>167.80000305176</ele>
        <time>2020-08-13T18:31:33.000Z</time>
      </trkpt>
      <trkpt lat="43.97554" lon="1.80894">
        <ele>167.80000305176</ele>
        <time>2020-08-13T18:31:34.000Z</time>
      </trkpt>
      <trkpt lat="43.97554" lon="1.80894">
        <ele>167.80000305176</ele>
        <time>2020-08-13T18:31:35.000Z</time>
      </trkpt>
      <trkpt lat="43.97555" lon="1.80893">
        <ele>167.80000305176</ele>
        <time>2020-08-13T18:31:36.000Z</time>
      </trkpt>
      <trkpt lat="43.97555" lon="1.80893">
        <ele>167.80000305176</ele>
        <time>2020-08-13T18:31:37.000Z</time>
      </trkpt>
      <trkpt lat="43.97555" lon="1.80893">
        <ele>167.80000305176</ele>
        <time>2020-08-13T18:31:38.000Z</time>
      </trkpt>
      <trkpt lat="43.97555" lon="1.80893">
        <ele>167.80000305176</ele>
        <time>2020-08-13T18:31:39.000Z</time>
      </trkpt>
      <trkpt lat="43.97555" lon="1.80893">
        <ele>167.60000610352</ele>
        <time>2020-08-13T18:31:40.000Z</time>
      </trkpt>
      <trkpt lat="43.97555" lon="1.80893">
        <ele>167.80000305176</ele>
        <time>2020-08-13T18:31:41.000Z</time>
      </trkpt>
      <trkpt lat="43.97555" lon="1.80893">
        <ele>167.80000305176</ele>
        <time>2020-08-13T18:31:42.000Z</time>
      </trkpt>
      <trkpt lat="43.97555" lon="1.80893">
        <ele>167.80000305176</ele>
        <time>2020-08-13T18:31:43.000Z</time>
      </trkpt>
      <trkpt lat="43.97555" lon="1.80893">
        <ele>167.80000305176</ele>
        <time>2020-08-13T18:31:44.000Z</time>
      </trkpt>
      <trkpt lat="43.97555" lon="1.80893">
        <ele>167.80000305176</ele>
        <time>2020-08-13T18:31:45.000Z</time>
      </trkpt>
      <trkpt lat="43.97555" lon="1.80893">
        <ele>167.80000305176</ele>
        <time>2020-08-13T18:31:46.000Z</time>
      </trkpt>
      <trkpt lat="43.97555" lon="1.80893">
        <ele>167.80000305176</ele>
        <time>2020-08-13T18:31:47.000Z</time>
      </trkpt>
      <trkpt lat="43.97555" lon="1.80893">
        <ele>167.80000305176</ele>
        <time>2020-08-13T18:31:48.000Z</time>
      </trkpt>
      <trkpt lat="43.97555" lon="1.80893">
        <ele>167.60000610352</ele>
        <time>2020-08-13T18:31:49.000Z</time>
      </trkpt>
      <trkpt lat="43.97555" lon="1.80893">
        <ele>167.60000610352</ele>
        <time>2020-08-13T18:31:50.000Z</time>
      </trkpt>
      <trkpt lat="43.97555" lon="1.80893">
        <ele>167.80000305176</ele>
        <time>2020-08-13T18:31:51.000Z</time>
      </trkpt>
      <trkpt lat="43.97555" lon="1.80893">
        <ele>167.60000610352</ele>
        <time>2020-08-13T18:31:52.000Z</time>
      </trkpt>
      <trkpt lat="43.97555" lon="1.80893">
        <ele>167.60000610352</ele>
        <time>2020-08-13T18:31:53.000Z</time>
      </trkpt>
      <trkpt lat="43.97555" lon="1.80893">
        <ele>167.80000305176</ele>
        <time>2020-08-13T18:31:54.000Z</time>
      </trkpt>
      <trkpt lat="43.97555" lon="1.80893">
        <ele>167.80000305176</ele>
        <time>2020-08-13T18:31:55.000Z</time>
      </trkpt>
      <trkpt lat="43.97555" lon="1.80893">
        <ele>167.80000305176</ele>
        <time>2020-08-13T18:31:56.000Z</time>
      </trkpt>
      <trkpt lat="43.97555" lon="1.80893">
        <ele>167.80000305176</ele>
        <time>2020-08-13T18:31:57.000Z</time>
      </trkpt>
      <trkpt lat="43.97555" lon="1.80893">
        <ele>167.60000610352</ele>
        <time>2020-08-13T18:31:58.000Z</time>
      </trkpt>
      <trkpt lat="43.97555" lon="1.80893">
        <ele>167.60000610352</ele>
        <time>2020-08-13T18:31:59.000Z</time>
      </trkpt>
      <trkpt lat="43.97555" lon="1.80893">
        <ele>167.60000610352</ele>
        <time>2020-08-13T18:32:00.000Z</time>
      </trkpt>
      <trkpt lat="43.97555" lon="1.80893">
        <ele>167.80000305176</ele>
        <time>2020-08-13T18:32:01.000Z</time>
      </trkpt>
      <trkpt lat="43.97555" lon="1.80893">
        <ele>167.60000610352</ele>
        <time>2020-08-13T18:32:02.000Z</time>
      </trkpt>
      <trkpt lat="43.97555" lon="1.80893">
        <ele>167.60000610352</ele>
        <time>2020-08-13T18:32:03.000Z</time>
      </trkpt>
      <trkpt lat="43.97555" lon="1.80893">
        <ele>167.60000610352</ele>
        <time>2020-08-13T18:32:04.000Z</time>
      </trkpt>
      <trkpt lat="43.97555" lon="1.80893">
        <ele>167.60000610352</ele>
        <time>2020-08-13T18:32:05.000Z</time>
      </trkpt>
      <trkpt lat="43.97555" lon="1.80893">
        <ele>167.60000610352</ele>
        <time>2020-08-13T18:32:06.000Z</time>
      </trkpt>
      <trkpt lat="43.97555" lon="1.80893">
        <ele>167.60000610352</ele>
        <time>2020-08-13T18:32:07.000Z</time>
      </trkpt>
      <trkpt lat="43.97555" lon="1.80893">
        <ele>167.60000610352</ele>
        <time>2020-08-13T18:32:08.000Z</time>
      </trkpt>
      <trkpt lat="43.97555" lon="1.80893">
        <ele>167.60000610352</ele>
        <time>2020-08-13T18:32:09.000Z</time>
      </trkpt>
      <trkpt lat="43.97555" lon="1.80893">
        <ele>167.60000610352</ele>
        <time>2020-08-13T18:32:10.000Z</time>
      </trkpt>
      <trkpt lat="43.97555" lon="1.80893">
        <ele>167.60000610352</ele>
        <time>2020-08-13T18:32:11.000Z</time>
      </trkpt>
      <trkpt lat="43.97555" lon="1.80893">
        <ele>167.60000610352</ele>
        <time>2020-08-13T18:32:12.000Z</time>
      </trkpt>
      <trkpt lat="43.97555" lon="1.80893">
        <ele>167.80000305176</ele>
        <time>2020-08-13T18:32:13.000Z</time>
      </trkpt>
      <trkpt lat="43.97555" lon="1.80893">
        <ele>167.60000610352</ele>
        <time>2020-08-13T18:32:14.000Z</time>
      </trkpt>
      <trkpt lat="43.97555" lon="1.80893">
        <ele>167.60000610352</ele>
        <time>2020-08-13T18:32:15.000Z</time>
      </trkpt>
      <trkpt lat="43.97555" lon="1.80893">
        <ele>167.60000610352</ele>
        <time>2020-08-13T18:32:16.000Z</time>
      </trkpt>
      <trkpt lat="43.97555" lon="1.80893">
        <ele>167.60000610352</ele>
        <time>2020-08-13T18:32:17.000Z</time>
      </trkpt>
      <trkpt lat="43.97555" lon="1.80893">
        <ele>167.80000305176</ele>
        <time>2020-08-13T18:32:18.000Z</time>
      </trkpt>
      <trkpt lat="43.97555" lon="1.80893">
        <ele>167.80000305176</ele>
        <time>2020-08-13T18:32:19.000Z</time>
      </trkpt>
      <trkpt lat="43.97555" lon="1.80893">
        <ele>167.80000305176</ele>
        <time>2020-08-13T18:32:20.000Z</time>
      </trkpt>
      <trkpt lat="43.97555" lon="1.80893">
        <ele>167.80000305176</ele>
        <time>2020-08-13T18:32:21.000Z</time>
      </trkpt>
      <trkpt lat="43.97555" lon="1.80893">
        <ele>167.80000305176</ele>
        <time>2020-08-13T18:32:22.000Z</time>
      </trkpt>
      <trkpt lat="43.97555" lon="1.80893">
        <ele>167.60000610352</ele>
        <time>2020-08-13T18:32:23.000Z</time>
      </trkpt>
      <trkpt lat="43.97555" lon="1.80893">
        <ele>167.60000610352</ele>
        <time>2020-08-13T18:32:24.000Z</time>
      </trkpt>
      <trkpt lat="43.97555" lon="1.80893">
        <ele>167.60000610352</ele>
        <time>2020-08-13T18:32:25.000Z</time>
      </trkpt>
      <trkpt lat="43.97555" lon="1.80893">
        <ele>167.60000610352</ele>
        <time>2020-08-13T18:32:26.000Z</time>
      </trkpt>
      <trkpt lat="43.97555" lon="1.80893">
        <ele>167.60000610352</ele>
        <time>2020-08-13T18:32:27.000Z</time>
      </trkpt>
      <trkpt lat="43.97555" lon="1.80893">
        <ele>167.60000610352</ele>
        <time>2020-08-13T18:32:28.000Z</time>
      </trkpt>
      <trkpt lat="43.97555" lon="1.80893">
        <ele>167.60000610352</ele>
        <time>2020-08-13T18:32:29.000Z</time>
      </trkpt>
      <trkpt lat="43.97555" lon="1.80893">
        <ele>167.60000610352</ele>
        <time>2020-08-13T18:32:30.000Z</time>
      </trkpt>
      <trkpt lat="43.97555" lon="1.80893">
        <ele>167.60000610352</ele>
        <time>2020-08-13T18:32:31.000Z</time>
      </trkpt>
      <trkpt lat="43.97555" lon="1.80893">
        <ele>167.80000305176</ele>
        <time>2020-08-13T18:32:32.000Z</time>
      </trkpt>
      <trkpt lat="43.97555" lon="1.80893">
        <ele>167.60000610352</ele>
        <time>2020-08-13T18:32:33.000Z</time>
      </trkpt>
      <trkpt lat="43.97555" lon="1.80893">
        <ele>167.60000610352</ele>
        <time>2020-08-13T18:32:34.000Z</time>
      </trkpt>
      <trkpt lat="43.97555" lon="1.80893">
        <ele>167.60000610352</ele>
        <time>2020-08-13T18:32:35.000Z</time>
      </trkpt>
      <trkpt lat="43.97555" lon="1.80893">
        <ele>167.60000610352</ele>
        <time>2020-08-13T18:32:36.000Z</time>
      </trkpt>
      <trkpt lat="43.97556" lon="1.80892">
        <ele>167.60000610352</ele>
        <time>2020-08-13T18:32:37.000Z</time>
      </trkpt>
      <trkpt lat="43.97557" lon="1.80893">
        <ele>167.39999389648</ele>
        <time>2020-08-13T18:32:38.000Z</time>
      </trkpt>
      <trkpt lat="43.97559" lon="1.80893">
        <ele>167.39999389648</ele>
        <time>2020-08-13T18:32:39.000Z</time>
      </trkpt>
      <trkpt lat="43.9756" lon="1.80893">
        <ele>167.80000305176</ele>
        <time>2020-08-13T18:32:40.000Z</time>
      </trkpt>
      <trkpt lat="43.97563" lon="1.80893">
        <ele>167.60000610352</ele>
        <time>2020-08-13T18:32:41.000Z</time>
      </trkpt>
      <trkpt lat="43.97566" lon="1.80893">
        <ele>167.60000610352</ele>
        <time>2020-08-13T18:32:42.000Z</time>
      </trkpt>
      <trkpt lat="43.97568" lon="1.80893">
        <ele>167.60000610352</ele>
        <time>2020-08-13T18:32:43.000Z</time>
      </trkpt>
      <trkpt lat="43.97571" lon="1.80893">
        <ele>167.60000610352</ele>
        <time>2020-08-13T18:32:44.000Z</time>
      </trkpt>
      <trkpt lat="43.97575" lon="1.80893">
        <ele>167.60000610352</ele>
        <time>2020-08-13T18:32:45.000Z</time>
      </trkpt>
      <trkpt lat="43.97578" lon="1.80893">
        <ele>167.60000610352</ele>
        <time>2020-08-13T18:32:46.000Z</time>
      </trkpt>
      <trkpt lat="43.97581" lon="1.80893">
        <ele>167.39999389648</ele>
        <time>2020-08-13T18:32:47.000Z</time>
      </trkpt>
      <trkpt lat="43.97585" lon="1.80893">
        <ele>167.39999389648</ele>
        <time>2020-08-13T18:32:48.000Z</time>
      </trkpt>
      <trkpt lat="43.97588" lon="1.80893">
        <ele>167.60000610352</ele>
        <time>2020-08-13T18:32:49.000Z</time>
      </trkpt>
      <trkpt lat="43.97591" lon="1.80893">
        <ele>167.39999389648</ele>
        <time>2020-08-13T18:32:50.000Z</time>
      </trkpt>
      <trkpt lat="43.97595" lon="1.80894">
        <ele>167.39999389648</ele>
        <time>2020-08-13T18:32:51.000Z</time>
      </trkpt>
      <trkpt lat="43.97598" lon="1.80894">
        <ele>167.39999389648</ele>
        <time>2020-08-13T18:32:52.000Z</time>
      </trkpt>
      <trkpt lat="43.97601" lon="1.80896">
        <ele>167.39999389648</ele>
        <time>2020-08-13T18:32:53.000Z</time>
      </trkpt>
      <trkpt lat="43.97604" lon="1.80899">
        <ele>167.39999389648</ele>
        <time>2020-08-13T18:32:54.000Z</time>
      </trkpt>
      <trkpt lat="43.97607" lon="1.80903">
        <ele>167.39999389648</ele>
        <time>2020-08-13T18:32:55.000Z</time>
      </trkpt>
      <trkpt lat="43.97609" lon="1.80908">
        <ele>167.39999389648</ele>
        <time>2020-08-13T18:32:56.000Z</time>
      </trkpt>
      <trkpt lat="43.97611" lon="1.80913">
        <ele>167.19999694824</ele>
        <time>2020-08-13T18:32:57.000Z</time>
      </trkpt>
      <trkpt lat="43.97612" lon="1.80919">
        <ele>167.19999694824</ele>
        <time>2020-08-13T18:32:58.000Z</time>
      </trkpt>
      <trkpt lat="43.97613" lon="1.80925">
        <ele>167</ele>
        <time>2020-08-13T18:32:59.000Z</time>
      </trkpt>
      <trkpt lat="43.97614" lon="1.80931">
        <ele>167</ele>
        <time>2020-08-13T18:33:00.000Z</time>
      </trkpt>
      <trkpt lat="43.97615" lon="1.80937">
        <ele>166.80000305176</ele>
        <time>2020-08-13T18:33:01.000Z</time>
      </trkpt>
      <trkpt lat="43.97616" lon="1.80943">
        <ele>166.80000305176</ele>
        <time>2020-08-13T18:33:02.000Z</time>
      </trkpt>
      <trkpt lat="43.97617" lon="1.80949">
        <ele>167</ele>
        <time>2020-08-13T18:33:03.000Z</time>
      </trkpt>
      <trkpt lat="43.97619" lon="1.80955">
        <ele>166.80000305176</ele>
        <time>2020-08-13T18:33:04.000Z</time>
      </trkpt>
      <trkpt lat="43.9762" lon="1.80961">
        <ele>166.80000305176</ele>
        <time>2020-08-13T18:33:05.000Z</time>
      </trkpt>
      <trkpt lat="43.97621" lon="1.80967">
        <ele>166.80000305176</ele>
        <time>2020-08-13T18:33:06.000Z</time>
      </trkpt>
      <trkpt lat="43.97622" lon="1.80973">
        <ele>167</ele>
        <time>2020-08-13T18:33:07.000Z</time>
      </trkpt>
      <trkpt lat="43.97624" lon="1.80978">
        <ele>167</ele>
        <time>2020-08-13T18:33:08.000Z</time>
      </trkpt>
      <trkpt lat="43.97625" lon="1.80984">
        <ele>167</ele>
        <time>2020-08-13T18:33:09.000Z</time>
      </trkpt>
      <trkpt lat="43.97626" lon="1.8099">
        <ele>167</ele>
        <time>2020-08-13T18:33:10.000Z</time>
      </trkpt>
      <trkpt lat="43.97627" lon="1.80996">
        <ele>166.80000305176</ele>
        <time>2020-08-13T18:33:11.000Z</time>
      </trkpt>
      <trkpt lat="43.97628" lon="1.81002">
        <ele>166.80000305176</ele>
        <time>2020-08-13T18:33:12.000Z</time>
      </trkpt>
      <trkpt lat="43.97629" lon="1.81008">
        <ele>166.80000305176</ele>
        <time>2020-08-13T18:33:13.000Z</time>
      </trkpt>
      <trkpt lat="43.9763" lon="1.81013">
        <ele>166.80000305176</ele>
        <time>2020-08-13T18:33:14.000Z</time>
      </trkpt>
      <trkpt lat="43.97631" lon="1.81019">
        <ele>166.80000305176</ele>
        <time>2020-08-13T18:33:15.000Z</time>
      </trkpt>
      <trkpt lat="43.97632" lon="1.81024">
        <ele>166.80000305176</ele>
        <time>2020-08-13T18:33:16.000Z</time>
      </trkpt>
      <trkpt lat="43.97633" lon="1.8103">
        <ele>166.80000305176</ele>
        <time>2020-08-13T18:33:17.000Z</time>
      </trkpt>
      <trkpt lat="43.97634" lon="1.81035">
        <ele>166.80000305176</ele>
        <time>2020-08-13T18:33:18.000Z</time>
      </trkpt>
      <trkpt lat="43.97636" lon="1.81041">
        <ele>166.80000305176</ele>
        <time>2020-08-13T18:33:19.000Z</time>
      </trkpt>
      <trkpt lat="43.97636" lon="1.81047">
        <ele>167</ele>
        <time>2020-08-13T18:33:20.000Z</time>
      </trkpt>
      <trkpt lat="43.97638" lon="1.81053">
        <ele>167.19999694824</ele>
        <time>2020-08-13T18:33:21.000Z</time>
      </trkpt>
      <trkpt lat="43.97639" lon="1.81059">
        <ele>167.19999694824</ele>
        <time>2020-08-13T18:33:22.000Z</time>
      </trkpt>
      <trkpt lat="43.9764" lon="1.81065">
        <ele>167.19999694824</ele>
        <time>2020-08-13T18:33:23.000Z</time>
      </trkpt>
      <trkpt lat="43.97642" lon="1.81072">
        <ele>167</ele>
        <time>2020-08-13T18:33:24.000Z</time>
      </trkpt>
      <trkpt lat="43.97643" lon="1.81078">
        <ele>167</ele>
        <time>2020-08-13T18:33:25.000Z</time>
      </trkpt>
      <trkpt lat="43.97644" lon="1.81084">
        <ele>167</ele>
        <time>2020-08-13T18:33:26.000Z</time>
      </trkpt>
      <trkpt lat="43.97645" lon="1.8109">
        <ele>167</ele>
        <time>2020-08-13T18:33:27.000Z</time>
      </trkpt>
      <trkpt lat="43.97647" lon="1.81096">
        <ele>167</ele>
        <time>2020-08-13T18:33:28.000Z</time>
      </trkpt>
      <trkpt lat="43.97648" lon="1.81102">
        <ele>167</ele>
        <time>2020-08-13T18:33:29.000Z</time>
      </trkpt>
      <trkpt lat="43.9765" lon="1.81108">
        <ele>167</ele>
        <time>2020-08-13T18:33:30.000Z</time>
      </trkpt>
      <trkpt lat="43.97651" lon="1.81114">
        <ele>166.80000305176</ele>
        <time>2020-08-13T18:33:31.000Z</time>
      </trkpt>
      <trkpt lat="43.97652" lon="1.8112">
        <ele>166.80000305176</ele>
        <time>2020-08-13T18:33:32.000Z</time>
      </trkpt>
      <trkpt lat="43.97653" lon="1.81125">
        <ele>166.80000305176</ele>
        <time>2020-08-13T18:33:33.000Z</time>
      </trkpt>
      <trkpt lat="43.97654" lon="1.8113">
        <ele>166.80000305176</ele>
        <time>2020-08-13T18:33:34.000Z</time>
      </trkpt>
      <trkpt lat="43.97655" lon="1.81136">
        <ele>167</ele>
        <time>2020-08-13T18:33:35.000Z</time>
      </trkpt>
      <trkpt lat="43.97657" lon="1.81142">
        <ele>167</ele>
        <time>2020-08-13T18:33:36.000Z</time>
      </trkpt>
      <trkpt lat="43.97658" lon="1.81148">
        <ele>167</ele>
        <time>2020-08-13T18:33:37.000Z</time>
      </trkpt>
      <trkpt lat="43.97659" lon="1.81154">
        <ele>167</ele>
        <time>2020-08-13T18:33:38.000Z</time>
      </trkpt>
      <trkpt lat="43.9766" lon="1.8116">
        <ele>167</ele>
        <time>2020-08-13T18:33:39.000Z</time>
      </trkpt>
      <trkpt lat="43.97662" lon="1.81166">
        <ele>167.19999694824</ele>
        <time>2020-08-13T18:33:40.000Z</time>
      </trkpt>
      <trkpt lat="43.97663" lon="1.81172">
        <ele>167.19999694824</ele>
        <time>2020-08-13T18:33:41.000Z</time>
      </trkpt>
      <trkpt lat="43.97664" lon="1.81178">
        <ele>167.19999694824</ele>
        <time>2020-08-13T18:33:42.000Z</time>
      </trkpt>
      <trkpt lat="43.97665" lon="1.81183">
        <ele>167.19999694824</ele>
        <time>2020-08-13T18:33:43.000Z</time>
      </trkpt>
      <trkpt lat="43.97666" lon="1.81189">
        <ele>167.19999694824</ele>
        <time>2020-08-13T18:33:44.000Z</time>
      </trkpt>
      <trkpt lat="43.97667" lon="1.81194">
        <ele>167.19999694824</ele>
        <time>2020-08-13T18:33:45.000Z</time>
      </trkpt>
      <trkpt lat="43.97668" lon="1.812">
        <ele>167.19999694824</ele>
        <time>2020-08-13T18:33:46.000Z</time>
      </trkpt>
      <trkpt lat="43.97669" lon="1.81206">
        <ele>167</ele>
        <time>2020-08-13T18:33:47.000Z</time>
      </trkpt>
      <trkpt lat="43.9767" lon="1.81211">
        <ele>167</ele>
        <time>2020-08-13T18:33:48.000Z</time>
      </trkpt>
      <trkpt lat="43.97671" lon="1.81216">
        <ele>167</ele>
        <time>2020-08-13T18:33:49.000Z</time>
      </trkpt>
      <trkpt lat="43.97672" lon="1.81221">
        <ele>167.19999694824</ele>
        <time>2020-08-13T18:33:50.000Z</time>
      </trkpt>
      <trkpt lat="43.97673" lon="1.81226">
        <ele>167.19999694824</ele>
        <time>2020-08-13T18:33:51.000Z</time>
      </trkpt>
      <trkpt lat="43.97675" lon="1.81232">
        <ele>167.39999389648</ele>
        <time>2020-08-13T18:33:52.000Z</time>
      </trkpt>
      <trkpt lat="43.97676" lon="1.81237">
        <ele>167.39999389648</ele>
        <time>2020-08-13T18:33:53.000Z</time>
      </trkpt>
      <trkpt lat="43.97677" lon="1.81243">
        <ele>167.39999389648</ele>
        <time>2020-08-13T18:33:54.000Z</time>
      </trkpt>
      <trkpt lat="43.97678" lon="1.81249">
        <ele>167.39999389648</ele>
        <time>2020-08-13T18:33:55.000Z</time>
      </trkpt>
      <trkpt lat="43.97679" lon="1.81255">
        <ele>167.39999389648</ele>
        <time>2020-08-13T18:33:56.000Z</time>
      </trkpt>
      <trkpt lat="43.9768" lon="1.81261">
        <ele>167.60000610352</ele>
        <time>2020-08-13T18:33:57.000Z</time>
      </trkpt>
      <trkpt lat="43.97682" lon="1.81267">
        <ele>167.60000610352</ele>
        <time>2020-08-13T18:33:58.000Z</time>
      </trkpt>
      <trkpt lat="43.97683" lon="1.81272">
        <ele>167.60000610352</ele>
        <time>2020-08-13T18:33:59.000Z</time>
      </trkpt>
      <trkpt lat="43.97684" lon="1.81278">
        <ele>167.60000610352</ele>
        <time>2020-08-13T18:34:00.000Z</time>
      </trkpt>
      <trkpt lat="43.97686" lon="1.81283">
        <ele>167.39999389648</ele>
        <time>2020-08-13T18:34:01.000Z</time>
      </trkpt>
      <trkpt lat="43.97687" lon="1.81289">
        <ele>167.60000610352</ele>
        <time>2020-08-13T18:34:02.000Z</time>
      </trkpt>
      <trkpt lat="43.97689" lon="1.81294">
        <ele>167.39999389648</ele>
        <time>2020-08-13T18:34:03.000Z</time>
      </trkpt>
      <trkpt lat="43.97691" lon="1.81299">
        <ele>167.60000610352</ele>
        <time>2020-08-13T18:34:04.000Z</time>
      </trkpt>
      <trkpt lat="43.97693" lon="1.81305">
        <ele>167.60000610352</ele>
        <time>2020-08-13T18:34:05.000Z</time>
      </trkpt>
      <trkpt lat="43.97695" lon="1.8131">
        <ele>167.39999389648</ele>
        <time>2020-08-13T18:34:06.000Z</time>
      </trkpt>
      <trkpt lat="43.97697" lon="1.81316">
        <ele>167.39999389648</ele>
        <time>2020-08-13T18:34:07.000Z</time>
      </trkpt>
      <trkpt lat="43.97699" lon="1.81321">
        <ele>167.39999389648</ele>
        <time>2020-08-13T18:34:08.000Z</time>
      </trkpt>
      <trkpt lat="43.97702" lon="1.81326">
        <ele>167.60000610352</ele>
        <time>2020-08-13T18:34:09.000Z</time>
      </trkpt>
      <trkpt lat="43.97704" lon="1.81331">
        <ele>167.60000610352</ele>
        <time>2020-08-13T18:34:10.000Z</time>
      </trkpt>
      <trkpt lat="43.97706" lon="1.81336">
        <ele>167.60000610352</ele>
        <time>2020-08-13T18:34:11.000Z</time>
      </trkpt>
      <trkpt lat="43.97708" lon="1.81342">
        <ele>167.60000610352</ele>
        <time>2020-08-13T18:34:12.000Z</time>
      </trkpt>
      <trkpt lat="43.97711" lon="1.81347">
        <ele>167.60000610352</ele>
        <time>2020-08-13T18:34:13.000Z</time>
      </trkpt>
      <trkpt lat="43.97713" lon="1.81352">
        <ele>167.60000610352</ele>
        <time>2020-08-13T18:34:14.000Z</time>
      </trkpt>
      <trkpt lat="43.97715" lon="1.81357">
        <ele>167.60000610352</ele>
        <time>2020-08-13T18:34:15.000Z</time>
      </trkpt>
      <trkpt lat="43.97717" lon="1.81361">
        <ele>168</ele>
        <time>2020-08-13T18:34:16.000Z</time>
      </trkpt>
      <trkpt lat="43.97719" lon="1.81366">
        <ele>168.19999694824</ele>
        <time>2020-08-13T18:34:17.000Z</time>
      </trkpt>
      <trkpt lat="43.97721" lon="1.81371">
        <ele>168</ele>
        <time>2020-08-13T18:34:18.000Z</time>
      </trkpt>
      <trkpt lat="43.97723" lon="1.81375">
        <ele>168.19999694824</ele>
        <time>2020-08-13T18:34:19.000Z</time>
      </trkpt>
      <trkpt lat="43.97725" lon="1.8138">
        <ele>168.39999389648</ele>
        <time>2020-08-13T18:34:20.000Z</time>
      </trkpt>
      <trkpt lat="43.97727" lon="1.81384">
        <ele>168.60000610352</ele>
        <time>2020-08-13T18:34:21.000Z</time>
      </trkpt>
      <trkpt lat="43.97729" lon="1.81389">
        <ele>168.60000610352</ele>
        <time>2020-08-13T18:34:22.000Z</time>
      </trkpt>
      <trkpt lat="43.97731" lon="1.81393">
        <ele>168.80000305176</ele>
        <time>2020-08-13T18:34:23.000Z</time>
      </trkpt>
      <trkpt lat="43.97733" lon="1.81397">
        <ele>168.80000305176</ele>
        <time>2020-08-13T18:34:24.000Z</time>
      </trkpt>
      <trkpt lat="43.97735" lon="1.81402">
        <ele>169</ele>
        <time>2020-08-13T18:34:25.000Z</time>
      </trkpt>
      <trkpt lat="43.97737" lon="1.81406">
        <ele>169</ele>
        <time>2020-08-13T18:34:26.000Z</time>
      </trkpt>
      <trkpt lat="43.97739" lon="1.81411">
        <ele>169.39999389648</ele>
        <time>2020-08-13T18:34:27.000Z</time>
      </trkpt>
      <trkpt lat="43.97741" lon="1.81415">
        <ele>169.39999389648</ele>
        <time>2020-08-13T18:34:28.000Z</time>
      </trkpt>
      <trkpt lat="43.97743" lon="1.8142">
        <ele>169.60000610352</ele>
        <time>2020-08-13T18:34:29.000Z</time>
      </trkpt>
      <trkpt lat="43.97745" lon="1.81425">
        <ele>169.80000305176</ele>
        <time>2020-08-13T18:34:30.000Z</time>
      </trkpt>
      <trkpt lat="43.97747" lon="1.81429">
        <ele>170</ele>
        <time>2020-08-13T18:34:31.000Z</time>
      </trkpt>
      <trkpt lat="43.97749" lon="1.81434">
        <ele>169.80000305176</ele>
        <time>2020-08-13T18:34:32.000Z</time>
      </trkpt>
      <trkpt lat="43.97751" lon="1.81438">
        <ele>169.80000305176</ele>
        <time>2020-08-13T18:34:33.000Z</time>
      </trkpt>
      <trkpt lat="43.97752" lon="1.81443">
        <ele>170</ele>
        <time>2020-08-13T18:34:34.000Z</time>
      </trkpt>
      <trkpt lat="43.97754" lon="1.81448">
        <ele>170</ele>
        <time>2020-08-13T18:34:35.000Z</time>
      </trkpt>
      <trkpt lat="43.97756" lon="1.81452">
        <ele>170.39999389648</ele>
        <time>2020-08-13T18:34:36.000Z</time>
      </trkpt>
      <trkpt lat="43.97758" lon="1.81457">
        <ele>170.39999389648</ele>
        <time>2020-08-13T18:34:37.000Z</time>
      </trkpt>
      <trkpt lat="43.9776" lon="1.81462">
        <ele>170.60000610352</ele>
        <time>2020-08-13T18:34:38.000Z</time>
      </trkpt>
      <trkpt lat="43.97761" lon="1.81466">
        <ele>170.80000305176</ele>
        <time>2020-08-13T18:34:39.000Z</time>
      </trkpt>
      <trkpt lat="43.97763" lon="1.81471">
        <ele>171</ele>
        <time>2020-08-13T18:34:40.000Z</time>
      </trkpt>
      <trkpt lat="43.97764" lon="1.81475">
        <ele>171.19999694824</ele>
        <time>2020-08-13T18:34:41.000Z</time>
      </trkpt>
      <trkpt lat="43.97766" lon="1.8148">
        <ele>171.39999389648</ele>
        <time>2020-08-13T18:34:42.000Z</time>
      </trkpt>
      <trkpt lat="43.97767" lon="1.81485">
        <ele>171.60000610352</ele>
        <time>2020-08-13T18:34:43.000Z</time>
      </trkpt>
      <trkpt lat="43.97769" lon="1.81489">
        <ele>171.80000305176</ele>
        <time>2020-08-13T18:34:44.000Z</time>
      </trkpt>
      <trkpt lat="43.97771" lon="1.81493">
        <ele>172</ele>
        <time>2020-08-13T18:34:45.000Z</time>
      </trkpt>
      <trkpt lat="43.97772" lon="1.81497">
        <ele>172.19999694824</ele>
        <time>2020-08-13T18:34:46.000Z</time>
      </trkpt>
      <trkpt lat="43.97774" lon="1.81501">
        <ele>172.39999389648</ele>
        <time>2020-08-13T18:34:47.000Z</time>
      </trkpt>
      <trkpt lat="43.97776" lon="1.81505">
        <ele>172.60000610352</ele>
        <time>2020-08-13T18:34:48.000Z</time>
      </trkpt>
      <trkpt lat="43.97778" lon="1.81509">
        <ele>172.80000305176</ele>
        <time>2020-08-13T18:34:49.000Z</time>
      </trkpt>
      <trkpt lat="43.9778" lon="1.81513">
        <ele>173</ele>
        <time>2020-08-13T18:34:50.000Z</time>
      </trkpt>
      <trkpt lat="43.97782" lon="1.81516">
        <ele>172.80000305176</ele>
        <time>2020-08-13T18:34:51.000Z</time>
      </trkpt>
      <trkpt lat="43.97785" lon="1.8152">
        <ele>172.80000305176</ele>
        <time>2020-08-13T18:34:52.000Z</time>
      </trkpt>
      <trkpt lat="43.97788" lon="1.81525">
        <ele>172.80000305176</ele>
        <time>2020-08-13T18:34:53.000Z</time>
      </trkpt>
      <trkpt lat="43.97791" lon="1.81529">
        <ele>172.80000305176</ele>
        <time>2020-08-13T18:34:54.000Z</time>
      </trkpt>
      <trkpt lat="43.97794" lon="1.81532">
        <ele>172.60000610352</ele>
        <time>2020-08-13T18:34:55.000Z</time>
      </trkpt>
      <trkpt lat="43.97797" lon="1.81536">
        <ele>172.60000610352</ele>
        <time>2020-08-13T18:34:56.000Z</time>
      </trkpt>
      <trkpt lat="43.978" lon="1.81541">
        <ele>172.60000610352</ele>
        <time>2020-08-13T18:34:57.000Z</time>
      </trkpt>
      <trkpt lat="43.97803" lon="1.81546">
        <ele>172.60000610352</ele>
        <time>2020-08-13T18:34:58.000Z</time>
      </trkpt>
      <trkpt lat="43.97805" lon="1.81551">
        <ele>172.60000610352</ele>
        <time>2020-08-13T18:34:59.000Z</time>
      </trkpt>
      <trkpt lat="43.97808" lon="1.81556">
        <ele>172.80000305176</ele>
        <time>2020-08-13T18:35:00.000Z</time>
      </trkpt>
      <trkpt lat="43.9781" lon="1.81561">
        <ele>172.60000610352</ele>
        <time>2020-08-13T18:35:01.000Z</time>
      </trkpt>
      <trkpt lat="43.97812" lon="1.81567">
        <ele>172.60000610352</ele>
        <time>2020-08-13T18:35:02.000Z</time>
      </trkpt>
      <trkpt lat="43.97814" lon="1.81572">
        <ele>172.39999389648</ele>
        <time>2020-08-13T18:35:03.000Z</time>
      </trkpt>
      <trkpt lat="43.97816" lon="1.81577">
        <ele>172.60000610352</ele>
        <time>2020-08-13T18:35:04.000Z</time>
      </trkpt>
      <trkpt lat="43.97817" lon="1.81583">
        <ele>172.60000610352</ele>
        <time>2020-08-13T18:35:05.000Z</time>
      </trkpt>
      <trkpt lat="43.97817" lon="1.81588">
        <ele>172.80000305176</ele>
        <time>2020-08-13T18:35:06.000Z</time>
      </trkpt>
      <trkpt lat="43.97818" lon="1.81593">
        <ele>172.60000610352</ele>
        <time>2020-08-13T18:35:07.000Z</time>
      </trkpt>
      <trkpt lat="43.97818" lon="1.81599">
        <ele>172.80000305176</ele>
        <time>2020-08-13T18:35:08.000Z</time>
      </trkpt>
      <trkpt lat="43.97819" lon="1.81604">
        <ele>172.60000610352</ele>
        <time>2020-08-13T18:35:09.000Z</time>
      </trkpt>
      <trkpt lat="43.97819" lon="1.8161">
        <ele>172.60000610352</ele>
        <time>2020-08-13T18:35:10.000Z</time>
      </trkpt>
      <trkpt lat="43.97819" lon="1.81615">
        <ele>172.60000610352</ele>
        <time>2020-08-13T18:35:11.000Z</time>
      </trkpt>
      <trkpt lat="43.97819" lon="1.81621">
        <ele>172.80000305176</ele>
        <time>2020-08-13T18:35:12.000Z</time>
      </trkpt>
      <trkpt lat="43.9782" lon="1.81626">
        <ele>172.80000305176</ele>
        <time>2020-08-13T18:35:13.000Z</time>
      </trkpt>
      <trkpt lat="43.9782" lon="1.81631">
        <ele>172.80000305176</ele>
        <time>2020-08-13T18:35:14.000Z</time>
      </trkpt>
      <trkpt lat="43.9782" lon="1.81637">
        <ele>173</ele>
        <time>2020-08-13T18:35:15.000Z</time>
      </trkpt>
      <trkpt lat="43.9782" lon="1.81642">
        <ele>173</ele>
        <time>2020-08-13T18:35:16.000Z</time>
      </trkpt>
      <trkpt lat="43.9782" lon="1.81647">
        <ele>173</ele>
        <time>2020-08-13T18:35:17.000Z</time>
      </trkpt>
      <trkpt lat="43.97821" lon="1.81653">
        <ele>173</ele>
        <time>2020-08-13T18:35:18.000Z</time>
      </trkpt>
      <trkpt lat="43.97821" lon="1.81658">
        <ele>173</ele>
        <time>2020-08-13T18:35:19.000Z</time>
      </trkpt>
      <trkpt lat="43.97822" lon="1.81664">
        <ele>173.19999694824</ele>
        <time>2020-08-13T18:35:20.000Z</time>
      </trkpt>
      <trkpt lat="43.97822" lon="1.81669">
        <ele>173.39999389648</ele>
        <time>2020-08-13T18:35:21.000Z</time>
      </trkpt>
      <trkpt lat="43.97823" lon="1.81675">
        <ele>173.39999389648</ele>
        <time>2020-08-13T18:35:22.000Z</time>
      </trkpt>
      <trkpt lat="43.97823" lon="1.81681">
        <ele>173.39999389648</ele>
        <time>2020-08-13T18:35:23.000Z</time>
      </trkpt>
      <trkpt lat="43.97824" lon="1.81686">
        <ele>173.39999389648</ele>
        <time>2020-08-13T18:35:24.000Z</time>
      </trkpt>
      <trkpt lat="43.97824" lon="1.81692">
        <ele>173.39999389648</ele>
        <time>2020-08-13T18:35:25.000Z</time>
      </trkpt>
      <trkpt lat="43.97824" lon="1.81697">
        <ele>173.39999389648</ele>
        <time>2020-08-13T18:35:26.000Z</time>
      </trkpt>
      <trkpt lat="43.97824" lon="1.81702">
        <ele>173.60000610352</ele>
        <time>2020-08-13T18:35:27.000Z</time>
      </trkpt>
      <trkpt lat="43.97824" lon="1.81707">
        <ele>173.39999389648</ele>
        <time>2020-08-13T18:35:28.000Z</time>
      </trkpt>
      <trkpt lat="43.97824" lon="1.81712">
        <ele>173.39999389648</ele>
        <time>2020-08-13T18:35:29.000Z</time>
      </trkpt>
      <trkpt lat="43.97824" lon="1.81717">
        <ele>173.60000610352</ele>
        <time>2020-08-13T18:35:30.000Z</time>
      </trkpt>
      <trkpt lat="43.97824" lon="1.81722">
        <ele>173.60000610352</ele>
        <time>2020-08-13T18:35:31.000Z</time>
      </trkpt>
      <trkpt lat="43.97824" lon="1.81727">
        <ele>173.80000305176</ele>
        <time>2020-08-13T18:35:32.000Z</time>
      </trkpt>
      <trkpt lat="43.97823" lon="1.81732">
        <ele>173.60000610352</ele>
        <time>2020-08-13T18:35:33.000Z</time>
      </trkpt>
      <trkpt lat="43.97823" lon="1.81737">
        <ele>173.60000610352</ele>
        <time>2020-08-13T18:35:34.000Z</time>
      </trkpt>
      <trkpt lat="43.97822" lon="1.81741">
        <ele>173.60000610352</ele>
        <time>2020-08-13T18:35:36.000Z</time>
      </trkpt>
      <trkpt lat="43.97822" lon="1.81746">
        <ele>173.60000610352</ele>
        <time>2020-08-13T18:35:37.000Z</time>
      </trkpt>
      <trkpt lat="43.97823" lon="1.8175">
        <ele>173.60000610352</ele>
        <time>2020-08-13T18:35:38.000Z</time>
      </trkpt>
      <trkpt lat="43.97824" lon="1.81754">
        <ele>173.60000610352</ele>
        <time>2020-08-13T18:35:39.000Z</time>
      </trkpt>
      <trkpt lat="43.97828" lon="1.81754">
        <ele>173.39999389648</ele>
        <time>2020-08-13T18:35:40.000Z</time>
      </trkpt>
      <trkpt lat="43.97831" lon="1.81754">
        <ele>173.39999389648</ele>
        <time>2020-08-13T18:35:41.000Z</time>
      </trkpt>
      <trkpt lat="43.97835" lon="1.81753">
        <ele>173.19999694824</ele>
        <time>2020-08-13T18:35:42.000Z</time>
      </trkpt>
      <trkpt lat="43.97839" lon="1.81752">
        <ele>173</ele>
        <time>2020-08-13T18:35:43.000Z</time>
      </trkpt>
      <trkpt lat="43.97844" lon="1.8175">
        <ele>173</ele>
        <time>2020-08-13T18:35:44.000Z</time>
      </trkpt>
      <trkpt lat="43.97848" lon="1.81749">
        <ele>172.60000610352</ele>
        <time>2020-08-13T18:35:45.000Z</time>
      </trkpt>
      <trkpt lat="43.97852" lon="1.81748">
        <ele>172.39999389648</ele>
        <time>2020-08-13T18:35:46.000Z</time>
      </trkpt>
      <trkpt lat="43.97856" lon="1.81749">
        <ele>172</ele>
        <time>2020-08-13T18:35:47.000Z</time>
      </trkpt>
      <trkpt lat="43.97859" lon="1.81752">
        <ele>171.60000610352</ele>
        <time>2020-08-13T18:35:48.000Z</time>
      </trkpt>
      <trkpt lat="43.97859" lon="1.81756">
        <ele>171.19999694824</ele>
        <time>2020-08-13T18:35:49.000Z</time>
      </trkpt>
      <trkpt lat="43.97858" lon="1.8176">
        <ele>171</ele>
        <time>2020-08-13T18:35:50.000Z</time>
      </trkpt>
      <trkpt lat="43.97857" lon="1.81765">
        <ele>171</ele>
        <time>2020-08-13T18:35:51.000Z</time>
      </trkpt>
      <trkpt lat="43.97855" lon="1.8177">
        <ele>171</ele>
        <time>2020-08-13T18:35:52.000Z</time>
      </trkpt>
      <trkpt lat="43.97853" lon="1.81775">
        <ele>170.80000305176</ele>
        <time>2020-08-13T18:35:53.000Z</time>
      </trkpt>
      <trkpt lat="43.97852" lon="1.81781">
        <ele>170.80000305176</ele>
        <time>2020-08-13T18:35:54.000Z</time>
      </trkpt>
      <trkpt lat="43.9785" lon="1.81786">
        <ele>171</ele>
        <time>2020-08-13T18:35:55.000Z</time>
      </trkpt>
      <trkpt lat="43.97848" lon="1.81791">
        <ele>171</ele>
        <time>2020-08-13T18:35:56.000Z</time>
      </trkpt>
      <trkpt lat="43.97846" lon="1.81795">
        <ele>171.19999694824</ele>
        <time>2020-08-13T18:35:57.000Z</time>
      </trkpt>
      <trkpt lat="43.97845" lon="1.818">
        <ele>171.19999694824</ele>
        <time>2020-08-13T18:35:58.000Z</time>
      </trkpt>
      <trkpt lat="43.97844" lon="1.81805">
        <ele>171.19999694824</ele>
        <time>2020-08-13T18:35:59.000Z</time>
      </trkpt>
      <trkpt lat="43.97842" lon="1.8181">
        <ele>171.19999694824</ele>
        <time>2020-08-13T18:36:00.000Z</time>
      </trkpt>
      <trkpt lat="43.97842" lon="1.81815">
        <ele>171.19999694824</ele>
        <time>2020-08-13T18:36:01.000Z</time>
      </trkpt>
      <trkpt lat="43.97841" lon="1.8182">
        <ele>171.39999389648</ele>
        <time>2020-08-13T18:36:02.000Z</time>
      </trkpt>
      <trkpt lat="43.97842" lon="1.81825">
        <ele>171.80000305176</ele>
        <time>2020-08-13T18:36:03.000Z</time>
      </trkpt>
      <trkpt lat="43.97843" lon="1.81829">
        <ele>171.80000305176</ele>
        <time>2020-08-13T18:36:04.000Z</time>
      </trkpt>
      <trkpt lat="43.97844" lon="1.81834">
        <ele>171.80000305176</ele>
        <time>2020-08-13T18:36:05.000Z</time>
      </trkpt>
      <trkpt lat="43.97847" lon="1.81838">
        <ele>171.60000610352</ele>
        <time>2020-08-13T18:36:06.000Z</time>
      </trkpt>
      <trkpt lat="43.97849" lon="1.81843">
        <ele>171.60000610352</ele>
        <time>2020-08-13T18:36:07.000Z</time>
      </trkpt>
      <trkpt lat="43.97852" lon="1.81848">
        <ele>171.39999389648</ele>
        <time>2020-08-13T18:36:08.000Z</time>
      </trkpt>
      <trkpt lat="43.97854" lon="1.81853">
        <ele>171.19999694824</ele>
        <time>2020-08-13T18:36:09.000Z</time>
      </trkpt>
      <trkpt lat="43.97857" lon="1.81858">
        <ele>171.19999694824</ele>
        <time>2020-08-13T18:36:10.000Z</time>
      </trkpt>
      <trkpt lat="43.97859" lon="1.81863">
        <ele>171.39999389648</ele>
        <time>2020-08-13T18:36:11.000Z</time>
      </trkpt>
      <trkpt lat="43.97861" lon="1.81869">
        <ele>171.19999694824</ele>
        <time>2020-08-13T18:36:12.000Z</time>
      </trkpt>
      <trkpt lat="43.97864" lon="1.81874">
        <ele>171</ele>
        <time>2020-08-13T18:36:13.000Z</time>
      </trkpt>
      <trkpt lat="43.97866" lon="1.8188">
        <ele>171</ele>
        <time>2020-08-13T18:36:14.000Z</time>
      </trkpt>
      <trkpt lat="43.97869" lon="1.81886">
        <ele>170.80000305176</ele>
        <time>2020-08-13T18:36:15.000Z</time>
      </trkpt>
      <trkpt lat="43.97871" lon="1.81892">
        <ele>170.80000305176</ele>
        <time>2020-08-13T18:36:16.000Z</time>
      </trkpt>
      <trkpt lat="43.97873" lon="1.81897">
        <ele>170.39999389648</ele>
        <time>2020-08-13T18:36:17.000Z</time>
      </trkpt>
      <trkpt lat="43.97874" lon="1.81903">
        <ele>170.19999694824</ele>
        <time>2020-08-13T18:36:18.000Z</time>
      </trkpt>
      <trkpt lat="43.97875" lon="1.81909">
        <ele>170.19999694824</ele>
        <time>2020-08-13T18:36:19.000Z</time>
      </trkpt>
      <trkpt lat="43.97876" lon="1.81915">
        <ele>170</ele>
        <time>2020-08-13T18:36:20.000Z</time>
      </trkpt>
      <trkpt lat="43.97877" lon="1.81921">
        <ele>170.19999694824</ele>
        <time>2020-08-13T18:36:21.000Z</time>
      </trkpt>
      <trkpt lat="43.97877" lon="1.81927">
        <ele>170</ele>
        <time>2020-08-13T18:36:22.000Z</time>
      </trkpt>
      <trkpt lat="43.97877" lon="1.81933">
        <ele>170</ele>
        <time>2020-08-13T18:36:23.000Z</time>
      </trkpt>
      <trkpt lat="43.97878" lon="1.81939">
        <ele>170</ele>
        <time>2020-08-13T18:36:24.000Z</time>
      </trkpt>
      <trkpt lat="43.97878" lon="1.81944">
        <ele>170.19999694824</ele>
        <time>2020-08-13T18:36:25.000Z</time>
      </trkpt>
      <trkpt lat="43.97878" lon="1.81949">
        <ele>170</ele>
        <time>2020-08-13T18:36:26.000Z</time>
      </trkpt>
      <trkpt lat="43.97878" lon="1.81955">
        <ele>170</ele>
        <time>2020-08-13T18:36:27.000Z</time>
      </trkpt>
      <trkpt lat="43.97878" lon="1.8196">
        <ele>169.60000610352</ele>
        <time>2020-08-13T18:36:28.000Z</time>
      </trkpt>
      <trkpt lat="43.97878" lon="1.81966">
        <ele>169.60000610352</ele>
        <time>2020-08-13T18:36:29.000Z</time>
      </trkpt>
      <trkpt lat="43.97878" lon="1.81971">
        <ele>169.19999694824</ele>
        <time>2020-08-13T18:36:30.000Z</time>
      </trkpt>
      <trkpt lat="43.97877" lon="1.81976">
        <ele>169.39999389648</ele>
        <time>2020-08-13T18:36:31.000Z</time>
      </trkpt>
      <trkpt lat="43.97876" lon="1.81981">
        <ele>169.60000610352</ele>
        <time>2020-08-13T18:36:32.000Z</time>
      </trkpt>
      <trkpt lat="43.97876" lon="1.81986">
        <ele>169.80000305176</ele>
        <time>2020-08-13T18:36:33.000Z</time>
      </trkpt>
      <trkpt lat="43.97875" lon="1.81991">
        <ele>169.80000305176</ele>
        <time>2020-08-13T18:36:34.000Z</time>
      </trkpt>
      <trkpt lat="43.97875" lon="1.81996">
        <ele>169.60000610352</ele>
        <time>2020-08-13T18:36:35.000Z</time>
      </trkpt>
      <trkpt lat="43.97874" lon="1.82002">
        <ele>169.60000610352</ele>
        <time>2020-08-13T18:36:36.000Z</time>
      </trkpt>
      <trkpt lat="43.97874" lon="1.82007">
        <ele>169.80000305176</ele>
        <time>2020-08-13T18:36:37.000Z</time>
      </trkpt>
      <trkpt lat="43.97873" lon="1.82013">
        <ele>170</ele>
        <time>2020-08-13T18:36:38.000Z</time>
      </trkpt>
      <trkpt lat="43.97873" lon="1.82018">
        <ele>170</ele>
        <time>2020-08-13T18:36:39.000Z</time>
      </trkpt>
      <trkpt lat="43.97872" lon="1.82023">
        <ele>170.19999694824</ele>
        <time>2020-08-13T18:36:40.000Z</time>
      </trkpt>
      <trkpt lat="43.97871" lon="1.82028">
        <ele>170</ele>
        <time>2020-08-13T18:36:41.000Z</time>
      </trkpt>
      <trkpt lat="43.97871" lon="1.82034">
        <ele>170</ele>
        <time>2020-08-13T18:36:42.000Z</time>
      </trkpt>
      <trkpt lat="43.9787" lon="1.8204">
        <ele>170.19999694824</ele>
        <time>2020-08-13T18:36:43.000Z</time>
      </trkpt>
      <trkpt lat="43.9787" lon="1.82046">
        <ele>170.19999694824</ele>
        <time>2020-08-13T18:36:44.000Z</time>
      </trkpt>
      <trkpt lat="43.97868" lon="1.82052">
        <ele>170.39999389648</ele>
        <time>2020-08-13T18:36:45.000Z</time>
      </trkpt>
      <trkpt lat="43.97868" lon="1.82059">
        <ele>170.39999389648</ele>
        <time>2020-08-13T18:36:46.000Z</time>
      </trkpt>
      <trkpt lat="43.97867" lon="1.82065">
        <ele>170.39999389648</ele>
        <time>2020-08-13T18:36:47.000Z</time>
      </trkpt>
      <trkpt lat="43.97866" lon="1.82072">
        <ele>170.19999694824</ele>
        <time>2020-08-13T18:36:48.000Z</time>
      </trkpt>
      <trkpt lat="43.97866" lon="1.82078">
        <ele>170.39999389648</ele>
        <time>2020-08-13T18:36:49.000Z</time>
      </trkpt>
      <trkpt lat="43.97866" lon="1.82083">
        <ele>170.39999389648</ele>
        <time>2020-08-13T18:36:50.000Z</time>
      </trkpt>
      <trkpt lat="43.97866" lon="1.82089">
        <ele>170.19999694824</ele>
        <time>2020-08-13T18:36:51.000Z</time>
      </trkpt>
      <trkpt lat="43.97865" lon="1.82094">
        <ele>170.19999694824</ele>
        <time>2020-08-13T18:36:52.000Z</time>
      </trkpt>
      <trkpt lat="43.97864" lon="1.821">
        <ele>170.19999694824</ele>
        <time>2020-08-13T18:36:53.000Z</time>
      </trkpt>
      <trkpt lat="43.97863" lon="1.82106">
        <ele>170.60000610352</ele>
        <time>2020-08-13T18:36:54.000Z</time>
      </trkpt>
      <trkpt lat="43.97863" lon="1.82112">
        <ele>170.60000610352</ele>
        <time>2020-08-13T18:36:55.000Z</time>
      </trkpt>
      <trkpt lat="43.97862" lon="1.82118">
        <ele>170.80000305176</ele>
        <time>2020-08-13T18:36:56.000Z</time>
      </trkpt>
      <trkpt lat="43.97861" lon="1.82124">
        <ele>171</ele>
        <time>2020-08-13T18:36:57.000Z</time>
      </trkpt>
      <trkpt lat="43.97861" lon="1.82131">
        <ele>171</ele>
        <time>2020-08-13T18:36:58.000Z</time>
      </trkpt>
      <trkpt lat="43.9786" lon="1.82136">
        <ele>170.80000305176</ele>
        <time>2020-08-13T18:36:59.000Z</time>
      </trkpt>
      <trkpt lat="43.9786" lon="1.82142">
        <ele>171</ele>
        <time>2020-08-13T18:37:00.000Z</time>
      </trkpt>
      <trkpt lat="43.97859" lon="1.82147">
        <ele>171.19999694824</ele>
        <time>2020-08-13T18:37:01.000Z</time>
      </trkpt>
      <trkpt lat="43.97858" lon="1.82152">
        <ele>171.19999694824</ele>
        <time>2020-08-13T18:37:02.000Z</time>
      </trkpt>
      <trkpt lat="43.97858" lon="1.82157">
        <ele>171.39999389648</ele>
        <time>2020-08-13T18:37:03.000Z</time>
      </trkpt>
      <trkpt lat="43.97857" lon="1.82162">
        <ele>171.39999389648</ele>
        <time>2020-08-13T18:37:04.000Z</time>
      </trkpt>
      <trkpt lat="43.97857" lon="1.82166">
        <ele>171.39999389648</ele>
        <time>2020-08-13T18:37:05.000Z</time>
      </trkpt>
      <trkpt lat="43.97857" lon="1.82171">
        <ele>171.60000610352</ele>
        <time>2020-08-13T18:37:06.000Z</time>
      </trkpt>
      <trkpt lat="43.97857" lon="1.82176">
        <ele>171.80000305176</ele>
        <time>2020-08-13T18:37:07.000Z</time>
      </trkpt>
      <trkpt lat="43.97857" lon="1.82181">
        <ele>171.80000305176</ele>
        <time>2020-08-13T18:37:08.000Z</time>
      </trkpt>
      <trkpt lat="43.97857" lon="1.82186">
        <ele>171.80000305176</ele>
        <time>2020-08-13T18:37:09.000Z</time>
      </trkpt>
      <trkpt lat="43.97857" lon="1.82192">
        <ele>171.60000610352</ele>
        <time>2020-08-13T18:37:10.000Z</time>
      </trkpt>
      <trkpt lat="43.97857" lon="1.82197">
        <ele>171.60000610352</ele>
        <time>2020-08-13T18:37:11.000Z</time>
      </trkpt>
      <trkpt lat="43.97856" lon="1.822">
        <ele>171.80000305176</ele>
        <time>2020-08-13T18:37:12.000Z</time>
      </trkpt>
      <trkpt lat="43.97856" lon="1.82203">
        <ele>171.80000305176</ele>
        <time>2020-08-13T18:37:13.000Z</time>
      </trkpt>
      <trkpt lat="43.97855" lon="1.82206">
        <ele>172</ele>
        <time>2020-08-13T18:37:14.000Z</time>
      </trkpt>
      <trkpt lat="43.97855" lon="1.82208">
        <ele>172.19999694824</ele>
        <time>2020-08-13T18:37:15.000Z</time>
      </trkpt>
      <trkpt lat="43.97855" lon="1.8221">
        <ele>172.19999694824</ele>
        <time>2020-08-13T18:37:16.000Z</time>
      </trkpt>
      <trkpt lat="43.97855" lon="1.82212">
        <ele>172.39999389648</ele>
        <time>2020-08-13T18:37:17.000Z</time>
      </trkpt>
      <trkpt lat="43.97855" lon="1.82215">
        <ele>172.39999389648</ele>
        <time>2020-08-13T18:37:18.000Z</time>
      </trkpt>
      <trkpt lat="43.97855" lon="1.82217">
        <ele>172.39999389648</ele>
        <time>2020-08-13T18:37:19.000Z</time>
      </trkpt>
      <trkpt lat="43.97854" lon="1.82218">
        <ele>172.60000610352</ele>
        <time>2020-08-13T18:37:20.000Z</time>
      </trkpt>
      <trkpt lat="43.97854" lon="1.8222">
        <ele>172.60000610352</ele>
        <time>2020-08-13T18:37:21.000Z</time>
      </trkpt>
      <trkpt lat="43.97854" lon="1.82221">
        <ele>172.80000305176</ele>
        <time>2020-08-13T18:37:22.000Z</time>
      </trkpt>
      <trkpt lat="43.97854" lon="1.82223">
        <ele>172.80000305176</ele>
        <time>2020-08-13T18:37:23.000Z</time>
      </trkpt>
      <trkpt lat="43.97854" lon="1.82224">
        <ele>173</ele>
        <time>2020-08-13T18:37:24.000Z</time>
      </trkpt>
      <trkpt lat="43.97854" lon="1.82226">
        <ele>173</ele>
        <time>2020-08-13T18:37:25.000Z</time>
      </trkpt>
      <trkpt lat="43.97854" lon="1.82227">
        <ele>172.80000305176</ele>
        <time>2020-08-13T18:37:26.000Z</time>
      </trkpt>
      <trkpt lat="43.97854" lon="1.82229">
        <ele>172.80000305176</ele>
        <time>2020-08-13T18:37:27.000Z</time>
      </trkpt>
      <trkpt lat="43.97853" lon="1.8223">
        <ele>172.80000305176</ele>
        <time>2020-08-13T18:37:28.000Z</time>
      </trkpt>
      <trkpt lat="43.97852" lon="1.82231">
        <ele>172.80000305176</ele>
        <time>2020-08-13T18:37:29.000Z</time>
      </trkpt>
      <trkpt lat="43.97851" lon="1.82232">
        <ele>172.80000305176</ele>
        <time>2020-08-13T18:37:30.000Z</time>
      </trkpt>
      <trkpt lat="43.9785" lon="1.82232">
        <ele>173</ele>
        <time>2020-08-13T18:37:31.000Z</time>
      </trkpt>
      <trkpt lat="43.97849" lon="1.82232">
        <ele>173.19999694824</ele>
        <time>2020-08-13T18:37:32.000Z</time>
      </trkpt>
      <trkpt lat="43.97847" lon="1.82232">
        <ele>173.19999694824</ele>
        <time>2020-08-13T18:37:33.000Z</time>
      </trkpt>
      <trkpt lat="43.97846" lon="1.82232">
        <ele>173.19999694824</ele>
        <time>2020-08-13T18:37:34.000Z</time>
      </trkpt>
      <trkpt lat="43.97844" lon="1.82232">
        <ele>173.39999389648</ele>
        <time>2020-08-13T18:37:35.000Z</time>
      </trkpt>
      <trkpt lat="43.97843" lon="1.82232">
        <ele>173.39999389648</ele>
        <time>2020-08-13T18:37:36.000Z</time>
      </trkpt>
      <trkpt lat="43.97841" lon="1.82232">
        <ele>173.60000610352</ele>
        <time>2020-08-13T18:37:37.000Z</time>
      </trkpt>
      <trkpt lat="43.9784" lon="1.82232">
        <ele>173.60000610352</ele>
        <time>2020-08-13T18:37:38.000Z</time>
      </trkpt>
      <trkpt lat="43.97838" lon="1.82232">
        <ele>173.80000305176</ele>
        <time>2020-08-13T18:37:39.000Z</time>
      </trkpt>
      <trkpt lat="43.97837" lon="1.82232">
        <ele>173.80000305176</ele>
        <time>2020-08-13T18:37:40.000Z</time>
      </trkpt>
      <trkpt lat="43.97836" lon="1.82231">
        <ele>174</ele>
        <time>2020-08-13T18:37:41.000Z</time>
      </trkpt>
      <trkpt lat="43.97835" lon="1.82231">
        <ele>173.80000305176</ele>
        <time>2020-08-13T18:37:42.000Z</time>
      </trkpt>
      <trkpt lat="43.97834" lon="1.8223">
        <ele>173.80000305176</ele>
        <time>2020-08-13T18:37:43.000Z</time>
      </trkpt>
      <trkpt lat="43.97833" lon="1.8223">
        <ele>173.80000305176</ele>
        <time>2020-08-13T18:37:44.000Z</time>
      </trkpt>
      <trkpt lat="43.97832" lon="1.82229">
        <ele>173.80000305176</ele>
        <time>2020-08-13T18:37:45.000Z</time>
      </trkpt>
      <trkpt lat="43.9783" lon="1.82229">
        <ele>174</ele>
        <time>2020-08-13T18:37:46.000Z</time>
      </trkpt>
      <trkpt lat="43.97829" lon="1.82229">
        <ele>174.19999694824</ele>
        <time>2020-08-13T18:37:47.000Z</time>
      </trkpt>
      <trkpt lat="43.97827" lon="1.82229">
        <ele>174.19999694824</ele>
        <time>2020-08-13T18:37:48.000Z</time>
      </trkpt>
      <trkpt lat="43.97825" lon="1.82229">
        <ele>174.19999694824</ele>
        <time>2020-08-13T18:37:49.000Z</time>
      </trkpt>
      <trkpt lat="43.97824" lon="1.82228">
        <ele>174.19999694824</ele>
        <time>2020-08-13T18:37:50.000Z</time>
      </trkpt>
      <trkpt lat="43.97823" lon="1.82228">
        <ele>174.19999694824</ele>
        <time>2020-08-13T18:37:51.000Z</time>
      </trkpt>
      <trkpt lat="43.97821" lon="1.82227">
        <ele>174.39999389648</ele>
        <time>2020-08-13T18:37:52.000Z</time>
      </trkpt>
      <trkpt lat="43.97819" lon="1.82227">
        <ele>174.39999389648</ele>
        <time>2020-08-13T18:37:53.000Z</time>
      </trkpt>
      <trkpt lat="43.97817" lon="1.82228">
        <ele>175</ele>
        <time>2020-08-13T18:37:54.000Z</time>
      </trkpt>
      <trkpt lat="43.97814" lon="1.82228">
        <ele>175.60000610352</ele>
        <time>2020-08-13T18:37:55.000Z</time>
      </trkpt>
      <trkpt lat="43.97812" lon="1.82228">
        <ele>176</ele>
        <time>2020-08-13T18:37:56.000Z</time>
      </trkpt>
      <trkpt lat="43.9781" lon="1.82228">
        <ele>176.39999389648</ele>
        <time>2020-08-13T18:37:57.000Z</time>
      </trkpt>
      <trkpt lat="43.97808" lon="1.82229">
        <ele>176.80000305176</ele>
        <time>2020-08-13T18:37:58.000Z</time>
      </trkpt>
      <trkpt lat="43.97807" lon="1.82229">
        <ele>177</ele>
        <time>2020-08-13T18:37:59.000Z</time>
      </trkpt>
      <trkpt lat="43.97805" lon="1.8223">
        <ele>177.39999389648</ele>
        <time>2020-08-13T18:38:00.000Z</time>
      </trkpt>
      <trkpt lat="43.97804" lon="1.8223">
        <ele>177.80000305176</ele>
        <time>2020-08-13T18:38:01.000Z</time>
      </trkpt>
      <trkpt lat="43.97802" lon="1.8223">
        <ele>178</ele>
        <time>2020-08-13T18:38:02.000Z</time>
      </trkpt>
      <trkpt lat="43.97803" lon="1.8223">
        <ele>178.39999389648</ele>
        <time>2020-08-13T18:38:03.000Z</time>
      </trkpt>
      <trkpt lat="43.978" lon="1.8223">
        <ele>178.60000610352</ele>
        <time>2020-08-13T18:38:04.000Z</time>
      </trkpt>
      <trkpt lat="43.97799" lon="1.8223">
        <ele>178.80000305176</ele>
        <time>2020-08-13T18:38:05.000Z</time>
      </trkpt>
      <trkpt lat="43.97797" lon="1.8223">
        <ele>179</ele>
        <time>2020-08-13T18:38:06.000Z</time>
      </trkpt>
      <trkpt lat="43.97796" lon="1.8223">
        <ele>179.19999694824</ele>
        <time>2020-08-13T18:38:07.000Z</time>
      </trkpt>
      <trkpt lat="43.97796" lon="1.8223">
        <ele>179.39999389648</ele>
        <time>2020-08-13T18:38:08.000Z</time>
      </trkpt>
      <trkpt lat="43.97794" lon="1.82231">
        <ele>179.60000610352</ele>
        <time>2020-08-13T18:38:09.000Z</time>
      </trkpt>
      <trkpt lat="43.97793" lon="1.82231">
        <ele>179.80000305176</ele>
        <time>2020-08-13T18:38:10.000Z</time>
      </trkpt>
      <trkpt lat="43.97793" lon="1.82231">
        <ele>180</ele>
        <time>2020-08-13T18:38:11.000Z</time>
      </trkpt>
      <trkpt lat="43.97791" lon="1.82232">
        <ele>180.19999694824</ele>
        <time>2020-08-13T18:38:12.000Z</time>
      </trkpt>
      <trkpt lat="43.9779" lon="1.82232">
        <ele>180.19999694824</ele>
        <time>2020-08-13T18:38:13.000Z</time>
      </trkpt>
      <trkpt lat="43.97789" lon="1.82231">
        <ele>180.39999389648</ele>
        <time>2020-08-13T18:38:14.000Z</time>
      </trkpt>
      <trkpt lat="43.97788" lon="1.82231">
        <ele>180.60000610352</ele>
        <time>2020-08-13T18:38:15.000Z</time>
      </trkpt>
      <trkpt lat="43.97787" lon="1.82231">
        <ele>180.60000610352</ele>
        <time>2020-08-13T18:38:16.000Z</time>
      </trkpt>
      <trkpt lat="43.97786" lon="1.82231">
        <ele>180.80000305176</ele>
        <time>2020-08-13T18:38:17.000Z</time>
      </trkpt>
      <trkpt lat="43.97786" lon="1.82232">
        <ele>181.19999694824</ele>
        <time>2020-08-13T18:38:18.000Z</time>
      </trkpt>
      <trkpt lat="43.97784" lon="1.82231">
        <ele>181.39999389648</ele>
        <time>2020-08-13T18:38:19.000Z</time>
      </trkpt>
      <trkpt lat="43.97782" lon="1.82231">
        <ele>181.60000610352</ele>
        <time>2020-08-13T18:38:20.000Z</time>
      </trkpt>
      <trkpt lat="43.97781" lon="1.82231">
        <ele>181.80000305176</ele>
        <time>2020-08-13T18:38:21.000Z</time>
      </trkpt>
      <trkpt lat="43.9778" lon="1.82231">
        <ele>182</ele>
        <time>2020-08-13T18:38:22.000Z</time>
      </trkpt>
      <trkpt lat="43.97779" lon="1.82231">
        <ele>182.19999694824</ele>
        <time>2020-08-13T18:38:23.000Z</time>
      </trkpt>
      <trkpt lat="43.97778" lon="1.82231">
        <ele>182.39999389648</ele>
        <time>2020-08-13T18:38:24.000Z</time>
      </trkpt>
      <trkpt lat="43.97777" lon="1.8223">
        <ele>182.60000610352</ele>
        <time>2020-08-13T18:38:25.000Z</time>
      </trkpt>
      <trkpt lat="43.97775" lon="1.82229">
        <ele>182.80000305176</ele>
        <time>2020-08-13T18:38:26.000Z</time>
      </trkpt>
      <trkpt lat="43.97774" lon="1.82228">
        <ele>183</ele>
        <time>2020-08-13T18:38:27.000Z</time>
      </trkpt>
      <trkpt lat="43.97772" lon="1.82228">
        <ele>183</ele>
        <time>2020-08-13T18:38:28.000Z</time>
      </trkpt>
      <trkpt lat="43.97771" lon="1.82228">
        <ele>183.39999389648</ele>
        <time>2020-08-13T18:38:29.000Z</time>
      </trkpt>
      <trkpt lat="43.97769" lon="1.82228">
        <ele>183.39999389648</ele>
        <time>2020-08-13T18:38:30.000Z</time>
      </trkpt>
      <trkpt lat="43.97768" lon="1.82229">
        <ele>183.80000305176</ele>
        <time>2020-08-13T18:38:31.000Z</time>
      </trkpt>
      <trkpt lat="43.97767" lon="1.82229">
        <ele>184</ele>
        <time>2020-08-13T18:38:32.000Z</time>
      </trkpt>
      <trkpt lat="43.97766" lon="1.82229">
        <ele>184.19999694824</ele>
        <time>2020-08-13T18:38:33.000Z</time>
      </trkpt>
      <trkpt lat="43.97764" lon="1.8223">
        <ele>184.60000610352</ele>
        <time>2020-08-13T18:38:34.000Z</time>
      </trkpt>
      <trkpt lat="43.97763" lon="1.8223">
        <ele>185</ele>
        <time>2020-08-13T18:38:35.000Z</time>
      </trkpt>
      <trkpt lat="43.97761" lon="1.8223">
        <ele>185.39999389648</ele>
        <time>2020-08-13T18:38:36.000Z</time>
      </trkpt>
      <trkpt lat="43.9776" lon="1.82229">
        <ele>185.60000610352</ele>
        <time>2020-08-13T18:38:37.000Z</time>
      </trkpt>
      <trkpt lat="43.97758" lon="1.82229">
        <ele>185.80000305176</ele>
        <time>2020-08-13T18:38:38.000Z</time>
      </trkpt>
      <trkpt lat="43.97757" lon="1.82229">
        <ele>186</ele>
        <time>2020-08-13T18:38:39.000Z</time>
      </trkpt>
      <trkpt lat="43.97755" lon="1.82228">
        <ele>186.19999694824</ele>
        <time>2020-08-13T18:38:40.000Z</time>
      </trkpt>
      <trkpt lat="43.97754" lon="1.82228">
        <ele>186.19999694824</ele>
        <time>2020-08-13T18:38:41.000Z</time>
      </trkpt>
      <trkpt lat="43.97752" lon="1.82228">
        <ele>186.39999389648</ele>
        <time>2020-08-13T18:38:42.000Z</time>
      </trkpt>
      <trkpt lat="43.97751" lon="1.82228">
        <ele>186.39999389648</ele>
        <time>2020-08-13T18:38:43.000Z</time>
      </trkpt>
      <trkpt lat="43.97749" lon="1.82227">
        <ele>186.60000610352</ele>
        <time>2020-08-13T18:38:44.000Z</time>
      </trkpt>
      <trkpt lat="43.97748" lon="1.82227">
        <ele>186.80000305176</ele>
        <time>2020-08-13T18:38:45.000Z</time>
      </trkpt>
      <trkpt lat="43.97747" lon="1.82227">
        <ele>187</ele>
        <time>2020-08-13T18:38:46.000Z</time>
      </trkpt>
      <trkpt lat="43.97745" lon="1.82227">
        <ele>187.19999694824</ele>
        <time>2020-08-13T18:38:47.000Z</time>
      </trkpt>
      <trkpt lat="43.97744" lon="1.82227">
        <ele>187.60000610352</ele>
        <time>2020-08-13T18:38:48.000Z</time>
      </trkpt>
      <trkpt lat="43.97742" lon="1.82228">
        <ele>187.60000610352</ele>
        <time>2020-08-13T18:38:49.000Z</time>
      </trkpt>
      <trkpt lat="43.9774" lon="1.82228">
        <ele>187.80000305176</ele>
        <time>2020-08-13T18:38:50.000Z</time>
      </trkpt>
      <trkpt lat="43.97739" lon="1.82228">
        <ele>188</ele>
        <time>2020-08-13T18:38:51.000Z</time>
      </trkpt>
      <trkpt lat="43.97737" lon="1.82228">
        <ele>188.19999694824</ele>
        <time>2020-08-13T18:38:52.000Z</time>
      </trkpt>
      <trkpt lat="43.97736" lon="1.82228">
        <ele>188.39999389648</ele>
        <time>2020-08-13T18:38:53.000Z</time>
      </trkpt>
      <trkpt lat="43.97734" lon="1.82228">
        <ele>188.60000610352</ele>
        <time>2020-08-13T18:38:54.000Z</time>
      </trkpt>
      <trkpt lat="43.97733" lon="1.82228">
        <ele>188.60000610352</ele>
        <time>2020-08-13T18:38:55.000Z</time>
      </trkpt>
      <trkpt lat="43.97731" lon="1.82227">
        <ele>189</ele>
        <time>2020-08-13T18:38:56.000Z</time>
      </trkpt>
      <trkpt lat="43.9773" lon="1.82227">
        <ele>189.19999694824</ele>
        <time>2020-08-13T18:38:57.000Z</time>
      </trkpt>
      <trkpt lat="43.97729" lon="1.82227">
        <ele>189.60000610352</ele>
        <time>2020-08-13T18:38:58.000Z</time>
      </trkpt>
      <trkpt lat="43.97727" lon="1.82227">
        <ele>189.80000305176</ele>
        <time>2020-08-13T18:38:59.000Z</time>
      </trkpt>
      <trkpt lat="43.97725" lon="1.82227">
        <ele>189.80000305176</ele>
        <time>2020-08-13T18:39:00.000Z</time>
      </trkpt>
      <trkpt lat="43.97724" lon="1.82227">
        <ele>190.19999694824</ele>
        <time>2020-08-13T18:39:01.000Z</time>
      </trkpt>
      <trkpt lat="43.97723" lon="1.82227">
        <ele>190.19999694824</ele>
        <time>2020-08-13T18:39:02.000Z</time>
      </trkpt>
      <trkpt lat="43.97724" lon="1.82227">
        <ele>190.60000610352</ele>
        <time>2020-08-13T18:39:03.000Z</time>
      </trkpt>
      <trkpt lat="43.97721" lon="1.82228">
        <ele>190.60000610352</ele>
        <time>2020-08-13T18:39:04.000Z</time>
      </trkpt>
      <trkpt lat="43.9772" lon="1.82228">
        <ele>190.80000305176</ele>
        <time>2020-08-13T18:39:05.000Z</time>
      </trkpt>
      <trkpt lat="43.97718" lon="1.82228">
        <ele>191.19999694824</ele>
        <time>2020-08-13T18:39:06.000Z</time>
      </trkpt>
      <trkpt lat="43.97717" lon="1.82228">
        <ele>191.19999694824</ele>
        <time>2020-08-13T18:39:07.000Z</time>
      </trkpt>
      <trkpt lat="43.97718" lon="1.82228">
        <ele>191.39999389648</ele>
        <time>2020-08-13T18:39:08.000Z</time>
      </trkpt>
      <trkpt lat="43.97715" lon="1.82228">
        <ele>191.80000305176</ele>
        <time>2020-08-13T18:39:09.000Z</time>
      </trkpt>
      <trkpt lat="43.97714" lon="1.82228">
        <ele>192</ele>
        <time>2020-08-13T18:39:10.000Z</time>
      </trkpt>
      <trkpt lat="43.97714" lon="1.82228">
        <ele>192.19999694824</ele>
        <time>2020-08-13T18:39:11.000Z</time>
      </trkpt>
      <trkpt lat="43.97711" lon="1.82228">
        <ele>192.39999389648</ele>
        <time>2020-08-13T18:39:12.000Z</time>
      </trkpt>
      <trkpt lat="43.9771" lon="1.82227">
        <ele>192.39999389648</ele>
        <time>2020-08-13T18:39:13.000Z</time>
      </trkpt>
      <trkpt lat="43.97709" lon="1.82227">
        <ele>192.60000610352</ele>
        <time>2020-08-13T18:39:14.000Z</time>
      </trkpt>
      <trkpt lat="43.97707" lon="1.82226">
        <ele>192.80000305176</ele>
        <time>2020-08-13T18:39:15.000Z</time>
      </trkpt>
      <trkpt lat="43.97706" lon="1.82226">
        <ele>193</ele>
        <time>2020-08-13T18:39:16.000Z</time>
      </trkpt>
      <trkpt lat="43.97705" lon="1.82225">
        <ele>193.19999694824</ele>
        <time>2020-08-13T18:39:17.000Z</time>
      </trkpt>
      <trkpt lat="43.97704" lon="1.82224">
        <ele>193.39999389648</ele>
        <time>2020-08-13T18:39:18.000Z</time>
      </trkpt>
      <trkpt lat="43.97702" lon="1.82224">
        <ele>193.60000610352</ele>
        <time>2020-08-13T18:39:19.000Z</time>
      </trkpt>
      <trkpt lat="43.97701" lon="1.82223">
        <ele>193.80000305176</ele>
        <time>2020-08-13T18:39:20.000Z</time>
      </trkpt>
      <trkpt lat="43.97699" lon="1.82223">
        <ele>194</ele>
        <time>2020-08-13T18:39:21.000Z</time>
      </trkpt>
      <trkpt lat="43.97698" lon="1.82222">
        <ele>194.39999389648</ele>
        <time>2020-08-13T18:39:22.000Z</time>
      </trkpt>
      <trkpt lat="43.97696" lon="1.82222">
        <ele>194.80000305176</ele>
        <time>2020-08-13T18:39:23.000Z</time>
      </trkpt>
      <trkpt lat="43.97695" lon="1.82222">
        <ele>195</ele>
        <time>2020-08-13T18:39:24.000Z</time>
      </trkpt>
      <trkpt lat="43.97694" lon="1.82222">
        <ele>195.19999694824</ele>
        <time>2020-08-13T18:39:25.000Z</time>
      </trkpt>
      <trkpt lat="43.97692" lon="1.82222">
        <ele>195.19999694824</ele>
        <time>2020-08-13T18:39:26.000Z</time>
      </trkpt>
      <trkpt lat="43.97691" lon="1.82222">
        <ele>195.39999389648</ele>
        <time>2020-08-13T18:39:27.000Z</time>
      </trkpt>
      <trkpt lat="43.97692" lon="1.82222">
        <ele>195.80000305176</ele>
        <time>2020-08-13T18:39:28.000Z</time>
      </trkpt>
      <trkpt lat="43.9769" lon="1.82222">
        <ele>196</ele>
        <time>2020-08-13T18:39:29.000Z</time>
      </trkpt>
      <trkpt lat="43.97689" lon="1.82221">
        <ele>196.39999389648</ele>
        <time>2020-08-13T18:39:30.000Z</time>
      </trkpt>
      <trkpt lat="43.97687" lon="1.82221">
        <ele>196.60000610352</ele>
        <time>2020-08-13T18:39:31.000Z</time>
      </trkpt>
      <trkpt lat="43.97688" lon="1.82221">
        <ele>196.80000305176</ele>
        <time>2020-08-13T18:39:32.000Z</time>
      </trkpt>
      <trkpt lat="43.97686" lon="1.82221">
        <ele>197</ele>
        <time>2020-08-13T18:39:33.000Z</time>
      </trkpt>
      <trkpt lat="43.97685" lon="1.82221">
        <ele>197.39999389648</ele>
        <time>2020-08-13T18:39:34.000Z</time>
      </trkpt>
      <trkpt lat="43.97683" lon="1.82222">
        <ele>197.80000305176</ele>
        <time>2020-08-13T18:39:35.000Z</time>
      </trkpt>
      <trkpt lat="43.97681" lon="1.82222">
        <ele>198.19999694824</ele>
        <time>2020-08-13T18:39:36.000Z</time>
      </trkpt>
      <trkpt lat="43.97679" lon="1.82222">
        <ele>198.60000610352</ele>
        <time>2020-08-13T18:39:37.000Z</time>
      </trkpt>
      <trkpt lat="43.97678" lon="1.82222">
        <ele>199</ele>
        <time>2020-08-13T18:39:38.000Z</time>
      </trkpt>
      <trkpt lat="43.97676" lon="1.82222">
        <ele>199.19999694824</ele>
        <time>2020-08-13T18:39:39.000Z</time>
      </trkpt>
      <trkpt lat="43.97675" lon="1.82222">
        <ele>199.39999389648</ele>
        <time>2020-08-13T18:39:40.000Z</time>
      </trkpt>
      <trkpt lat="43.97673" lon="1.82222">
        <ele>199.60000610352</ele>
        <time>2020-08-13T18:39:41.000Z</time>
      </trkpt>
      <trkpt lat="43.97672" lon="1.82222">
        <ele>199.80000305176</ele>
        <time>2020-08-13T18:39:42.000Z</time>
      </trkpt>
      <trkpt lat="43.9767" lon="1.82222">
        <ele>200</ele>
        <time>2020-08-13T18:39:43.000Z</time>
      </trkpt>
      <trkpt lat="43.97669" lon="1.82222">
        <ele>200.19999694824</ele>
        <time>2020-08-13T18:39:44.000Z</time>
      </trkpt>
      <trkpt lat="43.97668" lon="1.82222">
        <ele>200.19999694824</ele>
        <time>2020-08-13T18:39:45.000Z</time>
      </trkpt>
      <trkpt lat="43.97667" lon="1.82222">
        <ele>200.19999694824</ele>
        <time>2020-08-13T18:39:46.000Z</time>
      </trkpt>
      <trkpt lat="43.97666" lon="1.82222">
        <ele>200.19999694824</ele>
        <time>2020-08-13T18:39:47.000Z</time>
      </trkpt>
      <trkpt lat="43.97665" lon="1.82222">
        <ele>200.39999389648</ele>
        <time>2020-08-13T18:39:48.000Z</time>
      </trkpt>
      <trkpt lat="43.97664" lon="1.82222">
        <ele>200.39999389648</ele>
        <time>2020-08-13T18:39:49.000Z</time>
      </trkpt>
      <trkpt lat="43.97663" lon="1.82221">
        <ele>200.60000610352</ele>
        <time>2020-08-13T18:39:50.000Z</time>
      </trkpt>
      <trkpt lat="43.97663" lon="1.82221">
        <ele>200.60000610352</ele>
        <time>2020-08-13T18:39:51.000Z</time>
      </trkpt>
      <trkpt lat="43.97663" lon="1.82221">
        <ele>200.60000610352</ele>
        <time>2020-08-13T18:39:52.000Z</time>
      </trkpt>
      <trkpt lat="43.97663" lon="1.82221">
        <ele>200.39999389648</ele>
        <time>2020-08-13T18:39:53.000Z</time>
      </trkpt>
      <trkpt lat="43.97663" lon="1.82221">
        <ele>200</ele>
        <time>2020-08-13T18:39:54.000Z</time>
      </trkpt>
      <trkpt lat="43.97663" lon="1.82221">
        <ele>200.19999694824</ele>
        <time>2020-08-13T18:39:55.000Z</time>
      </trkpt>
      <trkpt lat="43.97663" lon="1.82221">
        <ele>200</ele>
        <time>2020-08-13T18:39:56.000Z</time>
      </trkpt>
      <trkpt lat="43.97663" lon="1.82221">
        <ele>200</ele>
        <time>2020-08-13T18:39:57.000Z</time>
      </trkpt>
      <trkpt lat="43.97663" lon="1.82221">
        <ele>200</ele>
        <time>2020-08-13T18:39:58.000Z</time>
      </trkpt>
      <trkpt lat="43.97663" lon="1.82221">
        <ele>200</ele>
        <time>2020-08-13T18:39:59.000Z</time>
      </trkpt>
      <trkpt lat="43.97663" lon="1.82221">
        <ele>200</ele>
        <time>2020-08-13T18:40:00.000Z</time>
      </trkpt>
      <trkpt lat="43.97663" lon="1.82221">
        <ele>200</ele>
        <time>2020-08-13T18:40:01.000Z</time>
      </trkpt>
      <trkpt lat="43.97663" lon="1.82221">
        <ele>200</ele>
        <time>2020-08-13T18:40:02.000Z</time>
      </trkpt>
      <trkpt lat="43.97663" lon="1.82221">
        <ele>200</ele>
        <time>2020-08-13T18:40:03.000Z</time>
      </trkpt>
      <trkpt lat="43.97663" lon="1.82221">
        <ele>200</ele>
        <time>2020-08-13T18:40:04.000Z</time>
      </trkpt>
      <trkpt lat="43.97663" lon="1.82221">
        <ele>200.19999694824</ele>
        <time>2020-08-13T18:40:05.000Z</time>
      </trkpt>
      <trkpt lat="43.97663" lon="1.82221">
        <ele>200</ele>
        <time>2020-08-13T18:40:06.000Z</time>
      </trkpt>
      <trkpt lat="43.97663" lon="1.82221">
        <ele>200</ele>
        <time>2020-08-13T18:40:07.000Z</time>
      </trkpt>
      <trkpt lat="43.97663" lon="1.82221">
        <ele>200</ele>
        <time>2020-08-13T18:40:08.000Z</time>
      </trkpt>
      <trkpt lat="43.97663" lon="1.82221">
        <ele>200</ele>
        <time>2020-08-13T18:40:09.000Z</time>
      </trkpt>
      <trkpt lat="43.97663" lon="1.82221">
        <ele>200</ele>
        <time>2020-08-13T18:40:10.000Z</time>
      </trkpt>
      <trkpt lat="43.97663" lon="1.82221">
        <ele>200</ele>
        <time>2020-08-13T18:40:11.000Z</time>
      </trkpt>
      <trkpt lat="43.97663" lon="1.82221">
        <ele>200</ele>
        <time>2020-08-13T18:40:12.000Z</time>
      </trkpt>
      <trkpt lat="43.97663" lon="1.82221">
        <ele>200</ele>
        <time>2020-08-13T18:40:13.000Z</time>
      </trkpt>
      <trkpt lat="43.97663" lon="1.82221">
        <ele>200</ele>
        <time>2020-08-13T18:40:14.000Z</time>
      </trkpt>
      <trkpt lat="43.97663" lon="1.82221">
        <ele>199.80000305176</ele>
        <time>2020-08-13T18:40:15.000Z</time>
      </trkpt>
      <trkpt lat="43.97663" lon="1.82221">
        <ele>199.80000305176</ele>
        <time>2020-08-13T18:40:16.000Z</time>
      </trkpt>
      <trkpt lat="43.97663" lon="1.82221">
        <ele>199.80000305176</ele>
        <time>2020-08-13T18:40:17.000Z</time>
      </trkpt>
      <trkpt lat="43.97663" lon="1.82221">
        <ele>200</ele>
        <time>2020-08-13T18:40:18.000Z</time>
      </trkpt>
      <trkpt lat="43.97663" lon="1.82221">
        <ele>200</ele>
        <time>2020-08-13T18:40:19.000Z</time>
      </trkpt>
      <trkpt lat="43.97663" lon="1.82221">
        <ele>200</ele>
        <time>2020-08-13T18:40:20.000Z</time>
      </trkpt>
      <trkpt lat="43.97663" lon="1.82221">
        <ele>200</ele>
        <time>2020-08-13T18:40:21.000Z</time>
      </trkpt>
      <trkpt lat="43.97663" lon="1.82221">
        <ele>200</ele>
        <time>2020-08-13T18:40:22.000Z</time>
      </trkpt>
      <trkpt lat="43.97663" lon="1.82221">
        <ele>200</ele>
        <time>2020-08-13T18:40:23.000Z</time>
      </trkpt>
      <trkpt lat="43.97663" lon="1.82221">
        <ele>199.80000305176</ele>
        <time>2020-08-13T18:40:24.000Z</time>
      </trkpt>
      <trkpt lat="43.97663" lon="1.82221">
        <ele>199.80000305176</ele>
        <time>2020-08-13T18:40:25.000Z</time>
      </trkpt>
      <trkpt lat="43.97663" lon="1.82221">
        <ele>199.80000305176</ele>
        <time>2020-08-13T18:40:26.000Z</time>
      </trkpt>
      <trkpt lat="43.97663" lon="1.82221">
        <ele>199.80000305176</ele>
        <time>2020-08-13T18:40:27.000Z</time>
      </trkpt>
      <trkpt lat="43.97663" lon="1.82221">
        <ele>199.80000305176</ele>
        <time>2020-08-13T18:40:28.000Z</time>
      </trkpt>
      <trkpt lat="43.97663" lon="1.82221">
        <ele>199.80000305176</ele>
        <time>2020-08-13T18:40:29.000Z</time>
      </trkpt>
      <trkpt lat="43.97663" lon="1.82221">
        <ele>199.80000305176</ele>
        <time>2020-08-13T18:40:30.000Z</time>
      </trkpt>
      <trkpt lat="43.97663" lon="1.82221">
        <ele>199.80000305176</ele>
        <time>2020-08-13T18:40:31.000Z</time>
      </trkpt>
      <trkpt lat="43.97663" lon="1.82221">
        <ele>199.80000305176</ele>
        <time>2020-08-13T18:40:32.000Z</time>
      </trkpt>
      <trkpt lat="43.97663" lon="1.82221">
        <ele>199.80000305176</ele>
        <time>2020-08-13T18:40:33.000Z</time>
      </trkpt>
      <trkpt lat="43.97663" lon="1.82221">
        <ele>200</ele>
        <time>2020-08-13T18:40:34.000Z</time>
      </trkpt>
      <trkpt lat="43.97663" lon="1.82221">
        <ele>200</ele>
        <time>2020-08-13T18:40:35.000Z</time>
      </trkpt>
      <trkpt lat="43.97663" lon="1.82221">
        <ele>200</ele>
        <time>2020-08-13T18:40:36.000Z</time>
      </trkpt>
      <trkpt lat="43.97663" lon="1.82221">
        <ele>199.80000305176</ele>
        <time>2020-08-13T18:40:37.000Z</time>
      </trkpt>
      <trkpt lat="43.97663" lon="1.82221">
        <ele>200</ele>
        <time>2020-08-13T18:40:38.000Z</time>
      </trkpt>
      <trkpt lat="43.97663" lon="1.82221">
        <ele>200</ele>
        <time>2020-08-13T18:40:39.000Z</time>
      </trkpt>
      <trkpt lat="43.97663" lon="1.82221">
        <ele>199.80000305176</ele>
        <time>2020-08-13T18:40:40.000Z</time>
      </trkpt>
      <trkpt lat="43.97663" lon="1.82221">
        <ele>200</ele>
        <time>2020-08-13T18:40:41.000Z</time>
      </trkpt>
      <trkpt lat="43.97663" lon="1.82221">
        <ele>200</ele>
        <time>2020-08-13T18:40:42.000Z</time>
      </trkpt>
      <trkpt lat="43.97663" lon="1.82221">
        <ele>199.80000305176</ele>
        <time>2020-08-13T18:40:43.000Z</time>
      </trkpt>
      <trkpt lat="43.97663" lon="1.82221">
        <ele>199.80000305176</ele>
        <time>2020-08-13T18:40:44.000Z</time>
      </trkpt>
      <trkpt lat="43.97663" lon="1.82221">
        <ele>199.80000305176</ele>
        <time>2020-08-13T18:40:45.000Z</time>
      </trkpt>
      <trkpt lat="43.97663" lon="1.82221">
        <ele>199.80000305176</ele>
        <time>2020-08-13T18:40:46.000Z</time>
      </trkpt>
      <trkpt lat="43.97663" lon="1.82221">
        <ele>200</ele>
        <time>2020-08-13T18:40:47.000Z</time>
      </trkpt>
      <trkpt lat="43.97663" lon="1.82221">
        <ele>200</ele>
        <time>2020-08-13T18:40:48.000Z</time>
      </trkpt>
      <trkpt lat="43.97663" lon="1.82221">
        <ele>199.80000305176</ele>
        <time>2020-08-13T18:40:49.000Z</time>
      </trkpt>
      <trkpt lat="43.97663" lon="1.82221">
        <ele>199.80000305176</ele>
        <time>2020-08-13T18:40:50.000Z</time>
      </trkpt>
      <trkpt lat="43.97663" lon="1.82221">
        <ele>199.80000305176</ele>
        <time>2020-08-13T18:40:51.000Z</time>
      </trkpt>
      <trkpt lat="43.97663" lon="1.82221">
        <ele>199.80000305176</ele>
        <time>2020-08-13T18:40:52.000Z</time>
      </trkpt>
      <trkpt lat="43.97663" lon="1.82221">
        <ele>199.80000305176</ele>
        <time>2020-08-13T18:40:53.000Z</time>
      </trkpt>
      <trkpt lat="43.97663" lon="1.82221">
        <ele>199.80000305176</ele>
        <time>2020-08-13T18:40:54.000Z</time>
      </trkpt>
      <trkpt lat="43.97663" lon="1.82221">
        <ele>199.80000305176</ele>
        <time>2020-08-13T18:40:55.000Z</time>
      </trkpt>
      <trkpt lat="43.97663" lon="1.82221">
        <ele>199.80000305176</ele>
        <time>2020-08-13T18:40:56.000Z</time>
      </trkpt>
      <trkpt lat="43.97663" lon="1.82221">
        <ele>199.80000305176</ele>
        <time>2020-08-13T18:40:57.000Z</time>
      </trkpt>
      <trkpt lat="43.97663" lon="1.82221">
        <ele>199.80000305176</ele>
        <time>2020-08-13T18:40:58.000Z</time>
      </trkpt>
      <trkpt lat="43.97663" lon="1.82221">
        <ele>199.80000305176</ele>
        <time>2020-08-13T18:40:59.000Z</time>
      </trkpt>
      <trkpt lat="43.97663" lon="1.82221">
        <ele>199.80000305176</ele>
        <time>2020-08-13T18:41:00.000Z</time>
      </trkpt>
      <trkpt lat="43.97663" lon="1.82221">
        <ele>199.80000305176</ele>
        <time>2020-08-13T18:41:01.000Z</time>
      </trkpt>
      <trkpt lat="43.97663" lon="1.82221">
        <ele>199.80000305176</ele>
        <time>2020-08-13T18:41:02.000Z</time>
      </trkpt>
      <trkpt lat="43.97663" lon="1.82221">
        <ele>199.80000305176</ele>
        <time>2020-08-13T18:41:03.000Z</time>
      </trkpt>
      <trkpt lat="43.97663" lon="1.82221">
        <ele>199.80000305176</ele>
        <time>2020-08-13T18:41:04.000Z</time>
      </trkpt>
      <trkpt lat="43.97663" lon="1.82221">
        <ele>199.80000305176</ele>
        <time>2020-08-13T18:41:05.000Z</time>
      </trkpt>
      <trkpt lat="43.97663" lon="1.82221">
        <ele>199.80000305176</ele>
        <time>2020-08-13T18:41:06.000Z</time>
      </trkpt>
      <trkpt lat="43.97663" lon="1.82221">
        <ele>199.80000305176</ele>
        <time>2020-08-13T18:41:07.000Z</time>
      </trkpt>
      <trkpt lat="43.97663" lon="1.82221">
        <ele>199.80000305176</ele>
        <time>2020-08-13T18:41:08.000Z</time>
      </trkpt>
      <trkpt lat="43.97663" lon="1.82221">
        <ele>199.80000305176</ele>
        <time>2020-08-13T18:41:09.000Z</time>
      </trkpt>
      <trkpt lat="43.97663" lon="1.82221">
        <ele>199.80000305176</ele>
        <time>2020-08-13T18:41:10.000Z</time>
      </trkpt>
      <trkpt lat="43.97663" lon="1.82221">
        <ele>199.60000610352</ele>
        <time>2020-08-13T18:41:11.000Z</time>
      </trkpt>
      <trkpt lat="43.97663" lon="1.82221">
        <ele>199.60000610352</ele>
        <time>2020-08-13T18:41:12.000Z</time>
      </trkpt>
      <trkpt lat="43.97663" lon="1.82221">
        <ele>199.80000305176</ele>
        <time>2020-08-13T18:41:13.000Z</time>
      </trkpt>
      <trkpt lat="43.97663" lon="1.82221">
        <ele>199.80000305176</ele>
        <time>2020-08-13T18:41:14.000Z</time>
      </trkpt>
      <trkpt lat="43.97663" lon="1.82221">
        <ele>199.80000305176</ele>
        <time>2020-08-13T18:41:15.000Z</time>
      </trkpt>
      <trkpt lat="43.97663" lon="1.82221">
        <ele>199.80000305176</ele>
        <time>2020-08-13T18:41:16.000Z</time>
      </trkpt>
      <trkpt lat="43.97663" lon="1.82221">
        <ele>199.80000305176</ele>
        <time>2020-08-13T18:41:17.000Z</time>
      </trkpt>
      <trkpt lat="43.97663" lon="1.82221">
        <ele>199.80000305176</ele>
        <time>2020-08-13T18:41:18.000Z</time>
      </trkpt>
      <trkpt lat="43.97663" lon="1.82221">
        <ele>199.80000305176</ele>
        <time>2020-08-13T18:41:19.000Z</time>
      </trkpt>
      <trkpt lat="43.97663" lon="1.82221">
        <ele>199.80000305176</ele>
        <time>2020-08-13T18:41:20.000Z</time>
      </trkpt>
      <trkpt lat="43.97663" lon="1.82221">
        <ele>199.80000305176</ele>
        <time>2020-08-13T18:41:21.000Z</time>
      </trkpt>
      <trkpt lat="43.97663" lon="1.82221">
        <ele>199.80000305176</ele>
        <time>2020-08-13T18:41:22.000Z</time>
      </trkpt>
      <trkpt lat="43.97663" lon="1.82221">
        <ele>199.80000305176</ele>
        <time>2020-08-13T18:41:23.000Z</time>
      </trkpt>
      <trkpt lat="43.97663" lon="1.82221">
        <ele>199.80000305176</ele>
        <time>2020-08-13T18:41:24.000Z</time>
      </trkpt>
      <trkpt lat="43.97662" lon="1.82221">
        <ele>199.80000305176</ele>
        <time>2020-08-13T18:41:25.000Z</time>
      </trkpt>
      <trkpt lat="43.97662" lon="1.82221">
        <ele>200</ele>
        <time>2020-08-13T18:41:26.000Z</time>
      </trkpt>
      <trkpt lat="43.97662" lon="1.82221">
        <ele>200.19999694824</ele>
        <time>2020-08-13T18:41:27.000Z</time>
      </trkpt>
      <trkpt lat="43.97661" lon="1.82221">
        <ele>200.39999389648</ele>
        <time>2020-08-13T18:41:28.000Z</time>
      </trkpt>
      <trkpt lat="43.9766" lon="1.82221">
        <ele>200.39999389648</ele>
        <time>2020-08-13T18:41:29.000Z</time>
      </trkpt>
      <trkpt lat="43.97659" lon="1.82221">
        <ele>200.60000610352</ele>
        <time>2020-08-13T18:41:30.000Z</time>
      </trkpt>
      <trkpt lat="43.97658" lon="1.8222">
        <ele>200.60000610352</ele>
        <time>2020-08-13T18:41:31.000Z</time>
      </trkpt>
      <trkpt lat="43.97656" lon="1.82221">
        <ele>200.80000305176</ele>
        <time>2020-08-13T18:41:32.000Z</time>
      </trkpt>
      <trkpt lat="43.97654" lon="1.82221">
        <ele>201</ele>
        <time>2020-08-13T18:41:33.000Z</time>
      </trkpt>
      <trkpt lat="43.97652" lon="1.82221">
        <ele>201</ele>
        <time>2020-08-13T18:41:34.000Z</time>
      </trkpt>
      <trkpt lat="43.97651" lon="1.82221">
        <ele>201.19999694824</ele>
        <time>2020-08-13T18:41:35.000Z</time>
      </trkpt>
      <trkpt lat="43.97649" lon="1.82221">
        <ele>201.39999389648</ele>
        <time>2020-08-13T18:41:36.000Z</time>
      </trkpt>
      <trkpt lat="43.97646" lon="1.8222">
        <ele>201.60000610352</ele>
        <time>2020-08-13T18:41:37.000Z</time>
      </trkpt>
      <trkpt lat="43.97645" lon="1.8222">
        <ele>201.80000305176</ele>
        <time>2020-08-13T18:41:38.000Z</time>
      </trkpt>
      <trkpt lat="43.97643" lon="1.82219">
        <ele>202</ele>
        <time>2020-08-13T18:41:39.000Z</time>
      </trkpt>
      <trkpt lat="43.97642" lon="1.82218">
        <ele>202.19999694824</ele>
        <time>2020-08-13T18:41:40.000Z</time>
      </trkpt>
      <trkpt lat="43.97641" lon="1.82219">
        <ele>202.39999389648</ele>
        <time>2020-08-13T18:41:41.000Z</time>
      </trkpt>
      <trkpt lat="43.97642" lon="1.82218">
        <ele>202.39999389648</ele>
        <time>2020-08-13T18:41:42.000Z</time>
      </trkpt>
      <trkpt lat="43.97641" lon="1.82219">
        <ele>202.19999694824</ele>
        <time>2020-08-13T18:41:43.000Z</time>
      </trkpt>
      <trkpt lat="43.97641" lon="1.82219">
        <ele>202.19999694824</ele>
        <time>2020-08-13T18:41:44.000Z</time>
      </trkpt>
      <trkpt lat="43.97641" lon="1.82219">
        <ele>202</ele>
        <time>2020-08-13T18:41:45.000Z</time>
      </trkpt>
      <trkpt lat="43.97641" lon="1.82219">
        <ele>202</ele>
        <time>2020-08-13T18:41:46.000Z</time>
      </trkpt>
      <trkpt lat="43.97641" lon="1.82219">
        <ele>202</ele>
        <time>2020-08-13T18:41:47.000Z</time>
      </trkpt>
      <trkpt lat="43.97641" lon="1.82219">
        <ele>202</ele>
        <time>2020-08-13T18:41:48.000Z</time>
      </trkpt>
      <trkpt lat="43.97641" lon="1.82219">
        <ele>201.80000305176</ele>
        <time>2020-08-13T18:41:49.000Z</time>
      </trkpt>
      <trkpt lat="43.97641" lon="1.82219">
        <ele>201.80000305176</ele>
        <time>2020-08-13T18:41:50.000Z</time>
      </trkpt>
      <trkpt lat="43.97641" lon="1.82219">
        <ele>201.80000305176</ele>
        <time>2020-08-13T18:41:51.000Z</time>
      </trkpt>
      <trkpt lat="43.97641" lon="1.82219">
        <ele>201.80000305176</ele>
        <time>2020-08-13T18:41:52.000Z</time>
      </trkpt>
      <trkpt lat="43.97641" lon="1.82219">
        <ele>201.80000305176</ele>
        <time>2020-08-13T18:41:53.000Z</time>
      </trkpt>
      <trkpt lat="43.97641" lon="1.82219">
        <ele>201.80000305176</ele>
        <time>2020-08-13T18:41:54.000Z</time>
      </trkpt>
      <trkpt lat="43.97641" lon="1.82219">
        <ele>201.80000305176</ele>
        <time>2020-08-13T18:41:55.000Z</time>
      </trkpt>
      <trkpt lat="43.97641" lon="1.82219">
        <ele>201.80000305176</ele>
        <time>2020-08-13T18:41:56.000Z</time>
      </trkpt>
      <trkpt lat="43.97641" lon="1.82219">
        <ele>201.80000305176</ele>
        <time>2020-08-13T18:41:57.000Z</time>
      </trkpt>
      <trkpt lat="43.97641" lon="1.82219">
        <ele>201.80000305176</ele>
        <time>2020-08-13T18:41:58.000Z</time>
      </trkpt>
      <trkpt lat="43.97641" lon="1.82219">
        <ele>201.80000305176</ele>
        <time>2020-08-13T18:41:59.000Z</time>
      </trkpt>
      <trkpt lat="43.97641" lon="1.82219">
        <ele>201.80000305176</ele>
        <time>2020-08-13T18:42:00.000Z</time>
      </trkpt>
      <trkpt lat="43.97641" lon="1.82219">
        <ele>201.80000305176</ele>
        <time>2020-08-13T18:42:01.000Z</time>
      </trkpt>
      <trkpt lat="43.97641" lon="1.82219">
        <ele>201.80000305176</ele>
        <time>2020-08-13T18:42:02.000Z</time>
      </trkpt>
      <trkpt lat="43.97641" lon="1.82219">
        <ele>201.80000305176</ele>
        <time>2020-08-13T18:42:03.000Z</time>
      </trkpt>
      <trkpt lat="43.97641" lon="1.82219">
        <ele>201.60000610352</ele>
        <time>2020-08-13T18:42:04.000Z</time>
      </trkpt>
      <trkpt lat="43.97641" lon="1.82219">
        <ele>201.80000305176</ele>
        <time>2020-08-13T18:42:05.000Z</time>
      </trkpt>
      <trkpt lat="43.97641" lon="1.82219">
        <ele>201.80000305176</ele>
        <time>2020-08-13T18:42:06.000Z</time>
      </trkpt>
      <trkpt lat="43.97641" lon="1.82219">
        <ele>201.80000305176</ele>
        <time>2020-08-13T18:42:07.000Z</time>
      </trkpt>
      <trkpt lat="43.97641" lon="1.82219">
        <ele>201.80000305176</ele>
        <time>2020-08-13T18:42:08.000Z</time>
      </trkpt>
      <trkpt lat="43.97641" lon="1.82219">
        <ele>201.80000305176</ele>
        <time>2020-08-13T18:42:09.000Z</time>
      </trkpt>
      <trkpt lat="43.97641" lon="1.82219">
        <ele>201.80000305176</ele>
        <time>2020-08-13T18:42:10.000Z</time>
      </trkpt>
      <trkpt lat="43.97641" lon="1.82219">
        <ele>202</ele>
        <time>2020-08-13T18:42:11.000Z</time>
      </trkpt>
      <trkpt lat="43.97641" lon="1.82219">
        <ele>202</ele>
        <time>2020-08-13T18:42:12.000Z</time>
      </trkpt>
      <trkpt lat="43.97641" lon="1.82219">
        <ele>201.80000305176</ele>
        <time>2020-08-13T18:42:13.000Z</time>
      </trkpt>
      <trkpt lat="43.97641" lon="1.82219">
        <ele>201.80000305176</ele>
        <time>2020-08-13T18:42:14.000Z</time>
      </trkpt>
      <trkpt lat="43.97641" lon="1.82219">
        <ele>201.60000610352</ele>
        <time>2020-08-13T18:42:15.000Z</time>
      </trkpt>
      <trkpt lat="43.97641" lon="1.82219">
        <ele>201.60000610352</ele>
        <time>2020-08-13T18:42:16.000Z</time>
      </trkpt>
      <trkpt lat="43.97641" lon="1.82219">
        <ele>201.80000305176</ele>
        <time>2020-08-13T18:42:17.000Z</time>
      </trkpt>
      <trkpt lat="43.97641" lon="1.82219">
        <ele>201.80000305176</ele>
        <time>2020-08-13T18:42:18.000Z</time>
      </trkpt>
      <trkpt lat="43.97641" lon="1.82219">
        <ele>201.80000305176</ele>
        <time>2020-08-13T18:42:19.000Z</time>
      </trkpt>
      <trkpt lat="43.97641" lon="1.82219">
        <ele>201.80000305176</ele>
        <time>2020-08-13T18:42:20.000Z</time>
      </trkpt>
      <trkpt lat="43.97641" lon="1.82219">
        <ele>201.80000305176</ele>
        <time>2020-08-13T18:42:21.000Z</time>
      </trkpt>
      <trkpt lat="43.97641" lon="1.82219">
        <ele>201.80000305176</ele>
        <time>2020-08-13T18:42:22.000Z</time>
      </trkpt>
      <trkpt lat="43.97641" lon="1.82219">
        <ele>201.80000305176</ele>
        <time>2020-08-13T18:42:23.000Z</time>
      </trkpt>
      <trkpt lat="43.97641" lon="1.82219">
        <ele>201.60000610352</ele>
        <time>2020-08-13T18:42:24.000Z</time>
      </trkpt>
      <trkpt lat="43.97641" lon="1.82219">
        <ele>201.80000305176</ele>
        <time>2020-08-13T18:42:25.000Z</time>
      </trkpt>
      <trkpt lat="43.97641" lon="1.82219">
        <ele>201.60000610352</ele>
        <time>2020-08-13T18:42:26.000Z</time>
      </trkpt>
      <trkpt lat="43.97641" lon="1.82219">
        <ele>201.80000305176</ele>
        <time>2020-08-13T18:42:27.000Z</time>
      </trkpt>
      <trkpt lat="43.97641" lon="1.82219">
        <ele>201.80000305176</ele>
        <time>2020-08-13T18:42:28.000Z</time>
      </trkpt>
      <trkpt lat="43.97641" lon="1.82219">
        <ele>201.80000305176</ele>
        <time>2020-08-13T18:42:29.000Z</time>
      </trkpt>
      <trkpt lat="43.97641" lon="1.82219">
        <ele>201.80000305176</ele>
        <time>2020-08-13T18:42:30.000Z</time>
      </trkpt>
      <trkpt lat="43.97641" lon="1.82219">
        <ele>201.80000305176</ele>
        <time>2020-08-13T18:42:31.000Z</time>
      </trkpt>
      <trkpt lat="43.97641" lon="1.82219">
        <ele>201.80000305176</ele>
        <time>2020-08-13T18:42:32.000Z</time>
      </trkpt>
      <trkpt lat="43.97641" lon="1.82219">
        <ele>201.80000305176</ele>
        <time>2020-08-13T18:42:33.000Z</time>
      </trkpt>
      <trkpt lat="43.97641" lon="1.82219">
        <ele>201.60000610352</ele>
        <time>2020-08-13T18:42:34.000Z</time>
      </trkpt>
      <trkpt lat="43.97641" lon="1.82219">
        <ele>201.80000305176</ele>
        <time>2020-08-13T18:42:35.000Z</time>
      </trkpt>
      <trkpt lat="43.97641" lon="1.82219">
        <ele>202</ele>
        <time>2020-08-13T18:42:36.000Z</time>
      </trkpt>
      <trkpt lat="43.97641" lon="1.82219">
        <ele>202.39999389648</ele>
        <time>2020-08-13T18:42:37.000Z</time>
      </trkpt>
      <trkpt lat="43.97641" lon="1.82219">
        <ele>202.39999389648</ele>
        <time>2020-08-13T18:42:38.000Z</time>
      </trkpt>
      <trkpt lat="43.9764" lon="1.82219">
        <ele>202.39999389648</ele>
        <time>2020-08-13T18:42:39.000Z</time>
      </trkpt>
      <trkpt lat="43.97639" lon="1.82218">
        <ele>202.39999389648</ele>
        <time>2020-08-13T18:42:40.000Z</time>
      </trkpt>
      <trkpt lat="43.97638" lon="1.82218">
        <ele>202.39999389648</ele>
        <time>2020-08-13T18:42:41.000Z</time>
      </trkpt>
      <trkpt lat="43.97637" lon="1.82217">
        <ele>202.60000610352</ele>
        <time>2020-08-13T18:42:42.000Z</time>
      </trkpt>
      <trkpt lat="43.97636" lon="1.82217">
        <ele>202.60000610352</ele>
        <time>2020-08-13T18:42:43.000Z</time>
      </trkpt>
      <trkpt lat="43.97634" lon="1.82217">
        <ele>202.60000610352</ele>
        <time>2020-08-13T18:42:44.000Z</time>
      </trkpt>
      <trkpt lat="43.97633" lon="1.82218">
        <ele>202.80000305176</ele>
        <time>2020-08-13T18:42:45.000Z</time>
      </trkpt>
      <trkpt lat="43.97631" lon="1.82217">
        <ele>202.80000305176</ele>
        <time>2020-08-13T18:42:46.000Z</time>
      </trkpt>
      <trkpt lat="43.9763" lon="1.82217">
        <ele>203</ele>
        <time>2020-08-13T18:42:47.000Z</time>
      </trkpt>
      <trkpt lat="43.97628" lon="1.82217">
        <ele>203</ele>
        <time>2020-08-13T18:42:48.000Z</time>
      </trkpt>
      <trkpt lat="43.97626" lon="1.82217">
        <ele>203.19999694824</ele>
        <time>2020-08-13T18:42:49.000Z</time>
      </trkpt>
      <trkpt lat="43.97624" lon="1.82217">
        <ele>203.39999389648</ele>
        <time>2020-08-13T18:42:50.000Z</time>
      </trkpt>
      <trkpt lat="43.97622" lon="1.82216">
        <ele>203.60000610352</ele>
        <time>2020-08-13T18:42:51.000Z</time>
      </trkpt>
      <trkpt lat="43.97621" lon="1.82215">
        <ele>203.60000610352</ele>
        <time>2020-08-13T18:42:52.000Z</time>
      </trkpt>
      <trkpt lat="43.97619" lon="1.82215">
        <ele>203.60000610352</ele>
        <time>2020-08-13T18:42:53.000Z</time>
      </trkpt>
      <trkpt lat="43.97617" lon="1.82214">
        <ele>203.80000305176</ele>
        <time>2020-08-13T18:42:54.000Z</time>
      </trkpt>
      <trkpt lat="43.97614" lon="1.82214">
        <ele>204</ele>
        <time>2020-08-13T18:42:55.000Z</time>
      </trkpt>
      <trkpt lat="43.97612" lon="1.82213">
        <ele>204.19999694824</ele>
        <time>2020-08-13T18:42:56.000Z</time>
      </trkpt>
      <trkpt lat="43.9761" lon="1.82213">
        <ele>204.19999694824</ele>
        <time>2020-08-13T18:42:57.000Z</time>
      </trkpt>
      <trkpt lat="43.97608" lon="1.82212">
        <ele>204.39999389648</ele>
        <time>2020-08-13T18:42:58.000Z</time>
      </trkpt>
      <trkpt lat="43.97605" lon="1.82212">
        <ele>204.60000610352</ele>
        <time>2020-08-13T18:42:59.000Z</time>
      </trkpt>
      <trkpt lat="43.97603" lon="1.82211">
        <ele>204.60000610352</ele>
        <time>2020-08-13T18:43:00.000Z</time>
      </trkpt>
      <trkpt lat="43.97601" lon="1.82211">
        <ele>204.80000305176</ele>
        <time>2020-08-13T18:43:01.000Z</time>
      </trkpt>
      <trkpt lat="43.97599" lon="1.8221">
        <ele>204.60000610352</ele>
        <time>2020-08-13T18:43:02.000Z</time>
      </trkpt>
      <trkpt lat="43.97597" lon="1.8221">
        <ele>204.80000305176</ele>
        <time>2020-08-13T18:43:03.000Z</time>
      </trkpt>
      <trkpt lat="43.97594" lon="1.8221">
        <ele>205</ele>
        <time>2020-08-13T18:43:04.000Z</time>
      </trkpt>
      <trkpt lat="43.97591" lon="1.82209">
        <ele>205.19999694824</ele>
        <time>2020-08-13T18:43:05.000Z</time>
      </trkpt>
      <trkpt lat="43.97589" lon="1.82209">
        <ele>205.39999389648</ele>
        <time>2020-08-13T18:43:06.000Z</time>
      </trkpt>
      <trkpt lat="43.97586" lon="1.82209">
        <ele>205.39999389648</ele>
        <time>2020-08-13T18:43:07.000Z</time>
      </trkpt>
      <trkpt lat="43.97584" lon="1.82208">
        <ele>205.39999389648</ele>
        <time>2020-08-13T18:43:08.000Z</time>
      </trkpt>
      <trkpt lat="43.97582" lon="1.82208">
        <ele>205.60000610352</ele>
        <time>2020-08-13T18:43:09.000Z</time>
      </trkpt>
      <trkpt lat="43.9758" lon="1.82208">
        <ele>205.60000610352</ele>
        <time>2020-08-13T18:43:10.000Z</time>
      </trkpt>
      <trkpt lat="43.97578" lon="1.82208">
        <ele>205.80000305176</ele>
        <time>2020-08-13T18:43:11.000Z</time>
      </trkpt>
      <trkpt lat="43.97576" lon="1.82207">
        <ele>205.80000305176</ele>
        <time>2020-08-13T18:43:12.000Z</time>
      </trkpt>
      <trkpt lat="43.97575" lon="1.82208">
        <ele>205.80000305176</ele>
        <time>2020-08-13T18:43:13.000Z</time>
      </trkpt>
      <trkpt lat="43.97575" lon="1.82208">
        <ele>205.80000305176</ele>
        <time>2020-08-13T18:43:14.000Z</time>
      </trkpt>
      <trkpt lat="43.97574" lon="1.82209">
        <ele>205.80000305176</ele>
        <time>2020-08-13T18:43:15.000Z</time>
      </trkpt>
      <trkpt lat="43.97575" lon="1.82208">
        <ele>205.80000305176</ele>
        <time>2020-08-13T18:43:16.000Z</time>
      </trkpt>
      <trkpt lat="43.97574" lon="1.82208">
        <ele>205.80000305176</ele>
        <time>2020-08-13T18:43:17.000Z</time>
      </trkpt>
      <trkpt lat="43.97574" lon="1.82208">
        <ele>205.80000305176</ele>
        <time>2020-08-13T18:43:18.000Z</time>
      </trkpt>
      <trkpt lat="43.97574" lon="1.82208">
        <ele>205.80000305176</ele>
        <time>2020-08-13T18:43:19.000Z</time>
      </trkpt>
      <trkpt lat="43.97574" lon="1.82208">
        <ele>205.80000305176</ele>
        <time>2020-08-13T18:43:20.000Z</time>
      </trkpt>
      <trkpt lat="43.97574" lon="1.82208">
        <ele>205.80000305176</ele>
        <time>2020-08-13T18:43:21.000Z</time>
      </trkpt>
      <trkpt lat="43.97574" lon="1.82208">
        <ele>205.80000305176</ele>
        <time>2020-08-13T18:43:22.000Z</time>
      </trkpt>
      <trkpt lat="43.97574" lon="1.82208">
        <ele>205.80000305176</ele>
        <time>2020-08-13T18:43:23.000Z</time>
      </trkpt>
      <trkpt lat="43.97574" lon="1.82208">
        <ele>205</ele>
        <time>2020-08-13T18:43:24.000Z</time>
      </trkpt>
      <trkpt lat="43.97574" lon="1.82208">
        <ele>203.80000305176</ele>
        <time>2020-08-13T18:43:25.000Z</time>
      </trkpt>
      <trkpt lat="43.97574" lon="1.82208">
        <ele>201.19999694824</ele>
        <time>2020-08-13T18:43:26.000Z</time>
      </trkpt>
      <trkpt lat="43.97574" lon="1.82208">
        <ele>200.19999694824</ele>
        <time>2020-08-13T18:43:27.000Z</time>
      </trkpt>
      <trkpt lat="43.97574" lon="1.82208">
        <ele>200.39999389648</ele>
        <time>2020-08-13T18:43:28.000Z</time>
      </trkpt>
      <trkpt lat="43.97574" lon="1.82208">
        <ele>202</ele>
        <time>2020-08-13T18:43:29.000Z</time>
      </trkpt>
      <trkpt lat="43.97574" lon="1.82208">
        <ele>204.39999389648</ele>
        <time>2020-08-13T18:43:30.000Z</time>
      </trkpt>
      <trkpt lat="43.97574" lon="1.82208">
        <ele>203</ele>
        <time>2020-08-13T18:43:31.000Z</time>
      </trkpt>
      <trkpt lat="43.97574" lon="1.82208">
        <ele>203.39999389648</ele>
        <time>2020-08-13T18:43:32.000Z</time>
      </trkpt>
      <trkpt lat="43.97574" lon="1.82208">
        <ele>205.80000305176</ele>
        <time>2020-08-13T18:43:33.000Z</time>
      </trkpt>
      <trkpt lat="43.97574" lon="1.82208">
        <ele>207.19999694824</ele>
        <time>2020-08-13T18:43:34.000Z</time>
      </trkpt>
      <trkpt lat="43.97574" lon="1.82208">
        <ele>211</ele>
        <time>2020-08-13T18:43:35.000Z</time>
      </trkpt>
      <trkpt lat="43.97574" lon="1.82208">
        <ele>211.60000610352</ele>
        <time>2020-08-13T18:43:36.000Z</time>
      </trkpt>
      <trkpt lat="43.97574" lon="1.82208">
        <ele>213.19999694824</ele>
        <time>2020-08-13T18:43:37.000Z</time>
      </trkpt>
      <trkpt lat="43.97574" lon="1.82208">
        <ele>208.19999694824</ele>
        <time>2020-08-13T18:43:38.000Z</time>
      </trkpt>
      <trkpt lat="43.97574" lon="1.82208">
        <ele>206.39999389648</ele>
        <time>2020-08-13T18:43:39.000Z</time>
      </trkpt>
      <trkpt lat="43.97574" lon="1.82208">
        <ele>205.80000305176</ele>
        <time>2020-08-13T18:43:40.000Z</time>
      </trkpt>
      <trkpt lat="43.97574" lon="1.82208">
        <ele>205.80000305176</ele>
        <time>2020-08-13T18:43:41.000Z</time>
      </trkpt>
      <trkpt lat="43.97574" lon="1.82208">
        <ele>205.80000305176</ele>
        <time>2020-08-13T18:43:42.000Z</time>
      </trkpt>
      <trkpt lat="43.97574" lon="1.82208">
        <ele>205.60000610352</ele>
        <time>2020-08-13T18:43:43.000Z</time>
      </trkpt>
      <trkpt lat="43.97574" lon="1.82208">
        <ele>205.80000305176</ele>
        <time>2020-08-13T18:43:44.000Z</time>
      </trkpt>
      <trkpt lat="43.97574" lon="1.82208">
        <ele>205.60000610352</ele>
        <time>2020-08-13T18:43:45.000Z</time>
      </trkpt>
      <trkpt lat="43.97574" lon="1.82208">
        <ele>205.60000610352</ele>
        <time>2020-08-13T18:43:46.000Z</time>
      </trkpt>
      <trkpt lat="43.97574" lon="1.82208">
        <ele>205.60000610352</ele>
        <time>2020-08-13T18:43:47.000Z</time>
      </trkpt>
      <trkpt lat="43.97574" lon="1.82208">
        <ele>205.60000610352</ele>
        <time>2020-08-13T18:43:48.000Z</time>
      </trkpt>
      <trkpt lat="43.97574" lon="1.82208">
        <ele>205.60000610352</ele>
        <time>2020-08-13T18:43:49.000Z</time>
      </trkpt>
      <trkpt lat="43.97574" lon="1.82208">
        <ele>205.60000610352</ele>
        <time>2020-08-13T18:43:50.000Z</time>
      </trkpt>
      <trkpt lat="43.97574" lon="1.82208">
        <ele>205.60000610352</ele>
        <time>2020-08-13T18:43:51.000Z</time>
      </trkpt>
      <trkpt lat="43.97574" lon="1.82208">
        <ele>205.80000305176</ele>
        <time>2020-08-13T18:43:52.000Z</time>
      </trkpt>
      <trkpt lat="43.97574" lon="1.82208">
        <ele>205.60000610352</ele>
        <time>2020-08-13T18:43:53.000Z</time>
      </trkpt>
      <trkpt lat="43.97574" lon="1.82208">
        <ele>205.80000305176</ele>
        <time>2020-08-13T18:43:54.000Z</time>
      </trkpt>
      <trkpt lat="43.97574" lon="1.82208">
        <ele>205.80000305176</ele>
        <time>2020-08-13T18:43:55.000Z</time>
      </trkpt>
      <trkpt lat="43.97574" lon="1.82208">
        <ele>205.60000610352</ele>
        <time>2020-08-13T18:43:56.000Z</time>
      </trkpt>
      <trkpt lat="43.97574" lon="1.82208">
        <ele>205.60000610352</ele>
        <time>2020-08-13T18:43:57.000Z</time>
      </trkpt>
      <trkpt lat="43.97574" lon="1.82208">
        <ele>205.60000610352</ele>
        <time>2020-08-13T18:43:58.000Z</time>
      </trkpt>
      <trkpt lat="43.97574" lon="1.82208">
        <ele>205.60000610352</ele>
        <time>2020-08-13T18:43:59.000Z</time>
      </trkpt>
      <trkpt lat="43.97574" lon="1.82208">
        <ele>205.60000610352</ele>
        <time>2020-08-13T18:44:00.000Z</time>
      </trkpt>
      <trkpt lat="43.97574" lon="1.82208">
        <ele>205.80000305176</ele>
        <time>2020-08-13T18:44:01.000Z</time>
      </trkpt>
      <trkpt lat="43.97574" lon="1.82208">
        <ele>205.80000305176</ele>
        <time>2020-08-13T18:44:02.000Z</time>
      </trkpt>
      <trkpt lat="43.97574" lon="1.82208">
        <ele>205.80000305176</ele>
        <time>2020-08-13T18:44:03.000Z</time>
      </trkpt>
      <trkpt lat="43.97574" lon="1.82208">
        <ele>205.80000305176</ele>
        <time>2020-08-13T18:44:04.000Z</time>
      </trkpt>
      <trkpt lat="43.97574" lon="1.82208">
        <ele>205.80000305176</ele>
        <time>2020-08-13T18:44:05.000Z</time>
      </trkpt>
      <trkpt lat="43.97574" lon="1.82208">
        <ele>205.80000305176</ele>
        <time>2020-08-13T18:44:06.000Z</time>
      </trkpt>
      <trkpt lat="43.97574" lon="1.82208">
        <ele>205.80000305176</ele>
        <time>2020-08-13T18:44:07.000Z</time>
      </trkpt>
      <trkpt lat="43.97574" lon="1.82208">
        <ele>205.80000305176</ele>
        <time>2020-08-13T18:44:08.000Z</time>
      </trkpt>
      <trkpt lat="43.97574" lon="1.82208">
        <ele>205.80000305176</ele>
        <time>2020-08-13T18:44:09.000Z</time>
      </trkpt>
      <trkpt lat="43.97574" lon="1.82208">
        <ele>205.80000305176</ele>
        <time>2020-08-13T18:44:10.000Z</time>
      </trkpt>
      <trkpt lat="43.97574" lon="1.82208">
        <ele>205.80000305176</ele>
        <time>2020-08-13T18:44:11.000Z</time>
      </trkpt>
      <trkpt lat="43.97574" lon="1.82208">
        <ele>205.80000305176</ele>
        <time>2020-08-13T18:44:12.000Z</time>
      </trkpt>
      <trkpt lat="43.97574" lon="1.82208">
        <ele>205.80000305176</ele>
        <time>2020-08-13T18:44:13.000Z</time>
      </trkpt>
      <trkpt lat="43.97574" lon="1.82208">
        <ele>205.80000305176</ele>
        <time>2020-08-13T18:44:14.000Z</time>
      </trkpt>
      <trkpt lat="43.97574" lon="1.82208">
        <ele>205.80000305176</ele>
        <time>2020-08-13T18:44:15.000Z</time>
      </trkpt>
      <trkpt lat="43.97574" lon="1.82208">
        <ele>205.80000305176</ele>
        <time>2020-08-13T18:44:16.000Z</time>
      </trkpt>
      <trkpt lat="43.97573" lon="1.82207">
        <ele>205.80000305176</ele>
        <time>2020-08-13T18:44:17.000Z</time>
      </trkpt>
      <trkpt lat="43.97571" lon="1.82207">
        <ele>205.80000305176</ele>
        <time>2020-08-13T18:44:18.000Z</time>
      </trkpt>
      <trkpt lat="43.97569" lon="1.82206">
        <ele>205.80000305176</ele>
        <time>2020-08-13T18:44:19.000Z</time>
      </trkpt>
      <trkpt lat="43.97566" lon="1.82206">
        <ele>206</ele>
        <time>2020-08-13T18:44:20.000Z</time>
      </trkpt>
      <trkpt lat="43.97564" lon="1.82206">
        <ele>206</ele>
        <time>2020-08-13T18:44:21.000Z</time>
      </trkpt>
      <trkpt lat="43.97561" lon="1.82205">
        <ele>206</ele>
        <time>2020-08-13T18:44:22.000Z</time>
      </trkpt>
      <trkpt lat="43.97557" lon="1.82205">
        <ele>206</ele>
        <time>2020-08-13T18:44:23.000Z</time>
      </trkpt>
      <trkpt lat="43.97554" lon="1.82205">
        <ele>206</ele>
        <time>2020-08-13T18:44:24.000Z</time>
      </trkpt>
      <trkpt lat="43.9755" lon="1.82205">
        <ele>206</ele>
        <time>2020-08-13T18:44:25.000Z</time>
      </trkpt>
      <trkpt lat="43.97546" lon="1.82205">
        <ele>206</ele>
        <time>2020-08-13T18:44:26.000Z</time>
      </trkpt>
      <trkpt lat="43.97541" lon="1.82205">
        <ele>206</ele>
        <time>2020-08-13T18:44:27.000Z</time>
      </trkpt>
      <trkpt lat="43.97537" lon="1.82205">
        <ele>206</ele>
        <time>2020-08-13T18:44:28.000Z</time>
      </trkpt>
      <trkpt lat="43.97533" lon="1.82204">
        <ele>206</ele>
        <time>2020-08-13T18:44:29.000Z</time>
      </trkpt>
      <trkpt lat="43.97528" lon="1.82204">
        <ele>206</ele>
        <time>2020-08-13T18:44:30.000Z</time>
      </trkpt>
      <trkpt lat="43.97524" lon="1.82204">
        <ele>206</ele>
        <time>2020-08-13T18:44:31.000Z</time>
      </trkpt>
      <trkpt lat="43.97519" lon="1.82204">
        <ele>206</ele>
        <time>2020-08-13T18:44:32.000Z</time>
      </trkpt>
      <trkpt lat="43.97515" lon="1.82203">
        <ele>206.19999694824</ele>
        <time>2020-08-13T18:44:33.000Z</time>
      </trkpt>
      <trkpt lat="43.97511" lon="1.82203">
        <ele>206.39999389648</ele>
        <time>2020-08-13T18:44:34.000Z</time>
      </trkpt>
      <trkpt lat="43.97507" lon="1.82202">
        <ele>206.60000610352</ele>
        <time>2020-08-13T18:44:35.000Z</time>
      </trkpt>
      <trkpt lat="43.97503" lon="1.82201">
        <ele>206.80000305176</ele>
        <time>2020-08-13T18:44:36.000Z</time>
      </trkpt>
      <trkpt lat="43.97499" lon="1.822">
        <ele>206.80000305176</ele>
        <time>2020-08-13T18:44:37.000Z</time>
      </trkpt>
      <trkpt lat="43.97495" lon="1.82199">
        <ele>206.80000305176</ele>
        <time>2020-08-13T18:44:38.000Z</time>
      </trkpt>
      <trkpt lat="43.97491" lon="1.82198">
        <ele>206.80000305176</ele>
        <time>2020-08-13T18:44:39.000Z</time>
      </trkpt>
      <trkpt lat="43.97487" lon="1.82197">
        <ele>207</ele>
        <time>2020-08-13T18:44:40.000Z</time>
      </trkpt>
      <trkpt lat="43.97483" lon="1.82195">
        <ele>207</ele>
        <time>2020-08-13T18:44:41.000Z</time>
      </trkpt>
      <trkpt lat="43.97479" lon="1.82194">
        <ele>207</ele>
        <time>2020-08-13T18:44:42.000Z</time>
      </trkpt>
      <trkpt lat="43.97475" lon="1.82193">
        <ele>207.19999694824</ele>
        <time>2020-08-13T18:44:43.000Z</time>
      </trkpt>
      <trkpt lat="43.97471" lon="1.82192">
        <ele>207.19999694824</ele>
        <time>2020-08-13T18:44:44.000Z</time>
      </trkpt>
      <trkpt lat="43.97468" lon="1.82191">
        <ele>207.39999389648</ele>
        <time>2020-08-13T18:44:45.000Z</time>
      </trkpt>
      <trkpt lat="43.97464" lon="1.8219">
        <ele>207.39999389648</ele>
        <time>2020-08-13T18:44:46.000Z</time>
      </trkpt>
      <trkpt lat="43.97462" lon="1.82189">
        <ele>207.60000610352</ele>
        <time>2020-08-13T18:44:47.000Z</time>
      </trkpt>
      <trkpt lat="43.97459" lon="1.82188">
        <ele>207.39999389648</ele>
        <time>2020-08-13T18:44:48.000Z</time>
      </trkpt>
      <trkpt lat="43.97456" lon="1.82189">
        <ele>207.60000610352</ele>
        <time>2020-08-13T18:44:49.000Z</time>
      </trkpt>
      <trkpt lat="43.97453" lon="1.82191">
        <ele>207.80000305176</ele>
        <time>2020-08-13T18:44:50.000Z</time>
      </trkpt>
      <trkpt lat="43.97451" lon="1.82194">
        <ele>207.80000305176</ele>
        <time>2020-08-13T18:44:51.000Z</time>
      </trkpt>
      <trkpt lat="43.97448" lon="1.82199">
        <ele>207.80000305176</ele>
        <time>2020-08-13T18:44:52.000Z</time>
      </trkpt>
      <trkpt lat="43.97446" lon="1.82203">
        <ele>207.80000305176</ele>
        <time>2020-08-13T18:44:53.000Z</time>
      </trkpt>
      <trkpt lat="43.97443" lon="1.82208">
        <ele>207.80000305176</ele>
        <time>2020-08-13T18:44:54.000Z</time>
      </trkpt>
      <trkpt lat="43.97441" lon="1.82212">
        <ele>208</ele>
        <time>2020-08-13T18:44:55.000Z</time>
      </trkpt>
      <trkpt lat="43.97438" lon="1.82215">
        <ele>207.80000305176</ele>
        <time>2020-08-13T18:44:56.000Z</time>
      </trkpt>
      <trkpt lat="43.97436" lon="1.82219">
        <ele>208</ele>
        <time>2020-08-13T18:44:57.000Z</time>
      </trkpt>
      <trkpt lat="43.97433" lon="1.82223">
        <ele>208</ele>
        <time>2020-08-13T18:44:58.000Z</time>
      </trkpt>
      <trkpt lat="43.97431" lon="1.82228">
        <ele>208.19999694824</ele>
        <time>2020-08-13T18:44:59.000Z</time>
      </trkpt>
      <trkpt lat="43.97428" lon="1.82232">
        <ele>208</ele>
        <time>2020-08-13T18:45:00.000Z</time>
      </trkpt>
      <trkpt lat="43.97425" lon="1.82236">
        <ele>207.80000305176</ele>
        <time>2020-08-13T18:45:01.000Z</time>
      </trkpt>
      <trkpt lat="43.97422" lon="1.82241">
        <ele>207.60000610352</ele>
        <time>2020-08-13T18:45:02.000Z</time>
      </trkpt>
      <trkpt lat="43.97419" lon="1.82245">
        <ele>207.60000610352</ele>
        <time>2020-08-13T18:45:03.000Z</time>
      </trkpt>
      <trkpt lat="43.97415" lon="1.8225">
        <ele>207.60000610352</ele>
        <time>2020-08-13T18:45:04.000Z</time>
      </trkpt>
      <trkpt lat="43.97411" lon="1.82255">
        <ele>207.39999389648</ele>
        <time>2020-08-13T18:45:05.000Z</time>
      </trkpt>
      <trkpt lat="43.97406" lon="1.82261">
        <ele>206.60000610352</ele>
        <time>2020-08-13T18:45:06.000Z</time>
      </trkpt>
      <trkpt lat="43.97401" lon="1.82266">
        <ele>206.19999694824</ele>
        <time>2020-08-13T18:45:07.000Z</time>
      </trkpt>
      <trkpt lat="43.97396" lon="1.82271">
        <ele>205.80000305176</ele>
        <time>2020-08-13T18:45:08.000Z</time>
      </trkpt>
      <trkpt lat="43.9739" lon="1.82277">
        <ele>205.19999694824</ele>
        <time>2020-08-13T18:45:09.000Z</time>
      </trkpt>
      <trkpt lat="43.97385" lon="1.82284">
        <ele>204.80000305176</ele>
        <time>2020-08-13T18:45:10.000Z</time>
      </trkpt>
      <trkpt lat="43.97381" lon="1.8229">
        <ele>204.80000305176</ele>
        <time>2020-08-13T18:45:11.000Z</time>
      </trkpt>
      <trkpt lat="43.97376" lon="1.82297">
        <ele>204.80000305176</ele>
        <time>2020-08-13T18:45:12.000Z</time>
      </trkpt>
      <trkpt lat="43.97373" lon="1.82305">
        <ele>204.80000305176</ele>
        <time>2020-08-13T18:45:13.000Z</time>
      </trkpt>
      <trkpt lat="43.9737" lon="1.82313">
        <ele>204.60000610352</ele>
        <time>2020-08-13T18:45:14.000Z</time>
      </trkpt>
      <trkpt lat="43.97367" lon="1.8232">
        <ele>204.60000610352</ele>
        <time>2020-08-13T18:45:15.000Z</time>
      </trkpt>
      <trkpt lat="43.97365" lon="1.82327">
        <ele>204.60000610352</ele>
        <time>2020-08-13T18:45:16.000Z</time>
      </trkpt>
      <trkpt lat="43.97363" lon="1.82334">
        <ele>204.80000305176</ele>
        <time>2020-08-13T18:45:17.000Z</time>
      </trkpt>
      <trkpt lat="43.97361" lon="1.82341">
        <ele>204.80000305176</ele>
        <time>2020-08-13T18:45:18.000Z</time>
      </trkpt>
      <trkpt lat="43.97359" lon="1.82347">
        <ele>205</ele>
        <time>2020-08-13T18:45:19.000Z</time>
      </trkpt>
      <trkpt lat="43.97356" lon="1.82353">
        <ele>205.19999694824</ele>
        <time>2020-08-13T18:45:20.000Z</time>
      </trkpt>
      <trkpt lat="43.97354" lon="1.82359">
        <ele>205.39999389648</ele>
        <time>2020-08-13T18:45:21.000Z</time>
      </trkpt>
      <trkpt lat="43.97352" lon="1.82364">
        <ele>205.39999389648</ele>
        <time>2020-08-13T18:45:22.000Z</time>
      </trkpt>
      <trkpt lat="43.9735" lon="1.8237">
        <ele>205.60000610352</ele>
        <time>2020-08-13T18:45:23.000Z</time>
      </trkpt>
      <trkpt lat="43.97348" lon="1.82376">
        <ele>205.80000305176</ele>
        <time>2020-08-13T18:45:24.000Z</time>
      </trkpt>
      <trkpt lat="43.97345" lon="1.82383">
        <ele>205.80000305176</ele>
        <time>2020-08-13T18:45:25.000Z</time>
      </trkpt>
      <trkpt lat="43.97342" lon="1.8239">
        <ele>206</ele>
        <time>2020-08-13T18:45:26.000Z</time>
      </trkpt>
      <trkpt lat="43.9734" lon="1.82396">
        <ele>205.80000305176</ele>
        <time>2020-08-13T18:45:27.000Z</time>
      </trkpt>
      <trkpt lat="43.97339" lon="1.82403">
        <ele>206.19999694824</ele>
        <time>2020-08-13T18:45:28.000Z</time>
      </trkpt>
      <trkpt lat="43.97338" lon="1.82409">
        <ele>206.39999389648</ele>
        <time>2020-08-13T18:45:29.000Z</time>
      </trkpt>
      <trkpt lat="43.97336" lon="1.82416">
        <ele>206.39999389648</ele>
        <time>2020-08-13T18:45:30.000Z</time>
      </trkpt>
      <trkpt lat="43.97334" lon="1.82422">
        <ele>206.19999694824</ele>
        <time>2020-08-13T18:45:31.000Z</time>
      </trkpt>
      <trkpt lat="43.97333" lon="1.82427">
        <ele>206.60000610352</ele>
        <time>2020-08-13T18:45:32.000Z</time>
      </trkpt>
      <trkpt lat="43.97331" lon="1.82433">
        <ele>206.60000610352</ele>
        <time>2020-08-13T18:45:33.000Z</time>
      </trkpt>
      <trkpt lat="43.97329" lon="1.82439">
        <ele>206.80000305176</ele>
        <time>2020-08-13T18:45:34.000Z</time>
      </trkpt>
      <trkpt lat="43.97327" lon="1.82445">
        <ele>207</ele>
        <time>2020-08-13T18:45:35.000Z</time>
      </trkpt>
      <trkpt lat="43.97325" lon="1.82451">
        <ele>207.19999694824</ele>
        <time>2020-08-13T18:45:36.000Z</time>
      </trkpt>
      <trkpt lat="43.97323" lon="1.82457">
        <ele>207.19999694824</ele>
        <time>2020-08-13T18:45:37.000Z</time>
      </trkpt>
      <trkpt lat="43.97321" lon="1.82464">
        <ele>207.19999694824</ele>
        <time>2020-08-13T18:45:38.000Z</time>
      </trkpt>
      <trkpt lat="43.97319" lon="1.8247">
        <ele>207</ele>
        <time>2020-08-13T18:45:39.000Z</time>
      </trkpt>
      <trkpt lat="43.97317" lon="1.82476">
        <ele>207</ele>
        <time>2020-08-13T18:45:40.000Z</time>
      </trkpt>
      <trkpt lat="43.97316" lon="1.82483">
        <ele>207</ele>
        <time>2020-08-13T18:45:41.000Z</time>
      </trkpt>
      <trkpt lat="43.97314" lon="1.82489">
        <ele>207</ele>
        <time>2020-08-13T18:45:42.000Z</time>
      </trkpt>
      <trkpt lat="43.97313" lon="1.82494">
        <ele>207.19999694824</ele>
        <time>2020-08-13T18:45:43.000Z</time>
      </trkpt>
      <trkpt lat="43.97311" lon="1.825">
        <ele>207.19999694824</ele>
        <time>2020-08-13T18:45:44.000Z</time>
      </trkpt>
      <trkpt lat="43.9731" lon="1.82505">
        <ele>207.39999389648</ele>
        <time>2020-08-13T18:45:45.000Z</time>
      </trkpt>
      <trkpt lat="43.97309" lon="1.8251">
        <ele>207.60000610352</ele>
        <time>2020-08-13T18:45:46.000Z</time>
      </trkpt>
      <trkpt lat="43.97307" lon="1.82515">
        <ele>207.80000305176</ele>
        <time>2020-08-13T18:45:47.000Z</time>
      </trkpt>
      <trkpt lat="43.97306" lon="1.82519">
        <ele>207.80000305176</ele>
        <time>2020-08-13T18:45:48.000Z</time>
      </trkpt>
      <trkpt lat="43.97305" lon="1.82523">
        <ele>207.80000305176</ele>
        <time>2020-08-13T18:45:49.000Z</time>
      </trkpt>
      <trkpt lat="43.97304" lon="1.82527">
        <ele>207.80000305176</ele>
        <time>2020-08-13T18:45:50.000Z</time>
      </trkpt>
      <trkpt lat="43.97302" lon="1.82531">
        <ele>208</ele>
        <time>2020-08-13T18:45:51.000Z</time>
      </trkpt>
      <trkpt lat="43.97301" lon="1.82535">
        <ele>208.19999694824</ele>
        <time>2020-08-13T18:45:52.000Z</time>
      </trkpt>
      <trkpt lat="43.973" lon="1.82538">
        <ele>208.39999389648</ele>
        <time>2020-08-13T18:45:53.000Z</time>
      </trkpt>
      <trkpt lat="43.97299" lon="1.8254">
        <ele>208.80000305176</ele>
        <time>2020-08-13T18:45:54.000Z</time>
      </trkpt>
      <trkpt lat="43.97299" lon="1.82543">
        <ele>208.80000305176</ele>
        <time>2020-08-13T18:45:55.000Z</time>
      </trkpt>
      <trkpt lat="43.97298" lon="1.82545">
        <ele>209</ele>
        <time>2020-08-13T18:45:56.000Z</time>
      </trkpt>
      <trkpt lat="43.97298" lon="1.82547">
        <ele>209.39999389648</ele>
        <time>2020-08-13T18:45:57.000Z</time>
      </trkpt>
      <trkpt lat="43.97297" lon="1.8255">
        <ele>209.60000610352</ele>
        <time>2020-08-13T18:45:58.000Z</time>
      </trkpt>
      <trkpt lat="43.97297" lon="1.82553">
        <ele>209.80000305176</ele>
        <time>2020-08-13T18:45:59.000Z</time>
      </trkpt>
      <trkpt lat="43.97296" lon="1.82556">
        <ele>210</ele>
        <time>2020-08-13T18:46:00.000Z</time>
      </trkpt>
      <trkpt lat="43.97296" lon="1.82559">
        <ele>210.19999694824</ele>
        <time>2020-08-13T18:46:01.000Z</time>
      </trkpt>
      <trkpt lat="43.97296" lon="1.82561">
        <ele>210.39999389648</ele>
        <time>2020-08-13T18:46:02.000Z</time>
      </trkpt>
      <trkpt lat="43.97295" lon="1.82564">
        <ele>210.60000610352</ele>
        <time>2020-08-13T18:46:03.000Z</time>
      </trkpt>
      <trkpt lat="43.97295" lon="1.82567">
        <ele>210.80000305176</ele>
        <time>2020-08-13T18:46:04.000Z</time>
      </trkpt>
      <trkpt lat="43.97295" lon="1.82569">
        <ele>211</ele>
        <time>2020-08-13T18:46:05.000Z</time>
      </trkpt>
      <trkpt lat="43.97295" lon="1.82571">
        <ele>211.19999694824</ele>
        <time>2020-08-13T18:46:06.000Z</time>
      </trkpt>
      <trkpt lat="43.97295" lon="1.82574">
        <ele>211.60000610352</ele>
        <time>2020-08-13T18:46:07.000Z</time>
      </trkpt>
      <trkpt lat="43.97295" lon="1.82576">
        <ele>211.80000305176</ele>
        <time>2020-08-13T18:46:08.000Z</time>
      </trkpt>
      <trkpt lat="43.97295" lon="1.82578">
        <ele>212.19999694824</ele>
        <time>2020-08-13T18:46:09.000Z</time>
      </trkpt>
      <trkpt lat="43.97295" lon="1.8258">
        <ele>212.39999389648</ele>
        <time>2020-08-13T18:46:10.000Z</time>
      </trkpt>
      <trkpt lat="43.97295" lon="1.82583">
        <ele>212.80000305176</ele>
        <time>2020-08-13T18:46:11.000Z</time>
      </trkpt>
      <trkpt lat="43.97295" lon="1.82585">
        <ele>213</ele>
        <time>2020-08-13T18:46:12.000Z</time>
      </trkpt>
      <trkpt lat="43.97295" lon="1.82587">
        <ele>213.19999694824</ele>
        <time>2020-08-13T18:46:13.000Z</time>
      </trkpt>
      <trkpt lat="43.97295" lon="1.8259">
        <ele>213.39999389648</ele>
        <time>2020-08-13T18:46:14.000Z</time>
      </trkpt>
      <trkpt lat="43.97294" lon="1.82593">
        <ele>213.80000305176</ele>
        <time>2020-08-13T18:46:15.000Z</time>
      </trkpt>
      <trkpt lat="43.97294" lon="1.82596">
        <ele>213.80000305176</ele>
        <time>2020-08-13T18:46:16.000Z</time>
      </trkpt>
      <trkpt lat="43.97293" lon="1.82598">
        <ele>214.19999694824</ele>
        <time>2020-08-13T18:46:17.000Z</time>
      </trkpt>
      <trkpt lat="43.97293" lon="1.82601">
        <ele>214.60000610352</ele>
        <time>2020-08-13T18:46:18.000Z</time>
      </trkpt>
      <trkpt lat="43.97293" lon="1.82603">
        <ele>214.80000305176</ele>
        <time>2020-08-13T18:46:19.000Z</time>
      </trkpt>
      <trkpt lat="43.97292" lon="1.82605">
        <ele>214.80000305176</ele>
        <time>2020-08-13T18:46:20.000Z</time>
      </trkpt>
      <trkpt lat="43.97292" lon="1.82608">
        <ele>215</ele>
        <time>2020-08-13T18:46:21.000Z</time>
      </trkpt>
      <trkpt lat="43.97291" lon="1.82611">
        <ele>215.19999694824</ele>
        <time>2020-08-13T18:46:22.000Z</time>
      </trkpt>
      <trkpt lat="43.97291" lon="1.82613">
        <ele>215.39999389648</ele>
        <time>2020-08-13T18:46:23.000Z</time>
      </trkpt>
      <trkpt lat="43.9729" lon="1.82616">
        <ele>215.60000610352</ele>
        <time>2020-08-13T18:46:24.000Z</time>
      </trkpt>
      <trkpt lat="43.9729" lon="1.82618">
        <ele>215.80000305176</ele>
        <time>2020-08-13T18:46:25.000Z</time>
      </trkpt>
      <trkpt lat="43.9729" lon="1.82621">
        <ele>215.80000305176</ele>
        <time>2020-08-13T18:46:26.000Z</time>
      </trkpt>
      <trkpt lat="43.97289" lon="1.82623">
        <ele>215.80000305176</ele>
        <time>2020-08-13T18:46:27.000Z</time>
      </trkpt>
      <trkpt lat="43.97288" lon="1.82625">
        <ele>216</ele>
        <time>2020-08-13T18:46:28.000Z</time>
      </trkpt>
      <trkpt lat="43.97287" lon="1.82627">
        <ele>216.19999694824</ele>
        <time>2020-08-13T18:46:29.000Z</time>
      </trkpt>
      <trkpt lat="43.97285" lon="1.82628">
        <ele>216.39999389648</ele>
        <time>2020-08-13T18:46:30.000Z</time>
      </trkpt>
      <trkpt lat="43.97284" lon="1.82629">
        <ele>216.60000610352</ele>
        <time>2020-08-13T18:46:31.000Z</time>
      </trkpt>
      <trkpt lat="43.97283" lon="1.8263">
        <ele>217</ele>
        <time>2020-08-13T18:46:32.000Z</time>
      </trkpt>
      <trkpt lat="43.97281" lon="1.8263">
        <ele>217.19999694824</ele>
        <time>2020-08-13T18:46:33.000Z</time>
      </trkpt>
      <trkpt lat="43.97279" lon="1.8263">
        <ele>217.19999694824</ele>
        <time>2020-08-13T18:46:34.000Z</time>
      </trkpt>
      <trkpt lat="43.97277" lon="1.82629">
        <ele>217.39999389648</ele>
        <time>2020-08-13T18:46:35.000Z</time>
      </trkpt>
      <trkpt lat="43.97275" lon="1.82629">
        <ele>217.39999389648</ele>
        <time>2020-08-13T18:46:36.000Z</time>
      </trkpt>
      <trkpt lat="43.97272" lon="1.82629">
        <ele>217.80000305176</ele>
        <time>2020-08-13T18:46:37.000Z</time>
      </trkpt>
      <trkpt lat="43.97269" lon="1.82629">
        <ele>218</ele>
        <time>2020-08-13T18:46:38.000Z</time>
      </trkpt>
      <trkpt lat="43.97267" lon="1.82628">
        <ele>218.19999694824</ele>
        <time>2020-08-13T18:46:39.000Z</time>
      </trkpt>
      <trkpt lat="43.97264" lon="1.82627">
        <ele>218.19999694824</ele>
        <time>2020-08-13T18:46:40.000Z</time>
      </trkpt>
      <trkpt lat="43.97262" lon="1.82626">
        <ele>218.39999389648</ele>
        <time>2020-08-13T18:46:41.000Z</time>
      </trkpt>
      <trkpt lat="43.9726" lon="1.82625">
        <ele>218.60000610352</ele>
        <time>2020-08-13T18:46:42.000Z</time>
      </trkpt>
      <trkpt lat="43.97257" lon="1.82625">
        <ele>218.80000305176</ele>
        <time>2020-08-13T18:46:43.000Z</time>
      </trkpt>
      <trkpt lat="43.97255" lon="1.82624">
        <ele>219</ele>
        <time>2020-08-13T18:46:44.000Z</time>
      </trkpt>
      <trkpt lat="43.97252" lon="1.82624">
        <ele>219.19999694824</ele>
        <time>2020-08-13T18:46:45.000Z</time>
      </trkpt>
      <trkpt lat="43.9725" lon="1.82623">
        <ele>219.39999389648</ele>
        <time>2020-08-13T18:46:46.000Z</time>
      </trkpt>
      <trkpt lat="43.97248" lon="1.82623">
        <ele>219.39999389648</ele>
        <time>2020-08-13T18:46:47.000Z</time>
      </trkpt>
      <trkpt lat="43.97245" lon="1.82622">
        <ele>219.60000610352</ele>
        <time>2020-08-13T18:46:48.000Z</time>
      </trkpt>
      <trkpt lat="43.97243" lon="1.82621">
        <ele>219.80000305176</ele>
        <time>2020-08-13T18:46:49.000Z</time>
      </trkpt>
      <trkpt lat="43.9724" lon="1.82621">
        <ele>220</ele>
        <time>2020-08-13T18:46:50.000Z</time>
      </trkpt>
      <trkpt lat="43.97237" lon="1.8262">
        <ele>220.19999694824</ele>
        <time>2020-08-13T18:46:51.000Z</time>
      </trkpt>
      <trkpt lat="43.97234" lon="1.82619">
        <ele>220.39999389648</ele>
        <time>2020-08-13T18:46:52.000Z</time>
      </trkpt>
      <trkpt lat="43.97232" lon="1.82619">
        <ele>220.60000610352</ele>
        <time>2020-08-13T18:46:53.000Z</time>
      </trkpt>
      <trkpt lat="43.97229" lon="1.82619">
        <ele>220.80000305176</ele>
        <time>2020-08-13T18:46:54.000Z</time>
      </trkpt>
      <trkpt lat="43.97227" lon="1.82618">
        <ele>221</ele>
        <time>2020-08-13T18:46:55.000Z</time>
      </trkpt>
      <trkpt lat="43.97224" lon="1.82618">
        <ele>221.39999389648</ele>
        <time>2020-08-13T18:46:56.000Z</time>
      </trkpt>
      <trkpt lat="43.97221" lon="1.82617">
        <ele>221.60000610352</ele>
        <time>2020-08-13T18:46:57.000Z</time>
      </trkpt>
      <trkpt lat="43.97219" lon="1.82616">
        <ele>221.80000305176</ele>
        <time>2020-08-13T18:46:58.000Z</time>
      </trkpt>
      <trkpt lat="43.97216" lon="1.82616">
        <ele>221.80000305176</ele>
        <time>2020-08-13T18:46:59.000Z</time>
      </trkpt>
      <trkpt lat="43.97213" lon="1.82616">
        <ele>222</ele>
        <time>2020-08-13T18:47:00.000Z</time>
      </trkpt>
      <trkpt lat="43.9721" lon="1.82616">
        <ele>222.19999694824</ele>
        <time>2020-08-13T18:47:01.000Z</time>
      </trkpt>
      <trkpt lat="43.97208" lon="1.82616">
        <ele>222.39999389648</ele>
        <time>2020-08-13T18:47:02.000Z</time>
      </trkpt>
      <trkpt lat="43.97205" lon="1.82616">
        <ele>222.39999389648</ele>
        <time>2020-08-13T18:47:03.000Z</time>
      </trkpt>
      <trkpt lat="43.97203" lon="1.82616">
        <ele>222.60000610352</ele>
        <time>2020-08-13T18:47:04.000Z</time>
      </trkpt>
      <trkpt lat="43.97202" lon="1.82616">
        <ele>222.80000305176</ele>
        <time>2020-08-13T18:47:05.000Z</time>
      </trkpt>
      <trkpt lat="43.972" lon="1.82615">
        <ele>222.80000305176</ele>
        <time>2020-08-13T18:47:06.000Z</time>
      </trkpt>
      <trkpt lat="43.97199" lon="1.82615">
        <ele>222.80000305176</ele>
        <time>2020-08-13T18:47:07.000Z</time>
      </trkpt>
      <trkpt lat="43.97199" lon="1.82614">
        <ele>222.80000305176</ele>
        <time>2020-08-13T18:47:08.000Z</time>
      </trkpt>
      <trkpt lat="43.97199" lon="1.82613">
        <ele>223</ele>
        <time>2020-08-13T18:47:09.000Z</time>
      </trkpt>
      <trkpt lat="43.97199" lon="1.82613">
        <ele>223</ele>
        <time>2020-08-13T18:47:10.000Z</time>
      </trkpt>
      <trkpt lat="43.97199" lon="1.82613">
        <ele>223</ele>
        <time>2020-08-13T18:47:11.000Z</time>
      </trkpt>
      <trkpt lat="43.97199" lon="1.82613">
        <ele>222.80000305176</ele>
        <time>2020-08-13T18:47:12.000Z</time>
      </trkpt>
      <trkpt lat="43.97199" lon="1.82613">
        <ele>223</ele>
        <time>2020-08-13T18:47:13.000Z</time>
      </trkpt>
      <trkpt lat="43.97199" lon="1.82613">
        <ele>223</ele>
        <time>2020-08-13T18:47:14.000Z</time>
      </trkpt>
      <trkpt lat="43.97199" lon="1.82613">
        <ele>223</ele>
        <time>2020-08-13T18:47:15.000Z</time>
      </trkpt>
      <trkpt lat="43.97199" lon="1.82613">
        <ele>223</ele>
        <time>2020-08-13T18:47:16.000Z</time>
      </trkpt>
      <trkpt lat="43.97199" lon="1.82613">
        <ele>223</ele>
        <time>2020-08-13T18:47:17.000Z</time>
      </trkpt>
      <trkpt lat="43.97199" lon="1.82613">
        <ele>223</ele>
        <time>2020-08-13T18:47:18.000Z</time>
      </trkpt>
      <trkpt lat="43.97199" lon="1.82613">
        <ele>223</ele>
        <time>2020-08-13T18:47:19.000Z</time>
      </trkpt>
      <trkpt lat="43.97199" lon="1.82613">
        <ele>223</ele>
        <time>2020-08-13T18:47:20.000Z</time>
      </trkpt>
      <trkpt lat="43.97199" lon="1.82613">
        <ele>223</ele>
        <time>2020-08-13T18:47:21.000Z</time>
      </trkpt>
      <trkpt lat="43.97199" lon="1.82613">
        <ele>223</ele>
        <time>2020-08-13T18:47:22.000Z</time>
      </trkpt>
      <trkpt lat="43.97199" lon="1.82613">
        <ele>223</ele>
        <time>2020-08-13T18:47:23.000Z</time>
      </trkpt>
      <trkpt lat="43.97199" lon="1.82613">
        <ele>222.80000305176</ele>
        <time>2020-08-13T18:47:24.000Z</time>
      </trkpt>
      <trkpt lat="43.97199" lon="1.82613">
        <ele>222.80000305176</ele>
        <time>2020-08-13T18:47:25.000Z</time>
      </trkpt>
      <trkpt lat="43.97199" lon="1.82613">
        <ele>222.80000305176</ele>
        <time>2020-08-13T18:47:26.000Z</time>
      </trkpt>
      <trkpt lat="43.97199" lon="1.82613">
        <ele>222.80000305176</ele>
        <time>2020-08-13T18:47:27.000Z</time>
      </trkpt>
      <trkpt lat="43.97199" lon="1.82613">
        <ele>222.80000305176</ele>
        <time>2020-08-13T18:47:28.000Z</time>
      </trkpt>
      <trkpt lat="43.97199" lon="1.82613">
        <ele>223</ele>
        <time>2020-08-13T18:47:29.000Z</time>
      </trkpt>
      <trkpt lat="43.97199" lon="1.82613">
        <ele>223</ele>
        <time>2020-08-13T18:47:30.000Z</time>
      </trkpt>
      <trkpt lat="43.97199" lon="1.82613">
        <ele>222.80000305176</ele>
        <time>2020-08-13T18:47:31.000Z</time>
      </trkpt>
      <trkpt lat="43.97199" lon="1.82613">
        <ele>222.80000305176</ele>
        <time>2020-08-13T18:47:32.000Z</time>
      </trkpt>
      <trkpt lat="43.97199" lon="1.82612">
        <ele>222.80000305176</ele>
        <time>2020-08-13T18:47:33.000Z</time>
      </trkpt>
      <trkpt lat="43.97199" lon="1.82613">
        <ele>222.80000305176</ele>
        <time>2020-08-13T18:47:34.000Z</time>
      </trkpt>
      <trkpt lat="43.97199" lon="1.82612">
        <ele>222.80000305176</ele>
        <time>2020-08-13T18:47:35.000Z</time>
      </trkpt>
      <trkpt lat="43.97199" lon="1.82612">
        <ele>223</ele>
        <time>2020-08-13T18:47:36.000Z</time>
      </trkpt>
      <trkpt lat="43.97199" lon="1.82612">
        <ele>222.80000305176</ele>
        <time>2020-08-13T18:47:37.000Z</time>
      </trkpt>
      <trkpt lat="43.97199" lon="1.82612">
        <ele>222.80000305176</ele>
        <time>2020-08-13T18:47:38.000Z</time>
      </trkpt>
      <trkpt lat="43.97199" lon="1.82612">
        <ele>222.80000305176</ele>
        <time>2020-08-13T18:47:39.000Z</time>
      </trkpt>
      <trkpt lat="43.97199" lon="1.82612">
        <ele>222.80000305176</ele>
        <time>2020-08-13T18:47:40.000Z</time>
      </trkpt>
      <trkpt lat="43.97199" lon="1.82612">
        <ele>222.80000305176</ele>
        <time>2020-08-13T18:47:41.000Z</time>
      </trkpt>
      <trkpt lat="43.97199" lon="1.82612">
        <ele>222.80000305176</ele>
        <time>2020-08-13T18:47:42.000Z</time>
      </trkpt>
      <trkpt lat="43.97199" lon="1.82612">
        <ele>222.80000305176</ele>
        <time>2020-08-13T18:47:43.000Z</time>
      </trkpt>
      <trkpt lat="43.97199" lon="1.82612">
        <ele>222.80000305176</ele>
        <time>2020-08-13T18:47:44.000Z</time>
      </trkpt>
      <trkpt lat="43.97199" lon="1.82612">
        <ele>222.80000305176</ele>
        <time>2020-08-13T18:47:45.000Z</time>
      </trkpt>
      <trkpt lat="43.97199" lon="1.82612">
        <ele>222.80000305176</ele>
        <time>2020-08-13T18:47:46.000Z</time>
      </trkpt>
      <trkpt lat="43.97199" lon="1.82612">
        <ele>222.80000305176</ele>
        <time>2020-08-13T18:47:47.000Z</time>
      </trkpt>
      <trkpt lat="43.97199" lon="1.82612">
        <ele>222.80000305176</ele>
        <time>2020-08-13T18:47:48.000Z</time>
      </trkpt>
      <trkpt lat="43.97199" lon="1.82612">
        <ele>222.80000305176</ele>
        <time>2020-08-13T18:47:49.000Z</time>
      </trkpt>
      <trkpt lat="43.97199" lon="1.82612">
        <ele>222.80000305176</ele>
        <time>2020-08-13T18:47:50.000Z</time>
      </trkpt>
      <trkpt lat="43.97199" lon="1.82612">
        <ele>222.80000305176</ele>
        <time>2020-08-13T18:47:51.000Z</time>
      </trkpt>
      <trkpt lat="43.97199" lon="1.82612">
        <ele>222.80000305176</ele>
        <time>2020-08-13T18:47:52.000Z</time>
      </trkpt>
      <trkpt lat="43.97199" lon="1.82612">
        <ele>223</ele>
        <time>2020-08-13T18:47:53.000Z</time>
      </trkpt>
      <trkpt lat="43.97199" lon="1.82612">
        <ele>223</ele>
        <time>2020-08-13T18:47:54.000Z</time>
      </trkpt>
      <trkpt lat="43.97199" lon="1.82612">
        <ele>222.80000305176</ele>
        <time>2020-08-13T18:47:55.000Z</time>
      </trkpt>
      <trkpt lat="43.97199" lon="1.82612">
        <ele>223</ele>
        <time>2020-08-13T18:47:56.000Z</time>
      </trkpt>
      <trkpt lat="43.97199" lon="1.82612">
        <ele>223</ele>
        <time>2020-08-13T18:47:57.000Z</time>
      </trkpt>
      <trkpt lat="43.97199" lon="1.82612">
        <ele>223</ele>
        <time>2020-08-13T18:47:58.000Z</time>
      </trkpt>
      <trkpt lat="43.97199" lon="1.82612">
        <ele>222.80000305176</ele>
        <time>2020-08-13T18:47:59.000Z</time>
      </trkpt>
      <trkpt lat="43.97199" lon="1.82612">
        <ele>222.80000305176</ele>
        <time>2020-08-13T18:48:00.000Z</time>
      </trkpt>
      <trkpt lat="43.97199" lon="1.82612">
        <ele>222.80000305176</ele>
        <time>2020-08-13T18:48:01.000Z</time>
      </trkpt>
      <trkpt lat="43.97199" lon="1.82612">
        <ele>222.80000305176</ele>
        <time>2020-08-13T18:48:02.000Z</time>
      </trkpt>
      <trkpt lat="43.97199" lon="1.82612">
        <ele>222.80000305176</ele>
        <time>2020-08-13T18:48:03.000Z</time>
      </trkpt>
      <trkpt lat="43.97199" lon="1.82612">
        <ele>222.80000305176</ele>
        <time>2020-08-13T18:48:04.000Z</time>
      </trkpt>
      <trkpt lat="43.97199" lon="1.82612">
        <ele>222.80000305176</ele>
        <time>2020-08-13T18:48:05.000Z</time>
      </trkpt>
      <trkpt lat="43.97199" lon="1.82612">
        <ele>222.80000305176</ele>
        <time>2020-08-13T18:48:06.000Z</time>
      </trkpt>
      <trkpt lat="43.97199" lon="1.82612">
        <ele>222.80000305176</ele>
        <time>2020-08-13T18:48:07.000Z</time>
      </trkpt>
      <trkpt lat="43.97199" lon="1.82612">
        <ele>222.80000305176</ele>
        <time>2020-08-13T18:48:08.000Z</time>
      </trkpt>
      <trkpt lat="43.97199" lon="1.82612">
        <ele>222.80000305176</ele>
        <time>2020-08-13T18:48:09.000Z</time>
      </trkpt>
      <trkpt lat="43.97199" lon="1.82612">
        <ele>222.80000305176</ele>
        <time>2020-08-13T18:48:10.000Z</time>
      </trkpt>
      <trkpt lat="43.97199" lon="1.82612">
        <ele>222.80000305176</ele>
        <time>2020-08-13T18:48:11.000Z</time>
      </trkpt>
      <trkpt lat="43.97199" lon="1.82612">
        <ele>223</ele>
        <time>2020-08-13T18:48:12.000Z</time>
      </trkpt>
      <trkpt lat="43.97199" lon="1.82612">
        <ele>223</ele>
        <time>2020-08-13T18:48:13.000Z</time>
      </trkpt>
      <trkpt lat="43.97199" lon="1.82612">
        <ele>223</ele>
        <time>2020-08-13T18:48:14.000Z</time>
      </trkpt>
      <trkpt lat="43.97198" lon="1.82611">
        <ele>222.80000305176</ele>
        <time>2020-08-13T18:48:15.000Z</time>
      </trkpt>
      <trkpt lat="43.97198" lon="1.82609">
        <ele>222.80000305176</ele>
        <time>2020-08-13T18:48:16.000Z</time>
      </trkpt>
      <trkpt lat="43.97197" lon="1.82607">
        <ele>222.80000305176</ele>
        <time>2020-08-13T18:48:17.000Z</time>
      </trkpt>
      <trkpt lat="43.97197" lon="1.82605">
        <ele>222.80000305176</ele>
        <time>2020-08-13T18:48:18.000Z</time>
      </trkpt>
      <trkpt lat="43.97195" lon="1.82603">
        <ele>223</ele>
        <time>2020-08-13T18:48:19.000Z</time>
      </trkpt>
      <trkpt lat="43.97194" lon="1.82602">
        <ele>223</ele>
        <time>2020-08-13T18:48:20.000Z</time>
      </trkpt>
      <trkpt lat="43.97192" lon="1.826">
        <ele>223</ele>
        <time>2020-08-13T18:48:21.000Z</time>
      </trkpt>
      <trkpt lat="43.97191" lon="1.82598">
        <ele>223.19999694824</ele>
        <time>2020-08-13T18:48:22.000Z</time>
      </trkpt>
      <trkpt lat="43.97189" lon="1.82596">
        <ele>223.19999694824</ele>
        <time>2020-08-13T18:48:23.000Z</time>
      </trkpt>
      <trkpt lat="43.97188" lon="1.82595">
        <ele>223.39999389648</ele>
        <time>2020-08-13T18:48:24.000Z</time>
      </trkpt>
      <trkpt lat="43.97187" lon="1.82593">
        <ele>223.60000610352</ele>
        <time>2020-08-13T18:48:25.000Z</time>
      </trkpt>
      <trkpt lat="43.97186" lon="1.82592">
        <ele>223.80000305176</ele>
        <time>2020-08-13T18:48:26.000Z</time>
      </trkpt>
      <trkpt lat="43.97184" lon="1.8259">
        <ele>224</ele>
        <time>2020-08-13T18:48:27.000Z</time>
      </trkpt>
      <trkpt lat="43.97183" lon="1.82589">
        <ele>224.19999694824</ele>
        <time>2020-08-13T18:48:28.000Z</time>
      </trkpt>
      <trkpt lat="43.97182" lon="1.82588">
        <ele>224.19999694824</ele>
        <time>2020-08-13T18:48:29.000Z</time>
      </trkpt>
      <trkpt lat="43.9718" lon="1.82586">
        <ele>224.39999389648</ele>
        <time>2020-08-13T18:48:30.000Z</time>
      </trkpt>
      <trkpt lat="43.97179" lon="1.82584">
        <ele>224.39999389648</ele>
        <time>2020-08-13T18:48:31.000Z</time>
      </trkpt>
      <trkpt lat="43.97177" lon="1.82583">
        <ele>224.60000610352</ele>
        <time>2020-08-13T18:48:32.000Z</time>
      </trkpt>
      <trkpt lat="43.97176" lon="1.82581">
        <ele>224.60000610352</ele>
        <time>2020-08-13T18:48:33.000Z</time>
      </trkpt>
      <trkpt lat="43.97174" lon="1.82579">
        <ele>224.80000305176</ele>
        <time>2020-08-13T18:48:34.000Z</time>
      </trkpt>
      <trkpt lat="43.97172" lon="1.82578">
        <ele>224.80000305176</ele>
        <time>2020-08-13T18:48:35.000Z</time>
      </trkpt>
      <trkpt lat="43.9717" lon="1.82576">
        <ele>224.80000305176</ele>
        <time>2020-08-13T18:48:36.000Z</time>
      </trkpt>
      <trkpt lat="43.97168" lon="1.82574">
        <ele>225</ele>
        <time>2020-08-13T18:48:37.000Z</time>
      </trkpt>
      <trkpt lat="43.97166" lon="1.82573">
        <ele>225</ele>
        <time>2020-08-13T18:48:38.000Z</time>
      </trkpt>
      <trkpt lat="43.97164" lon="1.82571">
        <ele>225</ele>
        <time>2020-08-13T18:48:39.000Z</time>
      </trkpt>
      <trkpt lat="43.97162" lon="1.82568">
        <ele>225</ele>
        <time>2020-08-13T18:48:40.000Z</time>
      </trkpt>
      <trkpt lat="43.97159" lon="1.82566">
        <ele>225</ele>
        <time>2020-08-13T18:48:41.000Z</time>
      </trkpt>
      <trkpt lat="43.97157" lon="1.82563">
        <ele>224.80000305176</ele>
        <time>2020-08-13T18:48:42.000Z</time>
      </trkpt>
      <trkpt lat="43.97154" lon="1.8256">
        <ele>224.60000610352</ele>
        <time>2020-08-13T18:48:43.000Z</time>
      </trkpt>
      <trkpt lat="43.97151" lon="1.82557">
        <ele>224.60000610352</ele>
        <time>2020-08-13T18:48:44.000Z</time>
      </trkpt>
      <trkpt lat="43.97148" lon="1.82555">
        <ele>224.39999389648</ele>
        <time>2020-08-13T18:48:45.000Z</time>
      </trkpt>
      <trkpt lat="43.97145" lon="1.82552">
        <ele>224.39999389648</ele>
        <time>2020-08-13T18:48:46.000Z</time>
      </trkpt>
      <trkpt lat="43.97143" lon="1.82549">
        <ele>224.39999389648</ele>
        <time>2020-08-13T18:48:47.000Z</time>
      </trkpt>
      <trkpt lat="43.9714" lon="1.82546">
        <ele>224.39999389648</ele>
        <time>2020-08-13T18:48:48.000Z</time>
      </trkpt>
      <trkpt lat="43.97137" lon="1.82544">
        <ele>224.19999694824</ele>
        <time>2020-08-13T18:48:49.000Z</time>
      </trkpt>
      <trkpt lat="43.97134" lon="1.82541">
        <ele>224.19999694824</ele>
        <time>2020-08-13T18:48:50.000Z</time>
      </trkpt>
      <trkpt lat="43.97131" lon="1.82539">
        <ele>224.19999694824</ele>
        <time>2020-08-13T18:48:51.000Z</time>
      </trkpt>
      <trkpt lat="43.97128" lon="1.82537">
        <ele>224.19999694824</ele>
        <time>2020-08-13T18:48:52.000Z</time>
      </trkpt>
      <trkpt lat="43.97126" lon="1.82534">
        <ele>224.19999694824</ele>
        <time>2020-08-13T18:48:53.000Z</time>
      </trkpt>
      <trkpt lat="43.97123" lon="1.82532">
        <ele>224.19999694824</ele>
        <time>2020-08-13T18:48:54.000Z</time>
      </trkpt>
      <trkpt lat="43.97121" lon="1.8253">
        <ele>224.19999694824</ele>
        <time>2020-08-13T18:48:55.000Z</time>
      </trkpt>
      <trkpt lat="43.97118" lon="1.82528">
        <ele>224.19999694824</ele>
        <time>2020-08-13T18:48:56.000Z</time>
      </trkpt>
      <trkpt lat="43.97116" lon="1.82526">
        <ele>224</ele>
        <time>2020-08-13T18:48:57.000Z</time>
      </trkpt>
      <trkpt lat="43.97114" lon="1.82523">
        <ele>224</ele>
        <time>2020-08-13T18:48:58.000Z</time>
      </trkpt>
      <trkpt lat="43.97111" lon="1.82521">
        <ele>223.80000305176</ele>
        <time>2020-08-13T18:48:59.000Z</time>
      </trkpt>
      <trkpt lat="43.97109" lon="1.82518">
        <ele>223.80000305176</ele>
        <time>2020-08-13T18:49:00.000Z</time>
      </trkpt>
      <trkpt lat="43.97107" lon="1.82516">
        <ele>223.80000305176</ele>
        <time>2020-08-13T18:49:01.000Z</time>
      </trkpt>
      <trkpt lat="43.97104" lon="1.82513">
        <ele>223.80000305176</ele>
        <time>2020-08-13T18:49:02.000Z</time>
      </trkpt>
      <trkpt lat="43.97101" lon="1.82511">
        <ele>223.60000610352</ele>
        <time>2020-08-13T18:49:03.000Z</time>
      </trkpt>
      <trkpt lat="43.97098" lon="1.82508">
        <ele>223.60000610352</ele>
        <time>2020-08-13T18:49:04.000Z</time>
      </trkpt>
      <trkpt lat="43.97095" lon="1.82505">
        <ele>223.39999389648</ele>
        <time>2020-08-13T18:49:05.000Z</time>
      </trkpt>
      <trkpt lat="43.97092" lon="1.82503">
        <ele>223.39999389648</ele>
        <time>2020-08-13T18:49:06.000Z</time>
      </trkpt>
      <trkpt lat="43.97089" lon="1.825">
        <ele>223</ele>
        <time>2020-08-13T18:49:07.000Z</time>
      </trkpt>
      <trkpt lat="43.97086" lon="1.82497">
        <ele>223</ele>
        <time>2020-08-13T18:49:08.000Z</time>
      </trkpt>
      <trkpt lat="43.97083" lon="1.82494">
        <ele>222.60000610352</ele>
        <time>2020-08-13T18:49:09.000Z</time>
      </trkpt>
      <trkpt lat="43.97079" lon="1.8249">
        <ele>222.39999389648</ele>
        <time>2020-08-13T18:49:10.000Z</time>
      </trkpt>
      <trkpt lat="43.97075" lon="1.82486">
        <ele>222</ele>
        <time>2020-08-13T18:49:11.000Z</time>
      </trkpt>
      <trkpt lat="43.9707" lon="1.82482">
        <ele>221.60000610352</ele>
        <time>2020-08-13T18:49:12.000Z</time>
      </trkpt>
      <trkpt lat="43.97064" lon="1.82478">
        <ele>221.19999694824</ele>
        <time>2020-08-13T18:49:13.000Z</time>
      </trkpt>
      <trkpt lat="43.97059" lon="1.82474">
        <ele>220.60000610352</ele>
        <time>2020-08-13T18:49:14.000Z</time>
      </trkpt>
      <trkpt lat="43.97053" lon="1.8247">
        <ele>220.19999694824</ele>
        <time>2020-08-13T18:49:15.000Z</time>
      </trkpt>
      <trkpt lat="43.97046" lon="1.82467">
        <ele>219.80000305176</ele>
        <time>2020-08-13T18:49:16.000Z</time>
      </trkpt>
      <trkpt lat="43.9704" lon="1.82463">
        <ele>219.60000610352</ele>
        <time>2020-08-13T18:49:17.000Z</time>
      </trkpt>
      <trkpt lat="43.97033" lon="1.82459">
        <ele>219.39999389648</ele>
        <time>2020-08-13T18:49:18.000Z</time>
      </trkpt>
      <trkpt lat="43.97027" lon="1.82456">
        <ele>219.19999694824</ele>
        <time>2020-08-13T18:49:19.000Z</time>
      </trkpt>
      <trkpt lat="43.97021" lon="1.82452">
        <ele>219</ele>
        <time>2020-08-13T18:49:20.000Z</time>
      </trkpt>
      <trkpt lat="43.97015" lon="1.82447">
        <ele>218.60000610352</ele>
        <time>2020-08-13T18:49:21.000Z</time>
      </trkpt>
      <trkpt lat="43.9701" lon="1.82443">
        <ele>218.39999389648</ele>
        <time>2020-08-13T18:49:22.000Z</time>
      </trkpt>
      <trkpt lat="43.97005" lon="1.82438">
        <ele>218.19999694824</ele>
        <time>2020-08-13T18:49:23.000Z</time>
      </trkpt>
      <trkpt lat="43.97" lon="1.82432">
        <ele>218</ele>
        <time>2020-08-13T18:49:24.000Z</time>
      </trkpt>
      <trkpt lat="43.96995" lon="1.82427">
        <ele>217.60000610352</ele>
        <time>2020-08-13T18:49:25.000Z</time>
      </trkpt>
      <trkpt lat="43.96991" lon="1.82422">
        <ele>217.60000610352</ele>
        <time>2020-08-13T18:49:26.000Z</time>
      </trkpt>
      <trkpt lat="43.96986" lon="1.82417">
        <ele>217.39999389648</ele>
        <time>2020-08-13T18:49:27.000Z</time>
      </trkpt>
      <trkpt lat="43.96982" lon="1.82412">
        <ele>217.39999389648</ele>
        <time>2020-08-13T18:49:28.000Z</time>
      </trkpt>
      <trkpt lat="43.96979" lon="1.82407">
        <ele>217.39999389648</ele>
        <time>2020-08-13T18:49:29.000Z</time>
      </trkpt>
      <trkpt lat="43.96976" lon="1.82402">
        <ele>217.60000610352</ele>
        <time>2020-08-13T18:49:30.000Z</time>
      </trkpt>
      <trkpt lat="43.96974" lon="1.82398">
        <ele>217.80000305176</ele>
        <time>2020-08-13T18:49:31.000Z</time>
      </trkpt>
      <trkpt lat="43.96972" lon="1.82393">
        <ele>218</ele>
        <time>2020-08-13T18:49:32.000Z</time>
      </trkpt>
      <trkpt lat="43.9697" lon="1.82388">
        <ele>218</ele>
        <time>2020-08-13T18:49:33.000Z</time>
      </trkpt>
      <trkpt lat="43.96968" lon="1.82384">
        <ele>218.19999694824</ele>
        <time>2020-08-13T18:49:34.000Z</time>
      </trkpt>
      <trkpt lat="43.96965" lon="1.82379">
        <ele>218.39999389648</ele>
        <time>2020-08-13T18:49:35.000Z</time>
      </trkpt>
      <trkpt lat="43.96963" lon="1.82375">
        <ele>218.60000610352</ele>
        <time>2020-08-13T18:49:36.000Z</time>
      </trkpt>
      <trkpt lat="43.96962" lon="1.82369">
        <ele>218.60000610352</ele>
        <time>2020-08-13T18:49:37.000Z</time>
      </trkpt>
      <trkpt lat="43.9696" lon="1.82364">
        <ele>218.80000305176</ele>
        <time>2020-08-13T18:49:38.000Z</time>
      </trkpt>
      <trkpt lat="43.96959" lon="1.82359">
        <ele>218.80000305176</ele>
        <time>2020-08-13T18:49:39.000Z</time>
      </trkpt>
      <trkpt lat="43.96958" lon="1.82354">
        <ele>218.80000305176</ele>
        <time>2020-08-13T18:49:40.000Z</time>
      </trkpt>
      <trkpt lat="43.96957" lon="1.82349">
        <ele>219</ele>
        <time>2020-08-13T18:49:41.000Z</time>
      </trkpt>
      <trkpt lat="43.96956" lon="1.82344">
        <ele>219</ele>
        <time>2020-08-13T18:49:42.000Z</time>
      </trkpt>
      <trkpt lat="43.96955" lon="1.8234">
        <ele>219</ele>
        <time>2020-08-13T18:49:43.000Z</time>
      </trkpt>
      <trkpt lat="43.96954" lon="1.82335">
        <ele>219.19999694824</ele>
        <time>2020-08-13T18:49:44.000Z</time>
      </trkpt>
      <trkpt lat="43.96952" lon="1.82331">
        <ele>219.19999694824</ele>
        <time>2020-08-13T18:49:45.000Z</time>
      </trkpt>
      <trkpt lat="43.96952" lon="1.82327">
        <ele>219.19999694824</ele>
        <time>2020-08-13T18:49:46.000Z</time>
      </trkpt>
      <trkpt lat="43.96951" lon="1.82322">
        <ele>219.19999694824</ele>
        <time>2020-08-13T18:49:47.000Z</time>
      </trkpt>
      <trkpt lat="43.9695" lon="1.82318">
        <ele>219.39999389648</ele>
        <time>2020-08-13T18:49:48.000Z</time>
      </trkpt>
      <trkpt lat="43.96949" lon="1.82314">
        <ele>219.39999389648</ele>
        <time>2020-08-13T18:49:49.000Z</time>
      </trkpt>
      <trkpt lat="43.96948" lon="1.8231">
        <ele>219.39999389648</ele>
        <time>2020-08-13T18:49:50.000Z</time>
      </trkpt>
      <trkpt lat="43.96946" lon="1.82306">
        <ele>219.39999389648</ele>
        <time>2020-08-13T18:49:51.000Z</time>
      </trkpt>
      <trkpt lat="43.96945" lon="1.82302">
        <ele>219.39999389648</ele>
        <time>2020-08-13T18:49:52.000Z</time>
      </trkpt>
      <trkpt lat="43.96944" lon="1.82298">
        <ele>219.39999389648</ele>
        <time>2020-08-13T18:49:53.000Z</time>
      </trkpt>
      <trkpt lat="43.96943" lon="1.82294">
        <ele>219.39999389648</ele>
        <time>2020-08-13T18:49:54.000Z</time>
      </trkpt>
      <trkpt lat="43.96942" lon="1.82291">
        <ele>219.60000610352</ele>
        <time>2020-08-13T18:49:55.000Z</time>
      </trkpt>
      <trkpt lat="43.96941" lon="1.82287">
        <ele>219.60000610352</ele>
        <time>2020-08-13T18:49:56.000Z</time>
      </trkpt>
      <trkpt lat="43.96939" lon="1.82283">
        <ele>219.80000305176</ele>
        <time>2020-08-13T18:49:57.000Z</time>
      </trkpt>
      <trkpt lat="43.96937" lon="1.8228">
        <ele>219.80000305176</ele>
        <time>2020-08-13T18:49:58.000Z</time>
      </trkpt>
      <trkpt lat="43.96936" lon="1.82276">
        <ele>220</ele>
        <time>2020-08-13T18:49:59.000Z</time>
      </trkpt>
      <trkpt lat="43.96934" lon="1.82273">
        <ele>220</ele>
        <time>2020-08-13T18:50:00.000Z</time>
      </trkpt>
      <trkpt lat="43.96932" lon="1.82269">
        <ele>220.19999694824</ele>
        <time>2020-08-13T18:50:01.000Z</time>
      </trkpt>
      <trkpt lat="43.9693" lon="1.82266">
        <ele>220.39999389648</ele>
        <time>2020-08-13T18:50:02.000Z</time>
      </trkpt>
      <trkpt lat="43.96928" lon="1.82263">
        <ele>220.39999389648</ele>
        <time>2020-08-13T18:50:03.000Z</time>
      </trkpt>
      <trkpt lat="43.96927" lon="1.8226">
        <ele>220.39999389648</ele>
        <time>2020-08-13T18:50:04.000Z</time>
      </trkpt>
      <trkpt lat="43.96925" lon="1.82257">
        <ele>220.60000610352</ele>
        <time>2020-08-13T18:50:05.000Z</time>
      </trkpt>
      <trkpt lat="43.96923" lon="1.82253">
        <ele>220.60000610352</ele>
        <time>2020-08-13T18:50:06.000Z</time>
      </trkpt>
      <trkpt lat="43.96921" lon="1.8225">
        <ele>220.80000305176</ele>
        <time>2020-08-13T18:50:07.000Z</time>
      </trkpt>
      <trkpt lat="43.96919" lon="1.82248">
        <ele>220.80000305176</ele>
        <time>2020-08-13T18:50:08.000Z</time>
      </trkpt>
      <trkpt lat="43.96917" lon="1.82245">
        <ele>220.80000305176</ele>
        <time>2020-08-13T18:50:09.000Z</time>
      </trkpt>
      <trkpt lat="43.96915" lon="1.82242">
        <ele>221</ele>
        <time>2020-08-13T18:50:10.000Z</time>
      </trkpt>
      <trkpt lat="43.96913" lon="1.82239">
        <ele>221</ele>
        <time>2020-08-13T18:50:11.000Z</time>
      </trkpt>
      <trkpt lat="43.96911" lon="1.82237">
        <ele>221.19999694824</ele>
        <time>2020-08-13T18:50:12.000Z</time>
      </trkpt>
      <trkpt lat="43.96909" lon="1.82234">
        <ele>221.19999694824</ele>
        <time>2020-08-13T18:50:13.000Z</time>
      </trkpt>
      <trkpt lat="43.96907" lon="1.82231">
        <ele>221.39999389648</ele>
        <time>2020-08-13T18:50:14.000Z</time>
      </trkpt>
      <trkpt lat="43.96906" lon="1.82229">
        <ele>221.60000610352</ele>
        <time>2020-08-13T18:50:15.000Z</time>
      </trkpt>
      <trkpt lat="43.96904" lon="1.82226">
        <ele>221.60000610352</ele>
        <time>2020-08-13T18:50:16.000Z</time>
      </trkpt>
      <trkpt lat="43.96902" lon="1.82223">
        <ele>221.60000610352</ele>
        <time>2020-08-13T18:50:17.000Z</time>
      </trkpt>
      <trkpt lat="43.969" lon="1.82221">
        <ele>221.80000305176</ele>
        <time>2020-08-13T18:50:18.000Z</time>
      </trkpt>
      <trkpt lat="43.96899" lon="1.82219">
        <ele>222.19999694824</ele>
        <time>2020-08-13T18:50:19.000Z</time>
      </trkpt>
      <trkpt lat="43.96897" lon="1.82216">
        <ele>222.39999389648</ele>
        <time>2020-08-13T18:50:20.000Z</time>
      </trkpt>
      <trkpt lat="43.96896" lon="1.82214">
        <ele>222.39999389648</ele>
        <time>2020-08-13T18:50:21.000Z</time>
      </trkpt>
      <trkpt lat="43.96894" lon="1.82211">
        <ele>222.60000610352</ele>
        <time>2020-08-13T18:50:22.000Z</time>
      </trkpt>
      <trkpt lat="43.96893" lon="1.82209">
        <ele>222.60000610352</ele>
        <time>2020-08-13T18:50:23.000Z</time>
      </trkpt>
      <trkpt lat="43.96891" lon="1.82207">
        <ele>223</ele>
        <time>2020-08-13T18:50:24.000Z</time>
      </trkpt>
      <trkpt lat="43.9689" lon="1.82205">
        <ele>223.19999694824</ele>
        <time>2020-08-13T18:50:25.000Z</time>
      </trkpt>
      <trkpt lat="43.96889" lon="1.82203">
        <ele>223.39999389648</ele>
        <time>2020-08-13T18:50:26.000Z</time>
      </trkpt>
      <trkpt lat="43.96888" lon="1.82201">
        <ele>223.60000610352</ele>
        <time>2020-08-13T18:50:27.000Z</time>
      </trkpt>
      <trkpt lat="43.96886" lon="1.82199">
        <ele>223.80000305176</ele>
        <time>2020-08-13T18:50:28.000Z</time>
      </trkpt>
      <trkpt lat="43.96885" lon="1.82197">
        <ele>223.80000305176</ele>
        <time>2020-08-13T18:50:29.000Z</time>
      </trkpt>
      <trkpt lat="43.96884" lon="1.82195">
        <ele>224</ele>
        <time>2020-08-13T18:50:30.000Z</time>
      </trkpt>
      <trkpt lat="43.96883" lon="1.82193">
        <ele>224.19999694824</ele>
        <time>2020-08-13T18:50:31.000Z</time>
      </trkpt>
      <trkpt lat="43.96881" lon="1.82191">
        <ele>224.60000610352</ele>
        <time>2020-08-13T18:50:32.000Z</time>
      </trkpt>
      <trkpt lat="43.9688" lon="1.82189">
        <ele>224.80000305176</ele>
        <time>2020-08-13T18:50:33.000Z</time>
      </trkpt>
      <trkpt lat="43.96878" lon="1.82187">
        <ele>225</ele>
        <time>2020-08-13T18:50:34.000Z</time>
      </trkpt>
      <trkpt lat="43.96877" lon="1.82185">
        <ele>225.19999694824</ele>
        <time>2020-08-13T18:50:35.000Z</time>
      </trkpt>
      <trkpt lat="43.96876" lon="1.82183">
        <ele>225.60000610352</ele>
        <time>2020-08-13T18:50:36.000Z</time>
      </trkpt>
      <trkpt lat="43.96875" lon="1.82181">
        <ele>225.80000305176</ele>
        <time>2020-08-13T18:50:37.000Z</time>
      </trkpt>
      <trkpt lat="43.96873" lon="1.82179">
        <ele>225.80000305176</ele>
        <time>2020-08-13T18:50:38.000Z</time>
      </trkpt>
      <trkpt lat="43.96872" lon="1.82177">
        <ele>226</ele>
        <time>2020-08-13T18:50:39.000Z</time>
      </trkpt>
      <trkpt lat="43.96871" lon="1.82175">
        <ele>226.39999389648</ele>
        <time>2020-08-13T18:50:40.000Z</time>
      </trkpt>
      <trkpt lat="43.9687" lon="1.82174">
        <ele>226.60000610352</ele>
        <time>2020-08-13T18:50:41.000Z</time>
      </trkpt>
      <trkpt lat="43.96869" lon="1.82173">
        <ele>226.80000305176</ele>
        <time>2020-08-13T18:50:42.000Z</time>
      </trkpt>
      <trkpt lat="43.96868" lon="1.82171">
        <ele>227.19999694824</ele>
        <time>2020-08-13T18:50:43.000Z</time>
      </trkpt>
      <trkpt lat="43.96867" lon="1.8217">
        <ele>227.39999389648</ele>
        <time>2020-08-13T18:50:44.000Z</time>
      </trkpt>
      <trkpt lat="43.96867" lon="1.82169">
        <ele>227.60000610352</ele>
        <time>2020-08-13T18:50:45.000Z</time>
      </trkpt>
      <trkpt lat="43.96866" lon="1.82167">
        <ele>227.80000305176</ele>
        <time>2020-08-13T18:50:46.000Z</time>
      </trkpt>
      <trkpt lat="43.96865" lon="1.82165">
        <ele>227.80000305176</ele>
        <time>2020-08-13T18:50:47.000Z</time>
      </trkpt>
      <trkpt lat="43.96864" lon="1.82163">
        <ele>228</ele>
        <time>2020-08-13T18:50:48.000Z</time>
      </trkpt>
      <trkpt lat="43.96864" lon="1.82162">
        <ele>228.19999694824</ele>
        <time>2020-08-13T18:50:49.000Z</time>
      </trkpt>
      <trkpt lat="43.96863" lon="1.8216">
        <ele>228.39999389648</ele>
        <time>2020-08-13T18:50:50.000Z</time>
      </trkpt>
      <trkpt lat="43.96862" lon="1.82159">
        <ele>228.60000610352</ele>
        <time>2020-08-13T18:50:51.000Z</time>
      </trkpt>
      <trkpt lat="43.96861" lon="1.82157">
        <ele>228.80000305176</ele>
        <time>2020-08-13T18:50:52.000Z</time>
      </trkpt>
      <trkpt lat="43.9686" lon="1.82156">
        <ele>229</ele>
        <time>2020-08-13T18:50:53.000Z</time>
      </trkpt>
      <trkpt lat="43.96859" lon="1.82154">
        <ele>229.19999694824</ele>
        <time>2020-08-13T18:50:54.000Z</time>
      </trkpt>
      <trkpt lat="43.96858" lon="1.82153">
        <ele>229.39999389648</ele>
        <time>2020-08-13T18:50:55.000Z</time>
      </trkpt>
      <trkpt lat="43.96857" lon="1.82152">
        <ele>229.39999389648</ele>
        <time>2020-08-13T18:50:56.000Z</time>
      </trkpt>
      <trkpt lat="43.96857" lon="1.82151">
        <ele>229.60000610352</ele>
        <time>2020-08-13T18:50:57.000Z</time>
      </trkpt>
      <trkpt lat="43.96856" lon="1.8215">
        <ele>229.80000305176</ele>
        <time>2020-08-13T18:50:58.000Z</time>
      </trkpt>
      <trkpt lat="43.96855" lon="1.82149">
        <ele>230</ele>
        <time>2020-08-13T18:50:59.000Z</time>
      </trkpt>
      <trkpt lat="43.96854" lon="1.82147">
        <ele>230.19999694824</ele>
        <time>2020-08-13T18:51:00.000Z</time>
      </trkpt>
      <trkpt lat="43.96853" lon="1.82146">
        <ele>230.19999694824</ele>
        <time>2020-08-13T18:51:01.000Z</time>
      </trkpt>
      <trkpt lat="43.96853" lon="1.82145">
        <ele>230.39999389648</ele>
        <time>2020-08-13T18:51:02.000Z</time>
      </trkpt>
      <trkpt lat="43.96852" lon="1.82143">
        <ele>230.39999389648</ele>
        <time>2020-08-13T18:51:03.000Z</time>
      </trkpt>
      <trkpt lat="43.96851" lon="1.82142">
        <ele>230.60000610352</ele>
        <time>2020-08-13T18:51:04.000Z</time>
      </trkpt>
      <trkpt lat="43.96851" lon="1.82141">
        <ele>230.80000305176</ele>
        <time>2020-08-13T18:51:05.000Z</time>
      </trkpt>
      <trkpt lat="43.9685" lon="1.82139">
        <ele>231</ele>
        <time>2020-08-13T18:51:06.000Z</time>
      </trkpt>
      <trkpt lat="43.96849" lon="1.82138">
        <ele>231.39999389648</ele>
        <time>2020-08-13T18:51:07.000Z</time>
      </trkpt>
      <trkpt lat="43.96848" lon="1.82136">
        <ele>231.60000610352</ele>
        <time>2020-08-13T18:51:08.000Z</time>
      </trkpt>
      <trkpt lat="43.96847" lon="1.82135">
        <ele>231.80000305176</ele>
        <time>2020-08-13T18:51:09.000Z</time>
      </trkpt>
      <trkpt lat="43.96847" lon="1.82134">
        <ele>232</ele>
        <time>2020-08-13T18:51:10.000Z</time>
      </trkpt>
      <trkpt lat="43.96846" lon="1.82132">
        <ele>232.19999694824</ele>
        <time>2020-08-13T18:51:11.000Z</time>
      </trkpt>
      <trkpt lat="43.96845" lon="1.82131">
        <ele>232.19999694824</ele>
        <time>2020-08-13T18:51:12.000Z</time>
      </trkpt>
      <trkpt lat="43.96845" lon="1.82129">
        <ele>232.60000610352</ele>
        <time>2020-08-13T18:51:13.000Z</time>
      </trkpt>
      <trkpt lat="43.96844" lon="1.82128">
        <ele>232.60000610352</ele>
        <time>2020-08-13T18:51:14.000Z</time>
      </trkpt>
      <trkpt lat="43.96843" lon="1.82127">
        <ele>232.80000305176</ele>
        <time>2020-08-13T18:51:15.000Z</time>
      </trkpt>
      <trkpt lat="43.96842" lon="1.82126">
        <ele>232.80000305176</ele>
        <time>2020-08-13T18:51:16.000Z</time>
      </trkpt>
      <trkpt lat="43.96842" lon="1.82124">
        <ele>233</ele>
        <time>2020-08-13T18:51:17.000Z</time>
      </trkpt>
      <trkpt lat="43.96841" lon="1.82123">
        <ele>233.19999694824</ele>
        <time>2020-08-13T18:51:18.000Z</time>
      </trkpt>
      <trkpt lat="43.9684" lon="1.82122">
        <ele>233.39999389648</ele>
        <time>2020-08-13T18:51:19.000Z</time>
      </trkpt>
      <trkpt lat="43.9684" lon="1.82121">
        <ele>233.60000610352</ele>
        <time>2020-08-13T18:51:20.000Z</time>
      </trkpt>
      <trkpt lat="43.96839" lon="1.82119">
        <ele>233.80000305176</ele>
        <time>2020-08-13T18:51:21.000Z</time>
      </trkpt>
      <trkpt lat="43.96838" lon="1.82118">
        <ele>233.80000305176</ele>
        <time>2020-08-13T18:51:22.000Z</time>
      </trkpt>
      <trkpt lat="43.96837" lon="1.82117">
        <ele>234</ele>
        <time>2020-08-13T18:51:23.000Z</time>
      </trkpt>
      <trkpt lat="43.96836" lon="1.82116">
        <ele>234.19999694824</ele>
        <time>2020-08-13T18:51:24.000Z</time>
      </trkpt>
      <trkpt lat="43.96836" lon="1.82115">
        <ele>234.39999389648</ele>
        <time>2020-08-13T18:51:25.000Z</time>
      </trkpt>
      <trkpt lat="43.96835" lon="1.82113">
        <ele>234.39999389648</ele>
        <time>2020-08-13T18:51:26.000Z</time>
      </trkpt>
      <trkpt lat="43.96834" lon="1.82112">
        <ele>234.60000610352</ele>
        <time>2020-08-13T18:51:27.000Z</time>
      </trkpt>
      <trkpt lat="43.96833" lon="1.82111">
        <ele>234.60000610352</ele>
        <time>2020-08-13T18:51:28.000Z</time>
      </trkpt>
      <trkpt lat="43.96832" lon="1.82109">
        <ele>234.80000305176</ele>
        <time>2020-08-13T18:51:29.000Z</time>
      </trkpt>
      <trkpt lat="43.96831" lon="1.82108">
        <ele>234.80000305176</ele>
        <time>2020-08-13T18:51:30.000Z</time>
      </trkpt>
      <trkpt lat="43.9683" lon="1.82106">
        <ele>235</ele>
        <time>2020-08-13T18:51:31.000Z</time>
      </trkpt>
      <trkpt lat="43.96829" lon="1.82104">
        <ele>234.80000305176</ele>
        <time>2020-08-13T18:51:32.000Z</time>
      </trkpt>
      <trkpt lat="43.96828" lon="1.82103">
        <ele>235</ele>
        <time>2020-08-13T18:51:33.000Z</time>
      </trkpt>
      <trkpt lat="43.96828" lon="1.82102">
        <ele>235</ele>
        <time>2020-08-13T18:51:34.000Z</time>
      </trkpt>
      <trkpt lat="43.96827" lon="1.821">
        <ele>235.19999694824</ele>
        <time>2020-08-13T18:51:35.000Z</time>
      </trkpt>
      <trkpt lat="43.96826" lon="1.82099">
        <ele>235.39999389648</ele>
        <time>2020-08-13T18:51:36.000Z</time>
      </trkpt>
      <trkpt lat="43.96826" lon="1.82097">
        <ele>235.60000610352</ele>
        <time>2020-08-13T18:51:37.000Z</time>
      </trkpt>
      <trkpt lat="43.96825" lon="1.82096">
        <ele>235.80000305176</ele>
        <time>2020-08-13T18:51:38.000Z</time>
      </trkpt>
      <trkpt lat="43.96824" lon="1.82095">
        <ele>235.80000305176</ele>
        <time>2020-08-13T18:51:39.000Z</time>
      </trkpt>
      <trkpt lat="43.96823" lon="1.82093">
        <ele>236</ele>
        <time>2020-08-13T18:51:40.000Z</time>
      </trkpt>
      <trkpt lat="43.96823" lon="1.82092">
        <ele>236.19999694824</ele>
        <time>2020-08-13T18:51:41.000Z</time>
      </trkpt>
      <trkpt lat="43.96822" lon="1.8209">
        <ele>236.39999389648</ele>
        <time>2020-08-13T18:51:42.000Z</time>
      </trkpt>
      <trkpt lat="43.96821" lon="1.82089">
        <ele>236.60000610352</ele>
        <time>2020-08-13T18:51:43.000Z</time>
      </trkpt>
      <trkpt lat="43.96821" lon="1.82087">
        <ele>236.80000305176</ele>
        <time>2020-08-13T18:51:44.000Z</time>
      </trkpt>
      <trkpt lat="43.9682" lon="1.82086">
        <ele>237.19999694824</ele>
        <time>2020-08-13T18:51:45.000Z</time>
      </trkpt>
      <trkpt lat="43.96819" lon="1.82085">
        <ele>237.39999389648</ele>
        <time>2020-08-13T18:51:46.000Z</time>
      </trkpt>
      <trkpt lat="43.96818" lon="1.82083">
        <ele>237.60000610352</ele>
        <time>2020-08-13T18:51:47.000Z</time>
      </trkpt>
      <trkpt lat="43.96818" lon="1.82082">
        <ele>237.80000305176</ele>
        <time>2020-08-13T18:51:48.000Z</time>
      </trkpt>
      <trkpt lat="43.96817" lon="1.8208">
        <ele>238</ele>
        <time>2020-08-13T18:51:49.000Z</time>
      </trkpt>
      <trkpt lat="43.96816" lon="1.82078">
        <ele>238.19999694824</ele>
        <time>2020-08-13T18:51:50.000Z</time>
      </trkpt>
      <trkpt lat="43.96815" lon="1.82076">
        <ele>238.60000610352</ele>
        <time>2020-08-13T18:51:51.000Z</time>
      </trkpt>
      <trkpt lat="43.96814" lon="1.82074">
        <ele>238.80000305176</ele>
        <time>2020-08-13T18:51:52.000Z</time>
      </trkpt>
      <trkpt lat="43.96813" lon="1.82073">
        <ele>239</ele>
        <time>2020-08-13T18:51:53.000Z</time>
      </trkpt>
      <trkpt lat="43.96812" lon="1.82071">
        <ele>239.19999694824</ele>
        <time>2020-08-13T18:51:54.000Z</time>
      </trkpt>
      <trkpt lat="43.96811" lon="1.82069">
        <ele>240</ele>
        <time>2020-08-13T18:51:55.000Z</time>
      </trkpt>
      <trkpt lat="43.9681" lon="1.82068">
        <ele>240.39999389648</ele>
        <time>2020-08-13T18:51:56.000Z</time>
      </trkpt>
      <trkpt lat="43.96809" lon="1.82067">
        <ele>240.60000610352</ele>
        <time>2020-08-13T18:51:57.000Z</time>
      </trkpt>
      <trkpt lat="43.96808" lon="1.82065">
        <ele>241</ele>
        <time>2020-08-13T18:51:58.000Z</time>
      </trkpt>
      <trkpt lat="43.96808" lon="1.82064">
        <ele>241.19999694824</ele>
        <time>2020-08-13T18:51:59.000Z</time>
      </trkpt>
      <trkpt lat="43.96807" lon="1.82063">
        <ele>241.60000610352</ele>
        <time>2020-08-13T18:52:00.000Z</time>
      </trkpt>
      <trkpt lat="43.96806" lon="1.82062">
        <ele>241.80000305176</ele>
        <time>2020-08-13T18:52:01.000Z</time>
      </trkpt>
      <trkpt lat="43.96805" lon="1.82061">
        <ele>241.80000305176</ele>
        <time>2020-08-13T18:52:02.000Z</time>
      </trkpt>
      <trkpt lat="43.96804" lon="1.8206">
        <ele>242.19999694824</ele>
        <time>2020-08-13T18:52:03.000Z</time>
      </trkpt>
      <trkpt lat="43.96804" lon="1.82059">
        <ele>242.39999389648</ele>
        <time>2020-08-13T18:52:04.000Z</time>
      </trkpt>
      <trkpt lat="43.96803" lon="1.82058">
        <ele>242.80000305176</ele>
        <time>2020-08-13T18:52:05.000Z</time>
      </trkpt>
      <trkpt lat="43.96802" lon="1.82056">
        <ele>243</ele>
        <time>2020-08-13T18:52:06.000Z</time>
      </trkpt>
      <trkpt lat="43.96801" lon="1.82055">
        <ele>243.19999694824</ele>
        <time>2020-08-13T18:52:07.000Z</time>
      </trkpt>
      <trkpt lat="43.968" lon="1.82054">
        <ele>243.39999389648</ele>
        <time>2020-08-13T18:52:08.000Z</time>
      </trkpt>
      <trkpt lat="43.968" lon="1.82053">
        <ele>243.60000610352</ele>
        <time>2020-08-13T18:52:09.000Z</time>
      </trkpt>
      <trkpt lat="43.96799" lon="1.82051">
        <ele>244</ele>
        <time>2020-08-13T18:52:10.000Z</time>
      </trkpt>
      <trkpt lat="43.96798" lon="1.8205">
        <ele>244.19999694824</ele>
        <time>2020-08-13T18:52:11.000Z</time>
      </trkpt>
      <trkpt lat="43.96798" lon="1.82049">
        <ele>244.39999389648</ele>
        <time>2020-08-13T18:52:12.000Z</time>
      </trkpt>
      <trkpt lat="43.96797" lon="1.82047">
        <ele>244.60000610352</ele>
        <time>2020-08-13T18:52:13.000Z</time>
      </trkpt>
      <trkpt lat="43.96796" lon="1.82046">
        <ele>244.80000305176</ele>
        <time>2020-08-13T18:52:14.000Z</time>
      </trkpt>
      <trkpt lat="43.96795" lon="1.82045">
        <ele>245</ele>
        <time>2020-08-13T18:52:15.000Z</time>
      </trkpt>
      <trkpt lat="43.96795" lon="1.82044">
        <ele>245.39999389648</ele>
        <time>2020-08-13T18:52:16.000Z</time>
      </trkpt>
      <trkpt lat="43.96794" lon="1.82042">
        <ele>245.60000610352</ele>
        <time>2020-08-13T18:52:17.000Z</time>
      </trkpt>
      <trkpt lat="43.96793" lon="1.82041">
        <ele>246</ele>
        <time>2020-08-13T18:52:18.000Z</time>
      </trkpt>
      <trkpt lat="43.96792" lon="1.82039">
        <ele>246.39999389648</ele>
        <time>2020-08-13T18:52:19.000Z</time>
      </trkpt>
      <trkpt lat="43.96792" lon="1.82038">
        <ele>246.60000610352</ele>
        <time>2020-08-13T18:52:20.000Z</time>
      </trkpt>
      <trkpt lat="43.96791" lon="1.82037">
        <ele>247</ele>
        <time>2020-08-13T18:52:21.000Z</time>
      </trkpt>
      <trkpt lat="43.96791" lon="1.82035">
        <ele>247.19999694824</ele>
        <time>2020-08-13T18:52:22.000Z</time>
      </trkpt>
      <trkpt lat="43.9679" lon="1.82034">
        <ele>247.39999389648</ele>
        <time>2020-08-13T18:52:23.000Z</time>
      </trkpt>
      <trkpt lat="43.96789" lon="1.82033">
        <ele>247.60000610352</ele>
        <time>2020-08-13T18:52:24.000Z</time>
      </trkpt>
      <trkpt lat="43.96788" lon="1.82032">
        <ele>247.80000305176</ele>
        <time>2020-08-13T18:52:25.000Z</time>
      </trkpt>
      <trkpt lat="43.96788" lon="1.82031">
        <ele>248</ele>
        <time>2020-08-13T18:52:26.000Z</time>
      </trkpt>
      <trkpt lat="43.96787" lon="1.82029">
        <ele>248.19999694824</ele>
        <time>2020-08-13T18:52:27.000Z</time>
      </trkpt>
      <trkpt lat="43.96786" lon="1.82028">
        <ele>248.39999389648</ele>
        <time>2020-08-13T18:52:28.000Z</time>
      </trkpt>
      <trkpt lat="43.96786" lon="1.82027">
        <ele>248.60000610352</ele>
        <time>2020-08-13T18:52:29.000Z</time>
      </trkpt>
      <trkpt lat="43.96785" lon="1.82026">
        <ele>248.80000305176</ele>
        <time>2020-08-13T18:52:30.000Z</time>
      </trkpt>
      <trkpt lat="43.96784" lon="1.82025">
        <ele>249</ele>
        <time>2020-08-13T18:52:31.000Z</time>
      </trkpt>
      <trkpt lat="43.96784" lon="1.82024">
        <ele>249.19999694824</ele>
        <time>2020-08-13T18:52:32.000Z</time>
      </trkpt>
      <trkpt lat="43.96783" lon="1.82023">
        <ele>249.60000610352</ele>
        <time>2020-08-13T18:52:33.000Z</time>
      </trkpt>
      <trkpt lat="43.96783" lon="1.82022">
        <ele>249.80000305176</ele>
        <time>2020-08-13T18:52:34.000Z</time>
      </trkpt>
      <trkpt lat="43.96782" lon="1.82021">
        <ele>250</ele>
        <time>2020-08-13T18:52:35.000Z</time>
      </trkpt>
      <trkpt lat="43.96781" lon="1.8202">
        <ele>250.39999389648</ele>
        <time>2020-08-13T18:52:36.000Z</time>
      </trkpt>
      <trkpt lat="43.9678" lon="1.82018">
        <ele>250.60000610352</ele>
        <time>2020-08-13T18:52:37.000Z</time>
      </trkpt>
      <trkpt lat="43.9678" lon="1.82017">
        <ele>250.80000305176</ele>
        <time>2020-08-13T18:52:38.000Z</time>
      </trkpt>
      <trkpt lat="43.96779" lon="1.82016">
        <ele>251</ele>
        <time>2020-08-13T18:52:39.000Z</time>
      </trkpt>
      <trkpt lat="43.96778" lon="1.82015">
        <ele>251.19999694824</ele>
        <time>2020-08-13T18:52:40.000Z</time>
      </trkpt>
      <trkpt lat="43.96777" lon="1.82014">
        <ele>251.60000610352</ele>
        <time>2020-08-13T18:52:41.000Z</time>
      </trkpt>
      <trkpt lat="43.96776" lon="1.82013">
        <ele>251.80000305176</ele>
        <time>2020-08-13T18:52:42.000Z</time>
      </trkpt>
      <trkpt lat="43.96775" lon="1.82012">
        <ele>252.19999694824</ele>
        <time>2020-08-13T18:52:43.000Z</time>
      </trkpt>
      <trkpt lat="43.96775" lon="1.82011">
        <ele>252.39999389648</ele>
        <time>2020-08-13T18:52:44.000Z</time>
      </trkpt>
      <trkpt lat="43.96774" lon="1.8201">
        <ele>252.80000305176</ele>
        <time>2020-08-13T18:52:45.000Z</time>
      </trkpt>
      <trkpt lat="43.96774" lon="1.82008">
        <ele>253.19999694824</ele>
        <time>2020-08-13T18:52:46.000Z</time>
      </trkpt>
      <trkpt lat="43.96773" lon="1.82007">
        <ele>253.39999389648</ele>
        <time>2020-08-13T18:52:47.000Z</time>
      </trkpt>
      <trkpt lat="43.96772" lon="1.82006">
        <ele>253.60000610352</ele>
        <time>2020-08-13T18:52:48.000Z</time>
      </trkpt>
      <trkpt lat="43.96771" lon="1.82005">
        <ele>254</ele>
        <time>2020-08-13T18:52:49.000Z</time>
      </trkpt>
      <trkpt lat="43.9677" lon="1.82004">
        <ele>254.19999694824</ele>
        <time>2020-08-13T18:52:50.000Z</time>
      </trkpt>
      <trkpt lat="43.96769" lon="1.82003">
        <ele>254.60000610352</ele>
        <time>2020-08-13T18:52:51.000Z</time>
      </trkpt>
      <trkpt lat="43.96768" lon="1.82002">
        <ele>254.80000305176</ele>
        <time>2020-08-13T18:52:52.000Z</time>
      </trkpt>
      <trkpt lat="43.96767" lon="1.82001">
        <ele>255</ele>
        <time>2020-08-13T18:52:53.000Z</time>
      </trkpt>
      <trkpt lat="43.96766" lon="1.82">
        <ele>255.19999694824</ele>
        <time>2020-08-13T18:52:54.000Z</time>
      </trkpt>
      <trkpt lat="43.96765" lon="1.81999">
        <ele>255.60000610352</ele>
        <time>2020-08-13T18:52:55.000Z</time>
      </trkpt>
      <trkpt lat="43.96763" lon="1.81998">
        <ele>256</ele>
        <time>2020-08-13T18:52:56.000Z</time>
      </trkpt>
      <trkpt lat="43.96762" lon="1.81998">
        <ele>256.20001220703</ele>
        <time>2020-08-13T18:52:57.000Z</time>
      </trkpt>
      <trkpt lat="43.96761" lon="1.81997">
        <ele>256.60000610352</ele>
        <time>2020-08-13T18:52:58.000Z</time>
      </trkpt>
      <trkpt lat="43.96759" lon="1.81996">
        <ele>257</ele>
        <time>2020-08-13T18:52:59.000Z</time>
      </trkpt>
      <trkpt lat="43.96757" lon="1.81995">
        <ele>257.39999389648</ele>
        <time>2020-08-13T18:53:00.000Z</time>
      </trkpt>
      <trkpt lat="43.96756" lon="1.81995">
        <ele>257.79998779297</ele>
        <time>2020-08-13T18:53:01.000Z</time>
      </trkpt>
      <trkpt lat="43.96753" lon="1.81995">
        <ele>258.20001220703</ele>
        <time>2020-08-13T18:53:02.000Z</time>
      </trkpt>
      <trkpt lat="43.96751" lon="1.81995">
        <ele>258.39999389648</ele>
        <time>2020-08-13T18:53:03.000Z</time>
      </trkpt>
      <trkpt lat="43.96749" lon="1.81995">
        <ele>259</ele>
        <time>2020-08-13T18:53:04.000Z</time>
      </trkpt>
      <trkpt lat="43.96748" lon="1.81995">
        <ele>259.39999389648</ele>
        <time>2020-08-13T18:53:05.000Z</time>
      </trkpt>
      <trkpt lat="43.96746" lon="1.81995">
        <ele>260</ele>
        <time>2020-08-13T18:53:06.000Z</time>
      </trkpt>
      <trkpt lat="43.96744" lon="1.81994">
        <ele>260.79998779297</ele>
        <time>2020-08-13T18:53:07.000Z</time>
      </trkpt>
      <trkpt lat="43.96743" lon="1.81994">
        <ele>261.20001220703</ele>
        <time>2020-08-13T18:53:08.000Z</time>
      </trkpt>
      <trkpt lat="43.96742" lon="1.81994">
        <ele>261.60000610352</ele>
        <time>2020-08-13T18:53:09.000Z</time>
      </trkpt>
      <trkpt lat="43.9674" lon="1.81995">
        <ele>262</ele>
        <time>2020-08-13T18:53:10.000Z</time>
      </trkpt>
      <trkpt lat="43.96739" lon="1.81995">
        <ele>262.20001220703</ele>
        <time>2020-08-13T18:53:11.000Z</time>
      </trkpt>
      <trkpt lat="43.96737" lon="1.81994">
        <ele>262.60000610352</ele>
        <time>2020-08-13T18:53:12.000Z</time>
      </trkpt>
      <trkpt lat="43.96735" lon="1.81994">
        <ele>263</ele>
        <time>2020-08-13T18:53:13.000Z</time>
      </trkpt>
      <trkpt lat="43.96734" lon="1.81994">
        <ele>263.20001220703</ele>
        <time>2020-08-13T18:53:14.000Z</time>
      </trkpt>
      <trkpt lat="43.96732" lon="1.81994">
        <ele>263.60000610352</ele>
        <time>2020-08-13T18:53:15.000Z</time>
      </trkpt>
      <trkpt lat="43.9673" lon="1.81993">
        <ele>264</ele>
        <time>2020-08-13T18:53:16.000Z</time>
      </trkpt>
      <trkpt lat="43.96729" lon="1.81993">
        <ele>264.39999389648</ele>
        <time>2020-08-13T18:53:17.000Z</time>
      </trkpt>
      <trkpt lat="43.96728" lon="1.81991">
        <ele>264.60000610352</ele>
        <time>2020-08-13T18:53:18.000Z</time>
      </trkpt>
      <trkpt lat="43.96726" lon="1.8199">
        <ele>265</ele>
        <time>2020-08-13T18:53:19.000Z</time>
      </trkpt>
      <trkpt lat="43.96725" lon="1.8199">
        <ele>265.39999389648</ele>
        <time>2020-08-13T18:53:20.000Z</time>
      </trkpt>
      <trkpt lat="43.96724" lon="1.81989">
        <ele>265.79998779297</ele>
        <time>2020-08-13T18:53:21.000Z</time>
      </trkpt>
      <trkpt lat="43.96723" lon="1.81989">
        <ele>266.20001220703</ele>
        <time>2020-08-13T18:53:22.000Z</time>
      </trkpt>
      <trkpt lat="43.96721" lon="1.81989">
        <ele>266.60000610352</ele>
        <time>2020-08-13T18:53:23.000Z</time>
      </trkpt>
      <trkpt lat="43.9672" lon="1.81989">
        <ele>267.20001220703</ele>
        <time>2020-08-13T18:53:24.000Z</time>
      </trkpt>
      <trkpt lat="43.96719" lon="1.81989">
        <ele>267.39999389648</ele>
        <time>2020-08-13T18:53:25.000Z</time>
      </trkpt>
      <trkpt lat="43.96717" lon="1.81989">
        <ele>268</ele>
        <time>2020-08-13T18:53:26.000Z</time>
      </trkpt>
      <trkpt lat="43.96718" lon="1.81989">
        <ele>268.20001220703</ele>
        <time>2020-08-13T18:53:27.000Z</time>
      </trkpt>
      <trkpt lat="43.96715" lon="1.81988">
        <ele>268.60000610352</ele>
        <time>2020-08-13T18:53:28.000Z</time>
      </trkpt>
      <trkpt lat="43.96714" lon="1.81987">
        <ele>269</ele>
        <time>2020-08-13T18:53:29.000Z</time>
      </trkpt>
      <trkpt lat="43.96712" lon="1.81987">
        <ele>269.39999389648</ele>
        <time>2020-08-13T18:53:30.000Z</time>
      </trkpt>
      <trkpt lat="43.96711" lon="1.81987">
        <ele>270</ele>
        <time>2020-08-13T18:53:31.000Z</time>
      </trkpt>
      <trkpt lat="43.9671" lon="1.81986">
        <ele>270.39999389648</ele>
        <time>2020-08-13T18:53:32.000Z</time>
      </trkpt>
      <trkpt lat="43.96709" lon="1.81986">
        <ele>270.60000610352</ele>
        <time>2020-08-13T18:53:33.000Z</time>
      </trkpt>
      <trkpt lat="43.96708" lon="1.81986">
        <ele>270.79998779297</ele>
        <time>2020-08-13T18:53:34.000Z</time>
      </trkpt>
      <trkpt lat="43.96706" lon="1.81986">
        <ele>271</ele>
        <time>2020-08-13T18:53:35.000Z</time>
      </trkpt>
      <trkpt lat="43.96705" lon="1.81986">
        <ele>271.39999389648</ele>
        <time>2020-08-13T18:53:36.000Z</time>
      </trkpt>
      <trkpt lat="43.96703" lon="1.81986">
        <ele>271.60000610352</ele>
        <time>2020-08-13T18:53:37.000Z</time>
      </trkpt>
      <trkpt lat="43.96703" lon="1.81986">
        <ele>271.79998779297</ele>
        <time>2020-08-13T18:53:38.000Z</time>
      </trkpt>
      <trkpt lat="43.96702" lon="1.81986">
        <ele>271.79998779297</ele>
        <time>2020-08-13T18:53:39.000Z</time>
      </trkpt>
      <trkpt lat="43.96701" lon="1.81986">
        <ele>272</ele>
        <time>2020-08-13T18:53:40.000Z</time>
      </trkpt>
      <trkpt lat="43.967" lon="1.81987">
        <ele>272</ele>
        <time>2020-08-13T18:53:41.000Z</time>
      </trkpt>
      <trkpt lat="43.96699" lon="1.81988">
        <ele>272</ele>
        <time>2020-08-13T18:53:42.000Z</time>
      </trkpt>
      <trkpt lat="43.96699" lon="1.81989">
        <ele>272.20001220703</ele>
        <time>2020-08-13T18:53:43.000Z</time>
      </trkpt>
      <trkpt lat="43.96698" lon="1.8199">
        <ele>272.39999389648</ele>
        <time>2020-08-13T18:53:44.000Z</time>
      </trkpt>
      <trkpt lat="43.96697" lon="1.81991">
        <ele>272.39999389648</ele>
        <time>2020-08-13T18:53:45.000Z</time>
      </trkpt>
      <trkpt lat="43.96696" lon="1.81992">
        <ele>272.39999389648</ele>
        <time>2020-08-13T18:53:46.000Z</time>
      </trkpt>
      <trkpt lat="43.96695" lon="1.81992">
        <ele>272.39999389648</ele>
        <time>2020-08-13T18:53:47.000Z</time>
      </trkpt>
      <trkpt lat="43.96693" lon="1.81993">
        <ele>272.60000610352</ele>
        <time>2020-08-13T18:53:48.000Z</time>
      </trkpt>
      <trkpt lat="43.96692" lon="1.81993">
        <ele>272.79998779297</ele>
        <time>2020-08-13T18:53:49.000Z</time>
      </trkpt>
      <trkpt lat="43.96691" lon="1.81993">
        <ele>272.79998779297</ele>
        <time>2020-08-13T18:53:50.000Z</time>
      </trkpt>
      <trkpt lat="43.9669" lon="1.81991">
        <ele>273</ele>
        <time>2020-08-13T18:53:51.000Z</time>
      </trkpt>
      <trkpt lat="43.96691" lon="1.8199">
        <ele>273</ele>
        <time>2020-08-13T18:53:52.000Z</time>
      </trkpt>
      <trkpt lat="43.96691" lon="1.81988">
        <ele>273</ele>
        <time>2020-08-13T18:53:53.000Z</time>
      </trkpt>
      <trkpt lat="43.96691" lon="1.81987">
        <ele>273.20001220703</ele>
        <time>2020-08-13T18:53:54.000Z</time>
      </trkpt>
      <trkpt lat="43.96692" lon="1.81986">
        <ele>273.39999389648</ele>
        <time>2020-08-13T18:53:55.000Z</time>
      </trkpt>
      <trkpt lat="43.96693" lon="1.81985">
        <ele>273.39999389648</ele>
        <time>2020-08-13T18:53:56.000Z</time>
      </trkpt>
      <trkpt lat="43.96694" lon="1.81984">
        <ele>273.39999389648</ele>
        <time>2020-08-13T18:53:57.000Z</time>
      </trkpt>
      <trkpt lat="43.96695" lon="1.81983">
        <ele>273.39999389648</ele>
        <time>2020-08-13T18:53:58.000Z</time>
      </trkpt>
      <trkpt lat="43.96696" lon="1.81981">
        <ele>273.39999389648</ele>
        <time>2020-08-13T18:53:59.000Z</time>
      </trkpt>
      <trkpt lat="43.96696" lon="1.8198">
        <ele>273.39999389648</ele>
        <time>2020-08-13T18:54:00.000Z</time>
      </trkpt>
      <trkpt lat="43.96697" lon="1.81979">
        <ele>273.39999389648</ele>
        <time>2020-08-13T18:54:01.000Z</time>
      </trkpt>
      <trkpt lat="43.96698" lon="1.81978">
        <ele>273.39999389648</ele>
        <time>2020-08-13T18:54:02.000Z</time>
      </trkpt>
      <trkpt lat="43.96699" lon="1.81977">
        <ele>273.39999389648</ele>
        <time>2020-08-13T18:54:03.000Z</time>
      </trkpt>
      <trkpt lat="43.96699" lon="1.81977">
        <ele>273.60000610352</ele>
        <time>2020-08-13T18:54:04.000Z</time>
      </trkpt>
      <trkpt lat="43.96699" lon="1.81977">
        <ele>273.60000610352</ele>
        <time>2020-08-13T18:54:05.000Z</time>
      </trkpt>
      <trkpt lat="43.96699" lon="1.81977">
        <ele>273.60000610352</ele>
        <time>2020-08-13T18:54:06.000Z</time>
      </trkpt>
      <trkpt lat="43.96699" lon="1.81977">
        <ele>273.60000610352</ele>
        <time>2020-08-13T18:54:07.000Z</time>
      </trkpt>
      <trkpt lat="43.96699" lon="1.81977">
        <ele>273.60000610352</ele>
        <time>2020-08-13T18:54:08.000Z</time>
      </trkpt>
      <trkpt lat="43.96699" lon="1.81977">
        <ele>273.60000610352</ele>
        <time>2020-08-13T18:54:09.000Z</time>
      </trkpt>
      <trkpt lat="43.96699" lon="1.81977">
        <ele>273.60000610352</ele>
        <time>2020-08-13T18:54:10.000Z</time>
      </trkpt>
      <trkpt lat="43.96699" lon="1.81977">
        <ele>273.60000610352</ele>
        <time>2020-08-13T18:54:11.000Z</time>
      </trkpt>
      <trkpt lat="43.96699" lon="1.81977">
        <ele>273.60000610352</ele>
        <time>2020-08-13T18:54:12.000Z</time>
      </trkpt>
      <trkpt lat="43.96699" lon="1.81977">
        <ele>273.60000610352</ele>
        <time>2020-08-13T18:54:13.000Z</time>
      </trkpt>
      <trkpt lat="43.96699" lon="1.81977">
        <ele>273.60000610352</ele>
        <time>2020-08-13T18:54:14.000Z</time>
      </trkpt>
      <trkpt lat="43.96699" lon="1.81977">
        <ele>273.60000610352</ele>
        <time>2020-08-13T18:54:15.000Z</time>
      </trkpt>
      <trkpt lat="43.96699" lon="1.81977">
        <ele>273.60000610352</ele>
        <time>2020-08-13T18:54:16.000Z</time>
      </trkpt>
      <trkpt lat="43.96699" lon="1.81977">
        <ele>273.60000610352</ele>
        <time>2020-08-13T18:54:17.000Z</time>
      </trkpt>
      <trkpt lat="43.96699" lon="1.81977">
        <ele>273.60000610352</ele>
        <time>2020-08-13T18:54:18.000Z</time>
      </trkpt>
      <trkpt lat="43.96699" lon="1.81977">
        <ele>273.60000610352</ele>
        <time>2020-08-13T18:54:19.000Z</time>
      </trkpt>
      <trkpt lat="43.96699" lon="1.81977">
        <ele>273.60000610352</ele>
        <time>2020-08-13T18:54:20.000Z</time>
      </trkpt>
      <trkpt lat="43.96699" lon="1.81977">
        <ele>273.60000610352</ele>
        <time>2020-08-13T18:54:21.000Z</time>
      </trkpt>
      <trkpt lat="43.96699" lon="1.81977">
        <ele>273.60000610352</ele>
        <time>2020-08-13T18:54:22.000Z</time>
      </trkpt>
      <trkpt lat="43.96699" lon="1.81977">
        <ele>273.60000610352</ele>
        <time>2020-08-13T18:54:23.000Z</time>
      </trkpt>
      <trkpt lat="43.96699" lon="1.81977">
        <ele>273.60000610352</ele>
        <time>2020-08-13T18:54:24.000Z</time>
      </trkpt>
      <trkpt lat="43.96699" lon="1.81977">
        <ele>273.60000610352</ele>
        <time>2020-08-13T18:54:25.000Z</time>
      </trkpt>
      <trkpt lat="43.96699" lon="1.81977">
        <ele>273.39999389648</ele>
        <time>2020-08-13T18:54:26.000Z</time>
      </trkpt>
      <trkpt lat="43.96699" lon="1.81977">
        <ele>273.60000610352</ele>
        <time>2020-08-13T18:54:27.000Z</time>
      </trkpt>
      <trkpt lat="43.96699" lon="1.81977">
        <ele>273.60000610352</ele>
        <time>2020-08-13T18:54:28.000Z</time>
      </trkpt>
      <trkpt lat="43.96699" lon="1.81977">
        <ele>273.60000610352</ele>
        <time>2020-08-13T18:54:29.000Z</time>
      </trkpt>
      <trkpt lat="43.96699" lon="1.81977">
        <ele>273.39999389648</ele>
        <time>2020-08-13T18:54:30.000Z</time>
      </trkpt>
      <trkpt lat="43.96699" lon="1.81977">
        <ele>273.39999389648</ele>
        <time>2020-08-13T18:54:31.000Z</time>
      </trkpt>
      <trkpt lat="43.96699" lon="1.81977">
        <ele>273.60000610352</ele>
        <time>2020-08-13T18:54:32.000Z</time>
      </trkpt>
      <trkpt lat="43.96699" lon="1.81977">
        <ele>273.39999389648</ele>
        <time>2020-08-13T18:54:33.000Z</time>
      </trkpt>
      <trkpt lat="43.96699" lon="1.81977">
        <ele>273.60000610352</ele>
        <time>2020-08-13T18:54:34.000Z</time>
      </trkpt>
      <trkpt lat="43.96699" lon="1.81977">
        <ele>273.60000610352</ele>
        <time>2020-08-13T18:54:35.000Z</time>
      </trkpt>
      <trkpt lat="43.96699" lon="1.81977">
        <ele>273.60000610352</ele>
        <time>2020-08-13T18:54:36.000Z</time>
      </trkpt>
      <trkpt lat="43.96699" lon="1.81977">
        <ele>273.39999389648</ele>
        <time>2020-08-13T18:54:37.000Z</time>
      </trkpt>
      <trkpt lat="43.96699" lon="1.81977">
        <ele>273.39999389648</ele>
        <time>2020-08-13T18:54:38.000Z</time>
      </trkpt>
      <trkpt lat="43.96699" lon="1.81977">
        <ele>273.60000610352</ele>
        <time>2020-08-13T18:54:39.000Z</time>
      </trkpt>
      <trkpt lat="43.96699" lon="1.81977">
        <ele>273.60000610352</ele>
        <time>2020-08-13T18:54:40.000Z</time>
      </trkpt>
      <trkpt lat="43.96699" lon="1.81977">
        <ele>273.60000610352</ele>
        <time>2020-08-13T18:54:41.000Z</time>
      </trkpt>
      <trkpt lat="43.96699" lon="1.81977">
        <ele>273.60000610352</ele>
        <time>2020-08-13T18:54:42.000Z</time>
      </trkpt>
      <trkpt lat="43.96699" lon="1.81977">
        <ele>273.60000610352</ele>
        <time>2020-08-13T18:54:43.000Z</time>
      </trkpt>
      <trkpt lat="43.96699" lon="1.81977">
        <ele>273.60000610352</ele>
        <time>2020-08-13T18:54:44.000Z</time>
      </trkpt>
      <trkpt lat="43.96699" lon="1.81977">
        <ele>273.60000610352</ele>
        <time>2020-08-13T18:54:45.000Z</time>
      </trkpt>
      <trkpt lat="43.96699" lon="1.81977">
        <ele>273.60000610352</ele>
        <time>2020-08-13T18:54:46.000Z</time>
      </trkpt>
      <trkpt lat="43.96699" lon="1.81977">
        <ele>273.60000610352</ele>
        <time>2020-08-13T18:54:47.000Z</time>
      </trkpt>
      <trkpt lat="43.96699" lon="1.81977">
        <ele>273.60000610352</ele>
        <time>2020-08-13T18:54:48.000Z</time>
      </trkpt>
      <trkpt lat="43.96699" lon="1.81977">
        <ele>273.60000610352</ele>
        <time>2020-08-13T18:54:49.000Z</time>
      </trkpt>
      <trkpt lat="43.96699" lon="1.81977">
        <ele>273.39999389648</ele>
        <time>2020-08-13T18:54:50.000Z</time>
      </trkpt>
      <trkpt lat="43.96699" lon="1.81977">
        <ele>273.60000610352</ele>
        <time>2020-08-13T18:54:51.000Z</time>
      </trkpt>
      <trkpt lat="43.96699" lon="1.81977">
        <ele>273.39999389648</ele>
        <time>2020-08-13T18:54:52.000Z</time>
      </trkpt>
      <trkpt lat="43.96699" lon="1.81977">
        <ele>273.39999389648</ele>
        <time>2020-08-13T18:54:53.000Z</time>
      </trkpt>
      <trkpt lat="43.96699" lon="1.81977">
        <ele>273.39999389648</ele>
        <time>2020-08-13T18:54:54.000Z</time>
      </trkpt>
      <trkpt lat="43.96699" lon="1.81977">
        <ele>273.39999389648</ele>
        <time>2020-08-13T18:54:55.000Z</time>
      </trkpt>
      <trkpt lat="43.96699" lon="1.81977">
        <ele>273.39999389648</ele>
        <time>2020-08-13T18:54:56.000Z</time>
      </trkpt>
      <trkpt lat="43.96699" lon="1.81977">
        <ele>273.39999389648</ele>
        <time>2020-08-13T18:54:57.000Z</time>
      </trkpt>
      <trkpt lat="43.96699" lon="1.81977">
        <ele>273.39999389648</ele>
        <time>2020-08-13T18:54:58.000Z</time>
      </trkpt>
      <trkpt lat="43.96699" lon="1.81977">
        <ele>273.39999389648</ele>
        <time>2020-08-13T18:54:59.000Z</time>
      </trkpt>
      <trkpt lat="43.96699" lon="1.81977">
        <ele>273.60000610352</ele>
        <time>2020-08-13T18:55:00.000Z</time>
      </trkpt>
      <trkpt lat="43.96699" lon="1.81977">
        <ele>273.39999389648</ele>
        <time>2020-08-13T18:55:01.000Z</time>
      </trkpt>
      <trkpt lat="43.96699" lon="1.81977">
        <ele>273.39999389648</ele>
        <time>2020-08-13T18:55:02.000Z</time>
      </trkpt>
      <trkpt lat="43.96699" lon="1.81977">
        <ele>273.39999389648</ele>
        <time>2020-08-13T18:55:03.000Z</time>
      </trkpt>
      <trkpt lat="43.96699" lon="1.81977">
        <ele>273.60000610352</ele>
        <time>2020-08-13T18:55:04.000Z</time>
      </trkpt>
      <trkpt lat="43.96699" lon="1.81977">
        <ele>273.60000610352</ele>
        <time>2020-08-13T18:55:05.000Z</time>
      </trkpt>
      <trkpt lat="43.96699" lon="1.81977">
        <ele>273.60000610352</ele>
        <time>2020-08-13T18:55:06.000Z</time>
      </trkpt>
      <trkpt lat="43.96699" lon="1.81977">
        <ele>273.39999389648</ele>
        <time>2020-08-13T18:55:07.000Z</time>
      </trkpt>
      <trkpt lat="43.96699" lon="1.81977">
        <ele>273.39999389648</ele>
        <time>2020-08-13T18:55:08.000Z</time>
      </trkpt>
      <trkpt lat="43.96699" lon="1.81977">
        <ele>273.60000610352</ele>
        <time>2020-08-13T18:55:09.000Z</time>
      </trkpt>
      <trkpt lat="43.96699" lon="1.81977">
        <ele>273.60000610352</ele>
        <time>2020-08-13T18:55:10.000Z</time>
      </trkpt>
      <trkpt lat="43.96699" lon="1.81977">
        <ele>273.39999389648</ele>
        <time>2020-08-13T18:55:11.000Z</time>
      </trkpt>
      <trkpt lat="43.96699" lon="1.81977">
        <ele>273.39999389648</ele>
        <time>2020-08-13T18:55:12.000Z</time>
      </trkpt>
      <trkpt lat="43.96699" lon="1.81977">
        <ele>273.39999389648</ele>
        <time>2020-08-13T18:55:13.000Z</time>
      </trkpt>
      <trkpt lat="43.96699" lon="1.81977">
        <ele>273.39999389648</ele>
        <time>2020-08-13T18:55:14.000Z</time>
      </trkpt>
      <trkpt lat="43.96699" lon="1.81977">
        <ele>273.39999389648</ele>
        <time>2020-08-13T18:55:15.000Z</time>
      </trkpt>
      <trkpt lat="43.96699" lon="1.81977">
        <ele>273.60000610352</ele>
        <time>2020-08-13T18:55:16.000Z</time>
      </trkpt>
      <trkpt lat="43.96699" lon="1.81977">
        <ele>273.60000610352</ele>
        <time>2020-08-13T18:55:17.000Z</time>
      </trkpt>
      <trkpt lat="43.96699" lon="1.81977">
        <ele>273.39999389648</ele>
        <time>2020-08-13T18:55:18.000Z</time>
      </trkpt>
      <trkpt lat="43.96699" lon="1.81977">
        <ele>273.39999389648</ele>
        <time>2020-08-13T18:55:19.000Z</time>
      </trkpt>
      <trkpt lat="43.96699" lon="1.81977">
        <ele>273.39999389648</ele>
        <time>2020-08-13T18:55:20.000Z</time>
      </trkpt>
      <trkpt lat="43.96699" lon="1.81977">
        <ele>273.39999389648</ele>
        <time>2020-08-13T18:55:21.000Z</time>
      </trkpt>
      <trkpt lat="43.96699" lon="1.81977">
        <ele>273.39999389648</ele>
        <time>2020-08-13T18:55:22.000Z</time>
      </trkpt>
      <trkpt lat="43.96699" lon="1.81977">
        <ele>273.39999389648</ele>
        <time>2020-08-13T18:55:23.000Z</time>
      </trkpt>
      <trkpt lat="43.96699" lon="1.81977">
        <ele>273.39999389648</ele>
        <time>2020-08-13T18:55:24.000Z</time>
      </trkpt>
      <trkpt lat="43.96699" lon="1.81977">
        <ele>273.39999389648</ele>
        <time>2020-08-13T18:55:25.000Z</time>
      </trkpt>
      <trkpt lat="43.96699" lon="1.81977">
        <ele>273.60000610352</ele>
        <time>2020-08-13T18:55:26.000Z</time>
      </trkpt>
      <trkpt lat="43.96699" lon="1.81977">
        <ele>273.60000610352</ele>
        <time>2020-08-13T18:55:27.000Z</time>
      </trkpt>
      <trkpt lat="43.96699" lon="1.81977">
        <ele>273.60000610352</ele>
        <time>2020-08-13T18:55:28.000Z</time>
      </trkpt>
      <trkpt lat="43.96699" lon="1.81977">
        <ele>273.39999389648</ele>
        <time>2020-08-13T18:55:29.000Z</time>
      </trkpt>
      <trkpt lat="43.96699" lon="1.81977">
        <ele>273.60000610352</ele>
        <time>2020-08-13T18:55:30.000Z</time>
      </trkpt>
      <trkpt lat="43.96699" lon="1.81977">
        <ele>273.60000610352</ele>
        <time>2020-08-13T18:55:31.000Z</time>
      </trkpt>
      <trkpt lat="43.96699" lon="1.81977">
        <ele>273.60000610352</ele>
        <time>2020-08-13T18:55:32.000Z</time>
      </trkpt>
      <trkpt lat="43.96699" lon="1.81977">
        <ele>273.39999389648</ele>
        <time>2020-08-13T18:55:33.000Z</time>
      </trkpt>
      <trkpt lat="43.96699" lon="1.81977">
        <ele>273.39999389648</ele>
        <time>2020-08-13T18:55:34.000Z</time>
      </trkpt>
      <trkpt lat="43.96699" lon="1.81977">
        <ele>273.39999389648</ele>
        <time>2020-08-13T18:55:35.000Z</time>
      </trkpt>
      <trkpt lat="43.96699" lon="1.81977">
        <ele>273.39999389648</ele>
        <time>2020-08-13T18:55:36.000Z</time>
      </trkpt>
      <trkpt lat="43.96699" lon="1.81977">
        <ele>273.39999389648</ele>
        <time>2020-08-13T18:55:37.000Z</time>
      </trkpt>
      <trkpt lat="43.96699" lon="1.81977">
        <ele>273.39999389648</ele>
        <time>2020-08-13T18:55:38.000Z</time>
      </trkpt>
      <trkpt lat="43.96699" lon="1.81977">
        <ele>273.39999389648</ele>
        <time>2020-08-13T18:55:39.000Z</time>
      </trkpt>
      <trkpt lat="43.96699" lon="1.81977">
        <ele>273.39999389648</ele>
        <time>2020-08-13T18:55:40.000Z</time>
      </trkpt>
      <trkpt lat="43.96699" lon="1.81977">
        <ele>273.39999389648</ele>
        <time>2020-08-13T18:55:41.000Z</time>
      </trkpt>
      <trkpt lat="43.96699" lon="1.81977">
        <ele>273.39999389648</ele>
        <time>2020-08-13T18:55:42.000Z</time>
      </trkpt>
      <trkpt lat="43.96699" lon="1.81977">
        <ele>273.39999389648</ele>
        <time>2020-08-13T18:55:43.000Z</time>
      </trkpt>
      <trkpt lat="43.96699" lon="1.81977">
        <ele>273.39999389648</ele>
        <time>2020-08-13T18:55:44.000Z</time>
      </trkpt>
      <trkpt lat="43.96699" lon="1.81977">
        <ele>273.39999389648</ele>
        <time>2020-08-13T18:55:45.000Z</time>
      </trkpt>
      <trkpt lat="43.96699" lon="1.81977">
        <ele>273.39999389648</ele>
        <time>2020-08-13T18:55:46.000Z</time>
      </trkpt>
      <trkpt lat="43.96699" lon="1.81977">
        <ele>273.39999389648</ele>
        <time>2020-08-13T18:55:47.000Z</time>
      </trkpt>
      <trkpt lat="43.96699" lon="1.81977">
        <ele>273.39999389648</ele>
        <time>2020-08-13T18:55:48.000Z</time>
      </trkpt>
      <trkpt lat="43.96699" lon="1.81977">
        <ele>273.39999389648</ele>
        <time>2020-08-13T18:55:49.000Z</time>
      </trkpt>
      <trkpt lat="43.96699" lon="1.81977">
        <ele>273.39999389648</ele>
        <time>2020-08-13T18:55:50.000Z</time>
      </trkpt>
      <trkpt lat="43.96699" lon="1.81977">
        <ele>273.39999389648</ele>
        <time>2020-08-13T18:55:51.000Z</time>
      </trkpt>
      <trkpt lat="43.96699" lon="1.81977">
        <ele>273.39999389648</ele>
        <time>2020-08-13T18:55:52.000Z</time>
      </trkpt>
      <trkpt lat="43.96699" lon="1.81977">
        <ele>273.39999389648</ele>
        <time>2020-08-13T18:55:53.000Z</time>
      </trkpt>
      <trkpt lat="43.96699" lon="1.81977">
        <ele>273.39999389648</ele>
        <time>2020-08-13T18:55:54.000Z</time>
      </trkpt>
      <trkpt lat="43.96699" lon="1.81977">
        <ele>273.39999389648</ele>
        <time>2020-08-13T18:55:55.000Z</time>
      </trkpt>
      <trkpt lat="43.96699" lon="1.81977">
        <ele>273.39999389648</ele>
        <time>2020-08-13T18:55:56.000Z</time>
      </trkpt>
      <trkpt lat="43.96699" lon="1.81977">
        <ele>273.60000610352</ele>
        <time>2020-08-13T18:55:57.000Z</time>
      </trkpt>
      <trkpt lat="43.96699" lon="1.81977">
        <ele>273.60000610352</ele>
        <time>2020-08-13T18:55:58.000Z</time>
      </trkpt>
      <trkpt lat="43.96699" lon="1.81977">
        <ele>273.39999389648</ele>
        <time>2020-08-13T18:55:59.000Z</time>
      </trkpt>
      <trkpt lat="43.96699" lon="1.81977">
        <ele>273.39999389648</ele>
        <time>2020-08-13T18:56:00.000Z</time>
      </trkpt>
      <trkpt lat="43.96699" lon="1.81977">
        <ele>273.39999389648</ele>
        <time>2020-08-13T18:56:01.000Z</time>
      </trkpt>
      <trkpt lat="43.96699" lon="1.81977">
        <ele>273.39999389648</ele>
        <time>2020-08-13T18:56:02.000Z</time>
      </trkpt>
      <trkpt lat="43.96699" lon="1.81977">
        <ele>273.60000610352</ele>
        <time>2020-08-13T18:56:03.000Z</time>
      </trkpt>
      <trkpt lat="43.96699" lon="1.81977">
        <ele>273.39999389648</ele>
        <time>2020-08-13T18:56:04.000Z</time>
      </trkpt>
      <trkpt lat="43.96699" lon="1.81977">
        <ele>273.39999389648</ele>
        <time>2020-08-13T18:56:05.000Z</time>
      </trkpt>
      <trkpt lat="43.96699" lon="1.81977">
        <ele>273.39999389648</ele>
        <time>2020-08-13T18:56:06.000Z</time>
      </trkpt>
      <trkpt lat="43.96699" lon="1.81977">
        <ele>273.39999389648</ele>
        <time>2020-08-13T18:56:07.000Z</time>
      </trkpt>
      <trkpt lat="43.96699" lon="1.81977">
        <ele>273.39999389648</ele>
        <time>2020-08-13T18:56:08.000Z</time>
      </trkpt>
      <trkpt lat="43.96699" lon="1.81977">
        <ele>273.39999389648</ele>
        <time>2020-08-13T18:56:09.000Z</time>
      </trkpt>
      <trkpt lat="43.96699" lon="1.81977">
        <ele>273.39999389648</ele>
        <time>2020-08-13T18:56:10.000Z</time>
      </trkpt>
      <trkpt lat="43.96699" lon="1.81977">
        <ele>273.39999389648</ele>
        <time>2020-08-13T18:56:11.000Z</time>
      </trkpt>
      <trkpt lat="43.96699" lon="1.81977">
        <ele>273.39999389648</ele>
        <time>2020-08-13T18:56:12.000Z</time>
      </trkpt>
      <trkpt lat="43.96699" lon="1.81977">
        <ele>273.39999389648</ele>
        <time>2020-08-13T18:56:13.000Z</time>
      </trkpt>
      <trkpt lat="43.96699" lon="1.81977">
        <ele>273.39999389648</ele>
        <time>2020-08-13T18:56:14.000Z</time>
      </trkpt>
      <trkpt lat="43.96699" lon="1.81977">
        <ele>273.39999389648</ele>
        <time>2020-08-13T18:56:15.000Z</time>
      </trkpt>
      <trkpt lat="43.96699" lon="1.81977">
        <ele>273.39999389648</ele>
        <time>2020-08-13T18:56:16.000Z</time>
      </trkpt>
      <trkpt lat="43.96699" lon="1.81977">
        <ele>273.39999389648</ele>
        <time>2020-08-13T18:56:17.000Z</time>
      </trkpt>
      <trkpt lat="43.96699" lon="1.81977">
        <ele>273.39999389648</ele>
        <time>2020-08-13T18:56:18.000Z</time>
      </trkpt>
      <trkpt lat="43.96699" lon="1.81977">
        <ele>273.39999389648</ele>
        <time>2020-08-13T18:56:19.000Z</time>
      </trkpt>
      <trkpt lat="43.96699" lon="1.81977">
        <ele>273.39999389648</ele>
        <time>2020-08-13T18:56:20.000Z</time>
      </trkpt>
      <trkpt lat="43.96699" lon="1.81977">
        <ele>273.39999389648</ele>
        <time>2020-08-13T18:56:21.000Z</time>
      </trkpt>
      <trkpt lat="43.96699" lon="1.81977">
        <ele>273.39999389648</ele>
        <time>2020-08-13T18:56:22.000Z</time>
      </trkpt>
      <trkpt lat="43.96699" lon="1.81977">
        <ele>273.39999389648</ele>
        <time>2020-08-13T18:56:23.000Z</time>
      </trkpt>
      <trkpt lat="43.96699" lon="1.81977">
        <ele>273.39999389648</ele>
        <time>2020-08-13T18:56:24.000Z</time>
      </trkpt>
      <trkpt lat="43.96699" lon="1.81977">
        <ele>273.39999389648</ele>
        <time>2020-08-13T18:56:25.000Z</time>
      </trkpt>
      <trkpt lat="43.96699" lon="1.81977">
        <ele>273.39999389648</ele>
        <time>2020-08-13T18:56:26.000Z</time>
      </trkpt>
      <trkpt lat="43.96699" lon="1.81977">
        <ele>273.39999389648</ele>
        <time>2020-08-13T18:56:27.000Z</time>
      </trkpt>
      <trkpt lat="43.96699" lon="1.81977">
        <ele>273.39999389648</ele>
        <time>2020-08-13T18:56:28.000Z</time>
      </trkpt>
      <trkpt lat="43.96699" lon="1.81977">
        <ele>273.39999389648</ele>
        <time>2020-08-13T18:56:29.000Z</time>
      </trkpt>
      <trkpt lat="43.96699" lon="1.81977">
        <ele>273.39999389648</ele>
        <time>2020-08-13T18:56:30.000Z</time>
      </trkpt>
      <trkpt lat="43.96699" lon="1.81977">
        <ele>273.39999389648</ele>
        <time>2020-08-13T18:56:31.000Z</time>
      </trkpt>
      <trkpt lat="43.96699" lon="1.81977">
        <ele>273.39999389648</ele>
        <time>2020-08-13T18:56:32.000Z</time>
      </trkpt>
      <trkpt lat="43.96699" lon="1.81977">
        <ele>273.39999389648</ele>
        <time>2020-08-13T18:56:33.000Z</time>
      </trkpt>
      <trkpt lat="43.96699" lon="1.81977">
        <ele>273.39999389648</ele>
        <time>2020-08-13T18:56:34.000Z</time>
      </trkpt>
      <trkpt lat="43.96699" lon="1.81977">
        <ele>273.39999389648</ele>
        <time>2020-08-13T18:56:35.000Z</time>
      </trkpt>
      <trkpt lat="43.96699" lon="1.81977">
        <ele>273.39999389648</ele>
        <time>2020-08-13T18:56:36.000Z</time>
      </trkpt>
      <trkpt lat="43.96699" lon="1.81977">
        <ele>273.60000610352</ele>
        <time>2020-08-13T18:56:37.000Z</time>
      </trkpt>
      <trkpt lat="43.96699" lon="1.81977">
        <ele>273.39999389648</ele>
        <time>2020-08-13T18:56:38.000Z</time>
      </trkpt>
      <trkpt lat="43.96699" lon="1.81977">
        <ele>273.39999389648</ele>
        <time>2020-08-13T18:56:39.000Z</time>
      </trkpt>
      <trkpt lat="43.96699" lon="1.81977">
        <ele>273.39999389648</ele>
        <time>2020-08-13T18:56:40.000Z</time>
      </trkpt>
      <trkpt lat="43.96699" lon="1.81977">
        <ele>273.39999389648</ele>
        <time>2020-08-13T18:56:41.000Z</time>
      </trkpt>
      <trkpt lat="43.96699" lon="1.81977">
        <ele>273.39999389648</ele>
        <time>2020-08-13T18:56:42.000Z</time>
      </trkpt>
      <trkpt lat="43.96699" lon="1.81977">
        <ele>273.39999389648</ele>
        <time>2020-08-13T18:56:43.000Z</time>
      </trkpt>
      <trkpt lat="43.96699" lon="1.81977">
        <ele>273.39999389648</ele>
        <time>2020-08-13T18:56:44.000Z</time>
      </trkpt>
      <trkpt lat="43.96699" lon="1.81977">
        <ele>273.39999389648</ele>
        <time>2020-08-13T18:56:45.000Z</time>
      </trkpt>
      <trkpt lat="43.96699" lon="1.81977">
        <ele>273.39999389648</ele>
        <time>2020-08-13T18:56:46.000Z</time>
      </trkpt>
      <trkpt lat="43.96699" lon="1.81977">
        <ele>273.39999389648</ele>
        <time>2020-08-13T18:56:47.000Z</time>
      </trkpt>
      <trkpt lat="43.96699" lon="1.81977">
        <ele>273.39999389648</ele>
        <time>2020-08-13T18:56:48.000Z</time>
      </trkpt>
      <trkpt lat="43.96699" lon="1.81977">
        <ele>273.39999389648</ele>
        <time>2020-08-13T18:56:49.000Z</time>
      </trkpt>
      <trkpt lat="43.96699" lon="1.81977">
        <ele>273.39999389648</ele>
        <time>2020-08-13T18:56:50.000Z</time>
      </trkpt>
      <trkpt lat="43.96699" lon="1.81977">
        <ele>273.39999389648</ele>
        <time>2020-08-13T18:56:51.000Z</time>
      </trkpt>
      <trkpt lat="43.96699" lon="1.81977">
        <ele>273.39999389648</ele>
        <time>2020-08-13T18:56:52.000Z</time>
      </trkpt>
      <trkpt lat="43.96699" lon="1.81977">
        <ele>273.39999389648</ele>
        <time>2020-08-13T18:56:53.000Z</time>
      </trkpt>
      <trkpt lat="43.96699" lon="1.81977">
        <ele>273.39999389648</ele>
        <time>2020-08-13T18:56:54.000Z</time>
      </trkpt>
      <trkpt lat="43.96699" lon="1.81977">
        <ele>273.39999389648</ele>
        <time>2020-08-13T18:56:55.000Z</time>
      </trkpt>
      <trkpt lat="43.96699" lon="1.81977">
        <ele>273.39999389648</ele>
        <time>2020-08-13T18:56:56.000Z</time>
      </trkpt>
      <trkpt lat="43.96699" lon="1.81977">
        <ele>273.39999389648</ele>
        <time>2020-08-13T18:56:57.000Z</time>
      </trkpt>
      <trkpt lat="43.96699" lon="1.81977">
        <ele>273.39999389648</ele>
        <time>2020-08-13T18:56:58.000Z</time>
      </trkpt>
      <trkpt lat="43.96699" lon="1.81977">
        <ele>273.39999389648</ele>
        <time>2020-08-13T18:56:59.000Z</time>
      </trkpt>
      <trkpt lat="43.96699" lon="1.81977">
        <ele>273.39999389648</ele>
        <time>2020-08-13T18:57:00.000Z</time>
      </trkpt>
      <trkpt lat="43.96699" lon="1.81977">
        <ele>273.39999389648</ele>
        <time>2020-08-13T18:57:01.000Z</time>
      </trkpt>
      <trkpt lat="43.96699" lon="1.81977">
        <ele>273.39999389648</ele>
        <time>2020-08-13T18:57:02.000Z</time>
      </trkpt>
      <trkpt lat="43.96699" lon="1.81977">
        <ele>273.39999389648</ele>
        <time>2020-08-13T18:57:03.000Z</time>
      </trkpt>
      <trkpt lat="43.96699" lon="1.81977">
        <ele>273.39999389648</ele>
        <time>2020-08-13T18:57:04.000Z</time>
      </trkpt>
      <trkpt lat="43.96699" lon="1.81977">
        <ele>273.39999389648</ele>
        <time>2020-08-13T18:57:05.000Z</time>
      </trkpt>
      <trkpt lat="43.96699" lon="1.81977">
        <ele>273.39999389648</ele>
        <time>2020-08-13T18:57:06.000Z</time>
      </trkpt>
      <trkpt lat="43.96699" lon="1.81977">
        <ele>273.39999389648</ele>
        <time>2020-08-13T18:57:07.000Z</time>
      </trkpt>
      <trkpt lat="43.96699" lon="1.81977">
        <ele>273.60000610352</ele>
        <time>2020-08-13T18:57:08.000Z</time>
      </trkpt>
      <trkpt lat="43.96699" lon="1.81976">
        <ele>273.60000610352</ele>
        <time>2020-08-13T18:57:09.000Z</time>
      </trkpt>
      <trkpt lat="43.96699" lon="1.81974">
        <ele>273.60000610352</ele>
        <time>2020-08-13T18:57:10.000Z</time>
      </trkpt>
      <trkpt lat="43.967" lon="1.81973">
        <ele>273.60000610352</ele>
        <time>2020-08-13T18:57:11.000Z</time>
      </trkpt>
      <trkpt lat="43.967" lon="1.81972">
        <ele>273.60000610352</ele>
        <time>2020-08-13T18:57:12.000Z</time>
      </trkpt>
      <trkpt lat="43.96701" lon="1.8197">
        <ele>273.60000610352</ele>
        <time>2020-08-13T18:57:13.000Z</time>
      </trkpt>
      <trkpt lat="43.96702" lon="1.81968">
        <ele>273.60000610352</ele>
        <time>2020-08-13T18:57:14.000Z</time>
      </trkpt>
      <trkpt lat="43.96702" lon="1.81967">
        <ele>273.60000610352</ele>
        <time>2020-08-13T18:57:15.000Z</time>
      </trkpt>
      <trkpt lat="43.96703" lon="1.81965">
        <ele>273.79998779297</ele>
        <time>2020-08-13T18:57:16.000Z</time>
      </trkpt>
      <trkpt lat="43.96704" lon="1.81963">
        <ele>273.79998779297</ele>
        <time>2020-08-13T18:57:17.000Z</time>
      </trkpt>
      <trkpt lat="43.96704" lon="1.81962">
        <ele>273.79998779297</ele>
        <time>2020-08-13T18:57:18.000Z</time>
      </trkpt>
      <trkpt lat="43.96705" lon="1.8196">
        <ele>274</ele>
        <time>2020-08-13T18:57:19.000Z</time>
      </trkpt>
      <trkpt lat="43.96706" lon="1.81959">
        <ele>274</ele>
        <time>2020-08-13T18:57:20.000Z</time>
      </trkpt>
      <trkpt lat="43.96707" lon="1.81957">
        <ele>274</ele>
        <time>2020-08-13T18:57:21.000Z</time>
      </trkpt>
      <trkpt lat="43.96708" lon="1.81955">
        <ele>274</ele>
        <time>2020-08-13T18:57:22.000Z</time>
      </trkpt>
      <trkpt lat="43.96709" lon="1.81953">
        <ele>274</ele>
        <time>2020-08-13T18:57:23.000Z</time>
      </trkpt>
      <trkpt lat="43.96709" lon="1.81951">
        <ele>274</ele>
        <time>2020-08-13T18:57:24.000Z</time>
      </trkpt>
      <trkpt lat="43.9671" lon="1.81948">
        <ele>274</ele>
        <time>2020-08-13T18:57:25.000Z</time>
      </trkpt>
      <trkpt lat="43.9671" lon="1.81946">
        <ele>274</ele>
        <time>2020-08-13T18:57:26.000Z</time>
      </trkpt>
      <trkpt lat="43.9671" lon="1.81943">
        <ele>274</ele>
        <time>2020-08-13T18:57:27.000Z</time>
      </trkpt>
      <trkpt lat="43.96709" lon="1.8194">
        <ele>274</ele>
        <time>2020-08-13T18:57:28.000Z</time>
      </trkpt>
      <trkpt lat="43.96708" lon="1.81937">
        <ele>274.20001220703</ele>
        <time>2020-08-13T18:57:29.000Z</time>
      </trkpt>
      <trkpt lat="43.96707" lon="1.81935">
        <ele>274.39999389648</ele>
        <time>2020-08-13T18:57:30.000Z</time>
      </trkpt>
      <trkpt lat="43.96705" lon="1.81934">
        <ele>274.60000610352</ele>
        <time>2020-08-13T18:57:31.000Z</time>
      </trkpt>
      <trkpt lat="43.96702" lon="1.81934">
        <ele>274.79998779297</ele>
        <time>2020-08-13T18:57:32.000Z</time>
      </trkpt>
      <trkpt lat="43.967" lon="1.81936">
        <ele>274.79998779297</ele>
        <time>2020-08-13T18:57:33.000Z</time>
      </trkpt>
      <trkpt lat="43.96699" lon="1.81938">
        <ele>275.20001220703</ele>
        <time>2020-08-13T18:57:34.000Z</time>
      </trkpt>
      <trkpt lat="43.96698" lon="1.8194">
        <ele>275.39999389648</ele>
        <time>2020-08-13T18:57:35.000Z</time>
      </trkpt>
      <trkpt lat="43.96697" lon="1.81942">
        <ele>275.60000610352</ele>
        <time>2020-08-13T18:57:36.000Z</time>
      </trkpt>
      <trkpt lat="43.96696" lon="1.81944">
        <ele>275.79998779297</ele>
        <time>2020-08-13T18:57:37.000Z</time>
      </trkpt>
      <trkpt lat="43.96695" lon="1.81945">
        <ele>276.20001220703</ele>
        <time>2020-08-13T18:57:38.000Z</time>
      </trkpt>
      <trkpt lat="43.96693" lon="1.81947">
        <ele>276.60000610352</ele>
        <time>2020-08-13T18:57:39.000Z</time>
      </trkpt>
      <trkpt lat="43.96691" lon="1.81947">
        <ele>276.79998779297</ele>
        <time>2020-08-13T18:57:40.000Z</time>
      </trkpt>
      <trkpt lat="43.96688" lon="1.81947">
        <ele>277.20001220703</ele>
        <time>2020-08-13T18:57:41.000Z</time>
      </trkpt>
      <trkpt lat="43.96686" lon="1.81946">
        <ele>277.39999389648</ele>
        <time>2020-08-13T18:57:42.000Z</time>
      </trkpt>
      <trkpt lat="43.96684" lon="1.81946">
        <ele>277.79998779297</ele>
        <time>2020-08-13T18:57:43.000Z</time>
      </trkpt>
      <trkpt lat="43.96681" lon="1.81947">
        <ele>278.20001220703</ele>
        <time>2020-08-13T18:57:44.000Z</time>
      </trkpt>
      <trkpt lat="43.96679" lon="1.81947">
        <ele>278.39999389648</ele>
        <time>2020-08-13T18:57:45.000Z</time>
      </trkpt>
      <trkpt lat="43.96676" lon="1.81948">
        <ele>278.79998779297</ele>
        <time>2020-08-13T18:57:46.000Z</time>
      </trkpt>
      <trkpt lat="43.96674" lon="1.81948">
        <ele>279.20001220703</ele>
        <time>2020-08-13T18:57:47.000Z</time>
      </trkpt>
      <trkpt lat="43.96672" lon="1.81949">
        <ele>279.60000610352</ele>
        <time>2020-08-13T18:57:48.000Z</time>
      </trkpt>
      <trkpt lat="43.96669" lon="1.8195">
        <ele>279.79998779297</ele>
        <time>2020-08-13T18:57:49.000Z</time>
      </trkpt>
      <trkpt lat="43.96667" lon="1.8195">
        <ele>280</ele>
        <time>2020-08-13T18:57:50.000Z</time>
      </trkpt>
      <trkpt lat="43.96665" lon="1.81951">
        <ele>280.20001220703</ele>
        <time>2020-08-13T18:57:51.000Z</time>
      </trkpt>
      <trkpt lat="43.96662" lon="1.81952">
        <ele>280.39999389648</ele>
        <time>2020-08-13T18:57:52.000Z</time>
      </trkpt>
      <trkpt lat="43.96659" lon="1.81953">
        <ele>280.60000610352</ele>
        <time>2020-08-13T18:57:53.000Z</time>
      </trkpt>
      <trkpt lat="43.96655" lon="1.81953">
        <ele>280.79998779297</ele>
        <time>2020-08-13T18:57:54.000Z</time>
      </trkpt>
      <trkpt lat="43.96651" lon="1.81952">
        <ele>281.20001220703</ele>
        <time>2020-08-13T18:57:55.000Z</time>
      </trkpt>
      <trkpt lat="43.96648" lon="1.8195">
        <ele>281.39999389648</ele>
        <time>2020-08-13T18:57:56.000Z</time>
      </trkpt>
      <trkpt lat="43.96644" lon="1.81949">
        <ele>281.79998779297</ele>
        <time>2020-08-13T18:57:57.000Z</time>
      </trkpt>
      <trkpt lat="43.96641" lon="1.81948">
        <ele>282</ele>
        <time>2020-08-13T18:57:58.000Z</time>
      </trkpt>
      <trkpt lat="43.96639" lon="1.81947">
        <ele>282.39999389648</ele>
        <time>2020-08-13T18:57:59.000Z</time>
      </trkpt>
      <trkpt lat="43.96637" lon="1.81946">
        <ele>282.79998779297</ele>
        <time>2020-08-13T18:58:00.000Z</time>
      </trkpt>
      <trkpt lat="43.96636" lon="1.81945">
        <ele>283</ele>
        <time>2020-08-13T18:58:01.000Z</time>
      </trkpt>
      <trkpt lat="43.96632" lon="1.8195">
        <ele>283.20001220703</ele>
        <time>2020-08-13T18:58:02.000Z</time>
      </trkpt>
      <trkpt lat="43.96629" lon="1.81954">
        <ele>283.39999389648</ele>
        <time>2020-08-13T18:58:03.000Z</time>
      </trkpt>
      <trkpt lat="43.96627" lon="1.81957">
        <ele>283.60000610352</ele>
        <time>2020-08-13T18:58:04.000Z</time>
      </trkpt>
      <trkpt lat="43.96625" lon="1.8196">
        <ele>284</ele>
        <time>2020-08-13T18:58:05.000Z</time>
      </trkpt>
      <trkpt lat="43.96624" lon="1.81962">
        <ele>284.20001220703</ele>
        <time>2020-08-13T18:58:06.000Z</time>
      </trkpt>
      <trkpt lat="43.96623" lon="1.81966">
        <ele>284.20001220703</ele>
        <time>2020-08-13T18:58:07.000Z</time>
      </trkpt>
      <trkpt lat="43.96622" lon="1.81969">
        <ele>284.39999389648</ele>
        <time>2020-08-13T18:58:08.000Z</time>
      </trkpt>
      <trkpt lat="43.96621" lon="1.81974">
        <ele>284.39999389648</ele>
        <time>2020-08-13T18:58:09.000Z</time>
      </trkpt>
      <trkpt lat="43.9662" lon="1.81978">
        <ele>284.39999389648</ele>
        <time>2020-08-13T18:58:10.000Z</time>
      </trkpt>
      <trkpt lat="43.96619" lon="1.81982">
        <ele>284.60000610352</ele>
        <time>2020-08-13T18:58:11.000Z</time>
      </trkpt>
      <trkpt lat="43.96618" lon="1.81985">
        <ele>284.60000610352</ele>
        <time>2020-08-13T18:58:12.000Z</time>
      </trkpt>
      <trkpt lat="43.96615" lon="1.81987">
        <ele>284.79998779297</ele>
        <time>2020-08-13T18:58:13.000Z</time>
      </trkpt>
      <trkpt lat="43.96612" lon="1.81988">
        <ele>284.79998779297</ele>
        <time>2020-08-13T18:58:14.000Z</time>
      </trkpt>
      <trkpt lat="43.9661" lon="1.8199">
        <ele>284.79998779297</ele>
        <time>2020-08-13T18:58:15.000Z</time>
      </trkpt>
      <trkpt lat="43.96609" lon="1.81991">
        <ele>285</ele>
        <time>2020-08-13T18:58:16.000Z</time>
      </trkpt>
      <trkpt lat="43.96607" lon="1.81992">
        <ele>285</ele>
        <time>2020-08-13T18:58:17.000Z</time>
      </trkpt>
      <trkpt lat="43.96606" lon="1.81994">
        <ele>285.20001220703</ele>
        <time>2020-08-13T18:58:18.000Z</time>
      </trkpt>
      <trkpt lat="43.96604" lon="1.81995">
        <ele>285.39999389648</ele>
        <time>2020-08-13T18:58:19.000Z</time>
      </trkpt>
      <trkpt lat="43.96604" lon="1.81998">
        <ele>285.39999389648</ele>
        <time>2020-08-13T18:58:20.000Z</time>
      </trkpt>
      <trkpt lat="43.96604" lon="1.82">
        <ele>285.39999389648</ele>
        <time>2020-08-13T18:58:21.000Z</time>
      </trkpt>
      <trkpt lat="43.96604" lon="1.82002">
        <ele>285.39999389648</ele>
        <time>2020-08-13T18:58:22.000Z</time>
      </trkpt>
      <trkpt lat="43.96603" lon="1.82004">
        <ele>285.39999389648</ele>
        <time>2020-08-13T18:58:23.000Z</time>
      </trkpt>
      <trkpt lat="43.96603" lon="1.82005">
        <ele>285.60000610352</ele>
        <time>2020-08-13T18:58:24.000Z</time>
      </trkpt>
      <trkpt lat="43.96602" lon="1.82007">
        <ele>285.60000610352</ele>
        <time>2020-08-13T18:58:25.000Z</time>
      </trkpt>
      <trkpt lat="43.96601" lon="1.82009">
        <ele>285.60000610352</ele>
        <time>2020-08-13T18:58:26.000Z</time>
      </trkpt>
      <trkpt lat="43.966" lon="1.82011">
        <ele>285.60000610352</ele>
        <time>2020-08-13T18:58:27.000Z</time>
      </trkpt>
      <trkpt lat="43.96599" lon="1.82012">
        <ele>285.60000610352</ele>
        <time>2020-08-13T18:58:28.000Z</time>
      </trkpt>
      <trkpt lat="43.96598" lon="1.82013">
        <ele>285.79998779297</ele>
        <time>2020-08-13T18:58:29.000Z</time>
      </trkpt>
      <trkpt lat="43.96597" lon="1.82012">
        <ele>285.79998779297</ele>
        <time>2020-08-13T18:58:30.000Z</time>
      </trkpt>
      <trkpt lat="43.96595" lon="1.82012">
        <ele>285.79998779297</ele>
        <time>2020-08-13T18:58:31.000Z</time>
      </trkpt>
      <trkpt lat="43.96594" lon="1.82011">
        <ele>286</ele>
        <time>2020-08-13T18:58:32.000Z</time>
      </trkpt>
      <trkpt lat="43.96592" lon="1.82011">
        <ele>286</ele>
        <time>2020-08-13T18:58:33.000Z</time>
      </trkpt>
      <trkpt lat="43.96591" lon="1.8201">
        <ele>286</ele>
        <time>2020-08-13T18:58:34.000Z</time>
      </trkpt>
      <trkpt lat="43.9659" lon="1.82008">
        <ele>286</ele>
        <time>2020-08-13T18:58:35.000Z</time>
      </trkpt>
      <trkpt lat="43.9659" lon="1.82007">
        <ele>286.20001220703</ele>
        <time>2020-08-13T18:58:36.000Z</time>
      </trkpt>
      <trkpt lat="43.96589" lon="1.82006">
        <ele>286.20001220703</ele>
        <time>2020-08-13T18:58:37.000Z</time>
      </trkpt>
      <trkpt lat="43.96588" lon="1.82004">
        <ele>286.20001220703</ele>
        <time>2020-08-13T18:58:38.000Z</time>
      </trkpt>
      <trkpt lat="43.96587" lon="1.82004">
        <ele>286.20001220703</ele>
        <time>2020-08-13T18:58:39.000Z</time>
      </trkpt>
      <trkpt lat="43.96586" lon="1.82004">
        <ele>286.20001220703</ele>
        <time>2020-08-13T18:58:40.000Z</time>
      </trkpt>
      <trkpt lat="43.96586" lon="1.82004">
        <ele>286.20001220703</ele>
        <time>2020-08-13T18:58:41.000Z</time>
      </trkpt>
      <trkpt lat="43.96585" lon="1.82004">
        <ele>286.20001220703</ele>
        <time>2020-08-13T18:58:42.000Z</time>
      </trkpt>
      <trkpt lat="43.96583" lon="1.82005">
        <ele>286.20001220703</ele>
        <time>2020-08-13T18:58:43.000Z</time>
      </trkpt>
      <trkpt lat="43.9658" lon="1.82006">
        <ele>286</ele>
        <time>2020-08-13T18:58:44.000Z</time>
      </trkpt>
      <trkpt lat="43.96579" lon="1.82006">
        <ele>286</ele>
        <time>2020-08-13T18:58:45.000Z</time>
      </trkpt>
      <trkpt lat="43.96577" lon="1.82006">
        <ele>286</ele>
        <time>2020-08-13T18:58:46.000Z</time>
      </trkpt>
      <trkpt lat="43.96575" lon="1.82005">
        <ele>286</ele>
        <time>2020-08-13T18:58:47.000Z</time>
      </trkpt>
      <trkpt lat="43.96572" lon="1.82005">
        <ele>286</ele>
        <time>2020-08-13T18:58:48.000Z</time>
      </trkpt>
      <trkpt lat="43.96569" lon="1.82006">
        <ele>286</ele>
        <time>2020-08-13T18:58:49.000Z</time>
      </trkpt>
      <trkpt lat="43.96567" lon="1.82005">
        <ele>286</ele>
        <time>2020-08-13T18:58:50.000Z</time>
      </trkpt>
      <trkpt lat="43.96564" lon="1.82004">
        <ele>285.79998779297</ele>
        <time>2020-08-13T18:58:51.000Z</time>
      </trkpt>
      <trkpt lat="43.96562" lon="1.82002">
        <ele>285.79998779297</ele>
        <time>2020-08-13T18:58:52.000Z</time>
      </trkpt>
      <trkpt lat="43.9656" lon="1.82001">
        <ele>285.60000610352</ele>
        <time>2020-08-13T18:58:53.000Z</time>
      </trkpt>
      <trkpt lat="43.96558" lon="1.82">
        <ele>285.60000610352</ele>
        <time>2020-08-13T18:58:54.000Z</time>
      </trkpt>
      <trkpt lat="43.96557" lon="1.82001">
        <ele>285.39999389648</ele>
        <time>2020-08-13T18:58:55.000Z</time>
      </trkpt>
      <trkpt lat="43.96558" lon="1.82001">
        <ele>285.39999389648</ele>
        <time>2020-08-13T18:58:56.000Z</time>
      </trkpt>
      <trkpt lat="43.96557" lon="1.82001">
        <ele>285.39999389648</ele>
        <time>2020-08-13T18:58:57.000Z</time>
      </trkpt>
      <trkpt lat="43.96555" lon="1.82001">
        <ele>285.39999389648</ele>
        <time>2020-08-13T18:58:58.000Z</time>
      </trkpt>
      <trkpt lat="43.96554" lon="1.82001">
        <ele>285.39999389648</ele>
        <time>2020-08-13T18:58:59.000Z</time>
      </trkpt>
      <trkpt lat="43.96555" lon="1.82001">
        <ele>285.20001220703</ele>
        <time>2020-08-13T18:59:00.000Z</time>
      </trkpt>
      <trkpt lat="43.96554" lon="1.82002">
        <ele>285.20001220703</ele>
        <time>2020-08-13T18:59:01.000Z</time>
      </trkpt>
      <trkpt lat="43.96553" lon="1.82003">
        <ele>285.20001220703</ele>
        <time>2020-08-13T18:59:02.000Z</time>
      </trkpt>
      <trkpt lat="43.96553" lon="1.82003">
        <ele>285.20001220703</ele>
        <time>2020-08-13T18:59:03.000Z</time>
      </trkpt>
      <trkpt lat="43.96552" lon="1.82004">
        <ele>285</ele>
        <time>2020-08-13T18:59:04.000Z</time>
      </trkpt>
      <trkpt lat="43.96552" lon="1.82005">
        <ele>285.20001220703</ele>
        <time>2020-08-13T18:59:05.000Z</time>
      </trkpt>
      <trkpt lat="43.96552" lon="1.82007">
        <ele>285.20001220703</ele>
        <time>2020-08-13T18:59:06.000Z</time>
      </trkpt>
      <trkpt lat="43.96551" lon="1.82009">
        <ele>285</ele>
        <time>2020-08-13T18:59:07.000Z</time>
      </trkpt>
      <trkpt lat="43.9655" lon="1.82011">
        <ele>285</ele>
        <time>2020-08-13T18:59:08.000Z</time>
      </trkpt>
      <trkpt lat="43.96549" lon="1.82012">
        <ele>285</ele>
        <time>2020-08-13T18:59:09.000Z</time>
      </trkpt>
      <trkpt lat="43.96549" lon="1.82015">
        <ele>285</ele>
        <time>2020-08-13T18:59:10.000Z</time>
      </trkpt>
      <trkpt lat="43.96548" lon="1.82018">
        <ele>284.79998779297</ele>
        <time>2020-08-13T18:59:11.000Z</time>
      </trkpt>
      <trkpt lat="43.96548" lon="1.82021">
        <ele>284.60000610352</ele>
        <time>2020-08-13T18:59:12.000Z</time>
      </trkpt>
      <trkpt lat="43.96547" lon="1.82025">
        <ele>284.39999389648</ele>
        <time>2020-08-13T18:59:13.000Z</time>
      </trkpt>
      <trkpt lat="43.96545" lon="1.8203">
        <ele>284.20001220703</ele>
        <time>2020-08-13T18:59:14.000Z</time>
      </trkpt>
      <trkpt lat="43.96543" lon="1.82035">
        <ele>284</ele>
        <time>2020-08-13T18:59:15.000Z</time>
      </trkpt>
      <trkpt lat="43.96541" lon="1.8204">
        <ele>283.60000610352</ele>
        <time>2020-08-13T18:59:16.000Z</time>
      </trkpt>
      <trkpt lat="43.9654" lon="1.82044">
        <ele>283.39999389648</ele>
        <time>2020-08-13T18:59:17.000Z</time>
      </trkpt>
      <trkpt lat="43.96538" lon="1.82048">
        <ele>283</ele>
        <time>2020-08-13T18:59:18.000Z</time>
      </trkpt>
      <trkpt lat="43.96537" lon="1.82052">
        <ele>282.79998779297</ele>
        <time>2020-08-13T18:59:19.000Z</time>
      </trkpt>
      <trkpt lat="43.96537" lon="1.82056">
        <ele>282.60000610352</ele>
        <time>2020-08-13T18:59:20.000Z</time>
      </trkpt>
      <trkpt lat="43.96537" lon="1.82059">
        <ele>282.20001220703</ele>
        <time>2020-08-13T18:59:21.000Z</time>
      </trkpt>
      <trkpt lat="43.96537" lon="1.82063">
        <ele>281.79998779297</ele>
        <time>2020-08-13T18:59:22.000Z</time>
      </trkpt>
      <trkpt lat="43.96537" lon="1.82067">
        <ele>281.60000610352</ele>
        <time>2020-08-13T18:59:23.000Z</time>
      </trkpt>
      <trkpt lat="43.96536" lon="1.8207">
        <ele>281.20001220703</ele>
        <time>2020-08-13T18:59:24.000Z</time>
      </trkpt>
      <trkpt lat="43.96536" lon="1.82073">
        <ele>281</ele>
        <time>2020-08-13T18:59:25.000Z</time>
      </trkpt>
      <trkpt lat="43.96536" lon="1.82076">
        <ele>280.60000610352</ele>
        <time>2020-08-13T18:59:26.000Z</time>
      </trkpt>
      <trkpt lat="43.96535" lon="1.82079">
        <ele>280.39999389648</ele>
        <time>2020-08-13T18:59:27.000Z</time>
      </trkpt>
      <trkpt lat="43.96534" lon="1.82081">
        <ele>280</ele>
        <time>2020-08-13T18:59:28.000Z</time>
      </trkpt>
      <trkpt lat="43.96532" lon="1.82083">
        <ele>279.60000610352</ele>
        <time>2020-08-13T18:59:29.000Z</time>
      </trkpt>
      <trkpt lat="43.96532" lon="1.82086">
        <ele>279.39999389648</ele>
        <time>2020-08-13T18:59:30.000Z</time>
      </trkpt>
      <trkpt lat="43.96533" lon="1.82089">
        <ele>279</ele>
        <time>2020-08-13T18:59:31.000Z</time>
      </trkpt>
      <trkpt lat="43.96534" lon="1.82093">
        <ele>278.60000610352</ele>
        <time>2020-08-13T18:59:32.000Z</time>
      </trkpt>
      <trkpt lat="43.96535" lon="1.82097">
        <ele>278.20001220703</ele>
        <time>2020-08-13T18:59:33.000Z</time>
      </trkpt>
      <trkpt lat="43.96537" lon="1.82101">
        <ele>278</ele>
        <time>2020-08-13T18:59:34.000Z</time>
      </trkpt>
      <trkpt lat="43.96541" lon="1.82106">
        <ele>277.39999389648</ele>
        <time>2020-08-13T18:59:35.000Z</time>
      </trkpt>
      <trkpt lat="43.96542" lon="1.82112">
        <ele>276.79998779297</ele>
        <time>2020-08-13T18:59:36.000Z</time>
      </trkpt>
      <trkpt lat="43.96543" lon="1.82117">
        <ele>276.20001220703</ele>
        <time>2020-08-13T18:59:37.000Z</time>
      </trkpt>
      <trkpt lat="43.96544" lon="1.82121">
        <ele>275.60000610352</ele>
        <time>2020-08-13T18:59:38.000Z</time>
      </trkpt>
      <trkpt lat="43.96544" lon="1.82124">
        <ele>275</ele>
        <time>2020-08-13T18:59:39.000Z</time>
      </trkpt>
      <trkpt lat="43.96544" lon="1.82127">
        <ele>274.60000610352</ele>
        <time>2020-08-13T18:59:40.000Z</time>
      </trkpt>
      <trkpt lat="43.96543" lon="1.82129">
        <ele>274</ele>
        <time>2020-08-13T18:59:41.000Z</time>
      </trkpt>
      <trkpt lat="43.96539" lon="1.82128">
        <ele>273.60000610352</ele>
        <time>2020-08-13T18:59:42.000Z</time>
      </trkpt>
      <trkpt lat="43.96536" lon="1.82124">
        <ele>273.39999389648</ele>
        <time>2020-08-13T18:59:43.000Z</time>
      </trkpt>
      <trkpt lat="43.96534" lon="1.82119">
        <ele>273</ele>
        <time>2020-08-13T18:59:44.000Z</time>
      </trkpt>
      <trkpt lat="43.96532" lon="1.82114">
        <ele>272.79998779297</ele>
        <time>2020-08-13T18:59:45.000Z</time>
      </trkpt>
      <trkpt lat="43.96529" lon="1.82109">
        <ele>272.60000610352</ele>
        <time>2020-08-13T18:59:46.000Z</time>
      </trkpt>
      <trkpt lat="43.96526" lon="1.82106">
        <ele>272.20001220703</ele>
        <time>2020-08-13T18:59:47.000Z</time>
      </trkpt>
      <trkpt lat="43.96523" lon="1.82102">
        <ele>272</ele>
        <time>2020-08-13T18:59:48.000Z</time>
      </trkpt>
      <trkpt lat="43.96519" lon="1.82098">
        <ele>271.79998779297</ele>
        <time>2020-08-13T18:59:49.000Z</time>
      </trkpt>
      <trkpt lat="43.96515" lon="1.82094">
        <ele>271.60000610352</ele>
        <time>2020-08-13T18:59:50.000Z</time>
      </trkpt>
      <trkpt lat="43.9651" lon="1.82089">
        <ele>271.20001220703</ele>
        <time>2020-08-13T18:59:51.000Z</time>
      </trkpt>
      <trkpt lat="43.96506" lon="1.82085">
        <ele>270.79998779297</ele>
        <time>2020-08-13T18:59:52.000Z</time>
      </trkpt>
      <trkpt lat="43.96503" lon="1.82081">
        <ele>270.20001220703</ele>
        <time>2020-08-13T18:59:53.000Z</time>
      </trkpt>
      <trkpt lat="43.965" lon="1.82078">
        <ele>269.79998779297</ele>
        <time>2020-08-13T18:59:54.000Z</time>
      </trkpt>
      <trkpt lat="43.96497" lon="1.82077">
        <ele>268.79998779297</ele>
        <time>2020-08-13T18:59:55.000Z</time>
      </trkpt>
      <trkpt lat="43.96494" lon="1.82078">
        <ele>268.39999389648</ele>
        <time>2020-08-13T18:59:56.000Z</time>
      </trkpt>
      <trkpt lat="43.96491" lon="1.82081">
        <ele>268</ele>
        <time>2020-08-13T18:59:57.000Z</time>
      </trkpt>
      <trkpt lat="43.9649" lon="1.82085">
        <ele>267.60000610352</ele>
        <time>2020-08-13T18:59:58.000Z</time>
      </trkpt>
      <trkpt lat="43.96488" lon="1.82089">
        <ele>267.20001220703</ele>
        <time>2020-08-13T18:59:59.000Z</time>
      </trkpt>
      <trkpt lat="43.96487" lon="1.82094">
        <ele>267</ele>
        <time>2020-08-13T19:00:00.000Z</time>
      </trkpt>
      <trkpt lat="43.96486" lon="1.82098">
        <ele>266.60000610352</ele>
        <time>2020-08-13T19:00:01.000Z</time>
      </trkpt>
      <trkpt lat="43.96485" lon="1.82101">
        <ele>266.39999389648</ele>
        <time>2020-08-13T19:00:02.000Z</time>
      </trkpt>
      <trkpt lat="43.96484" lon="1.82102">
        <ele>266</ele>
        <time>2020-08-13T19:00:03.000Z</time>
      </trkpt>
      <trkpt lat="43.96484" lon="1.82103">
        <ele>265.79998779297</ele>
        <time>2020-08-13T19:00:04.000Z</time>
      </trkpt>
      <trkpt lat="43.96484" lon="1.82102">
        <ele>265.79998779297</ele>
        <time>2020-08-13T19:00:05.000Z</time>
      </trkpt>
      <trkpt lat="43.96484" lon="1.82103">
        <ele>265.60000610352</ele>
        <time>2020-08-13T19:00:06.000Z</time>
      </trkpt>
      <trkpt lat="43.96484" lon="1.82103">
        <ele>265.60000610352</ele>
        <time>2020-08-13T19:00:07.000Z</time>
      </trkpt>
      <trkpt lat="43.96484" lon="1.82103">
        <ele>265.79998779297</ele>
        <time>2020-08-13T19:00:08.000Z</time>
      </trkpt>
      <trkpt lat="43.96484" lon="1.82103">
        <ele>265.79998779297</ele>
        <time>2020-08-13T19:00:09.000Z</time>
      </trkpt>
      <trkpt lat="43.96484" lon="1.82103">
        <ele>265.79998779297</ele>
        <time>2020-08-13T19:00:10.000Z</time>
      </trkpt>
      <trkpt lat="43.96484" lon="1.82103">
        <ele>265.60000610352</ele>
        <time>2020-08-13T19:00:11.000Z</time>
      </trkpt>
      <trkpt lat="43.96484" lon="1.82103">
        <ele>265.60000610352</ele>
        <time>2020-08-13T19:00:12.000Z</time>
      </trkpt>
      <trkpt lat="43.96484" lon="1.82103">
        <ele>265.60000610352</ele>
        <time>2020-08-13T19:00:13.000Z</time>
      </trkpt>
      <trkpt lat="43.96484" lon="1.82103">
        <ele>265.60000610352</ele>
        <time>2020-08-13T19:00:14.000Z</time>
      </trkpt>
      <trkpt lat="43.96484" lon="1.82103">
        <ele>265.60000610352</ele>
        <time>2020-08-13T19:00:15.000Z</time>
      </trkpt>
      <trkpt lat="43.96484" lon="1.82103">
        <ele>265.60000610352</ele>
        <time>2020-08-13T19:00:16.000Z</time>
      </trkpt>
      <trkpt lat="43.96484" lon="1.82103">
        <ele>265.60000610352</ele>
        <time>2020-08-13T19:00:17.000Z</time>
      </trkpt>
      <trkpt lat="43.96484" lon="1.82103">
        <ele>265.60000610352</ele>
        <time>2020-08-13T19:00:18.000Z</time>
      </trkpt>
      <trkpt lat="43.96484" lon="1.82103">
        <ele>265.60000610352</ele>
        <time>2020-08-13T19:00:19.000Z</time>
      </trkpt>
      <trkpt lat="43.96484" lon="1.82103">
        <ele>265.60000610352</ele>
        <time>2020-08-13T19:00:20.000Z</time>
      </trkpt>
      <trkpt lat="43.96484" lon="1.82103">
        <ele>265.60000610352</ele>
        <time>2020-08-13T19:00:21.000Z</time>
      </trkpt>
      <trkpt lat="43.96484" lon="1.82103">
        <ele>265.60000610352</ele>
        <time>2020-08-13T19:00:22.000Z</time>
      </trkpt>
      <trkpt lat="43.96484" lon="1.82103">
        <ele>265.60000610352</ele>
        <time>2020-08-13T19:00:23.000Z</time>
      </trkpt>
      <trkpt lat="43.96484" lon="1.82104">
        <ele>265.60000610352</ele>
        <time>2020-08-13T19:00:24.000Z</time>
      </trkpt>
      <trkpt lat="43.96483" lon="1.82106">
        <ele>265.60000610352</ele>
        <time>2020-08-13T19:00:25.000Z</time>
      </trkpt>
      <trkpt lat="43.96481" lon="1.82107">
        <ele>265.39999389648</ele>
        <time>2020-08-13T19:00:26.000Z</time>
      </trkpt>
      <trkpt lat="43.96479" lon="1.82108">
        <ele>265.39999389648</ele>
        <time>2020-08-13T19:00:27.000Z</time>
      </trkpt>
      <trkpt lat="43.96477" lon="1.8211">
        <ele>265.20001220703</ele>
        <time>2020-08-13T19:00:28.000Z</time>
      </trkpt>
      <trkpt lat="43.96475" lon="1.82112">
        <ele>265.20001220703</ele>
        <time>2020-08-13T19:00:29.000Z</time>
      </trkpt>
      <trkpt lat="43.96474" lon="1.82113">
        <ele>265</ele>
        <time>2020-08-13T19:00:30.000Z</time>
      </trkpt>
      <trkpt lat="43.96474" lon="1.82115">
        <ele>264.79998779297</ele>
        <time>2020-08-13T19:00:31.000Z</time>
      </trkpt>
      <trkpt lat="43.96475" lon="1.82114">
        <ele>264.79998779297</ele>
        <time>2020-08-13T19:00:32.000Z</time>
      </trkpt>
      <trkpt lat="43.96475" lon="1.82115">
        <ele>264.79998779297</ele>
        <time>2020-08-13T19:00:33.000Z</time>
      </trkpt>
      <trkpt lat="43.96475" lon="1.82115">
        <ele>264.79998779297</ele>
        <time>2020-08-13T19:00:34.000Z</time>
      </trkpt>
      <trkpt lat="43.96475" lon="1.82115">
        <ele>264.79998779297</ele>
        <time>2020-08-13T19:00:35.000Z</time>
      </trkpt>
      <trkpt lat="43.96475" lon="1.82115">
        <ele>264.79998779297</ele>
        <time>2020-08-13T19:00:36.000Z</time>
      </trkpt>
      <trkpt lat="43.96475" lon="1.82115">
        <ele>264.79998779297</ele>
        <time>2020-08-13T19:00:37.000Z</time>
      </trkpt>
      <trkpt lat="43.96475" lon="1.82115">
        <ele>264.79998779297</ele>
        <time>2020-08-13T19:00:38.000Z</time>
      </trkpt>
      <trkpt lat="43.96475" lon="1.82115">
        <ele>264.79998779297</ele>
        <time>2020-08-13T19:00:39.000Z</time>
      </trkpt>
      <trkpt lat="43.96475" lon="1.82115">
        <ele>264.79998779297</ele>
        <time>2020-08-13T19:00:40.000Z</time>
      </trkpt>
      <trkpt lat="43.96475" lon="1.82115">
        <ele>264.79998779297</ele>
        <time>2020-08-13T19:00:41.000Z</time>
      </trkpt>
      <trkpt lat="43.96475" lon="1.82115">
        <ele>264.79998779297</ele>
        <time>2020-08-13T19:00:42.000Z</time>
      </trkpt>
      <trkpt lat="43.96475" lon="1.82115">
        <ele>264.79998779297</ele>
        <time>2020-08-13T19:00:43.000Z</time>
      </trkpt>
      <trkpt lat="43.96475" lon="1.82115">
        <ele>264.79998779297</ele>
        <time>2020-08-13T19:00:44.000Z</time>
      </trkpt>
      <trkpt lat="43.96475" lon="1.82115">
        <ele>264.79998779297</ele>
        <time>2020-08-13T19:00:45.000Z</time>
      </trkpt>
      <trkpt lat="43.96475" lon="1.82115">
        <ele>264.79998779297</ele>
        <time>2020-08-13T19:00:46.000Z</time>
      </trkpt>
      <trkpt lat="43.96475" lon="1.82115">
        <ele>264.79998779297</ele>
        <time>2020-08-13T19:00:47.000Z</time>
      </trkpt>
      <trkpt lat="43.96475" lon="1.82115">
        <ele>264.79998779297</ele>
        <time>2020-08-13T19:00:48.000Z</time>
      </trkpt>
      <trkpt lat="43.96475" lon="1.82115">
        <ele>264.79998779297</ele>
        <time>2020-08-13T19:00:49.000Z</time>
      </trkpt>
      <trkpt lat="43.96475" lon="1.82115">
        <ele>264.79998779297</ele>
        <time>2020-08-13T19:00:50.000Z</time>
      </trkpt>
      <trkpt lat="43.96475" lon="1.82115">
        <ele>264.79998779297</ele>
        <time>2020-08-13T19:00:51.000Z</time>
      </trkpt>
      <trkpt lat="43.96475" lon="1.82115">
        <ele>264.79998779297</ele>
        <time>2020-08-13T19:00:52.000Z</time>
      </trkpt>
      <trkpt lat="43.96475" lon="1.82115">
        <ele>264.79998779297</ele>
        <time>2020-08-13T19:00:53.000Z</time>
      </trkpt>
      <trkpt lat="43.96475" lon="1.82115">
        <ele>264.79998779297</ele>
        <time>2020-08-13T19:00:54.000Z</time>
      </trkpt>
      <trkpt lat="43.96475" lon="1.82115">
        <ele>264.79998779297</ele>
        <time>2020-08-13T19:00:55.000Z</time>
      </trkpt>
      <trkpt lat="43.96475" lon="1.82115">
        <ele>264.79998779297</ele>
        <time>2020-08-13T19:00:56.000Z</time>
      </trkpt>
      <trkpt lat="43.96475" lon="1.82115">
        <ele>264.79998779297</ele>
        <time>2020-08-13T19:00:57.000Z</time>
      </trkpt>
      <trkpt lat="43.96475" lon="1.82115">
        <ele>264.60000610352</ele>
        <time>2020-08-13T19:00:58.000Z</time>
      </trkpt>
      <trkpt lat="43.96475" lon="1.82115">
        <ele>264.60000610352</ele>
        <time>2020-08-13T19:00:59.000Z</time>
      </trkpt>
      <trkpt lat="43.96475" lon="1.82115">
        <ele>264.60000610352</ele>
        <time>2020-08-13T19:01:00.000Z</time>
      </trkpt>
      <trkpt lat="43.96475" lon="1.82115">
        <ele>264.79998779297</ele>
        <time>2020-08-13T19:01:01.000Z</time>
      </trkpt>
      <trkpt lat="43.96475" lon="1.82115">
        <ele>264.79998779297</ele>
        <time>2020-08-13T19:01:02.000Z</time>
      </trkpt>
      <trkpt lat="43.96475" lon="1.82115">
        <ele>264.60000610352</ele>
        <time>2020-08-13T19:01:03.000Z</time>
      </trkpt>
      <trkpt lat="43.96475" lon="1.82115">
        <ele>264.60000610352</ele>
        <time>2020-08-13T19:01:04.000Z</time>
      </trkpt>
      <trkpt lat="43.96475" lon="1.82115">
        <ele>264.60000610352</ele>
        <time>2020-08-13T19:01:05.000Z</time>
      </trkpt>
      <trkpt lat="43.96475" lon="1.82115">
        <ele>264.60000610352</ele>
        <time>2020-08-13T19:01:06.000Z</time>
      </trkpt>
      <trkpt lat="43.96475" lon="1.82115">
        <ele>264.60000610352</ele>
        <time>2020-08-13T19:01:07.000Z</time>
      </trkpt>
      <trkpt lat="43.96475" lon="1.82115">
        <ele>264.79998779297</ele>
        <time>2020-08-13T19:01:08.000Z</time>
      </trkpt>
      <trkpt lat="43.96475" lon="1.82115">
        <ele>264.79998779297</ele>
        <time>2020-08-13T19:01:09.000Z</time>
      </trkpt>
      <trkpt lat="43.96475" lon="1.82115">
        <ele>264.79998779297</ele>
        <time>2020-08-13T19:01:10.000Z</time>
      </trkpt>
      <trkpt lat="43.96475" lon="1.82115">
        <ele>264.60000610352</ele>
        <time>2020-08-13T19:01:11.000Z</time>
      </trkpt>
      <trkpt lat="43.96475" lon="1.82115">
        <ele>264.79998779297</ele>
        <time>2020-08-13T19:01:12.000Z</time>
      </trkpt>
      <trkpt lat="43.96475" lon="1.82115">
        <ele>264.79998779297</ele>
        <time>2020-08-13T19:01:13.000Z</time>
      </trkpt>
      <trkpt lat="43.96475" lon="1.82115">
        <ele>264.79998779297</ele>
        <time>2020-08-13T19:01:14.000Z</time>
      </trkpt>
      <trkpt lat="43.96475" lon="1.82115">
        <ele>264.60000610352</ele>
        <time>2020-08-13T19:01:15.000Z</time>
      </trkpt>
      <trkpt lat="43.96475" lon="1.82115">
        <ele>264.60000610352</ele>
        <time>2020-08-13T19:01:16.000Z</time>
      </trkpt>
      <trkpt lat="43.96475" lon="1.82115">
        <ele>264.60000610352</ele>
        <time>2020-08-13T19:01:17.000Z</time>
      </trkpt>
      <trkpt lat="43.96475" lon="1.82115">
        <ele>264.79998779297</ele>
        <time>2020-08-13T19:01:18.000Z</time>
      </trkpt>
      <trkpt lat="43.96475" lon="1.82115">
        <ele>264.79998779297</ele>
        <time>2020-08-13T19:01:19.000Z</time>
      </trkpt>
      <trkpt lat="43.96475" lon="1.82115">
        <ele>264.79998779297</ele>
        <time>2020-08-13T19:01:20.000Z</time>
      </trkpt>
      <trkpt lat="43.96475" lon="1.82115">
        <ele>264.79998779297</ele>
        <time>2020-08-13T19:01:21.000Z</time>
      </trkpt>
      <trkpt lat="43.96475" lon="1.82115">
        <ele>264.79998779297</ele>
        <time>2020-08-13T19:01:22.000Z</time>
      </trkpt>
      <trkpt lat="43.96475" lon="1.82115">
        <ele>264.79998779297</ele>
        <time>2020-08-13T19:01:23.000Z</time>
      </trkpt>
      <trkpt lat="43.96475" lon="1.82115">
        <ele>264.79998779297</ele>
        <time>2020-08-13T19:01:24.000Z</time>
      </trkpt>
      <trkpt lat="43.96475" lon="1.82115">
        <ele>264.60000610352</ele>
        <time>2020-08-13T19:01:25.000Z</time>
      </trkpt>
      <trkpt lat="43.96475" lon="1.82115">
        <ele>264.60000610352</ele>
        <time>2020-08-13T19:01:26.000Z</time>
      </trkpt>
      <trkpt lat="43.96475" lon="1.82115">
        <ele>264.60000610352</ele>
        <time>2020-08-13T19:01:27.000Z</time>
      </trkpt>
      <trkpt lat="43.96475" lon="1.82115">
        <ele>264.60000610352</ele>
        <time>2020-08-13T19:01:28.000Z</time>
      </trkpt>
      <trkpt lat="43.96475" lon="1.82115">
        <ele>264.79998779297</ele>
        <time>2020-08-13T19:01:29.000Z</time>
      </trkpt>
      <trkpt lat="43.96475" lon="1.82115">
        <ele>264.79998779297</ele>
        <time>2020-08-13T19:01:30.000Z</time>
      </trkpt>
      <trkpt lat="43.96475" lon="1.82115">
        <ele>264.60000610352</ele>
        <time>2020-08-13T19:01:31.000Z</time>
      </trkpt>
      <trkpt lat="43.96475" lon="1.82115">
        <ele>264.60000610352</ele>
        <time>2020-08-13T19:01:32.000Z</time>
      </trkpt>
      <trkpt lat="43.96475" lon="1.82115">
        <ele>264.60000610352</ele>
        <time>2020-08-13T19:01:33.000Z</time>
      </trkpt>
      <trkpt lat="43.96475" lon="1.82115">
        <ele>264.60000610352</ele>
        <time>2020-08-13T19:01:34.000Z</time>
      </trkpt>
      <trkpt lat="43.96475" lon="1.82115">
        <ele>264.60000610352</ele>
        <time>2020-08-13T19:01:35.000Z</time>
      </trkpt>
      <trkpt lat="43.96475" lon="1.82115">
        <ele>264.60000610352</ele>
        <time>2020-08-13T19:01:36.000Z</time>
      </trkpt>
      <trkpt lat="43.96475" lon="1.82115">
        <ele>264.60000610352</ele>
        <time>2020-08-13T19:01:37.000Z</time>
      </trkpt>
      <trkpt lat="43.96475" lon="1.82115">
        <ele>264.60000610352</ele>
        <time>2020-08-13T19:01:38.000Z</time>
      </trkpt>
      <trkpt lat="43.96475" lon="1.82115">
        <ele>264.60000610352</ele>
        <time>2020-08-13T19:01:39.000Z</time>
      </trkpt>
      <trkpt lat="43.96475" lon="1.82115">
        <ele>264.60000610352</ele>
        <time>2020-08-13T19:01:40.000Z</time>
      </trkpt>
      <trkpt lat="43.96475" lon="1.82115">
        <ele>264.60000610352</ele>
        <time>2020-08-13T19:01:41.000Z</time>
      </trkpt>
      <trkpt lat="43.96475" lon="1.82115">
        <ele>264.60000610352</ele>
        <time>2020-08-13T19:01:42.000Z</time>
      </trkpt>
      <trkpt lat="43.96475" lon="1.82115">
        <ele>264.60000610352</ele>
        <time>2020-08-13T19:01:43.000Z</time>
      </trkpt>
      <trkpt lat="43.96475" lon="1.82115">
        <ele>264.60000610352</ele>
        <time>2020-08-13T19:01:44.000Z</time>
      </trkpt>
      <trkpt lat="43.96475" lon="1.82115">
        <ele>264.60000610352</ele>
        <time>2020-08-13T19:01:45.000Z</time>
      </trkpt>
      <trkpt lat="43.96475" lon="1.82115">
        <ele>264.60000610352</ele>
        <time>2020-08-13T19:01:46.000Z</time>
      </trkpt>
      <trkpt lat="43.96475" lon="1.82115">
        <ele>264.60000610352</ele>
        <time>2020-08-13T19:01:47.000Z</time>
      </trkpt>
      <trkpt lat="43.96475" lon="1.82115">
        <ele>264.60000610352</ele>
        <time>2020-08-13T19:01:48.000Z</time>
      </trkpt>
      <trkpt lat="43.96475" lon="1.82115">
        <ele>264.60000610352</ele>
        <time>2020-08-13T19:01:49.000Z</time>
      </trkpt>
      <trkpt lat="43.96475" lon="1.82115">
        <ele>264.60000610352</ele>
        <time>2020-08-13T19:01:50.000Z</time>
      </trkpt>
      <trkpt lat="43.96475" lon="1.82115">
        <ele>264.60000610352</ele>
        <time>2020-08-13T19:01:51.000Z</time>
      </trkpt>
      <trkpt lat="43.96475" lon="1.82115">
        <ele>264.60000610352</ele>
        <time>2020-08-13T19:01:52.000Z</time>
      </trkpt>
      <trkpt lat="43.96475" lon="1.82115">
        <ele>264.60000610352</ele>
        <time>2020-08-13T19:01:53.000Z</time>
      </trkpt>
      <trkpt lat="43.96475" lon="1.82115">
        <ele>264.60000610352</ele>
        <time>2020-08-13T19:01:54.000Z</time>
      </trkpt>
      <trkpt lat="43.96475" lon="1.82115">
        <ele>264.60000610352</ele>
        <time>2020-08-13T19:01:55.000Z</time>
      </trkpt>
      <trkpt lat="43.96475" lon="1.82115">
        <ele>264.60000610352</ele>
        <time>2020-08-13T19:01:56.000Z</time>
      </trkpt>
      <trkpt lat="43.96474" lon="1.82116">
        <ele>264.60000610352</ele>
        <time>2020-08-13T19:01:57.000Z</time>
      </trkpt>
      <trkpt lat="43.96473" lon="1.82119">
        <ele>264.39999389648</ele>
        <time>2020-08-13T19:01:58.000Z</time>
      </trkpt>
      <trkpt lat="43.96473" lon="1.82121">
        <ele>264.39999389648</ele>
        <time>2020-08-13T19:01:59.000Z</time>
      </trkpt>
      <trkpt lat="43.96472" lon="1.82124">
        <ele>264.39999389648</ele>
        <time>2020-08-13T19:02:00.000Z</time>
      </trkpt>
      <trkpt lat="43.96472" lon="1.82126">
        <ele>264.39999389648</ele>
        <time>2020-08-13T19:02:01.000Z</time>
      </trkpt>
      <trkpt lat="43.96471" lon="1.82128">
        <ele>264.20001220703</ele>
        <time>2020-08-13T19:02:02.000Z</time>
      </trkpt>
      <trkpt lat="43.9647" lon="1.82131">
        <ele>264</ele>
        <time>2020-08-13T19:02:03.000Z</time>
      </trkpt>
      <trkpt lat="43.96468" lon="1.82133">
        <ele>264</ele>
        <time>2020-08-13T19:02:04.000Z</time>
      </trkpt>
      <trkpt lat="43.96467" lon="1.82134">
        <ele>264</ele>
        <time>2020-08-13T19:02:05.000Z</time>
      </trkpt>
      <trkpt lat="43.96465" lon="1.82136">
        <ele>263.79998779297</ele>
        <time>2020-08-13T19:02:06.000Z</time>
      </trkpt>
      <trkpt lat="43.96463" lon="1.82137">
        <ele>263.60000610352</ele>
        <time>2020-08-13T19:02:07.000Z</time>
      </trkpt>
      <trkpt lat="43.9646" lon="1.82137">
        <ele>263.39999389648</ele>
        <time>2020-08-13T19:02:08.000Z</time>
      </trkpt>
      <trkpt lat="43.96458" lon="1.82137">
        <ele>263.39999389648</ele>
        <time>2020-08-13T19:02:09.000Z</time>
      </trkpt>
      <trkpt lat="43.96455" lon="1.82137">
        <ele>263.60000610352</ele>
        <time>2020-08-13T19:02:10.000Z</time>
      </trkpt>
      <trkpt lat="43.96453" lon="1.82137">
        <ele>263.60000610352</ele>
        <time>2020-08-13T19:02:11.000Z</time>
      </trkpt>
      <trkpt lat="43.9645" lon="1.82137">
        <ele>263.39999389648</ele>
        <time>2020-08-13T19:02:12.000Z</time>
      </trkpt>
      <trkpt lat="43.96448" lon="1.82137">
        <ele>263.39999389648</ele>
        <time>2020-08-13T19:02:13.000Z</time>
      </trkpt>
      <trkpt lat="43.96444" lon="1.82137">
        <ele>263</ele>
        <time>2020-08-13T19:02:14.000Z</time>
      </trkpt>
      <trkpt lat="43.96441" lon="1.82137">
        <ele>262.79998779297</ele>
        <time>2020-08-13T19:02:15.000Z</time>
      </trkpt>
      <trkpt lat="43.96437" lon="1.82137">
        <ele>262.39999389648</ele>
        <time>2020-08-13T19:02:16.000Z</time>
      </trkpt>
      <trkpt lat="43.96434" lon="1.82137">
        <ele>262</ele>
        <time>2020-08-13T19:02:17.000Z</time>
      </trkpt>
      <trkpt lat="43.9643" lon="1.82137">
        <ele>261.39999389648</ele>
        <time>2020-08-13T19:02:18.000Z</time>
      </trkpt>
      <trkpt lat="43.96426" lon="1.82138">
        <ele>260.79998779297</ele>
        <time>2020-08-13T19:02:19.000Z</time>
      </trkpt>
      <trkpt lat="43.96422" lon="1.82138">
        <ele>259.60000610352</ele>
        <time>2020-08-13T19:02:20.000Z</time>
      </trkpt>
      <trkpt lat="43.96417" lon="1.82138">
        <ele>258.79998779297</ele>
        <time>2020-08-13T19:02:21.000Z</time>
      </trkpt>
      <trkpt lat="43.96413" lon="1.82138">
        <ele>258.20001220703</ele>
        <time>2020-08-13T19:02:22.000Z</time>
      </trkpt>
      <trkpt lat="43.96409" lon="1.82137">
        <ele>257.39999389648</ele>
        <time>2020-08-13T19:02:23.000Z</time>
      </trkpt>
      <trkpt lat="43.96405" lon="1.82134">
        <ele>256.79998779297</ele>
        <time>2020-08-13T19:02:24.000Z</time>
      </trkpt>
      <trkpt lat="43.96401" lon="1.82131">
        <ele>256</ele>
        <time>2020-08-13T19:02:25.000Z</time>
      </trkpt>
      <trkpt lat="43.96397" lon="1.82129">
        <ele>255.60000610352</ele>
        <time>2020-08-13T19:02:26.000Z</time>
      </trkpt>
      <trkpt lat="43.96393" lon="1.82127">
        <ele>254.80000305176</ele>
        <time>2020-08-13T19:02:27.000Z</time>
      </trkpt>
      <trkpt lat="43.96388" lon="1.82124">
        <ele>254</ele>
        <time>2020-08-13T19:02:28.000Z</time>
      </trkpt>
      <trkpt lat="43.96383" lon="1.82122">
        <ele>253.19999694824</ele>
        <time>2020-08-13T19:02:29.000Z</time>
      </trkpt>
      <trkpt lat="43.96377" lon="1.82119">
        <ele>252.19999694824</ele>
        <time>2020-08-13T19:02:30.000Z</time>
      </trkpt>
      <trkpt lat="43.96372" lon="1.82117">
        <ele>251.39999389648</ele>
        <time>2020-08-13T19:02:31.000Z</time>
      </trkpt>
      <trkpt lat="43.96367" lon="1.82115">
        <ele>250.60000610352</ele>
        <time>2020-08-13T19:02:32.000Z</time>
      </trkpt>
      <trkpt lat="43.96362" lon="1.82114">
        <ele>249.80000305176</ele>
        <time>2020-08-13T19:02:33.000Z</time>
      </trkpt>
      <trkpt lat="43.96357" lon="1.82112">
        <ele>249</ele>
        <time>2020-08-13T19:02:34.000Z</time>
      </trkpt>
      <trkpt lat="43.96351" lon="1.82111">
        <ele>248.19999694824</ele>
        <time>2020-08-13T19:02:35.000Z</time>
      </trkpt>
      <trkpt lat="43.96346" lon="1.8211">
        <ele>247.39999389648</ele>
        <time>2020-08-13T19:02:36.000Z</time>
      </trkpt>
      <trkpt lat="43.96341" lon="1.82109">
        <ele>246.80000305176</ele>
        <time>2020-08-13T19:02:37.000Z</time>
      </trkpt>
      <trkpt lat="43.96337" lon="1.82107">
        <ele>246.19999694824</ele>
        <time>2020-08-13T19:02:38.000Z</time>
      </trkpt>
      <trkpt lat="43.96332" lon="1.82105">
        <ele>245.39999389648</ele>
        <time>2020-08-13T19:02:39.000Z</time>
      </trkpt>
      <trkpt lat="43.96328" lon="1.82106">
        <ele>244.39999389648</ele>
        <time>2020-08-13T19:02:40.000Z</time>
      </trkpt>
      <trkpt lat="43.96323" lon="1.82107">
        <ele>243.60000610352</ele>
        <time>2020-08-13T19:02:41.000Z</time>
      </trkpt>
      <trkpt lat="43.96318" lon="1.82109">
        <ele>242.60000610352</ele>
        <time>2020-08-13T19:02:42.000Z</time>
      </trkpt>
      <trkpt lat="43.96313" lon="1.82113">
        <ele>241.60000610352</ele>
        <time>2020-08-13T19:02:43.000Z</time>
      </trkpt>
      <trkpt lat="43.96308" lon="1.82117">
        <ele>239.80000305176</ele>
        <time>2020-08-13T19:02:44.000Z</time>
      </trkpt>
      <trkpt lat="43.96304" lon="1.82121">
        <ele>239</ele>
        <time>2020-08-13T19:02:45.000Z</time>
      </trkpt>
      <trkpt lat="43.963" lon="1.82126">
        <ele>238.19999694824</ele>
        <time>2020-08-13T19:02:46.000Z</time>
      </trkpt>
      <trkpt lat="43.96297" lon="1.82131">
        <ele>237.60000610352</ele>
        <time>2020-08-13T19:02:47.000Z</time>
      </trkpt>
      <trkpt lat="43.96293" lon="1.82137">
        <ele>236.80000305176</ele>
        <time>2020-08-13T19:02:48.000Z</time>
      </trkpt>
      <trkpt lat="43.96289" lon="1.82142">
        <ele>236</ele>
        <time>2020-08-13T19:02:49.000Z</time>
      </trkpt>
      <trkpt lat="43.96285" lon="1.82148">
        <ele>235</ele>
        <time>2020-08-13T19:02:50.000Z</time>
      </trkpt>
      <trkpt lat="43.9628" lon="1.82153">
        <ele>234.19999694824</ele>
        <time>2020-08-13T19:02:51.000Z</time>
      </trkpt>
      <trkpt lat="43.96275" lon="1.82157">
        <ele>233.19999694824</ele>
        <time>2020-08-13T19:02:52.000Z</time>
      </trkpt>
      <trkpt lat="43.9627" lon="1.82161">
        <ele>232.39999389648</ele>
        <time>2020-08-13T19:02:53.000Z</time>
      </trkpt>
      <trkpt lat="43.96265" lon="1.82165">
        <ele>231.39999389648</ele>
        <time>2020-08-13T19:02:54.000Z</time>
      </trkpt>
      <trkpt lat="43.96259" lon="1.82168">
        <ele>230.60000610352</ele>
        <time>2020-08-13T19:02:55.000Z</time>
      </trkpt>
      <trkpt lat="43.96254" lon="1.82171">
        <ele>229.80000305176</ele>
        <time>2020-08-13T19:02:56.000Z</time>
      </trkpt>
      <trkpt lat="43.96249" lon="1.82172">
        <ele>229.19999694824</ele>
        <time>2020-08-13T19:02:57.000Z</time>
      </trkpt>
      <trkpt lat="43.96243" lon="1.82173">
        <ele>228.60000610352</ele>
        <time>2020-08-13T19:02:58.000Z</time>
      </trkpt>
      <trkpt lat="43.96237" lon="1.82173">
        <ele>228</ele>
        <time>2020-08-13T19:02:59.000Z</time>
      </trkpt>
      <trkpt lat="43.96232" lon="1.82171">
        <ele>227.39999389648</ele>
        <time>2020-08-13T19:03:00.000Z</time>
      </trkpt>
      <trkpt lat="43.96226" lon="1.82168">
        <ele>226.80000305176</ele>
        <time>2020-08-13T19:03:01.000Z</time>
      </trkpt>
      <trkpt lat="43.9622" lon="1.82165">
        <ele>226.19999694824</ele>
        <time>2020-08-13T19:03:02.000Z</time>
      </trkpt>
      <trkpt lat="43.96214" lon="1.82162">
        <ele>225.60000610352</ele>
        <time>2020-08-13T19:03:03.000Z</time>
      </trkpt>
      <trkpt lat="43.96208" lon="1.82159">
        <ele>225.19999694824</ele>
        <time>2020-08-13T19:03:04.000Z</time>
      </trkpt>
      <trkpt lat="43.96202" lon="1.82155">
        <ele>224.60000610352</ele>
        <time>2020-08-13T19:03:05.000Z</time>
      </trkpt>
      <trkpt lat="43.96197" lon="1.82152">
        <ele>224.19999694824</ele>
        <time>2020-08-13T19:03:06.000Z</time>
      </trkpt>
      <trkpt lat="43.96191" lon="1.82148">
        <ele>223.60000610352</ele>
        <time>2020-08-13T19:03:07.000Z</time>
      </trkpt>
      <trkpt lat="43.96186" lon="1.82144">
        <ele>222.80000305176</ele>
        <time>2020-08-13T19:03:08.000Z</time>
      </trkpt>
      <trkpt lat="43.96182" lon="1.82139">
        <ele>222.60000610352</ele>
        <time>2020-08-13T19:03:09.000Z</time>
      </trkpt>
      <trkpt lat="43.96178" lon="1.82135">
        <ele>222.19999694824</ele>
        <time>2020-08-13T19:03:10.000Z</time>
      </trkpt>
      <trkpt lat="43.96173" lon="1.82132">
        <ele>222</ele>
        <time>2020-08-13T19:03:11.000Z</time>
      </trkpt>
      <trkpt lat="43.96168" lon="1.8213">
        <ele>222</ele>
        <time>2020-08-13T19:03:12.000Z</time>
      </trkpt>
      <trkpt lat="43.96163" lon="1.8213">
        <ele>221.80000305176</ele>
        <time>2020-08-13T19:03:13.000Z</time>
      </trkpt>
      <trkpt lat="43.96159" lon="1.82131">
        <ele>221.60000610352</ele>
        <time>2020-08-13T19:03:14.000Z</time>
      </trkpt>
      <trkpt lat="43.96155" lon="1.82133">
        <ele>221.60000610352</ele>
        <time>2020-08-13T19:03:15.000Z</time>
      </trkpt>
      <trkpt lat="43.96151" lon="1.82135">
        <ele>221.60000610352</ele>
        <time>2020-08-13T19:03:16.000Z</time>
      </trkpt>
      <trkpt lat="43.96147" lon="1.82137">
        <ele>221.80000305176</ele>
        <time>2020-08-13T19:03:17.000Z</time>
      </trkpt>
      <trkpt lat="43.96143" lon="1.82139">
        <ele>221.80000305176</ele>
        <time>2020-08-13T19:03:18.000Z</time>
      </trkpt>
      <trkpt lat="43.96139" lon="1.82141">
        <ele>221.80000305176</ele>
        <time>2020-08-13T19:03:19.000Z</time>
      </trkpt>
      <trkpt lat="43.96135" lon="1.82142">
        <ele>221.80000305176</ele>
        <time>2020-08-13T19:03:20.000Z</time>
      </trkpt>
      <trkpt lat="43.96131" lon="1.82144">
        <ele>222</ele>
        <time>2020-08-13T19:03:21.000Z</time>
      </trkpt>
      <trkpt lat="43.96127" lon="1.82146">
        <ele>222</ele>
        <time>2020-08-13T19:03:22.000Z</time>
      </trkpt>
      <trkpt lat="43.96123" lon="1.82148">
        <ele>222.19999694824</ele>
        <time>2020-08-13T19:03:23.000Z</time>
      </trkpt>
      <trkpt lat="43.96119" lon="1.8215">
        <ele>222.19999694824</ele>
        <time>2020-08-13T19:03:24.000Z</time>
      </trkpt>
      <trkpt lat="43.96115" lon="1.82152">
        <ele>222.39999389648</ele>
        <time>2020-08-13T19:03:25.000Z</time>
      </trkpt>
      <trkpt lat="43.96111" lon="1.82154">
        <ele>222.39999389648</ele>
        <time>2020-08-13T19:03:26.000Z</time>
      </trkpt>
      <trkpt lat="43.96107" lon="1.82156">
        <ele>222.60000610352</ele>
        <time>2020-08-13T19:03:27.000Z</time>
      </trkpt>
      <trkpt lat="43.96103" lon="1.82158">
        <ele>222.60000610352</ele>
        <time>2020-08-13T19:03:28.000Z</time>
      </trkpt>
      <trkpt lat="43.96099" lon="1.8216">
        <ele>222.80000305176</ele>
        <time>2020-08-13T19:03:29.000Z</time>
      </trkpt>
      <trkpt lat="43.96095" lon="1.82162">
        <ele>223</ele>
        <time>2020-08-13T19:03:30.000Z</time>
      </trkpt>
      <trkpt lat="43.96091" lon="1.82164">
        <ele>223</ele>
        <time>2020-08-13T19:03:31.000Z</time>
      </trkpt>
      <trkpt lat="43.96087" lon="1.82166">
        <ele>223.19999694824</ele>
        <time>2020-08-13T19:03:32.000Z</time>
      </trkpt>
      <trkpt lat="43.96083" lon="1.82168">
        <ele>223.39999389648</ele>
        <time>2020-08-13T19:03:33.000Z</time>
      </trkpt>
      <trkpt lat="43.96079" lon="1.8217">
        <ele>223.39999389648</ele>
        <time>2020-08-13T19:03:34.000Z</time>
      </trkpt>
      <trkpt lat="43.96075" lon="1.82172">
        <ele>223.60000610352</ele>
        <time>2020-08-13T19:03:35.000Z</time>
      </trkpt>
      <trkpt lat="43.96071" lon="1.82173">
        <ele>223.80000305176</ele>
        <time>2020-08-13T19:03:36.000Z</time>
      </trkpt>
      <trkpt lat="43.96067" lon="1.82175">
        <ele>224</ele>
        <time>2020-08-13T19:03:37.000Z</time>
      </trkpt>
      <trkpt lat="43.96064" lon="1.82177">
        <ele>224.39999389648</ele>
        <time>2020-08-13T19:03:38.000Z</time>
      </trkpt>
      <trkpt lat="43.9606" lon="1.82178">
        <ele>224.60000610352</ele>
        <time>2020-08-13T19:03:39.000Z</time>
      </trkpt>
      <trkpt lat="43.96057" lon="1.82179">
        <ele>224.80000305176</ele>
        <time>2020-08-13T19:03:40.000Z</time>
      </trkpt>
      <trkpt lat="43.96053" lon="1.8218">
        <ele>225</ele>
        <time>2020-08-13T19:03:41.000Z</time>
      </trkpt>
      <trkpt lat="43.9605" lon="1.82181">
        <ele>225.19999694824</ele>
        <time>2020-08-13T19:03:42.000Z</time>
      </trkpt>
      <trkpt lat="43.96047" lon="1.82182">
        <ele>225.60000610352</ele>
        <time>2020-08-13T19:03:43.000Z</time>
      </trkpt>
      <trkpt lat="43.96043" lon="1.82183">
        <ele>225.80000305176</ele>
        <time>2020-08-13T19:03:44.000Z</time>
      </trkpt>
      <trkpt lat="43.9604" lon="1.82183">
        <ele>226</ele>
        <time>2020-08-13T19:03:45.000Z</time>
      </trkpt>
      <trkpt lat="43.96037" lon="1.82184">
        <ele>226</ele>
        <time>2020-08-13T19:03:46.000Z</time>
      </trkpt>
      <trkpt lat="43.96034" lon="1.82184">
        <ele>226.19999694824</ele>
        <time>2020-08-13T19:03:47.000Z</time>
      </trkpt>
      <trkpt lat="43.96031" lon="1.82184">
        <ele>226.39999389648</ele>
        <time>2020-08-13T19:03:48.000Z</time>
      </trkpt>
      <trkpt lat="43.96028" lon="1.82183">
        <ele>226.60000610352</ele>
        <time>2020-08-13T19:03:49.000Z</time>
      </trkpt>
      <trkpt lat="43.96024" lon="1.82182">
        <ele>226.80000305176</ele>
        <time>2020-08-13T19:03:50.000Z</time>
      </trkpt>
      <trkpt lat="43.9602" lon="1.8218">
        <ele>226.80000305176</ele>
        <time>2020-08-13T19:03:51.000Z</time>
      </trkpt>
      <trkpt lat="43.96016" lon="1.82177">
        <ele>226.60000610352</ele>
        <time>2020-08-13T19:03:52.000Z</time>
      </trkpt>
      <trkpt lat="43.9601" lon="1.82172">
        <ele>226.39999389648</ele>
        <time>2020-08-13T19:03:53.000Z</time>
      </trkpt>
      <trkpt lat="43.96004" lon="1.82167">
        <ele>225.80000305176</ele>
        <time>2020-08-13T19:03:54.000Z</time>
      </trkpt>
      <trkpt lat="43.95997" lon="1.8216">
        <ele>225</ele>
        <time>2020-08-13T19:03:55.000Z</time>
      </trkpt>
      <trkpt lat="43.9599" lon="1.82153">
        <ele>222.80000305176</ele>
        <time>2020-08-13T19:03:56.000Z</time>
      </trkpt>
      <trkpt lat="43.95982" lon="1.82145">
        <ele>221.39999389648</ele>
        <time>2020-08-13T19:03:57.000Z</time>
      </trkpt>
      <trkpt lat="43.95972" lon="1.82138">
        <ele>220</ele>
        <time>2020-08-13T19:03:58.000Z</time>
      </trkpt>
      <trkpt lat="43.95962" lon="1.82131">
        <ele>218.60000610352</ele>
        <time>2020-08-13T19:03:59.000Z</time>
      </trkpt>
      <trkpt lat="43.95952" lon="1.82125">
        <ele>217.60000610352</ele>
        <time>2020-08-13T19:04:00.000Z</time>
      </trkpt>
      <trkpt lat="43.95941" lon="1.82118">
        <ele>216.60000610352</ele>
        <time>2020-08-13T19:04:01.000Z</time>
      </trkpt>
      <trkpt lat="43.95931" lon="1.82112">
        <ele>215.80000305176</ele>
        <time>2020-08-13T19:04:02.000Z</time>
      </trkpt>
      <trkpt lat="43.95922" lon="1.82105">
        <ele>215.19999694824</ele>
        <time>2020-08-13T19:04:03.000Z</time>
      </trkpt>
      <trkpt lat="43.95912" lon="1.82099">
        <ele>215</ele>
        <time>2020-08-13T19:04:04.000Z</time>
      </trkpt>
      <trkpt lat="43.95904" lon="1.82092">
        <ele>214.80000305176</ele>
        <time>2020-08-13T19:04:05.000Z</time>
      </trkpt>
      <trkpt lat="43.95899" lon="1.82083">
        <ele>215.19999694824</ele>
        <time>2020-08-13T19:04:06.000Z</time>
      </trkpt>
      <trkpt lat="43.95894" lon="1.82074">
        <ele>215.60000610352</ele>
        <time>2020-08-13T19:04:07.000Z</time>
      </trkpt>
      <trkpt lat="43.95893" lon="1.82067">
        <ele>216.39999389648</ele>
        <time>2020-08-13T19:04:08.000Z</time>
      </trkpt>
      <trkpt lat="43.95892" lon="1.8206">
        <ele>217</ele>
        <time>2020-08-13T19:04:09.000Z</time>
      </trkpt>
      <trkpt lat="43.95891" lon="1.82055">
        <ele>217.39999389648</ele>
        <time>2020-08-13T19:04:10.000Z</time>
      </trkpt>
      <trkpt lat="43.9589" lon="1.82051">
        <ele>217.80000305176</ele>
        <time>2020-08-13T19:04:11.000Z</time>
      </trkpt>
      <trkpt lat="43.95889" lon="1.82048">
        <ele>218.19999694824</ele>
        <time>2020-08-13T19:04:12.000Z</time>
      </trkpt>
      <trkpt lat="43.95887" lon="1.82046">
        <ele>218.39999389648</ele>
        <time>2020-08-13T19:04:13.000Z</time>
      </trkpt>
      <trkpt lat="43.95885" lon="1.82044">
        <ele>218.80000305176</ele>
        <time>2020-08-13T19:04:14.000Z</time>
      </trkpt>
      <trkpt lat="43.95883" lon="1.82043">
        <ele>219</ele>
        <time>2020-08-13T19:04:15.000Z</time>
      </trkpt>
      <trkpt lat="43.95881" lon="1.82042">
        <ele>219.19999694824</ele>
        <time>2020-08-13T19:04:16.000Z</time>
      </trkpt>
      <trkpt lat="43.95878" lon="1.82042">
        <ele>219.60000610352</ele>
        <time>2020-08-13T19:04:17.000Z</time>
      </trkpt>
      <trkpt lat="43.95876" lon="1.82042">
        <ele>220</ele>
        <time>2020-08-13T19:04:18.000Z</time>
      </trkpt>
      <trkpt lat="43.95875" lon="1.82043">
        <ele>220.39999389648</ele>
        <time>2020-08-13T19:04:19.000Z</time>
      </trkpt>
      <trkpt lat="43.95873" lon="1.82044">
        <ele>221.19999694824</ele>
        <time>2020-08-13T19:04:20.000Z</time>
      </trkpt>
      <trkpt lat="43.95871" lon="1.82045">
        <ele>221.39999389648</ele>
        <time>2020-08-13T19:04:21.000Z</time>
      </trkpt>
      <trkpt lat="43.95869" lon="1.82046">
        <ele>221.80000305176</ele>
        <time>2020-08-13T19:04:22.000Z</time>
      </trkpt>
      <trkpt lat="43.95867" lon="1.82047">
        <ele>221.80000305176</ele>
        <time>2020-08-13T19:04:23.000Z</time>
      </trkpt>
      <trkpt lat="43.95865" lon="1.82048">
        <ele>222</ele>
        <time>2020-08-13T19:04:24.000Z</time>
      </trkpt>
      <trkpt lat="43.95863" lon="1.82048">
        <ele>222.39999389648</ele>
        <time>2020-08-13T19:04:25.000Z</time>
      </trkpt>
      <trkpt lat="43.95861" lon="1.82048">
        <ele>222.80000305176</ele>
        <time>2020-08-13T19:04:26.000Z</time>
      </trkpt>
      <trkpt lat="43.95859" lon="1.82048">
        <ele>223</ele>
        <time>2020-08-13T19:04:27.000Z</time>
      </trkpt>
      <trkpt lat="43.95857" lon="1.82047">
        <ele>223.19999694824</ele>
        <time>2020-08-13T19:04:28.000Z</time>
      </trkpt>
      <trkpt lat="43.95855" lon="1.82046">
        <ele>223.39999389648</ele>
        <time>2020-08-13T19:04:29.000Z</time>
      </trkpt>
      <trkpt lat="43.95854" lon="1.82044">
        <ele>223.80000305176</ele>
        <time>2020-08-13T19:04:30.000Z</time>
      </trkpt>
      <trkpt lat="43.95852" lon="1.82041">
        <ele>224</ele>
        <time>2020-08-13T19:04:31.000Z</time>
      </trkpt>
      <trkpt lat="43.95851" lon="1.82038">
        <ele>224.39999389648</ele>
        <time>2020-08-13T19:04:32.000Z</time>
      </trkpt>
      <trkpt lat="43.9585" lon="1.82035">
        <ele>224.60000610352</ele>
        <time>2020-08-13T19:04:33.000Z</time>
      </trkpt>
      <trkpt lat="43.95849" lon="1.82031">
        <ele>225</ele>
        <time>2020-08-13T19:04:34.000Z</time>
      </trkpt>
      <trkpt lat="43.95848" lon="1.82027">
        <ele>225.39999389648</ele>
        <time>2020-08-13T19:04:35.000Z</time>
      </trkpt>
      <trkpt lat="43.95847" lon="1.82023">
        <ele>225.60000610352</ele>
        <time>2020-08-13T19:04:36.000Z</time>
      </trkpt>
      <trkpt lat="43.95846" lon="1.82019">
        <ele>226</ele>
        <time>2020-08-13T19:04:37.000Z</time>
      </trkpt>
      <trkpt lat="43.95845" lon="1.82015">
        <ele>226.39999389648</ele>
        <time>2020-08-13T19:04:38.000Z</time>
      </trkpt>
      <trkpt lat="43.95844" lon="1.82012">
        <ele>226.80000305176</ele>
        <time>2020-08-13T19:04:39.000Z</time>
      </trkpt>
      <trkpt lat="43.95842" lon="1.82008">
        <ele>227.19999694824</ele>
        <time>2020-08-13T19:04:40.000Z</time>
      </trkpt>
      <trkpt lat="43.9584" lon="1.82003">
        <ele>227.60000610352</ele>
        <time>2020-08-13T19:04:41.000Z</time>
      </trkpt>
      <trkpt lat="43.95838" lon="1.82">
        <ele>228</ele>
        <time>2020-08-13T19:04:42.000Z</time>
      </trkpt>
      <trkpt lat="43.95836" lon="1.81996">
        <ele>228.39999389648</ele>
        <time>2020-08-13T19:04:43.000Z</time>
      </trkpt>
      <trkpt lat="43.95834" lon="1.81993">
        <ele>229.19999694824</ele>
        <time>2020-08-13T19:04:44.000Z</time>
      </trkpt>
      <trkpt lat="43.95831" lon="1.8199">
        <ele>229.39999389648</ele>
        <time>2020-08-13T19:04:45.000Z</time>
      </trkpt>
      <trkpt lat="43.95828" lon="1.81988">
        <ele>229.80000305176</ele>
        <time>2020-08-13T19:04:46.000Z</time>
      </trkpt>
      <trkpt lat="43.95825" lon="1.81986">
        <ele>230</ele>
        <time>2020-08-13T19:04:47.000Z</time>
      </trkpt>
      <trkpt lat="43.95822" lon="1.81985">
        <ele>230.39999389648</ele>
        <time>2020-08-13T19:04:48.000Z</time>
      </trkpt>
      <trkpt lat="43.95819" lon="1.81983">
        <ele>230.80000305176</ele>
        <time>2020-08-13T19:04:49.000Z</time>
      </trkpt>
      <trkpt lat="43.95816" lon="1.81981">
        <ele>231</ele>
        <time>2020-08-13T19:04:50.000Z</time>
      </trkpt>
      <trkpt lat="43.95814" lon="1.81979">
        <ele>231.19999694824</ele>
        <time>2020-08-13T19:04:51.000Z</time>
      </trkpt>
      <trkpt lat="43.95811" lon="1.81977">
        <ele>231.39999389648</ele>
        <time>2020-08-13T19:04:52.000Z</time>
      </trkpt>
      <trkpt lat="43.95808" lon="1.81975">
        <ele>231.60000610352</ele>
        <time>2020-08-13T19:04:53.000Z</time>
      </trkpt>
      <trkpt lat="43.95805" lon="1.81972">
        <ele>231.80000305176</ele>
        <time>2020-08-13T19:04:54.000Z</time>
      </trkpt>
      <trkpt lat="43.95802" lon="1.8197">
        <ele>232</ele>
        <time>2020-08-13T19:04:55.000Z</time>
      </trkpt>
      <trkpt lat="43.95799" lon="1.81969">
        <ele>232.19999694824</ele>
        <time>2020-08-13T19:04:56.000Z</time>
      </trkpt>
      <trkpt lat="43.95796" lon="1.81968">
        <ele>232.39999389648</ele>
        <time>2020-08-13T19:04:57.000Z</time>
      </trkpt>
      <trkpt lat="43.95793" lon="1.81967">
        <ele>232.60000610352</ele>
        <time>2020-08-13T19:04:58.000Z</time>
      </trkpt>
      <trkpt lat="43.9579" lon="1.81966">
        <ele>232.80000305176</ele>
        <time>2020-08-13T19:04:59.000Z</time>
      </trkpt>
      <trkpt lat="43.95787" lon="1.81966">
        <ele>233.19999694824</ele>
        <time>2020-08-13T19:05:00.000Z</time>
      </trkpt>
      <trkpt lat="43.95785" lon="1.81965">
        <ele>233.39999389648</ele>
        <time>2020-08-13T19:05:01.000Z</time>
      </trkpt>
      <trkpt lat="43.95782" lon="1.81966">
        <ele>233.60000610352</ele>
        <time>2020-08-13T19:05:02.000Z</time>
      </trkpt>
      <trkpt lat="43.95779" lon="1.81966">
        <ele>234</ele>
        <time>2020-08-13T19:05:03.000Z</time>
      </trkpt>
      <trkpt lat="43.95776" lon="1.81966">
        <ele>234.19999694824</ele>
        <time>2020-08-13T19:05:04.000Z</time>
      </trkpt>
      <trkpt lat="43.95774" lon="1.81965">
        <ele>234.60000610352</ele>
        <time>2020-08-13T19:05:05.000Z</time>
      </trkpt>
      <trkpt lat="43.95771" lon="1.81965">
        <ele>234.80000305176</ele>
        <time>2020-08-13T19:05:06.000Z</time>
      </trkpt>
      <trkpt lat="43.95769" lon="1.81965">
        <ele>235</ele>
        <time>2020-08-13T19:05:07.000Z</time>
      </trkpt>
      <trkpt lat="43.95767" lon="1.81965">
        <ele>235.39999389648</ele>
        <time>2020-08-13T19:05:08.000Z</time>
      </trkpt>
      <trkpt lat="43.95764" lon="1.81965">
        <ele>235.60000610352</ele>
        <time>2020-08-13T19:05:09.000Z</time>
      </trkpt>
      <trkpt lat="43.95762" lon="1.81965">
        <ele>235.80000305176</ele>
        <time>2020-08-13T19:05:10.000Z</time>
      </trkpt>
      <trkpt lat="43.9576" lon="1.81966">
        <ele>236</ele>
        <time>2020-08-13T19:05:11.000Z</time>
      </trkpt>
      <trkpt lat="43.95758" lon="1.81965">
        <ele>236.19999694824</ele>
        <time>2020-08-13T19:05:12.000Z</time>
      </trkpt>
      <trkpt lat="43.95756" lon="1.81965">
        <ele>236.39999389648</ele>
        <time>2020-08-13T19:05:13.000Z</time>
      </trkpt>
      <trkpt lat="43.95753" lon="1.81965">
        <ele>236.39999389648</ele>
        <time>2020-08-13T19:05:14.000Z</time>
      </trkpt>
      <trkpt lat="43.95751" lon="1.81964">
        <ele>236.39999389648</ele>
        <time>2020-08-13T19:05:15.000Z</time>
      </trkpt>
      <trkpt lat="43.95749" lon="1.81964">
        <ele>236.80000305176</ele>
        <time>2020-08-13T19:05:16.000Z</time>
      </trkpt>
      <trkpt lat="43.95746" lon="1.81963">
        <ele>237</ele>
        <time>2020-08-13T19:05:17.000Z</time>
      </trkpt>
      <trkpt lat="43.95744" lon="1.81963">
        <ele>237</ele>
        <time>2020-08-13T19:05:18.000Z</time>
      </trkpt>
      <trkpt lat="43.95741" lon="1.81962">
        <ele>236.80000305176</ele>
        <time>2020-08-13T19:05:19.000Z</time>
      </trkpt>
      <trkpt lat="43.95739" lon="1.81961">
        <ele>237</ele>
        <time>2020-08-13T19:05:20.000Z</time>
      </trkpt>
      <trkpt lat="43.95737" lon="1.8196">
        <ele>237</ele>
        <time>2020-08-13T19:05:21.000Z</time>
      </trkpt>
      <trkpt lat="43.95734" lon="1.8196">
        <ele>237.19999694824</ele>
        <time>2020-08-13T19:05:22.000Z</time>
      </trkpt>
      <trkpt lat="43.95732" lon="1.81959">
        <ele>237.19999694824</ele>
        <time>2020-08-13T19:05:23.000Z</time>
      </trkpt>
      <trkpt lat="43.9573" lon="1.81958">
        <ele>237.19999694824</ele>
        <time>2020-08-13T19:05:24.000Z</time>
      </trkpt>
      <trkpt lat="43.95729" lon="1.81958">
        <ele>237.39999389648</ele>
        <time>2020-08-13T19:05:25.000Z</time>
      </trkpt>
      <trkpt lat="43.95727" lon="1.81959">
        <ele>237.39999389648</ele>
        <time>2020-08-13T19:05:26.000Z</time>
      </trkpt>
      <trkpt lat="43.95728" lon="1.81959">
        <ele>237.39999389648</ele>
        <time>2020-08-13T19:05:27.000Z</time>
      </trkpt>
      <trkpt lat="43.95727" lon="1.8196">
        <ele>237.60000610352</ele>
        <time>2020-08-13T19:05:28.000Z</time>
      </trkpt>
      <trkpt lat="43.95729" lon="1.81961">
        <ele>237.60000610352</ele>
        <time>2020-08-13T19:05:29.000Z</time>
      </trkpt>
      <trkpt lat="43.95731" lon="1.81961">
        <ele>237.80000305176</ele>
        <time>2020-08-13T19:05:30.000Z</time>
      </trkpt>
      <trkpt lat="43.95733" lon="1.81962">
        <ele>237.80000305176</ele>
        <time>2020-08-13T19:05:31.000Z</time>
      </trkpt>
      <trkpt lat="43.95736" lon="1.81963">
        <ele>237.60000610352</ele>
        <time>2020-08-13T19:05:32.000Z</time>
      </trkpt>
      <trkpt lat="43.95739" lon="1.81964">
        <ele>237.60000610352</ele>
        <time>2020-08-13T19:05:33.000Z</time>
      </trkpt>
      <trkpt lat="43.95742" lon="1.81965">
        <ele>237.39999389648</ele>
        <time>2020-08-13T19:05:34.000Z</time>
      </trkpt>
      <trkpt lat="43.95745" lon="1.81965">
        <ele>237.39999389648</ele>
        <time>2020-08-13T19:05:35.000Z</time>
      </trkpt>
      <trkpt lat="43.95747" lon="1.81966">
        <ele>237.19999694824</ele>
        <time>2020-08-13T19:05:36.000Z</time>
      </trkpt>
      <trkpt lat="43.9575" lon="1.81966">
        <ele>237.19999694824</ele>
        <time>2020-08-13T19:05:37.000Z</time>
      </trkpt>
      <trkpt lat="43.95752" lon="1.81967">
        <ele>237</ele>
        <time>2020-08-13T19:05:38.000Z</time>
      </trkpt>
      <trkpt lat="43.95753" lon="1.81967">
        <ele>236.80000305176</ele>
        <time>2020-08-13T19:05:39.000Z</time>
      </trkpt>
      <trkpt lat="43.95755" lon="1.81967">
        <ele>236.80000305176</ele>
        <time>2020-08-13T19:05:40.000Z</time>
      </trkpt>
      <trkpt lat="43.95755" lon="1.81967">
        <ele>236.80000305176</ele>
        <time>2020-08-13T19:05:41.000Z</time>
      </trkpt>
      <trkpt lat="43.95755" lon="1.81965">
        <ele>236.80000305176</ele>
        <time>2020-08-13T19:05:42.000Z</time>
      </trkpt>
      <trkpt lat="43.95754" lon="1.81964">
        <ele>236.60000610352</ele>
        <time>2020-08-13T19:05:43.000Z</time>
      </trkpt>
      <trkpt lat="43.95752" lon="1.81963">
        <ele>236.60000610352</ele>
        <time>2020-08-13T19:05:44.000Z</time>
      </trkpt>
      <trkpt lat="43.95751" lon="1.81963">
        <ele>236.60000610352</ele>
        <time>2020-08-13T19:05:45.000Z</time>
      </trkpt>
      <trkpt lat="43.95748" lon="1.81963">
        <ele>236.80000305176</ele>
        <time>2020-08-13T19:05:46.000Z</time>
      </trkpt>
      <trkpt lat="43.95746" lon="1.81962">
        <ele>236.80000305176</ele>
        <time>2020-08-13T19:05:47.000Z</time>
      </trkpt>
      <trkpt lat="43.95743" lon="1.81961">
        <ele>236.80000305176</ele>
        <time>2020-08-13T19:05:48.000Z</time>
      </trkpt>
      <trkpt lat="43.9574" lon="1.81961">
        <ele>237</ele>
        <time>2020-08-13T19:05:49.000Z</time>
      </trkpt>
      <trkpt lat="43.95738" lon="1.8196">
        <ele>237</ele>
        <time>2020-08-13T19:05:50.000Z</time>
      </trkpt>
      <trkpt lat="43.95735" lon="1.81959">
        <ele>237.19999694824</ele>
        <time>2020-08-13T19:05:51.000Z</time>
      </trkpt>
      <trkpt lat="43.95733" lon="1.81958">
        <ele>237.19999694824</ele>
        <time>2020-08-13T19:05:52.000Z</time>
      </trkpt>
      <trkpt lat="43.9573" lon="1.81958">
        <ele>237.19999694824</ele>
        <time>2020-08-13T19:05:53.000Z</time>
      </trkpt>
      <trkpt lat="43.95728" lon="1.81957">
        <ele>237.39999389648</ele>
        <time>2020-08-13T19:05:54.000Z</time>
      </trkpt>
      <trkpt lat="43.95725" lon="1.81957">
        <ele>237.60000610352</ele>
        <time>2020-08-13T19:05:55.000Z</time>
      </trkpt>
      <trkpt lat="43.95723" lon="1.81956">
        <ele>237.60000610352</ele>
        <time>2020-08-13T19:05:56.000Z</time>
      </trkpt>
      <trkpt lat="43.95721" lon="1.81955">
        <ele>237.60000610352</ele>
        <time>2020-08-13T19:05:57.000Z</time>
      </trkpt>
      <trkpt lat="43.95718" lon="1.81954">
        <ele>237.80000305176</ele>
        <time>2020-08-13T19:05:58.000Z</time>
      </trkpt>
      <trkpt lat="43.95716" lon="1.81953">
        <ele>237.80000305176</ele>
        <time>2020-08-13T19:05:59.000Z</time>
      </trkpt>
      <trkpt lat="43.95714" lon="1.81952">
        <ele>237.80000305176</ele>
        <time>2020-08-13T19:06:00.000Z</time>
      </trkpt>
      <trkpt lat="43.95712" lon="1.8195">
        <ele>237.80000305176</ele>
        <time>2020-08-13T19:06:01.000Z</time>
      </trkpt>
      <trkpt lat="43.9571" lon="1.8195">
        <ele>238</ele>
        <time>2020-08-13T19:06:02.000Z</time>
      </trkpt>
      <trkpt lat="43.95709" lon="1.81948">
        <ele>238</ele>
        <time>2020-08-13T19:06:03.000Z</time>
      </trkpt>
      <trkpt lat="43.95708" lon="1.81948">
        <ele>238</ele>
        <time>2020-08-13T19:06:04.000Z</time>
      </trkpt>
      <trkpt lat="43.95707" lon="1.81947">
        <ele>238</ele>
        <time>2020-08-13T19:06:05.000Z</time>
      </trkpt>
      <trkpt lat="43.95706" lon="1.81946">
        <ele>238</ele>
        <time>2020-08-13T19:06:06.000Z</time>
      </trkpt>
      <trkpt lat="43.95705" lon="1.81945">
        <ele>238.19999694824</ele>
        <time>2020-08-13T19:06:07.000Z</time>
      </trkpt>
      <trkpt lat="43.95704" lon="1.81944">
        <ele>238.19999694824</ele>
        <time>2020-08-13T19:06:08.000Z</time>
      </trkpt>
      <trkpt lat="43.95704" lon="1.81944">
        <ele>238.39999389648</ele>
        <time>2020-08-13T19:06:09.000Z</time>
      </trkpt>
      <trkpt lat="43.95703" lon="1.81944">
        <ele>238.19999694824</ele>
        <time>2020-08-13T19:06:10.000Z</time>
      </trkpt>
      <trkpt lat="43.95703" lon="1.81944">
        <ele>238.19999694824</ele>
        <time>2020-08-13T19:06:11.000Z</time>
      </trkpt>
      <trkpt lat="43.95703" lon="1.81944">
        <ele>238.19999694824</ele>
        <time>2020-08-13T19:06:12.000Z</time>
      </trkpt>
      <trkpt lat="43.95703" lon="1.81944">
        <ele>238.19999694824</ele>
        <time>2020-08-13T19:06:13.000Z</time>
      </trkpt>
      <trkpt lat="43.95703" lon="1.81944">
        <ele>238.19999694824</ele>
        <time>2020-08-13T19:06:14.000Z</time>
      </trkpt>
      <trkpt lat="43.95703" lon="1.81944">
        <ele>238.19999694824</ele>
        <time>2020-08-13T19:06:15.000Z</time>
      </trkpt>
      <trkpt lat="43.95703" lon="1.81944">
        <ele>238.19999694824</ele>
        <time>2020-08-13T19:06:16.000Z</time>
      </trkpt>
      <trkpt lat="43.95703" lon="1.81944">
        <ele>238.19999694824</ele>
        <time>2020-08-13T19:06:17.000Z</time>
      </trkpt>
      <trkpt lat="43.95703" lon="1.81944">
        <ele>238.19999694824</ele>
        <time>2020-08-13T19:06:18.000Z</time>
      </trkpt>
      <trkpt lat="43.95703" lon="1.81944">
        <ele>238.39999389648</ele>
        <time>2020-08-13T19:06:19.000Z</time>
      </trkpt>
      <trkpt lat="43.95703" lon="1.81944">
        <ele>238.19999694824</ele>
        <time>2020-08-13T19:06:20.000Z</time>
      </trkpt>
      <trkpt lat="43.95703" lon="1.81944">
        <ele>238.19999694824</ele>
        <time>2020-08-13T19:06:21.000Z</time>
      </trkpt>
      <trkpt lat="43.95703" lon="1.81944">
        <ele>238.19999694824</ele>
        <time>2020-08-13T19:06:22.000Z</time>
      </trkpt>
      <trkpt lat="43.95703" lon="1.81944">
        <ele>238.19999694824</ele>
        <time>2020-08-13T19:06:23.000Z</time>
      </trkpt>
      <trkpt lat="43.95703" lon="1.81944">
        <ele>238.19999694824</ele>
        <time>2020-08-13T19:06:24.000Z</time>
      </trkpt>
      <trkpt lat="43.95703" lon="1.81944">
        <ele>238.19999694824</ele>
        <time>2020-08-13T19:06:25.000Z</time>
      </trkpt>
      <trkpt lat="43.95703" lon="1.81944">
        <ele>238.19999694824</ele>
        <time>2020-08-13T19:06:26.000Z</time>
      </trkpt>
      <trkpt lat="43.95703" lon="1.81944">
        <ele>238.19999694824</ele>
        <time>2020-08-13T19:06:27.000Z</time>
      </trkpt>
      <trkpt lat="43.95703" lon="1.81944">
        <ele>238.39999389648</ele>
        <time>2020-08-13T19:06:28.000Z</time>
      </trkpt>
      <trkpt lat="43.95703" lon="1.81944">
        <ele>238.19999694824</ele>
        <time>2020-08-13T19:06:29.000Z</time>
      </trkpt>
      <trkpt lat="43.95702" lon="1.81942">
        <ele>238.39999389648</ele>
        <time>2020-08-13T19:06:30.000Z</time>
      </trkpt>
      <trkpt lat="43.95701" lon="1.81942">
        <ele>238.39999389648</ele>
        <time>2020-08-13T19:06:31.000Z</time>
      </trkpt>
      <trkpt lat="43.957" lon="1.81941">
        <ele>238.39999389648</ele>
        <time>2020-08-13T19:06:32.000Z</time>
      </trkpt>
      <trkpt lat="43.95698" lon="1.81939">
        <ele>238.39999389648</ele>
        <time>2020-08-13T19:06:33.000Z</time>
      </trkpt>
      <trkpt lat="43.95696" lon="1.81937">
        <ele>238.19999694824</ele>
        <time>2020-08-13T19:06:34.000Z</time>
      </trkpt>
      <trkpt lat="43.95693" lon="1.81935">
        <ele>238.19999694824</ele>
        <time>2020-08-13T19:06:35.000Z</time>
      </trkpt>
      <trkpt lat="43.95689" lon="1.81932">
        <ele>237.80000305176</ele>
        <time>2020-08-13T19:06:36.000Z</time>
      </trkpt>
      <trkpt lat="43.95684" lon="1.81929">
        <ele>237.39999389648</ele>
        <time>2020-08-13T19:06:37.000Z</time>
      </trkpt>
      <trkpt lat="43.95679" lon="1.81925">
        <ele>236.80000305176</ele>
        <time>2020-08-13T19:06:38.000Z</time>
      </trkpt>
      <trkpt lat="43.95673" lon="1.81921">
        <ele>236.39999389648</ele>
        <time>2020-08-13T19:06:39.000Z</time>
      </trkpt>
      <trkpt lat="43.95666" lon="1.81918">
        <ele>235.60000610352</ele>
        <time>2020-08-13T19:06:40.000Z</time>
      </trkpt>
      <trkpt lat="43.9566" lon="1.81914">
        <ele>235.19999694824</ele>
        <time>2020-08-13T19:06:41.000Z</time>
      </trkpt>
      <trkpt lat="43.95653" lon="1.81913">
        <ele>234.80000305176</ele>
        <time>2020-08-13T19:06:42.000Z</time>
      </trkpt>
      <trkpt lat="43.95646" lon="1.81913">
        <ele>234.60000610352</ele>
        <time>2020-08-13T19:06:43.000Z</time>
      </trkpt>
      <trkpt lat="43.95637" lon="1.81915">
        <ele>233</ele>
        <time>2020-08-13T19:06:44.000Z</time>
      </trkpt>
      <trkpt lat="43.95628" lon="1.81917">
        <ele>232.39999389648</ele>
        <time>2020-08-13T19:06:45.000Z</time>
      </trkpt>
      <trkpt lat="43.95619" lon="1.81921">
        <ele>231.80000305176</ele>
        <time>2020-08-13T19:06:46.000Z</time>
      </trkpt>
      <trkpt lat="43.9561" lon="1.81924">
        <ele>231.60000610352</ele>
        <time>2020-08-13T19:06:47.000Z</time>
      </trkpt>
      <trkpt lat="43.95601" lon="1.81927">
        <ele>230.80000305176</ele>
        <time>2020-08-13T19:06:48.000Z</time>
      </trkpt>
      <trkpt lat="43.95592" lon="1.81929">
        <ele>230.39999389648</ele>
        <time>2020-08-13T19:06:49.000Z</time>
      </trkpt>
      <trkpt lat="43.95583" lon="1.81928">
        <ele>230</ele>
        <time>2020-08-13T19:06:50.000Z</time>
      </trkpt>
      <trkpt lat="43.95573" lon="1.81925">
        <ele>229.19999694824</ele>
        <time>2020-08-13T19:06:51.000Z</time>
      </trkpt>
      <trkpt lat="43.95564" lon="1.81923">
        <ele>228.60000610352</ele>
        <time>2020-08-13T19:06:52.000Z</time>
      </trkpt>
      <trkpt lat="43.95556" lon="1.81921">
        <ele>227.80000305176</ele>
        <time>2020-08-13T19:06:53.000Z</time>
      </trkpt>
      <trkpt lat="43.95547" lon="1.8192">
        <ele>227.80000305176</ele>
        <time>2020-08-13T19:06:54.000Z</time>
      </trkpt>
      <trkpt lat="43.95539" lon="1.81919">
        <ele>227.80000305176</ele>
        <time>2020-08-13T19:06:55.000Z</time>
      </trkpt>
      <trkpt lat="43.95531" lon="1.81918">
        <ele>227.39999389648</ele>
        <time>2020-08-13T19:06:56.000Z</time>
      </trkpt>
      <trkpt lat="43.95523" lon="1.81918">
        <ele>227</ele>
        <time>2020-08-13T19:06:57.000Z</time>
      </trkpt>
      <trkpt lat="43.95515" lon="1.81917">
        <ele>226.80000305176</ele>
        <time>2020-08-13T19:06:58.000Z</time>
      </trkpt>
      <trkpt lat="43.95507" lon="1.81916">
        <ele>226.80000305176</ele>
        <time>2020-08-13T19:06:59.000Z</time>
      </trkpt>
      <trkpt lat="43.95499" lon="1.81913">
        <ele>226.80000305176</ele>
        <time>2020-08-13T19:07:00.000Z</time>
      </trkpt>
      <trkpt lat="43.95492" lon="1.81909">
        <ele>226.80000305176</ele>
        <time>2020-08-13T19:07:01.000Z</time>
      </trkpt>
      <trkpt lat="43.95485" lon="1.81904">
        <ele>226.19999694824</ele>
        <time>2020-08-13T19:07:02.000Z</time>
      </trkpt>
      <trkpt lat="43.95479" lon="1.81897">
        <ele>226</ele>
        <time>2020-08-13T19:07:03.000Z</time>
      </trkpt>
      <trkpt lat="43.95475" lon="1.8189">
        <ele>225.80000305176</ele>
        <time>2020-08-13T19:07:04.000Z</time>
      </trkpt>
      <trkpt lat="43.95471" lon="1.81881">
        <ele>226</ele>
        <time>2020-08-13T19:07:05.000Z</time>
      </trkpt>
      <trkpt lat="43.95469" lon="1.81873">
        <ele>225.60000610352</ele>
        <time>2020-08-13T19:07:06.000Z</time>
      </trkpt>
      <trkpt lat="43.95468" lon="1.81865">
        <ele>225.60000610352</ele>
        <time>2020-08-13T19:07:07.000Z</time>
      </trkpt>
      <trkpt lat="43.95467" lon="1.81858">
        <ele>225.60000610352</ele>
        <time>2020-08-13T19:07:08.000Z</time>
      </trkpt>
      <trkpt lat="43.95467" lon="1.81852">
        <ele>225.60000610352</ele>
        <time>2020-08-13T19:07:09.000Z</time>
      </trkpt>
      <trkpt lat="43.95465" lon="1.81847">
        <ele>225.60000610352</ele>
        <time>2020-08-13T19:07:10.000Z</time>
      </trkpt>
      <trkpt lat="43.95464" lon="1.81844">
        <ele>226</ele>
        <time>2020-08-13T19:07:11.000Z</time>
      </trkpt>
      <trkpt lat="43.95463" lon="1.81841">
        <ele>226.39999389648</ele>
        <time>2020-08-13T19:07:12.000Z</time>
      </trkpt>
      <trkpt lat="43.95462" lon="1.8184">
        <ele>226.60000610352</ele>
        <time>2020-08-13T19:07:13.000Z</time>
      </trkpt>
      <trkpt lat="43.9546" lon="1.81839">
        <ele>226.80000305176</ele>
        <time>2020-08-13T19:07:14.000Z</time>
      </trkpt>
      <trkpt lat="43.95457" lon="1.81839">
        <ele>227</ele>
        <time>2020-08-13T19:07:15.000Z</time>
      </trkpt>
      <trkpt lat="43.95455" lon="1.81839">
        <ele>227.19999694824</ele>
        <time>2020-08-13T19:07:16.000Z</time>
      </trkpt>
      <trkpt lat="43.95453" lon="1.8184">
        <ele>227.60000610352</ele>
        <time>2020-08-13T19:07:17.000Z</time>
      </trkpt>
      <trkpt lat="43.9545" lon="1.81841">
        <ele>228</ele>
        <time>2020-08-13T19:07:18.000Z</time>
      </trkpt>
      <trkpt lat="43.95448" lon="1.81841">
        <ele>228.39999389648</ele>
        <time>2020-08-13T19:07:19.000Z</time>
      </trkpt>
      <trkpt lat="43.95445" lon="1.81842">
        <ele>228.60000610352</ele>
        <time>2020-08-13T19:07:20.000Z</time>
      </trkpt>
      <trkpt lat="43.95442" lon="1.81843">
        <ele>228.60000610352</ele>
        <time>2020-08-13T19:07:21.000Z</time>
      </trkpt>
      <trkpt lat="43.9544" lon="1.81844">
        <ele>228.60000610352</ele>
        <time>2020-08-13T19:07:22.000Z</time>
      </trkpt>
      <trkpt lat="43.95437" lon="1.81845">
        <ele>228.60000610352</ele>
        <time>2020-08-13T19:07:23.000Z</time>
      </trkpt>
      <trkpt lat="43.95434" lon="1.81846">
        <ele>228.80000305176</ele>
        <time>2020-08-13T19:07:24.000Z</time>
      </trkpt>
      <trkpt lat="43.95432" lon="1.81847">
        <ele>229.19999694824</ele>
        <time>2020-08-13T19:07:25.000Z</time>
      </trkpt>
      <trkpt lat="43.95429" lon="1.81847">
        <ele>229.39999389648</ele>
        <time>2020-08-13T19:07:26.000Z</time>
      </trkpt>
      <trkpt lat="43.95427" lon="1.81848">
        <ele>229.80000305176</ele>
        <time>2020-08-13T19:07:27.000Z</time>
      </trkpt>
      <trkpt lat="43.95425" lon="1.81848">
        <ele>229.80000305176</ele>
        <time>2020-08-13T19:07:28.000Z</time>
      </trkpt>
      <trkpt lat="43.95423" lon="1.81849">
        <ele>230</ele>
        <time>2020-08-13T19:07:29.000Z</time>
      </trkpt>
      <trkpt lat="43.95421" lon="1.8185">
        <ele>230</ele>
        <time>2020-08-13T19:07:30.000Z</time>
      </trkpt>
      <trkpt lat="43.95419" lon="1.81851">
        <ele>230.19999694824</ele>
        <time>2020-08-13T19:07:31.000Z</time>
      </trkpt>
      <trkpt lat="43.95417" lon="1.81852">
        <ele>230.39999389648</ele>
        <time>2020-08-13T19:07:32.000Z</time>
      </trkpt>
      <trkpt lat="43.95416" lon="1.81854">
        <ele>230.39999389648</ele>
        <time>2020-08-13T19:07:33.000Z</time>
      </trkpt>
      <trkpt lat="43.95414" lon="1.81855">
        <ele>230.19999694824</ele>
        <time>2020-08-13T19:07:34.000Z</time>
      </trkpt>
      <trkpt lat="43.95413" lon="1.81857">
        <ele>230.19999694824</ele>
        <time>2020-08-13T19:07:35.000Z</time>
      </trkpt>
      <trkpt lat="43.95412" lon="1.81858">
        <ele>230.19999694824</ele>
        <time>2020-08-13T19:07:36.000Z</time>
      </trkpt>
      <trkpt lat="43.95411" lon="1.81861">
        <ele>230.39999389648</ele>
        <time>2020-08-13T19:07:37.000Z</time>
      </trkpt>
      <trkpt lat="43.95409" lon="1.81864">
        <ele>230.39999389648</ele>
        <time>2020-08-13T19:07:38.000Z</time>
      </trkpt>
      <trkpt lat="43.95408" lon="1.81867">
        <ele>230.39999389648</ele>
        <time>2020-08-13T19:07:39.000Z</time>
      </trkpt>
      <trkpt lat="43.95407" lon="1.81869">
        <ele>230.39999389648</ele>
        <time>2020-08-13T19:07:40.000Z</time>
      </trkpt>
      <trkpt lat="43.95405" lon="1.81872">
        <ele>230.60000610352</ele>
        <time>2020-08-13T19:07:41.000Z</time>
      </trkpt>
      <trkpt lat="43.95404" lon="1.81874">
        <ele>230.80000305176</ele>
        <time>2020-08-13T19:07:42.000Z</time>
      </trkpt>
      <trkpt lat="43.95403" lon="1.81876">
        <ele>230.80000305176</ele>
        <time>2020-08-13T19:07:43.000Z</time>
      </trkpt>
      <trkpt lat="43.95402" lon="1.81878">
        <ele>231</ele>
        <time>2020-08-13T19:07:44.000Z</time>
      </trkpt>
      <trkpt lat="43.954" lon="1.8188">
        <ele>231.19999694824</ele>
        <time>2020-08-13T19:07:45.000Z</time>
      </trkpt>
      <trkpt lat="43.95398" lon="1.81882">
        <ele>231.39999389648</ele>
        <time>2020-08-13T19:07:46.000Z</time>
      </trkpt>
      <trkpt lat="43.95397" lon="1.81883">
        <ele>231.39999389648</ele>
        <time>2020-08-13T19:07:47.000Z</time>
      </trkpt>
      <trkpt lat="43.95396" lon="1.81884">
        <ele>231.60000610352</ele>
        <time>2020-08-13T19:07:48.000Z</time>
      </trkpt>
      <trkpt lat="43.95395" lon="1.81885">
        <ele>231.60000610352</ele>
        <time>2020-08-13T19:07:49.000Z</time>
      </trkpt>
      <trkpt lat="43.95394" lon="1.81886">
        <ele>231.80000305176</ele>
        <time>2020-08-13T19:07:50.000Z</time>
      </trkpt>
      <trkpt lat="43.95393" lon="1.81886">
        <ele>231.80000305176</ele>
        <time>2020-08-13T19:07:51.000Z</time>
      </trkpt>
      <trkpt lat="43.95391" lon="1.81887">
        <ele>232.19999694824</ele>
        <time>2020-08-13T19:07:52.000Z</time>
      </trkpt>
      <trkpt lat="43.9539" lon="1.81888">
        <ele>232.19999694824</ele>
        <time>2020-08-13T19:07:53.000Z</time>
      </trkpt>
      <trkpt lat="43.95389" lon="1.81889">
        <ele>232.39999389648</ele>
        <time>2020-08-13T19:07:54.000Z</time>
      </trkpt>
      <trkpt lat="43.95388" lon="1.81889">
        <ele>232.39999389648</ele>
        <time>2020-08-13T19:07:55.000Z</time>
      </trkpt>
      <trkpt lat="43.95387" lon="1.8189">
        <ele>232.39999389648</ele>
        <time>2020-08-13T19:07:56.000Z</time>
      </trkpt>
      <trkpt lat="43.95386" lon="1.81891">
        <ele>232.60000610352</ele>
        <time>2020-08-13T19:07:57.000Z</time>
      </trkpt>
      <trkpt lat="43.95385" lon="1.81891">
        <ele>233</ele>
        <time>2020-08-13T19:07:58.000Z</time>
      </trkpt>
      <trkpt lat="43.95384" lon="1.81892">
        <ele>233</ele>
        <time>2020-08-13T19:07:59.000Z</time>
      </trkpt>
      <trkpt lat="43.95383" lon="1.81893">
        <ele>233</ele>
        <time>2020-08-13T19:08:00.000Z</time>
      </trkpt>
      <trkpt lat="43.95381" lon="1.81893">
        <ele>233.19999694824</ele>
        <time>2020-08-13T19:08:01.000Z</time>
      </trkpt>
      <trkpt lat="43.9538" lon="1.81894">
        <ele>233.39999389648</ele>
        <time>2020-08-13T19:08:02.000Z</time>
      </trkpt>
      <trkpt lat="43.95379" lon="1.81894">
        <ele>233.60000610352</ele>
        <time>2020-08-13T19:08:03.000Z</time>
      </trkpt>
      <trkpt lat="43.95377" lon="1.81895">
        <ele>233.80000305176</ele>
        <time>2020-08-13T19:08:04.000Z</time>
      </trkpt>
      <trkpt lat="43.95376" lon="1.81896">
        <ele>233.80000305176</ele>
        <time>2020-08-13T19:08:05.000Z</time>
      </trkpt>
      <trkpt lat="43.95375" lon="1.81897">
        <ele>234</ele>
        <time>2020-08-13T19:08:06.000Z</time>
      </trkpt>
      <trkpt lat="43.95373" lon="1.81897">
        <ele>234.19999694824</ele>
        <time>2020-08-13T19:08:07.000Z</time>
      </trkpt>
      <trkpt lat="43.95371" lon="1.81898">
        <ele>234.39999389648</ele>
        <time>2020-08-13T19:08:08.000Z</time>
      </trkpt>
      <trkpt lat="43.95369" lon="1.81899">
        <ele>234.80000305176</ele>
        <time>2020-08-13T19:08:09.000Z</time>
      </trkpt>
      <trkpt lat="43.95368" lon="1.819">
        <ele>235</ele>
        <time>2020-08-13T19:08:10.000Z</time>
      </trkpt>
      <trkpt lat="43.95366" lon="1.81901">
        <ele>235.19999694824</ele>
        <time>2020-08-13T19:08:11.000Z</time>
      </trkpt>
      <trkpt lat="43.95364" lon="1.81902">
        <ele>235.39999389648</ele>
        <time>2020-08-13T19:08:12.000Z</time>
      </trkpt>
      <trkpt lat="43.95363" lon="1.81903">
        <ele>236</ele>
        <time>2020-08-13T19:08:13.000Z</time>
      </trkpt>
      <trkpt lat="43.95361" lon="1.81903">
        <ele>236.19999694824</ele>
        <time>2020-08-13T19:08:14.000Z</time>
      </trkpt>
      <trkpt lat="43.95359" lon="1.81904">
        <ele>236.60000610352</ele>
        <time>2020-08-13T19:08:15.000Z</time>
      </trkpt>
      <trkpt lat="43.95357" lon="1.81905">
        <ele>237</ele>
        <time>2020-08-13T19:08:16.000Z</time>
      </trkpt>
      <trkpt lat="43.95355" lon="1.81905">
        <ele>237.39999389648</ele>
        <time>2020-08-13T19:08:17.000Z</time>
      </trkpt>
      <trkpt lat="43.95353" lon="1.81906">
        <ele>237.60000610352</ele>
        <time>2020-08-13T19:08:18.000Z</time>
      </trkpt>
      <trkpt lat="43.95351" lon="1.81907">
        <ele>238</ele>
        <time>2020-08-13T19:08:19.000Z</time>
      </trkpt>
      <trkpt lat="43.95349" lon="1.81908">
        <ele>238.80000305176</ele>
        <time>2020-08-13T19:08:20.000Z</time>
      </trkpt>
      <trkpt lat="43.95348" lon="1.81909">
        <ele>239.19999694824</ele>
        <time>2020-08-13T19:08:21.000Z</time>
      </trkpt>
      <trkpt lat="43.95346" lon="1.8191">
        <ele>239.60000610352</ele>
        <time>2020-08-13T19:08:22.000Z</time>
      </trkpt>
      <trkpt lat="43.95345" lon="1.81911">
        <ele>239.80000305176</ele>
        <time>2020-08-13T19:08:23.000Z</time>
      </trkpt>
      <trkpt lat="43.95343" lon="1.81912">
        <ele>240.19999694824</ele>
        <time>2020-08-13T19:08:24.000Z</time>
      </trkpt>
      <trkpt lat="43.95341" lon="1.81913">
        <ele>240.39999389648</ele>
        <time>2020-08-13T19:08:25.000Z</time>
      </trkpt>
      <trkpt lat="43.9534" lon="1.81914">
        <ele>240.80000305176</ele>
        <time>2020-08-13T19:08:26.000Z</time>
      </trkpt>
      <trkpt lat="43.95338" lon="1.81915">
        <ele>241.19999694824</ele>
        <time>2020-08-13T19:08:27.000Z</time>
      </trkpt>
      <trkpt lat="43.95337" lon="1.81916">
        <ele>241.39999389648</ele>
        <time>2020-08-13T19:08:28.000Z</time>
      </trkpt>
      <trkpt lat="43.95336" lon="1.81916">
        <ele>241.80000305176</ele>
        <time>2020-08-13T19:08:29.000Z</time>
      </trkpt>
      <trkpt lat="43.95334" lon="1.81916">
        <ele>242.19999694824</ele>
        <time>2020-08-13T19:08:30.000Z</time>
      </trkpt>
      <trkpt lat="43.95333" lon="1.81917">
        <ele>242.39999389648</ele>
        <time>2020-08-13T19:08:31.000Z</time>
      </trkpt>
      <trkpt lat="43.95331" lon="1.81917">
        <ele>242.80000305176</ele>
        <time>2020-08-13T19:08:32.000Z</time>
      </trkpt>
      <trkpt lat="43.9533" lon="1.81917">
        <ele>243</ele>
        <time>2020-08-13T19:08:33.000Z</time>
      </trkpt>
      <trkpt lat="43.95328" lon="1.81917">
        <ele>243</ele>
        <time>2020-08-13T19:08:34.000Z</time>
      </trkpt>
      <trkpt lat="43.95327" lon="1.81917">
        <ele>243.19999694824</ele>
        <time>2020-08-13T19:08:35.000Z</time>
      </trkpt>
      <trkpt lat="43.95325" lon="1.81917">
        <ele>243.60000610352</ele>
        <time>2020-08-13T19:08:36.000Z</time>
      </trkpt>
      <trkpt lat="43.95324" lon="1.81917">
        <ele>243.80000305176</ele>
        <time>2020-08-13T19:08:37.000Z</time>
      </trkpt>
      <trkpt lat="43.95322" lon="1.81918">
        <ele>244</ele>
        <time>2020-08-13T19:08:38.000Z</time>
      </trkpt>
      <trkpt lat="43.95321" lon="1.81917">
        <ele>244.19999694824</ele>
        <time>2020-08-13T19:08:39.000Z</time>
      </trkpt>
      <trkpt lat="43.95319" lon="1.81916">
        <ele>244.39999389648</ele>
        <time>2020-08-13T19:08:40.000Z</time>
      </trkpt>
      <trkpt lat="43.95318" lon="1.81915">
        <ele>244.60000610352</ele>
        <time>2020-08-13T19:08:41.000Z</time>
      </trkpt>
      <trkpt lat="43.95316" lon="1.81914">
        <ele>245</ele>
        <time>2020-08-13T19:08:42.000Z</time>
      </trkpt>
      <trkpt lat="43.95315" lon="1.81913">
        <ele>245.19999694824</ele>
        <time>2020-08-13T19:08:43.000Z</time>
      </trkpt>
      <trkpt lat="43.95314" lon="1.81912">
        <ele>245.60000610352</ele>
        <time>2020-08-13T19:08:44.000Z</time>
      </trkpt>
      <trkpt lat="43.95314" lon="1.81911">
        <ele>245.80000305176</ele>
        <time>2020-08-13T19:08:45.000Z</time>
      </trkpt>
      <trkpt lat="43.95313" lon="1.81909">
        <ele>246</ele>
        <time>2020-08-13T19:08:46.000Z</time>
      </trkpt>
      <trkpt lat="43.95313" lon="1.81908">
        <ele>246.19999694824</ele>
        <time>2020-08-13T19:08:47.000Z</time>
      </trkpt>
      <trkpt lat="43.95312" lon="1.81906">
        <ele>246.60000610352</ele>
        <time>2020-08-13T19:08:48.000Z</time>
      </trkpt>
      <trkpt lat="43.95312" lon="1.81904">
        <ele>246.60000610352</ele>
        <time>2020-08-13T19:08:49.000Z</time>
      </trkpt>
      <trkpt lat="43.95312" lon="1.81902">
        <ele>247</ele>
        <time>2020-08-13T19:08:50.000Z</time>
      </trkpt>
      <trkpt lat="43.95311" lon="1.81901">
        <ele>247.19999694824</ele>
        <time>2020-08-13T19:08:51.000Z</time>
      </trkpt>
      <trkpt lat="43.95311" lon="1.81899">
        <ele>247.39999389648</ele>
        <time>2020-08-13T19:08:52.000Z</time>
      </trkpt>
      <trkpt lat="43.95311" lon="1.81897">
        <ele>247.60000610352</ele>
        <time>2020-08-13T19:08:53.000Z</time>
      </trkpt>
      <trkpt lat="43.9531" lon="1.81895">
        <ele>247.80000305176</ele>
        <time>2020-08-13T19:08:54.000Z</time>
      </trkpt>
      <trkpt lat="43.9531" lon="1.81894">
        <ele>248.19999694824</ele>
        <time>2020-08-13T19:08:55.000Z</time>
      </trkpt>
      <trkpt lat="43.95309" lon="1.81892">
        <ele>248.39999389648</ele>
        <time>2020-08-13T19:08:56.000Z</time>
      </trkpt>
      <trkpt lat="43.95309" lon="1.81891">
        <ele>248.60000610352</ele>
        <time>2020-08-13T19:08:57.000Z</time>
      </trkpt>
      <trkpt lat="43.95309" lon="1.81889">
        <ele>248.80000305176</ele>
        <time>2020-08-13T19:08:58.000Z</time>
      </trkpt>
      <trkpt lat="43.95308" lon="1.81888">
        <ele>249</ele>
        <time>2020-08-13T19:08:59.000Z</time>
      </trkpt>
      <trkpt lat="43.95308" lon="1.81886">
        <ele>249.19999694824</ele>
        <time>2020-08-13T19:09:00.000Z</time>
      </trkpt>
      <trkpt lat="43.95308" lon="1.81884">
        <ele>249.39999389648</ele>
        <time>2020-08-13T19:09:01.000Z</time>
      </trkpt>
      <trkpt lat="43.95307" lon="1.81882">
        <ele>249.60000610352</ele>
        <time>2020-08-13T19:09:02.000Z</time>
      </trkpt>
      <trkpt lat="43.95307" lon="1.81881">
        <ele>249.80000305176</ele>
        <time>2020-08-13T19:09:03.000Z</time>
      </trkpt>
      <trkpt lat="43.95306" lon="1.81879">
        <ele>250</ele>
        <time>2020-08-13T19:09:04.000Z</time>
      </trkpt>
      <trkpt lat="43.95306" lon="1.81877">
        <ele>250.39999389648</ele>
        <time>2020-08-13T19:09:05.000Z</time>
      </trkpt>
      <trkpt lat="43.95306" lon="1.81875">
        <ele>250.60000610352</ele>
        <time>2020-08-13T19:09:06.000Z</time>
      </trkpt>
      <trkpt lat="43.95306" lon="1.81873">
        <ele>251</ele>
        <time>2020-08-13T19:09:07.000Z</time>
      </trkpt>
      <trkpt lat="43.95306" lon="1.81872">
        <ele>251.39999389648</ele>
        <time>2020-08-13T19:09:08.000Z</time>
      </trkpt>
      <trkpt lat="43.95306" lon="1.8187">
        <ele>251.60000610352</ele>
        <time>2020-08-13T19:09:09.000Z</time>
      </trkpt>
      <trkpt lat="43.95305" lon="1.81868">
        <ele>251.80000305176</ele>
        <time>2020-08-13T19:09:10.000Z</time>
      </trkpt>
      <trkpt lat="43.95305" lon="1.81866">
        <ele>252</ele>
        <time>2020-08-13T19:09:11.000Z</time>
      </trkpt>
      <trkpt lat="43.95304" lon="1.81864">
        <ele>252.19999694824</ele>
        <time>2020-08-13T19:09:12.000Z</time>
      </trkpt>
      <trkpt lat="43.95304" lon="1.81862">
        <ele>252.39999389648</ele>
        <time>2020-08-13T19:09:13.000Z</time>
      </trkpt>
      <trkpt lat="43.95303" lon="1.8186">
        <ele>252.80000305176</ele>
        <time>2020-08-13T19:09:14.000Z</time>
      </trkpt>
      <trkpt lat="43.95302" lon="1.81859">
        <ele>253</ele>
        <time>2020-08-13T19:09:15.000Z</time>
      </trkpt>
      <trkpt lat="43.95302" lon="1.81857">
        <ele>253.19999694824</ele>
        <time>2020-08-13T19:09:16.000Z</time>
      </trkpt>
      <trkpt lat="43.95301" lon="1.81855">
        <ele>253.39999389648</ele>
        <time>2020-08-13T19:09:17.000Z</time>
      </trkpt>
      <trkpt lat="43.95301" lon="1.81853">
        <ele>253.60000610352</ele>
        <time>2020-08-13T19:09:18.000Z</time>
      </trkpt>
      <trkpt lat="43.953" lon="1.81851">
        <ele>254</ele>
        <time>2020-08-13T19:09:19.000Z</time>
      </trkpt>
      <trkpt lat="43.953" lon="1.8185">
        <ele>254.19999694824</ele>
        <time>2020-08-13T19:09:20.000Z</time>
      </trkpt>
      <trkpt lat="43.95299" lon="1.81848">
        <ele>254.39999389648</ele>
        <time>2020-08-13T19:09:21.000Z</time>
      </trkpt>
      <trkpt lat="43.95299" lon="1.81847">
        <ele>254.60000610352</ele>
        <time>2020-08-13T19:09:22.000Z</time>
      </trkpt>
      <trkpt lat="43.95298" lon="1.81845">
        <ele>255</ele>
        <time>2020-08-13T19:09:23.000Z</time>
      </trkpt>
      <trkpt lat="43.95298" lon="1.81844">
        <ele>255.39999389648</ele>
        <time>2020-08-13T19:09:24.000Z</time>
      </trkpt>
      <trkpt lat="43.95298" lon="1.81842">
        <ele>255.60000610352</ele>
        <time>2020-08-13T19:09:25.000Z</time>
      </trkpt>
      <trkpt lat="43.95297" lon="1.81841">
        <ele>255.80000305176</ele>
        <time>2020-08-13T19:09:26.000Z</time>
      </trkpt>
      <trkpt lat="43.95296" lon="1.8184">
        <ele>256</ele>
        <time>2020-08-13T19:09:27.000Z</time>
      </trkpt>
      <trkpt lat="43.95295" lon="1.81838">
        <ele>256.20001220703</ele>
        <time>2020-08-13T19:09:28.000Z</time>
      </trkpt>
      <trkpt lat="43.95294" lon="1.81836">
        <ele>256.39999389648</ele>
        <time>2020-08-13T19:09:29.000Z</time>
      </trkpt>
      <trkpt lat="43.95293" lon="1.81835">
        <ele>256.60000610352</ele>
        <time>2020-08-13T19:09:30.000Z</time>
      </trkpt>
      <trkpt lat="43.95292" lon="1.81834">
        <ele>256.79998779297</ele>
        <time>2020-08-13T19:09:31.000Z</time>
      </trkpt>
      <trkpt lat="43.95291" lon="1.81832">
        <ele>257</ele>
        <time>2020-08-13T19:09:32.000Z</time>
      </trkpt>
      <trkpt lat="43.9529" lon="1.81831">
        <ele>257.20001220703</ele>
        <time>2020-08-13T19:09:33.000Z</time>
      </trkpt>
      <trkpt lat="43.95289" lon="1.8183">
        <ele>257.39999389648</ele>
        <time>2020-08-13T19:09:34.000Z</time>
      </trkpt>
      <trkpt lat="43.95288" lon="1.81829">
        <ele>257.39999389648</ele>
        <time>2020-08-13T19:09:35.000Z</time>
      </trkpt>
      <trkpt lat="43.95287" lon="1.81828">
        <ele>257.39999389648</ele>
        <time>2020-08-13T19:09:36.000Z</time>
      </trkpt>
      <trkpt lat="43.95285" lon="1.81827">
        <ele>257.60000610352</ele>
        <time>2020-08-13T19:09:37.000Z</time>
      </trkpt>
      <trkpt lat="43.95284" lon="1.81825">
        <ele>257.60000610352</ele>
        <time>2020-08-13T19:09:38.000Z</time>
      </trkpt>
      <trkpt lat="43.95282" lon="1.81824">
        <ele>257.79998779297</ele>
        <time>2020-08-13T19:09:39.000Z</time>
      </trkpt>
      <trkpt lat="43.9528" lon="1.81823">
        <ele>258</ele>
        <time>2020-08-13T19:09:40.000Z</time>
      </trkpt>
      <trkpt lat="43.95279" lon="1.81822">
        <ele>258</ele>
        <time>2020-08-13T19:09:41.000Z</time>
      </trkpt>
      <trkpt lat="43.95277" lon="1.81821">
        <ele>258</ele>
        <time>2020-08-13T19:09:42.000Z</time>
      </trkpt>
      <trkpt lat="43.95276" lon="1.8182">
        <ele>258</ele>
        <time>2020-08-13T19:09:43.000Z</time>
      </trkpt>
      <trkpt lat="43.95275" lon="1.81819">
        <ele>258.20001220703</ele>
        <time>2020-08-13T19:09:44.000Z</time>
      </trkpt>
      <trkpt lat="43.95273" lon="1.81819">
        <ele>258.39999389648</ele>
        <time>2020-08-13T19:09:45.000Z</time>
      </trkpt>
      <trkpt lat="43.95272" lon="1.81818">
        <ele>258.60000610352</ele>
        <time>2020-08-13T19:09:46.000Z</time>
      </trkpt>
      <trkpt lat="43.95271" lon="1.81818">
        <ele>258.60000610352</ele>
        <time>2020-08-13T19:09:47.000Z</time>
      </trkpt>
      <trkpt lat="43.95269" lon="1.81817">
        <ele>258.79998779297</ele>
        <time>2020-08-13T19:09:48.000Z</time>
      </trkpt>
      <trkpt lat="43.95268" lon="1.81817">
        <ele>259.20001220703</ele>
        <time>2020-08-13T19:09:49.000Z</time>
      </trkpt>
      <trkpt lat="43.95266" lon="1.81816">
        <ele>259.20001220703</ele>
        <time>2020-08-13T19:09:50.000Z</time>
      </trkpt>
      <trkpt lat="43.95264" lon="1.81815">
        <ele>259.39999389648</ele>
        <time>2020-08-13T19:09:51.000Z</time>
      </trkpt>
      <trkpt lat="43.95262" lon="1.81815">
        <ele>259.60000610352</ele>
        <time>2020-08-13T19:09:52.000Z</time>
      </trkpt>
      <trkpt lat="43.9526" lon="1.81814">
        <ele>259.60000610352</ele>
        <time>2020-08-13T19:09:53.000Z</time>
      </trkpt>
      <trkpt lat="43.95258" lon="1.81814">
        <ele>259.60000610352</ele>
        <time>2020-08-13T19:09:54.000Z</time>
      </trkpt>
      <trkpt lat="43.95257" lon="1.81814">
        <ele>259.79998779297</ele>
        <time>2020-08-13T19:09:55.000Z</time>
      </trkpt>
      <trkpt lat="43.95255" lon="1.81814">
        <ele>260.39999389648</ele>
        <time>2020-08-13T19:09:56.000Z</time>
      </trkpt>
      <trkpt lat="43.95253" lon="1.81815">
        <ele>260.60000610352</ele>
        <time>2020-08-13T19:09:57.000Z</time>
      </trkpt>
      <trkpt lat="43.95252" lon="1.81815">
        <ele>260.79998779297</ele>
        <time>2020-08-13T19:09:58.000Z</time>
      </trkpt>
      <trkpt lat="43.9525" lon="1.81815">
        <ele>261</ele>
        <time>2020-08-13T19:09:59.000Z</time>
      </trkpt>
      <trkpt lat="43.95249" lon="1.81815">
        <ele>261.20001220703</ele>
        <time>2020-08-13T19:10:00.000Z</time>
      </trkpt>
      <trkpt lat="43.95248" lon="1.81816">
        <ele>261.20001220703</ele>
        <time>2020-08-13T19:10:01.000Z</time>
      </trkpt>
      <trkpt lat="43.95246" lon="1.81817">
        <ele>261.39999389648</ele>
        <time>2020-08-13T19:10:02.000Z</time>
      </trkpt>
      <trkpt lat="43.95245" lon="1.81817">
        <ele>261.79998779297</ele>
        <time>2020-08-13T19:10:03.000Z</time>
      </trkpt>
      <trkpt lat="43.95243" lon="1.81818">
        <ele>262</ele>
        <time>2020-08-13T19:10:04.000Z</time>
      </trkpt>
      <trkpt lat="43.95242" lon="1.81819">
        <ele>262.20001220703</ele>
        <time>2020-08-13T19:10:05.000Z</time>
      </trkpt>
      <trkpt lat="43.95241" lon="1.8182">
        <ele>262.39999389648</ele>
        <time>2020-08-13T19:10:06.000Z</time>
      </trkpt>
      <trkpt lat="43.95239" lon="1.8182">
        <ele>262.60000610352</ele>
        <time>2020-08-13T19:10:07.000Z</time>
      </trkpt>
      <trkpt lat="43.95238" lon="1.81821">
        <ele>262.79998779297</ele>
        <time>2020-08-13T19:10:08.000Z</time>
      </trkpt>
      <trkpt lat="43.95236" lon="1.81822">
        <ele>263</ele>
        <time>2020-08-13T19:10:09.000Z</time>
      </trkpt>
      <trkpt lat="43.95234" lon="1.81822">
        <ele>263.20001220703</ele>
        <time>2020-08-13T19:10:10.000Z</time>
      </trkpt>
      <trkpt lat="43.95233" lon="1.81823">
        <ele>263.60000610352</ele>
        <time>2020-08-13T19:10:11.000Z</time>
      </trkpt>
      <trkpt lat="43.95231" lon="1.81824">
        <ele>263.79998779297</ele>
        <time>2020-08-13T19:10:12.000Z</time>
      </trkpt>
      <trkpt lat="43.95232" lon="1.81823">
        <ele>263.79998779297</ele>
        <time>2020-08-13T19:10:13.000Z</time>
      </trkpt>
      <trkpt lat="43.95229" lon="1.81825">
        <ele>264.20001220703</ele>
        <time>2020-08-13T19:10:14.000Z</time>
      </trkpt>
      <trkpt lat="43.95229" lon="1.81825">
        <ele>264.39999389648</ele>
        <time>2020-08-13T19:10:15.000Z</time>
      </trkpt>
      <trkpt lat="43.95226" lon="1.81827">
        <ele>264.60000610352</ele>
        <time>2020-08-13T19:10:16.000Z</time>
      </trkpt>
      <trkpt lat="43.95224" lon="1.81828">
        <ele>264.60000610352</ele>
        <time>2020-08-13T19:10:17.000Z</time>
      </trkpt>
      <trkpt lat="43.95223" lon="1.81829">
        <ele>264.79998779297</ele>
        <time>2020-08-13T19:10:18.000Z</time>
      </trkpt>
      <trkpt lat="43.95221" lon="1.8183">
        <ele>265</ele>
        <time>2020-08-13T19:10:19.000Z</time>
      </trkpt>
      <trkpt lat="43.95219" lon="1.8183">
        <ele>265.39999389648</ele>
        <time>2020-08-13T19:10:20.000Z</time>
      </trkpt>
      <trkpt lat="43.95217" lon="1.81831">
        <ele>265.60000610352</ele>
        <time>2020-08-13T19:10:21.000Z</time>
      </trkpt>
      <trkpt lat="43.95215" lon="1.81832">
        <ele>265.60000610352</ele>
        <time>2020-08-13T19:10:22.000Z</time>
      </trkpt>
      <trkpt lat="43.95212" lon="1.81833">
        <ele>265.79998779297</ele>
        <time>2020-08-13T19:10:23.000Z</time>
      </trkpt>
      <trkpt lat="43.9521" lon="1.81835">
        <ele>265.79998779297</ele>
        <time>2020-08-13T19:10:24.000Z</time>
      </trkpt>
      <trkpt lat="43.95207" lon="1.81836">
        <ele>266</ele>
        <time>2020-08-13T19:10:25.000Z</time>
      </trkpt>
      <trkpt lat="43.95204" lon="1.81837">
        <ele>266</ele>
        <time>2020-08-13T19:10:26.000Z</time>
      </trkpt>
      <trkpt lat="43.95202" lon="1.81838">
        <ele>266</ele>
        <time>2020-08-13T19:10:27.000Z</time>
      </trkpt>
      <trkpt lat="43.95199" lon="1.81839">
        <ele>266</ele>
        <time>2020-08-13T19:10:28.000Z</time>
      </trkpt>
      <trkpt lat="43.95197" lon="1.81839">
        <ele>266</ele>
        <time>2020-08-13T19:10:29.000Z</time>
      </trkpt>
      <trkpt lat="43.95194" lon="1.8184">
        <ele>266</ele>
        <time>2020-08-13T19:10:30.000Z</time>
      </trkpt>
      <trkpt lat="43.95191" lon="1.8184">
        <ele>266</ele>
        <time>2020-08-13T19:10:31.000Z</time>
      </trkpt>
      <trkpt lat="43.95188" lon="1.81841">
        <ele>266</ele>
        <time>2020-08-13T19:10:32.000Z</time>
      </trkpt>
      <trkpt lat="43.95185" lon="1.81842">
        <ele>266.20001220703</ele>
        <time>2020-08-13T19:10:33.000Z</time>
      </trkpt>
      <trkpt lat="43.95182" lon="1.81844">
        <ele>266.20001220703</ele>
        <time>2020-08-13T19:10:34.000Z</time>
      </trkpt>
      <trkpt lat="43.95179" lon="1.81846">
        <ele>266.20001220703</ele>
        <time>2020-08-13T19:10:35.000Z</time>
      </trkpt>
      <trkpt lat="43.95176" lon="1.81848">
        <ele>266.39999389648</ele>
        <time>2020-08-13T19:10:36.000Z</time>
      </trkpt>
      <trkpt lat="43.95174" lon="1.81849">
        <ele>266.39999389648</ele>
        <time>2020-08-13T19:10:37.000Z</time>
      </trkpt>
      <trkpt lat="43.95171" lon="1.81851">
        <ele>266.60000610352</ele>
        <time>2020-08-13T19:10:38.000Z</time>
      </trkpt>
      <trkpt lat="43.95168" lon="1.81853">
        <ele>266.60000610352</ele>
        <time>2020-08-13T19:10:39.000Z</time>
      </trkpt>
      <trkpt lat="43.95165" lon="1.81855">
        <ele>266.79998779297</ele>
        <time>2020-08-13T19:10:40.000Z</time>
      </trkpt>
      <trkpt lat="43.95162" lon="1.81857">
        <ele>266.79998779297</ele>
        <time>2020-08-13T19:10:41.000Z</time>
      </trkpt>
      <trkpt lat="43.95159" lon="1.81859">
        <ele>267</ele>
        <time>2020-08-13T19:10:42.000Z</time>
      </trkpt>
      <trkpt lat="43.95155" lon="1.81861">
        <ele>267.20001220703</ele>
        <time>2020-08-13T19:10:43.000Z</time>
      </trkpt>
      <trkpt lat="43.95153" lon="1.81863">
        <ele>267.20001220703</ele>
        <time>2020-08-13T19:10:44.000Z</time>
      </trkpt>
      <trkpt lat="43.9515" lon="1.81865">
        <ele>267.39999389648</ele>
        <time>2020-08-13T19:10:45.000Z</time>
      </trkpt>
      <trkpt lat="43.95146" lon="1.81868">
        <ele>267.60000610352</ele>
        <time>2020-08-13T19:10:46.000Z</time>
      </trkpt>
      <trkpt lat="43.95144" lon="1.8187">
        <ele>267.79998779297</ele>
        <time>2020-08-13T19:10:47.000Z</time>
      </trkpt>
      <trkpt lat="43.95141" lon="1.81872">
        <ele>268</ele>
        <time>2020-08-13T19:10:48.000Z</time>
      </trkpt>
      <trkpt lat="43.95138" lon="1.81875">
        <ele>267.79998779297</ele>
        <time>2020-08-13T19:10:49.000Z</time>
      </trkpt>
      <trkpt lat="43.95136" lon="1.81878">
        <ele>268</ele>
        <time>2020-08-13T19:10:50.000Z</time>
      </trkpt>
      <trkpt lat="43.95133" lon="1.8188">
        <ele>268.20001220703</ele>
        <time>2020-08-13T19:10:51.000Z</time>
      </trkpt>
      <trkpt lat="43.9513" lon="1.81882">
        <ele>268.39999389648</ele>
        <time>2020-08-13T19:10:52.000Z</time>
      </trkpt>
      <trkpt lat="43.95128" lon="1.81884">
        <ele>268.60000610352</ele>
        <time>2020-08-13T19:10:53.000Z</time>
      </trkpt>
      <trkpt lat="43.95125" lon="1.81886">
        <ele>268.79998779297</ele>
        <time>2020-08-13T19:10:54.000Z</time>
      </trkpt>
      <trkpt lat="43.95122" lon="1.81889">
        <ele>269</ele>
        <time>2020-08-13T19:10:55.000Z</time>
      </trkpt>
      <trkpt lat="43.9512" lon="1.81891">
        <ele>269</ele>
        <time>2020-08-13T19:10:56.000Z</time>
      </trkpt>
      <trkpt lat="43.95117" lon="1.81894">
        <ele>269.20001220703</ele>
        <time>2020-08-13T19:10:57.000Z</time>
      </trkpt>
      <trkpt lat="43.95115" lon="1.81897">
        <ele>269.39999389648</ele>
        <time>2020-08-13T19:10:58.000Z</time>
      </trkpt>
      <trkpt lat="43.95112" lon="1.819">
        <ele>269.79998779297</ele>
        <time>2020-08-13T19:10:59.000Z</time>
      </trkpt>
      <trkpt lat="43.9511" lon="1.81902">
        <ele>270</ele>
        <time>2020-08-13T19:11:00.000Z</time>
      </trkpt>
      <trkpt lat="43.95107" lon="1.81905">
        <ele>270.39999389648</ele>
        <time>2020-08-13T19:11:01.000Z</time>
      </trkpt>
      <trkpt lat="43.95105" lon="1.81907">
        <ele>270.79998779297</ele>
        <time>2020-08-13T19:11:02.000Z</time>
      </trkpt>
      <trkpt lat="43.95102" lon="1.8191">
        <ele>271</ele>
        <time>2020-08-13T19:11:03.000Z</time>
      </trkpt>
      <trkpt lat="43.951" lon="1.81912">
        <ele>271.20001220703</ele>
        <time>2020-08-13T19:11:04.000Z</time>
      </trkpt>
      <trkpt lat="43.95098" lon="1.81914">
        <ele>271.60000610352</ele>
        <time>2020-08-13T19:11:05.000Z</time>
      </trkpt>
      <trkpt lat="43.95095" lon="1.81917">
        <ele>271.79998779297</ele>
        <time>2020-08-13T19:11:06.000Z</time>
      </trkpt>
      <trkpt lat="43.95093" lon="1.8192">
        <ele>272.20001220703</ele>
        <time>2020-08-13T19:11:07.000Z</time>
      </trkpt>
      <trkpt lat="43.9509" lon="1.81922">
        <ele>273</ele>
        <time>2020-08-13T19:11:08.000Z</time>
      </trkpt>
      <trkpt lat="43.95088" lon="1.81925">
        <ele>273.20001220703</ele>
        <time>2020-08-13T19:11:09.000Z</time>
      </trkpt>
      <trkpt lat="43.95085" lon="1.81927">
        <ele>273.60000610352</ele>
        <time>2020-08-13T19:11:10.000Z</time>
      </trkpt>
      <trkpt lat="43.95083" lon="1.81928">
        <ele>273.79998779297</ele>
        <time>2020-08-13T19:11:11.000Z</time>
      </trkpt>
      <trkpt lat="43.9508" lon="1.8193">
        <ele>274.20001220703</ele>
        <time>2020-08-13T19:11:12.000Z</time>
      </trkpt>
      <trkpt lat="43.95077" lon="1.8193">
        <ele>274.60000610352</ele>
        <time>2020-08-13T19:11:13.000Z</time>
      </trkpt>
      <trkpt lat="43.95074" lon="1.8193">
        <ele>275.20001220703</ele>
        <time>2020-08-13T19:11:14.000Z</time>
      </trkpt>
      <trkpt lat="43.95071" lon="1.8193">
        <ele>275.39999389648</ele>
        <time>2020-08-13T19:11:15.000Z</time>
      </trkpt>
      <trkpt lat="43.95068" lon="1.8193">
        <ele>275.79998779297</ele>
        <time>2020-08-13T19:11:16.000Z</time>
      </trkpt>
      <trkpt lat="43.95066" lon="1.81929">
        <ele>276</ele>
        <time>2020-08-13T19:11:17.000Z</time>
      </trkpt>
      <trkpt lat="43.95064" lon="1.81929">
        <ele>276.39999389648</ele>
        <time>2020-08-13T19:11:18.000Z</time>
      </trkpt>
      <trkpt lat="43.95061" lon="1.81928">
        <ele>276.60000610352</ele>
        <time>2020-08-13T19:11:19.000Z</time>
      </trkpt>
      <trkpt lat="43.95059" lon="1.81927">
        <ele>277</ele>
        <time>2020-08-13T19:11:20.000Z</time>
      </trkpt>
      <trkpt lat="43.95057" lon="1.81926">
        <ele>277.20001220703</ele>
        <time>2020-08-13T19:11:21.000Z</time>
      </trkpt>
      <trkpt lat="43.95055" lon="1.81925">
        <ele>277.20001220703</ele>
        <time>2020-08-13T19:11:22.000Z</time>
      </trkpt>
      <trkpt lat="43.95052" lon="1.81923">
        <ele>277.39999389648</ele>
        <time>2020-08-13T19:11:23.000Z</time>
      </trkpt>
      <trkpt lat="43.9505" lon="1.81922">
        <ele>277.39999389648</ele>
        <time>2020-08-13T19:11:24.000Z</time>
      </trkpt>
      <trkpt lat="43.95047" lon="1.8192">
        <ele>277.39999389648</ele>
        <time>2020-08-13T19:11:25.000Z</time>
      </trkpt>
      <trkpt lat="43.95045" lon="1.81919">
        <ele>277.60000610352</ele>
        <time>2020-08-13T19:11:26.000Z</time>
      </trkpt>
      <trkpt lat="43.95043" lon="1.81919">
        <ele>277.60000610352</ele>
        <time>2020-08-13T19:11:27.000Z</time>
      </trkpt>
      <trkpt lat="43.9504" lon="1.81918">
        <ele>278</ele>
        <time>2020-08-13T19:11:28.000Z</time>
      </trkpt>
      <trkpt lat="43.95038" lon="1.81917">
        <ele>278.20001220703</ele>
        <time>2020-08-13T19:11:29.000Z</time>
      </trkpt>
      <trkpt lat="43.95036" lon="1.81916">
        <ele>278.39999389648</ele>
        <time>2020-08-13T19:11:30.000Z</time>
      </trkpt>
      <trkpt lat="43.95034" lon="1.81915">
        <ele>278.60000610352</ele>
        <time>2020-08-13T19:11:31.000Z</time>
      </trkpt>
      <trkpt lat="43.95032" lon="1.81914">
        <ele>278.79998779297</ele>
        <time>2020-08-13T19:11:32.000Z</time>
      </trkpt>
      <trkpt lat="43.9503" lon="1.81912">
        <ele>279</ele>
        <time>2020-08-13T19:11:33.000Z</time>
      </trkpt>
      <trkpt lat="43.95028" lon="1.81911">
        <ele>279</ele>
        <time>2020-08-13T19:11:34.000Z</time>
      </trkpt>
      <trkpt lat="43.95026" lon="1.81909">
        <ele>279.20001220703</ele>
        <time>2020-08-13T19:11:35.000Z</time>
      </trkpt>
      <trkpt lat="43.95023" lon="1.81907">
        <ele>279.20001220703</ele>
        <time>2020-08-13T19:11:36.000Z</time>
      </trkpt>
      <trkpt lat="43.95021" lon="1.81906">
        <ele>279.39999389648</ele>
        <time>2020-08-13T19:11:37.000Z</time>
      </trkpt>
      <trkpt lat="43.95019" lon="1.81904">
        <ele>279.39999389648</ele>
        <time>2020-08-13T19:11:38.000Z</time>
      </trkpt>
      <trkpt lat="43.95016" lon="1.81903">
        <ele>279.60000610352</ele>
        <time>2020-08-13T19:11:39.000Z</time>
      </trkpt>
      <trkpt lat="43.95013" lon="1.81902">
        <ele>279.79998779297</ele>
        <time>2020-08-13T19:11:40.000Z</time>
      </trkpt>
      <trkpt lat="43.9501" lon="1.81901">
        <ele>280</ele>
        <time>2020-08-13T19:11:41.000Z</time>
      </trkpt>
      <trkpt lat="43.95008" lon="1.819">
        <ele>280.39999389648</ele>
        <time>2020-08-13T19:11:42.000Z</time>
      </trkpt>
      <trkpt lat="43.95006" lon="1.819">
        <ele>280.79998779297</ele>
        <time>2020-08-13T19:11:43.000Z</time>
      </trkpt>
      <trkpt lat="43.95004" lon="1.81899">
        <ele>281</ele>
        <time>2020-08-13T19:11:44.000Z</time>
      </trkpt>
      <trkpt lat="43.95003" lon="1.81898">
        <ele>281.20001220703</ele>
        <time>2020-08-13T19:11:45.000Z</time>
      </trkpt>
      <trkpt lat="43.95001" lon="1.81897">
        <ele>281.39999389648</ele>
        <time>2020-08-13T19:11:46.000Z</time>
      </trkpt>
      <trkpt lat="43.95" lon="1.81896">
        <ele>281.39999389648</ele>
        <time>2020-08-13T19:11:47.000Z</time>
      </trkpt>
      <trkpt lat="43.94998" lon="1.81894">
        <ele>281.60000610352</ele>
        <time>2020-08-13T19:11:48.000Z</time>
      </trkpt>
      <trkpt lat="43.94997" lon="1.81893">
        <ele>281.60000610352</ele>
        <time>2020-08-13T19:11:49.000Z</time>
      </trkpt>
      <trkpt lat="43.94995" lon="1.81892">
        <ele>281.60000610352</ele>
        <time>2020-08-13T19:11:50.000Z</time>
      </trkpt>
      <trkpt lat="43.94993" lon="1.81891">
        <ele>281.79998779297</ele>
        <time>2020-08-13T19:11:51.000Z</time>
      </trkpt>
      <trkpt lat="43.94992" lon="1.81891">
        <ele>281.79998779297</ele>
        <time>2020-08-13T19:11:52.000Z</time>
      </trkpt>
      <trkpt lat="43.9499" lon="1.8189">
        <ele>282</ele>
        <time>2020-08-13T19:11:53.000Z</time>
      </trkpt>
      <trkpt lat="43.94988" lon="1.8189">
        <ele>282</ele>
        <time>2020-08-13T19:11:54.000Z</time>
      </trkpt>
      <trkpt lat="43.94986" lon="1.81889">
        <ele>282</ele>
        <time>2020-08-13T19:11:55.000Z</time>
      </trkpt>
      <trkpt lat="43.94984" lon="1.81888">
        <ele>282</ele>
        <time>2020-08-13T19:11:56.000Z</time>
      </trkpt>
      <trkpt lat="43.94982" lon="1.81887">
        <ele>282</ele>
        <time>2020-08-13T19:11:57.000Z</time>
      </trkpt>
      <trkpt lat="43.94981" lon="1.81887">
        <ele>282.20001220703</ele>
        <time>2020-08-13T19:11:58.000Z</time>
      </trkpt>
      <trkpt lat="43.94979" lon="1.81885">
        <ele>282.20001220703</ele>
        <time>2020-08-13T19:11:59.000Z</time>
      </trkpt>
      <trkpt lat="43.94978" lon="1.81884">
        <ele>282.20001220703</ele>
        <time>2020-08-13T19:12:00.000Z</time>
      </trkpt>
      <trkpt lat="43.94976" lon="1.81882">
        <ele>282.39999389648</ele>
        <time>2020-08-13T19:12:01.000Z</time>
      </trkpt>
      <trkpt lat="43.94974" lon="1.81881">
        <ele>282.39999389648</ele>
        <time>2020-08-13T19:12:02.000Z</time>
      </trkpt>
      <trkpt lat="43.94972" lon="1.81881">
        <ele>282.39999389648</ele>
        <time>2020-08-13T19:12:03.000Z</time>
      </trkpt>
      <trkpt lat="43.9497" lon="1.81881">
        <ele>282.39999389648</ele>
        <time>2020-08-13T19:12:04.000Z</time>
      </trkpt>
      <trkpt lat="43.94968" lon="1.81881">
        <ele>282.39999389648</ele>
        <time>2020-08-13T19:12:05.000Z</time>
      </trkpt>
      <trkpt lat="43.94966" lon="1.81881">
        <ele>282.60000610352</ele>
        <time>2020-08-13T19:12:06.000Z</time>
      </trkpt>
      <trkpt lat="43.94964" lon="1.81881">
        <ele>282.60000610352</ele>
        <time>2020-08-13T19:12:07.000Z</time>
      </trkpt>
      <trkpt lat="43.94962" lon="1.81881">
        <ele>282.60000610352</ele>
        <time>2020-08-13T19:12:08.000Z</time>
      </trkpt>
      <trkpt lat="43.9496" lon="1.8188">
        <ele>282.60000610352</ele>
        <time>2020-08-13T19:12:09.000Z</time>
      </trkpt>
      <trkpt lat="43.94958" lon="1.8188">
        <ele>282.60000610352</ele>
        <time>2020-08-13T19:12:10.000Z</time>
      </trkpt>
      <trkpt lat="43.94956" lon="1.81879">
        <ele>282.60000610352</ele>
        <time>2020-08-13T19:12:11.000Z</time>
      </trkpt>
      <trkpt lat="43.94954" lon="1.81878">
        <ele>282.60000610352</ele>
        <time>2020-08-13T19:12:12.000Z</time>
      </trkpt>
      <trkpt lat="43.94952" lon="1.81877">
        <ele>282.79998779297</ele>
        <time>2020-08-13T19:12:13.000Z</time>
      </trkpt>
      <trkpt lat="43.9495" lon="1.81876">
        <ele>282.79998779297</ele>
        <time>2020-08-13T19:12:14.000Z</time>
      </trkpt>
      <trkpt lat="43.94949" lon="1.81875">
        <ele>282.60000610352</ele>
        <time>2020-08-13T19:12:15.000Z</time>
      </trkpt>
      <trkpt lat="43.94947" lon="1.81873">
        <ele>282.60000610352</ele>
        <time>2020-08-13T19:12:16.000Z</time>
      </trkpt>
      <trkpt lat="43.94947" lon="1.8187">
        <ele>282.60000610352</ele>
        <time>2020-08-13T19:12:17.000Z</time>
      </trkpt>
      <trkpt lat="43.94948" lon="1.81868">
        <ele>282.60000610352</ele>
        <time>2020-08-13T19:12:18.000Z</time>
      </trkpt>
      <trkpt lat="43.94949" lon="1.81867">
        <ele>282.60000610352</ele>
        <time>2020-08-13T19:12:19.000Z</time>
      </trkpt>
      <trkpt lat="43.94951" lon="1.81866">
        <ele>283</ele>
        <time>2020-08-13T19:12:20.000Z</time>
      </trkpt>
      <trkpt lat="43.94952" lon="1.81866">
        <ele>283.20001220703</ele>
        <time>2020-08-13T19:12:21.000Z</time>
      </trkpt>
      <trkpt lat="43.94954" lon="1.81866">
        <ele>283.20001220703</ele>
        <time>2020-08-13T19:12:22.000Z</time>
      </trkpt>
      <trkpt lat="43.94955" lon="1.81867">
        <ele>283.20001220703</ele>
        <time>2020-08-13T19:12:23.000Z</time>
      </trkpt>
      <trkpt lat="43.94957" lon="1.81868">
        <ele>283.20001220703</ele>
        <time>2020-08-13T19:12:24.000Z</time>
      </trkpt>
      <trkpt lat="43.94958" lon="1.8187">
        <ele>283</ele>
        <time>2020-08-13T19:12:25.000Z</time>
      </trkpt>
      <trkpt lat="43.94959" lon="1.81872">
        <ele>283</ele>
        <time>2020-08-13T19:12:26.000Z</time>
      </trkpt>
      <trkpt lat="43.9496" lon="1.81874">
        <ele>283</ele>
        <time>2020-08-13T19:12:27.000Z</time>
      </trkpt>
      <trkpt lat="43.94962" lon="1.81875">
        <ele>283</ele>
        <time>2020-08-13T19:12:28.000Z</time>
      </trkpt>
      <trkpt lat="43.94963" lon="1.81877">
        <ele>283</ele>
        <time>2020-08-13T19:12:29.000Z</time>
      </trkpt>
      <trkpt lat="43.94964" lon="1.81879">
        <ele>283</ele>
        <time>2020-08-13T19:12:30.000Z</time>
      </trkpt>
      <trkpt lat="43.94966" lon="1.81881">
        <ele>283</ele>
        <time>2020-08-13T19:12:31.000Z</time>
      </trkpt>
      <trkpt lat="43.94968" lon="1.81883">
        <ele>282.79998779297</ele>
        <time>2020-08-13T19:12:32.000Z</time>
      </trkpt>
      <trkpt lat="43.94971" lon="1.81885">
        <ele>282.79998779297</ele>
        <time>2020-08-13T19:12:33.000Z</time>
      </trkpt>
      <trkpt lat="43.94973" lon="1.81885">
        <ele>282.79998779297</ele>
        <time>2020-08-13T19:12:34.000Z</time>
      </trkpt>
      <trkpt lat="43.94976" lon="1.81886">
        <ele>282.60000610352</ele>
        <time>2020-08-13T19:12:35.000Z</time>
      </trkpt>
      <trkpt lat="43.94979" lon="1.81886">
        <ele>282.60000610352</ele>
        <time>2020-08-13T19:12:36.000Z</time>
      </trkpt>
      <trkpt lat="43.94982" lon="1.81887">
        <ele>282.60000610352</ele>
        <time>2020-08-13T19:12:37.000Z</time>
      </trkpt>
      <trkpt lat="43.94985" lon="1.81888">
        <ele>282.39999389648</ele>
        <time>2020-08-13T19:12:38.000Z</time>
      </trkpt>
      <trkpt lat="43.94989" lon="1.81889">
        <ele>282.39999389648</ele>
        <time>2020-08-13T19:12:39.000Z</time>
      </trkpt>
      <trkpt lat="43.94992" lon="1.81889">
        <ele>282.39999389648</ele>
        <time>2020-08-13T19:12:40.000Z</time>
      </trkpt>
      <trkpt lat="43.94995" lon="1.8189">
        <ele>282.20001220703</ele>
        <time>2020-08-13T19:12:41.000Z</time>
      </trkpt>
      <trkpt lat="43.94998" lon="1.81891">
        <ele>282.20001220703</ele>
        <time>2020-08-13T19:12:42.000Z</time>
      </trkpt>
      <trkpt lat="43.95001" lon="1.81891">
        <ele>282</ele>
        <time>2020-08-13T19:12:43.000Z</time>
      </trkpt>
      <trkpt lat="43.95003" lon="1.81889">
        <ele>281.79998779297</ele>
        <time>2020-08-13T19:12:44.000Z</time>
      </trkpt>
      <trkpt lat="43.95004" lon="1.81887">
        <ele>281.60000610352</ele>
        <time>2020-08-13T19:12:45.000Z</time>
      </trkpt>
      <trkpt lat="43.95003" lon="1.81883">
        <ele>281.39999389648</ele>
        <time>2020-08-13T19:12:46.000Z</time>
      </trkpt>
      <trkpt lat="43.95001" lon="1.81881">
        <ele>281.20001220703</ele>
        <time>2020-08-13T19:12:47.000Z</time>
      </trkpt>
      <trkpt lat="43.94999" lon="1.81881">
        <ele>281.20001220703</ele>
        <time>2020-08-13T19:12:48.000Z</time>
      </trkpt>
      <trkpt lat="43.94998" lon="1.81882">
        <ele>281.39999389648</ele>
        <time>2020-08-13T19:12:49.000Z</time>
      </trkpt>
      <trkpt lat="43.94996" lon="1.81883">
        <ele>281.39999389648</ele>
        <time>2020-08-13T19:12:50.000Z</time>
      </trkpt>
      <trkpt lat="43.94995" lon="1.81885">
        <ele>281.39999389648</ele>
        <time>2020-08-13T19:12:51.000Z</time>
      </trkpt>
      <trkpt lat="43.94994" lon="1.81887">
        <ele>281.39999389648</ele>
        <time>2020-08-13T19:12:52.000Z</time>
      </trkpt>
      <trkpt lat="43.94993" lon="1.81888">
        <ele>281.39999389648</ele>
        <time>2020-08-13T19:12:53.000Z</time>
      </trkpt>
      <trkpt lat="43.94992" lon="1.8189">
        <ele>281.60000610352</ele>
        <time>2020-08-13T19:12:54.000Z</time>
      </trkpt>
      <trkpt lat="43.94992" lon="1.81891">
        <ele>281.60000610352</ele>
        <time>2020-08-13T19:12:55.000Z</time>
      </trkpt>
      <trkpt lat="43.94992" lon="1.81891">
        <ele>281.60000610352</ele>
        <time>2020-08-13T19:12:56.000Z</time>
      </trkpt>
      <trkpt lat="43.94991" lon="1.81892">
        <ele>281.60000610352</ele>
        <time>2020-08-13T19:12:57.000Z</time>
      </trkpt>
      <trkpt lat="43.94991" lon="1.81892">
        <ele>281.60000610352</ele>
        <time>2020-08-13T19:12:58.000Z</time>
      </trkpt>
      <trkpt lat="43.94991" lon="1.81892">
        <ele>281.60000610352</ele>
        <time>2020-08-13T19:12:59.000Z</time>
      </trkpt>
      <trkpt lat="43.94991" lon="1.81892">
        <ele>281.60000610352</ele>
        <time>2020-08-13T19:13:00.000Z</time>
      </trkpt>
      <trkpt lat="43.94991" lon="1.81892">
        <ele>281.60000610352</ele>
        <time>2020-08-13T19:13:01.000Z</time>
      </trkpt>
      <trkpt lat="43.94991" lon="1.81892">
        <ele>281.60000610352</ele>
        <time>2020-08-13T19:13:02.000Z</time>
      </trkpt>
      <trkpt lat="43.94991" lon="1.81892">
        <ele>281.60000610352</ele>
        <time>2020-08-13T19:13:03.000Z</time>
      </trkpt>
      <trkpt lat="43.94991" lon="1.81892">
        <ele>281.60000610352</ele>
        <time>2020-08-13T19:13:04.000Z</time>
      </trkpt>
      <trkpt lat="43.94991" lon="1.81892">
        <ele>281.39999389648</ele>
        <time>2020-08-13T19:13:05.000Z</time>
      </trkpt>
      <trkpt lat="43.94991" lon="1.81892">
        <ele>281.39999389648</ele>
        <time>2020-08-13T19:13:06.000Z</time>
      </trkpt>
      <trkpt lat="43.94991" lon="1.81892">
        <ele>281.39999389648</ele>
        <time>2020-08-13T19:13:07.000Z</time>
      </trkpt>
      <trkpt lat="43.94991" lon="1.81892">
        <ele>281.60000610352</ele>
        <time>2020-08-13T19:13:08.000Z</time>
      </trkpt>
      <trkpt lat="43.94991" lon="1.81892">
        <ele>281.39999389648</ele>
        <time>2020-08-13T19:13:09.000Z</time>
      </trkpt>
      <trkpt lat="43.94991" lon="1.81892">
        <ele>281.60000610352</ele>
        <time>2020-08-13T19:13:10.000Z</time>
      </trkpt>
      <trkpt lat="43.94992" lon="1.81892">
        <ele>281.60000610352</ele>
        <time>2020-08-13T19:13:11.000Z</time>
      </trkpt>
      <trkpt lat="43.94993" lon="1.81894">
        <ele>281.60000610352</ele>
        <time>2020-08-13T19:13:12.000Z</time>
      </trkpt>
      <trkpt lat="43.94994" lon="1.81896">
        <ele>281.39999389648</ele>
        <time>2020-08-13T19:13:13.000Z</time>
      </trkpt>
      <trkpt lat="43.94995" lon="1.81897">
        <ele>281.60000610352</ele>
        <time>2020-08-13T19:13:14.000Z</time>
      </trkpt>
      <trkpt lat="43.94997" lon="1.81898">
        <ele>281.60000610352</ele>
        <time>2020-08-13T19:13:15.000Z</time>
      </trkpt>
      <trkpt lat="43.94998" lon="1.81899">
        <ele>281.39999389648</ele>
        <time>2020-08-13T19:13:16.000Z</time>
      </trkpt>
      <trkpt lat="43.95" lon="1.81897">
        <ele>281.20001220703</ele>
        <time>2020-08-13T19:13:17.000Z</time>
      </trkpt>
      <trkpt lat="43.95" lon="1.81895">
        <ele>281.20001220703</ele>
        <time>2020-08-13T19:13:18.000Z</time>
      </trkpt>
      <trkpt lat="43.95" lon="1.81893">
        <ele>281.39999389648</ele>
        <time>2020-08-13T19:13:19.000Z</time>
      </trkpt>
      <trkpt lat="43.95" lon="1.81891">
        <ele>281.20001220703</ele>
        <time>2020-08-13T19:13:20.000Z</time>
      </trkpt>
      <trkpt lat="43.95" lon="1.81888">
        <ele>281.20001220703</ele>
        <time>2020-08-13T19:13:21.000Z</time>
      </trkpt>
      <trkpt lat="43.94999" lon="1.81886">
        <ele>281.20001220703</ele>
        <time>2020-08-13T19:13:22.000Z</time>
      </trkpt>
      <trkpt lat="43.94999" lon="1.81884">
        <ele>281.20001220703</ele>
        <time>2020-08-13T19:13:23.000Z</time>
      </trkpt>
      <trkpt lat="43.94998" lon="1.81882">
        <ele>281.20001220703</ele>
        <time>2020-08-13T19:13:24.000Z</time>
      </trkpt>
      <trkpt lat="43.94998" lon="1.81881">
        <ele>281.20001220703</ele>
        <time>2020-08-13T19:13:25.000Z</time>
      </trkpt>
      <trkpt lat="43.94997" lon="1.8188">
        <ele>281.20001220703</ele>
        <time>2020-08-13T19:13:26.000Z</time>
      </trkpt>
      <trkpt lat="43.94996" lon="1.81881">
        <ele>281.20001220703</ele>
        <time>2020-08-13T19:13:27.000Z</time>
      </trkpt>
      <trkpt lat="43.94995" lon="1.81882">
        <ele>281.20001220703</ele>
        <time>2020-08-13T19:13:28.000Z</time>
      </trkpt>
      <trkpt lat="43.94994" lon="1.81883">
        <ele>281.39999389648</ele>
        <time>2020-08-13T19:13:29.000Z</time>
      </trkpt>
      <trkpt lat="43.94993" lon="1.81885">
        <ele>281.39999389648</ele>
        <time>2020-08-13T19:13:30.000Z</time>
      </trkpt>
      <trkpt lat="43.94992" lon="1.81886">
        <ele>281.39999389648</ele>
        <time>2020-08-13T19:13:31.000Z</time>
      </trkpt>
      <trkpt lat="43.94991" lon="1.81887">
        <ele>281.39999389648</ele>
        <time>2020-08-13T19:13:32.000Z</time>
      </trkpt>
      <trkpt lat="43.9499" lon="1.81888">
        <ele>281.39999389648</ele>
        <time>2020-08-13T19:13:33.000Z</time>
      </trkpt>
      <trkpt lat="43.94989" lon="1.81889">
        <ele>281.39999389648</ele>
        <time>2020-08-13T19:13:34.000Z</time>
      </trkpt>
      <trkpt lat="43.94988" lon="1.81889">
        <ele>281.39999389648</ele>
        <time>2020-08-13T19:13:35.000Z</time>
      </trkpt>
      <trkpt lat="43.94986" lon="1.81888">
        <ele>281.39999389648</ele>
        <time>2020-08-13T19:13:36.000Z</time>
      </trkpt>
      <trkpt lat="43.94985" lon="1.81887">
        <ele>281.39999389648</ele>
        <time>2020-08-13T19:13:37.000Z</time>
      </trkpt>
      <trkpt lat="43.94983" lon="1.81885">
        <ele>281.60000610352</ele>
        <time>2020-08-13T19:13:38.000Z</time>
      </trkpt>
      <trkpt lat="43.94981" lon="1.81884">
        <ele>281.79998779297</ele>
        <time>2020-08-13T19:13:39.000Z</time>
      </trkpt>
      <trkpt lat="43.9498" lon="1.81883">
        <ele>281.79998779297</ele>
        <time>2020-08-13T19:13:40.000Z</time>
      </trkpt>
      <trkpt lat="43.94978" lon="1.81882">
        <ele>282</ele>
        <time>2020-08-13T19:13:41.000Z</time>
      </trkpt>
      <trkpt lat="43.94976" lon="1.81881">
        <ele>282</ele>
        <time>2020-08-13T19:13:42.000Z</time>
      </trkpt>
      <trkpt lat="43.94973" lon="1.8188">
        <ele>282</ele>
        <time>2020-08-13T19:13:43.000Z</time>
      </trkpt>
      <trkpt lat="43.94971" lon="1.8188">
        <ele>282</ele>
        <time>2020-08-13T19:13:44.000Z</time>
      </trkpt>
      <trkpt lat="43.9497" lon="1.8188">
        <ele>282</ele>
        <time>2020-08-13T19:13:45.000Z</time>
      </trkpt>
      <trkpt lat="43.94968" lon="1.8188">
        <ele>282.20001220703</ele>
        <time>2020-08-13T19:13:46.000Z</time>
      </trkpt>
      <trkpt lat="43.94966" lon="1.8188">
        <ele>282.20001220703</ele>
        <time>2020-08-13T19:13:47.000Z</time>
      </trkpt>
      <trkpt lat="43.94965" lon="1.81879">
        <ele>282.20001220703</ele>
        <time>2020-08-13T19:13:48.000Z</time>
      </trkpt>
      <trkpt lat="43.94963" lon="1.81878">
        <ele>282.20001220703</ele>
        <time>2020-08-13T19:13:49.000Z</time>
      </trkpt>
      <trkpt lat="43.94962" lon="1.81877">
        <ele>282.20001220703</ele>
        <time>2020-08-13T19:13:50.000Z</time>
      </trkpt>
      <trkpt lat="43.9496" lon="1.81877">
        <ele>282.39999389648</ele>
        <time>2020-08-13T19:13:51.000Z</time>
      </trkpt>
      <trkpt lat="43.94958" lon="1.81877">
        <ele>282.39999389648</ele>
        <time>2020-08-13T19:13:52.000Z</time>
      </trkpt>
      <trkpt lat="43.94956" lon="1.81876">
        <ele>282.39999389648</ele>
        <time>2020-08-13T19:13:53.000Z</time>
      </trkpt>
      <trkpt lat="43.94954" lon="1.81875">
        <ele>282.39999389648</ele>
        <time>2020-08-13T19:13:54.000Z</time>
      </trkpt>
      <trkpt lat="43.94951" lon="1.81875">
        <ele>282.39999389648</ele>
        <time>2020-08-13T19:13:55.000Z</time>
      </trkpt>
      <trkpt lat="43.94949" lon="1.81875">
        <ele>282.39999389648</ele>
        <time>2020-08-13T19:13:56.000Z</time>
      </trkpt>
      <trkpt lat="43.94947" lon="1.81876">
        <ele>282.39999389648</ele>
        <time>2020-08-13T19:13:57.000Z</time>
      </trkpt>
      <trkpt lat="43.94945" lon="1.81877">
        <ele>282.39999389648</ele>
        <time>2020-08-13T19:13:58.000Z</time>
      </trkpt>
      <trkpt lat="43.94943" lon="1.81879">
        <ele>282.39999389648</ele>
        <time>2020-08-13T19:13:59.000Z</time>
      </trkpt>
      <trkpt lat="43.94942" lon="1.81882">
        <ele>282.39999389648</ele>
        <time>2020-08-13T19:14:00.000Z</time>
      </trkpt>
      <trkpt lat="43.9494" lon="1.81884">
        <ele>282.39999389648</ele>
        <time>2020-08-13T19:14:01.000Z</time>
      </trkpt>
      <trkpt lat="43.94938" lon="1.81887">
        <ele>282.20001220703</ele>
        <time>2020-08-13T19:14:02.000Z</time>
      </trkpt>
      <trkpt lat="43.94936" lon="1.81891">
        <ele>282.20001220703</ele>
        <time>2020-08-13T19:14:03.000Z</time>
      </trkpt>
      <trkpt lat="43.94934" lon="1.81894">
        <ele>282.20001220703</ele>
        <time>2020-08-13T19:14:04.000Z</time>
      </trkpt>
      <trkpt lat="43.94933" lon="1.81897">
        <ele>281.79998779297</ele>
        <time>2020-08-13T19:14:05.000Z</time>
      </trkpt>
      <trkpt lat="43.94931" lon="1.819">
        <ele>281.79998779297</ele>
        <time>2020-08-13T19:14:06.000Z</time>
      </trkpt>
      <trkpt lat="43.94929" lon="1.81904">
        <ele>282</ele>
        <time>2020-08-13T19:14:07.000Z</time>
      </trkpt>
      <trkpt lat="43.94927" lon="1.81907">
        <ele>281.79998779297</ele>
        <time>2020-08-13T19:14:08.000Z</time>
      </trkpt>
      <trkpt lat="43.94925" lon="1.81911">
        <ele>281.79998779297</ele>
        <time>2020-08-13T19:14:09.000Z</time>
      </trkpt>
      <trkpt lat="43.94923" lon="1.81915">
        <ele>281.60000610352</ele>
        <time>2020-08-13T19:14:10.000Z</time>
      </trkpt>
      <trkpt lat="43.94921" lon="1.81918">
        <ele>281.79998779297</ele>
        <time>2020-08-13T19:14:11.000Z</time>
      </trkpt>
      <trkpt lat="43.94919" lon="1.81921">
        <ele>281.79998779297</ele>
        <time>2020-08-13T19:14:12.000Z</time>
      </trkpt>
      <trkpt lat="43.94917" lon="1.81925">
        <ele>281.79998779297</ele>
        <time>2020-08-13T19:14:13.000Z</time>
      </trkpt>
      <trkpt lat="43.94915" lon="1.81929">
        <ele>281.60000610352</ele>
        <time>2020-08-13T19:14:14.000Z</time>
      </trkpt>
      <trkpt lat="43.94913" lon="1.81933">
        <ele>281.39999389648</ele>
        <time>2020-08-13T19:14:15.000Z</time>
      </trkpt>
      <trkpt lat="43.94911" lon="1.81937">
        <ele>281.39999389648</ele>
        <time>2020-08-13T19:14:16.000Z</time>
      </trkpt>
      <trkpt lat="43.94909" lon="1.81941">
        <ele>281.20001220703</ele>
        <time>2020-08-13T19:14:17.000Z</time>
      </trkpt>
      <trkpt lat="43.94907" lon="1.81944">
        <ele>281.20001220703</ele>
        <time>2020-08-13T19:14:18.000Z</time>
      </trkpt>
      <trkpt lat="43.94905" lon="1.81948">
        <ele>281.20001220703</ele>
        <time>2020-08-13T19:14:19.000Z</time>
      </trkpt>
      <trkpt lat="43.94903" lon="1.81952">
        <ele>281.20001220703</ele>
        <time>2020-08-13T19:14:20.000Z</time>
      </trkpt>
      <trkpt lat="43.94901" lon="1.81956">
        <ele>281.20001220703</ele>
        <time>2020-08-13T19:14:21.000Z</time>
      </trkpt>
      <trkpt lat="43.94899" lon="1.8196">
        <ele>281.20001220703</ele>
        <time>2020-08-13T19:14:22.000Z</time>
      </trkpt>
      <trkpt lat="43.94898" lon="1.81964">
        <ele>281</ele>
        <time>2020-08-13T19:14:23.000Z</time>
      </trkpt>
      <trkpt lat="43.94896" lon="1.81968">
        <ele>281</ele>
        <time>2020-08-13T19:14:24.000Z</time>
      </trkpt>
      <trkpt lat="43.94894" lon="1.81972">
        <ele>281</ele>
        <time>2020-08-13T19:14:25.000Z</time>
      </trkpt>
      <trkpt lat="43.94892" lon="1.81975">
        <ele>281</ele>
        <time>2020-08-13T19:14:26.000Z</time>
      </trkpt>
      <trkpt lat="43.9489" lon="1.81979">
        <ele>281</ele>
        <time>2020-08-13T19:14:27.000Z</time>
      </trkpt>
      <trkpt lat="43.94888" lon="1.81982">
        <ele>281</ele>
        <time>2020-08-13T19:14:28.000Z</time>
      </trkpt>
      <trkpt lat="43.94886" lon="1.81986">
        <ele>281</ele>
        <time>2020-08-13T19:14:29.000Z</time>
      </trkpt>
      <trkpt lat="43.94883" lon="1.8199">
        <ele>281</ele>
        <time>2020-08-13T19:14:30.000Z</time>
      </trkpt>
      <trkpt lat="43.94881" lon="1.81994">
        <ele>281</ele>
        <time>2020-08-13T19:14:31.000Z</time>
      </trkpt>
      <trkpt lat="43.94879" lon="1.81998">
        <ele>281</ele>
        <time>2020-08-13T19:14:32.000Z</time>
      </trkpt>
      <trkpt lat="43.94876" lon="1.82002">
        <ele>281</ele>
        <time>2020-08-13T19:14:33.000Z</time>
      </trkpt>
      <trkpt lat="43.94874" lon="1.82006">
        <ele>281</ele>
        <time>2020-08-13T19:14:34.000Z</time>
      </trkpt>
      <trkpt lat="43.94871" lon="1.8201">
        <ele>281</ele>
        <time>2020-08-13T19:14:35.000Z</time>
      </trkpt>
      <trkpt lat="43.94869" lon="1.82014">
        <ele>281</ele>
        <time>2020-08-13T19:14:36.000Z</time>
      </trkpt>
      <trkpt lat="43.94866" lon="1.82018">
        <ele>281</ele>
        <time>2020-08-13T19:14:37.000Z</time>
      </trkpt>
      <trkpt lat="43.94864" lon="1.82022">
        <ele>281</ele>
        <time>2020-08-13T19:14:38.000Z</time>
      </trkpt>
      <trkpt lat="43.94861" lon="1.82027">
        <ele>281</ele>
        <time>2020-08-13T19:14:39.000Z</time>
      </trkpt>
      <trkpt lat="43.94859" lon="1.82031">
        <ele>281</ele>
        <time>2020-08-13T19:14:40.000Z</time>
      </trkpt>
      <trkpt lat="43.94857" lon="1.82035">
        <ele>280.79998779297</ele>
        <time>2020-08-13T19:14:41.000Z</time>
      </trkpt>
      <trkpt lat="43.94854" lon="1.8204">
        <ele>280.79998779297</ele>
        <time>2020-08-13T19:14:42.000Z</time>
      </trkpt>
      <trkpt lat="43.94852" lon="1.82044">
        <ele>280.79998779297</ele>
        <time>2020-08-13T19:14:43.000Z</time>
      </trkpt>
      <trkpt lat="43.94849" lon="1.82048">
        <ele>280.79998779297</ele>
        <time>2020-08-13T19:14:44.000Z</time>
      </trkpt>
      <trkpt lat="43.94847" lon="1.82052">
        <ele>280.79998779297</ele>
        <time>2020-08-13T19:14:45.000Z</time>
      </trkpt>
      <trkpt lat="43.94844" lon="1.82056">
        <ele>280.79998779297</ele>
        <time>2020-08-13T19:14:46.000Z</time>
      </trkpt>
      <trkpt lat="43.94842" lon="1.8206">
        <ele>280.79998779297</ele>
        <time>2020-08-13T19:14:47.000Z</time>
      </trkpt>
      <trkpt lat="43.9484" lon="1.82064">
        <ele>280.79998779297</ele>
        <time>2020-08-13T19:14:48.000Z</time>
      </trkpt>
      <trkpt lat="43.94838" lon="1.82069">
        <ele>280.79998779297</ele>
        <time>2020-08-13T19:14:49.000Z</time>
      </trkpt>
      <trkpt lat="43.94836" lon="1.82073">
        <ele>280.79998779297</ele>
        <time>2020-08-13T19:14:50.000Z</time>
      </trkpt>
      <trkpt lat="43.94835" lon="1.82077">
        <ele>280.60000610352</ele>
        <time>2020-08-13T19:14:51.000Z</time>
      </trkpt>
      <trkpt lat="43.94835" lon="1.82082">
        <ele>280.60000610352</ele>
        <time>2020-08-13T19:14:52.000Z</time>
      </trkpt>
      <trkpt lat="43.94837" lon="1.82086">
        <ele>280.60000610352</ele>
        <time>2020-08-13T19:14:53.000Z</time>
      </trkpt>
      <trkpt lat="43.9484" lon="1.82089">
        <ele>280.60000610352</ele>
        <time>2020-08-13T19:14:54.000Z</time>
      </trkpt>
      <trkpt lat="43.94844" lon="1.82092">
        <ele>280.39999389648</ele>
        <time>2020-08-13T19:14:55.000Z</time>
      </trkpt>
      <trkpt lat="43.94849" lon="1.82095">
        <ele>280.20001220703</ele>
        <time>2020-08-13T19:14:56.000Z</time>
      </trkpt>
      <trkpt lat="43.94853" lon="1.82098">
        <ele>280</ele>
        <time>2020-08-13T19:14:57.000Z</time>
      </trkpt>
      <trkpt lat="43.94858" lon="1.82102">
        <ele>279.79998779297</ele>
        <time>2020-08-13T19:14:58.000Z</time>
      </trkpt>
      <trkpt lat="43.94864" lon="1.82106">
        <ele>279.60000610352</ele>
        <time>2020-08-13T19:14:59.000Z</time>
      </trkpt>
      <trkpt lat="43.9487" lon="1.8211">
        <ele>279.20001220703</ele>
        <time>2020-08-13T19:15:00.000Z</time>
      </trkpt>
      <trkpt lat="43.94875" lon="1.82115">
        <ele>278.79998779297</ele>
        <time>2020-08-13T19:15:01.000Z</time>
      </trkpt>
      <trkpt lat="43.94882" lon="1.82121">
        <ele>278.39999389648</ele>
        <time>2020-08-13T19:15:02.000Z</time>
      </trkpt>
      <trkpt lat="43.94888" lon="1.82126">
        <ele>277.79998779297</ele>
        <time>2020-08-13T19:15:03.000Z</time>
      </trkpt>
      <trkpt lat="43.94896" lon="1.82131">
        <ele>277.60000610352</ele>
        <time>2020-08-13T19:15:04.000Z</time>
      </trkpt>
      <trkpt lat="43.94904" lon="1.82136">
        <ele>277</ele>
        <time>2020-08-13T19:15:05.000Z</time>
      </trkpt>
      <trkpt lat="43.94911" lon="1.82142">
        <ele>276.60000610352</ele>
        <time>2020-08-13T19:15:06.000Z</time>
      </trkpt>
      <trkpt lat="43.94918" lon="1.82147">
        <ele>276</ele>
        <time>2020-08-13T19:15:07.000Z</time>
      </trkpt>
      <trkpt lat="43.94925" lon="1.82154">
        <ele>275.79998779297</ele>
        <time>2020-08-13T19:15:08.000Z</time>
      </trkpt>
      <trkpt lat="43.94931" lon="1.8216">
        <ele>275.79998779297</ele>
        <time>2020-08-13T19:15:09.000Z</time>
      </trkpt>
      <trkpt lat="43.94936" lon="1.82166">
        <ele>275.79998779297</ele>
        <time>2020-08-13T19:15:10.000Z</time>
      </trkpt>
      <trkpt lat="43.94941" lon="1.82171">
        <ele>275.79998779297</ele>
        <time>2020-08-13T19:15:11.000Z</time>
      </trkpt>
      <trkpt lat="43.94946" lon="1.82175">
        <ele>276</ele>
        <time>2020-08-13T19:15:12.000Z</time>
      </trkpt>
      <trkpt lat="43.9495" lon="1.82179">
        <ele>276.39999389648</ele>
        <time>2020-08-13T19:15:13.000Z</time>
      </trkpt>
      <trkpt lat="43.94954" lon="1.82183">
        <ele>276.60000610352</ele>
        <time>2020-08-13T19:15:14.000Z</time>
      </trkpt>
      <trkpt lat="43.94958" lon="1.82187">
        <ele>277</ele>
        <time>2020-08-13T19:15:15.000Z</time>
      </trkpt>
      <trkpt lat="43.94962" lon="1.8219">
        <ele>277.20001220703</ele>
        <time>2020-08-13T19:15:16.000Z</time>
      </trkpt>
      <trkpt lat="43.94966" lon="1.82192">
        <ele>277.39999389648</ele>
        <time>2020-08-13T19:15:17.000Z</time>
      </trkpt>
      <trkpt lat="43.94969" lon="1.82195">
        <ele>277.60000610352</ele>
        <time>2020-08-13T19:15:18.000Z</time>
      </trkpt>
      <trkpt lat="43.94973" lon="1.82197">
        <ele>277.60000610352</ele>
        <time>2020-08-13T19:15:19.000Z</time>
      </trkpt>
      <trkpt lat="43.94977" lon="1.82199">
        <ele>277.79998779297</ele>
        <time>2020-08-13T19:15:20.000Z</time>
      </trkpt>
      <trkpt lat="43.9498" lon="1.82202">
        <ele>277.79998779297</ele>
        <time>2020-08-13T19:15:21.000Z</time>
      </trkpt>
      <trkpt lat="43.94984" lon="1.82204">
        <ele>278</ele>
        <time>2020-08-13T19:15:22.000Z</time>
      </trkpt>
      <trkpt lat="43.94987" lon="1.82205">
        <ele>278</ele>
        <time>2020-08-13T19:15:23.000Z</time>
      </trkpt>
      <trkpt lat="43.94991" lon="1.82207">
        <ele>278</ele>
        <time>2020-08-13T19:15:24.000Z</time>
      </trkpt>
      <trkpt lat="43.94995" lon="1.82209">
        <ele>278</ele>
        <time>2020-08-13T19:15:25.000Z</time>
      </trkpt>
      <trkpt lat="43.94999" lon="1.8221">
        <ele>278</ele>
        <time>2020-08-13T19:15:26.000Z</time>
      </trkpt>
      <trkpt lat="43.95003" lon="1.82211">
        <ele>278.20001220703</ele>
        <time>2020-08-13T19:15:27.000Z</time>
      </trkpt>
      <trkpt lat="43.95007" lon="1.82212">
        <ele>278.20001220703</ele>
        <time>2020-08-13T19:15:28.000Z</time>
      </trkpt>
      <trkpt lat="43.95012" lon="1.82212">
        <ele>278</ele>
        <time>2020-08-13T19:15:29.000Z</time>
      </trkpt>
      <trkpt lat="43.95018" lon="1.82213">
        <ele>277.79998779297</ele>
        <time>2020-08-13T19:15:30.000Z</time>
      </trkpt>
      <trkpt lat="43.95023" lon="1.82213">
        <ele>277.60000610352</ele>
        <time>2020-08-13T19:15:31.000Z</time>
      </trkpt>
      <trkpt lat="43.95029" lon="1.82213">
        <ele>277</ele>
        <time>2020-08-13T19:15:32.000Z</time>
      </trkpt>
      <trkpt lat="43.95035" lon="1.82213">
        <ele>276.79998779297</ele>
        <time>2020-08-13T19:15:33.000Z</time>
      </trkpt>
      <trkpt lat="43.95041" lon="1.82214">
        <ele>276.60000610352</ele>
        <time>2020-08-13T19:15:34.000Z</time>
      </trkpt>
      <trkpt lat="43.95047" lon="1.82215">
        <ele>276.39999389648</ele>
        <time>2020-08-13T19:15:35.000Z</time>
      </trkpt>
      <trkpt lat="43.95052" lon="1.82216">
        <ele>276.60000610352</ele>
        <time>2020-08-13T19:15:36.000Z</time>
      </trkpt>
      <trkpt lat="43.95058" lon="1.82218">
        <ele>276.79998779297</ele>
        <time>2020-08-13T19:15:37.000Z</time>
      </trkpt>
      <trkpt lat="43.95063" lon="1.8222">
        <ele>276.60000610352</ele>
        <time>2020-08-13T19:15:38.000Z</time>
      </trkpt>
      <trkpt lat="43.95067" lon="1.82222">
        <ele>276.60000610352</ele>
        <time>2020-08-13T19:15:39.000Z</time>
      </trkpt>
      <trkpt lat="43.95072" lon="1.82225">
        <ele>276.60000610352</ele>
        <time>2020-08-13T19:15:40.000Z</time>
      </trkpt>
      <trkpt lat="43.95075" lon="1.82229">
        <ele>276.60000610352</ele>
        <time>2020-08-13T19:15:41.000Z</time>
      </trkpt>
      <trkpt lat="43.95077" lon="1.82234">
        <ele>276.60000610352</ele>
        <time>2020-08-13T19:15:42.000Z</time>
      </trkpt>
      <trkpt lat="43.95079" lon="1.82239">
        <ele>276.60000610352</ele>
        <time>2020-08-13T19:15:43.000Z</time>
      </trkpt>
      <trkpt lat="43.9508" lon="1.82245">
        <ele>276.60000610352</ele>
        <time>2020-08-13T19:15:44.000Z</time>
      </trkpt>
      <trkpt lat="43.95082" lon="1.8225">
        <ele>276.39999389648</ele>
        <time>2020-08-13T19:15:45.000Z</time>
      </trkpt>
      <trkpt lat="43.95084" lon="1.82256">
        <ele>276.20001220703</ele>
        <time>2020-08-13T19:15:46.000Z</time>
      </trkpt>
      <trkpt lat="43.95086" lon="1.82261">
        <ele>276</ele>
        <time>2020-08-13T19:15:47.000Z</time>
      </trkpt>
      <trkpt lat="43.95088" lon="1.82266">
        <ele>276</ele>
        <time>2020-08-13T19:15:48.000Z</time>
      </trkpt>
      <trkpt lat="43.9509" lon="1.82271">
        <ele>276</ele>
        <time>2020-08-13T19:15:49.000Z</time>
      </trkpt>
      <trkpt lat="43.95093" lon="1.82275">
        <ele>276.20001220703</ele>
        <time>2020-08-13T19:15:50.000Z</time>
      </trkpt>
      <trkpt lat="43.95096" lon="1.8228">
        <ele>276.60000610352</ele>
        <time>2020-08-13T19:15:51.000Z</time>
      </trkpt>
      <trkpt lat="43.95099" lon="1.82284">
        <ele>276.60000610352</ele>
        <time>2020-08-13T19:15:52.000Z</time>
      </trkpt>
      <trkpt lat="43.95102" lon="1.82289">
        <ele>276.60000610352</ele>
        <time>2020-08-13T19:15:53.000Z</time>
      </trkpt>
      <trkpt lat="43.95106" lon="1.82294">
        <ele>276.39999389648</ele>
        <time>2020-08-13T19:15:54.000Z</time>
      </trkpt>
      <trkpt lat="43.9511" lon="1.82299">
        <ele>276.39999389648</ele>
        <time>2020-08-13T19:15:55.000Z</time>
      </trkpt>
      <trkpt lat="43.95113" lon="1.82303">
        <ele>276.39999389648</ele>
        <time>2020-08-13T19:15:56.000Z</time>
      </trkpt>
      <trkpt lat="43.95116" lon="1.82307">
        <ele>276.20001220703</ele>
        <time>2020-08-13T19:15:57.000Z</time>
      </trkpt>
      <trkpt lat="43.95119" lon="1.82311">
        <ele>275.79998779297</ele>
        <time>2020-08-13T19:15:58.000Z</time>
      </trkpt>
      <trkpt lat="43.95122" lon="1.82315">
        <ele>275.39999389648</ele>
        <time>2020-08-13T19:15:59.000Z</time>
      </trkpt>
      <trkpt lat="43.95125" lon="1.82319">
        <ele>275</ele>
        <time>2020-08-13T19:16:00.000Z</time>
      </trkpt>
      <trkpt lat="43.95129" lon="1.82323">
        <ele>274.60000610352</ele>
        <time>2020-08-13T19:16:01.000Z</time>
      </trkpt>
      <trkpt lat="43.95134" lon="1.82328">
        <ele>274</ele>
        <time>2020-08-13T19:16:02.000Z</time>
      </trkpt>
      <trkpt lat="43.9514" lon="1.82331">
        <ele>273.39999389648</ele>
        <time>2020-08-13T19:16:03.000Z</time>
      </trkpt>
      <trkpt lat="43.95146" lon="1.82334">
        <ele>272.60000610352</ele>
        <time>2020-08-13T19:16:04.000Z</time>
      </trkpt>
      <trkpt lat="43.95152" lon="1.82336">
        <ele>272</ele>
        <time>2020-08-13T19:16:05.000Z</time>
      </trkpt>
      <trkpt lat="43.95158" lon="1.82339">
        <ele>271.60000610352</ele>
        <time>2020-08-13T19:16:06.000Z</time>
      </trkpt>
      <trkpt lat="43.95164" lon="1.82343">
        <ele>271</ele>
        <time>2020-08-13T19:16:07.000Z</time>
      </trkpt>
      <trkpt lat="43.95168" lon="1.8235">
        <ele>270.39999389648</ele>
        <time>2020-08-13T19:16:08.000Z</time>
      </trkpt>
      <trkpt lat="43.95172" lon="1.82357">
        <ele>269.79998779297</ele>
        <time>2020-08-13T19:16:09.000Z</time>
      </trkpt>
      <trkpt lat="43.95175" lon="1.82365">
        <ele>269.39999389648</ele>
        <time>2020-08-13T19:16:10.000Z</time>
      </trkpt>
      <trkpt lat="43.95179" lon="1.82373">
        <ele>268.79998779297</ele>
        <time>2020-08-13T19:16:11.000Z</time>
      </trkpt>
      <trkpt lat="43.95182" lon="1.8238">
        <ele>268.60000610352</ele>
        <time>2020-08-13T19:16:12.000Z</time>
      </trkpt>
      <trkpt lat="43.95186" lon="1.82388">
        <ele>268.60000610352</ele>
        <time>2020-08-13T19:16:13.000Z</time>
      </trkpt>
      <trkpt lat="43.95189" lon="1.82394">
        <ele>268.60000610352</ele>
        <time>2020-08-13T19:16:14.000Z</time>
      </trkpt>
      <trkpt lat="43.95193" lon="1.824">
        <ele>268.39999389648</ele>
        <time>2020-08-13T19:16:15.000Z</time>
      </trkpt>
      <trkpt lat="43.95195" lon="1.82405">
        <ele>268.39999389648</ele>
        <time>2020-08-13T19:16:16.000Z</time>
      </trkpt>
      <trkpt lat="43.95197" lon="1.82409">
        <ele>268.60000610352</ele>
        <time>2020-08-13T19:16:17.000Z</time>
      </trkpt>
      <trkpt lat="43.95198" lon="1.82413">
        <ele>268.79998779297</ele>
        <time>2020-08-13T19:16:18.000Z</time>
      </trkpt>
      <trkpt lat="43.95199" lon="1.82416">
        <ele>269.20001220703</ele>
        <time>2020-08-13T19:16:19.000Z</time>
      </trkpt>
      <trkpt lat="43.95199" lon="1.82419">
        <ele>269.60000610352</ele>
        <time>2020-08-13T19:16:20.000Z</time>
      </trkpt>
      <trkpt lat="43.95198" lon="1.82423">
        <ele>269.79998779297</ele>
        <time>2020-08-13T19:16:21.000Z</time>
      </trkpt>
      <trkpt lat="43.95196" lon="1.82427">
        <ele>269.60000610352</ele>
        <time>2020-08-13T19:16:22.000Z</time>
      </trkpt>
      <trkpt lat="43.95193" lon="1.82431">
        <ele>269.79998779297</ele>
        <time>2020-08-13T19:16:23.000Z</time>
      </trkpt>
      <trkpt lat="43.95189" lon="1.82434">
        <ele>269.79998779297</ele>
        <time>2020-08-13T19:16:24.000Z</time>
      </trkpt>
      <trkpt lat="43.95186" lon="1.82438">
        <ele>270</ele>
        <time>2020-08-13T19:16:25.000Z</time>
      </trkpt>
      <trkpt lat="43.95182" lon="1.82442">
        <ele>270.20001220703</ele>
        <time>2020-08-13T19:16:26.000Z</time>
      </trkpt>
      <trkpt lat="43.95179" lon="1.82446">
        <ele>270.39999389648</ele>
        <time>2020-08-13T19:16:27.000Z</time>
      </trkpt>
      <trkpt lat="43.95176" lon="1.8245">
        <ele>270.60000610352</ele>
        <time>2020-08-13T19:16:28.000Z</time>
      </trkpt>
      <trkpt lat="43.95172" lon="1.82455">
        <ele>270.79998779297</ele>
        <time>2020-08-13T19:16:29.000Z</time>
      </trkpt>
      <trkpt lat="43.9517" lon="1.82459">
        <ele>271.39999389648</ele>
        <time>2020-08-13T19:16:30.000Z</time>
      </trkpt>
      <trkpt lat="43.95168" lon="1.82463">
        <ele>272</ele>
        <time>2020-08-13T19:16:31.000Z</time>
      </trkpt>
      <trkpt lat="43.95166" lon="1.82468">
        <ele>272.39999389648</ele>
        <time>2020-08-13T19:16:32.000Z</time>
      </trkpt>
      <trkpt lat="43.95164" lon="1.82473">
        <ele>272.39999389648</ele>
        <time>2020-08-13T19:16:33.000Z</time>
      </trkpt>
      <trkpt lat="43.95162" lon="1.82478">
        <ele>272.79998779297</ele>
        <time>2020-08-13T19:16:34.000Z</time>
      </trkpt>
      <trkpt lat="43.95161" lon="1.82484">
        <ele>273.20001220703</ele>
        <time>2020-08-13T19:16:35.000Z</time>
      </trkpt>
      <trkpt lat="43.9516" lon="1.82489">
        <ele>273.79998779297</ele>
        <time>2020-08-13T19:16:36.000Z</time>
      </trkpt>
      <trkpt lat="43.95159" lon="1.82495">
        <ele>273.79998779297</ele>
        <time>2020-08-13T19:16:37.000Z</time>
      </trkpt>
      <trkpt lat="43.95159" lon="1.825">
        <ele>274.20001220703</ele>
        <time>2020-08-13T19:16:38.000Z</time>
      </trkpt>
      <trkpt lat="43.95158" lon="1.82506">
        <ele>274.20001220703</ele>
        <time>2020-08-13T19:16:39.000Z</time>
      </trkpt>
      <trkpt lat="43.95156" lon="1.82511">
        <ele>274.20001220703</ele>
        <time>2020-08-13T19:16:40.000Z</time>
      </trkpt>
      <trkpt lat="43.95155" lon="1.82516">
        <ele>274.20001220703</ele>
        <time>2020-08-13T19:16:41.000Z</time>
      </trkpt>
      <trkpt lat="43.95153" lon="1.8252">
        <ele>274.39999389648</ele>
        <time>2020-08-13T19:16:42.000Z</time>
      </trkpt>
      <trkpt lat="43.95151" lon="1.82524">
        <ele>274.79998779297</ele>
        <time>2020-08-13T19:16:43.000Z</time>
      </trkpt>
      <trkpt lat="43.95148" lon="1.82527">
        <ele>275.20001220703</ele>
        <time>2020-08-13T19:16:44.000Z</time>
      </trkpt>
      <trkpt lat="43.95146" lon="1.8253">
        <ele>275.39999389648</ele>
        <time>2020-08-13T19:16:45.000Z</time>
      </trkpt>
      <trkpt lat="43.95143" lon="1.82533">
        <ele>275.79998779297</ele>
        <time>2020-08-13T19:16:46.000Z</time>
      </trkpt>
      <trkpt lat="43.95141" lon="1.82536">
        <ele>276</ele>
        <time>2020-08-13T19:16:47.000Z</time>
      </trkpt>
      <trkpt lat="43.95139" lon="1.82539">
        <ele>276.20001220703</ele>
        <time>2020-08-13T19:16:48.000Z</time>
      </trkpt>
      <trkpt lat="43.95136" lon="1.82541">
        <ele>276.39999389648</ele>
        <time>2020-08-13T19:16:49.000Z</time>
      </trkpt>
      <trkpt lat="43.95134" lon="1.82544">
        <ele>276.39999389648</ele>
        <time>2020-08-13T19:16:50.000Z</time>
      </trkpt>
      <trkpt lat="43.95132" lon="1.82547">
        <ele>276.60000610352</ele>
        <time>2020-08-13T19:16:51.000Z</time>
      </trkpt>
      <trkpt lat="43.95131" lon="1.82552">
        <ele>276.60000610352</ele>
        <time>2020-08-13T19:16:52.000Z</time>
      </trkpt>
      <trkpt lat="43.9513" lon="1.82557">
        <ele>276.79998779297</ele>
        <time>2020-08-13T19:16:53.000Z</time>
      </trkpt>
      <trkpt lat="43.9513" lon="1.82562">
        <ele>277</ele>
        <time>2020-08-13T19:16:54.000Z</time>
      </trkpt>
      <trkpt lat="43.9513" lon="1.82567">
        <ele>277.20001220703</ele>
        <time>2020-08-13T19:16:55.000Z</time>
      </trkpt>
      <trkpt lat="43.9513" lon="1.8257">
        <ele>277.60000610352</ele>
        <time>2020-08-13T19:16:56.000Z</time>
      </trkpt>
      <trkpt lat="43.9513" lon="1.82574">
        <ele>278</ele>
        <time>2020-08-13T19:16:57.000Z</time>
      </trkpt>
      <trkpt lat="43.9513" lon="1.82577">
        <ele>278.20001220703</ele>
        <time>2020-08-13T19:16:58.000Z</time>
      </trkpt>
      <trkpt lat="43.95131" lon="1.82581">
        <ele>278.60000610352</ele>
        <time>2020-08-13T19:16:59.000Z</time>
      </trkpt>
      <trkpt lat="43.95131" lon="1.82585">
        <ele>278.79998779297</ele>
        <time>2020-08-13T19:17:00.000Z</time>
      </trkpt>
      <trkpt lat="43.95132" lon="1.8259">
        <ele>278.79998779297</ele>
        <time>2020-08-13T19:17:01.000Z</time>
      </trkpt>
      <trkpt lat="43.95132" lon="1.82595">
        <ele>279</ele>
        <time>2020-08-13T19:17:02.000Z</time>
      </trkpt>
      <trkpt lat="43.95133" lon="1.82599">
        <ele>279</ele>
        <time>2020-08-13T19:17:03.000Z</time>
      </trkpt>
      <trkpt lat="43.95133" lon="1.82603">
        <ele>279.20001220703</ele>
        <time>2020-08-13T19:17:04.000Z</time>
      </trkpt>
      <trkpt lat="43.95134" lon="1.82607">
        <ele>279.20001220703</ele>
        <time>2020-08-13T19:17:05.000Z</time>
      </trkpt>
      <trkpt lat="43.95134" lon="1.82611">
        <ele>279.20001220703</ele>
        <time>2020-08-13T19:17:06.000Z</time>
      </trkpt>
      <trkpt lat="43.95134" lon="1.82614">
        <ele>279.39999389648</ele>
        <time>2020-08-13T19:17:07.000Z</time>
      </trkpt>
      <trkpt lat="43.95135" lon="1.82618">
        <ele>279.60000610352</ele>
        <time>2020-08-13T19:17:08.000Z</time>
      </trkpt>
      <trkpt lat="43.95135" lon="1.82622">
        <ele>279.60000610352</ele>
        <time>2020-08-13T19:17:09.000Z</time>
      </trkpt>
      <trkpt lat="43.95135" lon="1.82626">
        <ele>279.79998779297</ele>
        <time>2020-08-13T19:17:10.000Z</time>
      </trkpt>
      <trkpt lat="43.95135" lon="1.8263">
        <ele>280</ele>
        <time>2020-08-13T19:17:11.000Z</time>
      </trkpt>
      <trkpt lat="43.95135" lon="1.82633">
        <ele>280.20001220703</ele>
        <time>2020-08-13T19:17:12.000Z</time>
      </trkpt>
      <trkpt lat="43.95135" lon="1.82637">
        <ele>280.20001220703</ele>
        <time>2020-08-13T19:17:13.000Z</time>
      </trkpt>
      <trkpt lat="43.95135" lon="1.82642">
        <ele>280.39999389648</ele>
        <time>2020-08-13T19:17:14.000Z</time>
      </trkpt>
      <trkpt lat="43.95135" lon="1.82646">
        <ele>280.39999389648</ele>
        <time>2020-08-13T19:17:15.000Z</time>
      </trkpt>
      <trkpt lat="43.95135" lon="1.8265">
        <ele>280.39999389648</ele>
        <time>2020-08-13T19:17:16.000Z</time>
      </trkpt>
      <trkpt lat="43.95135" lon="1.82654">
        <ele>280.60000610352</ele>
        <time>2020-08-13T19:17:17.000Z</time>
      </trkpt>
      <trkpt lat="43.95135" lon="1.8266">
        <ele>280.60000610352</ele>
        <time>2020-08-13T19:17:18.000Z</time>
      </trkpt>
      <trkpt lat="43.95135" lon="1.82665">
        <ele>280.79998779297</ele>
        <time>2020-08-13T19:17:19.000Z</time>
      </trkpt>
      <trkpt lat="43.95135" lon="1.82671">
        <ele>281</ele>
        <time>2020-08-13T19:17:20.000Z</time>
      </trkpt>
      <trkpt lat="43.95135" lon="1.82677">
        <ele>281.20001220703</ele>
        <time>2020-08-13T19:17:21.000Z</time>
      </trkpt>
      <trkpt lat="43.95136" lon="1.82683">
        <ele>281.20001220703</ele>
        <time>2020-08-13T19:17:22.000Z</time>
      </trkpt>
      <trkpt lat="43.95136" lon="1.82689">
        <ele>281.20001220703</ele>
        <time>2020-08-13T19:17:23.000Z</time>
      </trkpt>
      <trkpt lat="43.95136" lon="1.82696">
        <ele>281.39999389648</ele>
        <time>2020-08-13T19:17:24.000Z</time>
      </trkpt>
      <trkpt lat="43.95137" lon="1.82702">
        <ele>281.60000610352</ele>
        <time>2020-08-13T19:17:25.000Z</time>
      </trkpt>
      <trkpt lat="43.95137" lon="1.82708">
        <ele>281.79998779297</ele>
        <time>2020-08-13T19:17:26.000Z</time>
      </trkpt>
      <trkpt lat="43.95137" lon="1.82715">
        <ele>281.79998779297</ele>
        <time>2020-08-13T19:17:27.000Z</time>
      </trkpt>
      <trkpt lat="43.95137" lon="1.82721">
        <ele>281.79998779297</ele>
        <time>2020-08-13T19:17:28.000Z</time>
      </trkpt>
      <trkpt lat="43.95137" lon="1.82727">
        <ele>281.60000610352</ele>
        <time>2020-08-13T19:17:29.000Z</time>
      </trkpt>
      <trkpt lat="43.95137" lon="1.82734">
        <ele>281.79998779297</ele>
        <time>2020-08-13T19:17:30.000Z</time>
      </trkpt>
      <trkpt lat="43.95137" lon="1.8274">
        <ele>281.79998779297</ele>
        <time>2020-08-13T19:17:31.000Z</time>
      </trkpt>
      <trkpt lat="43.95137" lon="1.82748">
        <ele>281.60000610352</ele>
        <time>2020-08-13T19:17:32.000Z</time>
      </trkpt>
      <trkpt lat="43.95137" lon="1.82755">
        <ele>281.60000610352</ele>
        <time>2020-08-13T19:17:33.000Z</time>
      </trkpt>
      <trkpt lat="43.95137" lon="1.82762">
        <ele>281.39999389648</ele>
        <time>2020-08-13T19:17:34.000Z</time>
      </trkpt>
      <trkpt lat="43.95137" lon="1.82769">
        <ele>281</ele>
        <time>2020-08-13T19:17:35.000Z</time>
      </trkpt>
      <trkpt lat="43.95135" lon="1.82776">
        <ele>280.79998779297</ele>
        <time>2020-08-13T19:17:36.000Z</time>
      </trkpt>
      <trkpt lat="43.95133" lon="1.82779">
        <ele>280.60000610352</ele>
        <time>2020-08-13T19:17:37.000Z</time>
      </trkpt>
      <trkpt lat="43.95131" lon="1.82782">
        <ele>280.60000610352</ele>
        <time>2020-08-13T19:17:38.000Z</time>
      </trkpt>
      <trkpt lat="43.95129" lon="1.82785">
        <ele>280.20001220703</ele>
        <time>2020-08-13T19:17:39.000Z</time>
      </trkpt>
      <trkpt lat="43.95128" lon="1.82786">
        <ele>279.39999389648</ele>
        <time>2020-08-13T19:17:40.000Z</time>
      </trkpt>
      <trkpt lat="43.95127" lon="1.82787">
        <ele>278.79998779297</ele>
        <time>2020-08-13T19:17:41.000Z</time>
      </trkpt>
      <trkpt lat="43.95127" lon="1.82786">
        <ele>278.39999389648</ele>
        <time>2020-08-13T19:17:42.000Z</time>
      </trkpt>
      <trkpt lat="43.95126" lon="1.82787">
        <ele>278.39999389648</ele>
        <time>2020-08-13T19:17:43.000Z</time>
      </trkpt>
      <trkpt lat="43.95126" lon="1.82787">
        <ele>278.20001220703</ele>
        <time>2020-08-13T19:17:44.000Z</time>
      </trkpt>
      <trkpt lat="43.95125" lon="1.82787">
        <ele>278.39999389648</ele>
        <time>2020-08-13T19:17:45.000Z</time>
      </trkpt>
      <trkpt lat="43.95125" lon="1.82787">
        <ele>278.60000610352</ele>
        <time>2020-08-13T19:17:46.000Z</time>
      </trkpt>
      <trkpt lat="43.95125" lon="1.82787">
        <ele>278.79998779297</ele>
        <time>2020-08-13T19:17:47.000Z</time>
      </trkpt>
      <trkpt lat="43.95125" lon="1.82787">
        <ele>279</ele>
        <time>2020-08-13T19:17:48.000Z</time>
      </trkpt>
      <trkpt lat="43.95125" lon="1.82787">
        <ele>279</ele>
        <time>2020-08-13T19:17:49.000Z</time>
      </trkpt>
      <trkpt lat="43.95125" lon="1.82787">
        <ele>279</ele>
        <time>2020-08-13T19:17:50.000Z</time>
      </trkpt>
      <trkpt lat="43.95125" lon="1.82787">
        <ele>279</ele>
        <time>2020-08-13T19:17:51.000Z</time>
      </trkpt>
      <trkpt lat="43.95125" lon="1.82788">
        <ele>279</ele>
        <time>2020-08-13T19:17:52.000Z</time>
      </trkpt>
      <trkpt lat="43.95125" lon="1.82788">
        <ele>279.20001220703</ele>
        <time>2020-08-13T19:17:53.000Z</time>
      </trkpt>
      <trkpt lat="43.95125" lon="1.82788">
        <ele>279.20001220703</ele>
        <time>2020-08-13T19:17:54.000Z</time>
      </trkpt>
      <trkpt lat="43.95125" lon="1.82788">
        <ele>279.20001220703</ele>
        <time>2020-08-13T19:17:55.000Z</time>
      </trkpt>
      <trkpt lat="43.95125" lon="1.82788">
        <ele>279.20001220703</ele>
        <time>2020-08-13T19:17:56.000Z</time>
      </trkpt>
      <trkpt lat="43.95125" lon="1.8279">
        <ele>279.20001220703</ele>
        <time>2020-08-13T19:17:57.000Z</time>
      </trkpt>
      <trkpt lat="43.95125" lon="1.82791">
        <ele>279.20001220703</ele>
        <time>2020-08-13T19:17:58.000Z</time>
      </trkpt>
      <trkpt lat="43.95125" lon="1.82793">
        <ele>279.39999389648</ele>
        <time>2020-08-13T19:17:59.000Z</time>
      </trkpt>
      <trkpt lat="43.95124" lon="1.82795">
        <ele>279.39999389648</ele>
        <time>2020-08-13T19:18:00.000Z</time>
      </trkpt>
      <trkpt lat="43.95124" lon="1.82797">
        <ele>279.79998779297</ele>
        <time>2020-08-13T19:18:01.000Z</time>
      </trkpt>
      <trkpt lat="43.95123" lon="1.828">
        <ele>280</ele>
        <time>2020-08-13T19:18:02.000Z</time>
      </trkpt>
      <trkpt lat="43.95123" lon="1.82804">
        <ele>280.20001220703</ele>
        <time>2020-08-13T19:18:03.000Z</time>
      </trkpt>
      <trkpt lat="43.95122" lon="1.82807">
        <ele>280.39999389648</ele>
        <time>2020-08-13T19:18:04.000Z</time>
      </trkpt>
      <trkpt lat="43.9512" lon="1.82811">
        <ele>280.39999389648</ele>
        <time>2020-08-13T19:18:05.000Z</time>
      </trkpt>
      <trkpt lat="43.95119" lon="1.82815">
        <ele>280.79998779297</ele>
        <time>2020-08-13T19:18:06.000Z</time>
      </trkpt>
      <trkpt lat="43.95118" lon="1.82819">
        <ele>281</ele>
        <time>2020-08-13T19:18:07.000Z</time>
      </trkpt>
      <trkpt lat="43.95118" lon="1.82823">
        <ele>281.20001220703</ele>
        <time>2020-08-13T19:18:08.000Z</time>
      </trkpt>
      <trkpt lat="43.95118" lon="1.82827">
        <ele>281.20001220703</ele>
        <time>2020-08-13T19:18:09.000Z</time>
      </trkpt>
      <trkpt lat="43.95117" lon="1.82829">
        <ele>281.39999389648</ele>
        <time>2020-08-13T19:18:10.000Z</time>
      </trkpt>
      <trkpt lat="43.95117" lon="1.82831">
        <ele>281.60000610352</ele>
        <time>2020-08-13T19:18:11.000Z</time>
      </trkpt>
      <trkpt lat="43.95116" lon="1.82831">
        <ele>281.39999389648</ele>
        <time>2020-08-13T19:18:12.000Z</time>
      </trkpt>
      <trkpt lat="43.95114" lon="1.8283">
        <ele>281.39999389648</ele>
        <time>2020-08-13T19:18:13.000Z</time>
      </trkpt>
      <trkpt lat="43.95112" lon="1.82829">
        <ele>281.20001220703</ele>
        <time>2020-08-13T19:18:14.000Z</time>
      </trkpt>
      <trkpt lat="43.9511" lon="1.82829">
        <ele>280.79998779297</ele>
        <time>2020-08-13T19:18:15.000Z</time>
      </trkpt>
      <trkpt lat="43.95107" lon="1.82829">
        <ele>280.39999389648</ele>
        <time>2020-08-13T19:18:16.000Z</time>
      </trkpt>
      <trkpt lat="43.95103" lon="1.82829">
        <ele>280</ele>
        <time>2020-08-13T19:18:17.000Z</time>
      </trkpt>
      <trkpt lat="43.95098" lon="1.82828">
        <ele>279.39999389648</ele>
        <time>2020-08-13T19:18:18.000Z</time>
      </trkpt>
      <trkpt lat="43.95093" lon="1.82827">
        <ele>278.79998779297</ele>
        <time>2020-08-13T19:18:19.000Z</time>
      </trkpt>
      <trkpt lat="43.95088" lon="1.82826">
        <ele>278</ele>
        <time>2020-08-13T19:18:20.000Z</time>
      </trkpt>
      <trkpt lat="43.95083" lon="1.82823">
        <ele>277.60000610352</ele>
        <time>2020-08-13T19:18:21.000Z</time>
      </trkpt>
      <trkpt lat="43.95079" lon="1.8282">
        <ele>277.39999389648</ele>
        <time>2020-08-13T19:18:22.000Z</time>
      </trkpt>
      <trkpt lat="43.95076" lon="1.82815">
        <ele>277</ele>
        <time>2020-08-13T19:18:23.000Z</time>
      </trkpt>
      <trkpt lat="43.95073" lon="1.8281">
        <ele>276.60000610352</ele>
        <time>2020-08-13T19:18:24.000Z</time>
      </trkpt>
      <trkpt lat="43.95071" lon="1.82804">
        <ele>276.20001220703</ele>
        <time>2020-08-13T19:18:25.000Z</time>
      </trkpt>
      <trkpt lat="43.9507" lon="1.82798">
        <ele>275.60000610352</ele>
        <time>2020-08-13T19:18:26.000Z</time>
      </trkpt>
      <trkpt lat="43.95067" lon="1.82791">
        <ele>275</ele>
        <time>2020-08-13T19:18:27.000Z</time>
      </trkpt>
      <trkpt lat="43.95065" lon="1.82786">
        <ele>274.60000610352</ele>
        <time>2020-08-13T19:18:28.000Z</time>
      </trkpt>
      <trkpt lat="43.95063" lon="1.82781">
        <ele>274.20001220703</ele>
        <time>2020-08-13T19:18:29.000Z</time>
      </trkpt>
      <trkpt lat="43.95061" lon="1.82778">
        <ele>274</ele>
        <time>2020-08-13T19:18:30.000Z</time>
      </trkpt>
      <trkpt lat="43.95059" lon="1.82774">
        <ele>274</ele>
        <time>2020-08-13T19:18:31.000Z</time>
      </trkpt>
      <trkpt lat="43.95058" lon="1.82771">
        <ele>273.79998779297</ele>
        <time>2020-08-13T19:18:32.000Z</time>
      </trkpt>
      <trkpt lat="43.95056" lon="1.82767">
        <ele>273.79998779297</ele>
        <time>2020-08-13T19:18:33.000Z</time>
      </trkpt>
      <trkpt lat="43.95054" lon="1.82763">
        <ele>273.39999389648</ele>
        <time>2020-08-13T19:18:34.000Z</time>
      </trkpt>
      <trkpt lat="43.95051" lon="1.82759">
        <ele>273.20001220703</ele>
        <time>2020-08-13T19:18:35.000Z</time>
      </trkpt>
      <trkpt lat="43.95049" lon="1.82754">
        <ele>273</ele>
        <time>2020-08-13T19:18:36.000Z</time>
      </trkpt>
      <trkpt lat="43.95046" lon="1.82749">
        <ele>272.79998779297</ele>
        <time>2020-08-13T19:18:37.000Z</time>
      </trkpt>
      <trkpt lat="43.95043" lon="1.82744">
        <ele>272.39999389648</ele>
        <time>2020-08-13T19:18:38.000Z</time>
      </trkpt>
      <trkpt lat="43.95039" lon="1.82739">
        <ele>272</ele>
        <time>2020-08-13T19:18:39.000Z</time>
      </trkpt>
      <trkpt lat="43.95036" lon="1.82735">
        <ele>271.60000610352</ele>
        <time>2020-08-13T19:18:40.000Z</time>
      </trkpt>
      <trkpt lat="43.95032" lon="1.82731">
        <ele>271</ele>
        <time>2020-08-13T19:18:41.000Z</time>
      </trkpt>
      <trkpt lat="43.95027" lon="1.82727">
        <ele>270.79998779297</ele>
        <time>2020-08-13T19:18:42.000Z</time>
      </trkpt>
      <trkpt lat="43.95023" lon="1.82724">
        <ele>270.39999389648</ele>
        <time>2020-08-13T19:18:43.000Z</time>
      </trkpt>
      <trkpt lat="43.95019" lon="1.82722">
        <ele>270</ele>
        <time>2020-08-13T19:18:44.000Z</time>
      </trkpt>
      <trkpt lat="43.95015" lon="1.8272">
        <ele>269.60000610352</ele>
        <time>2020-08-13T19:18:45.000Z</time>
      </trkpt>
      <trkpt lat="43.95012" lon="1.82718">
        <ele>269.20001220703</ele>
        <time>2020-08-13T19:18:46.000Z</time>
      </trkpt>
      <trkpt lat="43.95008" lon="1.82716">
        <ele>268.79998779297</ele>
        <time>2020-08-13T19:18:47.000Z</time>
      </trkpt>
      <trkpt lat="43.95005" lon="1.82715">
        <ele>268.39999389648</ele>
        <time>2020-08-13T19:18:48.000Z</time>
      </trkpt>
      <trkpt lat="43.95002" lon="1.82714">
        <ele>268</ele>
        <time>2020-08-13T19:18:49.000Z</time>
      </trkpt>
      <trkpt lat="43.94999" lon="1.82715">
        <ele>267.39999389648</ele>
        <time>2020-08-13T19:18:50.000Z</time>
      </trkpt>
      <trkpt lat="43.94996" lon="1.82716">
        <ele>267.20001220703</ele>
        <time>2020-08-13T19:18:51.000Z</time>
      </trkpt>
      <trkpt lat="43.94994" lon="1.82718">
        <ele>267</ele>
        <time>2020-08-13T19:18:52.000Z</time>
      </trkpt>
      <trkpt lat="43.94991" lon="1.8272">
        <ele>266.79998779297</ele>
        <time>2020-08-13T19:18:53.000Z</time>
      </trkpt>
      <trkpt lat="43.94988" lon="1.8272">
        <ele>266.60000610352</ele>
        <time>2020-08-13T19:18:54.000Z</time>
      </trkpt>
      <trkpt lat="43.94984" lon="1.82719">
        <ele>266.39999389648</ele>
        <time>2020-08-13T19:18:55.000Z</time>
      </trkpt>
      <trkpt lat="43.94979" lon="1.82717">
        <ele>265.79998779297</ele>
        <time>2020-08-13T19:18:56.000Z</time>
      </trkpt>
      <trkpt lat="43.94975" lon="1.82717">
        <ele>265.20001220703</ele>
        <time>2020-08-13T19:18:57.000Z</time>
      </trkpt>
      <trkpt lat="43.9497" lon="1.82716">
        <ele>264.39999389648</ele>
        <time>2020-08-13T19:18:58.000Z</time>
      </trkpt>
      <trkpt lat="43.94965" lon="1.82716">
        <ele>263.39999389648</ele>
        <time>2020-08-13T19:18:59.000Z</time>
      </trkpt>
      <trkpt lat="43.9496" lon="1.82715">
        <ele>262.60000610352</ele>
        <time>2020-08-13T19:19:00.000Z</time>
      </trkpt>
      <trkpt lat="43.94956" lon="1.82715">
        <ele>261.79998779297</ele>
        <time>2020-08-13T19:19:01.000Z</time>
      </trkpt>
      <trkpt lat="43.94953" lon="1.82715">
        <ele>261.20001220703</ele>
        <time>2020-08-13T19:19:02.000Z</time>
      </trkpt>
      <trkpt lat="43.94951" lon="1.82715">
        <ele>260.79998779297</ele>
        <time>2020-08-13T19:19:03.000Z</time>
      </trkpt>
      <trkpt lat="43.94949" lon="1.82716">
        <ele>260.39999389648</ele>
        <time>2020-08-13T19:19:04.000Z</time>
      </trkpt>
      <trkpt lat="43.94948" lon="1.82716">
        <ele>260</ele>
        <time>2020-08-13T19:19:05.000Z</time>
      </trkpt>
      <trkpt lat="43.94949" lon="1.82716">
        <ele>259.79998779297</ele>
        <time>2020-08-13T19:19:06.000Z</time>
      </trkpt>
      <trkpt lat="43.94948" lon="1.82716">
        <ele>259.60000610352</ele>
        <time>2020-08-13T19:19:07.000Z</time>
      </trkpt>
      <trkpt lat="43.94948" lon="1.82716">
        <ele>259.79998779297</ele>
        <time>2020-08-13T19:19:08.000Z</time>
      </trkpt>
      <trkpt lat="43.94948" lon="1.82716">
        <ele>259.60000610352</ele>
        <time>2020-08-13T19:19:09.000Z</time>
      </trkpt>
      <trkpt lat="43.94948" lon="1.82716">
        <ele>259.79998779297</ele>
        <time>2020-08-13T19:19:10.000Z</time>
      </trkpt>
      <trkpt lat="43.94948" lon="1.82716">
        <ele>259.60000610352</ele>
        <time>2020-08-13T19:19:11.000Z</time>
      </trkpt>
      <trkpt lat="43.94948" lon="1.82716">
        <ele>259.79998779297</ele>
        <time>2020-08-13T19:19:12.000Z</time>
      </trkpt>
      <trkpt lat="43.94948" lon="1.82716">
        <ele>259.60000610352</ele>
        <time>2020-08-13T19:19:13.000Z</time>
      </trkpt>
      <trkpt lat="43.94948" lon="1.82716">
        <ele>259.79998779297</ele>
        <time>2020-08-13T19:19:14.000Z</time>
      </trkpt>
      <trkpt lat="43.94948" lon="1.82716">
        <ele>259.60000610352</ele>
        <time>2020-08-13T19:19:15.000Z</time>
      </trkpt>
      <trkpt lat="43.94948" lon="1.82716">
        <ele>259.60000610352</ele>
        <time>2020-08-13T19:19:16.000Z</time>
      </trkpt>
      <trkpt lat="43.94948" lon="1.82716">
        <ele>259.60000610352</ele>
        <time>2020-08-13T19:19:17.000Z</time>
      </trkpt>
      <trkpt lat="43.94948" lon="1.82716">
        <ele>259.60000610352</ele>
        <time>2020-08-13T19:19:18.000Z</time>
      </trkpt>
      <trkpt lat="43.94948" lon="1.82716">
        <ele>259.60000610352</ele>
        <time>2020-08-13T19:19:19.000Z</time>
      </trkpt>
      <trkpt lat="43.94948" lon="1.82716">
        <ele>259.60000610352</ele>
        <time>2020-08-13T19:19:20.000Z</time>
      </trkpt>
      <trkpt lat="43.94948" lon="1.82716">
        <ele>259.60000610352</ele>
        <time>2020-08-13T19:19:21.000Z</time>
      </trkpt>
      <trkpt lat="43.94948" lon="1.82716">
        <ele>259.60000610352</ele>
        <time>2020-08-13T19:19:22.000Z</time>
      </trkpt>
      <trkpt lat="43.94948" lon="1.82716">
        <ele>259.60000610352</ele>
        <time>2020-08-13T19:19:23.000Z</time>
      </trkpt>
      <trkpt lat="43.94948" lon="1.82716">
        <ele>259.60000610352</ele>
        <time>2020-08-13T19:19:24.000Z</time>
      </trkpt>
      <trkpt lat="43.94948" lon="1.82716">
        <ele>259.60000610352</ele>
        <time>2020-08-13T19:19:25.000Z</time>
      </trkpt>
      <trkpt lat="43.94948" lon="1.82716">
        <ele>259.60000610352</ele>
        <time>2020-08-13T19:19:26.000Z</time>
      </trkpt>
      <trkpt lat="43.94948" lon="1.82716">
        <ele>259.60000610352</ele>
        <time>2020-08-13T19:19:27.000Z</time>
      </trkpt>
      <trkpt lat="43.94948" lon="1.82716">
        <ele>259.60000610352</ele>
        <time>2020-08-13T19:19:28.000Z</time>
      </trkpt>
      <trkpt lat="43.94948" lon="1.82716">
        <ele>259.60000610352</ele>
        <time>2020-08-13T19:19:29.000Z</time>
      </trkpt>
      <trkpt lat="43.94948" lon="1.82716">
        <ele>259.60000610352</ele>
        <time>2020-08-13T19:19:30.000Z</time>
      </trkpt>
      <trkpt lat="43.94948" lon="1.82716">
        <ele>259.60000610352</ele>
        <time>2020-08-13T19:19:31.000Z</time>
      </trkpt>
      <trkpt lat="43.94948" lon="1.82716">
        <ele>259.79998779297</ele>
        <time>2020-08-13T19:19:32.000Z</time>
      </trkpt>
      <trkpt lat="43.94948" lon="1.82716">
        <ele>259.60000610352</ele>
        <time>2020-08-13T19:19:33.000Z</time>
      </trkpt>
      <trkpt lat="43.94948" lon="1.82716">
        <ele>259.60000610352</ele>
        <time>2020-08-13T19:19:34.000Z</time>
      </trkpt>
      <trkpt lat="43.94948" lon="1.82716">
        <ele>259.60000610352</ele>
        <time>2020-08-13T19:19:35.000Z</time>
      </trkpt>
      <trkpt lat="43.94948" lon="1.82716">
        <ele>259.60000610352</ele>
        <time>2020-08-13T19:19:36.000Z</time>
      </trkpt>
      <trkpt lat="43.94948" lon="1.82716">
        <ele>259.60000610352</ele>
        <time>2020-08-13T19:19:37.000Z</time>
      </trkpt>
      <trkpt lat="43.94948" lon="1.82716">
        <ele>259.60000610352</ele>
        <time>2020-08-13T19:19:38.000Z</time>
      </trkpt>
      <trkpt lat="43.94948" lon="1.82716">
        <ele>259.60000610352</ele>
        <time>2020-08-13T19:19:39.000Z</time>
      </trkpt>
      <trkpt lat="43.94948" lon="1.82716">
        <ele>259.60000610352</ele>
        <time>2020-08-13T19:19:40.000Z</time>
      </trkpt>
      <trkpt lat="43.94948" lon="1.82716">
        <ele>259.60000610352</ele>
        <time>2020-08-13T19:19:41.000Z</time>
      </trkpt>
      <trkpt lat="43.94948" lon="1.82716">
        <ele>259.60000610352</ele>
        <time>2020-08-13T19:19:42.000Z</time>
      </trkpt>
      <trkpt lat="43.94948" lon="1.82716">
        <ele>259.60000610352</ele>
        <time>2020-08-13T19:19:43.000Z</time>
      </trkpt>
      <trkpt lat="43.94948" lon="1.82716">
        <ele>259.60000610352</ele>
        <time>2020-08-13T19:19:44.000Z</time>
      </trkpt>
      <trkpt lat="43.94948" lon="1.82716">
        <ele>259.60000610352</ele>
        <time>2020-08-13T19:19:45.000Z</time>
      </trkpt>
      <trkpt lat="43.94948" lon="1.82716">
        <ele>259.60000610352</ele>
        <time>2020-08-13T19:19:46.000Z</time>
      </trkpt>
      <trkpt lat="43.94948" lon="1.82716">
        <ele>259.60000610352</ele>
        <time>2020-08-13T19:19:47.000Z</time>
      </trkpt>
      <trkpt lat="43.94948" lon="1.82716">
        <ele>259.60000610352</ele>
        <time>2020-08-13T19:19:48.000Z</time>
      </trkpt>
      <trkpt lat="43.94948" lon="1.82716">
        <ele>259.60000610352</ele>
        <time>2020-08-13T19:19:49.000Z</time>
      </trkpt>
      <trkpt lat="43.94948" lon="1.82716">
        <ele>259.60000610352</ele>
        <time>2020-08-13T19:19:50.000Z</time>
      </trkpt>
      <trkpt lat="43.94948" lon="1.82716">
        <ele>259.60000610352</ele>
        <time>2020-08-13T19:19:51.000Z</time>
      </trkpt>
      <trkpt lat="43.94948" lon="1.82716">
        <ele>259.60000610352</ele>
        <time>2020-08-13T19:19:52.000Z</time>
      </trkpt>
      <trkpt lat="43.94948" lon="1.82716">
        <ele>259.60000610352</ele>
        <time>2020-08-13T19:19:53.000Z</time>
      </trkpt>
      <trkpt lat="43.94948" lon="1.82716">
        <ele>259.60000610352</ele>
        <time>2020-08-13T19:19:54.000Z</time>
      </trkpt>
      <trkpt lat="43.94948" lon="1.82716">
        <ele>259.60000610352</ele>
        <time>2020-08-13T19:19:55.000Z</time>
      </trkpt>
      <trkpt lat="43.94948" lon="1.82716">
        <ele>259.60000610352</ele>
        <time>2020-08-13T19:19:56.000Z</time>
      </trkpt>
      <trkpt lat="43.94948" lon="1.82716">
        <ele>259.60000610352</ele>
        <time>2020-08-13T19:19:57.000Z</time>
      </trkpt>
      <trkpt lat="43.94948" lon="1.82716">
        <ele>259.60000610352</ele>
        <time>2020-08-13T19:19:58.000Z</time>
      </trkpt>
      <trkpt lat="43.94948" lon="1.82716">
        <ele>259.60000610352</ele>
        <time>2020-08-13T19:19:59.000Z</time>
      </trkpt>
      <trkpt lat="43.94948" lon="1.82716">
        <ele>259.60000610352</ele>
        <time>2020-08-13T19:20:00.000Z</time>
      </trkpt>
      <trkpt lat="43.94948" lon="1.82716">
        <ele>259.60000610352</ele>
        <time>2020-08-13T19:20:01.000Z</time>
      </trkpt>
      <trkpt lat="43.94948" lon="1.82716">
        <ele>259.60000610352</ele>
        <time>2020-08-13T19:20:02.000Z</time>
      </trkpt>
      <trkpt lat="43.94948" lon="1.82716">
        <ele>259.60000610352</ele>
        <time>2020-08-13T19:20:03.000Z</time>
      </trkpt>
      <trkpt lat="43.94948" lon="1.82716">
        <ele>259.60000610352</ele>
        <time>2020-08-13T19:20:04.000Z</time>
      </trkpt>
      <trkpt lat="43.94947" lon="1.82716">
        <ele>259.60000610352</ele>
        <time>2020-08-13T19:20:05.000Z</time>
      </trkpt>
      <trkpt lat="43.94945" lon="1.82716">
        <ele>259.60000610352</ele>
        <time>2020-08-13T19:20:06.000Z</time>
      </trkpt>
      <trkpt lat="43.94941" lon="1.82714">
        <ele>259.39999389648</ele>
        <time>2020-08-13T19:20:07.000Z</time>
      </trkpt>
      <trkpt lat="43.94937" lon="1.82714">
        <ele>259</ele>
        <time>2020-08-13T19:20:08.000Z</time>
      </trkpt>
      <trkpt lat="43.94931" lon="1.82712">
        <ele>258.60000610352</ele>
        <time>2020-08-13T19:20:09.000Z</time>
      </trkpt>
      <trkpt lat="43.94925" lon="1.82707">
        <ele>257.79998779297</ele>
        <time>2020-08-13T19:20:10.000Z</time>
      </trkpt>
      <trkpt lat="43.94917" lon="1.82701">
        <ele>257</ele>
        <time>2020-08-13T19:20:11.000Z</time>
      </trkpt>
      <trkpt lat="43.94909" lon="1.82694">
        <ele>255.39999389648</ele>
        <time>2020-08-13T19:20:12.000Z</time>
      </trkpt>
      <trkpt lat="43.94901" lon="1.82686">
        <ele>253.80000305176</ele>
        <time>2020-08-13T19:20:13.000Z</time>
      </trkpt>
      <trkpt lat="43.94892" lon="1.82679">
        <ele>252</ele>
        <time>2020-08-13T19:20:14.000Z</time>
      </trkpt>
      <trkpt lat="43.94884" lon="1.82672">
        <ele>251.39999389648</ele>
        <time>2020-08-13T19:20:15.000Z</time>
      </trkpt>
      <trkpt lat="43.94876" lon="1.82665">
        <ele>250.80000305176</ele>
        <time>2020-08-13T19:20:16.000Z</time>
      </trkpt>
      <trkpt lat="43.94869" lon="1.8266">
        <ele>250</ele>
        <time>2020-08-13T19:20:17.000Z</time>
      </trkpt>
      <trkpt lat="43.94863" lon="1.82656">
        <ele>249.19999694824</ele>
        <time>2020-08-13T19:20:18.000Z</time>
      </trkpt>
      <trkpt lat="43.94858" lon="1.82654">
        <ele>248.60000610352</ele>
        <time>2020-08-13T19:20:19.000Z</time>
      </trkpt>
      <trkpt lat="43.94853" lon="1.82654">
        <ele>248.19999694824</ele>
        <time>2020-08-13T19:20:20.000Z</time>
      </trkpt>
      <trkpt lat="43.9485" lon="1.82657">
        <ele>247.60000610352</ele>
        <time>2020-08-13T19:20:21.000Z</time>
      </trkpt>
      <trkpt lat="43.94847" lon="1.82664">
        <ele>247.19999694824</ele>
        <time>2020-08-13T19:20:22.000Z</time>
      </trkpt>
      <trkpt lat="43.94843" lon="1.82671">
        <ele>246.80000305176</ele>
        <time>2020-08-13T19:20:23.000Z</time>
      </trkpt>
      <trkpt lat="43.94838" lon="1.82679">
        <ele>246.80000305176</ele>
        <time>2020-08-13T19:20:24.000Z</time>
      </trkpt>
      <trkpt lat="43.94834" lon="1.82687">
        <ele>246.39999389648</ele>
        <time>2020-08-13T19:20:25.000Z</time>
      </trkpt>
      <trkpt lat="43.94829" lon="1.82695">
        <ele>246</ele>
        <time>2020-08-13T19:20:26.000Z</time>
      </trkpt>
      <trkpt lat="43.94823" lon="1.82703">
        <ele>245.60000610352</ele>
        <time>2020-08-13T19:20:27.000Z</time>
      </trkpt>
      <trkpt lat="43.94818" lon="1.8271">
        <ele>245.39999389648</ele>
        <time>2020-08-13T19:20:28.000Z</time>
      </trkpt>
      <trkpt lat="43.94812" lon="1.82717">
        <ele>245.60000610352</ele>
        <time>2020-08-13T19:20:29.000Z</time>
      </trkpt>
      <trkpt lat="43.94807" lon="1.82724">
        <ele>245.60000610352</ele>
        <time>2020-08-13T19:20:30.000Z</time>
      </trkpt>
      <trkpt lat="43.94801" lon="1.82732">
        <ele>245.39999389648</ele>
        <time>2020-08-13T19:20:31.000Z</time>
      </trkpt>
      <trkpt lat="43.94795" lon="1.8274">
        <ele>244.80000305176</ele>
        <time>2020-08-13T19:20:32.000Z</time>
      </trkpt>
      <trkpt lat="43.9479" lon="1.82748">
        <ele>244.60000610352</ele>
        <time>2020-08-13T19:20:33.000Z</time>
      </trkpt>
      <trkpt lat="43.94784" lon="1.82756">
        <ele>244.39999389648</ele>
        <time>2020-08-13T19:20:34.000Z</time>
      </trkpt>
      <trkpt lat="43.94779" lon="1.82764">
        <ele>244.39999389648</ele>
        <time>2020-08-13T19:20:35.000Z</time>
      </trkpt>
      <trkpt lat="43.94774" lon="1.82772">
        <ele>244.80000305176</ele>
        <time>2020-08-13T19:20:36.000Z</time>
      </trkpt>
      <trkpt lat="43.94769" lon="1.8278">
        <ele>244.39999389648</ele>
        <time>2020-08-13T19:20:37.000Z</time>
      </trkpt>
      <trkpt lat="43.94763" lon="1.82788">
        <ele>244.19999694824</ele>
        <time>2020-08-13T19:20:38.000Z</time>
      </trkpt>
      <trkpt lat="43.94757" lon="1.82795">
        <ele>243.19999694824</ele>
        <time>2020-08-13T19:20:39.000Z</time>
      </trkpt>
      <trkpt lat="43.94751" lon="1.82801">
        <ele>242.80000305176</ele>
        <time>2020-08-13T19:20:40.000Z</time>
      </trkpt>
      <trkpt lat="43.94745" lon="1.82808">
        <ele>242.19999694824</ele>
        <time>2020-08-13T19:20:41.000Z</time>
      </trkpt>
      <trkpt lat="43.9474" lon="1.82815">
        <ele>241.80000305176</ele>
        <time>2020-08-13T19:20:42.000Z</time>
      </trkpt>
      <trkpt lat="43.94737" lon="1.82824">
        <ele>242</ele>
        <time>2020-08-13T19:20:43.000Z</time>
      </trkpt>
      <trkpt lat="43.94735" lon="1.82835">
        <ele>242</ele>
        <time>2020-08-13T19:20:44.000Z</time>
      </trkpt>
      <trkpt lat="43.94733" lon="1.82845">
        <ele>241.60000610352</ele>
        <time>2020-08-13T19:20:45.000Z</time>
      </trkpt>
      <trkpt lat="43.9473" lon="1.82855">
        <ele>241</ele>
        <time>2020-08-13T19:20:46.000Z</time>
      </trkpt>
      <trkpt lat="43.94727" lon="1.82864">
        <ele>241</ele>
        <time>2020-08-13T19:20:47.000Z</time>
      </trkpt>
      <trkpt lat="43.94722" lon="1.82872">
        <ele>240</ele>
        <time>2020-08-13T19:20:48.000Z</time>
      </trkpt>
      <trkpt lat="43.94717" lon="1.82881">
        <ele>239.60000610352</ele>
        <time>2020-08-13T19:20:49.000Z</time>
      </trkpt>
      <trkpt lat="43.94712" lon="1.82889">
        <ele>239.19999694824</ele>
        <time>2020-08-13T19:20:50.000Z</time>
      </trkpt>
      <trkpt lat="43.94707" lon="1.82898">
        <ele>239.39999389648</ele>
        <time>2020-08-13T19:20:51.000Z</time>
      </trkpt>
      <trkpt lat="43.94702" lon="1.82906">
        <ele>239</ele>
        <time>2020-08-13T19:20:52.000Z</time>
      </trkpt>
      <trkpt lat="43.94697" lon="1.82914">
        <ele>238.39999389648</ele>
        <time>2020-08-13T19:20:53.000Z</time>
      </trkpt>
      <trkpt lat="43.94692" lon="1.82922">
        <ele>238</ele>
        <time>2020-08-13T19:20:54.000Z</time>
      </trkpt>
      <trkpt lat="43.94688" lon="1.82929">
        <ele>237.80000305176</ele>
        <time>2020-08-13T19:20:55.000Z</time>
      </trkpt>
      <trkpt lat="43.94686" lon="1.82936">
        <ele>237.60000610352</ele>
        <time>2020-08-13T19:20:56.000Z</time>
      </trkpt>
      <trkpt lat="43.94685" lon="1.82942">
        <ele>237.39999389648</ele>
        <time>2020-08-13T19:20:57.000Z</time>
      </trkpt>
      <trkpt lat="43.94685" lon="1.82948">
        <ele>237.39999389648</ele>
        <time>2020-08-13T19:20:58.000Z</time>
      </trkpt>
      <trkpt lat="43.94686" lon="1.82954">
        <ele>237.39999389648</ele>
        <time>2020-08-13T19:20:59.000Z</time>
      </trkpt>
      <trkpt lat="43.94689" lon="1.82957">
        <ele>237.60000610352</ele>
        <time>2020-08-13T19:21:00.000Z</time>
      </trkpt>
      <trkpt lat="43.94693" lon="1.82962">
        <ele>237.60000610352</ele>
        <time>2020-08-13T19:21:01.000Z</time>
      </trkpt>
      <trkpt lat="43.94694" lon="1.82968">
        <ele>237.39999389648</ele>
        <time>2020-08-13T19:21:02.000Z</time>
      </trkpt>
      <trkpt lat="43.94692" lon="1.82974">
        <ele>237.39999389648</ele>
        <time>2020-08-13T19:21:03.000Z</time>
      </trkpt>
      <trkpt lat="43.9469" lon="1.82979">
        <ele>237.19999694824</ele>
        <time>2020-08-13T19:21:04.000Z</time>
      </trkpt>
      <trkpt lat="43.94687" lon="1.82984">
        <ele>237.19999694824</ele>
        <time>2020-08-13T19:21:05.000Z</time>
      </trkpt>
      <trkpt lat="43.94684" lon="1.8299">
        <ele>237.39999389648</ele>
        <time>2020-08-13T19:21:06.000Z</time>
      </trkpt>
      <trkpt lat="43.94682" lon="1.82995">
        <ele>237.60000610352</ele>
        <time>2020-08-13T19:21:07.000Z</time>
      </trkpt>
      <trkpt lat="43.94679" lon="1.83001">
        <ele>237.39999389648</ele>
        <time>2020-08-13T19:21:08.000Z</time>
      </trkpt>
      <trkpt lat="43.94677" lon="1.83007">
        <ele>237.19999694824</ele>
        <time>2020-08-13T19:21:09.000Z</time>
      </trkpt>
      <trkpt lat="43.94675" lon="1.83013">
        <ele>237.19999694824</ele>
        <time>2020-08-13T19:21:10.000Z</time>
      </trkpt>
      <trkpt lat="43.94673" lon="1.83019">
        <ele>237.39999389648</ele>
        <time>2020-08-13T19:21:11.000Z</time>
      </trkpt>
      <trkpt lat="43.9467" lon="1.83024">
        <ele>237.60000610352</ele>
        <time>2020-08-13T19:21:12.000Z</time>
      </trkpt>
      <trkpt lat="43.94668" lon="1.83029">
        <ele>237.60000610352</ele>
        <time>2020-08-13T19:21:13.000Z</time>
      </trkpt>
      <trkpt lat="43.94666" lon="1.83035">
        <ele>237.60000610352</ele>
        <time>2020-08-13T19:21:14.000Z</time>
      </trkpt>
      <trkpt lat="43.94664" lon="1.8304">
        <ele>237.39999389648</ele>
        <time>2020-08-13T19:21:15.000Z</time>
      </trkpt>
      <trkpt lat="43.94662" lon="1.83045">
        <ele>237.60000610352</ele>
        <time>2020-08-13T19:21:16.000Z</time>
      </trkpt>
      <trkpt lat="43.9466" lon="1.8305">
        <ele>237.39999389648</ele>
        <time>2020-08-13T19:21:17.000Z</time>
      </trkpt>
      <trkpt lat="43.94658" lon="1.83055">
        <ele>237.60000610352</ele>
        <time>2020-08-13T19:21:18.000Z</time>
      </trkpt>
      <trkpt lat="43.94656" lon="1.8306">
        <ele>237.60000610352</ele>
        <time>2020-08-13T19:21:19.000Z</time>
      </trkpt>
      <trkpt lat="43.94654" lon="1.83065">
        <ele>237.80000305176</ele>
        <time>2020-08-13T19:21:20.000Z</time>
      </trkpt>
      <trkpt lat="43.94651" lon="1.8307">
        <ele>237.80000305176</ele>
        <time>2020-08-13T19:21:21.000Z</time>
      </trkpt>
      <trkpt lat="43.94649" lon="1.83075">
        <ele>238</ele>
        <time>2020-08-13T19:21:22.000Z</time>
      </trkpt>
      <trkpt lat="43.94647" lon="1.83079">
        <ele>238</ele>
        <time>2020-08-13T19:21:23.000Z</time>
      </trkpt>
      <trkpt lat="43.94645" lon="1.83084">
        <ele>238</ele>
        <time>2020-08-13T19:21:24.000Z</time>
      </trkpt>
      <trkpt lat="43.94642" lon="1.83089">
        <ele>237.80000305176</ele>
        <time>2020-08-13T19:21:25.000Z</time>
      </trkpt>
      <trkpt lat="43.9464" lon="1.83094">
        <ele>237.80000305176</ele>
        <time>2020-08-13T19:21:26.000Z</time>
      </trkpt>
      <trkpt lat="43.94638" lon="1.83099">
        <ele>237.80000305176</ele>
        <time>2020-08-13T19:21:27.000Z</time>
      </trkpt>
      <trkpt lat="43.94635" lon="1.83104">
        <ele>237.80000305176</ele>
        <time>2020-08-13T19:21:28.000Z</time>
      </trkpt>
      <trkpt lat="43.94633" lon="1.83109">
        <ele>237.80000305176</ele>
        <time>2020-08-13T19:21:29.000Z</time>
      </trkpt>
      <trkpt lat="43.9463" lon="1.83113">
        <ele>237.39999389648</ele>
        <time>2020-08-13T19:21:30.000Z</time>
      </trkpt>
      <trkpt lat="43.94628" lon="1.83118">
        <ele>237.19999694824</ele>
        <time>2020-08-13T19:21:31.000Z</time>
      </trkpt>
      <trkpt lat="43.94625" lon="1.83124">
        <ele>237.60000610352</ele>
        <time>2020-08-13T19:21:32.000Z</time>
      </trkpt>
      <trkpt lat="43.94623" lon="1.83128">
        <ele>237.80000305176</ele>
        <time>2020-08-13T19:21:33.000Z</time>
      </trkpt>
      <trkpt lat="43.9462" lon="1.83133">
        <ele>237.60000610352</ele>
        <time>2020-08-13T19:21:34.000Z</time>
      </trkpt>
      <trkpt lat="43.94617" lon="1.83138">
        <ele>237.60000610352</ele>
        <time>2020-08-13T19:21:35.000Z</time>
      </trkpt>
      <trkpt lat="43.94614" lon="1.83143">
        <ele>237.60000610352</ele>
        <time>2020-08-13T19:21:36.000Z</time>
      </trkpt>
      <trkpt lat="43.94612" lon="1.83148">
        <ele>237.60000610352</ele>
        <time>2020-08-13T19:21:37.000Z</time>
      </trkpt>
      <trkpt lat="43.94609" lon="1.83153">
        <ele>237.39999389648</ele>
        <time>2020-08-13T19:21:38.000Z</time>
      </trkpt>
      <trkpt lat="43.94605" lon="1.83157">
        <ele>237.19999694824</ele>
        <time>2020-08-13T19:21:39.000Z</time>
      </trkpt>
      <trkpt lat="43.94602" lon="1.83162">
        <ele>237.19999694824</ele>
        <time>2020-08-13T19:21:40.000Z</time>
      </trkpt>
      <trkpt lat="43.94599" lon="1.83167">
        <ele>237.39999389648</ele>
        <time>2020-08-13T19:21:41.000Z</time>
      </trkpt>
      <trkpt lat="43.94596" lon="1.83172">
        <ele>237.39999389648</ele>
        <time>2020-08-13T19:21:42.000Z</time>
      </trkpt>
      <trkpt lat="43.94593" lon="1.83177">
        <ele>237.19999694824</ele>
        <time>2020-08-13T19:21:43.000Z</time>
      </trkpt>
      <trkpt lat="43.9459" lon="1.83182">
        <ele>237.19999694824</ele>
        <time>2020-08-13T19:21:44.000Z</time>
      </trkpt>
      <trkpt lat="43.94587" lon="1.83187">
        <ele>237.19999694824</ele>
        <time>2020-08-13T19:21:45.000Z</time>
      </trkpt>
      <trkpt lat="43.94584" lon="1.83192">
        <ele>237.19999694824</ele>
        <time>2020-08-13T19:21:46.000Z</time>
      </trkpt>
      <trkpt lat="43.94581" lon="1.83197">
        <ele>237.19999694824</ele>
        <time>2020-08-13T19:21:47.000Z</time>
      </trkpt>
      <trkpt lat="43.94578" lon="1.83202">
        <ele>237.39999389648</ele>
        <time>2020-08-13T19:21:48.000Z</time>
      </trkpt>
      <trkpt lat="43.94575" lon="1.83207">
        <ele>237.39999389648</ele>
        <time>2020-08-13T19:21:49.000Z</time>
      </trkpt>
      <trkpt lat="43.94572" lon="1.83212">
        <ele>237.39999389648</ele>
        <time>2020-08-13T19:21:50.000Z</time>
      </trkpt>
      <trkpt lat="43.9457" lon="1.83217">
        <ele>237.19999694824</ele>
        <time>2020-08-13T19:21:51.000Z</time>
      </trkpt>
      <trkpt lat="43.94567" lon="1.83222">
        <ele>237.19999694824</ele>
        <time>2020-08-13T19:21:52.000Z</time>
      </trkpt>
      <trkpt lat="43.94564" lon="1.83227">
        <ele>237.60000610352</ele>
        <time>2020-08-13T19:21:53.000Z</time>
      </trkpt>
      <trkpt lat="43.94561" lon="1.83232">
        <ele>237.39999389648</ele>
        <time>2020-08-13T19:21:54.000Z</time>
      </trkpt>
      <trkpt lat="43.94558" lon="1.83237">
        <ele>237.39999389648</ele>
        <time>2020-08-13T19:21:55.000Z</time>
      </trkpt>
      <trkpt lat="43.94556" lon="1.83242">
        <ele>237.60000610352</ele>
        <time>2020-08-13T19:21:56.000Z</time>
      </trkpt>
      <trkpt lat="43.94553" lon="1.83246">
        <ele>237.80000305176</ele>
        <time>2020-08-13T19:21:57.000Z</time>
      </trkpt>
      <trkpt lat="43.94551" lon="1.83249">
        <ele>237.60000610352</ele>
        <time>2020-08-13T19:21:58.000Z</time>
      </trkpt>
      <trkpt lat="43.9455" lon="1.83253">
        <ele>237.60000610352</ele>
        <time>2020-08-13T19:21:59.000Z</time>
      </trkpt>
      <trkpt lat="43.94549" lon="1.83256">
        <ele>237.60000610352</ele>
        <time>2020-08-13T19:22:00.000Z</time>
      </trkpt>
      <trkpt lat="43.94548" lon="1.83259">
        <ele>238</ele>
        <time>2020-08-13T19:22:01.000Z</time>
      </trkpt>
      <trkpt lat="43.94548" lon="1.83263">
        <ele>238.19999694824</ele>
        <time>2020-08-13T19:22:02.000Z</time>
      </trkpt>
      <trkpt lat="43.94549" lon="1.83266">
        <ele>238.39999389648</ele>
        <time>2020-08-13T19:22:03.000Z</time>
      </trkpt>
      <trkpt lat="43.9455" lon="1.83269">
        <ele>238.80000305176</ele>
        <time>2020-08-13T19:22:04.000Z</time>
      </trkpt>
      <trkpt lat="43.94552" lon="1.83271">
        <ele>239.19999694824</ele>
        <time>2020-08-13T19:22:05.000Z</time>
      </trkpt>
      <trkpt lat="43.94555" lon="1.83272">
        <ele>239.80000305176</ele>
        <time>2020-08-13T19:22:06.000Z</time>
      </trkpt>
      <trkpt lat="43.94558" lon="1.83273">
        <ele>240.19999694824</ele>
        <time>2020-08-13T19:22:07.000Z</time>
      </trkpt>
      <trkpt lat="43.94561" lon="1.83275">
        <ele>240.80000305176</ele>
        <time>2020-08-13T19:22:08.000Z</time>
      </trkpt>
      <trkpt lat="43.94564" lon="1.83276">
        <ele>241.19999694824</ele>
        <time>2020-08-13T19:22:09.000Z</time>
      </trkpt>
      <trkpt lat="43.94566" lon="1.83278">
        <ele>241.60000610352</ele>
        <time>2020-08-13T19:22:10.000Z</time>
      </trkpt>
      <trkpt lat="43.94568" lon="1.8328">
        <ele>242</ele>
        <time>2020-08-13T19:22:11.000Z</time>
      </trkpt>
      <trkpt lat="43.94571" lon="1.83282">
        <ele>242.60000610352</ele>
        <time>2020-08-13T19:22:12.000Z</time>
      </trkpt>
      <trkpt lat="43.94573" lon="1.83284">
        <ele>243.19999694824</ele>
        <time>2020-08-13T19:22:13.000Z</time>
      </trkpt>
      <trkpt lat="43.94575" lon="1.83286">
        <ele>243.60000610352</ele>
        <time>2020-08-13T19:22:14.000Z</time>
      </trkpt>
      <trkpt lat="43.94577" lon="1.83288">
        <ele>244</ele>
        <time>2020-08-13T19:22:15.000Z</time>
      </trkpt>
      <trkpt lat="43.94579" lon="1.8329">
        <ele>244.19999694824</ele>
        <time>2020-08-13T19:22:16.000Z</time>
      </trkpt>
      <trkpt lat="43.94581" lon="1.83292">
        <ele>244.39999389648</ele>
        <time>2020-08-13T19:22:17.000Z</time>
      </trkpt>
      <trkpt lat="43.94584" lon="1.83294">
        <ele>244.80000305176</ele>
        <time>2020-08-13T19:22:18.000Z</time>
      </trkpt>
      <trkpt lat="43.94586" lon="1.83296">
        <ele>245.19999694824</ele>
        <time>2020-08-13T19:22:19.000Z</time>
      </trkpt>
      <trkpt lat="43.94588" lon="1.83298">
        <ele>245.80000305176</ele>
        <time>2020-08-13T19:22:20.000Z</time>
      </trkpt>
      <trkpt lat="43.9459" lon="1.83299">
        <ele>246</ele>
        <time>2020-08-13T19:22:21.000Z</time>
      </trkpt>
      <trkpt lat="43.94592" lon="1.83302">
        <ele>246.19999694824</ele>
        <time>2020-08-13T19:22:22.000Z</time>
      </trkpt>
      <trkpt lat="43.94594" lon="1.83304">
        <ele>246.39999389648</ele>
        <time>2020-08-13T19:22:23.000Z</time>
      </trkpt>
      <trkpt lat="43.94596" lon="1.83305">
        <ele>246.60000610352</ele>
        <time>2020-08-13T19:22:24.000Z</time>
      </trkpt>
      <trkpt lat="43.94598" lon="1.83307">
        <ele>246.60000610352</ele>
        <time>2020-08-13T19:22:25.000Z</time>
      </trkpt>
      <trkpt lat="43.946" lon="1.83309">
        <ele>246.80000305176</ele>
        <time>2020-08-13T19:22:26.000Z</time>
      </trkpt>
      <trkpt lat="43.94602" lon="1.83311">
        <ele>247</ele>
        <time>2020-08-13T19:22:27.000Z</time>
      </trkpt>
      <trkpt lat="43.94603" lon="1.83312">
        <ele>247.19999694824</ele>
        <time>2020-08-13T19:22:28.000Z</time>
      </trkpt>
      <trkpt lat="43.94605" lon="1.83314">
        <ele>247.19999694824</ele>
        <time>2020-08-13T19:22:29.000Z</time>
      </trkpt>
      <trkpt lat="43.94606" lon="1.83315">
        <ele>247.19999694824</ele>
        <time>2020-08-13T19:22:30.000Z</time>
      </trkpt>
      <trkpt lat="43.94608" lon="1.83316">
        <ele>247.19999694824</ele>
        <time>2020-08-13T19:22:31.000Z</time>
      </trkpt>
      <trkpt lat="43.94609" lon="1.83318">
        <ele>247.19999694824</ele>
        <time>2020-08-13T19:22:32.000Z</time>
      </trkpt>
      <trkpt lat="43.9461" lon="1.8332">
        <ele>247.39999389648</ele>
        <time>2020-08-13T19:22:33.000Z</time>
      </trkpt>
      <trkpt lat="43.94611" lon="1.83323">
        <ele>247.19999694824</ele>
        <time>2020-08-13T19:22:34.000Z</time>
      </trkpt>
      <trkpt lat="43.94612" lon="1.83326">
        <ele>247.19999694824</ele>
        <time>2020-08-13T19:22:35.000Z</time>
      </trkpt>
      <trkpt lat="43.94612" lon="1.83329">
        <ele>247</ele>
        <time>2020-08-13T19:22:36.000Z</time>
      </trkpt>
      <trkpt lat="43.9461" lon="1.83332">
        <ele>246.80000305176</ele>
        <time>2020-08-13T19:22:37.000Z</time>
      </trkpt>
      <trkpt lat="43.94607" lon="1.83334">
        <ele>246.60000610352</ele>
        <time>2020-08-13T19:22:38.000Z</time>
      </trkpt>
      <trkpt lat="43.94604" lon="1.83336">
        <ele>246.39999389648</ele>
        <time>2020-08-13T19:22:39.000Z</time>
      </trkpt>
      <trkpt lat="43.946" lon="1.83337">
        <ele>246.19999694824</ele>
        <time>2020-08-13T19:22:40.000Z</time>
      </trkpt>
      <trkpt lat="43.94598" lon="1.83338">
        <ele>246.19999694824</ele>
        <time>2020-08-13T19:22:41.000Z</time>
      </trkpt>
      <trkpt lat="43.94596" lon="1.8334">
        <ele>246.19999694824</ele>
        <time>2020-08-13T19:22:42.000Z</time>
      </trkpt>
      <trkpt lat="43.94594" lon="1.83342">
        <ele>246</ele>
        <time>2020-08-13T19:22:43.000Z</time>
      </trkpt>
      <trkpt lat="43.94592" lon="1.83344">
        <ele>246</ele>
        <time>2020-08-13T19:22:44.000Z</time>
      </trkpt>
      <trkpt lat="43.94591" lon="1.83345">
        <ele>245.80000305176</ele>
        <time>2020-08-13T19:22:45.000Z</time>
      </trkpt>
      <trkpt lat="43.94589" lon="1.83347">
        <ele>245.80000305176</ele>
        <time>2020-08-13T19:22:46.000Z</time>
      </trkpt>
      <trkpt lat="43.94587" lon="1.8335">
        <ele>245.60000610352</ele>
        <time>2020-08-13T19:22:47.000Z</time>
      </trkpt>
      <trkpt lat="43.94586" lon="1.83353">
        <ele>245.39999389648</ele>
        <time>2020-08-13T19:22:48.000Z</time>
      </trkpt>
      <trkpt lat="43.94587" lon="1.83356">
        <ele>245.39999389648</ele>
        <time>2020-08-13T19:22:49.000Z</time>
      </trkpt>
      <trkpt lat="43.94588" lon="1.83357">
        <ele>245.19999694824</ele>
        <time>2020-08-13T19:22:50.000Z</time>
      </trkpt>
      <trkpt lat="43.9459" lon="1.83357">
        <ele>245.19999694824</ele>
        <time>2020-08-13T19:22:51.000Z</time>
      </trkpt>
      <trkpt lat="43.94591" lon="1.83356">
        <ele>245.19999694824</ele>
        <time>2020-08-13T19:22:52.000Z</time>
      </trkpt>
      <trkpt lat="43.94592" lon="1.83356">
        <ele>245.19999694824</ele>
        <time>2020-08-13T19:22:53.000Z</time>
      </trkpt>
      <trkpt lat="43.94592" lon="1.83356">
        <ele>245.19999694824</ele>
        <time>2020-08-13T19:22:54.000Z</time>
      </trkpt>
      <trkpt lat="43.94593" lon="1.83354">
        <ele>245.19999694824</ele>
        <time>2020-08-13T19:22:55.000Z</time>
      </trkpt>
      <trkpt lat="43.94593" lon="1.83354">
        <ele>245.19999694824</ele>
        <time>2020-08-13T19:22:56.000Z</time>
      </trkpt>
    </trkseg>
  </trk>
</gpx>